<?xml version='1.0' encoding='UTF-8'?><gpx version="1.1" creator="JPX - https://github.com/jenetics/jpx" xmlns="http://www.topografix.com/GPX/1/1"><trk><trkseg><trkpt lat="43.51757846281724" lon="13.614721728862188"><ele>70.0</ele><time>2026-04-26T14:45:33.999Z</time></trkpt><trkpt lat="43.51750394009589" lon="13.614678684987927"><ele>70.0</ele><time>2026-04-26T14:45:35.999Z</time></trkpt><trkpt lat="43.517498229326705" lon="13.614589671847746"><ele>70.0</ele><time>2026-04-26T14:45:38.999Z</time></trkpt><trkpt lat="43.517560765292124" lon="13.6145785252687"><ele>70.0</ele><time>2026-04-26T14:45:40.999Z</time></trkpt><trkpt lat="43.51763058172536" lon="13.614605742539991"><ele>70.0</ele><time>2026-04-26T14:45:41.999Z</time></trkpt><trkpt lat="43.51772493216364" lon="13.61463420047143"><ele>70.0</ele><time>2026-04-26T14:45:42.999Z</time></trkpt><trkpt lat="43.51783037289771" lon="13.614660436826837"><ele>71.25</ele><time>2026-04-26T14:45:43.999Z</time></trkpt><trkpt lat="43.51794592888441" lon="13.614679443481753"><ele>72.5</ele><time>2026-04-26T14:45:44.999Z</time></trkpt><trkpt lat="43.5180776619785" lon="13.614701888190462"><ele>73.75</ele><time>2026-04-26T14:45:45.999Z</time></trkpt><trkpt lat="43.51820696853935" lon="13.614731942148923"><ele>75.0</ele><time>2026-04-26T14:45:46.999Z</time></trkpt><trkpt lat="43.51832905751755" lon="13.614774759403142"><ele>75.0</ele><time>2026-04-26T14:45:47.999Z</time></trkpt><trkpt lat="43.518444245712324" lon="13.61482415888509"><ele>75.0</ele><time>2026-04-26T14:45:48.999Z</time></trkpt><trkpt lat="43.51852630214622" lon="13.614862504030787"><ele>75.0</ele><time>2026-04-26T14:45:49.999Z</time></trkpt><trkpt lat="43.5185889519646" lon="13.614917287480042"><ele>75.0</ele><time>2026-04-26T14:45:51.999Z</time></trkpt><trkpt lat="43.51864769870797" lon="13.614972166966389"><ele>75.0</ele><time>2026-04-26T14:45:55.999Z</time></trkpt><trkpt lat="43.51869915405819" lon="13.615025708427957"><ele>75.0</ele><time>2026-04-26T14:45:56.999Z</time></trkpt><trkpt lat="43.51875822164539" lon="13.615088170798105"><ele>76.33333333333333</ele><time>2026-04-26T14:45:57.999Z</time></trkpt><trkpt lat="43.518816442869934" lon="13.615141203601452"><ele>77.66666666666667</ele><time>2026-04-26T14:45:58.999Z</time></trkpt><trkpt lat="43.51890043311578" lon="13.61510967878642"><ele>79.0</ele><time>2026-04-26T14:45:59.999Z</time></trkpt><trkpt lat="43.518966268338175" lon="13.615056781950742"><ele>80.33333333333334</ele><time>2026-04-26T14:46:00.999Z</time></trkpt><trkpt lat="43.51901528575834" lon="13.61497144475319"><ele>81.66666666666667</ele><time>2026-04-26T14:46:01.999Z</time></trkpt><trkpt lat="43.51903330916664" lon="13.614858910457981"><ele>83.0</ele><time>2026-04-26T14:46:02.999Z</time></trkpt><trkpt lat="43.51902173412787" lon="13.614733746895658"><ele>83.0</ele><time>2026-04-26T14:46:03.999Z</time></trkpt><trkpt lat="43.51898662029334" lon="13.614605589397977"><ele>83.0</ele><time>2026-04-26T14:46:04.999Z</time></trkpt><trkpt lat="43.5189547766813" lon="13.614470273374987"><ele>83.0</ele><time>2026-04-26T14:46:05.999Z</time></trkpt><trkpt lat="43.51893856547326" lon="13.614328772929047"><ele>83.0</ele><time>2026-04-26T14:46:06.999Z</time></trkpt><trkpt lat="43.51893998110992" lon="13.61420652411478"><ele>83.0</ele><time>2026-04-26T14:46:07.999Z</time></trkpt><trkpt lat="43.518943497761654" lon="13.614099232724039"><ele>84.0</ele><time>2026-04-26T14:46:08.999Z</time></trkpt><trkpt lat="43.51894110444093" lon="13.613981728460173"><ele>85.0</ele><time>2026-04-26T14:46:09.999Z</time></trkpt><trkpt lat="43.518943202542516" lon="13.61384247452799"><ele>86.0</ele><time>2026-04-26T14:46:10.999Z</time></trkpt><trkpt lat="43.51897576170338" lon="13.613690379114246"><ele>87.0</ele><time>2026-04-26T14:46:11.999Z</time></trkpt><trkpt lat="43.51898745468402" lon="13.613514825207405"><ele>88.0</ele><time>2026-04-26T14:46:12.999Z</time></trkpt><trkpt lat="43.5190463256666" lon="13.613338359392994"><ele>88.0</ele><time>2026-04-26T14:46:13.999Z</time></trkpt><trkpt lat="43.51910277992522" lon="13.61314363002988"><ele>88.0</ele><time>2026-04-26T14:46:14.999Z</time></trkpt><trkpt lat="43.51915959171115" lon="13.612931068843041"><ele>88.0</ele><time>2026-04-26T14:46:15.999Z</time></trkpt><trkpt lat="43.5192273651834" lon="13.612735564180335"><ele>87.5</ele><time>2026-04-26T14:46:16.999Z</time></trkpt><trkpt lat="43.51928384797008" lon="13.612558043228894"><ele>87.0</ele><time>2026-04-26T14:46:17.999Z</time></trkpt><trkpt lat="43.51932832875107" lon="13.612384201254327"><ele>86.5</ele><time>2026-04-26T14:46:18.999Z</time></trkpt><trkpt lat="43.51935116090311" lon="13.612196798571635"><ele>86.0</ele><time>2026-04-26T14:46:19.999Z</time></trkpt><trkpt lat="43.51934672409496" lon="13.611989586713147"><ele>86.0</ele><time>2026-04-26T14:46:20.999Z</time></trkpt><trkpt lat="43.51933258293553" lon="13.61177408541401"><ele>86.0</ele><time>2026-04-26T14:46:21.999Z</time></trkpt><trkpt lat="43.51931927092846" lon="13.611550977417004"><ele>86.0</ele><time>2026-04-26T14:46:22.999Z</time></trkpt><trkpt lat="43.51930384730112" lon="13.611319852968409"><ele>84.66666666666667</ele><time>2026-04-26T14:46:23.999Z</time></trkpt><trkpt lat="43.51927650196867" lon="13.611083684181583"><ele>83.33333333333333</ele><time>2026-04-26T14:46:24.999Z</time></trkpt><trkpt lat="43.519229489132655" lon="13.610843114441694"><ele>82.0</ele><time>2026-04-26T14:46:25.999Z</time></trkpt><trkpt lat="43.519158463391626" lon="13.610616588228677"><ele>82.0</ele><time>2026-04-26T14:46:26.999Z</time></trkpt><trkpt lat="43.51909042581014" lon="13.61041701521241"><ele>82.0</ele><time>2026-04-26T14:46:27.999Z</time></trkpt><trkpt lat="43.519017412881276" lon="13.6102499131522"><ele>82.0</ele><time>2026-04-26T14:46:28.999Z</time></trkpt><trkpt lat="43.518913035967635" lon="13.610125016042264"><ele>82.0</ele><time>2026-04-26T14:46:29.999Z</time></trkpt><trkpt lat="43.5187884271029" lon="13.610027983394144"><ele>79.66666666666666</ele><time>2026-04-26T14:46:30.999Z</time></trkpt><trkpt lat="43.51863781635211" lon="13.609960565936197"><ele>77.33333333333333</ele><time>2026-04-26T14:46:31.999Z</time></trkpt><trkpt lat="43.51847327841018" lon="13.609921009850762"><ele>75.0</ele><time>2026-04-26T14:46:32.998Z</time></trkpt><trkpt lat="43.51829993448479" lon="13.609879446725314"><ele>75.0</ele><time>2026-04-26T14:46:33.998Z</time></trkpt><trkpt lat="43.51812637514474" lon="13.609827970824497"><ele>75.0</ele><time>2026-04-26T14:46:34.998Z</time></trkpt><trkpt lat="43.51796135690667" lon="13.609773186621464"><ele>75.0</ele><time>2026-04-26T14:46:35.998Z</time></trkpt><trkpt lat="43.51780769434899" lon="13.609720837307428"><ele>74.25</ele><time>2026-04-26T14:46:36.998Z</time></trkpt><trkpt lat="43.51767488110067" lon="13.60967647001747"><ele>73.5</ele><time>2026-04-26T14:46:37.998Z</time></trkpt><trkpt lat="43.517555348990484" lon="13.609640948453734"><ele>72.75</ele><time>2026-04-26T14:46:38.998Z</time></trkpt><trkpt lat="43.51744245036493" lon="13.609605124981835"><ele>72.0</ele><time>2026-04-26T14:46:39.998Z</time></trkpt><trkpt lat="43.517331945307504" lon="13.609575676880697"><ele>72.0</ele><time>2026-04-26T14:46:40.998Z</time></trkpt><trkpt lat="43.51721887228691" lon="13.609556032433975"><ele>72.0</ele><time>2026-04-26T14:46:41.998Z</time></trkpt><trkpt lat="43.517108270166545" lon="13.609547004999353"><ele>72.0</ele><time>2026-04-26T14:46:42.998Z</time></trkpt><trkpt lat="43.51700140392287" lon="13.609545375585006"><ele>72.0</ele><time>2026-04-26T14:46:44Z</time></trkpt><trkpt lat="43.51689961751196" lon="13.60954102527721"><ele>72.0</ele><time>2026-04-26T14:46:45Z</time></trkpt><trkpt lat="43.516798831641566" lon="13.609532732858685"><ele>73.0</ele><time>2026-04-26T14:46:45.999Z</time></trkpt><trkpt lat="43.51669394380388" lon="13.609513343648318"><ele>74.0</ele><time>2026-04-26T14:46:46.999Z</time></trkpt><trkpt lat="43.516586391562335" lon="13.609472135313595"><ele>75.0</ele><time>2026-04-26T14:46:48Z</time></trkpt><trkpt lat="43.516486098591095" lon="13.609404808355173"><ele>76.0</ele><time>2026-04-26T14:46:48.999Z</time></trkpt><trkpt lat="43.51639375763415" lon="13.609324278287767"><ele>77.0</ele><time>2026-04-26T14:46:49.999Z</time></trkpt><trkpt lat="43.51631160895145" lon="13.60923175095161"><ele>76.8</ele><time>2026-04-26T14:46:51Z</time></trkpt><trkpt lat="43.516231244520796" lon="13.609136751669213"><ele>76.6</ele><time>2026-04-26T14:46:51.999Z</time></trkpt><trkpt lat="43.51615021730456" lon="13.609036913064006"><ele>76.39999999999999</ele><time>2026-04-26T14:46:53Z</time></trkpt><trkpt lat="43.51606412849129" lon="13.608934265929472"><ele>76.2</ele><time>2026-04-26T14:46:54Z</time></trkpt><trkpt lat="43.515971625993615" lon="13.608833564831093"><ele>76.0</ele><time>2026-04-26T14:46:55Z</time></trkpt><trkpt lat="43.51587980168824" lon="13.608721142964121"><ele>76.75</ele><time>2026-04-26T14:46:56Z</time></trkpt><trkpt lat="43.515785222292486" lon="13.608609011092186"><ele>77.5</ele><time>2026-04-26T14:46:57Z</time></trkpt><trkpt lat="43.51568779042917" lon="13.608491033228297"><ele>78.25</ele><time>2026-04-26T14:46:57.999Z</time></trkpt><trkpt lat="43.51558335304528" lon="13.608376813692132"><ele>79.0</ele><time>2026-04-26T14:46:58.999Z</time></trkpt><trkpt lat="43.51547752577292" lon="13.608256900448328"><ele>78.0</ele><time>2026-04-26T14:46:59.999Z</time></trkpt><trkpt lat="43.515373334202174" lon="13.608132615620967"><ele>77.0</ele><time>2026-04-26T14:47:00.999Z</time></trkpt><trkpt lat="43.515274276401755" lon="13.608011342552544"><ele>76.0</ele><time>2026-04-26T14:47:01.999Z</time></trkpt><trkpt lat="43.51517481907351" lon="13.607897591556592"><ele>75.0</ele><time>2026-04-26T14:47:02.999Z</time></trkpt><trkpt lat="43.51507997583664" lon="13.607787904432579"><ele>74.75</ele><time>2026-04-26T14:47:03.999Z</time></trkpt><trkpt lat="43.51498493684144" lon="13.607676336385438"><ele>74.5</ele><time>2026-04-26T14:47:04.999Z</time></trkpt><trkpt lat="43.514886828845185" lon="13.607558295167133"><ele>74.25</ele><time>2026-04-26T14:47:05.999Z</time></trkpt><trkpt lat="43.51479179891728" lon="13.607434287951046"><ele>74.0</ele><time>2026-04-26T14:47:06.999Z</time></trkpt><trkpt lat="43.514703415476" lon="13.607317011730824"><ele>74.0</ele><time>2026-04-26T14:47:07.999Z</time></trkpt><trkpt lat="43.51462217132291" lon="13.607207105275641"><ele>74.0</ele><time>2026-04-26T14:47:08.999Z</time></trkpt><trkpt lat="43.51453820394472" lon="13.607088839837708"><ele>74.0</ele><time>2026-04-26T14:47:09.999Z</time></trkpt><trkpt lat="43.51444604701978" lon="13.60697208721904"><ele>74.0</ele><time>2026-04-26T14:47:10.999Z</time></trkpt><trkpt lat="43.51435878813952" lon="13.606853978785821"><ele>73.0</ele><time>2026-04-26T14:47:11.999Z</time></trkpt><trkpt lat="43.51427896038671" lon="13.606741004654488"><ele>72.0</ele><time>2026-04-26T14:47:12.999Z</time></trkpt><trkpt lat="43.51420412757233" lon="13.60663384765302"><ele>71.0</ele><time>2026-04-26T14:47:13.999Z</time></trkpt><trkpt lat="43.514125419799186" lon="13.606541555678115"><ele>70.0</ele><time>2026-04-26T14:47:14.999Z</time></trkpt><trkpt lat="43.51404182656338" lon="13.606451306412788"><ele>69.0</ele><time>2026-04-26T14:47:15.999Z</time></trkpt><trkpt lat="43.513956973432094" lon="13.606359187666232"><ele>69.0</ele><time>2026-04-26T14:47:16.999Z</time></trkpt><trkpt lat="43.51386329673843" lon="13.606264093617042"><ele>69.0</ele><time>2026-04-26T14:47:17.999Z</time></trkpt><trkpt lat="43.513758807434705" lon="13.606161745470363"><ele>69.0</ele><time>2026-04-26T14:47:18.999Z</time></trkpt><trkpt lat="43.51364852077218" lon="13.606053783113769"><ele>69.0</ele><time>2026-04-26T14:47:19.999Z</time></trkpt><trkpt lat="43.51353334038364" lon="13.605943091174675"><ele>68.0</ele><time>2026-04-26T14:47:20.999Z</time></trkpt><trkpt lat="43.51341917737425" lon="13.605836026813677"><ele>67.0</ele><time>2026-04-26T14:47:21.999Z</time></trkpt><trkpt lat="43.51331699033448" lon="13.605731022680198"><ele>66.0</ele><time>2026-04-26T14:47:22.999Z</time></trkpt><trkpt lat="43.5132212105793" lon="13.605635617312359"><ele>65.0</ele><time>2026-04-26T14:47:23.999Z</time></trkpt><trkpt lat="43.513129534262426" lon="13.605543569803793"><ele>65.0</ele><time>2026-04-26T14:47:24.999Z</time></trkpt><trkpt lat="43.51303966863263" lon="13.605456155755768"><ele>65.0</ele><time>2026-04-26T14:47:25.999Z</time></trkpt><trkpt lat="43.51296017720174" lon="13.605377736155122"><ele>65.0</ele><time>2026-04-26T14:47:26.999Z</time></trkpt><trkpt lat="43.5128857616205" lon="13.605306021222296"><ele>65.0</ele><time>2026-04-26T14:47:27.999Z</time></trkpt><trkpt lat="43.512813191596614" lon="13.605235993043683"><ele>65.0</ele><time>2026-04-26T14:47:28.999Z</time></trkpt><trkpt lat="43.51274243360142" lon="13.605172060948384"><ele>65.8</ele><time>2026-04-26T14:47:29.999Z</time></trkpt><trkpt lat="43.51267999223925" lon="13.605107150143045"><ele>66.6</ele><time>2026-04-26T14:47:30.999Z</time></trkpt><trkpt lat="43.51262153385771" lon="13.605038856931907"><ele>67.4</ele><time>2026-04-26T14:47:31.999Z</time></trkpt><trkpt lat="43.51253000530852" lon="13.604923555383781"><ele>68.2</ele><time>2026-04-26T14:47:33.999Z</time></trkpt><trkpt lat="43.51247320953553" lon="13.604845094542762"><ele>69.0</ele><time>2026-04-26T14:47:34.999Z</time></trkpt><trkpt lat="43.51239754419581" lon="13.604744807562366"><ele>69.0</ele><time>2026-04-26T14:47:35.999Z</time></trkpt><trkpt lat="43.512306550326855" lon="13.604620542971551"><ele>69.0</ele><time>2026-04-26T14:47:36.999Z</time></trkpt><trkpt lat="43.51221422138661" lon="13.604483481267087"><ele>69.0</ele><time>2026-04-26T14:47:37.999Z</time></trkpt><trkpt lat="43.51211488701904" lon="13.604341447142996"><ele>69.0</ele><time>2026-04-26T14:47:38.999Z</time></trkpt><trkpt lat="43.512007335884704" lon="13.604197031813825"><ele>68.5</ele><time>2026-04-26T14:47:39.999Z</time></trkpt><trkpt lat="43.5118943839626" lon="13.604052621537273"><ele>68.0</ele><time>2026-04-26T14:47:40.999Z</time></trkpt><trkpt lat="43.51178318355248" lon="13.603913858888978"><ele>67.5</ele><time>2026-04-26T14:47:41.999Z</time></trkpt><trkpt lat="43.5116736491643" lon="13.60378930045468"><ele>67.0</ele><time>2026-04-26T14:47:42.999Z</time></trkpt><trkpt lat="43.51156418116051" lon="13.603681153312516"><ele>67.25</ele><time>2026-04-26T14:47:43.999Z</time></trkpt><trkpt lat="43.5114544176409" lon="13.603587781680393"><ele>67.5</ele><time>2026-04-26T14:47:44.999Z</time></trkpt><trkpt lat="43.511352540309524" lon="13.603494167261397"><ele>67.75</ele><time>2026-04-26T14:47:45.999Z</time></trkpt><trkpt lat="43.51125660600259" lon="13.603410026980443"><ele>68.0</ele><time>2026-04-26T14:47:46.999Z</time></trkpt><trkpt lat="43.511161576113025" lon="13.603322057918598"><ele>67.5</ele><time>2026-04-26T14:47:47.999Z</time></trkpt><trkpt lat="43.51106552055223" lon="13.603215175385163"><ele>67.0</ele><time>2026-04-26T14:47:48.999Z</time></trkpt><trkpt lat="43.51097321863977" lon="13.603087352106513"><ele>66.5</ele><time>2026-04-26T14:47:49.999Z</time></trkpt><trkpt lat="43.5108982089903" lon="13.602953701296348"><ele>66.0</ele><time>2026-04-26T14:47:50.999Z</time></trkpt><trkpt lat="43.51082196250909" lon="13.602805824114427"><ele>66.0</ele><time>2026-04-26T14:47:51.999Z</time></trkpt><trkpt lat="43.51072890674977" lon="13.602637025819673"><ele>66.0</ele><time>2026-04-26T14:47:52.999Z</time></trkpt><trkpt lat="43.51063903409247" lon="13.602429170917713"><ele>66.0</ele><time>2026-04-26T14:47:53.999Z</time></trkpt><trkpt lat="43.51053007427579" lon="13.602212590825447"><ele>67.0</ele><time>2026-04-26T14:47:54.999Z</time></trkpt><trkpt lat="43.51041305996312" lon="13.601984544016746"><ele>68.0</ele><time>2026-04-26T14:47:55.999Z</time></trkpt><trkpt lat="43.51028882420871" lon="13.60174944935845"><ele>69.0</ele><time>2026-04-26T14:47:56.999Z</time></trkpt><trkpt lat="43.51016214948012" lon="13.601515445466326"><ele>67.33333333333333</ele><time>2026-04-26T14:47:57.999Z</time></trkpt><trkpt lat="43.510053766590815" lon="13.601273065927781"><ele>65.66666666666666</ele><time>2026-04-26T14:47:58.999Z</time></trkpt><trkpt lat="43.509941176065055" lon="13.601034968308952"><ele>64.0</ele><time>2026-04-26T14:47:59.999Z</time></trkpt><trkpt lat="43.50982975001039" lon="13.600802176237986"><ele>64.0</ele><time>2026-04-26T14:48:00.999Z</time></trkpt><trkpt lat="43.50973079077816" lon="13.600578008711134"><ele>64.0</ele><time>2026-04-26T14:48:01.999Z</time></trkpt><trkpt lat="43.50964166184006" lon="13.60036393668104"><ele>64.0</ele><time>2026-04-26T14:48:02.999Z</time></trkpt><trkpt lat="43.509560656248915" lon="13.60016244207359"><ele>63.666666666666664</ele><time>2026-04-26T14:48:03.999Z</time></trkpt><trkpt lat="43.50948389834705" lon="13.599974139407117"><ele>63.33333333333333</ele><time>2026-04-26T14:48:04.999Z</time></trkpt><trkpt lat="43.50940854169641" lon="13.599795016397062"><ele>63.0</ele><time>2026-04-26T14:48:05.999Z</time></trkpt><trkpt lat="43.50933884158393" lon="13.599621733999033"><ele>64.0</ele><time>2026-04-26T14:48:06.999Z</time></trkpt><trkpt lat="43.50927748511721" lon="13.599459443606055"><ele>65.0</ele><time>2026-04-26T14:48:07.999Z</time></trkpt><trkpt lat="43.50922392709994" lon="13.599308877589829"><ele>66.0</ele><time>2026-04-26T14:48:08.999Z</time></trkpt><trkpt lat="43.50918238548131" lon="13.599176708997913"><ele>67.0</ele><time>2026-04-26T14:48:09.999Z</time></trkpt><trkpt lat="43.509146716064386" lon="13.599051782658078"><ele>67.0</ele><time>2026-04-26T14:48:10.999Z</time></trkpt><trkpt lat="43.50911829433696" lon="13.59894641230555"><ele>67.0</ele><time>2026-04-26T14:48:11.999Z</time></trkpt><trkpt lat="43.50909823333887" lon="13.598857377146027"><ele>67.0</ele><time>2026-04-26T14:48:12.999Z</time></trkpt><trkpt lat="43.509080806388994" lon="13.598760830144794"><ele>67.0</ele><time>2026-04-26T14:48:13.999Z</time></trkpt><trkpt lat="43.509060537493994" lon="13.598659528896416"><ele>67.0</ele><time>2026-04-26T14:48:14.999Z</time></trkpt><trkpt lat="43.50903609658453" lon="13.598543054637108"><ele>67.0</ele><time>2026-04-26T14:48:15.999Z</time></trkpt><trkpt lat="43.50900834708262" lon="13.598419109109212"><ele>67.4</ele><time>2026-04-26T14:48:16.999Z</time></trkpt><trkpt lat="43.50898076654702" lon="13.598286330218192"><ele>67.80000000000001</ele><time>2026-04-26T14:48:17.999Z</time></trkpt><trkpt lat="43.50894849217207" lon="13.598149188040022"><ele>68.2</ele><time>2026-04-26T14:48:18.999Z</time></trkpt><trkpt lat="43.50891287129474" lon="13.598007910377067"><ele>68.60000000000001</ele><time>2026-04-26T14:48:19.999Z</time></trkpt><trkpt lat="43.508874208183855" lon="13.597871473044815"><ele>69.0</ele><time>2026-04-26T14:48:20.999Z</time></trkpt><trkpt lat="43.50883121186082" lon="13.597740256427958"><ele>69.5</ele><time>2026-04-26T14:48:21.999Z</time></trkpt><trkpt lat="43.508778389429466" lon="13.597612376470897"><ele>70.0</ele><time>2026-04-26T14:48:22.999Z</time></trkpt><trkpt lat="43.50871941389547" lon="13.5974872655226"><ele>70.5</ele><time>2026-04-26T14:48:23.998Z</time></trkpt><trkpt lat="43.508643232077304" lon="13.597356641117283"><ele>71.0</ele><time>2026-04-26T14:48:24.998Z</time></trkpt><trkpt lat="43.50856165061658" lon="13.597197653482533"><ele>70.5</ele><time>2026-04-26T14:48:25.998Z</time></trkpt><trkpt lat="43.50846329161117" lon="13.597029588966555"><ele>70.0</ele><time>2026-04-26T14:48:26.998Z</time></trkpt><trkpt lat="43.508364988678096" lon="13.596883279702132"><ele>69.5</ele><time>2026-04-26T14:48:27.998Z</time></trkpt><trkpt lat="43.50830513147639" lon="13.596741600262858"><ele>69.0</ele><time>2026-04-26T14:48:28.998Z</time></trkpt><trkpt lat="43.50825947965647" lon="13.596624009512151"><ele>69.0</ele><time>2026-04-26T14:48:29.998Z</time></trkpt><trkpt lat="43.50821601044933" lon="13.596495200738461"><ele>69.0</ele><time>2026-04-26T14:48:30.998Z</time></trkpt><trkpt lat="43.508171131406534" lon="13.596369243615174"><ele>69.0</ele><time>2026-04-26T14:48:31.998Z</time></trkpt><trkpt lat="43.50813035495121" lon="13.596254230964528"><ele>69.0</ele><time>2026-04-26T14:48:32.998Z</time></trkpt><trkpt lat="43.50809611319747" lon="13.596151530023468"><ele>69.0</ele><time>2026-04-26T14:48:33.998Z</time></trkpt><trkpt lat="43.50806707352116" lon="13.596067726831807"><ele>69.0</ele><time>2026-04-26T14:48:34.998Z</time></trkpt><trkpt lat="43.508027679783474" lon="13.595908138699013"><ele>69.8</ele><time>2026-04-26T14:48:36.998Z</time></trkpt><trkpt lat="43.50799139446176" lon="13.595801308835512"><ele>70.60000000000001</ele><time>2026-04-26T14:48:37.998Z</time></trkpt><trkpt lat="43.50794561327612" lon="13.595665845934782"><ele>71.4</ele><time>2026-04-26T14:48:38.998Z</time></trkpt><trkpt lat="43.50789636663752" lon="13.59551731896228"><ele>72.2</ele><time>2026-04-26T14:48:39.998Z</time></trkpt><trkpt lat="43.50784692479291" lon="13.595370188801002"><ele>73.0</ele><time>2026-04-26T14:48:40.998Z</time></trkpt><trkpt lat="43.507809789712084" lon="13.59526178943325"><ele>73.8</ele><time>2026-04-26T14:48:41.998Z</time></trkpt><trkpt lat="43.507760303469226" lon="13.595157907950878"><ele>74.6</ele><time>2026-04-26T14:48:43.998Z</time></trkpt><trkpt lat="43.50774096566072" lon="13.595026482267999"><ele>75.4</ele><time>2026-04-26T14:48:45.998Z</time></trkpt><trkpt lat="43.507705384887984" lon="13.594918105731681"><ele>76.2</ele><time>2026-04-26T14:48:46.998Z</time></trkpt><trkpt lat="43.50770260724749" lon="13.594779519355269"><ele>77.0</ele><time>2026-04-26T14:48:47.998Z</time></trkpt><trkpt lat="43.50770669513573" lon="13.594672911262348"><ele>77.0</ele><time>2026-04-26T14:48:48.999Z</time></trkpt><trkpt lat="43.507715366277566" lon="13.594583652067568"><ele>77.0</ele><time>2026-04-26T14:48:49.999Z</time></trkpt><trkpt lat="43.50772606864585" lon="13.594497146177238"><ele>77.0</ele><time>2026-04-26T14:48:50.999Z</time></trkpt><trkpt lat="43.50773548653989" lon="13.594386785585375"><ele>77.0</ele><time>2026-04-26T14:48:51.999Z</time></trkpt><trkpt lat="43.50774889987759" lon="13.594250019739643"><ele>77.0</ele><time>2026-04-26T14:48:52.999Z</time></trkpt><trkpt lat="43.50776723607447" lon="13.594105425539759"><ele>77.0</ele><time>2026-04-26T14:48:53.999Z</time></trkpt><trkpt lat="43.50778691410802" lon="13.593957870667948"><ele>77.0</ele><time>2026-04-26T14:48:54.999Z</time></trkpt><trkpt lat="43.507816270705675" lon="13.59380977308578"><ele>77.0</ele><time>2026-04-26T14:48:55.999Z</time></trkpt><trkpt lat="43.507851302142384" lon="13.593662250340698"><ele>77.0</ele><time>2026-04-26T14:48:56.999Z</time></trkpt><trkpt lat="43.507885018895955" lon="13.593525682479333"><ele>77.0</ele><time>2026-04-26T14:48:57.999Z</time></trkpt><trkpt lat="43.507917524786336" lon="13.59339318442928"><ele>77.0</ele><time>2026-04-26T14:48:58.999Z</time></trkpt><trkpt lat="43.507949826365675" lon="13.593249151548278"><ele>76.5</ele><time>2026-04-26T14:48:59.999Z</time></trkpt><trkpt lat="43.50797625819106" lon="13.593095337162332"><ele>76.0</ele><time>2026-04-26T14:49:00.999Z</time></trkpt><trkpt lat="43.5079864675533" lon="13.592927269663125"><ele>75.5</ele><time>2026-04-26T14:49:01.999Z</time></trkpt><trkpt lat="43.50797284851476" lon="13.592759582298404"><ele>75.0</ele><time>2026-04-26T14:49:02.999Z</time></trkpt><trkpt lat="43.50795104777534" lon="13.592604359415944"><ele>74.75</ele><time>2026-04-26T14:49:03.999Z</time></trkpt><trkpt lat="43.507928022734454" lon="13.592451738510654"><ele>74.5</ele><time>2026-04-26T14:49:04.999Z</time></trkpt><trkpt lat="43.507903191358075" lon="13.592298268773213"><ele>74.25</ele><time>2026-04-26T14:49:05.999Z</time></trkpt><trkpt lat="43.50788180946356" lon="13.592141696251426"><ele>74.0</ele><time>2026-04-26T14:49:06.999Z</time></trkpt><trkpt lat="43.507865595941325" lon="13.591974379741707"><ele>72.25</ele><time>2026-04-26T14:49:07.999Z</time></trkpt><trkpt lat="43.50785732265586" lon="13.59180729416513"><ele>70.5</ele><time>2026-04-26T14:49:08.999Z</time></trkpt><trkpt lat="43.507851781851286" lon="13.591642722501234"><ele>68.75</ele><time>2026-04-26T14:49:09.999Z</time></trkpt><trkpt lat="43.507871963178935" lon="13.591475059935897"><ele>67.0</ele><time>2026-04-26T14:49:10.999Z</time></trkpt><trkpt lat="43.50787688693576" lon="13.591301463583639"><ele>65.5</ele><time>2026-04-26T14:49:11.999Z</time></trkpt><trkpt lat="43.507865494927664" lon="13.591129411808625"><ele>64.0</ele><time>2026-04-26T14:49:12.999Z</time></trkpt><trkpt lat="43.507870770534645" lon="13.590957073303086"><ele>62.5</ele><time>2026-04-26T14:49:13.999Z</time></trkpt><trkpt lat="43.50787702626303" lon="13.590788781809179"><ele>61.0</ele><time>2026-04-26T14:49:14.999Z</time></trkpt><trkpt lat="43.50788048212746" lon="13.590622598414434"><ele>61.0</ele><time>2026-04-26T14:49:15.999Z</time></trkpt><trkpt lat="43.507887278129864" lon="13.590454927833568"><ele>61.0</ele><time>2026-04-26T14:49:16.999Z</time></trkpt><trkpt lat="43.50789450842572" lon="13.590287046010296"><ele>61.0</ele><time>2026-04-26T14:49:17.999Z</time></trkpt><trkpt lat="43.50789556280279" lon="13.590108522093653"><ele>61.0</ele><time>2026-04-26T14:49:18.999Z</time></trkpt><trkpt lat="43.50788678579564" lon="13.589921274773983"><ele>59.5</ele><time>2026-04-26T14:49:19.999Z</time></trkpt><trkpt lat="43.50788604476374" lon="13.589724814735431"><ele>58.0</ele><time>2026-04-26T14:49:20.999Z</time></trkpt><trkpt lat="43.507844878133476" lon="13.589534209483784"><ele>56.5</ele><time>2026-04-26T14:49:21.999Z</time></trkpt><trkpt lat="43.50781371021876" lon="13.589349419234539"><ele>55.0</ele><time>2026-04-26T14:49:22.999Z</time></trkpt><trkpt lat="43.507781383114796" lon="13.589167187018804"><ele>54.0</ele><time>2026-04-26T14:49:23.999Z</time></trkpt><trkpt lat="43.50775315265851" lon="13.588986755036418"><ele>53.0</ele><time>2026-04-26T14:49:24.999Z</time></trkpt><trkpt lat="43.507729517808215" lon="13.588798594423487"><ele>52.0</ele><time>2026-04-26T14:49:25.999Z</time></trkpt><trkpt lat="43.507714857322156" lon="13.588608749343264"><ele>51.0</ele><time>2026-04-26T14:49:26.999Z</time></trkpt><trkpt lat="43.507708165025626" lon="13.588412763574103"><ele>49.75</ele><time>2026-04-26T14:49:27.999Z</time></trkpt><trkpt lat="43.50770248518083" lon="13.588207777322417"><ele>48.5</ele><time>2026-04-26T14:49:28.999Z</time></trkpt><trkpt lat="43.50768667980872" lon="13.588002301419715"><ele>47.25</ele><time>2026-04-26T14:49:29.999Z</time></trkpt><trkpt lat="43.50765969973756" lon="13.587798558322955"><ele>46.0</ele><time>2026-04-26T14:49:30.999Z</time></trkpt><trkpt lat="43.50762436629778" lon="13.587596385096939"><ele>45.25</ele><time>2026-04-26T14:49:31.999Z</time></trkpt><trkpt lat="43.50758177379967" lon="13.587405157766353"><ele>44.5</ele><time>2026-04-26T14:49:32.999Z</time></trkpt><trkpt lat="43.50752906671495" lon="13.5872278837762"><ele>43.75</ele><time>2026-04-26T14:49:33.999Z</time></trkpt><trkpt lat="43.5074738416445" lon="13.587064600240044"><ele>43.0</ele><time>2026-04-26T14:49:34.999Z</time></trkpt><trkpt lat="43.50742418159005" lon="13.586901313620452"><ele>42.5</ele><time>2026-04-26T14:49:35.999Z</time></trkpt><trkpt lat="43.507375377695126" lon="13.586732093325447"><ele>42.0</ele><time>2026-04-26T14:49:36.999Z</time></trkpt><trkpt lat="43.50732682221887" lon="13.586564525689077"><ele>41.5</ele><time>2026-04-26T14:49:37.999Z</time></trkpt><trkpt lat="43.50728345290502" lon="13.586398826904464"><ele>41.0</ele><time>2026-04-26T14:49:38.999Z</time></trkpt><trkpt lat="43.50724919990592" lon="13.58621671827172"><ele>39.33333333333333</ele><time>2026-04-26T14:49:39.999Z</time></trkpt><trkpt lat="43.50722939162932" lon="13.586012108167992"><ele>37.666666666666664</ele><time>2026-04-26T14:49:40.999Z</time></trkpt><trkpt lat="43.507217177498916" lon="13.58578624926564"><ele>36.0</ele><time>2026-04-26T14:49:41.999Z</time></trkpt><trkpt lat="43.50721258911927" lon="13.585562046656788"><ele>34.333333333333336</ele><time>2026-04-26T14:49:42.999Z</time></trkpt><trkpt lat="43.50721311915914" lon="13.585337416125682"><ele>32.66666666666667</ele><time>2026-04-26T14:49:43.999Z</time></trkpt><trkpt lat="43.50721176535045" lon="13.585114005177171"><ele>31.0</ele><time>2026-04-26T14:49:44.999Z</time></trkpt><trkpt lat="43.50721113666787" lon="13.584891972878424"><ele>31.0</ele><time>2026-04-26T14:49:45.999Z</time></trkpt><trkpt lat="43.50721954175149" lon="13.584667042525918"><ele>31.0</ele><time>2026-04-26T14:49:46.999Z</time></trkpt><trkpt lat="43.507255958502654" lon="13.58443108392502"><ele>31.0</ele><time>2026-04-26T14:49:47.999Z</time></trkpt><trkpt lat="43.50729375218157" lon="13.58417853275868"><ele>30.0</ele><time>2026-04-26T14:49:48.999Z</time></trkpt><trkpt lat="43.50733493691084" lon="13.583914291400845"><ele>29.0</ele><time>2026-04-26T14:49:49.999Z</time></trkpt><trkpt lat="43.50737267259091" lon="13.58367724476476"><ele>28.0</ele><time>2026-04-26T14:49:50.999Z</time></trkpt><trkpt lat="43.50740644641028" lon="13.583460052248288"><ele>27.75</ele><time>2026-04-26T14:49:51.999Z</time></trkpt><trkpt lat="43.5074352131471" lon="13.583266239585368"><ele>27.5</ele><time>2026-04-26T14:49:52.999Z</time></trkpt><trkpt lat="43.50744476589968" lon="13.583091987869446"><ele>27.25</ele><time>2026-04-26T14:49:53.999Z</time></trkpt><trkpt lat="43.5074846149904" lon="13.582925380031698"><ele>27.0</ele><time>2026-04-26T14:49:54.999Z</time></trkpt><trkpt lat="43.50751275230058" lon="13.582724504540373"><ele>26.666666666666664</ele><time>2026-04-26T14:49:55.999Z</time></trkpt><trkpt lat="43.50753925249583" lon="13.582502639555342"><ele>26.333333333333332</ele><time>2026-04-26T14:49:56.999Z</time></trkpt><trkpt lat="43.50756571816367" lon="13.582263487923207"><ele>26.0</ele><time>2026-04-26T14:49:57.999Z</time></trkpt><trkpt lat="43.5075837200326" lon="13.582029937149585"><ele>25.75</ele><time>2026-04-26T14:49:58.999Z</time></trkpt><trkpt lat="43.50759640794854" lon="13.581819817199019"><ele>25.5</ele><time>2026-04-26T14:49:59.999Z</time></trkpt><trkpt lat="43.507585621241155" lon="13.581629788786273"><ele>25.25</ele><time>2026-04-26T14:50:00.999Z</time></trkpt><trkpt lat="43.507586571401944" lon="13.58146238433523"><ele>25.0</ele><time>2026-04-26T14:50:01.999Z</time></trkpt><trkpt lat="43.50758420692102" lon="13.581307969551915"><ele>25.5</ele><time>2026-04-26T14:50:02.999Z</time></trkpt><trkpt lat="43.507580509532694" lon="13.581145634137233"><ele>26.0</ele><time>2026-04-26T14:50:03.999Z</time></trkpt><trkpt lat="43.50756605723271" lon="13.580976876710844"><ele>26.5</ele><time>2026-04-26T14:50:04.999Z</time></trkpt><trkpt lat="43.5075478593873" lon="13.580785042443368"><ele>27.0</ele><time>2026-04-26T14:50:05.999Z</time></trkpt><trkpt lat="43.50751903386333" lon="13.580568194338344"><ele>27.0</ele><time>2026-04-26T14:50:06.999Z</time></trkpt><trkpt lat="43.507476063664875" lon="13.580333428411839"><ele>27.0</ele><time>2026-04-26T14:50:07.999Z</time></trkpt><trkpt lat="43.50744244171688" lon="13.58007350048978"><ele>27.0</ele><time>2026-04-26T14:50:08.999Z</time></trkpt><trkpt lat="43.50737699327334" lon="13.579803145751335"><ele>27.0</ele><time>2026-04-26T14:50:09.999Z</time></trkpt><trkpt lat="43.507283840332406" lon="13.579532679754912"><ele>27.0</ele><time>2026-04-26T14:50:10.999Z</time></trkpt><trkpt lat="43.50720304953191" lon="13.579271999752558"><ele>27.0</ele><time>2026-04-26T14:50:11.999Z</time></trkpt><trkpt lat="43.507119079234066" lon="13.579035240986766"><ele>26.0</ele><time>2026-04-26T14:50:12.999Z</time></trkpt><trkpt lat="43.50702890278444" lon="13.578823574161445"><ele>25.0</ele><time>2026-04-26T14:50:13.999Z</time></trkpt><trkpt lat="43.50691801207429" lon="13.578607038719067"><ele>24.0</ele><time>2026-04-26T14:50:14.999Z</time></trkpt><trkpt lat="43.506803364588215" lon="13.578368271793664"><ele>24.0</ele><time>2026-04-26T14:50:15.999Z</time></trkpt><trkpt lat="43.50664928261334" lon="13.578154810139898"><ele>24.0</ele><time>2026-04-26T14:50:16.999Z</time></trkpt><trkpt lat="43.50650006464588" lon="13.57793288625661"><ele>24.0</ele><time>2026-04-26T14:50:17.999Z</time></trkpt><trkpt lat="43.506353680859206" lon="13.57773669080853"><ele>23.0</ele><time>2026-04-26T14:50:18.999Z</time></trkpt><trkpt lat="43.50621303297839" lon="13.577556564878432"><ele>22.0</ele><time>2026-04-26T14:50:19.999Z</time></trkpt><trkpt lat="43.50607744769327" lon="13.577397681849902"><ele>21.0</ele><time>2026-04-26T14:50:20.999Z</time></trkpt><trkpt lat="43.50594636600044" lon="13.577249890912814"><ele>21.0</ele><time>2026-04-26T14:50:21.999Z</time></trkpt><trkpt lat="43.505825306351525" lon="13.577111417816017"><ele>21.0</ele><time>2026-04-26T14:50:22.999Z</time></trkpt><trkpt lat="43.50571044345793" lon="13.576979975621681"><ele>21.0</ele><time>2026-04-26T14:50:23.999Z</time></trkpt><trkpt lat="43.5055967369382" lon="13.576850385572023"><ele>21.0</ele><time>2026-04-26T14:50:24.999Z</time></trkpt><trkpt lat="43.505484313805496" lon="13.576720494789994"><ele>21.0</ele><time>2026-04-26T14:50:25.999Z</time></trkpt><trkpt lat="43.50537668194454" lon="13.576594233714685"><ele>21.0</ele><time>2026-04-26T14:50:26.999Z</time></trkpt><trkpt lat="43.505272145886664" lon="13.576470941408012"><ele>21.0</ele><time>2026-04-26T14:50:27.999Z</time></trkpt><trkpt lat="43.505165282537995" lon="13.57634473691025"><ele>20.5</ele><time>2026-04-26T14:50:28.999Z</time></trkpt><trkpt lat="43.5050554139267" lon="13.576218489775945"><ele>20.0</ele><time>2026-04-26T14:50:29.999Z</time></trkpt><trkpt lat="43.50494586668765" lon="13.57609150352278"><ele>19.5</ele><time>2026-04-26T14:50:30.999Z</time></trkpt><trkpt lat="43.50483511846045" lon="13.575958980039038"><ele>19.0</ele><time>2026-04-26T14:50:31.999Z</time></trkpt><trkpt lat="43.504725121836664" lon="13.575833702086333"><ele>19.5</ele><time>2026-04-26T14:50:32.999Z</time></trkpt><trkpt lat="43.50462055791805" lon="13.575707104825348"><ele>20.0</ele><time>2026-04-26T14:50:33.999Z</time></trkpt><trkpt lat="43.50452207683966" lon="13.57559079849627"><ele>20.5</ele><time>2026-04-26T14:50:34.999Z</time></trkpt><trkpt lat="43.504421214639706" lon="13.57547279694091"><ele>21.0</ele><time>2026-04-26T14:50:35.998Z</time></trkpt><trkpt lat="43.50430706200011" lon="13.575348886986953"><ele>21.75</ele><time>2026-04-26T14:50:36.998Z</time></trkpt><trkpt lat="43.50418316124512" lon="13.575211272919924"><ele>22.5</ele><time>2026-04-26T14:50:37.998Z</time></trkpt><trkpt lat="43.50407162366853" lon="13.575082700871999"><ele>23.25</ele><time>2026-04-26T14:50:38.998Z</time></trkpt><trkpt lat="43.50396477502026" lon="13.574957402279134"><ele>24.0</ele><time>2026-04-26T14:50:39.998Z</time></trkpt><trkpt lat="43.50385433465668" lon="13.574829489495542"><ele>23.333333333333332</ele><time>2026-04-26T14:50:40.998Z</time></trkpt><trkpt lat="43.50373964236025" lon="13.574698798923091"><ele>22.666666666666664</ele><time>2026-04-26T14:50:41.998Z</time></trkpt><trkpt lat="43.503621915930005" lon="13.5745566454951"><ele>22.0</ele><time>2026-04-26T14:50:42.998Z</time></trkpt><trkpt lat="43.503484945204114" lon="13.574407355407617"><ele>22.0</ele><time>2026-04-26T14:50:43.998Z</time></trkpt><trkpt lat="43.50335269886196" lon="13.574224177585714"><ele>22.0</ele><time>2026-04-26T14:50:44.998Z</time></trkpt><trkpt lat="43.50320096267819" lon="13.57404789024217"><ele>22.0</ele><time>2026-04-26T14:50:45.998Z</time></trkpt><trkpt lat="43.50303095784107" lon="13.573877663867489"><ele>21.0</ele><time>2026-04-26T14:50:46.998Z</time></trkpt><trkpt lat="43.50286612184146" lon="13.573675144076818"><ele>20.0</ele><time>2026-04-26T14:50:47.998Z</time></trkpt><trkpt lat="43.502691086080524" lon="13.573470377762579"><ele>20.0</ele><time>2026-04-26T14:50:48.998Z</time></trkpt><trkpt lat="43.50251205452182" lon="13.573256813393078"><ele>20.0</ele><time>2026-04-26T14:50:49.998Z</time></trkpt><trkpt lat="43.502330070345515" lon="13.57304499227547"><ele>21.0</ele><time>2026-04-26T14:50:50.998Z</time></trkpt><trkpt lat="43.50214985905604" lon="13.572828114903498"><ele>22.0</ele><time>2026-04-26T14:50:51.998Z</time></trkpt><trkpt lat="43.501972639289946" lon="13.572600543332037"><ele>19.0</ele><time>2026-04-26T14:50:52.998Z</time></trkpt><trkpt lat="43.50180609106234" lon="13.572360605687651"><ele>16.0</ele><time>2026-04-26T14:50:53.998Z</time></trkpt><trkpt lat="43.50164685462718" lon="13.57210653587883"><ele>16.0</ele><time>2026-04-26T14:50:55Z</time></trkpt><trkpt lat="43.501495662238334" lon="13.571839471036874"><ele>16.0</ele><time>2026-04-26T14:50:56Z</time></trkpt><trkpt lat="43.50135548664687" lon="13.571559529780513"><ele>15.5</ele><time>2026-04-26T14:50:57Z</time></trkpt><trkpt lat="43.50122523019427" lon="13.571267234969019"><ele>15.0</ele><time>2026-04-26T14:50:58Z</time></trkpt><trkpt lat="43.501106957746536" lon="13.570961367550229"><ele>15.0</ele><time>2026-04-26T14:50:59Z</time></trkpt><trkpt lat="43.50100230557094" lon="13.570645720745272"><ele>15.0</ele><time>2026-04-26T14:51:00Z</time></trkpt><trkpt lat="43.500907512010635" lon="13.570321309346339"><ele>15.5</ele><time>2026-04-26T14:51:01Z</time></trkpt><trkpt lat="43.50082418755563" lon="13.569990222339621"><ele>16.0</ele><time>2026-04-26T14:51:02Z</time></trkpt><trkpt lat="43.50075060082269" lon="13.569654858596556"><ele>16.0</ele><time>2026-04-26T14:51:03Z</time></trkpt><trkpt lat="43.50067967004189" lon="13.569316948431295"><ele>16.0</ele><time>2026-04-26T14:51:04Z</time></trkpt><trkpt lat="43.50060815365055" lon="13.56898269951614"><ele>16.0</ele><time>2026-04-26T14:51:05Z</time></trkpt><trkpt lat="43.5005349089375" lon="13.568651298206998"><ele>16.0</ele><time>2026-04-26T14:51:06Z</time></trkpt><trkpt lat="43.50046210852652" lon="13.568322566511583"><ele>15.5</ele><time>2026-04-26T14:51:07Z</time></trkpt><trkpt lat="43.50039180258761" lon="13.56799452418003"><ele>15.0</ele><time>2026-04-26T14:51:08Z</time></trkpt><trkpt lat="43.50032550377321" lon="13.567674582272652"><ele>14.666666666666668</ele><time>2026-04-26T14:51:09Z</time></trkpt><trkpt lat="43.50026587539658" lon="13.567379161481924"><ele>14.333333333333334</ele><time>2026-04-26T14:51:10Z</time></trkpt><trkpt lat="43.50020837228047" lon="13.567120793450329"><ele>14.0</ele><time>2026-04-26T14:51:11Z</time></trkpt><trkpt lat="43.5001582278438" lon="13.566871057012229"><ele>14.0</ele><time>2026-04-26T14:51:12Z</time></trkpt><trkpt lat="43.500107584600556" lon="13.566635269607268"><ele>14.0</ele><time>2026-04-26T14:51:13Z</time></trkpt><trkpt lat="43.50005442718739" lon="13.566400025089914"><ele>14.0</ele><time>2026-04-26T14:51:14Z</time></trkpt><trkpt lat="43.49999836207686" lon="13.566150851227201"><ele>14.0</ele><time>2026-04-26T14:51:15Z</time></trkpt><trkpt lat="43.49994143407524" lon="13.565894587263045"><ele>14.0</ele><time>2026-04-26T14:51:16Z</time></trkpt><trkpt lat="43.49988516648069" lon="13.56562102011406"><ele>14.0</ele><time>2026-04-26T14:51:17Z</time></trkpt><trkpt lat="43.49982712924809" lon="13.565337989463549"><ele>15.0</ele><time>2026-04-26T14:51:18Z</time></trkpt><trkpt lat="43.499794029639716" lon="13.565035741558974"><ele>16.0</ele><time>2026-04-26T14:51:19Z</time></trkpt><trkpt lat="43.499752114583906" lon="13.564724957890206"><ele>17.5</ele><time>2026-04-26T14:51:19.999Z</time></trkpt><trkpt lat="43.49970461945254" lon="13.564414302234274"><ele>19.0</ele><time>2026-04-26T14:51:20.999Z</time></trkpt><trkpt lat="43.49970165084553" lon="13.56409801049137"><ele>19.0</ele><time>2026-04-26T14:51:21.999Z</time></trkpt><trkpt lat="43.49969435512327" lon="13.563779528454742"><ele>19.0</ele><time>2026-04-26T14:51:22.999Z</time></trkpt><trkpt lat="43.499700018327744" lon="13.563461769557897"><ele>19.5</ele><time>2026-04-26T14:51:23.999Z</time></trkpt><trkpt lat="43.49970216451208" lon="13.563150629038518"><ele>20.0</ele><time>2026-04-26T14:51:24.999Z</time></trkpt><trkpt lat="43.49974863832024" lon="13.562845486996288"><ele>21.5</ele><time>2026-04-26T14:51:25.999Z</time></trkpt><trkpt lat="43.49977481066673" lon="13.562531560353767"><ele>23.0</ele><time>2026-04-26T14:51:26.999Z</time></trkpt><trkpt lat="43.499825654661116" lon="13.562234738852107"><ele>24.0</ele><time>2026-04-26T14:51:27.999Z</time></trkpt><trkpt lat="43.499880777196516" lon="13.561960764428136"><ele>25.0</ele><time>2026-04-26T14:51:28.999Z</time></trkpt><trkpt lat="43.49993877978123" lon="13.561699335922413"><ele>26.0</ele><time>2026-04-26T14:51:29.999Z</time></trkpt><trkpt lat="43.500009511726546" lon="13.561443207230546"><ele>26.0</ele><time>2026-04-26T14:51:30.999Z</time></trkpt><trkpt lat="43.5000851515792" lon="13.561198483119329"><ele>26.0</ele><time>2026-04-26T14:51:31.999Z</time></trkpt><trkpt lat="43.500163091971" lon="13.560968783228434"><ele>26.0</ele><time>2026-04-26T14:51:32.999Z</time></trkpt><trkpt lat="43.5002449200517" lon="13.56076028843699"><ele>26.0</ele><time>2026-04-26T14:51:33.999Z</time></trkpt><trkpt lat="43.50032588505159" lon="13.560570305409348"><ele>26.0</ele><time>2026-04-26T14:51:34.999Z</time></trkpt><trkpt lat="43.50041878720651" lon="13.560409727776724"><ele>26.0</ele><time>2026-04-26T14:51:35.999Z</time></trkpt><trkpt lat="43.50049911208732" lon="13.560242419410319"><ele>28.0</ele><time>2026-04-26T14:51:36.999Z</time></trkpt><trkpt lat="43.5005839453047" lon="13.56006572066111"><ele>30.0</ele><time>2026-04-26T14:51:37.999Z</time></trkpt><trkpt lat="43.50067793957341" lon="13.559869940343594"><ele>32.0</ele><time>2026-04-26T14:51:38.999Z</time></trkpt><trkpt lat="43.50077851568549" lon="13.559660565239165"><ele>30.666666666666664</ele><time>2026-04-26T14:51:39.999Z</time></trkpt><trkpt lat="43.50088603236997" lon="13.559437625367897"><ele>29.333333333333336</ele><time>2026-04-26T14:51:40.999Z</time></trkpt><trkpt lat="43.50099902622942" lon="13.559203328238999"><ele>28.0</ele><time>2026-04-26T14:51:41.999Z</time></trkpt><trkpt lat="43.50111760328555" lon="13.558957549123265"><ele>28.0</ele><time>2026-04-26T14:51:42.999Z</time></trkpt><trkpt lat="43.50124141764654" lon="13.558702793397106"><ele>28.0</ele><time>2026-04-26T14:51:43.999Z</time></trkpt><trkpt lat="43.50135461952556" lon="13.558429129259144"><ele>29.333333333333336</ele><time>2026-04-26T14:51:44.999Z</time></trkpt><trkpt lat="43.50147476339537" lon="13.558183974859542"><ele>30.666666666666664</ele><time>2026-04-26T14:51:45.999Z</time></trkpt><trkpt lat="43.501588247137995" lon="13.557954410513632"><ele>32.0</ele><time>2026-04-26T14:51:46.999Z</time></trkpt><trkpt lat="43.50169365909917" lon="13.557738628463305"><ele>29.0</ele><time>2026-04-26T14:51:47.999Z</time></trkpt><trkpt lat="43.501791987758146" lon="13.557530231170889"><ele>26.0</ele><time>2026-04-26T14:51:48.999Z</time></trkpt><trkpt lat="43.501900333249274" lon="13.557344328591634"><ele>23.0</ele><time>2026-04-26T14:51:49.999Z</time></trkpt><trkpt lat="43.50199477575127" lon="13.557148191031512"><ele>22.0</ele><time>2026-04-26T14:51:50.999Z</time></trkpt><trkpt lat="43.502086449423494" lon="13.55695839094898"><ele>21.0</ele><time>2026-04-26T14:51:51.999Z</time></trkpt><trkpt lat="43.50218005431741" lon="13.556764614291861"><ele>20.0</ele><time>2026-04-26T14:51:52.999Z</time></trkpt><trkpt lat="43.50227841429117" lon="13.556561027481017"><ele>20.0</ele><time>2026-04-26T14:51:53.999Z</time></trkpt><trkpt lat="43.50237288830891" lon="13.556365641420166"><ele>20.0</ele><time>2026-04-26T14:51:54.999Z</time></trkpt><trkpt lat="43.50246652901142" lon="13.556171978732127"><ele>20.0</ele><time>2026-04-26T14:51:55.999Z</time></trkpt><trkpt lat="43.5025684308728" lon="13.555961319287858"><ele>19.666666666666668</ele><time>2026-04-26T14:51:56.999Z</time></trkpt><trkpt lat="43.502678823033925" lon="13.555733207763977"><ele>19.333333333333332</ele><time>2026-04-26T14:51:57.999Z</time></trkpt><trkpt lat="43.50279576077609" lon="13.555491570564246"><ele>19.0</ele><time>2026-04-26T14:51:58.999Z</time></trkpt><trkpt lat="43.50291551006653" lon="13.555244123700813"><ele>18.333333333333332</ele><time>2026-04-26T14:51:59.999Z</time></trkpt><trkpt lat="43.503037292721004" lon="13.554992475158894"><ele>17.666666666666668</ele><time>2026-04-26T14:52:00.999Z</time></trkpt><trkpt lat="43.503159348182166" lon="13.55474026289652"><ele>17.0</ele><time>2026-04-26T14:52:01.999Z</time></trkpt><trkpt lat="43.50327608566606" lon="13.55449903955161"><ele>16.333333333333336</ele><time>2026-04-26T14:52:02.999Z</time></trkpt><trkpt lat="43.50339760373207" lon="13.554249085976874"><ele>15.666666666666668</ele><time>2026-04-26T14:52:03.999Z</time></trkpt><trkpt lat="43.503520905087925" lon="13.553996737862319"><ele>15.0</ele><time>2026-04-26T14:52:04.999Z</time></trkpt><trkpt lat="43.50364896481015" lon="13.553731744810332"><ele>17.0</ele><time>2026-04-26T14:52:05.999Z</time></trkpt><trkpt lat="43.50378030253667" lon="13.553458731734722"><ele>19.0</ele><time>2026-04-26T14:52:06.999Z</time></trkpt><trkpt lat="43.503914499935334" lon="13.553179774228994"><ele>19.0</ele><time>2026-04-26T14:52:07.999Z</time></trkpt><trkpt lat="43.504048871125676" lon="13.552900455499769"><ele>19.0</ele><time>2026-04-26T14:52:08.999Z</time></trkpt><trkpt lat="43.50418395769156" lon="13.552619649688243"><ele>18.0</ele><time>2026-04-26T14:52:09.999Z</time></trkpt><trkpt lat="43.504303491317245" lon="13.552332183658587"><ele>17.0</ele><time>2026-04-26T14:52:10.999Z</time></trkpt><trkpt lat="43.50443057032864" lon="13.552066563608673"><ele>17.0</ele><time>2026-04-26T14:52:11.999Z</time></trkpt><trkpt lat="43.504558611801244" lon="13.551841358288245"><ele>17.0</ele><time>2026-04-26T14:52:12.999Z</time></trkpt><trkpt lat="43.50466184104589" lon="13.55162768394077"><ele>17.0</ele><time>2026-04-26T14:52:13.999Z</time></trkpt><trkpt lat="43.50475637421846" lon="13.551432009643708"><ele>17.666666666666668</ele><time>2026-04-26T14:52:14.999Z</time></trkpt><trkpt lat="43.504830461117336" lon="13.551238071424303"><ele>18.333333333333332</ele><time>2026-04-26T14:52:15.999Z</time></trkpt><trkpt lat="43.50491368227517" lon="13.551065538329564"><ele>19.0</ele><time>2026-04-26T14:52:16.999Z</time></trkpt><trkpt lat="43.50499351340295" lon="13.550903746913006"><ele>19.0</ele><time>2026-04-26T14:52:17.999Z</time></trkpt><trkpt lat="43.50508402538646" lon="13.550754571605328"><ele>19.0</ele><time>2026-04-26T14:52:18.999Z</time></trkpt><trkpt lat="43.505162218851524" lon="13.550592994109365"><ele>19.0</ele><time>2026-04-26T14:52:19.999Z</time></trkpt><trkpt lat="43.50522588585581" lon="13.550421207152178"><ele>19.0</ele><time>2026-04-26T14:52:20.999Z</time></trkpt><trkpt lat="43.50529832775481" lon="13.55027081458844"><ele>18.5</ele><time>2026-04-26T14:52:21.999Z</time></trkpt><trkpt lat="43.50538224807157" lon="13.550138329863227"><ele>18.0</ele><time>2026-04-26T14:52:22.999Z</time></trkpt><trkpt lat="43.505454327421184" lon="13.54998938645287"><ele>17.5</ele><time>2026-04-26T14:52:23.999Z</time></trkpt><trkpt lat="43.505517843652406" lon="13.549823899001321"><ele>17.0</ele><time>2026-04-26T14:52:24.999Z</time></trkpt><trkpt lat="43.50559233050614" lon="13.549669346126304"><ele>17.5</ele><time>2026-04-26T14:52:25.999Z</time></trkpt><trkpt lat="43.505667603152446" lon="13.549514368783736"><ele>18.0</ele><time>2026-04-26T14:52:26.999Z</time></trkpt><trkpt lat="43.505753457932634" lon="13.549370882941885"><ele>18.5</ele><time>2026-04-26T14:52:27.999Z</time></trkpt><trkpt lat="43.50581590791791" lon="13.549200460315562"><ele>19.0</ele><time>2026-04-26T14:52:28.999Z</time></trkpt><trkpt lat="43.50589392200551" lon="13.549042939668114"><ele>19.0</ele><time>2026-04-26T14:52:29.999Z</time></trkpt><trkpt lat="43.50597218093383" lon="13.548880404049253"><ele>19.0</ele><time>2026-04-26T14:52:30.999Z</time></trkpt><trkpt lat="43.506052358499694" lon="13.54871116502236"><ele>19.0</ele><time>2026-04-26T14:52:31.999Z</time></trkpt><trkpt lat="43.506152667192225" lon="13.548542679472154"><ele>19.0</ele><time>2026-04-26T14:52:32.999Z</time></trkpt><trkpt lat="43.506229729631954" lon="13.548341487709541"><ele>19.333333333333332</ele><time>2026-04-26T14:52:33.999Z</time></trkpt><trkpt lat="43.5063243448928" lon="13.548149474728213"><ele>19.666666666666668</ele><time>2026-04-26T14:52:34.999Z</time></trkpt><trkpt lat="43.50641497309931" lon="13.547961536436313"><ele>20.0</ele><time>2026-04-26T14:52:35.999Z</time></trkpt><trkpt lat="43.50649536218913" lon="13.547795800651848"><ele>20.2</ele><time>2026-04-26T14:52:36.999Z</time></trkpt><trkpt lat="43.50656949822821" lon="13.547646806939152"><ele>20.4</ele><time>2026-04-26T14:52:37.999Z</time></trkpt><trkpt lat="43.5066367730798" lon="13.547509743643273"><ele>20.6</ele><time>2026-04-26T14:52:38.999Z</time></trkpt><trkpt lat="43.50669388513316" lon="13.547392835308314"><ele>20.8</ele><time>2026-04-26T14:52:39.999Z</time></trkpt><trkpt lat="43.506759892611484" lon="13.547298943356928"><ele>21.0</ele><time>2026-04-26T14:52:40.999Z</time></trkpt><trkpt lat="43.50683476720144" lon="13.547228561705865"><ele>21.0</ele><time>2026-04-26T14:52:41.999Z</time></trkpt><trkpt lat="43.506924858958" lon="13.547190790256579"><ele>21.0</ele><time>2026-04-26T14:52:42.999Z</time></trkpt><trkpt lat="43.50702421611206" lon="13.547180518550867"><ele>21.0</ele><time>2026-04-26T14:52:43.999Z</time></trkpt><trkpt lat="43.50710177232351" lon="13.547140644818004"><ele>21.0</ele><time>2026-04-26T14:52:44.999Z</time></trkpt><trkpt lat="43.50715576871663" lon="13.547083035840952"><ele>21.0</ele><time>2026-04-26T14:52:45.998Z</time></trkpt><trkpt lat="43.5071982294756" lon="13.547015199176554"><ele>21.0</ele><time>2026-04-26T14:52:46.998Z</time></trkpt><trkpt lat="43.50722568965316" lon="13.546936169229426"><ele>22.8</ele><time>2026-04-26T14:52:47.998Z</time></trkpt><trkpt lat="43.50725662902274" lon="13.546770906605863"><ele>24.6</ele><time>2026-04-26T14:52:49.998Z</time></trkpt><trkpt lat="43.50722917202073" lon="13.546677214593785"><ele>26.4</ele><time>2026-04-26T14:52:50.998Z</time></trkpt><trkpt lat="43.50721278561088" lon="13.546588142975486"><ele>28.2</ele><time>2026-04-26T14:52:51.998Z</time></trkpt><trkpt lat="43.50722005978578" lon="13.546382540163464"><ele>30.0</ele><time>2026-04-26T14:52:53.998Z</time></trkpt><trkpt lat="43.50724890012408" lon="13.546267141615708"><ele>30.0</ele><time>2026-04-26T14:52:54.998Z</time></trkpt><trkpt lat="43.507293230851865" lon="13.546152367432594"><ele>30.0</ele><time>2026-04-26T14:52:55.998Z</time></trkpt><trkpt lat="43.5073476419101" lon="13.546026318415104"><ele>30.0</ele><time>2026-04-26T14:52:56.998Z</time></trkpt><trkpt lat="43.50740822354523" lon="13.54589727306155"><ele>30.0</ele><time>2026-04-26T14:52:57.998Z</time></trkpt><trkpt lat="43.50747350257255" lon="13.545764532579078"><ele>30.0</ele><time>2026-04-26T14:52:58.998Z</time></trkpt><trkpt lat="43.50754510221512" lon="13.545613163636746"><ele>30.0</ele><time>2026-04-26T14:52:59.998Z</time></trkpt><trkpt lat="43.507628709915444" lon="13.545441468632594"><ele>30.0</ele><time>2026-04-26T14:53:01Z</time></trkpt><trkpt lat="43.507740297438374" lon="13.545271887105516"><ele>30.0</ele><time>2026-04-26T14:53:02Z</time></trkpt><trkpt lat="43.50785463978459" lon="13.545082333541513"><ele>30.0</ele><time>2026-04-26T14:53:03Z</time></trkpt><trkpt lat="43.50798870161115" lon="13.544891691938393"><ele>30.0</ele><time>2026-04-26T14:53:04Z</time></trkpt><trkpt lat="43.508122952607685" lon="13.544703473676035"><ele>30.0</ele><time>2026-04-26T14:53:05Z</time></trkpt><trkpt lat="43.50825090851068" lon="13.544529856884962"><ele>28.0</ele><time>2026-04-26T14:53:06Z</time></trkpt><trkpt lat="43.50837137894907" lon="13.544381678058372"><ele>26.0</ele><time>2026-04-26T14:53:07Z</time></trkpt><trkpt lat="43.50847344331986" lon="13.544239820796573"><ele>24.0</ele><time>2026-04-26T14:53:08Z</time></trkpt><trkpt lat="43.50859173134892" lon="13.544121093721477"><ele>24.0</ele><time>2026-04-26T14:53:09Z</time></trkpt><trkpt lat="43.50871597178873" lon="13.543987509403413"><ele>24.0</ele><time>2026-04-26T14:53:10Z</time></trkpt><trkpt lat="43.50886673524198" lon="13.543865292722266"><ele>24.0</ele><time>2026-04-26T14:53:11Z</time></trkpt><trkpt lat="43.50902696673291" lon="13.543719237126945"><ele>23.333333333333332</ele><time>2026-04-26T14:53:12Z</time></trkpt><trkpt lat="43.509192963765415" lon="13.543555566382032"><ele>22.666666666666664</ele><time>2026-04-26T14:53:13Z</time></trkpt><trkpt lat="43.50938776803851" lon="13.543440560980045"><ele>22.0</ele><time>2026-04-26T14:53:14Z</time></trkpt><trkpt lat="43.509564767010765" lon="13.543321600062706"><ele>23.333333333333332</ele><time>2026-04-26T14:53:15Z</time></trkpt><trkpt lat="43.50973079259239" lon="13.543188628599717"><ele>24.666666666666664</ele><time>2026-04-26T14:53:16Z</time></trkpt><trkpt lat="43.50990292165397" lon="13.54307800685498"><ele>26.0</ele><time>2026-04-26T14:53:17Z</time></trkpt><trkpt lat="43.51007382945857" lon="13.542969504431314"><ele>25.333333333333332</ele><time>2026-04-26T14:53:18Z</time></trkpt><trkpt lat="43.510241358742014" lon="13.542859935740413"><ele>24.666666666666664</ele><time>2026-04-26T14:53:19Z</time></trkpt><trkpt lat="43.51040455412124" lon="13.542752060261822"><ele>24.0</ele><time>2026-04-26T14:53:20Z</time></trkpt><trkpt lat="43.510565109032775" lon="13.542647023563658"><ele>24.0</ele><time>2026-04-26T14:53:21Z</time></trkpt><trkpt lat="43.51072456336512" lon="13.542545027009739"><ele>24.0</ele><time>2026-04-26T14:53:22Z</time></trkpt><trkpt lat="43.510879659654016" lon="13.542441574303476"><ele>24.0</ele><time>2026-04-26T14:53:23Z</time></trkpt><trkpt lat="43.51103493792301" lon="13.542340070929576"><ele>24.0</ele><time>2026-04-26T14:53:24Z</time></trkpt><trkpt lat="43.51119157230944" lon="13.542242069767271"><ele>24.0</ele><time>2026-04-26T14:53:25Z</time></trkpt><trkpt lat="43.51136090346014" lon="13.542135191438167"><ele>24.0</ele><time>2026-04-26T14:53:26Z</time></trkpt><trkpt lat="43.51154105592574" lon="13.54201646820929"><ele>23.333333333333332</ele><time>2026-04-26T14:53:27Z</time></trkpt><trkpt lat="43.51172658586456" lon="13.541885925334597"><ele>22.666666666666664</ele><time>2026-04-26T14:53:28Z</time></trkpt><trkpt lat="43.51192090298855" lon="13.541753051316046"><ele>22.0</ele><time>2026-04-26T14:53:29Z</time></trkpt><trkpt lat="43.51212519294869" lon="13.541627343323178"><ele>24.5</ele><time>2026-04-26T14:53:30Z</time></trkpt><trkpt lat="43.51233750274031" lon="13.541496263559722"><ele>27.0</ele><time>2026-04-26T14:53:31Z</time></trkpt><trkpt lat="43.5125518287062" lon="13.541362084055795"><ele>27.0</ele><time>2026-04-26T14:53:32Z</time></trkpt><trkpt lat="43.51276896972254" lon="13.541222693952614"><ele>27.0</ele><time>2026-04-26T14:53:33Z</time></trkpt><trkpt lat="43.512989196532814" lon="13.541079001436682"><ele>25.5</ele><time>2026-04-26T14:53:34Z</time></trkpt><trkpt lat="43.51321164863375" lon="13.540934181854157"><ele>24.0</ele><time>2026-04-26T14:53:35Z</time></trkpt><trkpt lat="43.513432255462554" lon="13.540788399730728"><ele>24.0</ele><time>2026-04-26T14:53:36Z</time></trkpt><trkpt lat="43.51365337223759" lon="13.540642788610388"><ele>24.0</ele><time>2026-04-26T14:53:36.999Z</time></trkpt><trkpt lat="43.51387535248169" lon="13.540496682530897"><ele>24.5</ele><time>2026-04-26T14:53:37.999Z</time></trkpt><trkpt lat="43.51409726589194" lon="13.540353426109036"><ele>25.0</ele><time>2026-04-26T14:53:38.999Z</time></trkpt><trkpt lat="43.514315932891776" lon="13.540213255233727"><ele>25.0</ele><time>2026-04-26T14:53:39.999Z</time></trkpt><trkpt lat="43.514533252637804" lon="13.540071233352867"><ele>25.0</ele><time>2026-04-26T14:53:40.999Z</time></trkpt><trkpt lat="43.51474836339306" lon="13.539926681658189"><ele>25.5</ele><time>2026-04-26T14:53:41.999Z</time></trkpt><trkpt lat="43.51496200847073" lon="13.539785221086635"><ele>26.0</ele><time>2026-04-26T14:53:42.999Z</time></trkpt><trkpt lat="43.51517543827089" lon="13.539648197309154"><ele>26.0</ele><time>2026-04-26T14:53:43.999Z</time></trkpt><trkpt lat="43.5153876220462" lon="13.539511320972455"><ele>26.0</ele><time>2026-04-26T14:53:44.999Z</time></trkpt><trkpt lat="43.51559990558906" lon="13.539373165484472"><ele>26.5</ele><time>2026-04-26T14:53:45.999Z</time></trkpt><trkpt lat="43.515810985520346" lon="13.539236299143404"><ele>27.0</ele><time>2026-04-26T14:53:46.999Z</time></trkpt><trkpt lat="43.51602147690019" lon="13.539098909999735"><ele>27.0</ele><time>2026-04-26T14:53:47.999Z</time></trkpt><trkpt lat="43.51623113442387" lon="13.538962168851532"><ele>27.0</ele><time>2026-04-26T14:53:48.999Z</time></trkpt><trkpt lat="43.51643894351762" lon="13.538823678800135"><ele>27.0</ele><time>2026-04-26T14:53:49.999Z</time></trkpt><trkpt lat="43.51664377216885" lon="13.538679804636676"><ele>27.0</ele><time>2026-04-26T14:53:50.999Z</time></trkpt><trkpt lat="43.51686442919816" lon="13.538558608983127"><ele>27.5</ele><time>2026-04-26T14:53:51.999Z</time></trkpt><trkpt lat="43.51708557487776" lon="13.538417145599185"><ele>28.0</ele><time>2026-04-26T14:53:52.999Z</time></trkpt><trkpt lat="43.517312337401655" lon="13.538269339050794"><ele>28.0</ele><time>2026-04-26T14:53:53.999Z</time></trkpt><trkpt lat="43.51753307598903" lon="13.538100128661577"><ele>28.0</ele><time>2026-04-26T14:53:54.999Z</time></trkpt><trkpt lat="43.51776305034607" lon="13.537960344451623"><ele>26.5</ele><time>2026-04-26T14:53:55.999Z</time></trkpt><trkpt lat="43.51798865551574" lon="13.537817350323113"><ele>25.0</ele><time>2026-04-26T14:53:56.999Z</time></trkpt><trkpt lat="43.5182147949588" lon="13.537674307692196"><ele>25.0</ele><time>2026-04-26T14:53:57.999Z</time></trkpt><trkpt lat="43.51843018373066" lon="13.537531233614505"><ele>25.0</ele><time>2026-04-26T14:53:58.999Z</time></trkpt><trkpt lat="43.518627553271266" lon="13.537395495166692"><ele>26.333333333333336</ele><time>2026-04-26T14:53:59.999Z</time></trkpt><trkpt lat="43.51879859178945" lon="13.537271569681169"><ele>27.666666666666664</ele><time>2026-04-26T14:54:00.999Z</time></trkpt><trkpt lat="43.51895615999417" lon="13.537188598384459"><ele>29.0</ele><time>2026-04-26T14:54:01.999Z</time></trkpt><trkpt lat="43.51909066816949" lon="13.537080029761224"><ele>28.75</ele><time>2026-04-26T14:54:02.999Z</time></trkpt><trkpt lat="43.51923261731537" lon="13.53704171167617"><ele>28.5</ele><time>2026-04-26T14:54:03.999Z</time></trkpt><trkpt lat="43.51936226958323" lon="13.537036406966891"><ele>28.25</ele><time>2026-04-26T14:54:04.999Z</time></trkpt><trkpt lat="43.51946921711166" lon="13.537041925527042"><ele>28.0</ele><time>2026-04-26T14:54:05.999Z</time></trkpt><trkpt lat="43.5195566432569" lon="13.536993638638846"><ele>29.5</ele><time>2026-04-26T14:54:06.999Z</time></trkpt><trkpt lat="43.51964176197481" lon="13.536880573164684"><ele>31.0</ele><time>2026-04-26T14:54:07.999Z</time></trkpt><trkpt lat="43.51972864442566" lon="13.536726321970008"><ele>32.5</ele><time>2026-04-26T14:54:08.999Z</time></trkpt><trkpt lat="43.51984133394429" lon="13.53658005555959"><ele>34.0</ele><time>2026-04-26T14:54:09.999Z</time></trkpt><trkpt lat="43.51998503317243" lon="13.53646914723509"><ele>34.0</ele><time>2026-04-26T14:54:10.999Z</time></trkpt><trkpt lat="43.520138504497126" lon="13.536354570255511"><ele>34.0</ele><time>2026-04-26T14:54:11.999Z</time></trkpt><trkpt lat="43.5202937602797" lon="13.536218773696126"><ele>34.0</ele><time>2026-04-26T14:54:12.999Z</time></trkpt><trkpt lat="43.52045439322598" lon="13.536091794834707"><ele>35.333333333333336</ele><time>2026-04-26T14:54:13.999Z</time></trkpt><trkpt lat="43.520594350180104" lon="13.53593207332859"><ele>36.666666666666664</ele><time>2026-04-26T14:54:14.999Z</time></trkpt><trkpt lat="43.52071342367706" lon="13.535748914770808"><ele>38.0</ele><time>2026-04-26T14:54:15.999Z</time></trkpt><trkpt lat="43.52083353101756" lon="13.535583263875964"><ele>38.0</ele><time>2026-04-26T14:54:16.999Z</time></trkpt><trkpt lat="43.520941948134684" lon="13.53542511795154"><ele>38.0</ele><time>2026-04-26T14:54:17.999Z</time></trkpt><trkpt lat="43.52105481801897" lon="13.535243128407535"><ele>38.0</ele><time>2026-04-26T14:54:18.999Z</time></trkpt><trkpt lat="43.52120185468993" lon="13.535077795171766"><ele>38.33333333333333</ele><time>2026-04-26T14:54:19.999Z</time></trkpt><trkpt lat="43.52134110079968" lon="13.534873503331541"><ele>38.666666666666664</ele><time>2026-04-26T14:54:20.999Z</time></trkpt><trkpt lat="43.52148404199411" lon="13.534663789154338"><ele>39.0</ele><time>2026-04-26T14:54:21.999Z</time></trkpt><trkpt lat="43.52162728401044" lon="13.534453845676198"><ele>39.0</ele><time>2026-04-26T14:54:22.999Z</time></trkpt><trkpt lat="43.52177077372685" lon="13.534244826413229"><ele>39.0</ele><time>2026-04-26T14:54:23.999Z</time></trkpt><trkpt lat="43.52192260405282" lon="13.534033195991334"><ele>39.0</ele><time>2026-04-26T14:54:24.999Z</time></trkpt><trkpt lat="43.522065888929525" lon="13.533846708481665"><ele>39.333333333333336</ele><time>2026-04-26T14:54:25.999Z</time></trkpt><trkpt lat="43.52219933593469" lon="13.533666050160152"><ele>39.66666666666667</ele><time>2026-04-26T14:54:26.999Z</time></trkpt><trkpt lat="43.52235243125021" lon="13.533542154133118"><ele>40.0</ele><time>2026-04-26T14:54:27.999Z</time></trkpt><trkpt lat="43.5224949998224" lon="13.533408798611763"><ele>40.0</ele><time>2026-04-26T14:54:28.999Z</time></trkpt><trkpt lat="43.522634851816974" lon="13.533287036257533"><ele>40.0</ele><time>2026-04-26T14:54:29.999Z</time></trkpt><trkpt lat="43.522762482238214" lon="13.533150691831317"><ele>40.0</ele><time>2026-04-26T14:54:30.999Z</time></trkpt><trkpt lat="43.5228961527067" lon="13.533044129233671"><ele>40.25</ele><time>2026-04-26T14:54:31.999Z</time></trkpt><trkpt lat="43.52301797105291" lon="13.532941887269258"><ele>40.5</ele><time>2026-04-26T14:54:32.999Z</time></trkpt><trkpt lat="43.523132941618265" lon="13.53285077322528"><ele>40.75</ele><time>2026-04-26T14:54:33.999Z</time></trkpt><trkpt lat="43.52325377513102" lon="13.532785219807112"><ele>41.0</ele><time>2026-04-26T14:54:34.999Z</time></trkpt><trkpt lat="43.52336526077155" lon="13.532706228000986"><ele>38.75</ele><time>2026-04-26T14:54:35.999Z</time></trkpt><trkpt lat="43.523478023221145" lon="13.532633664828847"><ele>36.5</ele><time>2026-04-26T14:54:36.999Z</time></trkpt><trkpt lat="43.523582088070434" lon="13.532549760572275"><ele>34.25</ele><time>2026-04-26T14:54:37.999Z</time></trkpt><trkpt lat="43.52368585861409" lon="13.532484564499468"><ele>32.0</ele><time>2026-04-26T14:54:38.999Z</time></trkpt><trkpt lat="43.52379004141464" lon="13.532419164928381"><ele>32.0</ele><time>2026-04-26T14:54:39.999Z</time></trkpt><trkpt lat="43.5238938329915" lon="13.532355655893614"><ele>32.0</ele><time>2026-04-26T14:54:40.999Z</time></trkpt><trkpt lat="43.52399837711307" lon="13.532293337008133"><ele>32.0</ele><time>2026-04-26T14:54:41.999Z</time></trkpt><trkpt lat="43.524105965328495" lon="13.53222814854486"><ele>32.0</ele><time>2026-04-26T14:54:42.999Z</time></trkpt><trkpt lat="43.52420827161178" lon="13.532165717397033"><ele>32.0</ele><time>2026-04-26T14:54:43.999Z</time></trkpt><trkpt lat="43.524307057129974" lon="13.532104924492431"><ele>32.0</ele><time>2026-04-26T14:54:44.999Z</time></trkpt><trkpt lat="43.52440304213705" lon="13.532047191548171"><ele>32.0</ele><time>2026-04-26T14:54:45.999Z</time></trkpt><trkpt lat="43.52450013432759" lon="13.531991388033644"><ele>32.0</ele><time>2026-04-26T14:54:46.999Z</time></trkpt><trkpt lat="43.52460402429926" lon="13.53192905405181"><ele>32.0</ele><time>2026-04-26T14:54:47.999Z</time></trkpt><trkpt lat="43.52471301058161" lon="13.531861391379126"><ele>31.25</ele><time>2026-04-26T14:54:48.999Z</time></trkpt><trkpt lat="43.52482811793567" lon="13.531790754475846"><ele>30.5</ele><time>2026-04-26T14:54:49.999Z</time></trkpt><trkpt lat="43.52494566045463" lon="13.531721368313374"><ele>29.75</ele><time>2026-04-26T14:54:50.999Z</time></trkpt><trkpt lat="43.525054701442485" lon="13.531655560264772"><ele>29.0</ele><time>2026-04-26T14:54:51.999Z</time></trkpt><trkpt lat="43.525167085518845" lon="13.5315837053902"><ele>29.0</ele><time>2026-04-26T14:54:52.999Z</time></trkpt><trkpt lat="43.525282556272465" lon="13.531509226294354"><ele>29.0</ele><time>2026-04-26T14:54:53.999Z</time></trkpt><trkpt lat="43.525403184259204" lon="13.531432529344"><ele>29.0</ele><time>2026-04-26T14:54:54.999Z</time></trkpt><trkpt lat="43.52552568022788" lon="13.531358362847309"><ele>29.0</ele><time>2026-04-26T14:54:55.999Z</time></trkpt><trkpt lat="43.52564503538581" lon="13.53127804590108"><ele>27.666666666666664</ele><time>2026-04-26T14:54:56.999Z</time></trkpt><trkpt lat="43.525782697730385" lon="13.531181206109242"><ele>26.333333333333336</ele><time>2026-04-26T14:54:57.999Z</time></trkpt><trkpt lat="43.52593644408189" lon="13.53107569806445"><ele>25.0</ele><time>2026-04-26T14:54:58.999Z</time></trkpt><trkpt lat="43.526102010920184" lon="13.530971859277676"><ele>25.0</ele><time>2026-04-26T14:54:59.999Z</time></trkpt><trkpt lat="43.52625987083811" lon="13.530878874982573"><ele>25.0</ele><time>2026-04-26T14:55:00.999Z</time></trkpt><trkpt lat="43.52640289755616" lon="13.530786616190502"><ele>25.0</ele><time>2026-04-26T14:55:01.999Z</time></trkpt><trkpt lat="43.52655762739458" lon="13.530711114593954"><ele>25.0</ele><time>2026-04-26T14:55:02.998Z</time></trkpt><trkpt lat="43.526724861974174" lon="13.530606761117626"><ele>25.0</ele><time>2026-04-26T14:55:03.998Z</time></trkpt><trkpt lat="43.526903048593816" lon="13.530500360685739"><ele>25.0</ele><time>2026-04-26T14:55:04.998Z</time></trkpt><trkpt lat="43.52709232367559" lon="13.530387535246254"><ele>25.0</ele><time>2026-04-26T14:55:06Z</time></trkpt><trkpt lat="43.527286915103794" lon="13.530258942521577"><ele>25.0</ele><time>2026-04-26T14:55:07Z</time></trkpt><trkpt lat="43.52746736354036" lon="13.530114594297993"><ele>25.0</ele><time>2026-04-26T14:55:08Z</time></trkpt><trkpt lat="43.52763954043933" lon="13.53000312748541"><ele>25.0</ele><time>2026-04-26T14:55:09Z</time></trkpt><trkpt lat="43.527792213751134" lon="13.52989648845864"><ele>25.0</ele><time>2026-04-26T14:55:10Z</time></trkpt><trkpt lat="43.527931737417696" lon="13.529798822207793"><ele>25.0</ele><time>2026-04-26T14:55:11Z</time></trkpt><trkpt lat="43.52807686623903" lon="13.529726994201082"><ele>25.333333333333336</ele><time>2026-04-26T14:55:12Z</time></trkpt><trkpt lat="43.52823276099284" lon="13.529624713686356"><ele>25.666666666666664</ele><time>2026-04-26T14:55:13Z</time></trkpt><trkpt lat="43.52840118777056" lon="13.529514211074329"><ele>26.0</ele><time>2026-04-26T14:55:14Z</time></trkpt><trkpt lat="43.52858086251556" lon="13.529397404579477"><ele>25.666666666666664</ele><time>2026-04-26T14:55:15Z</time></trkpt><trkpt lat="43.528768099195595" lon="13.529275811957662"><ele>25.333333333333336</ele><time>2026-04-26T14:55:16Z</time></trkpt><trkpt lat="43.52896171060391" lon="13.529150079552116"><ele>25.0</ele><time>2026-04-26T14:55:17Z</time></trkpt><trkpt lat="43.529133786464875" lon="13.529014637926506"><ele>25.0</ele><time>2026-04-26T14:55:18Z</time></trkpt><trkpt lat="43.52930224631481" lon="13.528906021037086"><ele>25.0</ele><time>2026-04-26T14:55:19Z</time></trkpt><trkpt lat="43.52945996992354" lon="13.528806150687402"><ele>25.0</ele><time>2026-04-26T14:55:20Z</time></trkpt><trkpt lat="43.52960290243373" lon="13.528712802262264"><ele>25.25</ele><time>2026-04-26T14:55:21Z</time></trkpt><trkpt lat="43.529740657275674" lon="13.52862677083768"><ele>25.5</ele><time>2026-04-26T14:55:22Z</time></trkpt><trkpt lat="43.52987176230412" lon="13.528547138012126"><ele>25.75</ele><time>2026-04-26T14:55:23Z</time></trkpt><trkpt lat="43.529990469933935" lon="13.528479344397443"><ele>26.0</ele><time>2026-04-26T14:55:24Z</time></trkpt><trkpt lat="43.53010123175635" lon="13.528422604954411"><ele>26.0</ele><time>2026-04-26T14:55:25Z</time></trkpt><trkpt lat="43.53020685870111" lon="13.528374037227284"><ele>26.0</ele><time>2026-04-26T14:55:26Z</time></trkpt><trkpt lat="43.53030123457579" lon="13.528332671731695"><ele>26.0</ele><time>2026-04-26T14:55:27Z</time></trkpt><trkpt lat="43.53038495414902" lon="13.52829082598487"><ele>26.0</ele><time>2026-04-26T14:55:28Z</time></trkpt><trkpt lat="43.530473968859745" lon="13.528253104506485"><ele>26.0</ele><time>2026-04-26T14:55:29Z</time></trkpt><trkpt lat="43.53056849776653" lon="13.52822463364817"><ele>26.333333333333332</ele><time>2026-04-26T14:55:30Z</time></trkpt><trkpt lat="43.530658595398315" lon="13.528199303889531"><ele>26.666666666666664</ele><time>2026-04-26T14:55:31Z</time></trkpt><trkpt lat="43.530737303353135" lon="13.528185452221951"><ele>27.0</ele><time>2026-04-26T14:55:32Z</time></trkpt><trkpt lat="43.530814996364974" lon="13.528184487288254"><ele>27.333333333333336</ele><time>2026-04-26T14:55:33Z</time></trkpt><trkpt lat="43.53088099190307" lon="13.528189279588453"><ele>27.666666666666668</ele><time>2026-04-26T14:55:34Z</time></trkpt><trkpt lat="43.53101282446798" lon="13.528184998493114"><ele>28.0</ele><time>2026-04-26T14:55:36Z</time></trkpt><trkpt lat="43.53107704077028" lon="13.528190285609881"><ele>28.0</ele><time>2026-04-26T14:55:37Z</time></trkpt><trkpt lat="43.53121465205789" lon="13.528246508552256"><ele>27.999999999999996</ele><time>2026-04-26T14:55:39Z</time></trkpt><trkpt lat="43.5312940629314" lon="13.528314347395002"><ele>27.999999999999996</ele><time>2026-04-26T14:55:40Z</time></trkpt><trkpt lat="43.53136757748867" lon="13.528351515739066"><ele>28.0</ele><time>2026-04-26T14:55:41Z</time></trkpt><trkpt lat="43.53144414620786" lon="13.52833672923884"><ele>28.0</ele><time>2026-04-26T14:55:42Z</time></trkpt><trkpt lat="43.531503641627765" lon="13.528275726059654"><ele>28.4</ele><time>2026-04-26T14:55:43Z</time></trkpt><trkpt lat="43.531562094822156" lon="13.528192307646735"><ele>28.799999999999997</ele><time>2026-04-26T14:55:44Z</time></trkpt><trkpt lat="43.5315746996938" lon="13.528056571064175"><ele>29.2</ele><time>2026-04-26T14:55:45Z</time></trkpt><trkpt lat="43.531502330102505" lon="13.527923242278662"><ele>29.6</ele><time>2026-04-26T14:55:45.999Z</time></trkpt><trkpt lat="43.53144035086048" lon="13.527791158708112"><ele>30.0</ele><time>2026-04-26T14:55:46.999Z</time></trkpt><trkpt lat="43.53139316373371" lon="13.527627042961639"><ele>30.666666666666664</ele><time>2026-04-26T14:55:47.999Z</time></trkpt><trkpt lat="43.53137417135395" lon="13.527428970407463"><ele>31.333333333333332</ele><time>2026-04-26T14:55:48.999Z</time></trkpt><trkpt lat="43.53137817278316" lon="13.52720838522282"><ele>32.0</ele><time>2026-04-26T14:55:49.999Z</time></trkpt><trkpt lat="43.53140292023453" lon="13.52698068132721"><ele>32.0</ele><time>2026-04-26T14:55:50.999Z</time></trkpt><trkpt lat="43.531448875390055" lon="13.52675264542532"><ele>32.0</ele><time>2026-04-26T14:55:51.999Z</time></trkpt><trkpt lat="43.531517463445375" lon="13.526535614798957"><ele>32.0</ele><time>2026-04-26T14:55:52.999Z</time></trkpt><trkpt lat="43.53159557425863" lon="13.526342827195291"><ele>31.5</ele><time>2026-04-26T14:55:53.999Z</time></trkpt><trkpt lat="43.53167323852596" lon="13.52616738105134"><ele>31.0</ele><time>2026-04-26T14:55:54.999Z</time></trkpt><trkpt lat="43.53174534628154" lon="13.526002179459018"><ele>30.5</ele><time>2026-04-26T14:55:55.999Z</time></trkpt><trkpt lat="43.53181309296074" lon="13.525848458514602"><ele>30.0</ele><time>2026-04-26T14:55:56.999Z</time></trkpt><trkpt lat="43.53188004979002" lon="13.525702950853505"><ele>30.0</ele><time>2026-04-26T14:55:57.999Z</time></trkpt><trkpt lat="43.531941971050834" lon="13.525565418963252"><ele>30.0</ele><time>2026-04-26T14:55:58.999Z</time></trkpt><trkpt lat="43.53199911261912" lon="13.52543566212661"><ele>30.0</ele><time>2026-04-26T14:55:59.999Z</time></trkpt><trkpt lat="43.53205870475749" lon="13.52530899146205"><ele>30.0</ele><time>2026-04-26T14:56:00.999Z</time></trkpt><trkpt lat="43.5321227033756" lon="13.525185558983656"><ele>30.0</ele><time>2026-04-26T14:56:01.999Z</time></trkpt><trkpt lat="43.53218419085368" lon="13.525070675600523"><ele>30.166666666666668</ele><time>2026-04-26T14:56:02.999Z</time></trkpt><trkpt lat="43.532232413263145" lon="13.524965967375952"><ele>30.333333333333336</ele><time>2026-04-26T14:56:03.999Z</time></trkpt><trkpt lat="43.532286552212696" lon="13.524887870656853"><ele>30.5</ele><time>2026-04-26T14:56:04.999Z</time></trkpt><trkpt lat="43.53233793859323" lon="13.524827624790912"><ele>30.666666666666668</ele><time>2026-04-26T14:56:05.999Z</time></trkpt><trkpt lat="43.53241531751857" lon="13.524768826897043"><ele>30.833333333333336</ele><time>2026-04-26T14:56:07.999Z</time></trkpt><trkpt lat="43.532494283550406" lon="13.524738464423756"><ele>31.0</ele><time>2026-04-26T14:56:09.999Z</time></trkpt><trkpt lat="43.532591125805055" lon="13.524658020777396"><ele>31.0</ele><time>2026-04-26T14:56:11.999Z</time></trkpt><trkpt lat="43.5326391937676" lon="13.524591576849689"><ele>31.0</ele><time>2026-04-26T14:56:12.999Z</time></trkpt><trkpt lat="43.53267458485132" lon="13.524505154686148"><ele>31.0</ele><time>2026-04-26T14:56:13.999Z</time></trkpt><trkpt lat="43.53268504553627" lon="13.524412791077935"><ele>31.0</ele><time>2026-04-26T14:56:14.999Z</time></trkpt><trkpt lat="43.532711085729034" lon="13.524221338080482"><ele>31.0</ele><time>2026-04-26T14:56:16.999Z</time></trkpt><trkpt lat="43.532758099811254" lon="13.524072123156799"><ele>30.5</ele><time>2026-04-26T14:56:17.999Z</time></trkpt><trkpt lat="43.53282048747796" lon="13.523905378686516"><ele>30.0</ele><time>2026-04-26T14:56:18.999Z</time></trkpt><trkpt lat="43.532903613465066" lon="13.523731704370864"><ele>29.5</ele><time>2026-04-26T14:56:19.999Z</time></trkpt><trkpt lat="43.53299558025074" lon="13.523548499383983"><ele>29.0</ele><time>2026-04-26T14:56:20.999Z</time></trkpt><trkpt lat="43.53309797671469" lon="13.52334967894288"><ele>31.0</ele><time>2026-04-26T14:56:21.999Z</time></trkpt><trkpt lat="43.53321039301031" lon="13.52313989596722"><ele>33.0</ele><time>2026-04-26T14:56:22.999Z</time></trkpt><trkpt lat="43.53333235042583" lon="13.522921852224345"><ele>35.0</ele><time>2026-04-26T14:56:23.999Z</time></trkpt><trkpt lat="43.53345934073829" lon="13.522695216354673"><ele>35.33333333333333</ele><time>2026-04-26T14:56:24.999Z</time></trkpt><trkpt lat="43.533588590575086" lon="13.522455813818809"><ele>35.666666666666664</ele><time>2026-04-26T14:56:25.999Z</time></trkpt><trkpt lat="43.53372328260184" lon="13.522212957252531"><ele>36.0</ele><time>2026-04-26T14:56:26.999Z</time></trkpt><trkpt lat="43.53386078588829" lon="13.521965681081774"><ele>42.5</ele><time>2026-04-26T14:56:27.999Z</time></trkpt><trkpt lat="43.53399580486277" lon="13.521707651559428"><ele>49.0</ele><time>2026-04-26T14:56:28.999Z</time></trkpt><trkpt lat="43.534119512138645" lon="13.521437114812368"><ele>47.5</ele><time>2026-04-26T14:56:29.999Z</time></trkpt><trkpt lat="43.53422051696448" lon="13.52115054568159"><ele>46.0</ele><time>2026-04-26T14:56:30.999Z</time></trkpt><trkpt lat="43.534300354927815" lon="13.520846882810249"><ele>46.0</ele><time>2026-04-26T14:56:31.999Z</time></trkpt><trkpt lat="43.534388108354364" lon="13.520544423788598"><ele>46.0</ele><time>2026-04-26T14:56:32.999Z</time></trkpt><trkpt lat="43.534507547092" lon="13.520258639022193"><ele>48.5</ele><time>2026-04-26T14:56:33.999Z</time></trkpt><trkpt lat="43.53465154871113" lon="13.51999699848561"><ele>51.0</ele><time>2026-04-26T14:56:34.999Z</time></trkpt><trkpt lat="43.53480471483258" lon="13.519771114033444"><ele>51.0</ele><time>2026-04-26T14:56:35.999Z</time></trkpt><trkpt lat="43.53497673377795" lon="13.519569744105324"><ele>51.0</ele><time>2026-04-26T14:56:36.999Z</time></trkpt><trkpt lat="43.53515347192907" lon="13.519410358029349"><ele>51.0</ele><time>2026-04-26T14:56:37.999Z</time></trkpt><trkpt lat="43.53532086323447" lon="13.519285572502714"><ele>50.0</ele><time>2026-04-26T14:56:38.999Z</time></trkpt><trkpt lat="43.53545565325748" lon="13.519194611284002"><ele>49.0</ele><time>2026-04-26T14:56:39.999Z</time></trkpt><trkpt lat="43.53555766250164" lon="13.519129146571323"><ele>48.0</ele><time>2026-04-26T14:56:40.999Z</time></trkpt><trkpt lat="43.53563660675848" lon="13.519079940985641"><ele>47.0</ele><time>2026-04-26T14:56:41.999Z</time></trkpt><trkpt lat="43.53570989518023" lon="13.519049223784462"><ele>46.0</ele><time>2026-04-26T14:56:42.999Z</time></trkpt><trkpt lat="43.53578895108002" lon="13.519050809461094"><ele>46.0</ele><time>2026-04-26T14:56:43.999Z</time></trkpt><trkpt lat="43.53588079456928" lon="13.519056496707934"><ele>46.0</ele><time>2026-04-26T14:56:44.999Z</time></trkpt><trkpt lat="43.53595856462828" lon="13.519015762990643"><ele>46.0</ele><time>2026-04-26T14:56:45.999Z</time></trkpt><trkpt lat="43.5360118149259" lon="13.518940841886556"><ele>46.0</ele><time>2026-04-26T14:56:46.999Z</time></trkpt><trkpt lat="43.536019490441056" lon="13.518734129505441"><ele>46.0</ele><time>2026-04-26T14:56:48.999Z</time></trkpt><trkpt lat="43.53597417821231" lon="13.518633563882979"><ele>44.5</ele><time>2026-04-26T14:56:49.999Z</time></trkpt><trkpt lat="43.535905619082854" lon="13.51855664821449"><ele>43.0</ele><time>2026-04-26T14:56:50.999Z</time></trkpt><trkpt lat="43.535817163197564" lon="13.518480835384773"><ele>41.5</ele><time>2026-04-26T14:56:51.999Z</time></trkpt><trkpt lat="43.53572163592853" lon="13.518363181531246"><ele>40.0</ele><time>2026-04-26T14:56:52.999Z</time></trkpt><trkpt lat="43.5356322541984" lon="13.518203435800494"><ele>40.0</ele><time>2026-04-26T14:56:53.999Z</time></trkpt><trkpt lat="43.535535861246224" lon="13.518008024448504"><ele>40.0</ele><time>2026-04-26T14:56:54.999Z</time></trkpt><trkpt lat="43.535431416585965" lon="13.517803269631429"><ele>40.0</ele><time>2026-04-26T14:56:55.999Z</time></trkpt><trkpt lat="43.535322136347645" lon="13.51758213591683"><ele>38.0</ele><time>2026-04-26T14:56:56.999Z</time></trkpt><trkpt lat="43.53521063826046" lon="13.51735608585154"><ele>36.0</ele><time>2026-04-26T14:56:57.999Z</time></trkpt><trkpt lat="43.53509499403262" lon="13.517123925251536"><ele>34.0</ele><time>2026-04-26T14:56:58.999Z</time></trkpt><trkpt lat="43.534978891405316" lon="13.516886365944039"><ele>33.66666666666667</ele><time>2026-04-26T14:56:59.999Z</time></trkpt><trkpt lat="43.534867330384124" lon="13.516655760040479"><ele>33.333333333333336</ele><time>2026-04-26T14:57:00.999Z</time></trkpt><trkpt lat="43.53476124493902" lon="13.516436161846395"><ele>33.0</ele><time>2026-04-26T14:57:01.999Z</time></trkpt><trkpt lat="43.53465331077475" lon="13.516216745159328"><ele>33.333333333333336</ele><time>2026-04-26T14:57:02.999Z</time></trkpt><trkpt lat="43.534544983172495" lon="13.515997545517743"><ele>33.66666666666667</ele><time>2026-04-26T14:57:03.999Z</time></trkpt><trkpt lat="43.534437526656504" lon="13.515774131271899"><ele>34.0</ele><time>2026-04-26T14:57:04.999Z</time></trkpt><trkpt lat="43.53432731466192" lon="13.515556130887692"><ele>34.0</ele><time>2026-04-26T14:57:05.999Z</time></trkpt><trkpt lat="43.53421652263306" lon="13.515331839823265"><ele>34.0</ele><time>2026-04-26T14:57:06.999Z</time></trkpt><trkpt lat="43.53410381581019" lon="13.515108215672155"><ele>34.0</ele><time>2026-04-26T14:57:07.999Z</time></trkpt><trkpt lat="43.53398947859586" lon="13.514871384789167"><ele>34.0</ele><time>2026-04-26T14:57:08.999Z</time></trkpt><trkpt lat="43.53387667912054" lon="13.514641035644079"><ele>34.0</ele><time>2026-04-26T14:57:09.999Z</time></trkpt><trkpt lat="43.53376597392621" lon="13.5144158452007"><ele>34.0</ele><time>2026-04-26T14:57:10.998Z</time></trkpt><trkpt lat="43.53366218812366" lon="13.514202644278036"><ele>33.333333333333336</ele><time>2026-04-26T14:57:12Z</time></trkpt><trkpt lat="43.53356193675185" lon="13.51399870775056"><ele>32.666666666666664</ele><time>2026-04-26T14:57:13Z</time></trkpt><trkpt lat="43.53346454888239" lon="13.513800948073213"><ele>32.0</ele><time>2026-04-26T14:57:14Z</time></trkpt><trkpt lat="43.53336690039996" lon="13.513615658819647"><ele>32.0</ele><time>2026-04-26T14:57:15Z</time></trkpt><trkpt lat="43.53325207969659" lon="13.513436129402752"><ele>32.0</ele><time>2026-04-26T14:57:16Z</time></trkpt><trkpt lat="43.533119440893906" lon="13.513268673271929"><ele>32.0</ele><time>2026-04-26T14:57:17Z</time></trkpt><trkpt lat="43.5329663530114" lon="13.513124904625064"><ele>32.0</ele><time>2026-04-26T14:57:18Z</time></trkpt><trkpt lat="43.5327933611262" lon="13.51300715028048"><ele>32.0</ele><time>2026-04-26T14:57:19Z</time></trkpt><trkpt lat="43.53260809475737" lon="13.512923205849242"><ele>32.0</ele><time>2026-04-26T14:57:20Z</time></trkpt><trkpt lat="43.53243455798549" lon="13.512883886143586"><ele>31.666666666666664</ele><time>2026-04-26T14:57:21Z</time></trkpt><trkpt lat="43.53226758445016" lon="13.512867380703856"><ele>31.333333333333336</ele><time>2026-04-26T14:57:22Z</time></trkpt><trkpt lat="43.5321111641804" lon="13.512877191872576"><ele>31.0</ele><time>2026-04-26T14:57:23Z</time></trkpt><trkpt lat="43.531958498307745" lon="13.512904746952588"><ele>31.0</ele><time>2026-04-26T14:57:24Z</time></trkpt><trkpt lat="43.53181251025881" lon="13.51294875484833"><ele>31.0</ele><time>2026-04-26T14:57:25Z</time></trkpt><trkpt lat="43.53168359784152" lon="13.51300247192949"><ele>31.0</ele><time>2026-04-26T14:57:26Z</time></trkpt><trkpt lat="43.53157205321043" lon="13.513066332340875"><ele>31.0</ele><time>2026-04-26T14:57:27Z</time></trkpt><trkpt lat="43.53149403977908" lon="13.513132249553394"><ele>31.000000000000004</ele><time>2026-04-26T14:57:28Z</time></trkpt><trkpt lat="43.53143832961525" lon="13.513181803865962"><ele>31.0</ele><time>2026-04-26T14:57:29Z</time></trkpt><trkpt lat="43.53137435833152" lon="13.513266195348868"><ele>31.0</ele><time>2026-04-26T14:59:19.999Z</time></trkpt><trkpt lat="43.531323593688846" lon="13.513334827126497"><ele>31.0</ele><time>2026-04-26T14:59:20.999Z</time></trkpt><trkpt lat="43.531258913890525" lon="13.513418998285248"><ele>31.000000000000004</ele><time>2026-04-26T14:59:21.999Z</time></trkpt><trkpt lat="43.531183030286265" lon="13.513516571804873"><ele>31.0</ele><time>2026-04-26T14:59:22.999Z</time></trkpt><trkpt lat="43.531098511890775" lon="13.513620552377917"><ele>31.0</ele><time>2026-04-26T14:59:23.999Z</time></trkpt><trkpt lat="43.53101329163909" lon="13.513730820442255"><ele>31.0</ele><time>2026-04-26T14:59:24.999Z</time></trkpt><trkpt lat="43.530928067461396" lon="13.51383230481413"><ele>31.0</ele><time>2026-04-26T14:59:25.999Z</time></trkpt><trkpt lat="43.530840831351455" lon="13.51393054963245"><ele>31.0</ele><time>2026-04-26T14:59:26.999Z</time></trkpt><trkpt lat="43.53075183767677" lon="13.514033344680293"><ele>31.0</ele><time>2026-04-26T14:59:27.999Z</time></trkpt><trkpt lat="43.5306584220144" lon="13.514133569751207"><ele>31.0</ele><time>2026-04-26T14:59:28.999Z</time></trkpt><trkpt lat="43.530567456861554" lon="13.514224890703112"><ele>31.0</ele><time>2026-04-26T14:59:29.999Z</time></trkpt><trkpt lat="43.530481997988836" lon="13.514310013930755"><ele>31.0</ele><time>2026-04-26T14:59:30.999Z</time></trkpt><trkpt lat="43.53040602951849" lon="13.51439397806154"><ele>31.0</ele><time>2026-04-26T14:59:31.999Z</time></trkpt><trkpt lat="43.530336644821496" lon="13.51447604919018"><ele>31.0</ele><time>2026-04-26T14:59:32.999Z</time></trkpt><trkpt lat="43.53027214774191" lon="13.514550406089377"><ele>31.0</ele><time>2026-04-26T14:59:33.999Z</time></trkpt><trkpt lat="43.53021615115909" lon="13.514618479133569"><ele>31.0</ele><time>2026-04-26T14:59:34.999Z</time></trkpt><trkpt lat="43.53016510863104" lon="13.514682072294743"><ele>31.0</ele><time>2026-04-26T14:59:35.999Z</time></trkpt><trkpt lat="43.53008413087535" lon="13.514784013336133"><ele>31.0</ele><time>2026-04-26T14:59:37.999Z</time></trkpt><trkpt lat="43.52994850705399" lon="13.514941438005858"><ele>31.0</ele><time>2026-04-26T14:59:56.999Z</time></trkpt><trkpt lat="43.52985867833978" lon="13.515060127443851"><ele>31.0</ele><time>2026-04-26T14:59:57.999Z</time></trkpt><trkpt lat="43.5297787882693" lon="13.515164546077525"><ele>31.0</ele><time>2026-04-26T14:59:58.999Z</time></trkpt><trkpt lat="43.529693940140994" lon="13.515242268519437"><ele>31.0</ele><time>2026-04-26T14:59:59.999Z</time></trkpt><trkpt lat="43.52959417187405" lon="13.51540524637591"><ele>30.5</ele><time>2026-04-26T15:00:00.999Z</time></trkpt><trkpt lat="43.529517794168854" lon="13.515512705874219"><ele>30.0</ele><time>2026-04-26T15:00:01.999Z</time></trkpt><trkpt lat="43.529438170381866" lon="13.515615375060518"><ele>29.5</ele><time>2026-04-26T15:00:02.999Z</time></trkpt><trkpt lat="43.52934443620676" lon="13.515708578110921"><ele>29.0</ele><time>2026-04-26T15:00:03.999Z</time></trkpt><trkpt lat="43.52923637968898" lon="13.515779136307522"><ele>29.0</ele><time>2026-04-26T15:00:04.999Z</time></trkpt><trkpt lat="43.52911830872087" lon="13.515854916972694"><ele>29.0</ele><time>2026-04-26T15:00:05.999Z</time></trkpt><trkpt lat="43.52897112191571" lon="13.515835309030415"><ele>29.0</ele><time>2026-04-26T15:00:06.999Z</time></trkpt><trkpt lat="43.52884077990235" lon="13.515813508286215"><ele>29.0</ele><time>2026-04-26T15:00:07.999Z</time></trkpt><trkpt lat="43.5287027225372" lon="13.515762729914263"><ele>29.666666666666664</ele><time>2026-04-26T15:00:08.999Z</time></trkpt><trkpt lat="43.5285536241908" lon="13.515672466826045"><ele>30.333333333333336</ele><time>2026-04-26T15:00:09.999Z</time></trkpt><trkpt lat="43.52842021993462" lon="13.515542696862658"><ele>31.0</ele><time>2026-04-26T15:00:10.999Z</time></trkpt><trkpt lat="43.52830286584004" lon="13.515385818919812"><ele>31.333333333333336</ele><time>2026-04-26T15:00:11.999Z</time></trkpt><trkpt lat="43.52819518763389" lon="13.515206271529932"><ele>31.666666666666664</ele><time>2026-04-26T15:00:12.999Z</time></trkpt><trkpt lat="43.52810547700984" lon="13.515000615956657"><ele>32.0</ele><time>2026-04-26T15:00:13.999Z</time></trkpt><trkpt lat="43.52803566022945" lon="13.514768337574433"><ele>31.333333333333332</ele><time>2026-04-26T15:00:14.999Z</time></trkpt><trkpt lat="43.52799035117639" lon="13.51451428517276"><ele>30.666666666666664</ele><time>2026-04-26T15:00:15.999Z</time></trkpt><trkpt lat="43.527969875884615" lon="13.51423131665276"><ele>30.0</ele><time>2026-04-26T15:00:16.999Z</time></trkpt><trkpt lat="43.52800444161151" lon="13.513920725926456"><ele>30.0</ele><time>2026-04-26T15:00:17.999Z</time></trkpt><trkpt lat="43.52805333361904" lon="13.513638388420288"><ele>30.0</ele><time>2026-04-26T15:00:18.999Z</time></trkpt><trkpt lat="43.528124144675274" lon="13.513356919234491"><ele>30.0</ele><time>2026-04-26T15:00:19.999Z</time></trkpt><trkpt lat="43.52819766946515" lon="13.51306277609536"><ele>30.0</ele><time>2026-04-26T15:00:20.999Z</time></trkpt><trkpt lat="43.52826533613005" lon="13.51275391269032"><ele>30.0</ele><time>2026-04-26T15:00:21.999Z</time></trkpt><trkpt lat="43.528331883928566" lon="13.512440752082309"><ele>30.0</ele><time>2026-04-26T15:00:22.999Z</time></trkpt><trkpt lat="43.52839984466219" lon="13.512120814146083"><ele>30.0</ele><time>2026-04-26T15:00:23.999Z</time></trkpt><trkpt lat="43.528470538903555" lon="13.511785215586809"><ele>29.5</ele><time>2026-04-26T15:00:24.999Z</time></trkpt><trkpt lat="43.52853706255626" lon="13.51145196338939"><ele>29.0</ele><time>2026-04-26T15:00:25.999Z</time></trkpt><trkpt lat="43.52861216225214" lon="13.51110074106146"><ele>28.5</ele><time>2026-04-26T15:00:26.999Z</time></trkpt><trkpt lat="43.52869021747841" lon="13.510748274683365"><ele>28.0</ele><time>2026-04-26T15:00:27.999Z</time></trkpt><trkpt lat="43.52877626799594" lon="13.510394658280651"><ele>29.0</ele><time>2026-04-26T15:00:28.999Z</time></trkpt><trkpt lat="43.52886618041908" lon="13.510039748220827"><ele>30.0</ele><time>2026-04-26T15:00:29.999Z</time></trkpt><trkpt lat="43.52896290333001" lon="13.509681873567121"><ele>30.0</ele><time>2026-04-26T15:00:30.999Z</time></trkpt><trkpt lat="43.52906596891711" lon="13.509322649199401"><ele>30.0</ele><time>2026-04-26T15:00:31.999Z</time></trkpt><trkpt lat="43.529174780899865" lon="13.50896445479147"><ele>30.0</ele><time>2026-04-26T15:00:32.999Z</time></trkpt><trkpt lat="43.52928890898626" lon="13.508605850465843"><ele>30.0</ele><time>2026-04-26T15:00:33.999Z</time></trkpt><trkpt lat="43.52940829174408" lon="13.508245787164226"><ele>30.0</ele><time>2026-04-26T15:00:34.999Z</time></trkpt><trkpt lat="43.52952890780977" lon="13.507887361068631"><ele>30.0</ele><time>2026-04-26T15:00:35.999Z</time></trkpt><trkpt lat="43.52965578612044" lon="13.50752932468935"><ele>30.0</ele><time>2026-04-26T15:00:36.999Z</time></trkpt><trkpt lat="43.529789474817576" lon="13.507166271445618"><ele>30.0</ele><time>2026-04-26T15:00:37.999Z</time></trkpt><trkpt lat="43.52992623136554" lon="13.506807305191654"><ele>31.5</ele><time>2026-04-26T15:00:38.999Z</time></trkpt><trkpt lat="43.530068485944575" lon="13.506447135306598"><ele>33.0</ele><time>2026-04-26T15:00:39.999Z</time></trkpt><trkpt lat="43.53021468942579" lon="13.50609124002177"><ele>33.0</ele><time>2026-04-26T15:00:40.999Z</time></trkpt><trkpt lat="43.5303580793285" lon="13.505734530753212"><ele>33.0</ele><time>2026-04-26T15:00:41.999Z</time></trkpt><trkpt lat="43.53049423297963" lon="13.50537662359537"><ele>33.0</ele><time>2026-04-26T15:00:42.999Z</time></trkpt><trkpt lat="43.53062805074317" lon="13.505020773502986"><ele>33.0</ele><time>2026-04-26T15:00:43.999Z</time></trkpt><trkpt lat="43.530763490991646" lon="13.504667705746266"><ele>33.5</ele><time>2026-04-26T15:00:44.999Z</time></trkpt><trkpt lat="43.530900485616016" lon="13.504315196411428"><ele>34.0</ele><time>2026-04-26T15:00:45.999Z</time></trkpt><trkpt lat="43.53103531882261" lon="13.503964981178685"><ele>34.5</ele><time>2026-04-26T15:00:46.999Z</time></trkpt><trkpt lat="43.531168522928695" lon="13.503613993212078"><ele>35.0</ele><time>2026-04-26T15:00:47.999Z</time></trkpt><trkpt lat="43.53129827129557" lon="13.503265713823994"><ele>35.0</ele><time>2026-04-26T15:00:48.999Z</time></trkpt><trkpt lat="43.531428781819514" lon="13.502918230361002"><ele>35.0</ele><time>2026-04-26T15:00:49.999Z</time></trkpt><trkpt lat="43.53156266499037" lon="13.50257230495218"><ele>35.5</ele><time>2026-04-26T15:00:50.999Z</time></trkpt><trkpt lat="43.531696720226904" lon="13.502226964364786"><ele>36.0</ele><time>2026-04-26T15:00:51.999Z</time></trkpt><trkpt lat="43.53182924610696" lon="13.501883753636559"><ele>36.0</ele><time>2026-04-26T15:00:52.999Z</time></trkpt><trkpt lat="43.53196105707744" lon="13.50153783399857"><ele>36.0</ele><time>2026-04-26T15:00:53.999Z</time></trkpt><trkpt lat="43.53209283251349" lon="13.501194205623452"><ele>35.5</ele><time>2026-04-26T15:00:54.999Z</time></trkpt><trkpt lat="43.53222432916532" lon="13.500847569473189"><ele>35.0</ele><time>2026-04-26T15:00:55.999Z</time></trkpt><trkpt lat="43.53235590656082" lon="13.5005023080756"><ele>35.5</ele><time>2026-04-26T15:00:56.999Z</time></trkpt><trkpt lat="43.53248847881171" lon="13.500154403329985"><ele>36.0</ele><time>2026-04-26T15:00:57.999Z</time></trkpt><trkpt lat="43.53262178649173" lon="13.49980524384866"><ele>36.5</ele><time>2026-04-26T15:00:58.999Z</time></trkpt><trkpt lat="43.53275509342611" lon="13.499455423095467"><ele>37.0</ele><time>2026-04-26T15:00:59.999Z</time></trkpt><trkpt lat="43.53288879143052" lon="13.49910166196339"><ele>37.5</ele><time>2026-04-26T15:01:00.999Z</time></trkpt><trkpt lat="43.5330215109737" lon="13.498747890942992"><ele>38.0</ele><time>2026-04-26T15:01:01.999Z</time></trkpt><trkpt lat="43.533155519784245" lon="13.498391742526973"><ele>38.0</ele><time>2026-04-26T15:01:02.999Z</time></trkpt><trkpt lat="43.533289525738724" lon="13.498037548057278"><ele>38.0</ele><time>2026-04-26T15:01:03.999Z</time></trkpt><trkpt lat="43.533423717547585" lon="13.497682279137686"><ele>39.0</ele><time>2026-04-26T15:01:04.999Z</time></trkpt><trkpt lat="43.533559774579025" lon="13.497330203894325"><ele>40.0</ele><time>2026-04-26T15:01:05.999Z</time></trkpt><trkpt lat="43.53369976626241" lon="13.4969837021031"><ele>39.5</ele><time>2026-04-26T15:01:06.999Z</time></trkpt><trkpt lat="43.53384587829772" lon="13.496638224456936"><ele>39.0</ele><time>2026-04-26T15:01:07.999Z</time></trkpt><trkpt lat="43.53399648653831" lon="13.496299101685086"><ele>39.0</ele><time>2026-04-26T15:01:08.999Z</time></trkpt><trkpt lat="43.534151265543755" lon="13.495963068333696"><ele>39.0</ele><time>2026-04-26T15:01:09.999Z</time></trkpt><trkpt lat="43.53431430195509" lon="13.495630658155545"><ele>39.5</ele><time>2026-04-26T15:01:10.999Z</time></trkpt><trkpt lat="43.53448506037986" lon="13.4953078521379"><ele>40.0</ele><time>2026-04-26T15:01:11.999Z</time></trkpt><trkpt lat="43.534664033682056" lon="13.494989361988894"><ele>40.0</ele><time>2026-04-26T15:01:12.998Z</time></trkpt><trkpt lat="43.53484886605916" lon="13.494674955708957"><ele>40.0</ele><time>2026-04-26T15:01:13.998Z</time></trkpt><trkpt lat="43.53504078604581" lon="13.494370593487686"><ele>40.5</ele><time>2026-04-26T15:01:14.998Z</time></trkpt><trkpt lat="43.53523788445052" lon="13.49406926372274"><ele>41.0</ele><time>2026-04-26T15:01:15.998Z</time></trkpt><trkpt lat="43.535439814451216" lon="13.493773927647922"><ele>42.0</ele><time>2026-04-26T15:01:16.998Z</time></trkpt><trkpt lat="43.535647196285765" lon="13.49348396104763"><ele>43.0</ele><time>2026-04-26T15:01:17.998Z</time></trkpt><trkpt lat="43.53586111739212" lon="13.49320410542084"><ele>43.0</ele><time>2026-04-26T15:01:18.998Z</time></trkpt><trkpt lat="43.53608212201245" lon="13.492932730120073"><ele>43.0</ele><time>2026-04-26T15:01:19.998Z</time></trkpt><trkpt lat="43.5363058886141" lon="13.492669527320533"><ele>43.5</ele><time>2026-04-26T15:01:20.998Z</time></trkpt><trkpt lat="43.53653499422962" lon="13.49240926675416"><ele>44.0</ele><time>2026-04-26T15:01:21.998Z</time></trkpt><trkpt lat="43.536768815633955" lon="13.492161944712368"><ele>43.5</ele><time>2026-04-26T15:01:22.998Z</time></trkpt><trkpt lat="43.53700927663427" lon="13.49192109453359"><ele>43.0</ele><time>2026-04-26T15:01:23.999Z</time></trkpt><trkpt lat="43.53725460625469" lon="13.491690730326871"><ele>43.0</ele><time>2026-04-26T15:01:24.999Z</time></trkpt><trkpt lat="43.53750285918997" lon="13.491468460379298"><ele>43.0</ele><time>2026-04-26T15:01:25.999Z</time></trkpt><trkpt lat="43.53775757761809" lon="13.491255602501703"><ele>44.0</ele><time>2026-04-26T15:01:26.999Z</time></trkpt><trkpt lat="43.53801537783035" lon="13.491046885565206"><ele>45.0</ele><time>2026-04-26T15:01:27.999Z</time></trkpt><trkpt lat="43.53827783402231" lon="13.490848598256658"><ele>45.0</ele><time>2026-04-26T15:01:28.999Z</time></trkpt><trkpt lat="43.53854154313288" lon="13.490653431975883"><ele>45.0</ele><time>2026-04-26T15:01:29.999Z</time></trkpt><trkpt lat="43.53880447900101" lon="13.490459647730667"><ele>45.5</ele><time>2026-04-26T15:01:30.999Z</time></trkpt><trkpt lat="43.539066607611126" lon="13.490269501978739"><ele>46.0</ele><time>2026-04-26T15:01:31.999Z</time></trkpt><trkpt lat="43.53933061900422" lon="13.490075111442787"><ele>46.0</ele><time>2026-04-26T15:01:32.999Z</time></trkpt><trkpt lat="43.53959448441544" lon="13.489885506405734"><ele>46.0</ele><time>2026-04-26T15:01:33.999Z</time></trkpt><trkpt lat="43.53986040288911" lon="13.489694141249927"><ele>45.5</ele><time>2026-04-26T15:01:34.999Z</time></trkpt><trkpt lat="43.540123800336474" lon="13.489501876256032"><ele>45.0</ele><time>2026-04-26T15:01:35.999Z</time></trkpt><trkpt lat="43.54038753071587" lon="13.489310570736485"><ele>46.0</ele><time>2026-04-26T15:01:36.999Z</time></trkpt><trkpt lat="43.540652846523365" lon="13.489118004846608"><ele>47.0</ele><time>2026-04-26T15:01:37.999Z</time></trkpt><trkpt lat="43.5409167381429" lon="13.488926761286779"><ele>47.0</ele><time>2026-04-26T15:01:38.999Z</time></trkpt><trkpt lat="43.54118033136171" lon="13.488735690514968"><ele>47.0</ele><time>2026-04-26T15:01:39.999Z</time></trkpt><trkpt lat="43.54144359465337" lon="13.488548242491978"><ele>48.0</ele><time>2026-04-26T15:01:40.999Z</time></trkpt><trkpt lat="43.54170550339429" lon="13.488359946080259"><ele>49.0</ele><time>2026-04-26T15:01:41.999Z</time></trkpt><trkpt lat="43.54196755739949" lon="13.48817139359774"><ele>50.0</ele><time>2026-04-26T15:01:42.999Z</time></trkpt><trkpt lat="43.54222662652781" lon="13.487987333096433"><ele>51.0</ele><time>2026-04-26T15:01:43.999Z</time></trkpt><trkpt lat="43.542486909832895" lon="13.48779635861182"><ele>51.0</ele><time>2026-04-26T15:01:44.999Z</time></trkpt><trkpt lat="43.54274519166225" lon="13.487604832790554"><ele>51.0</ele><time>2026-04-26T15:01:45.999Z</time></trkpt><trkpt lat="43.543004338465174" lon="13.48741264532501"><ele>51.5</ele><time>2026-04-26T15:01:46.999Z</time></trkpt><trkpt lat="43.5432653705003" lon="13.48722318620705"><ele>52.0</ele><time>2026-04-26T15:01:47.999Z</time></trkpt><trkpt lat="43.54352589682951" lon="13.487036603981682"><ele>52.5</ele><time>2026-04-26T15:01:48.999Z</time></trkpt><trkpt lat="43.54378861382086" lon="13.486849636002532"><ele>53.0</ele><time>2026-04-26T15:01:49.999Z</time></trkpt><trkpt lat="43.54405035254876" lon="13.486659996275254"><ele>53.0</ele><time>2026-04-26T15:01:50.999Z</time></trkpt><trkpt lat="43.544312001162325" lon="13.486466239324672"><ele>53.0</ele><time>2026-04-26T15:01:51.999Z</time></trkpt><trkpt lat="43.54457245343247" lon="13.48627642307087"><ele>54.0</ele><time>2026-04-26T15:01:52.999Z</time></trkpt><trkpt lat="43.54483574046016" lon="13.486084215887104"><ele>55.0</ele><time>2026-04-26T15:01:53.999Z</time></trkpt><trkpt lat="43.54509981598491" lon="13.485899626499762"><ele>55.0</ele><time>2026-04-26T15:01:54.999Z</time></trkpt><trkpt lat="43.54536522122081" lon="13.485710897761056"><ele>55.0</ele><time>2026-04-26T15:01:55.999Z</time></trkpt><trkpt lat="43.54562841670589" lon="13.485516314239467"><ele>52.5</ele><time>2026-04-26T15:01:56.999Z</time></trkpt><trkpt lat="43.545891862488645" lon="13.485323872212776"><ele>50.0</ele><time>2026-04-26T15:01:57.999Z</time></trkpt><trkpt lat="43.54615622788981" lon="13.4851326349262"><ele>52.0</ele><time>2026-04-26T15:01:58.999Z</time></trkpt><trkpt lat="43.54642144589077" lon="13.484943593754858"><ele>54.0</ele><time>2026-04-26T15:01:59.999Z</time></trkpt><trkpt lat="43.54668642592871" lon="13.484753803465964"><ele>52.0</ele><time>2026-04-26T15:02:00.999Z</time></trkpt><trkpt lat="43.546949955991586" lon="13.484560754775233"><ele>50.0</ele><time>2026-04-26T15:02:01.999Z</time></trkpt><trkpt lat="43.54721270335833" lon="13.484359631508141"><ele>50.0</ele><time>2026-04-26T15:02:02.999Z</time></trkpt><trkpt lat="43.547474446682855" lon="13.484156855917337"><ele>50.0</ele><time>2026-04-26T15:02:03.999Z</time></trkpt><trkpt lat="43.5477373195366" lon="13.483953289621269"><ele>50.5</ele><time>2026-04-26T15:02:04.999Z</time></trkpt><trkpt lat="43.54800147700648" lon="13.483755283947563"><ele>51.0</ele><time>2026-04-26T15:02:05.999Z</time></trkpt><trkpt lat="43.548267344015954" lon="13.483560487180064"><ele>51.0</ele><time>2026-04-26T15:02:06.999Z</time></trkpt><trkpt lat="43.54853335421445" lon="13.483367757241743"><ele>51.0</ele><time>2026-04-26T15:02:07.999Z</time></trkpt><trkpt lat="43.54879677468202" lon="13.483176695075064"><ele>51.0</ele><time>2026-04-26T15:02:08.999Z</time></trkpt><trkpt lat="43.549061780972025" lon="13.48298422519652"><ele>51.0</ele><time>2026-04-26T15:02:09.999Z</time></trkpt><trkpt lat="43.54932464324544" lon="13.482792490373539"><ele>53.5</ele><time>2026-04-26T15:02:10.999Z</time></trkpt><trkpt lat="43.54958749101481" lon="13.482601714884519"><ele>56.0</ele><time>2026-04-26T15:02:11.999Z</time></trkpt><trkpt lat="43.54984988386472" lon="13.48241492000653"><ele>56.0</ele><time>2026-04-26T15:02:12.999Z</time></trkpt><trkpt lat="43.5501121522098" lon="13.482226632617715"><ele>56.0</ele><time>2026-04-26T15:02:13.999Z</time></trkpt><trkpt lat="43.550373650063996" lon="13.48203614190061"><ele>56.0</ele><time>2026-04-26T15:02:14.999Z</time></trkpt><trkpt lat="43.55063382381254" lon="13.481845616201632"><ele>56.0</ele><time>2026-04-26T15:02:15.999Z</time></trkpt><trkpt lat="43.55089479017481" lon="13.481656018928568"><ele>56.0</ele><time>2026-04-26T15:02:16.999Z</time></trkpt><trkpt lat="43.55115629486898" lon="13.481466367482929"><ele>56.0</ele><time>2026-04-26T15:02:17.999Z</time></trkpt><trkpt lat="43.551416543388584" lon="13.48127637251786"><ele>56.0</ele><time>2026-04-26T15:02:18.999Z</time></trkpt><trkpt lat="43.55167664529618" lon="13.481088583970335"><ele>56.0</ele><time>2026-04-26T15:02:19.999Z</time></trkpt><trkpt lat="43.551936574818605" lon="13.480902856613241"><ele>60.0</ele><time>2026-04-26T15:02:20.999Z</time></trkpt><trkpt lat="43.55219800458508" lon="13.480718631137476"><ele>64.0</ele><time>2026-04-26T15:02:21.999Z</time></trkpt><trkpt lat="43.552455798867264" lon="13.480529795344491"><ele>61.0</ele><time>2026-04-26T15:02:22.999Z</time></trkpt><trkpt lat="43.552711245675546" lon="13.480332061895512"><ele>58.0</ele><time>2026-04-26T15:02:23.999Z</time></trkpt><trkpt lat="43.55296545568697" lon="13.480126537095803"><ele>58.0</ele><time>2026-04-26T15:02:24.999Z</time></trkpt><trkpt lat="43.553217351869506" lon="13.479917172814629"><ele>58.0</ele><time>2026-04-26T15:02:25.999Z</time></trkpt><trkpt lat="43.55346635775872" lon="13.47970045568407"><ele>57.5</ele><time>2026-04-26T15:02:26.999Z</time></trkpt><trkpt lat="43.553711138495" lon="13.479471105714984"><ele>57.0</ele><time>2026-04-26T15:02:27.999Z</time></trkpt><trkpt lat="43.55395173203618" lon="13.479232221805368"><ele>57.0</ele><time>2026-04-26T15:02:28.999Z</time></trkpt><trkpt lat="43.55418812694499" lon="13.478986756089391"><ele>57.0</ele><time>2026-04-26T15:02:29.999Z</time></trkpt><trkpt lat="43.55442161971619" lon="13.478729451421971"><ele>59.0</ele><time>2026-04-26T15:02:30.999Z</time></trkpt><trkpt lat="43.55464847092126" lon="13.478464783657154"><ele>61.0</ele><time>2026-04-26T15:02:31.999Z</time></trkpt><trkpt lat="43.55487005281613" lon="13.478193112576967"><ele>60.0</ele><time>2026-04-26T15:02:32.999Z</time></trkpt><trkpt lat="43.555086397120135" lon="13.47791202284084"><ele>59.0</ele><time>2026-04-26T15:02:33.999Z</time></trkpt><trkpt lat="43.55529731712602" lon="13.477622838461485"><ele>61.0</ele><time>2026-04-26T15:02:34.999Z</time></trkpt><trkpt lat="43.55550360146456" lon="13.47732495120877"><ele>63.0</ele><time>2026-04-26T15:02:35.999Z</time></trkpt><trkpt lat="43.55570824924624" lon="13.477021510342013"><ele>63.0</ele><time>2026-04-26T15:02:36.999Z</time></trkpt><trkpt lat="43.555906755478865" lon="13.476711005245443"><ele>63.0</ele><time>2026-04-26T15:02:37.999Z</time></trkpt><trkpt lat="43.556101077659136" lon="13.476394400523091"><ele>66.5</ele><time>2026-04-26T15:02:38.999Z</time></trkpt><trkpt lat="43.55628843850296" lon="13.476069990823227"><ele>70.0</ele><time>2026-04-26T15:02:39.999Z</time></trkpt><trkpt lat="43.556468453851195" lon="13.475736593124571"><ele>67.5</ele><time>2026-04-26T15:02:40.999Z</time></trkpt><trkpt lat="43.556644412515695" lon="13.475398323398903"><ele>65.0</ele><time>2026-04-26T15:02:41.999Z</time></trkpt><trkpt lat="43.556822843576896" lon="13.475059980833866"><ele>65.0</ele><time>2026-04-26T15:02:42.999Z</time></trkpt><trkpt lat="43.55700122411673" lon="13.474719461234347"><ele>65.0</ele><time>2026-04-26T15:02:43.999Z</time></trkpt><trkpt lat="43.55717830036151" lon="13.474379277376126"><ele>65.5</ele><time>2026-04-26T15:02:44.999Z</time></trkpt><trkpt lat="43.55735520067118" lon="13.474039724649716"><ele>66.0</ele><time>2026-04-26T15:02:45.999Z</time></trkpt><trkpt lat="43.55753357699898" lon="13.473702032638036"><ele>64.0</ele><time>2026-04-26T15:02:46.999Z</time></trkpt><trkpt lat="43.557709537838114" lon="13.47336381373508"><ele>62.0</ele><time>2026-04-26T15:02:47.999Z</time></trkpt><trkpt lat="43.557885728128575" lon="13.473026107989046"><ele>62.0</ele><time>2026-04-26T15:02:48.999Z</time></trkpt><trkpt lat="43.558063724778734" lon="13.47269023669734"><ele>62.0</ele><time>2026-04-26T15:02:49.999Z</time></trkpt><trkpt lat="43.55824043578383" lon="13.472354500110285"><ele>62.5</ele><time>2026-04-26T15:02:50.999Z</time></trkpt><trkpt lat="43.55841663953029" lon="13.472014975579176"><ele>63.0</ele><time>2026-04-26T15:02:51.999Z</time></trkpt><trkpt lat="43.55859274770442" lon="13.471679491925718"><ele>64.0</ele><time>2026-04-26T15:02:52.999Z</time></trkpt><trkpt lat="43.55876739939864" lon="13.471343609295294"><ele>65.0</ele><time>2026-04-26T15:02:53.999Z</time></trkpt><trkpt lat="43.55894368497347" lon="13.47100695862469"><ele>65.0</ele><time>2026-04-26T15:02:54.999Z</time></trkpt><trkpt lat="43.559119427488696" lon="13.47067335387315"><ele>65.0</ele><time>2026-04-26T15:02:55.999Z</time></trkpt><trkpt lat="43.55929395733026" lon="13.470339013380364"><ele>64.5</ele><time>2026-04-26T15:02:56.999Z</time></trkpt><trkpt lat="43.559466450076265" lon="13.470004347671432"><ele>64.0</ele><time>2026-04-26T15:02:57.999Z</time></trkpt><trkpt lat="43.559638473571006" lon="13.469672215845621"><ele>65.5</ele><time>2026-04-26T15:02:58.999Z</time></trkpt><trkpt lat="43.55981104787746" lon="13.469341979095775"><ele>67.0</ele><time>2026-04-26T15:02:59.999Z</time></trkpt><trkpt lat="43.55998372972429" lon="13.469009233206082"><ele>67.0</ele><time>2026-04-26T15:03:00.999Z</time></trkpt><trkpt lat="43.56015557487737" lon="13.468684061040936"><ele>67.0</ele><time>2026-04-26T15:03:01.999Z</time></trkpt><trkpt lat="43.5603259468178" lon="13.468365249413873"><ele>69.0</ele><time>2026-04-26T15:03:02.999Z</time></trkpt><trkpt lat="43.560491832324374" lon="13.468045813278815"><ele>71.0</ele><time>2026-04-26T15:03:03.999Z</time></trkpt><trkpt lat="43.56066128365266" lon="13.467724666525205"><ele>71.0</ele><time>2026-04-26T15:03:04.999Z</time></trkpt><trkpt lat="43.56082504540989" lon="13.467403580635127"><ele>71.0</ele><time>2026-04-26T15:03:05.999Z</time></trkpt><trkpt lat="43.560992386736" lon="13.467076868520136"><ele>70.5</ele><time>2026-04-26T15:03:06.999Z</time></trkpt><trkpt lat="43.5611579141388" lon="13.46675574487515"><ele>70.0</ele><time>2026-04-26T15:03:07.999Z</time></trkpt><trkpt lat="43.561330592224174" lon="13.466434086299502"><ele>72.0</ele><time>2026-04-26T15:03:08.999Z</time></trkpt><trkpt lat="43.56149984799691" lon="13.466121716389758"><ele>74.0</ele><time>2026-04-26T15:03:09.999Z</time></trkpt><trkpt lat="43.56167823769806" lon="13.465818673788165"><ele>74.0</ele><time>2026-04-26T15:03:10.999Z</time></trkpt><trkpt lat="43.56186343068195" lon="13.465517542936952"><ele>74.0</ele><time>2026-04-26T15:03:11.999Z</time></trkpt><trkpt lat="43.56205412952704" lon="13.465226373162846"><ele>77.0</ele><time>2026-04-26T15:03:12.999Z</time></trkpt><trkpt lat="43.56225587943271" lon="13.464950443495336"><ele>80.0</ele><time>2026-04-26T15:03:13.999Z</time></trkpt><trkpt lat="43.56247195579421" lon="13.464691798565585"><ele>80.0</ele><time>2026-04-26T15:03:14.999Z</time></trkpt><trkpt lat="43.56269721631518" lon="13.464449649895915"><ele>80.0</ele><time>2026-04-26T15:03:15.999Z</time></trkpt><trkpt lat="43.56293145866866" lon="13.464221421839776"><ele>80.0</ele><time>2026-04-26T15:03:16.999Z</time></trkpt><trkpt lat="43.56317109798064" lon="13.46401155726047"><ele>80.0</ele><time>2026-04-26T15:03:17.999Z</time></trkpt><trkpt lat="43.56341817297752" lon="13.463820563488134"><ele>79.5</ele><time>2026-04-26T15:03:18.999Z</time></trkpt><trkpt lat="43.5636729690221" lon="13.463650066729976"><ele>79.0</ele><time>2026-04-26T15:03:19.999Z</time></trkpt><trkpt lat="43.563932121184905" lon="13.463500960961886"><ele>79.0</ele><time>2026-04-26T15:03:20.999Z</time></trkpt><trkpt lat="43.56419551270804" lon="13.463365301737332"><ele>79.0</ele><time>2026-04-26T15:03:21.999Z</time></trkpt><trkpt lat="43.564468065229164" lon="13.463244039776487"><ele>82.0</ele><time>2026-04-26T15:03:22.999Z</time></trkpt><trkpt lat="43.56474355977735" lon="13.463146061631758"><ele>85.0</ele><time>2026-04-26T15:03:23.999Z</time></trkpt><trkpt lat="43.56502203407131" lon="13.463070706787425"><ele>85.0</ele><time>2026-04-26T15:03:24.998Z</time></trkpt><trkpt lat="43.56530269383605" lon="13.463017084650826"><ele>85.0</ele><time>2026-04-26T15:03:25.998Z</time></trkpt><trkpt lat="43.56558327302061" lon="13.462985272129218"><ele>86.0</ele><time>2026-04-26T15:03:26.998Z</time></trkpt><trkpt lat="43.56586456404411" lon="13.462972497578898"><ele>87.0</ele><time>2026-04-26T15:03:27.998Z</time></trkpt><trkpt lat="43.56614703151444" lon="13.462984295255243"><ele>87.0</ele><time>2026-04-26T15:03:28.998Z</time></trkpt><trkpt lat="43.56642780723076" lon="13.463015390581127"><ele>87.0</ele><time>2026-04-26T15:03:30Z</time></trkpt><trkpt lat="43.566708210278534" lon="13.463061027205004"><ele>87.0</ele><time>2026-04-26T15:03:31Z</time></trkpt><trkpt lat="43.56698574535234" lon="13.463120534019936"><ele>87.0</ele><time>2026-04-26T15:03:32Z</time></trkpt><trkpt lat="43.56726307612598" lon="13.463189237018481"><ele>85.0</ele><time>2026-04-26T15:03:33Z</time></trkpt><trkpt lat="43.5675400730064" lon="13.46325874298996"><ele>83.0</ele><time>2026-04-26T15:03:34Z</time></trkpt><trkpt lat="43.56781622525648" lon="13.463332649807334"><ele>82.0</ele><time>2026-04-26T15:03:35Z</time></trkpt><trkpt lat="43.56809135521144" lon="13.463404137278607"><ele>81.0</ele><time>2026-04-26T15:03:36Z</time></trkpt><trkpt lat="43.56836685024385" lon="13.463475466381961"><ele>81.0</ele><time>2026-04-26T15:03:37Z</time></trkpt><trkpt lat="43.56864193552465" lon="13.46354539443669"><ele>81.0</ele><time>2026-04-26T15:03:38Z</time></trkpt><trkpt lat="43.5689181717843" lon="13.463617818179682"><ele>82.0</ele><time>2026-04-26T15:03:39Z</time></trkpt><trkpt lat="43.569194600643335" lon="13.463692496677675"><ele>83.0</ele><time>2026-04-26T15:03:40Z</time></trkpt><trkpt lat="43.56947115933679" lon="13.463767982413895"><ele>84.0</ele><time>2026-04-26T15:03:41Z</time></trkpt><trkpt lat="43.569748592637595" lon="13.46384277453378"><ele>85.0</ele><time>2026-04-26T15:03:42Z</time></trkpt><trkpt lat="43.57002612573221" lon="13.463916711630983"><ele>85.0</ele><time>2026-04-26T15:03:43Z</time></trkpt><trkpt lat="43.57030588368171" lon="13.463989844791705"><ele>85.0</ele><time>2026-04-26T15:03:44Z</time></trkpt><trkpt lat="43.57058525700488" lon="13.464063534681028"><ele>85.5</ele><time>2026-04-26T15:03:45Z</time></trkpt><trkpt lat="43.570868682218446" lon="13.464132136308864"><ele>86.0</ele><time>2026-04-26T15:03:46Z</time></trkpt><trkpt lat="43.57115608081846" lon="13.464186693669625"><ele>87.5</ele><time>2026-04-26T15:03:47Z</time></trkpt><trkpt lat="43.57144616136158" lon="13.464223202497811"><ele>89.0</ele><time>2026-04-26T15:03:48Z</time></trkpt><trkpt lat="43.57174063263417" lon="13.464240366503264"><ele>89.5</ele><time>2026-04-26T15:03:49Z</time></trkpt><trkpt lat="43.57203520586159" lon="13.464238264179096"><ele>90.0</ele><time>2026-04-26T15:03:50Z</time></trkpt><trkpt lat="43.57232927295021" lon="13.464219676270503"><ele>90.0</ele><time>2026-04-26T15:03:51Z</time></trkpt><trkpt lat="43.57262261140794" lon="13.464174763483214"><ele>90.0</ele><time>2026-04-26T15:03:52Z</time></trkpt><trkpt lat="43.57291366371742" lon="13.464108159558156"><ele>91.5</ele><time>2026-04-26T15:03:53Z</time></trkpt><trkpt lat="43.57320360283017" lon="13.464021113853244"><ele>93.0</ele><time>2026-04-26T15:03:54Z</time></trkpt><trkpt lat="43.573486916273524" lon="13.463909091029"><ele>96.0</ele><time>2026-04-26T15:03:55Z</time></trkpt><trkpt lat="43.57376580117473" lon="13.463776766846035"><ele>99.0</ele><time>2026-04-26T15:03:56Z</time></trkpt><trkpt lat="43.57403973509537" lon="13.46362512617665"><ele>99.0</ele><time>2026-04-26T15:03:57Z</time></trkpt><trkpt lat="43.574304688651374" lon="13.463451569213712"><ele>99.0</ele><time>2026-04-26T15:03:58Z</time></trkpt><trkpt lat="43.574565586736185" lon="13.463263460446726"><ele>104.0</ele><time>2026-04-26T15:03:59Z</time></trkpt><trkpt lat="43.57481405287249" lon="13.463050222169176"><ele>109.0</ele><time>2026-04-26T15:04:00Z</time></trkpt><trkpt lat="43.57505694953633" lon="13.462815391967952"><ele>112.5</ele><time>2026-04-26T15:04:01Z</time></trkpt><trkpt lat="43.575294505849726" lon="13.462564613289132"><ele>116.0</ele><time>2026-04-26T15:04:02Z</time></trkpt><trkpt lat="43.57552123619772" lon="13.462290427204291"><ele>123.5</ele><time>2026-04-26T15:04:03Z</time></trkpt><trkpt lat="43.575739438945405" lon="13.461999563874844"><ele>131.0</ele><time>2026-04-26T15:04:04Z</time></trkpt><trkpt lat="43.57594582870694" lon="13.461687350440272"><ele>131.0</ele><time>2026-04-26T15:04:05Z</time></trkpt><trkpt lat="43.576139710981096" lon="13.461355645033523"><ele>131.0</ele><time>2026-04-26T15:04:06Z</time></trkpt><trkpt lat="43.576335150661905" lon="13.460989083996745"><ele>137.5</ele><time>2026-04-26T15:04:07.061Z</time></trkpt><trkpt lat="43.57651166505314" lon="13.460631479397327"><ele>144.0</ele><time>2026-04-26T15:04:08.064Z</time></trkpt><trkpt lat="43.576686064646616" lon="13.460268364238896"><ele>149.0</ele><time>2026-04-26T15:04:09.061Z</time></trkpt><trkpt lat="43.5768583385995" lon="13.45990578389241"><ele>154.0</ele><time>2026-04-26T15:04:10.054Z</time></trkpt><trkpt lat="43.57702816331816" lon="13.459546752762371"><ele>96.0</ele><time>2026-04-26T15:04:11.036Z</time></trkpt><trkpt lat="43.578091805691265" lon="13.454460455972232"><ele>96.0</ele><time>2026-04-26T15:04:25.073Z</time></trkpt><trkpt lat="43.57816641755048" lon="13.454191428056962"><ele>96.0</ele><time>2026-04-26T15:04:26.241Z</time></trkpt><trkpt lat="43.579005742586936" lon="13.452367091519346"><ele>89.5</ele><time>2026-04-26T15:04:28.999Z</time></trkpt><trkpt lat="43.57896474424748" lon="13.451849040105067"><ele>83.0</ele><time>2026-04-26T15:04:29.999Z</time></trkpt><trkpt lat="43.57897526408068" lon="13.45140973761598"><ele>81.5</ele><time>2026-04-26T15:04:30.999Z</time></trkpt><trkpt lat="43.57896561923662" lon="13.450973664169954"><ele>80.0</ele><time>2026-04-26T15:04:31.999Z</time></trkpt><trkpt lat="43.57897619409091" lon="13.450538134832351"><ele>78.5</ele><time>2026-04-26T15:04:32.999Z</time></trkpt><trkpt lat="43.57898499994599" lon="13.45010821802816"><ele>77.0</ele><time>2026-04-26T15:04:33.999Z</time></trkpt><trkpt lat="43.57899758670191" lon="13.449671031350338"><ele>77.0</ele><time>2026-04-26T15:04:34.999Z</time></trkpt><trkpt lat="43.57901147860992" lon="13.449231605339275"><ele>77.0</ele><time>2026-04-26T15:04:35.999Z</time></trkpt><trkpt lat="43.57902183623148" lon="13.448790127076302"><ele>75.0</ele><time>2026-04-26T15:04:36.999Z</time></trkpt><trkpt lat="43.579034881693104" lon="13.448350083424288"><ele>73.0</ele><time>2026-04-26T15:04:37.999Z</time></trkpt><trkpt lat="43.5790481210275" lon="13.447907941721011"><ele>72.5</ele><time>2026-04-26T15:04:38.999Z</time></trkpt><trkpt lat="43.579059853728886" lon="13.447464869577406"><ele>72.0</ele><time>2026-04-26T15:04:39.999Z</time></trkpt><trkpt lat="43.57907365445821" lon="13.447020609244573"><ele>72.0</ele><time>2026-04-26T15:04:40.999Z</time></trkpt><trkpt lat="43.579088860424015" lon="13.446578441211564"><ele>72.0</ele><time>2026-04-26T15:04:41.999Z</time></trkpt><trkpt lat="43.57910366804966" lon="13.446135030226692"><ele>70.5</ele><time>2026-04-26T15:04:42.999Z</time></trkpt><trkpt lat="43.57911694514464" lon="13.44569281916502"><ele>69.0</ele><time>2026-04-26T15:04:43.999Z</time></trkpt><trkpt lat="43.579129803431655" lon="13.44525103445355"><ele>67.5</ele><time>2026-04-26T15:04:44.999Z</time></trkpt><trkpt lat="43.57914183441884" lon="13.444812478714415"><ele>66.0</ele><time>2026-04-26T15:04:45.999Z</time></trkpt><trkpt lat="43.57915631197723" lon="13.44437508535299"><ele>66.0</ele><time>2026-04-26T15:04:46.999Z</time></trkpt><trkpt lat="43.579172098702955" lon="13.443936753675795"><ele>66.0</ele><time>2026-04-26T15:04:47.999Z</time></trkpt><trkpt lat="43.579186055449725" lon="13.443495045740812"><ele>67.0</ele><time>2026-04-26T15:04:48.999Z</time></trkpt><trkpt lat="43.579193425870386" lon="13.443054036229556"><ele>68.0</ele><time>2026-04-26T15:04:49.999Z</time></trkpt><trkpt lat="43.57919153589059" lon="13.442614667910165"><ele>68.0</ele><time>2026-04-26T15:04:50.999Z</time></trkpt><trkpt lat="43.579174959320156" lon="13.442174879920847"><ele>68.0</ele><time>2026-04-26T15:04:51.999Z</time></trkpt><trkpt lat="43.579138247458594" lon="13.441736217610703"><ele>66.5</ele><time>2026-04-26T15:04:52.999Z</time></trkpt><trkpt lat="43.57908533190945" lon="13.441299704121814"><ele>65.0</ele><time>2026-04-26T15:04:53.999Z</time></trkpt><trkpt lat="43.5790208292695" lon="13.440866952783741"><ele>61.0</ele><time>2026-04-26T15:04:54.999Z</time></trkpt><trkpt lat="43.578941538884564" lon="13.440441168954965"><ele>57.0</ele><time>2026-04-26T15:04:55.999Z</time></trkpt><trkpt lat="43.57884326449787" lon="13.440022098515257"><ele>56.0</ele><time>2026-04-26T15:04:56.999Z</time></trkpt><trkpt lat="43.578731594877084" lon="13.43960949106355"><ele>55.0</ele><time>2026-04-26T15:04:57.999Z</time></trkpt><trkpt lat="43.57860840687375" lon="13.439203631109914"><ele>56.0</ele><time>2026-04-26T15:04:58.999Z</time></trkpt><trkpt lat="43.57847394753221" lon="13.438803931830074"><ele>57.0</ele><time>2026-04-26T15:04:59.999Z</time></trkpt><trkpt lat="43.5783359249422" lon="13.438406117615997"><ele>57.0</ele><time>2026-04-26T15:05:00.999Z</time></trkpt><trkpt lat="43.578197869077776" lon="13.438009565940977"><ele>57.0</ele><time>2026-04-26T15:05:01.999Z</time></trkpt><trkpt lat="43.57806167997987" lon="13.437613887096392"><ele>55.0</ele><time>2026-04-26T15:05:02.999Z</time></trkpt><trkpt lat="43.57792440037488" lon="13.437220622529628"><ele>53.0</ele><time>2026-04-26T15:05:03.999Z</time></trkpt><trkpt lat="43.577787653822874" lon="13.436827036478412"><ele>53.0</ele><time>2026-04-26T15:05:04.999Z</time></trkpt><trkpt lat="43.57765135107363" lon="13.436433016519409"><ele>53.0</ele><time>2026-04-26T15:05:05.999Z</time></trkpt><trkpt lat="43.577515275313274" lon="13.436041117277899"><ele>52.0</ele><time>2026-04-26T15:05:06.999Z</time></trkpt><trkpt lat="43.57737896471647" lon="13.435648974505296"><ele>51.0</ele><time>2026-04-26T15:05:07.999Z</time></trkpt><trkpt lat="43.57724334326795" lon="13.435257335743858"><ele>51.5</ele><time>2026-04-26T15:05:08.999Z</time></trkpt><trkpt lat="43.57710694090255" lon="13.43486537085473"><ele>52.0</ele><time>2026-04-26T15:05:09.999Z</time></trkpt><trkpt lat="43.57697032511541" lon="13.434474964208295"><ele>52.0</ele><time>2026-04-26T15:05:10.999Z</time></trkpt><trkpt lat="43.57683349836794" lon="13.43408459843213"><ele>52.0</ele><time>2026-04-26T15:05:11.999Z</time></trkpt><trkpt lat="43.57669668523219" lon="13.43369608335651"><ele>51.0</ele><time>2026-04-26T15:05:12.999Z</time></trkpt><trkpt lat="43.57656097882274" lon="13.433307800235703"><ele>50.0</ele><time>2026-04-26T15:05:13.999Z</time></trkpt><trkpt lat="43.576426886498346" lon="13.432921482516534"><ele>49.5</ele><time>2026-04-26T15:05:14.999Z</time></trkpt><trkpt lat="43.57629915070433" lon="13.432530695089078"><ele>49.0</ele><time>2026-04-26T15:05:15.999Z</time></trkpt><trkpt lat="43.57618404182014" lon="13.432133196328945"><ele>51.5</ele><time>2026-04-26T15:05:16.999Z</time></trkpt><trkpt lat="43.57608733036303" lon="13.431726592742395"><ele>54.0</ele><time>2026-04-26T15:05:17.999Z</time></trkpt><trkpt lat="43.576010440764286" lon="13.431311260617683"><ele>53.0</ele><time>2026-04-26T15:05:18.999Z</time></trkpt><trkpt lat="43.57595139208355" lon="13.43088786927649"><ele>52.0</ele><time>2026-04-26T15:05:19.999Z</time></trkpt><trkpt lat="43.575917039360654" lon="13.430460225515468"><ele>52.0</ele><time>2026-04-26T15:05:20.999Z</time></trkpt><trkpt lat="43.57590463494194" lon="13.430029967954175"><ele>52.0</ele><time>2026-04-26T15:05:21.999Z</time></trkpt><trkpt lat="43.57591305429081" lon="13.429597649260673"><ele>52.0</ele><time>2026-04-26T15:05:22.999Z</time></trkpt><trkpt lat="43.5759442326946" lon="13.429167086972537"><ele>52.0</ele><time>2026-04-26T15:05:23.999Z</time></trkpt><trkpt lat="43.57599639904887" lon="13.42873942285779"><ele>51.5</ele><time>2026-04-26T15:05:24.999Z</time></trkpt><trkpt lat="43.57607157469797" lon="13.428318253806008"><ele>51.0</ele><time>2026-04-26T15:05:25.999Z</time></trkpt><trkpt lat="43.576170837929645" lon="13.427904359992121"><ele>49.0</ele><time>2026-04-26T15:05:26.999Z</time></trkpt><trkpt lat="43.576291492837896" lon="13.427501318538743"><ele>47.0</ele><time>2026-04-26T15:05:27.999Z</time></trkpt><trkpt lat="43.57643374555708" lon="13.42710692193204"><ele>46.5</ele><time>2026-04-26T15:05:28.999Z</time></trkpt><trkpt lat="43.57660037718308" lon="13.426731603454229"><ele>46.0</ele><time>2026-04-26T15:05:29.999Z</time></trkpt><trkpt lat="43.576777286791774" lon="13.42636656041897"><ele>45.0</ele><time>2026-04-26T15:05:30.999Z</time></trkpt><trkpt lat="43.576971704685484" lon="13.426021094755908"><ele>44.0</ele><time>2026-04-26T15:05:31.999Z</time></trkpt><trkpt lat="43.57718555233589" lon="13.425699275566089"><ele>45.5</ele><time>2026-04-26T15:05:32.999Z</time></trkpt><trkpt lat="43.57742171745317" lon="13.425405541925207"><ele>47.0</ele><time>2026-04-26T15:05:33.999Z</time></trkpt><trkpt lat="43.57766848829558" lon="13.425129472603942"><ele>46.0</ele><time>2026-04-26T15:05:35Z</time></trkpt><trkpt lat="43.577923718005906" lon="13.424871156523624"><ele>45.0</ele><time>2026-04-26T15:05:36Z</time></trkpt><trkpt lat="43.57818511072378" lon="13.424622748931922"><ele>45.0</ele><time>2026-04-26T15:05:37Z</time></trkpt><trkpt lat="43.57844776549777" lon="13.424377328598021"><ele>45.0</ele><time>2026-04-26T15:05:38Z</time></trkpt><trkpt lat="43.57871059472392" lon="13.424132627820793"><ele>44.0</ele><time>2026-04-26T15:05:39Z</time></trkpt><trkpt lat="43.578973470603216" lon="13.423888181059086"><ele>43.0</ele><time>2026-04-26T15:05:40Z</time></trkpt><trkpt lat="43.579235472396206" lon="13.423644674338451"><ele>43.0</ele><time>2026-04-26T15:05:41Z</time></trkpt><trkpt lat="43.57949736017961" lon="13.423403098841804"><ele>43.0</ele><time>2026-04-26T15:05:42Z</time></trkpt><trkpt lat="43.57975789495207" lon="13.423160842174312"><ele>43.5</ele><time>2026-04-26T15:05:43Z</time></trkpt><trkpt lat="43.580017017299255" lon="13.422918390164332"><ele>44.0</ele><time>2026-04-26T15:05:44Z</time></trkpt><trkpt lat="43.58027501513625" lon="13.422674772360748"><ele>42.5</ele><time>2026-04-26T15:05:45Z</time></trkpt><trkpt lat="43.58053099179725" lon="13.422428013724511"><ele>41.0</ele><time>2026-04-26T15:05:46Z</time></trkpt><trkpt lat="43.58078307354373" lon="13.422176489683544"><ele>41.5</ele><time>2026-04-26T15:05:47Z</time></trkpt><trkpt lat="43.5810317986291" lon="13.421917840618523"><ele>42.0</ele><time>2026-04-26T15:05:48Z</time></trkpt><trkpt lat="43.581274269911326" lon="13.421650364160277"><ele>41.5</ele><time>2026-04-26T15:05:49Z</time></trkpt><trkpt lat="43.58151281395709" lon="13.421374895528853"><ele>41.0</ele><time>2026-04-26T15:05:50Z</time></trkpt><trkpt lat="43.58174435069415" lon="13.421089091656855"><ele>41.0</ele><time>2026-04-26T15:05:51Z</time></trkpt><trkpt lat="43.58196983660243" lon="13.420795215183169"><ele>41.0</ele><time>2026-04-26T15:05:52Z</time></trkpt><trkpt lat="43.58218710901286" lon="13.420489464075807"><ele>40.5</ele><time>2026-04-26T15:05:53Z</time></trkpt><trkpt lat="43.58239983916645" lon="13.420178695441532"><ele>40.0</ele><time>2026-04-26T15:05:54Z</time></trkpt><trkpt lat="43.58260745664274" lon="13.41986121708753"><ele>40.5</ele><time>2026-04-26T15:05:55Z</time></trkpt><trkpt lat="43.582806442846596" lon="13.419531368689675"><ele>41.0</ele><time>2026-04-26T15:05:56Z</time></trkpt><trkpt lat="43.58299562964412" lon="13.419193512703114"><ele>40.0</ele><time>2026-04-26T15:05:57Z</time></trkpt><trkpt lat="43.583177121079245" lon="13.418849609870628"><ele>39.0</ele><time>2026-04-26T15:05:57.999Z</time></trkpt><trkpt lat="43.5833518493284" lon="13.418497436694915"><ele>39.0</ele><time>2026-04-26T15:05:58.999Z</time></trkpt><trkpt lat="43.58351797236349" lon="13.418139820143884"><ele>39.0</ele><time>2026-04-26T15:05:59.999Z</time></trkpt><trkpt lat="43.583677654492185" lon="13.417776383729718"><ele>40.5</ele><time>2026-04-26T15:06:00.999Z</time></trkpt><trkpt lat="43.583828605063246" lon="13.417406720412409"><ele>42.0</ele><time>2026-04-26T15:06:01.999Z</time></trkpt><trkpt lat="43.58397309993544" lon="13.417031206753753"><ele>42.0</ele><time>2026-04-26T15:06:02.999Z</time></trkpt><trkpt lat="43.584109709756135" lon="13.416651581992395"><ele>42.0</ele><time>2026-04-26T15:06:03.999Z</time></trkpt><trkpt lat="43.58424205316002" lon="13.416269221477153"><ele>41.5</ele><time>2026-04-26T15:06:04.999Z</time></trkpt><trkpt lat="43.584371766467584" lon="13.415881107316364"><ele>41.0</ele><time>2026-04-26T15:06:05.999Z</time></trkpt><trkpt lat="43.584504363967206" lon="13.41548830934575"><ele>47.0</ele><time>2026-04-26T15:06:06.999Z</time></trkpt><trkpt lat="43.58463685090261" lon="13.415091450323555"><ele>53.0</ele><time>2026-04-26T15:06:07.999Z</time></trkpt><trkpt lat="43.58476948854686" lon="13.414690344284677"><ele>50.5</ele><time>2026-04-26T15:06:08.999Z</time></trkpt><trkpt lat="43.5849037645036" lon="13.414287033417773"><ele>48.0</ele><time>2026-04-26T15:06:09.999Z</time></trkpt><trkpt lat="43.585038627833214" lon="13.413883053632135"><ele>45.5</ele><time>2026-04-26T15:06:10.999Z</time></trkpt><trkpt lat="43.58517376083211" lon="13.413479139622657"><ele>43.0</ele><time>2026-04-26T15:06:11.999Z</time></trkpt><trkpt lat="43.58530841570066" lon="13.413075849915707"><ele>47.0</ele><time>2026-04-26T15:06:12.999Z</time></trkpt><trkpt lat="43.585442336123506" lon="13.412671049203292"><ele>51.0</ele><time>2026-04-26T15:06:13.999Z</time></trkpt><trkpt lat="43.58557782785306" lon="13.412266064275181"><ele>47.0</ele><time>2026-04-26T15:06:14.999Z</time></trkpt><trkpt lat="43.585711586021816" lon="13.411858932625062"><ele>43.0</ele><time>2026-04-26T15:06:15.999Z</time></trkpt><trkpt lat="43.585845648376036" lon="13.411451555779578"><ele>40.5</ele><time>2026-04-26T15:06:16.999Z</time></trkpt><trkpt lat="43.585979758297" lon="13.411045873695212"><ele>38.0</ele><time>2026-04-26T15:06:17.999Z</time></trkpt><trkpt lat="43.586114175404326" lon="13.410642415009486"><ele>39.5</ele><time>2026-04-26T15:06:18.999Z</time></trkpt><trkpt lat="43.58624833005716" lon="13.410241060671627"><ele>41.0</ele><time>2026-04-26T15:06:19.999Z</time></trkpt><trkpt lat="43.58638309113715" lon="13.409841195909873"><ele>41.5</ele><time>2026-04-26T15:06:20.999Z</time></trkpt><trkpt lat="43.58651596690012" lon="13.409442190645311"><ele>42.0</ele><time>2026-04-26T15:06:21.999Z</time></trkpt><trkpt lat="43.58664870267171" lon="13.409042527608182"><ele>40.0</ele><time>2026-04-26T15:06:22.999Z</time></trkpt><trkpt lat="43.58678049001364" lon="13.408646325907082"><ele>38.0</ele><time>2026-04-26T15:06:23.999Z</time></trkpt><trkpt lat="43.5869107316058" lon="13.408246571302453"><ele>40.0</ele><time>2026-04-26T15:06:24.999Z</time></trkpt><trkpt lat="43.587041127396716" lon="13.40784733819808"><ele>42.0</ele><time>2026-04-26T15:06:25.999Z</time></trkpt><trkpt lat="43.58717213118568" lon="13.407451938592049"><ele>40.0</ele><time>2026-04-26T15:06:26.999Z</time></trkpt><trkpt lat="43.58730426524233" lon="13.407056552384326"><ele>38.0</ele><time>2026-04-26T15:06:27.999Z</time></trkpt><trkpt lat="43.58743763454715" lon="13.406660479780735"><ele>38.0</ele><time>2026-04-26T15:06:28.999Z</time></trkpt><trkpt lat="43.58757161997018" lon="13.406263695953154"><ele>38.0</ele><time>2026-04-26T15:06:29.999Z</time></trkpt><trkpt lat="43.58770343921987" lon="13.405865318510694"><ele>37.5</ele><time>2026-04-26T15:06:30.999Z</time></trkpt><trkpt lat="43.58783352038422" lon="13.405466125824304"><ele>37.0</ele><time>2026-04-26T15:06:31.999Z</time></trkpt><trkpt lat="43.587964330406976" lon="13.405068055642472"><ele>37.0</ele><time>2026-04-26T15:06:32.999Z</time></trkpt><trkpt lat="43.58809558358036" lon="13.404669922451069"><ele>37.0</ele><time>2026-04-26T15:06:33.999Z</time></trkpt><trkpt lat="43.588226311582645" lon="13.40427081623748"><ele>37.0</ele><time>2026-04-26T15:06:34.999Z</time></trkpt><trkpt lat="43.58835828456216" lon="13.403873798441415"><ele>37.0</ele><time>2026-04-26T15:06:35.999Z</time></trkpt><trkpt lat="43.588488825472105" lon="13.403475877071479"><ele>37.5</ele><time>2026-04-26T15:06:36.999Z</time></trkpt><trkpt lat="43.58861903552801" lon="13.403077846418748"><ele>38.0</ele><time>2026-04-26T15:06:37.999Z</time></trkpt><trkpt lat="43.588750358077185" lon="13.402681515565476"><ele>40.0</ele><time>2026-04-26T15:06:38.999Z</time></trkpt><trkpt lat="43.588882312617514" lon="13.402286170039929"><ele>42.0</ele><time>2026-04-26T15:06:39.999Z</time></trkpt><trkpt lat="43.58901642885465" lon="13.401892701625313"><ele>41.5</ele><time>2026-04-26T15:06:40.999Z</time></trkpt><trkpt lat="43.5891483834974" lon="13.401497851341672"><ele>41.0</ele><time>2026-04-26T15:06:41.999Z</time></trkpt><trkpt lat="43.58927990662194" lon="13.401100295813926"><ele>41.0</ele><time>2026-04-26T15:06:42.999Z</time></trkpt><trkpt lat="43.58940955825608" lon="13.400703165823698"><ele>41.0</ele><time>2026-04-26T15:06:43.999Z</time></trkpt><trkpt lat="43.58954004667393" lon="13.400304417039067"><ele>41.0</ele><time>2026-04-26T15:06:44.999Z</time></trkpt><trkpt lat="43.589671518965346" lon="13.399905824450924"><ele>41.0</ele><time>2026-04-26T15:06:45.999Z</time></trkpt><trkpt lat="43.58980592893865" lon="13.399506065817228"><ele>41.0</ele><time>2026-04-26T15:06:46.999Z</time></trkpt><trkpt lat="43.5899399281011" lon="13.399105478016125"><ele>41.0</ele><time>2026-04-26T15:06:47.999Z</time></trkpt><trkpt lat="43.59007403693486" lon="13.398704820662159"><ele>39.0</ele><time>2026-04-26T15:06:48.999Z</time></trkpt><trkpt lat="43.59020367506126" lon="13.39830430512763"><ele>37.0</ele><time>2026-04-26T15:06:49.999Z</time></trkpt><trkpt lat="43.59032811187886" lon="13.39790455097218"><ele>36.5</ele><time>2026-04-26T15:06:50.999Z</time></trkpt><trkpt lat="43.5904522769129" lon="13.39750279274233"><ele>36.0</ele><time>2026-04-26T15:06:51.999Z</time></trkpt><trkpt lat="43.59057756481663" lon="13.397099735853176"><ele>36.0</ele><time>2026-04-26T15:06:52.999Z</time></trkpt><trkpt lat="43.59070487139591" lon="13.396699301122647"><ele>36.0</ele><time>2026-04-26T15:06:53.999Z</time></trkpt><trkpt lat="43.590834056262224" lon="13.396300690980867"><ele>35.0</ele><time>2026-04-26T15:06:54.999Z</time></trkpt><trkpt lat="43.59096456850649" lon="13.39590562372494"><ele>34.0</ele><time>2026-04-26T15:06:55.999Z</time></trkpt><trkpt lat="43.591094239070266" lon="13.395510683192779"><ele>35.5</ele><time>2026-04-26T15:06:56.999Z</time></trkpt><trkpt lat="43.591223848848855" lon="13.395117471100486"><ele>37.0</ele><time>2026-04-26T15:06:57.999Z</time></trkpt><trkpt lat="43.5913536614592" lon="13.394722447723494"><ele>35.5</ele><time>2026-04-26T15:06:58.999Z</time></trkpt><trkpt lat="43.59148290284557" lon="13.39432271039244"><ele>34.0</ele><time>2026-04-26T15:06:59.999Z</time></trkpt><trkpt lat="43.59161245528773" lon="13.39392327906639"><ele>33.0</ele><time>2026-04-26T15:07:00.999Z</time></trkpt><trkpt lat="43.59174456441998" lon="13.39352875589528"><ele>32.0</ele><time>2026-04-26T15:07:01.999Z</time></trkpt><trkpt lat="43.59187795394877" lon="13.393134235802679"><ele>31.5</ele><time>2026-04-26T15:07:02.999Z</time></trkpt><trkpt lat="43.592011652766104" lon="13.392741845480765"><ele>31.0</ele><time>2026-04-26T15:07:03.999Z</time></trkpt><trkpt lat="43.59214617794636" lon="13.392351667316142"><ele>30.0</ele><time>2026-04-26T15:07:04.999Z</time></trkpt><trkpt lat="43.59228119709157" lon="13.391954942231273"><ele>29.0</ele><time>2026-04-26T15:07:05.999Z</time></trkpt><trkpt lat="43.59241350122423" lon="13.391553253744737"><ele>27.0</ele><time>2026-04-26T15:07:06.999Z</time></trkpt><trkpt lat="43.59254573535188" lon="13.391148979691936"><ele>25.0</ele><time>2026-04-26T15:07:07.999Z</time></trkpt><trkpt lat="43.592678552829106" lon="13.390743275284882"><ele>25.5</ele><time>2026-04-26T15:07:08.999Z</time></trkpt><trkpt lat="43.59281364286845" lon="13.390335806031704"><ele>26.0</ele><time>2026-04-26T15:07:09.999Z</time></trkpt><trkpt lat="43.592950640047775" lon="13.389928035453508"><ele>25.5</ele><time>2026-04-26T15:07:10.999Z</time></trkpt><trkpt lat="43.59308750238763" lon="13.389520026709475"><ele>25.0</ele><time>2026-04-26T15:07:11.999Z</time></trkpt><trkpt lat="43.59322299494914" lon="13.389110580396876"><ele>25.5</ele><time>2026-04-26T15:07:12.999Z</time></trkpt><trkpt lat="43.593357198762405" lon="13.388698584088043"><ele>26.0</ele><time>2026-04-26T15:07:13.999Z</time></trkpt><trkpt lat="43.59348982392879" lon="13.388286792545832"><ele>26.0</ele><time>2026-04-26T15:07:14.999Z</time></trkpt><trkpt lat="43.59361758173977" lon="13.387872578459982"><ele>26.0</ele><time>2026-04-26T15:07:15.999Z</time></trkpt><trkpt lat="43.59373704307307" lon="13.387454779658635"><ele>26.0</ele><time>2026-04-26T15:07:16.999Z</time></trkpt><trkpt lat="43.59385040657839" lon="13.3870364596548"><ele>26.0</ele><time>2026-04-26T15:07:17.999Z</time></trkpt><trkpt lat="43.59395718598892" lon="13.386617497233596"><ele>26.5</ele><time>2026-04-26T15:07:18.999Z</time></trkpt><trkpt lat="43.59405010495297" lon="13.386194673811252"><ele>27.0</ele><time>2026-04-26T15:07:19.999Z</time></trkpt><trkpt lat="43.5941308611336" lon="13.385768185502942"><ele>27.5</ele><time>2026-04-26T15:07:20.999Z</time></trkpt><trkpt lat="43.594201804643355" lon="13.385340678380922"><ele>28.0</ele><time>2026-04-26T15:07:21.999Z</time></trkpt><trkpt lat="43.59425932282594" lon="13.384910810918774"><ele>28.5</ele><time>2026-04-26T15:07:22.999Z</time></trkpt><trkpt lat="43.594306414836176" lon="13.384481166057716"><ele>29.0</ele><time>2026-04-26T15:07:23.999Z</time></trkpt><trkpt lat="43.59434330107582" lon="13.3840511235483"><ele>31.5</ele><time>2026-04-26T15:07:24.999Z</time></trkpt><trkpt lat="43.59436784917035" lon="13.383620050492889"><ele>34.0</ele><time>2026-04-26T15:07:25.999Z</time></trkpt><trkpt lat="43.594381330939854" lon="13.383188551552466"><ele>38.0</ele><time>2026-04-26T15:07:26.999Z</time></trkpt><trkpt lat="43.594384925353154" lon="13.382759969348237"><ele>42.0</ele><time>2026-04-26T15:07:27.999Z</time></trkpt><trkpt lat="43.59438253347924" lon="13.38233382870927"><ele>46.0</ele><time>2026-04-26T15:07:28.999Z</time></trkpt><trkpt lat="43.594373071697014" lon="13.38190734189225"><ele>50.0</ele><time>2026-04-26T15:07:29.999Z</time></trkpt><trkpt lat="43.594351850920866" lon="13.381483208270831"><ele>49.0</ele><time>2026-04-26T15:07:30.999Z</time></trkpt><trkpt lat="43.59431622815754" lon="13.381061256412805"><ele>48.0</ele><time>2026-04-26T15:07:31.999Z</time></trkpt><trkpt lat="43.59426282574263" lon="13.380642802439969"><ele>49.0</ele><time>2026-04-26T15:07:32.999Z</time></trkpt><trkpt lat="43.59420287525032" lon="13.380222770396944"><ele>50.0</ele><time>2026-04-26T15:07:33.999Z</time></trkpt><trkpt lat="43.59413566665609" lon="13.3798051358029"><ele>51.0</ele><time>2026-04-26T15:07:34.999Z</time></trkpt><trkpt lat="43.59406443954764" lon="13.379386174083818"><ele>52.0</ele><time>2026-04-26T15:07:35.999Z</time></trkpt><trkpt lat="43.59399161456426" lon="13.378967634360668"><ele>58.0</ele><time>2026-04-26T15:07:36.999Z</time></trkpt><trkpt lat="43.59391531899086" lon="13.378540230931037"><ele>64.0</ele><time>2026-04-26T15:07:37.999Z</time></trkpt><trkpt lat="43.59383669741857" lon="13.378111116145158"><ele>69.0</ele><time>2026-04-26T15:07:38.999Z</time></trkpt><trkpt lat="43.59375701698062" lon="13.37767794717654"><ele>74.0</ele><time>2026-04-26T15:07:40Z</time></trkpt><trkpt lat="43.593676614120646" lon="13.377240584340875"><ele>76.0</ele><time>2026-04-26T15:07:41Z</time></trkpt><trkpt lat="43.59359542592374" lon="13.376799384272097"><ele>78.0</ele><time>2026-04-26T15:07:42Z</time></trkpt><trkpt lat="43.59350848586195" lon="13.376324399212596"><ele>71.5</ele><time>2026-04-26T15:07:43.074Z</time></trkpt><trkpt lat="43.59343246322965" lon="13.375883543675362"><ele>65.0</ele><time>2026-04-26T15:07:44.07Z</time></trkpt><trkpt lat="43.59336394014087" lon="13.375438695333253"><ele>60.0</ele><time>2026-04-26T15:07:45.067Z</time></trkpt><trkpt lat="43.59330346071246" lon="13.3749913736168"><ele>55.0</ele><time>2026-04-26T15:07:46.07Z</time></trkpt><trkpt lat="43.5933198441993" lon="13.374181071062173"><ele>50.5</ele><time>2026-04-26T15:07:48Z</time></trkpt><trkpt lat="43.593302887481975" lon="13.373735557865793"><ele>46.0</ele><time>2026-04-26T15:07:49Z</time></trkpt><trkpt lat="43.593279383699425" lon="13.373277326886063"><ele>46.0</ele><time>2026-04-26T15:07:50Z</time></trkpt><trkpt lat="43.5933158361346" lon="13.372822872866006"><ele>46.0</ele><time>2026-04-26T15:07:51Z</time></trkpt><trkpt lat="43.593364788688085" lon="13.372375688889909"><ele>46.0</ele><time>2026-04-26T15:07:52Z</time></trkpt><trkpt lat="43.593436827060884" lon="13.371922820763718"><ele>46.0</ele><time>2026-04-26T15:07:53Z</time></trkpt><trkpt lat="43.59349077469345" lon="13.37144937703084"><ele>44.0</ele><time>2026-04-26T15:07:54Z</time></trkpt><trkpt lat="43.59355140799442" lon="13.370982876145344"><ele>42.0</ele><time>2026-04-26T15:07:55Z</time></trkpt><trkpt lat="43.593614147006804" lon="13.370515515834613"><ele>37.0</ele><time>2026-04-26T15:07:56Z</time></trkpt><trkpt lat="43.59367723358062" lon="13.370045127655025"><ele>32.0</ele><time>2026-04-26T15:07:57Z</time></trkpt><trkpt lat="43.593739420298895" lon="13.369573652071361"><ele>29.5</ele><time>2026-04-26T15:07:58Z</time></trkpt><trkpt lat="43.59380446114133" lon="13.369099788029255"><ele>27.0</ele><time>2026-04-26T15:07:59Z</time></trkpt><trkpt lat="43.593869680722534" lon="13.36862567972385"><ele>26.0</ele><time>2026-04-26T15:08:00Z</time></trkpt><trkpt lat="43.59393298446802" lon="13.368148836556786"><ele>25.0</ele><time>2026-04-26T15:08:01Z</time></trkpt><trkpt lat="43.593996770189854" lon="13.367670674376845"><ele>24.0</ele><time>2026-04-26T15:08:02Z</time></trkpt><trkpt lat="43.59406055612012" lon="13.367192581422257"><ele>23.0</ele><time>2026-04-26T15:08:03Z</time></trkpt><trkpt lat="43.59412298799668" lon="13.366718416416528"><ele>23.0</ele><time>2026-04-26T15:08:04Z</time></trkpt><trkpt lat="43.59418598606559" lon="13.366258055340248"><ele>23.0</ele><time>2026-04-26T15:08:05Z</time></trkpt><trkpt lat="43.594245046852905" lon="13.365808944566758"><ele>24.5</ele><time>2026-04-26T15:08:06Z</time></trkpt><trkpt lat="43.59429689566017" lon="13.365367686335901"><ele>26.0</ele><time>2026-04-26T15:08:07Z</time></trkpt><trkpt lat="43.59434033926017" lon="13.364934261965132"><ele>28.5</ele><time>2026-04-26T15:08:08Z</time></trkpt><trkpt lat="43.59437470866172" lon="13.364503970002108"><ele>31.0</ele><time>2026-04-26T15:08:09Z</time></trkpt><trkpt lat="43.594400449606184" lon="13.364074515173451"><ele>33.5</ele><time>2026-04-26T15:08:10Z</time></trkpt><trkpt lat="43.59441616242112" lon="13.363644978665189"><ele>36.0</ele><time>2026-04-26T15:08:11Z</time></trkpt><trkpt lat="43.59442119003882" lon="13.363216697427081"><ele>38.5</ele><time>2026-04-26T15:08:12Z</time></trkpt><trkpt lat="43.59441512645714" lon="13.362788956275724"><ele>41.0</ele><time>2026-04-26T15:08:13Z</time></trkpt><trkpt lat="43.59440459388425" lon="13.362361336012903"><ele>40.5</ele><time>2026-04-26T15:08:14Z</time></trkpt><trkpt lat="43.59437880775674" lon="13.36193643934708"><ele>40.0</ele><time>2026-04-26T15:08:15Z</time></trkpt><trkpt lat="43.59434828722354" lon="13.361510780232884"><ele>36.5</ele><time>2026-04-26T15:08:16Z</time></trkpt><trkpt lat="43.59431820300182" lon="13.361083226274866"><ele>33.0</ele><time>2026-04-26T15:08:17Z</time></trkpt><trkpt lat="43.594287924975646" lon="13.360656345926484"><ele>29.0</ele><time>2026-04-26T15:08:18Z</time></trkpt><trkpt lat="43.59425782252618" lon="13.360242211937676"><ele>25.0</ele><time>2026-04-26T15:08:19Z</time></trkpt><trkpt lat="43.59423199629358" lon="13.359847402471226"><ele>23.5</ele><time>2026-04-26T15:08:20Z</time></trkpt><trkpt lat="43.59421056470691" lon="13.359472293219781"><ele>22.0</ele><time>2026-04-26T15:08:21Z</time></trkpt><trkpt lat="43.594196398830626" lon="13.359104900547173"><ele>22.0</ele><time>2026-04-26T15:08:22Z</time></trkpt><trkpt lat="43.59419105502224" lon="13.358751895198308"><ele>22.0</ele><time>2026-04-26T15:08:23Z</time></trkpt><trkpt lat="43.594182084546794" lon="13.35840916399985"><ele>22.0</ele><time>2026-04-26T15:08:24Z</time></trkpt><trkpt lat="43.59416769598976" lon="13.358084795370575"><ele>22.0</ele><time>2026-04-26T15:08:25Z</time></trkpt><trkpt lat="43.59414784946317" lon="13.357789302224718"><ele>21.666666666666664</ele><time>2026-04-26T15:08:26Z</time></trkpt><trkpt lat="43.594125161469975" lon="13.357531180855242"><ele>21.333333333333332</ele><time>2026-04-26T15:08:27Z</time></trkpt><trkpt lat="43.59410632111106" lon="13.357296671324683"><ele>21.0</ele><time>2026-04-26T15:08:28Z</time></trkpt><trkpt lat="43.594091598322656" lon="13.357079946850066"><ele>20.5</ele><time>2026-04-26T15:08:29Z</time></trkpt><trkpt lat="43.59408141315863" lon="13.356889259161214"><ele>20.0</ele><time>2026-04-26T15:08:30Z</time></trkpt><trkpt lat="43.594082461516194" lon="13.356710129238213"><ele>19.5</ele><time>2026-04-26T15:08:31Z</time></trkpt><trkpt lat="43.59410204543723" lon="13.356536540796649"><ele>19.0</ele><time>2026-04-26T15:08:32Z</time></trkpt><trkpt lat="43.594151225464664" lon="13.356382376641353"><ele>19.0</ele><time>2026-04-26T15:08:33Z</time></trkpt><trkpt lat="43.59422235077305" lon="13.35624870301434"><ele>19.0</ele><time>2026-04-26T15:08:34Z</time></trkpt><trkpt lat="43.59431218381539" lon="13.356134772122436"><ele>19.0</ele><time>2026-04-26T15:08:35Z</time></trkpt><trkpt lat="43.594414774040025" lon="13.356041881769617"><ele>19.0</ele><time>2026-04-26T15:08:36Z</time></trkpt><trkpt lat="43.59453157670335" lon="13.355981759924637"><ele>18.8</ele><time>2026-04-26T15:08:37Z</time></trkpt><trkpt lat="43.5946490742965" lon="13.355966353150523"><ele>18.599999999999998</ele><time>2026-04-26T15:08:38Z</time></trkpt><trkpt lat="43.59475602979347" lon="13.355983833350397"><ele>18.4</ele><time>2026-04-26T15:08:39Z</time></trkpt><trkpt lat="43.594851535675446" lon="13.356020011980023"><ele>18.2</ele><time>2026-04-26T15:08:40Z</time></trkpt><trkpt lat="43.59493698749862" lon="13.35608272123395"><ele>18.0</ele><time>2026-04-26T15:08:41Z</time></trkpt><trkpt lat="43.595003673086204" lon="13.356164049466056"><ele>18.0</ele><time>2026-04-26T15:08:42Z</time></trkpt><trkpt lat="43.59504728947702" lon="13.35623753754046"><ele>18.0</ele><time>2026-04-26T15:08:43Z</time></trkpt><trkpt lat="43.595080913936414" lon="13.35636397861156"><ele>18.0</ele><time>2026-04-26T15:08:45Z</time></trkpt><trkpt lat="43.59512848008519" lon="13.35646141397044"><ele>18.0</ele><time>2026-04-26T15:09:04.999Z</time></trkpt><trkpt lat="43.59516686372747" lon="13.35654794128115"><ele>18.0</ele><time>2026-04-26T15:09:06.999Z</time></trkpt><trkpt lat="43.59521908841848" lon="13.356602029370627"><ele>18.0</ele><time>2026-04-26T15:09:08.999Z</time></trkpt><trkpt lat="43.59527678746258" lon="13.35663911271226"><ele>18.0</ele><time>2026-04-26T15:09:10.999Z</time></trkpt><trkpt lat="43.59535594139075" lon="13.356680226934095"><ele>18.0</ele><time>2026-04-26T15:09:12.999Z</time></trkpt><trkpt lat="43.59543921252826" lon="13.356717605905454"><ele>18.0</ele><time>2026-04-26T15:09:15.999Z</time></trkpt><trkpt lat="43.59546536881579" lon="13.356806475177937"><ele>18.0</ele><time>2026-04-26T15:09:32.999Z</time></trkpt><trkpt lat="43.59552072730903" lon="13.356918021532826"><ele>18.0</ele><time>2026-04-26T15:10:00Z</time></trkpt><trkpt lat="43.595566371820816" lon="13.357006896675427"><ele>18.0</ele><time>2026-04-26T15:10:25Z</time></trkpt><trkpt lat="43.595629083466385" lon="13.356989422687453"><ele>18.0</ele><time>2026-04-26T15:11:11.999Z</time></trkpt><trkpt lat="43.59565546051848" lon="13.357087612401202"><ele>18.0</ele><time>2026-04-26T15:12:23Z</time></trkpt><trkpt lat="43.59571208817665" lon="13.357222060001936"><ele>18.0</ele><time>2026-04-26T15:12:46.999Z</time></trkpt><trkpt lat="43.595782982870176" lon="13.357313834620987"><ele>18.0</ele><time>2026-04-26T15:12:47.999Z</time></trkpt><trkpt lat="43.59586342769826" lon="13.357438040421046"><ele>18.0</ele><time>2026-04-26T15:12:48.999Z</time></trkpt><trkpt lat="43.5959120721785" lon="13.357589625935256"><ele>18.0</ele><time>2026-04-26T15:12:49.999Z</time></trkpt><trkpt lat="43.595959707591106" lon="13.357737971994041"><ele>18.0</ele><time>2026-04-26T15:12:51.999Z</time></trkpt><trkpt lat="43.59604331617312" lon="13.35776302875125"><ele>18.0</ele><time>2026-04-26T15:12:52.999Z</time></trkpt><trkpt lat="43.59609279946073" lon="13.357880965629915"><ele>18.0</ele><time>2026-04-26T15:12:54.999Z</time></trkpt><trkpt lat="43.596138424958575" lon="13.358052842204948"><ele>18.0</ele><time>2026-04-26T15:12:56.999Z</time></trkpt><trkpt lat="43.59614232813781" lon="13.358169490648605"><ele>18.142857142857146</ele><time>2026-04-26T15:12:57.999Z</time></trkpt><trkpt lat="43.596150370654776" lon="13.35828302710044"><ele>18.285714285714285</ele><time>2026-04-26T15:12:58.999Z</time></trkpt><trkpt lat="43.59617061457318" lon="13.358378540159231"><ele>18.42857142857143</ele><time>2026-04-26T15:12:59.999Z</time></trkpt><trkpt lat="43.59620887276156" lon="13.358455314003741"><ele>18.571428571428573</ele><time>2026-04-26T15:13:00.999Z</time></trkpt><trkpt lat="43.596263892763474" lon="13.358514016227407"><ele>18.714285714285715</ele><time>2026-04-26T15:13:01.999Z</time></trkpt><trkpt lat="43.596329478185496" lon="13.358563979062684"><ele>18.857142857142858</ele><time>2026-04-26T15:13:02.999Z</time></trkpt><trkpt lat="43.59640350421335" lon="13.358599211536685"><ele>19.0</ele><time>2026-04-26T15:13:03.999Z</time></trkpt><trkpt lat="43.596484491568376" lon="13.358592993135142"><ele>19.0</ele><time>2026-04-26T15:13:04.999Z</time></trkpt><trkpt lat="43.59653736222887" lon="13.358736731175311"><ele>19.0</ele><time>2026-04-26T15:13:05.999Z</time></trkpt><trkpt lat="43.59659236183273" lon="13.358819282312348"><ele>19.0</ele><time>2026-04-26T15:13:06.999Z</time></trkpt><trkpt lat="43.59664684376277" lon="13.358914828754672"><ele>19.0</ele><time>2026-04-26T15:13:07.999Z</time></trkpt><trkpt lat="43.59670018878501" lon="13.358999036254332"><ele>19.0</ele><time>2026-04-26T15:13:08.999Z</time></trkpt><trkpt lat="43.59674490209543" lon="13.359069132371788"><ele>19.0</ele><time>2026-04-26T15:13:09.999Z</time></trkpt><trkpt lat="43.59679756460763" lon="13.359148723067683"><ele>19.0</ele><time>2026-04-26T15:13:11.999Z</time></trkpt><trkpt lat="43.596872835396034" lon="13.359243671836294"><ele>19.0</ele><time>2026-04-26T15:13:18.999Z</time></trkpt><trkpt lat="43.596944608390196" lon="13.359343357601976"><ele>19.0</ele><time>2026-04-26T15:13:19.999Z</time></trkpt><trkpt lat="43.59704508230496" lon="13.359441096894926"><ele>19.0</ele><time>2026-04-26T15:13:20.999Z</time></trkpt><trkpt lat="43.59717326498432" lon="13.359552089071821"><ele>18.75</ele><time>2026-04-26T15:13:21.999Z</time></trkpt><trkpt lat="43.597289318394516" lon="13.3596243371972"><ele>18.5</ele><time>2026-04-26T15:13:22.999Z</time></trkpt><trkpt lat="43.59740518753861" lon="13.359668130698259"><ele>18.25</ele><time>2026-04-26T15:13:23.999Z</time></trkpt><trkpt lat="43.59751954615822" lon="13.359684536939914"><ele>18.0</ele><time>2026-04-26T15:13:24.999Z</time></trkpt><trkpt lat="43.597625636332346" lon="13.359686916915816"><ele>18.0</ele><time>2026-04-26T15:13:25.999Z</time></trkpt><trkpt lat="43.597735048583516" lon="13.359675773640918"><ele>18.0</ele><time>2026-04-26T15:13:26.999Z</time></trkpt><trkpt lat="43.59784556365826" lon="13.359646915490043"><ele>18.0</ele><time>2026-04-26T15:13:27.999Z</time></trkpt><trkpt lat="43.597970367323285" lon="13.35958717078087"><ele>18.0</ele><time>2026-04-26T15:13:28.999Z</time></trkpt><trkpt lat="43.5981106296595" lon="13.359501424072825"><ele>18.333333333333332</ele><time>2026-04-26T15:13:29.999Z</time></trkpt><trkpt lat="43.59827323378582" lon="13.359440561053688"><ele>18.666666666666664</ele><time>2026-04-26T15:13:30.999Z</time></trkpt><trkpt lat="43.59843425178864" lon="13.359332125205531"><ele>19.0</ele><time>2026-04-26T15:13:31.999Z</time></trkpt><trkpt lat="43.59860298659293" lon="13.35921801841881"><ele>18.666666666666664</ele><time>2026-04-26T15:13:32.999Z</time></trkpt><trkpt lat="43.59877348177966" lon="13.359102721171785"><ele>18.333333333333332</ele><time>2026-04-26T15:13:33.999Z</time></trkpt><trkpt lat="43.598955880606916" lon="13.358979374107406"><ele>18.0</ele><time>2026-04-26T15:13:34.999Z</time></trkpt><trkpt lat="43.59914479589797" lon="13.358851323337895"><ele>18.0</ele><time>2026-04-26T15:13:35.999Z</time></trkpt><trkpt lat="43.599314825019526" lon="13.358735625847329"><ele>18.0</ele><time>2026-04-26T15:13:36.999Z</time></trkpt><trkpt lat="43.59946551122711" lon="13.358636498222358"><ele>18.0</ele><time>2026-04-26T15:13:37.999Z</time></trkpt><trkpt lat="43.59959354506373" lon="13.358576620163033"><ele>18.0</ele><time>2026-04-26T15:13:38.999Z</time></trkpt><trkpt lat="43.59970760295905" lon="13.358585835748846"><ele>18.0</ele><time>2026-04-26T15:13:39.999Z</time></trkpt><trkpt lat="43.599803311571584" lon="13.358656151406578"><ele>18.0</ele><time>2026-04-26T15:13:40.999Z</time></trkpt><trkpt lat="43.59990182912286" lon="13.35876216892888"><ele>18.0</ele><time>2026-04-26T15:13:41.999Z</time></trkpt><trkpt lat="43.599956600451755" lon="13.358933435776368"><ele>18.0</ele><time>2026-04-26T15:13:42.999Z</time></trkpt><trkpt lat="43.59996313793769" lon="13.359117555323568"><ele>18.0</ele><time>2026-04-26T15:13:43.999Z</time></trkpt><trkpt lat="43.59992519351004" lon="13.359300650948592"><ele>18.0</ele><time>2026-04-26T15:13:44.999Z</time></trkpt><trkpt lat="43.59983233490318" lon="13.359450995109322"><ele>18.0</ele><time>2026-04-26T15:13:45.999Z</time></trkpt><trkpt lat="43.599713565677774" lon="13.359537698729238"><ele>18.0</ele><time>2026-04-26T15:13:46.999Z</time></trkpt><trkpt lat="43.599587210596425" lon="13.359570143857997"><ele>18.0</ele><time>2026-04-26T15:13:47.999Z</time></trkpt><trkpt lat="43.599447673368225" lon="13.35950254319834"><ele>18.0</ele><time>2026-04-26T15:13:48.999Z</time></trkpt><trkpt lat="43.59932887385236" lon="13.359392503641025"><ele>18.0</ele><time>2026-04-26T15:13:49.999Z</time></trkpt><trkpt lat="43.59924170627915" lon="13.359232425040375"><ele>18.0</ele><time>2026-04-26T15:13:50.999Z</time></trkpt><trkpt lat="43.599185015937394" lon="13.359032184649365"><ele>18.0</ele><time>2026-04-26T15:13:51.999Z</time></trkpt><trkpt lat="43.59912327451084" lon="13.358820574405057"><ele>18.0</ele><time>2026-04-26T15:13:52.999Z</time></trkpt><trkpt lat="43.599050229543536" lon="13.358601402284787"><ele>18.0</ele><time>2026-04-26T15:13:53.999Z</time></trkpt><trkpt lat="43.59897042303066" lon="13.358369304235488"><ele>18.0</ele><time>2026-04-26T15:13:54.999Z</time></trkpt><trkpt lat="43.59888869408754" lon="13.35812481409725"><ele>18.0</ele><time>2026-04-26T15:13:55.998Z</time></trkpt><trkpt lat="43.59880414829548" lon="13.357866369591848"><ele>18.333333333333332</ele><time>2026-04-26T15:13:56.998Z</time></trkpt><trkpt lat="43.598722036417996" lon="13.357593328025372"><ele>18.666666666666664</ele><time>2026-04-26T15:13:57.999Z</time></trkpt><trkpt lat="43.5986434906957" lon="13.35730426421649"><ele>19.0</ele><time>2026-04-26T15:13:58.999Z</time></trkpt><trkpt lat="43.598566013978264" lon="13.357002355564273"><ele>19.0</ele><time>2026-04-26T15:13:59.999Z</time></trkpt><trkpt lat="43.598489194232066" lon="13.356693472651704"><ele>19.0</ele><time>2026-04-26T15:14:00.999Z</time></trkpt><trkpt lat="43.59840709049928" lon="13.356376919390316"><ele>19.0</ele><time>2026-04-26T15:14:01.999Z</time></trkpt><trkpt lat="43.59832546747765" lon="13.356055437118366"><ele>19.0</ele><time>2026-04-26T15:14:02.999Z</time></trkpt><trkpt lat="43.59824276134193" lon="13.355731521252723"><ele>19.0</ele><time>2026-04-26T15:14:03.999Z</time></trkpt><trkpt lat="43.598154424953165" lon="13.355403396008315"><ele>19.0</ele><time>2026-04-26T15:14:04.999Z</time></trkpt><trkpt lat="43.59805522241069" lon="13.355074887538878"><ele>19.0</ele><time>2026-04-26T15:14:05.999Z</time></trkpt><trkpt lat="43.59794074979191" lon="13.35474904094621"><ele>19.0</ele><time>2026-04-26T15:14:06.999Z</time></trkpt><trkpt lat="43.59780597377864" lon="13.354430391426076"><ele>19.0</ele><time>2026-04-26T15:14:07.999Z</time></trkpt><trkpt lat="43.59765578476785" lon="13.35412427345005"><ele>19.0</ele><time>2026-04-26T15:14:08.999Z</time></trkpt><trkpt lat="43.597494234395235" lon="13.353826097975785"><ele>19.0</ele><time>2026-04-26T15:14:09.999Z</time></trkpt><trkpt lat="43.59732054305835" lon="13.353538334501325"><ele>19.0</ele><time>2026-04-26T15:14:10.999Z</time></trkpt><trkpt lat="43.59713309184198" lon="13.353267351211624"><ele>19.0</ele><time>2026-04-26T15:14:11.999Z</time></trkpt><trkpt lat="43.59693301398715" lon="13.353010066857347"><ele>19.0</ele><time>2026-04-26T15:14:12.999Z</time></trkpt><trkpt lat="43.596722404377246" lon="13.35277068001848"><ele>19.0</ele><time>2026-04-26T15:14:13.999Z</time></trkpt><trkpt lat="43.596498886158415" lon="13.352546426956843"><ele>19.0</ele><time>2026-04-26T15:14:14.999Z</time></trkpt><trkpt lat="43.59626899587514" lon="13.352338059540964"><ele>19.0</ele><time>2026-04-26T15:14:15.999Z</time></trkpt><trkpt lat="43.596027282991734" lon="13.35214911076222"><ele>19.0</ele><time>2026-04-26T15:14:16.999Z</time></trkpt><trkpt lat="43.59577849384507" lon="13.35197960208505"><ele>19.0</ele><time>2026-04-26T15:14:17.999Z</time></trkpt><trkpt lat="43.59551970704779" lon="13.351839213431225"><ele>19.0</ele><time>2026-04-26T15:14:18.999Z</time></trkpt><trkpt lat="43.59524763385645" lon="13.351730598172898"><ele>20.5</ele><time>2026-04-26T15:14:19.999Z</time></trkpt><trkpt lat="43.59496615014128" lon="13.351646619165944"><ele>22.0</ele><time>2026-04-26T15:14:20.999Z</time></trkpt><trkpt lat="43.594683051283354" lon="13.351577416668114"><ele>21.0</ele><time>2026-04-26T15:14:21.999Z</time></trkpt><trkpt lat="43.59440179534691" lon="13.35152269920142"><ele>20.0</ele><time>2026-04-26T15:14:22.999Z</time></trkpt><trkpt lat="43.594117779837866" lon="13.351487712030686"><ele>20.0</ele><time>2026-04-26T15:14:23.999Z</time></trkpt><trkpt lat="43.5938335938968" lon="13.35147426072768"><ele>20.0</ele><time>2026-04-26T15:14:24.999Z</time></trkpt><trkpt lat="43.59354807023062" lon="13.35147274953288"><ele>22.0</ele><time>2026-04-26T15:14:25.999Z</time></trkpt><trkpt lat="43.59326506058913" lon="13.351475861977509"><ele>24.0</ele><time>2026-04-26T15:14:26.999Z</time></trkpt><trkpt lat="43.59298077564418" lon="13.351472207049838"><ele>23.5</ele><time>2026-04-26T15:14:27.999Z</time></trkpt><trkpt lat="43.592699233584376" lon="13.351458982706907"><ele>23.0</ele><time>2026-04-26T15:14:28.999Z</time></trkpt><trkpt lat="43.59241852368301" lon="13.351426857134603"><ele>23.0</ele><time>2026-04-26T15:14:29.999Z</time></trkpt><trkpt lat="43.592138901686106" lon="13.35137103802423"><ele>23.0</ele><time>2026-04-26T15:14:30.999Z</time></trkpt><trkpt lat="43.59186141343685" lon="13.351292049929366"><ele>23.5</ele><time>2026-04-26T15:14:31.999Z</time></trkpt><trkpt lat="43.591583050423786" lon="13.351190133803257"><ele>24.0</ele><time>2026-04-26T15:14:32.999Z</time></trkpt><trkpt lat="43.59130721678418" lon="13.351063551580266"><ele>24.0</ele><time>2026-04-26T15:14:33.999Z</time></trkpt><trkpt lat="43.591035123369046" lon="13.350916003193369"><ele>24.0</ele><time>2026-04-26T15:14:34.999Z</time></trkpt><trkpt lat="43.59076611864698" lon="13.350750060345588"><ele>24.0</ele><time>2026-04-26T15:14:35.999Z</time></trkpt><trkpt lat="43.59050023880527" lon="13.350567124148474"><ele>24.0</ele><time>2026-04-26T15:14:36.999Z</time></trkpt><trkpt lat="43.59024365740427" lon="13.350366332688358"><ele>24.5</ele><time>2026-04-26T15:14:37.999Z</time></trkpt><trkpt lat="43.58999768518183" lon="13.350137895405638"><ele>25.0</ele><time>2026-04-26T15:14:38.999Z</time></trkpt><trkpt lat="43.58976069264184" lon="13.349890524195157"><ele>24.5</ele><time>2026-04-26T15:14:39.999Z</time></trkpt><trkpt lat="43.58953022313677" lon="13.349630518836157"><ele>24.0</ele><time>2026-04-26T15:14:40.999Z</time></trkpt><trkpt lat="43.58930958867382" lon="13.349353559113666"><ele>25.0</ele><time>2026-04-26T15:14:41.999Z</time></trkpt><trkpt lat="43.589103055723676" lon="13.34905982840054"><ele>26.0</ele><time>2026-04-26T15:14:42.999Z</time></trkpt><trkpt lat="43.588907567613624" lon="13.348752615603992"><ele>25.0</ele><time>2026-04-26T15:14:43.999Z</time></trkpt><trkpt lat="43.58872323585127" lon="13.348433358038951"><ele>24.0</ele><time>2026-04-26T15:14:44.999Z</time></trkpt><trkpt lat="43.58855260720463" lon="13.348099281533196"><ele>23.5</ele><time>2026-04-26T15:14:45.999Z</time></trkpt><trkpt lat="43.58839945414767" lon="13.347750197339687"><ele>23.0</ele><time>2026-04-26T15:14:46.999Z</time></trkpt><trkpt lat="43.588264325008325" lon="13.347395977693006"><ele>23.0</ele><time>2026-04-26T15:14:47.999Z</time></trkpt><trkpt lat="43.58814037876841" lon="13.347026847885905"><ele>23.0</ele><time>2026-04-26T15:14:48.999Z</time></trkpt><trkpt lat="43.58802870363188" lon="13.34664903627899"><ele>23.0</ele><time>2026-04-26T15:14:49.999Z</time></trkpt><trkpt lat="43.58792782011524" lon="13.346262799985974"><ele>23.0</ele><time>2026-04-26T15:14:50.999Z</time></trkpt><trkpt lat="43.58783298813374" lon="13.34587131671677"><ele>24.0</ele><time>2026-04-26T15:14:51.999Z</time></trkpt><trkpt lat="43.5877453513818" lon="13.345474582013718"><ele>25.0</ele><time>2026-04-26T15:14:52.999Z</time></trkpt><trkpt lat="43.58765470779177" lon="13.345079888642735"><ele>24.5</ele><time>2026-04-26T15:14:53.999Z</time></trkpt><trkpt lat="43.5875591255589" lon="13.344686265989465"><ele>24.0</ele><time>2026-04-26T15:14:54.999Z</time></trkpt><trkpt lat="43.587464351534095" lon="13.344292035126633"><ele>24.0</ele><time>2026-04-26T15:14:55.999Z</time></trkpt><trkpt lat="43.58737159610176" lon="13.343896985656434"><ele>24.0</ele><time>2026-04-26T15:14:56.999Z</time></trkpt><trkpt lat="43.58727883239008" lon="13.343503475175472"><ele>24.0</ele><time>2026-04-26T15:14:57.999Z</time></trkpt><trkpt lat="43.587184778315624" lon="13.343109529301646"><ele>24.0</ele><time>2026-04-26T15:14:58.999Z</time></trkpt><trkpt lat="43.587094929855894" lon="13.342725535921964"><ele>23.5</ele><time>2026-04-26T15:14:59.999Z</time></trkpt><trkpt lat="43.586995911885296" lon="13.342323247971946"><ele>23.0</ele><time>2026-04-26T15:15:00.999Z</time></trkpt><trkpt lat="43.58690264627334" lon="13.341930806355672"><ele>22.0</ele><time>2026-04-26T15:15:01.999Z</time></trkpt><trkpt lat="43.58680534530588" lon="13.341536620595345"><ele>21.0</ele><time>2026-04-26T15:15:02.999Z</time></trkpt><trkpt lat="43.586694479396506" lon="13.341151156284631"><ele>21.0</ele><time>2026-04-26T15:15:03.999Z</time></trkpt><trkpt lat="43.58656816534065" lon="13.340777083335622"><ele>21.0</ele><time>2026-04-26T15:15:04.999Z</time></trkpt><trkpt lat="43.58642919889988" lon="13.340411739304631"><ele>21.0</ele><time>2026-04-26T15:15:05.999Z</time></trkpt><trkpt lat="43.58627980570123" lon="13.340056043896414"><ele>21.0</ele><time>2026-04-26T15:15:06.999Z</time></trkpt><trkpt lat="43.5861220019015" lon="13.33970679910139"><ele>21.0</ele><time>2026-04-26T15:15:07.999Z</time></trkpt><trkpt lat="43.58595261716286" lon="13.339374140002354"><ele>21.0</ele><time>2026-04-26T15:15:08.999Z</time></trkpt><trkpt lat="43.58577195926974" lon="13.33905263409596"><ele>21.0</ele><time>2026-04-26T15:15:09.999Z</time></trkpt><trkpt lat="43.585582921270806" lon="13.338740933821333"><ele>21.0</ele><time>2026-04-26T15:15:10.999Z</time></trkpt><trkpt lat="43.58538263979096" lon="13.338444412822028"><ele>22.0</ele><time>2026-04-26T15:15:11.999Z</time></trkpt><trkpt lat="43.58517342441564" lon="13.338160151099983"><ele>23.0</ele><time>2026-04-26T15:15:12.999Z</time></trkpt><trkpt lat="43.58495510016865" lon="13.337887979771697"><ele>23.0</ele><time>2026-04-26T15:15:13.999Z</time></trkpt><trkpt lat="43.584733938501074" lon="13.337621947516242"><ele>23.0</ele><time>2026-04-26T15:15:14.999Z</time></trkpt><trkpt lat="43.584508130535646" lon="13.337360356498273"><ele>23.0</ele><time>2026-04-26T15:15:15.999Z</time></trkpt><trkpt lat="43.5842809566903" lon="13.337099014003682"><ele>23.0</ele><time>2026-04-26T15:15:16.999Z</time></trkpt><trkpt lat="43.584056492569914" lon="13.336835427524695"><ele>23.0</ele><time>2026-04-26T15:15:17.999Z</time></trkpt><trkpt lat="43.58383344857613" lon="13.336568506545056"><ele>23.0</ele><time>2026-04-26T15:15:18.999Z</time></trkpt><trkpt lat="43.58360915983528" lon="13.336302979670231"><ele>24.0</ele><time>2026-04-26T15:15:19.999Z</time></trkpt><trkpt lat="43.583386075458485" lon="13.336039417188495"><ele>25.0</ele><time>2026-04-26T15:15:20.999Z</time></trkpt><trkpt lat="43.58316085730329" lon="13.335778618839699"><ele>24.5</ele><time>2026-04-26T15:15:21.999Z</time></trkpt><trkpt lat="43.58293689538952" lon="13.33551620564734"><ele>24.0</ele><time>2026-04-26T15:15:22.999Z</time></trkpt><trkpt lat="43.582715336089535" lon="13.335253740868753"><ele>25.0</ele><time>2026-04-26T15:15:23.999Z</time></trkpt><trkpt lat="43.582493723344115" lon="13.33499062651193"><ele>26.0</ele><time>2026-04-26T15:15:24.999Z</time></trkpt><trkpt lat="43.5822725203423" lon="13.334729873774613"><ele>25.5</ele><time>2026-04-26T15:15:25.999Z</time></trkpt><trkpt lat="43.582050761338756" lon="13.334470521560645"><ele>25.0</ele><time>2026-04-26T15:15:26.999Z</time></trkpt><trkpt lat="43.58182945052312" lon="13.334208617532637"><ele>25.0</ele><time>2026-04-26T15:15:27.999Z</time></trkpt><trkpt lat="43.581606815877514" lon="13.333949021263738"><ele>25.0</ele><time>2026-04-26T15:15:28.999Z</time></trkpt><trkpt lat="43.58138404498815" lon="13.333687306783098"><ele>24.0</ele><time>2026-04-26T15:15:29.999Z</time></trkpt><trkpt lat="43.58116375608393" lon="13.333423823793034"><ele>23.0</ele><time>2026-04-26T15:15:30.999Z</time></trkpt><trkpt lat="43.580940211683846" lon="13.333161189963151"><ele>24.5</ele><time>2026-04-26T15:15:31.999Z</time></trkpt><trkpt lat="43.58071824972836" lon="13.33290009943175"><ele>26.0</ele><time>2026-04-26T15:15:32.999Z</time></trkpt><trkpt lat="43.58049712579708" lon="13.332640125181465"><ele>25.0</ele><time>2026-04-26T15:15:33.999Z</time></trkpt><trkpt lat="43.58027635761348" lon="13.332383148646146"><ele>24.0</ele><time>2026-04-26T15:15:34.999Z</time></trkpt><trkpt lat="43.580057636432166" lon="13.332124326324633"><ele>24.0</ele><time>2026-04-26T15:15:35.999Z</time></trkpt><trkpt lat="43.57983964378403" lon="13.33186609099672"><ele>24.0</ele><time>2026-04-26T15:15:36.999Z</time></trkpt><trkpt lat="43.57962965290624" lon="13.331597717055114"><ele>23.5</ele><time>2026-04-26T15:15:37.999Z</time></trkpt><trkpt lat="43.57942362306034" lon="13.331321008985533"><ele>23.0</ele><time>2026-04-26T15:15:38.999Z</time></trkpt><trkpt lat="43.579230712758374" lon="13.331030756407339"><ele>23.0</ele><time>2026-04-26T15:15:39.999Z</time></trkpt><trkpt lat="43.57904580449628" lon="13.330731846100576"><ele>23.0</ele><time>2026-04-26T15:15:40.999Z</time></trkpt><trkpt lat="43.57886773687219" lon="13.330426078999743"><ele>23.5</ele><time>2026-04-26T15:15:41.999Z</time></trkpt><trkpt lat="43.57869714350977" lon="13.330111974763042"><ele>24.0</ele><time>2026-04-26T15:15:42.999Z</time></trkpt><trkpt lat="43.57853397394722" lon="13.329788114118285"><ele>24.5</ele><time>2026-04-26T15:15:43.999Z</time></trkpt><trkpt lat="43.57838378356005" lon="13.329451712487499"><ele>25.0</ele><time>2026-04-26T15:15:44.999Z</time></trkpt><trkpt lat="43.57824381286606" lon="13.32910725936897"><ele>25.5</ele><time>2026-04-26T15:15:45.999Z</time></trkpt><trkpt lat="43.578109508351886" lon="13.328755941458738"><ele>26.0</ele><time>2026-04-26T15:15:46.999Z</time></trkpt><trkpt lat="43.57798622658442" lon="13.328394023785023"><ele>26.0</ele><time>2026-04-26T15:15:47.998Z</time></trkpt><trkpt lat="43.57787260502416" lon="13.328020832177446"><ele>26.0</ele><time>2026-04-26T15:15:48.998Z</time></trkpt><trkpt lat="43.57776313131279" lon="13.327644430825963"><ele>26.5</ele><time>2026-04-26T15:15:49.998Z</time></trkpt><trkpt lat="43.5776539718188" lon="13.327267826147818"><ele>27.0</ele><time>2026-04-26T15:15:50.998Z</time></trkpt><trkpt lat="43.5775420187683" lon="13.32689112461276"><ele>27.0</ele><time>2026-04-26T15:15:51.998Z</time></trkpt><trkpt lat="43.57742950495723" lon="13.326514657332497"><ele>27.0</ele><time>2026-04-26T15:15:52.998Z</time></trkpt><trkpt lat="43.577317381760956" lon="13.326137371380009"><ele>26.5</ele><time>2026-04-26T15:15:53.998Z</time></trkpt><trkpt lat="43.57720567370917" lon="13.325758325127335"><ele>26.0</ele><time>2026-04-26T15:15:54.998Z</time></trkpt><trkpt lat="43.57709405309835" lon="13.325382857350746"><ele>27.5</ele><time>2026-04-26T15:15:55.998Z</time></trkpt><trkpt lat="43.57698331657994" lon="13.325007077351842"><ele>29.0</ele><time>2026-04-26T15:15:56.998Z</time></trkpt><trkpt lat="43.57687168330277" lon="13.324629362771862"><ele>29.0</ele><time>2026-04-26T15:15:57.998Z</time></trkpt><trkpt lat="43.57675860937932" lon="13.324255257480884"><ele>29.0</ele><time>2026-04-26T15:15:58.998Z</time></trkpt><trkpt lat="43.57664624473183" lon="13.323878842162019"><ele>28.0</ele><time>2026-04-26T15:15:59.998Z</time></trkpt><trkpt lat="43.57653230213165" lon="13.323504857411354"><ele>27.0</ele><time>2026-04-26T15:16:00.998Z</time></trkpt><trkpt lat="43.576421498640286" lon="13.323126637900591"><ele>26.5</ele><time>2026-04-26T15:16:01.998Z</time></trkpt><trkpt lat="43.57630932474919" lon="13.322751401923624"><ele>26.0</ele><time>2026-04-26T15:16:02.998Z</time></trkpt><trkpt lat="43.5761970841139" lon="13.3223725475966"><ele>27.5</ele><time>2026-04-26T15:16:04Z</time></trkpt><trkpt lat="43.57607823029749" lon="13.321998159376678"><ele>29.0</ele><time>2026-04-26T15:16:05Z</time></trkpt><trkpt lat="43.57595651093691" lon="13.321622767940676"><ele>29.0</ele><time>2026-04-26T15:16:06Z</time></trkpt><trkpt lat="43.57583238469125" lon="13.321242132024281"><ele>29.0</ele><time>2026-04-26T15:16:07Z</time></trkpt><trkpt lat="43.575714866567004" lon="13.32085801719652"><ele>29.5</ele><time>2026-04-26T15:16:08Z</time></trkpt><trkpt lat="43.57560121341164" lon="13.320471545890502"><ele>30.0</ele><time>2026-04-26T15:16:09Z</time></trkpt><trkpt lat="43.575487012331195" lon="13.320088065453602"><ele>30.0</ele><time>2026-04-26T15:16:10Z</time></trkpt><trkpt lat="43.57537244001819" lon="13.319704766613759"><ele>30.0</ele><time>2026-04-26T15:16:11Z</time></trkpt><trkpt lat="43.57525915827972" lon="13.319319602623032"><ele>30.0</ele><time>2026-04-26T15:16:12Z</time></trkpt><trkpt lat="43.575146070270186" lon="13.318935696975323"><ele>30.0</ele><time>2026-04-26T15:16:13Z</time></trkpt><trkpt lat="43.57503504527533" lon="13.31855118340412"><ele>30.0</ele><time>2026-04-26T15:16:14Z</time></trkpt><trkpt lat="43.574918351135295" lon="13.318170663940009"><ele>30.0</ele><time>2026-04-26T15:16:15Z</time></trkpt><trkpt lat="43.5747941490856" lon="13.317794883878996"><ele>29.5</ele><time>2026-04-26T15:16:16Z</time></trkpt><trkpt lat="43.57466018696411" lon="13.317425895284279"><ele>29.0</ele><time>2026-04-26T15:16:17Z</time></trkpt><trkpt lat="43.57451654776504" lon="13.317063371732592"><ele>29.5</ele><time>2026-04-26T15:16:18Z</time></trkpt><trkpt lat="43.57436529321203" lon="13.316708600754806"><ele>30.0</ele><time>2026-04-26T15:16:19Z</time></trkpt><trkpt lat="43.574206232044446" lon="13.316358092338008"><ele>30.0</ele><time>2026-04-26T15:16:20Z</time></trkpt><trkpt lat="43.57403994142409" lon="13.316017354001753"><ele>30.0</ele><time>2026-04-26T15:16:21Z</time></trkpt><trkpt lat="43.573864125797826" lon="13.315685338546231"><ele>31.0</ele><time>2026-04-26T15:16:22Z</time></trkpt><trkpt lat="43.573682900293264" lon="13.315361704235121"><ele>32.0</ele><time>2026-04-26T15:16:23Z</time></trkpt><trkpt lat="43.573493975497705" lon="13.31504858286391"><ele>32.0</ele><time>2026-04-26T15:16:24Z</time></trkpt><trkpt lat="43.573297524217" lon="13.31474140279332"><ele>32.0</ele><time>2026-04-26T15:16:25Z</time></trkpt><trkpt lat="43.573093068629284" lon="13.314446369455524"><ele>30.5</ele><time>2026-04-26T15:16:26Z</time></trkpt><trkpt lat="43.57288156618367" lon="13.31416367601127"><ele>29.0</ele><time>2026-04-26T15:16:27Z</time></trkpt><trkpt lat="43.572661350013114" lon="13.313893448163798"><ele>29.0</ele><time>2026-04-26T15:16:27.999Z</time></trkpt><trkpt lat="43.572435954711146" lon="13.313630123893027"><ele>29.0</ele><time>2026-04-26T15:16:28.999Z</time></trkpt><trkpt lat="43.57220546003176" lon="13.313373520584667"><ele>29.0</ele><time>2026-04-26T15:16:29.999Z</time></trkpt><trkpt lat="43.57196943928518" lon="13.313129246447588"><ele>29.0</ele><time>2026-04-26T15:16:30.999Z</time></trkpt><trkpt lat="43.571726805388806" lon="13.312897270849346"><ele>30.0</ele><time>2026-04-26T15:16:31.999Z</time></trkpt><trkpt lat="43.571480634343516" lon="13.312678689727289"><ele>31.0</ele><time>2026-04-26T15:16:32.999Z</time></trkpt><trkpt lat="43.571230163649304" lon="13.312471816519665"><ele>32.5</ele><time>2026-04-26T15:16:33.999Z</time></trkpt><trkpt lat="43.57097764245845" lon="13.312274546396736"><ele>34.0</ele><time>2026-04-26T15:16:34.999Z</time></trkpt><trkpt lat="43.57072461281492" lon="13.312081069694589"><ele>34.5</ele><time>2026-04-26T15:16:35.999Z</time></trkpt><trkpt lat="43.57046614892814" lon="13.31187563486596"><ele>35.0</ele><time>2026-04-26T15:16:36.999Z</time></trkpt><trkpt lat="43.57020794317315" lon="13.311683509540856"><ele>35.5</ele><time>2026-04-26T15:16:37.999Z</time></trkpt><trkpt lat="43.56995326544504" lon="13.311489571199186"><ele>36.0</ele><time>2026-04-26T15:16:38.999Z</time></trkpt><trkpt lat="43.56969917470252" lon="13.311298039064464"><ele>35.0</ele><time>2026-04-26T15:16:39.999Z</time></trkpt><trkpt lat="43.56944576008419" lon="13.311107003460357"><ele>34.0</ele><time>2026-04-26T15:16:40.999Z</time></trkpt><trkpt lat="43.569192200716" lon="13.310915547759487"><ele>34.0</ele><time>2026-04-26T15:16:41.999Z</time></trkpt><trkpt lat="43.568938115828274" lon="13.310722513219215"><ele>34.0</ele><time>2026-04-26T15:16:42.999Z</time></trkpt><trkpt lat="43.568686435792614" lon="13.310532818874082"><ele>33.5</ele><time>2026-04-26T15:16:43.999Z</time></trkpt><trkpt lat="43.56843241116354" lon="13.310346411636733"><ele>33.0</ele><time>2026-04-26T15:16:44.999Z</time></trkpt><trkpt lat="43.56817734266607" lon="13.31016285489324"><ele>33.0</ele><time>2026-04-26T15:16:45.999Z</time></trkpt><trkpt lat="43.567920351218426" lon="13.309979821704204"><ele>33.0</ele><time>2026-04-26T15:16:46.999Z</time></trkpt><trkpt lat="43.56766265689573" lon="13.309799307104317"><ele>34.0</ele><time>2026-04-26T15:16:47.999Z</time></trkpt><trkpt lat="43.56740442399121" lon="13.309618679193022"><ele>35.0</ele><time>2026-04-26T15:16:48.999Z</time></trkpt><trkpt lat="43.56714656415721" lon="13.309438261976958"><ele>34.0</ele><time>2026-04-26T15:16:49.999Z</time></trkpt><trkpt lat="43.5668879293862" lon="13.309258908382256"><ele>33.0</ele><time>2026-04-26T15:16:50.999Z</time></trkpt><trkpt lat="43.566628265676385" lon="13.309081791759471"><ele>33.0</ele><time>2026-04-26T15:16:51.999Z</time></trkpt><trkpt lat="43.56636767182473" lon="13.308904784804316"><ele>33.0</ele><time>2026-04-26T15:16:52.999Z</time></trkpt><trkpt lat="43.56610829380588" lon="13.308724650800112"><ele>33.0</ele><time>2026-04-26T15:16:53.999Z</time></trkpt><trkpt lat="43.565849728705466" lon="13.308544696291094"><ele>33.0</ele><time>2026-04-26T15:16:54.999Z</time></trkpt><trkpt lat="43.56559176758109" lon="13.308362113637074"><ele>32.5</ele><time>2026-04-26T15:16:55.999Z</time></trkpt><trkpt lat="43.565334598681794" lon="13.308179097498698"><ele>32.0</ele><time>2026-04-26T15:16:56.999Z</time></trkpt><trkpt lat="43.565077210204265" lon="13.30799293752044"><ele>32.0</ele><time>2026-04-26T15:16:57.999Z</time></trkpt><trkpt lat="43.56482052646464" lon="13.307806210070027"><ele>32.0</ele><time>2026-04-26T15:16:58.999Z</time></trkpt><trkpt lat="43.56456268240344" lon="13.307620072411996"><ele>33.5</ele><time>2026-04-26T15:16:59.999Z</time></trkpt><trkpt lat="43.56430501749455" lon="13.307433760098613"><ele>35.0</ele><time>2026-04-26T15:17:00.999Z</time></trkpt><trkpt lat="43.56404859036194" lon="13.30724550032026"><ele>35.0</ele><time>2026-04-26T15:17:01.999Z</time></trkpt><trkpt lat="43.563793331850604" lon="13.307057248982156"><ele>35.0</ele><time>2026-04-26T15:17:02.999Z</time></trkpt><trkpt lat="43.56353833110095" lon="13.306868962723838"><ele>35.0</ele><time>2026-04-26T15:17:03.999Z</time></trkpt><trkpt lat="43.563283301458576" lon="13.306682928526165"><ele>35.0</ele><time>2026-04-26T15:17:04.999Z</time></trkpt><trkpt lat="43.56303164271919" lon="13.306497515573025"><ele>34.5</ele><time>2026-04-26T15:17:05.999Z</time></trkpt><trkpt lat="43.56278030914432" lon="13.306310045480592"><ele>34.0</ele><time>2026-04-26T15:17:06.999Z</time></trkpt><trkpt lat="43.56253022112837" lon="13.306125186368348"><ele>34.0</ele><time>2026-04-26T15:17:07.999Z</time></trkpt><trkpt lat="43.56227901116852" lon="13.305945527028065"><ele>34.0</ele><time>2026-04-26T15:17:08.999Z</time></trkpt><trkpt lat="43.56202678843063" lon="13.30576640293972"><ele>33.5</ele><time>2026-04-26T15:17:09.999Z</time></trkpt><trkpt lat="43.5617741731611" lon="13.305588352739681"><ele>33.0</ele><time>2026-04-26T15:17:10.999Z</time></trkpt><trkpt lat="43.56152238874605" lon="13.305407623683736"><ele>33.0</ele><time>2026-04-26T15:17:11.999Z</time></trkpt><trkpt lat="43.56127293922679" lon="13.30522528854503"><ele>33.0</ele><time>2026-04-26T15:17:12.999Z</time></trkpt><trkpt lat="43.56102392097091" lon="13.30504202040174"><ele>35.5</ele><time>2026-04-26T15:17:13.999Z</time></trkpt><trkpt lat="43.560775039715274" lon="13.304860712210596"><ele>38.0</ele><time>2026-04-26T15:17:14.999Z</time></trkpt><trkpt lat="43.56052440338355" lon="13.304679905169428"><ele>37.5</ele><time>2026-04-26T15:17:15.999Z</time></trkpt><trkpt lat="43.56027348484251" lon="13.304496922975446"><ele>37.0</ele><time>2026-04-26T15:17:16.999Z</time></trkpt><trkpt lat="43.560023750499425" lon="13.30431327795501"><ele>37.0</ele><time>2026-04-26T15:17:17.999Z</time></trkpt><trkpt lat="43.55977491608597" lon="13.304130182150033"><ele>37.0</ele><time>2026-04-26T15:17:18.999Z</time></trkpt><trkpt lat="43.559525304111766" lon="13.303947076698579"><ele>37.0</ele><time>2026-04-26T15:17:19.999Z</time></trkpt><trkpt lat="43.55927611153492" lon="13.303764030035307"><ele>37.0</ele><time>2026-04-26T15:17:20.999Z</time></trkpt><trkpt lat="43.55902496428531" lon="13.303581594930074"><ele>37.0</ele><time>2026-04-26T15:17:21.999Z</time></trkpt><trkpt lat="43.558773204644375" lon="13.303398752550958"><ele>37.0</ele><time>2026-04-26T15:17:22.999Z</time></trkpt><trkpt lat="43.55852175994724" lon="13.303214317407253"><ele>37.0</ele><time>2026-04-26T15:17:23.999Z</time></trkpt><trkpt lat="43.55827375301255" lon="13.30303250288635"><ele>37.0</ele><time>2026-04-26T15:17:24.999Z</time></trkpt><trkpt lat="43.5580333293139" lon="13.30285631882204"><ele>39.0</ele><time>2026-04-26T15:17:25.999Z</time></trkpt><trkpt lat="43.55780705021315" lon="13.302691517814894"><ele>41.0</ele><time>2026-04-26T15:17:26.999Z</time></trkpt><trkpt lat="43.557589552099905" lon="13.302534017097118"><ele>41.0</ele><time>2026-04-26T15:17:27.999Z</time></trkpt><trkpt lat="43.55738150467789" lon="13.302382258308839"><ele>41.0</ele><time>2026-04-26T15:17:28.999Z</time></trkpt><trkpt lat="43.55716717683724" lon="13.302226746229756"><ele>40.0</ele><time>2026-04-26T15:17:29.999Z</time></trkpt><trkpt lat="43.55694449140826" lon="13.302069481734863"><ele>39.0</ele><time>2026-04-26T15:17:30.999Z</time></trkpt><trkpt lat="43.55671729802131" lon="13.301909350655944"><ele>39.0</ele><time>2026-04-26T15:17:31.999Z</time></trkpt><trkpt lat="43.55648596193126" lon="13.301739435334964"><ele>39.0</ele><time>2026-04-26T15:17:32.999Z</time></trkpt><trkpt lat="43.556253901393134" lon="13.301569928704454"><ele>40.0</ele><time>2026-04-26T15:17:33.999Z</time></trkpt><trkpt lat="43.556017893124896" lon="13.301403449597085"><ele>41.0</ele><time>2026-04-26T15:17:34.999Z</time></trkpt><trkpt lat="43.555779838209666" lon="13.301229846871246"><ele>41.0</ele><time>2026-04-26T15:17:35.999Z</time></trkpt><trkpt lat="43.55553755019172" lon="13.301058785192208"><ele>41.0</ele><time>2026-04-26T15:17:36.999Z</time></trkpt><trkpt lat="43.55529116691425" lon="13.3008879314859"><ele>41.5</ele><time>2026-04-26T15:17:37.999Z</time></trkpt><trkpt lat="43.55504332266611" lon="13.30071285170185"><ele>42.0</ele><time>2026-04-26T15:17:38.999Z</time></trkpt><trkpt lat="43.55479381703882" lon="13.300535937074319"><ele>41.0</ele><time>2026-04-26T15:17:39.999Z</time></trkpt><trkpt lat="43.55454384483626" lon="13.300356729052115"><ele>40.0</ele><time>2026-04-26T15:17:40.999Z</time></trkpt><trkpt lat="43.55429479019849" lon="13.300178934536202"><ele>40.0</ele><time>2026-04-26T15:17:41.999Z</time></trkpt><trkpt lat="43.554044512308586" lon="13.29999753435147"><ele>40.0</ele><time>2026-04-26T15:17:42.999Z</time></trkpt><trkpt lat="43.5537927674758" lon="13.299816869706271"><ele>41.5</ele><time>2026-04-26T15:17:43.999Z</time></trkpt><trkpt lat="43.553542014865634" lon="13.299638681552763"><ele>43.0</ele><time>2026-04-26T15:17:44.999Z</time></trkpt><trkpt lat="43.553287377722114" lon="13.29945894410027"><ele>43.0</ele><time>2026-04-26T15:17:45.999Z</time></trkpt><trkpt lat="43.553033078498146" lon="13.29927853546696"><ele>43.0</ele><time>2026-04-26T15:17:46.999Z</time></trkpt><trkpt lat="43.552777564911956" lon="13.299097758026331"><ele>40.5</ele><time>2026-04-26T15:17:47.999Z</time></trkpt><trkpt lat="43.552521344015894" lon="13.298915400675948"><ele>38.0</ele><time>2026-04-26T15:17:48.999Z</time></trkpt><trkpt lat="43.55226485590413" lon="13.298733422326164"><ele>39.0</ele><time>2026-04-26T15:17:49.999Z</time></trkpt><trkpt lat="43.55200763760726" lon="13.298550917159563"><ele>40.0</ele><time>2026-04-26T15:17:50.999Z</time></trkpt><trkpt lat="43.551749848191434" lon="13.298366058498448"><ele>40.0</ele><time>2026-04-26T15:17:51.999Z</time></trkpt><trkpt lat="43.5514910718129" lon="13.298182471876846"><ele>40.0</ele><time>2026-04-26T15:17:52.999Z</time></trkpt><trkpt lat="43.5512305806924" lon="13.297995952096509"><ele>38.5</ele><time>2026-04-26T15:17:53.999Z</time></trkpt><trkpt lat="43.55096961219288" lon="13.297808285660132"><ele>37.0</ele><time>2026-04-26T15:17:54.999Z</time></trkpt><trkpt lat="43.5507076176586" lon="13.297620031533018"><ele>37.0</ele><time>2026-04-26T15:17:55.999Z</time></trkpt><trkpt lat="43.55044501284658" lon="13.297431933821422"><ele>37.0</ele><time>2026-04-26T15:17:56.999Z</time></trkpt><trkpt lat="43.550181707198576" lon="13.297244619181477"><ele>38.0</ele><time>2026-04-26T15:17:57.999Z</time></trkpt><trkpt lat="43.54991918314019" lon="13.297056913384074"><ele>39.0</ele><time>2026-04-26T15:17:58.999Z</time></trkpt><trkpt lat="43.54965672685449" lon="13.296868007523855"><ele>39.5</ele><time>2026-04-26T15:17:59.999Z</time></trkpt><trkpt lat="43.54939470563798" lon="13.296677936081975"><ele>40.0</ele><time>2026-04-26T15:18:00.998Z</time></trkpt><trkpt lat="43.54913122999931" lon="13.29649083654859"><ele>39.5</ele><time>2026-04-26T15:18:01.998Z</time></trkpt><trkpt lat="43.548868417820856" lon="13.296304366273052"><ele>39.0</ele><time>2026-04-26T15:18:02.998Z</time></trkpt><trkpt lat="43.54860482546291" lon="13.296118796864345"><ele>40.0</ele><time>2026-04-26T15:18:03.998Z</time></trkpt><trkpt lat="43.54834270432807" lon="13.295933655703495"><ele>41.0</ele><time>2026-04-26T15:18:04.998Z</time></trkpt><trkpt lat="43.54808041748853" lon="13.295748585217416"><ele>41.5</ele><time>2026-04-26T15:18:05.998Z</time></trkpt><trkpt lat="43.54781962013092" lon="13.295563610892305"><ele>42.0</ele><time>2026-04-26T15:18:06.998Z</time></trkpt><trkpt lat="43.54755935720926" lon="13.295377679083154"><ele>42.0</ele><time>2026-04-26T15:18:07.998Z</time></trkpt><trkpt lat="43.5472991170214" lon="13.295193193775546"><ele>42.0</ele><time>2026-04-26T15:18:08.998Z</time></trkpt><trkpt lat="43.54703955432779" lon="13.295008601296795"><ele>41.0</ele><time>2026-04-26T15:18:10Z</time></trkpt><trkpt lat="43.54678057105429" lon="13.29482436970611"><ele>40.0</ele><time>2026-04-26T15:18:11Z</time></trkpt><trkpt lat="43.54652202814451" lon="13.294641813858323"><ele>39.5</ele><time>2026-04-26T15:18:12Z</time></trkpt><trkpt lat="43.54626368139945" lon="13.294459634784614"><ele>39.0</ele><time>2026-04-26T15:18:13Z</time></trkpt><trkpt lat="43.54600609820066" lon="13.294275438362975"><ele>40.5</ele><time>2026-04-26T15:18:14Z</time></trkpt><trkpt lat="43.54574730767936" lon="13.29408955802027"><ele>42.0</ele><time>2026-04-26T15:18:15Z</time></trkpt><trkpt lat="43.54548406880506" lon="13.293900587110524"><ele>43.0</ele><time>2026-04-26T15:18:16Z</time></trkpt><trkpt lat="43.54522077072189" lon="13.2937103793091"><ele>44.0</ele><time>2026-04-26T15:18:17Z</time></trkpt><trkpt lat="43.544953566600206" lon="13.293516145809221"><ele>44.0</ele><time>2026-04-26T15:18:18Z</time></trkpt><trkpt lat="43.54468401013601" lon="13.293325023357651"><ele>44.0</ele><time>2026-04-26T15:18:19Z</time></trkpt><trkpt lat="43.54441086619872" lon="13.293132342034411"><ele>43.5</ele><time>2026-04-26T15:18:20Z</time></trkpt><trkpt lat="43.54413837626782" lon="13.292938842671651"><ele>43.0</ele><time>2026-04-26T15:18:21Z</time></trkpt><trkpt lat="43.54386424501307" lon="13.292744526716488"><ele>42.5</ele><time>2026-04-26T15:18:22Z</time></trkpt><trkpt lat="43.54358896302896" lon="13.292547197765378"><ele>42.0</ele><time>2026-04-26T15:18:23Z</time></trkpt><trkpt lat="43.54331318625866" lon="13.2923513261593"><ele>42.5</ele><time>2026-04-26T15:18:24Z</time></trkpt><trkpt lat="43.54303722821399" lon="13.292156831028047"><ele>43.0</ele><time>2026-04-26T15:18:25Z</time></trkpt><trkpt lat="43.54275985036199" lon="13.29196215331494"><ele>43.5</ele><time>2026-04-26T15:18:26Z</time></trkpt><trkpt lat="43.54248208940862" lon="13.29176726474061"><ele>44.0</ele><time>2026-04-26T15:18:27Z</time></trkpt><trkpt lat="43.542206160501934" lon="13.291572599481514"><ele>44.5</ele><time>2026-04-26T15:18:28Z</time></trkpt><trkpt lat="43.54193063079804" lon="13.291378278049322"><ele>45.0</ele><time>2026-04-26T15:18:29Z</time></trkpt><trkpt lat="43.54165658242315" lon="13.291182332525377"><ele>45.0</ele><time>2026-04-26T15:18:30Z</time></trkpt><trkpt lat="43.54138362248198" lon="13.290985816892375"><ele>45.0</ele><time>2026-04-26T15:18:31Z</time></trkpt><trkpt lat="43.54110990619043" lon="13.290792304502414"><ele>45.5</ele><time>2026-04-26T15:18:32Z</time></trkpt><trkpt lat="43.54083567743548" lon="13.290599728146232"><ele>46.0</ele><time>2026-04-26T15:18:33Z</time></trkpt><trkpt lat="43.54056228046683" lon="13.290407227482039"><ele>46.5</ele><time>2026-04-26T15:18:34Z</time></trkpt><trkpt lat="43.54028859292823" lon="13.290214756544447"><ele>47.0</ele><time>2026-04-26T15:18:35Z</time></trkpt><trkpt lat="43.540016071514216" lon="13.290021424117091"><ele>47.0</ele><time>2026-04-26T15:18:36Z</time></trkpt><trkpt lat="43.53974409583494" lon="13.28982820441162"><ele>47.0</ele><time>2026-04-26T15:18:37Z</time></trkpt><trkpt lat="43.539472815330086" lon="13.289634536905817"><ele>46.0</ele><time>2026-04-26T15:18:38Z</time></trkpt><trkpt lat="43.539199535753795" lon="13.289439907276861"><ele>45.0</ele><time>2026-04-26T15:18:39Z</time></trkpt><trkpt lat="43.53892946602576" lon="13.289244417232727"><ele>45.0</ele><time>2026-04-26T15:18:40Z</time></trkpt><trkpt lat="43.538659537629236" lon="13.289049228304624"><ele>45.0</ele><time>2026-04-26T15:18:41Z</time></trkpt><trkpt lat="43.53838842858112" lon="13.28885404752006"><ele>45.0</ele><time>2026-04-26T15:18:42Z</time></trkpt><trkpt lat="43.53811748311707" lon="13.288659422102286"><ele>45.0</ele><time>2026-04-26T15:18:43Z</time></trkpt><trkpt lat="43.53784555966864" lon="13.288467804981709"><ele>44.5</ele><time>2026-04-26T15:18:44Z</time></trkpt><trkpt lat="43.537573837506926" lon="13.28827610669966"><ele>44.0</ele><time>2026-04-26T15:18:45Z</time></trkpt><trkpt lat="43.53730215477726" lon="13.288083102262544"><ele>45.0</ele><time>2026-04-26T15:18:46Z</time></trkpt><trkpt lat="43.537031560192275" lon="13.287887807054684"><ele>46.0</ele><time>2026-04-26T15:18:47Z</time></trkpt><trkpt lat="43.53676023580213" lon="13.287693522523504"><ele>46.0</ele><time>2026-04-26T15:18:48Z</time></trkpt><trkpt lat="43.536489786835695" lon="13.287500344895445"><ele>46.0</ele><time>2026-04-26T15:18:49Z</time></trkpt><trkpt lat="43.536217618916936" lon="13.287306620198361"><ele>47.0</ele><time>2026-04-26T15:18:50Z</time></trkpt><trkpt lat="43.53594517407874" lon="13.287114136674864"><ele>48.0</ele><time>2026-04-26T15:18:51Z</time></trkpt><trkpt lat="43.53567363351146" lon="13.286920229120481"><ele>48.0</ele><time>2026-04-26T15:18:52Z</time></trkpt><trkpt lat="43.53540223217402" lon="13.286724318815015"><ele>48.0</ele><time>2026-04-26T15:18:52.999Z</time></trkpt><trkpt lat="43.53513070272057" lon="13.286529359728544"><ele>48.5</ele><time>2026-04-26T15:18:53.999Z</time></trkpt><trkpt lat="43.534857623718665" lon="13.286338593427514"><ele>49.0</ele><time>2026-04-26T15:18:54.999Z</time></trkpt><trkpt lat="43.53458429961515" lon="13.28614803330643"><ele>48.0</ele><time>2026-04-26T15:18:55.999Z</time></trkpt><trkpt lat="43.53431110081457" lon="13.285955284270965"><ele>47.0</ele><time>2026-04-26T15:18:56.999Z</time></trkpt><trkpt lat="43.534039270664934" lon="13.285761761146324"><ele>47.0</ele><time>2026-04-26T15:18:57.999Z</time></trkpt><trkpt lat="43.53376909048927" lon="13.28556662677079"><ele>47.0</ele><time>2026-04-26T15:18:58.999Z</time></trkpt><trkpt lat="43.533498637812784" lon="13.285370386220999"><ele>47.0</ele><time>2026-04-26T15:18:59.999Z</time></trkpt><trkpt lat="43.53322869193127" lon="13.28517492666709"><ele>47.0</ele><time>2026-04-26T15:19:00.999Z</time></trkpt><trkpt lat="43.53295760276261" lon="13.28498085049828"><ele>47.0</ele><time>2026-04-26T15:19:01.999Z</time></trkpt><trkpt lat="43.53268745319456" lon="13.284788593814325"><ele>47.0</ele><time>2026-04-26T15:19:02.999Z</time></trkpt><trkpt lat="43.53241616561157" lon="13.284596824799177"><ele>47.5</ele><time>2026-04-26T15:19:03.999Z</time></trkpt><trkpt lat="43.532147268009844" lon="13.284406986822695"><ele>48.0</ele><time>2026-04-26T15:19:04.999Z</time></trkpt><trkpt lat="43.53187541751662" lon="13.284216749452145"><ele>48.5</ele><time>2026-04-26T15:19:05.999Z</time></trkpt><trkpt lat="43.53160745495708" lon="13.284025742082525"><ele>49.0</ele><time>2026-04-26T15:19:06.999Z</time></trkpt><trkpt lat="43.531339205736806" lon="13.283832464676689"><ele>49.5</ele><time>2026-04-26T15:19:07.999Z</time></trkpt><trkpt lat="43.53107066710199" lon="13.283641326896197"><ele>50.0</ele><time>2026-04-26T15:19:08.999Z</time></trkpt><trkpt lat="43.530801533122734" lon="13.283448993519198"><ele>50.0</ele><time>2026-04-26T15:19:09.999Z</time></trkpt><trkpt lat="43.53053495711042" lon="13.283256335875244"><ele>50.0</ele><time>2026-04-26T15:19:10.999Z</time></trkpt><trkpt lat="43.530268328554726" lon="13.283063160263332"><ele>50.5</ele><time>2026-04-26T15:19:11.999Z</time></trkpt><trkpt lat="43.530001574151356" lon="13.282872119064864"><ele>51.0</ele><time>2026-04-26T15:19:12.999Z</time></trkpt><trkpt lat="43.52973405675274" lon="13.282680119094548"><ele>51.0</ele><time>2026-04-26T15:19:13.999Z</time></trkpt><trkpt lat="43.5294671698786" lon="13.282489383675616"><ele>51.0</ele><time>2026-04-26T15:19:14.999Z</time></trkpt><trkpt lat="43.529200794917976" lon="13.282299560625928"><ele>51.0</ele><time>2026-04-26T15:19:15.999Z</time></trkpt><trkpt lat="43.52893273828453" lon="13.282107999833611"><ele>51.0</ele><time>2026-04-26T15:19:16.999Z</time></trkpt><trkpt lat="43.52866605369866" lon="13.281926648678255"><ele>51.0</ele><time>2026-04-26T15:19:17.999Z</time></trkpt><trkpt lat="43.5283998581259" lon="13.281736278989104"><ele>51.0</ele><time>2026-04-26T15:19:18.999Z</time></trkpt><trkpt lat="43.52813107052688" lon="13.281543006504448"><ele>51.5</ele><time>2026-04-26T15:19:19.999Z</time></trkpt><trkpt lat="43.52786337869871" lon="13.281351229003665"><ele>52.0</ele><time>2026-04-26T15:19:20.999Z</time></trkpt><trkpt lat="43.52759460052633" lon="13.281154204224777"><ele>52.0</ele><time>2026-04-26T15:19:21.999Z</time></trkpt><trkpt lat="43.52733384783546" lon="13.280968275194981"><ele>52.0</ele><time>2026-04-26T15:19:22.999Z</time></trkpt><trkpt lat="43.52706481324277" lon="13.280780284865981"><ele>50.5</ele><time>2026-04-26T15:19:23.999Z</time></trkpt><trkpt lat="43.52679767665305" lon="13.28059029003985"><ele>49.0</ele><time>2026-04-26T15:19:24.999Z</time></trkpt><trkpt lat="43.526532311018585" lon="13.280399597395636"><ele>49.0</ele><time>2026-04-26T15:19:25.999Z</time></trkpt><trkpt lat="43.52626848395589" lon="13.280207401339435"><ele>49.0</ele><time>2026-04-26T15:19:26.999Z</time></trkpt><trkpt lat="43.52600519294244" lon="13.280020000006461"><ele>50.0</ele><time>2026-04-26T15:19:27.999Z</time></trkpt><trkpt lat="43.525740021570385" lon="13.279833948953812"><ele>51.0</ele><time>2026-04-26T15:19:28.999Z</time></trkpt><trkpt lat="43.525476056017915" lon="13.279645417146174"><ele>52.5</ele><time>2026-04-26T15:19:29.999Z</time></trkpt><trkpt lat="43.525213324971205" lon="13.279459260222854"><ele>54.0</ele><time>2026-04-26T15:19:30.999Z</time></trkpt><trkpt lat="43.52495062806572" lon="13.279272156941039"><ele>54.0</ele><time>2026-04-26T15:19:31.999Z</time></trkpt><trkpt lat="43.5246853569555" lon="13.279083402934118"><ele>54.0</ele><time>2026-04-26T15:19:32.999Z</time></trkpt><trkpt lat="43.524417969194374" lon="13.278893656668822"><ele>53.0</ele><time>2026-04-26T15:19:33.999Z</time></trkpt><trkpt lat="43.52415327127534" lon="13.278704141227296"><ele>52.0</ele><time>2026-04-26T15:19:34.999Z</time></trkpt><trkpt lat="43.523887980047604" lon="13.2785140537055"><ele>52.5</ele><time>2026-04-26T15:19:35.999Z</time></trkpt><trkpt lat="43.52362318294246" lon="13.278327592594275"><ele>53.0</ele><time>2026-04-26T15:19:36.999Z</time></trkpt><trkpt lat="43.52335880102752" lon="13.278140546951027"><ele>53.0</ele><time>2026-04-26T15:19:37.999Z</time></trkpt><trkpt lat="43.523095079759" lon="13.27795341782766"><ele>53.0</ele><time>2026-04-26T15:19:38.999Z</time></trkpt><trkpt lat="43.5228317958347" lon="13.277764985261078"><ele>53.0</ele><time>2026-04-26T15:19:39.999Z</time></trkpt><trkpt lat="43.52256868909746" lon="13.277576395016073"><ele>53.0</ele><time>2026-04-26T15:19:40.999Z</time></trkpt><trkpt lat="43.52230494971971" lon="13.277388122758468"><ele>52.5</ele><time>2026-04-26T15:19:41.999Z</time></trkpt><trkpt lat="43.522040654343115" lon="13.277202924558683"><ele>52.0</ele><time>2026-04-26T15:19:42.999Z</time></trkpt><trkpt lat="43.52177562888408" lon="13.277015171674106"><ele>52.0</ele><time>2026-04-26T15:19:43.999Z</time></trkpt><trkpt lat="43.52151146000837" lon="13.27682544369289"><ele>52.0</ele><time>2026-04-26T15:19:44.999Z</time></trkpt><trkpt lat="43.521247409494485" lon="13.276635007916369"><ele>52.0</ele><time>2026-04-26T15:19:45.999Z</time></trkpt><trkpt lat="43.52098243781649" lon="13.27644506917612"><ele>52.0</ele><time>2026-04-26T15:19:46.999Z</time></trkpt><trkpt lat="43.52071857255728" lon="13.27625599889443"><ele>52.0</ele><time>2026-04-26T15:19:47.999Z</time></trkpt><trkpt lat="43.52045585526291" lon="13.276066291791734"><ele>52.0</ele><time>2026-04-26T15:19:48.999Z</time></trkpt><trkpt lat="43.52019436906739" lon="13.27587839287871"><ele>52.0</ele><time>2026-04-26T15:19:49.999Z</time></trkpt><trkpt lat="43.51993259797725" lon="13.275690159299476"><ele>52.0</ele><time>2026-04-26T15:19:50.999Z</time></trkpt><trkpt lat="43.51966768347803" lon="13.275496584702362"><ele>53.0</ele><time>2026-04-26T15:19:51.999Z</time></trkpt><trkpt lat="43.519400919999434" lon="13.27529845468155"><ele>54.0</ele><time>2026-04-26T15:19:52.999Z</time></trkpt><trkpt lat="43.51913636757023" lon="13.275099287460172"><ele>54.0</ele><time>2026-04-26T15:19:53.999Z</time></trkpt><trkpt lat="43.51887223996177" lon="13.274904641891768"><ele>54.0</ele><time>2026-04-26T15:19:54.999Z</time></trkpt><trkpt lat="43.51860859082679" lon="13.274714184664582"><ele>55.0</ele><time>2026-04-26T15:19:55.999Z</time></trkpt><trkpt lat="43.51834520180542" lon="13.274527565508864"><ele>56.0</ele><time>2026-04-26T15:19:56.999Z</time></trkpt><trkpt lat="43.518082954933966" lon="13.27434302591681"><ele>55.5</ele><time>2026-04-26T15:19:57.999Z</time></trkpt><trkpt lat="43.51782118631114" lon="13.274157937481823"><ele>55.0</ele><time>2026-04-26T15:19:58.999Z</time></trkpt><trkpt lat="43.51756128328414" lon="13.273973265981985"><ele>55.0</ele><time>2026-04-26T15:19:59.999Z</time></trkpt><trkpt lat="43.51730278133113" lon="13.273788908575987"><ele>55.0</ele><time>2026-04-26T15:20:00.999Z</time></trkpt><trkpt lat="43.51704646212952" lon="13.273605041756332"><ele>57.0</ele><time>2026-04-26T15:20:01.999Z</time></trkpt><trkpt lat="43.51679153033541" lon="13.273422943976655"><ele>59.0</ele><time>2026-04-26T15:20:02.999Z</time></trkpt><trkpt lat="43.51653695038015" lon="13.273243989154304"><ele>59.0</ele><time>2026-04-26T15:20:03.999Z</time></trkpt><trkpt lat="43.51628420571821" lon="13.273067760281513"><ele>59.0</ele><time>2026-04-26T15:20:04.999Z</time></trkpt><trkpt lat="43.51603240340123" lon="13.272891145816436"><ele>59.0</ele><time>2026-04-26T15:20:05.999Z</time></trkpt><trkpt lat="43.51577934093362" lon="13.272716673237504"><ele>59.0</ele><time>2026-04-26T15:20:06.999Z</time></trkpt><trkpt lat="43.51552396964614" lon="13.27254947011037"><ele>59.0</ele><time>2026-04-26T15:20:07.999Z</time></trkpt><trkpt lat="43.515267621283265" lon="13.27238081424957"><ele>59.0</ele><time>2026-04-26T15:20:08.999Z</time></trkpt><trkpt lat="43.51501301234644" lon="13.272205023974719"><ele>58.0</ele><time>2026-04-26T15:20:09.999Z</time></trkpt><trkpt lat="43.51476146934532" lon="13.272025818638163"><ele>57.0</ele><time>2026-04-26T15:20:10.999Z</time></trkpt><trkpt lat="43.51451531141904" lon="13.271835164559118"><ele>57.0</ele><time>2026-04-26T15:20:11.999Z</time></trkpt><trkpt lat="43.51427516258985" lon="13.271630925964997"><ele>57.0</ele><time>2026-04-26T15:20:12.999Z</time></trkpt><trkpt lat="43.51404195290127" lon="13.271410166251725"><ele>56.5</ele><time>2026-04-26T15:20:13.999Z</time></trkpt><trkpt lat="43.513814882989934" lon="13.27117262464245"><ele>56.0</ele><time>2026-04-26T15:20:14.999Z</time></trkpt><trkpt lat="43.513592306136985" lon="13.270923653657471"><ele>56.5</ele><time>2026-04-26T15:20:16Z</time></trkpt><trkpt lat="43.513374403545164" lon="13.270663666442829"><ele>57.0</ele><time>2026-04-26T15:20:17Z</time></trkpt><trkpt lat="43.51316628062933" lon="13.270389013419551"><ele>57.0</ele><time>2026-04-26T15:20:18Z</time></trkpt><trkpt lat="43.51296761808432" lon="13.270100143493616"><ele>57.0</ele><time>2026-04-26T15:20:19Z</time></trkpt><trkpt lat="43.5127733411587" lon="13.269805144808645"><ele>58.0</ele><time>2026-04-26T15:20:20Z</time></trkpt><trkpt lat="43.51257920494449" lon="13.269512214109808"><ele>59.0</ele><time>2026-04-26T15:20:21Z</time></trkpt><trkpt lat="43.51238654796107" lon="13.269220644008756"><ele>59.0</ele><time>2026-04-26T15:20:22Z</time></trkpt><trkpt lat="43.51219738091929" lon="13.268938919796566"><ele>59.0</ele><time>2026-04-26T15:20:23Z</time></trkpt><trkpt lat="43.512012126978185" lon="13.26868859416094"><ele>59.0</ele><time>2026-04-26T15:20:24Z</time></trkpt><trkpt lat="43.51183065087087" lon="13.268436312245655"><ele>59.0</ele><time>2026-04-26T15:20:25Z</time></trkpt><trkpt lat="43.51162657938559" lon="13.268067117031958"><ele>59.0</ele><time>2026-04-26T15:20:26Z</time></trkpt><trkpt lat="43.51143023545346" lon="13.267780526753002"><ele>59.0</ele><time>2026-04-26T15:20:27Z</time></trkpt><trkpt lat="43.51123357290663" lon="13.267487118653543"><ele>61.5</ele><time>2026-04-26T15:20:28Z</time></trkpt><trkpt lat="43.511040413729646" lon="13.26718996572397"><ele>64.0</ele><time>2026-04-26T15:20:29Z</time></trkpt><trkpt lat="43.51084316087811" lon="13.266899024382955"><ele>64.0</ele><time>2026-04-26T15:20:30Z</time></trkpt><trkpt lat="43.51065142472374" lon="13.266609599606749"><ele>64.0</ele><time>2026-04-26T15:20:31Z</time></trkpt><trkpt lat="43.510452923301585" lon="13.266321591465223"><ele>64.0</ele><time>2026-04-26T15:20:32Z</time></trkpt><trkpt lat="43.51025761414789" lon="13.266033003753464"><ele>64.0</ele><time>2026-04-26T15:20:33Z</time></trkpt><trkpt lat="43.510063401416716" lon="13.265741276114746"><ele>64.0</ele><time>2026-04-26T15:20:34Z</time></trkpt><trkpt lat="43.50986893353192" lon="13.265452953487726"><ele>64.0</ele><time>2026-04-26T15:20:35Z</time></trkpt><trkpt lat="43.50967461138348" lon="13.265159383545013"><ele>64.0</ele><time>2026-04-26T15:20:36Z</time></trkpt><trkpt lat="43.50948260740673" lon="13.264865678485661"><ele>64.0</ele><time>2026-04-26T15:20:37Z</time></trkpt><trkpt lat="43.5092947833179" lon="13.264569820048088"><ele>64.0</ele><time>2026-04-26T15:20:38Z</time></trkpt><trkpt lat="43.509110743534606" lon="13.264267042279142"><ele>64.0</ele><time>2026-04-26T15:20:39Z</time></trkpt><trkpt lat="43.50893721892428" lon="13.263952433492035"><ele>64.0</ele><time>2026-04-26T15:20:40Z</time></trkpt><trkpt lat="43.50877184878502" lon="13.26362935257009"><ele>64.0</ele><time>2026-04-26T15:20:41Z</time></trkpt><trkpt lat="43.508611081133054" lon="13.263298424067582"><ele>63.5</ele><time>2026-04-26T15:20:42Z</time></trkpt><trkpt lat="43.508460515687084" lon="13.262961179531978"><ele>63.0</ele><time>2026-04-26T15:20:43Z</time></trkpt><trkpt lat="43.50831415352613" lon="13.262622344784853"><ele>63.0</ele><time>2026-04-26T15:20:44Z</time></trkpt><trkpt lat="43.50817307957836" lon="13.262283457916237"><ele>63.0</ele><time>2026-04-26T15:20:45Z</time></trkpt><trkpt lat="43.508026376393225" lon="13.261946250277795"><ele>63.5</ele><time>2026-04-26T15:20:46Z</time></trkpt><trkpt lat="43.507878115366914" lon="13.261607472538605"><ele>64.0</ele><time>2026-04-26T15:20:47Z</time></trkpt><trkpt lat="43.5077373698946" lon="13.261268638912643"><ele>64.0</ele><time>2026-04-26T15:20:48Z</time></trkpt><trkpt lat="43.5075932265294" lon="13.260928911474311"><ele>64.0</ele><time>2026-04-26T15:20:49Z</time></trkpt><trkpt lat="43.50744776796157" lon="13.260592572149278"><ele>64.0</ele><time>2026-04-26T15:20:50Z</time></trkpt><trkpt lat="43.50730204124692" lon="13.260253948367868"><ele>64.0</ele><time>2026-04-26T15:20:51Z</time></trkpt><trkpt lat="43.50715658361836" lon="13.259916452343154"><ele>64.0</ele><time>2026-04-26T15:20:52Z</time></trkpt><trkpt lat="43.507012704074704" lon="13.259578449488487"><ele>64.0</ele><time>2026-04-26T15:20:53Z</time></trkpt><trkpt lat="43.50687085267575" lon="13.259236760712998"><ele>64.0</ele><time>2026-04-26T15:20:54Z</time></trkpt><trkpt lat="43.50672585957987" lon="13.258899799082679"><ele>64.0</ele><time>2026-04-26T15:20:55Z</time></trkpt><trkpt lat="43.506575548010304" lon="13.258567168741289"><ele>64.0</ele><time>2026-04-26T15:20:56Z</time></trkpt><trkpt lat="43.506430929995076" lon="13.258226984401713"><ele>64.0</ele><time>2026-04-26T15:20:57Z</time></trkpt><trkpt lat="43.50628689004652" lon="13.257888249140695"><ele>63.5</ele><time>2026-04-26T15:20:58Z</time></trkpt><trkpt lat="43.50614234211657" lon="13.257549049868718"><ele>63.0</ele><time>2026-04-26T15:20:59Z</time></trkpt><trkpt lat="43.50599927127839" lon="13.257207675195456"><ele>63.0</ele><time>2026-04-26T15:21:00Z</time></trkpt><trkpt lat="43.505857517377656" lon="13.256863089072404"><ele>63.0</ele><time>2026-04-26T15:21:01Z</time></trkpt><trkpt lat="43.505711351422185" lon="13.256522955934587"><ele>63.5</ele><time>2026-04-26T15:21:02Z</time></trkpt><trkpt lat="43.505557709479206" lon="13.25618680215617"><ele>64.0</ele><time>2026-04-26T15:21:03Z</time></trkpt><trkpt lat="43.50540948392263" lon="13.255841603035226"><ele>63.0</ele><time>2026-04-26T15:21:04Z</time></trkpt><trkpt lat="43.50526491936299" lon="13.255491184347575"><ele>62.0</ele><time>2026-04-26T15:21:05Z</time></trkpt><trkpt lat="43.505118619657395" lon="13.255129627791538"><ele>62.0</ele><time>2026-04-26T15:21:06Z</time></trkpt><trkpt lat="43.50497141121695" lon="13.254768869119038"><ele>62.0</ele><time>2026-04-26T15:21:07Z</time></trkpt><trkpt lat="43.504817668953514" lon="13.254412792612468"><ele>62.0</ele><time>2026-04-26T15:21:08Z</time></trkpt><trkpt lat="43.50466353796703" lon="13.254051307276837"><ele>62.0</ele><time>2026-04-26T15:21:09Z</time></trkpt><trkpt lat="43.50451489899291" lon="13.25368186056097"><ele>62.5</ele><time>2026-04-26T15:21:09.999Z</time></trkpt><trkpt lat="43.5043636000769" lon="13.253305334176593"><ele>63.0</ele><time>2026-04-26T15:21:10.999Z</time></trkpt><trkpt lat="43.50421527469681" lon="13.252929731361629"><ele>63.0</ele><time>2026-04-26T15:21:11.999Z</time></trkpt><trkpt lat="43.50406710029444" lon="13.252547430452502"><ele>63.0</ele><time>2026-04-26T15:21:12.999Z</time></trkpt><trkpt lat="43.50391621152521" lon="13.252167983917788"><ele>63.0</ele><time>2026-04-26T15:21:13.999Z</time></trkpt><trkpt lat="43.503760814848874" lon="13.251791113635582"><ele>63.0</ele><time>2026-04-26T15:21:14.999Z</time></trkpt><trkpt lat="43.503610849689075" lon="13.251403255297546"><ele>64.0</ele><time>2026-04-26T15:21:15.999Z</time></trkpt><trkpt lat="43.503463585833565" lon="13.251014801267026"><ele>65.0</ele><time>2026-04-26T15:21:16.999Z</time></trkpt><trkpt lat="43.50331460932386" lon="13.250627950110747"><ele>64.5</ele><time>2026-04-26T15:21:17.999Z</time></trkpt><trkpt lat="43.50316156961404" lon="13.250244806824496"><ele>64.0</ele><time>2026-04-26T15:21:18.999Z</time></trkpt><trkpt lat="43.503006348907135" lon="13.249855074662428"><ele>64.5</ele><time>2026-04-26T15:21:19.999Z</time></trkpt><trkpt lat="43.50285199409374" lon="13.249466985110327"><ele>65.0</ele><time>2026-04-26T15:21:20.999Z</time></trkpt><trkpt lat="43.50269793731074" lon="13.249077626947761"><ele>65.0</ele><time>2026-04-26T15:21:21.999Z</time></trkpt><trkpt lat="43.502545567800496" lon="13.248682833184299"><ele>65.0</ele><time>2026-04-26T15:21:22.999Z</time></trkpt><trkpt lat="43.50239217605913" lon="13.248288765392939"><ele>64.5</ele><time>2026-04-26T15:21:23.999Z</time></trkpt><trkpt lat="43.50223990846418" lon="13.24789140693625"><ele>64.0</ele><time>2026-04-26T15:21:24.999Z</time></trkpt><trkpt lat="43.50208407783136" lon="13.247499521541991"><ele>64.5</ele><time>2026-04-26T15:21:25.999Z</time></trkpt><trkpt lat="43.501926876461745" lon="13.247107208635471"><ele>65.0</ele><time>2026-04-26T15:21:26.999Z</time></trkpt><trkpt lat="43.50177075699187" lon="13.24671134400115"><ele>65.5</ele><time>2026-04-26T15:21:27.999Z</time></trkpt><trkpt lat="43.5016135193576" lon="13.246313371759662"><ele>66.0</ele><time>2026-04-26T15:21:28.999Z</time></trkpt><trkpt lat="43.50145728977239" lon="13.245912777229194"><ele>67.0</ele><time>2026-04-26T15:21:29.999Z</time></trkpt><trkpt lat="43.50129902363638" lon="13.245519288550769"><ele>68.0</ele><time>2026-04-26T15:21:30.999Z</time></trkpt><trkpt lat="43.50114526941684" lon="13.245118706793637"><ele>67.5</ele><time>2026-04-26T15:21:31.999Z</time></trkpt><trkpt lat="43.50098581157593" lon="13.244720806909884"><ele>67.0</ele><time>2026-04-26T15:21:32.999Z</time></trkpt><trkpt lat="43.500811093664865" lon="13.24434347841121"><ele>67.0</ele><time>2026-04-26T15:21:33.999Z</time></trkpt><trkpt lat="43.500622332603285" lon="13.243972680732389"><ele>67.0</ele><time>2026-04-26T15:21:34.999Z</time></trkpt><trkpt lat="43.50042745822415" lon="13.243612554540492"><ele>68.0</ele><time>2026-04-26T15:21:35.999Z</time></trkpt><trkpt lat="43.50022237330229" lon="13.243256249942643"><ele>69.0</ele><time>2026-04-26T15:21:36.999Z</time></trkpt><trkpt lat="43.5000091394665" lon="13.242913349362869"><ele>69.0</ele><time>2026-04-26T15:21:37.999Z</time></trkpt><trkpt lat="43.49978756936111" lon="13.242583523514627"><ele>69.0</ele><time>2026-04-26T15:21:38.999Z</time></trkpt><trkpt lat="43.49955834896981" lon="13.242262800579962"><ele>70.0</ele><time>2026-04-26T15:21:39.999Z</time></trkpt><trkpt lat="43.499317570068506" lon="13.241957393984801"><ele>71.0</ele><time>2026-04-26T15:21:40.999Z</time></trkpt><trkpt lat="43.499072788913075" lon="13.241659086189427"><ele>69.5</ele><time>2026-04-26T15:21:41.999Z</time></trkpt><trkpt lat="43.49881984189426" lon="13.241373272148294"><ele>68.0</ele><time>2026-04-26T15:21:42.999Z</time></trkpt><trkpt lat="43.49856294244923" lon="13.241092658754127"><ele>68.0</ele><time>2026-04-26T15:21:43.999Z</time></trkpt><trkpt lat="43.49830694342646" lon="13.240814166301652"><ele>68.0</ele><time>2026-04-26T15:21:44.999Z</time></trkpt><trkpt lat="43.49805682173698" lon="13.240526694463442"><ele>69.5</ele><time>2026-04-26T15:21:45.999Z</time></trkpt><trkpt lat="43.49781162062265" lon="13.240226277018904"><ele>71.0</ele><time>2026-04-26T15:21:46.999Z</time></trkpt><trkpt lat="43.497569110095725" lon="13.239917506857875"><ele>70.5</ele><time>2026-04-26T15:21:47.999Z</time></trkpt><trkpt lat="43.49732913421856" lon="13.239608021564178"><ele>70.0</ele><time>2026-04-26T15:21:48.999Z</time></trkpt><trkpt lat="43.49709223616409" lon="13.23929323442224"><ele>70.5</ele><time>2026-04-26T15:21:49.999Z</time></trkpt><trkpt lat="43.496858728609276" lon="13.238974061680498"><ele>71.0</ele><time>2026-04-26T15:21:50.999Z</time></trkpt><trkpt lat="43.4966289142112" lon="13.238646151866075"><ele>71.0</ele><time>2026-04-26T15:21:51.999Z</time></trkpt><trkpt lat="43.49640396630087" lon="13.238311816598221"><ele>71.0</ele><time>2026-04-26T15:21:52.999Z</time></trkpt><trkpt lat="43.49618235327108" lon="13.237972764936872"><ele>72.5</ele><time>2026-04-26T15:21:53.999Z</time></trkpt><trkpt lat="43.49596507791713" lon="13.237624711548941"><ele>74.0</ele><time>2026-04-26T15:21:54.999Z</time></trkpt><trkpt lat="43.49575271814048" lon="13.237272949513537"><ele>74.0</ele><time>2026-04-26T15:21:55.999Z</time></trkpt><trkpt lat="43.49554536650947" lon="13.236913993819536"><ele>74.0</ele><time>2026-04-26T15:21:56.999Z</time></trkpt><trkpt lat="43.495343177830264" lon="13.236546084136195"><ele>74.5</ele><time>2026-04-26T15:21:57.999Z</time></trkpt><trkpt lat="43.49514398899053" lon="13.236172005624287"><ele>75.0</ele><time>2026-04-26T15:21:58.999Z</time></trkpt><trkpt lat="43.494950576762555" lon="13.235791829703123"><ele>74.5</ele><time>2026-04-26T15:21:59.999Z</time></trkpt><trkpt lat="43.49476430718425" lon="13.23541321604981"><ele>74.0</ele><time>2026-04-26T15:22:00.999Z</time></trkpt><trkpt lat="43.49458468201743" lon="13.235039673156203"><ele>74.5</ele><time>2026-04-26T15:22:01.999Z</time></trkpt><trkpt lat="43.49441553922694" lon="13.234681822073341"><ele>75.0</ele><time>2026-04-26T15:22:02.999Z</time></trkpt><trkpt lat="43.49425339758728" lon="13.234344674047335"><ele>75.0</ele><time>2026-04-26T15:22:03.999Z</time></trkpt><trkpt lat="43.4940937405265" lon="13.234023502969148"><ele>75.0</ele><time>2026-04-26T15:22:04.999Z</time></trkpt><trkpt lat="43.493939559533366" lon="13.233700865299785"><ele>74.5</ele><time>2026-04-26T15:22:05.999Z</time></trkpt><trkpt lat="43.493786285764756" lon="13.233377547568132"><ele>74.0</ele><time>2026-04-26T15:22:06.999Z</time></trkpt><trkpt lat="43.49363186909459" lon="13.23305023606554"><ele>73.5</ele><time>2026-04-26T15:22:07.999Z</time></trkpt><trkpt lat="43.49347327316843" lon="13.23272432678677"><ele>73.0</ele><time>2026-04-26T15:22:08.999Z</time></trkpt><trkpt lat="43.49331613912878" lon="13.232395125885747"><ele>72.5</ele><time>2026-04-26T15:22:09.999Z</time></trkpt><trkpt lat="43.49315805788674" lon="13.232066429220856"><ele>72.0</ele><time>2026-04-26T15:22:10.999Z</time></trkpt><trkpt lat="43.49300133531953" lon="13.231735473795071"><ele>73.5</ele><time>2026-04-26T15:22:11.999Z</time></trkpt><trkpt lat="43.49284300967849" lon="13.231402226009918"><ele>75.0</ele><time>2026-04-26T15:22:12.999Z</time></trkpt><trkpt lat="43.49268340854669" lon="13.231068268083705"><ele>75.0</ele><time>2026-04-26T15:22:13.999Z</time></trkpt><trkpt lat="43.49252115931062" lon="13.230724945759308"><ele>75.0</ele><time>2026-04-26T15:22:14.999Z</time></trkpt><trkpt lat="43.49235598539711" lon="13.230382701147851"><ele>75.0</ele><time>2026-04-26T15:22:15.999Z</time></trkpt><trkpt lat="43.49218956245655" lon="13.23003694820708"><ele>75.0</ele><time>2026-04-26T15:22:16.999Z</time></trkpt><trkpt lat="43.49202260410069" lon="13.229687500410245"><ele>74.5</ele><time>2026-04-26T15:22:17.999Z</time></trkpt><trkpt lat="43.49185638457555" lon="13.22933434673745"><ele>74.0</ele><time>2026-04-26T15:22:18.999Z</time></trkpt><trkpt lat="43.49168546489721" lon="13.228982314153864"><ele>74.0</ele><time>2026-04-26T15:22:19.999Z</time></trkpt><trkpt lat="43.491514647775006" lon="13.228629347699615"><ele>74.0</ele><time>2026-04-26T15:22:20.999Z</time></trkpt><trkpt lat="43.49134566069707" lon="13.228271673061851"><ele>76.0</ele><time>2026-04-26T15:22:22Z</time></trkpt><trkpt lat="43.49117681435093" lon="13.227914523482468"><ele>78.0</ele><time>2026-04-26T15:22:23Z</time></trkpt><trkpt lat="43.49101198128469" lon="13.227550435639431"><ele>78.0</ele><time>2026-04-26T15:22:24Z</time></trkpt><trkpt lat="43.490846123586756" lon="13.227185725439101"><ele>78.0</ele><time>2026-04-26T15:22:25Z</time></trkpt><trkpt lat="43.49068302781384" lon="13.22681818900296"><ele>77.5</ele><time>2026-04-26T15:22:26Z</time></trkpt><trkpt lat="43.490521568664406" lon="13.226447519227646"><ele>77.0</ele><time>2026-04-26T15:22:27Z</time></trkpt><trkpt lat="43.4903636366991" lon="13.226071562246037"><ele>77.5</ele><time>2026-04-26T15:22:28Z</time></trkpt><trkpt lat="43.49020604726195" lon="13.225695599575289"><ele>78.0</ele><time>2026-04-26T15:22:29Z</time></trkpt><trkpt lat="43.49004717983645" lon="13.225321175692097"><ele>78.0</ele><time>2026-04-26T15:22:30Z</time></trkpt><trkpt lat="43.48989102417296" lon="13.224942979198161"><ele>78.0</ele><time>2026-04-26T15:22:31Z</time></trkpt><trkpt lat="43.48973890958357" lon="13.224559807168417"><ele>79.5</ele><time>2026-04-26T15:22:32Z</time></trkpt><trkpt lat="43.489588471969775" lon="13.224173007188302"><ele>81.0</ele><time>2026-04-26T15:22:33Z</time></trkpt><trkpt lat="43.489439232279814" lon="13.223781602745298"><ele>81.0</ele><time>2026-04-26T15:22:34Z</time></trkpt><trkpt lat="43.489290938480316" lon="13.223389085094698"><ele>81.0</ele><time>2026-04-26T15:22:35Z</time></trkpt><trkpt lat="43.48914307388319" lon="13.222993987770083"><ele>80.5</ele><time>2026-04-26T15:22:36Z</time></trkpt><trkpt lat="43.48899746514077" lon="13.222596610315728"><ele>80.0</ele><time>2026-04-26T15:22:37Z</time></trkpt><trkpt lat="43.488850929680154" lon="13.222199138802562"><ele>81.0</ele><time>2026-04-26T15:22:38Z</time></trkpt><trkpt lat="43.488705007405215" lon="13.22180259481317"><ele>82.0</ele><time>2026-04-26T15:22:39Z</time></trkpt><trkpt lat="43.48855819888325" lon="13.22140445348301"><ele>83.0</ele><time>2026-04-26T15:22:40Z</time></trkpt><trkpt lat="43.48840910179613" lon="13.221007784681722"><ele>84.0</ele><time>2026-04-26T15:22:41Z</time></trkpt><trkpt lat="43.48826665896132" lon="13.22060759524113"><ele>84.0</ele><time>2026-04-26T15:22:42Z</time></trkpt><trkpt lat="43.488119016762475" lon="13.220209857632177"><ele>84.0</ele><time>2026-04-26T15:22:43Z</time></trkpt><trkpt lat="43.487973114056096" lon="13.219812079686452"><ele>84.5</ele><time>2026-04-26T15:22:44Z</time></trkpt><trkpt lat="43.48782466239412" lon="13.21941560529922"><ele>85.0</ele><time>2026-04-26T15:22:45Z</time></trkpt><trkpt lat="43.48767593426723" lon="13.219019002466085"><ele>84.5</ele><time>2026-04-26T15:22:46Z</time></trkpt><trkpt lat="43.4875280087201" lon="13.218624093056096"><ele>84.0</ele><time>2026-04-26T15:22:47Z</time></trkpt><trkpt lat="43.4873809863632" lon="13.218227341587333"><ele>84.5</ele><time>2026-04-26T15:22:48Z</time></trkpt><trkpt lat="43.48723612636359" lon="13.217830325757452"><ele>85.0</ele><time>2026-04-26T15:22:49Z</time></trkpt><trkpt lat="43.48709004011346" lon="13.217432824253263"><ele>86.0</ele><time>2026-04-26T15:22:50Z</time></trkpt><trkpt lat="43.486943161228666" lon="13.217035108777837"><ele>87.0</ele><time>2026-04-26T15:22:51Z</time></trkpt><trkpt lat="43.48679433253849" lon="13.216636339231009"><ele>86.0</ele><time>2026-04-26T15:22:52Z</time></trkpt><trkpt lat="43.486645322931196" lon="13.21623856570775"><ele>85.0</ele><time>2026-04-26T15:22:53Z</time></trkpt><trkpt lat="43.48649808332244" lon="13.215837235169731"><ele>85.5</ele><time>2026-04-26T15:22:54Z</time></trkpt><trkpt lat="43.48634983985004" lon="13.21543249510236"><ele>86.0</ele><time>2026-04-26T15:22:55Z</time></trkpt><trkpt lat="43.486200480464035" lon="13.215029924731999"><ele>86.0</ele><time>2026-04-26T15:22:56Z</time></trkpt><trkpt lat="43.48605145227264" lon="13.214624057294689"><ele>86.0</ele><time>2026-04-26T15:22:57Z</time></trkpt><trkpt lat="43.4859014916897" lon="13.214216549094058"><ele>85.5</ele><time>2026-04-26T15:22:58Z</time></trkpt><trkpt lat="43.485752753856" lon="13.21380747398726"><ele>85.0</ele><time>2026-04-26T15:22:59Z</time></trkpt><trkpt lat="43.48561020879956" lon="13.21339503110751"><ele>85.0</ele><time>2026-04-26T15:23:00Z</time></trkpt><trkpt lat="43.48547774658777" lon="13.212974008610363"><ele>85.0</ele><time>2026-04-26T15:23:01Z</time></trkpt><trkpt lat="43.48535664845119" lon="13.212545801422406"><ele>85.5</ele><time>2026-04-26T15:23:02Z</time></trkpt><trkpt lat="43.48524675996699" lon="13.212113503569523"><ele>86.0</ele><time>2026-04-26T15:23:03Z</time></trkpt><trkpt lat="43.48515034732206" lon="13.211674561912915"><ele>85.5</ele><time>2026-04-26T15:23:04Z</time></trkpt><trkpt lat="43.48506686148797" lon="13.211231697849156"><ele>85.0</ele><time>2026-04-26T15:23:05Z</time></trkpt><trkpt lat="43.48499528546567" lon="13.210782765954452"><ele>86.5</ele><time>2026-04-26T15:23:06Z</time></trkpt><trkpt lat="43.48493429033596" lon="13.210332510759798"><ele>88.0</ele><time>2026-04-26T15:23:07Z</time></trkpt><trkpt lat="43.48488389468176" lon="13.209879267018303"><ele>87.5</ele><time>2026-04-26T15:23:08Z</time></trkpt><trkpt lat="43.4848460480748" lon="13.209423250216972"><ele>87.0</ele><time>2026-04-26T15:23:09Z</time></trkpt><trkpt lat="43.4848197317688" lon="13.208965519631318"><ele>87.0</ele><time>2026-04-26T15:23:10Z</time></trkpt><trkpt lat="43.484805071181945" lon="13.208508631890846"><ele>87.0</ele><time>2026-04-26T15:23:11Z</time></trkpt><trkpt lat="43.4848053647279" lon="13.208050721014656"><ele>87.0</ele><time>2026-04-26T15:23:12Z</time></trkpt><trkpt lat="43.484821460578026" lon="13.207594010204117"><ele>87.0</ele><time>2026-04-26T15:23:13Z</time></trkpt><trkpt lat="43.484847791634984" lon="13.207137213292164"><ele>87.0</ele><time>2026-04-26T15:23:13.999Z</time></trkpt><trkpt lat="43.48488624326488" lon="13.206682206020368"><ele>87.0</ele><time>2026-04-26T15:23:14.999Z</time></trkpt><trkpt lat="43.4849311898684" lon="13.206227321517574"><ele>87.5</ele><time>2026-04-26T15:23:15.999Z</time></trkpt><trkpt lat="43.48498407312088" lon="13.205776623156247"><ele>88.0</ele><time>2026-04-26T15:23:16.999Z</time></trkpt><trkpt lat="43.48505957723454" lon="13.20532690006217"><ele>88.0</ele><time>2026-04-26T15:23:17.999Z</time></trkpt><trkpt lat="43.48514678408795" lon="13.204880260441593"><ele>88.0</ele><time>2026-04-26T15:23:18.999Z</time></trkpt><trkpt lat="43.48524574014438" lon="13.20443909419593"><ele>88.5</ele><time>2026-04-26T15:23:19.999Z</time></trkpt><trkpt lat="43.48536035300488" lon="13.204005795032527"><ele>89.0</ele><time>2026-04-26T15:23:20.999Z</time></trkpt><trkpt lat="43.48548215800166" lon="13.203575272261244"><ele>88.5</ele><time>2026-04-26T15:23:21.999Z</time></trkpt><trkpt lat="43.485603985162" lon="13.203143557460104"><ele>88.0</ele><time>2026-04-26T15:23:22.999Z</time></trkpt><trkpt lat="43.48572376141296" lon="13.202714744050448"><ele>88.0</ele><time>2026-04-26T15:23:23.999Z</time></trkpt><trkpt lat="43.485842154812026" lon="13.202279774504058"><ele>88.0</ele><time>2026-04-26T15:23:24.999Z</time></trkpt><trkpt lat="43.48594824895849" lon="13.201839834740126"><ele>88.0</ele><time>2026-04-26T15:23:25.999Z</time></trkpt><trkpt lat="43.486045056518044" lon="13.201393990546393"><ele>88.0</ele><time>2026-04-26T15:23:26.999Z</time></trkpt><trkpt lat="43.48613191467941" lon="13.200945808751113"><ele>88.0</ele><time>2026-04-26T15:23:27.999Z</time></trkpt><trkpt lat="43.48620822789387" lon="13.200494017651181"><ele>88.0</ele><time>2026-04-26T15:23:28.999Z</time></trkpt><trkpt lat="43.486269161968075" lon="13.200040334507555"><ele>88.0</ele><time>2026-04-26T15:23:29.999Z</time></trkpt><trkpt lat="43.486318825374624" lon="13.19958396332977"><ele>88.0</ele><time>2026-04-26T15:23:30.999Z</time></trkpt><trkpt lat="43.4863501733625" lon="13.199130859420508"><ele>89.0</ele><time>2026-04-26T15:23:31.999Z</time></trkpt><trkpt lat="43.48637345243934" lon="13.198671446640354"><ele>90.0</ele><time>2026-04-26T15:23:32.999Z</time></trkpt><trkpt lat="43.48638433974356" lon="13.198214195739682"><ele>89.0</ele><time>2026-04-26T15:23:33.999Z</time></trkpt><trkpt lat="43.48639260824138" lon="13.197757101454346"><ele>88.0</ele><time>2026-04-26T15:23:34.999Z</time></trkpt><trkpt lat="43.48640491023459" lon="13.197301967044059"><ele>88.0</ele><time>2026-04-26T15:23:35.999Z</time></trkpt><trkpt lat="43.48642434700939" lon="13.196846430370012"><ele>88.0</ele><time>2026-04-26T15:23:36.999Z</time></trkpt><trkpt lat="43.486454006474155" lon="13.196392726231469"><ele>88.0</ele><time>2026-04-26T15:23:37.999Z</time></trkpt><trkpt lat="43.48650060437732" lon="13.19594091601682"><ele>88.0</ele><time>2026-04-26T15:23:38.999Z</time></trkpt><trkpt lat="43.48655592840249" lon="13.195492340424689"><ele>89.5</ele><time>2026-04-26T15:23:39.999Z</time></trkpt><trkpt lat="43.48661937707306" lon="13.19504450945521"><ele>91.0</ele><time>2026-04-26T15:23:40.999Z</time></trkpt><trkpt lat="43.486696113297036" lon="13.194601185494824"><ele>91.0</ele><time>2026-04-26T15:23:41.999Z</time></trkpt><trkpt lat="43.486783792582216" lon="13.194162877536572"><ele>91.0</ele><time>2026-04-26T15:23:42.999Z</time></trkpt><trkpt lat="43.486885922126646" lon="13.193727804136618"><ele>91.0</ele><time>2026-04-26T15:23:43.999Z</time></trkpt><trkpt lat="43.48700983998824" lon="13.19330599944996"><ele>91.0</ele><time>2026-04-26T15:23:44.999Z</time></trkpt><trkpt lat="43.48713878734212" lon="13.192893869910915"><ele>92.0</ele><time>2026-04-26T15:23:45.999Z</time></trkpt><trkpt lat="43.48727277137535" lon="13.192481511216917"><ele>93.0</ele><time>2026-04-26T15:23:46.999Z</time></trkpt><trkpt lat="43.48742081211309" lon="13.192068632992516"><ele>93.0</ele><time>2026-04-26T15:23:47.999Z</time></trkpt><trkpt lat="43.48756586567344" lon="13.191658921867958"><ele>93.0</ele><time>2026-04-26T15:23:48.999Z</time></trkpt><trkpt lat="43.48770675726803" lon="13.191253106171626"><ele>93.0</ele><time>2026-04-26T15:23:49.999Z</time></trkpt><trkpt lat="43.487845805758084" lon="13.190848789582365"><ele>93.0</ele><time>2026-04-26T15:23:50.999Z</time></trkpt><trkpt lat="43.48798776476012" lon="13.190443558508138"><ele>93.0</ele><time>2026-04-26T15:23:51.999Z</time></trkpt><trkpt lat="43.488130712365084" lon="13.190036591736545"><ele>93.0</ele><time>2026-04-26T15:23:52.999Z</time></trkpt><trkpt lat="43.488273365897626" lon="13.189630727673736"><ele>93.0</ele><time>2026-04-26T15:23:53.999Z</time></trkpt><trkpt lat="43.488415268241646" lon="13.18922359464804"><ele>93.0</ele><time>2026-04-26T15:23:54.999Z</time></trkpt><trkpt lat="43.48856022794416" lon="13.188814719659943"><ele>92.0</ele><time>2026-04-26T15:23:55.999Z</time></trkpt><trkpt lat="43.488700368276035" lon="13.188410099239968"><ele>91.0</ele><time>2026-04-26T15:23:56.999Z</time></trkpt><trkpt lat="43.488848925780566" lon="13.188010982575387"><ele>92.0</ele><time>2026-04-26T15:23:57.999Z</time></trkpt><trkpt lat="43.489004034962406" lon="13.18760863771901"><ele>93.0</ele><time>2026-04-26T15:23:58.999Z</time></trkpt><trkpt lat="43.48915190908568" lon="13.1872150389822"><ele>93.0</ele><time>2026-04-26T15:23:59.999Z</time></trkpt><trkpt lat="43.489308883808015" lon="13.186806578683349"><ele>93.0</ele><time>2026-04-26T15:24:00.999Z</time></trkpt><trkpt lat="43.489463930917296" lon="13.18640271382759"><ele>92.0</ele><time>2026-04-26T15:24:01.999Z</time></trkpt><trkpt lat="43.48962774529618" lon="13.186000386191544"><ele>91.0</ele><time>2026-04-26T15:24:02.999Z</time></trkpt><trkpt lat="43.48978634734222" lon="13.185602191593839"><ele>91.0</ele><time>2026-04-26T15:24:03.999Z</time></trkpt><trkpt lat="43.48994923645109" lon="13.185204290902435"><ele>91.0</ele><time>2026-04-26T15:24:04.999Z</time></trkpt><trkpt lat="43.49010839091636" lon="13.184811878503318"><ele>92.0</ele><time>2026-04-26T15:24:05.999Z</time></trkpt><trkpt lat="43.49026699439519" lon="13.18442643468707"><ele>93.0</ele><time>2026-04-26T15:24:06.999Z</time></trkpt><trkpt lat="43.49040732480474" lon="13.184051120163677"><ele>89.5</ele><time>2026-04-26T15:24:07.999Z</time></trkpt><trkpt lat="43.49055285371692" lon="13.1836641211834"><ele>86.0</ele><time>2026-04-26T15:24:08.999Z</time></trkpt><trkpt lat="43.490688274365546" lon="13.183308142402634"><ele>86.0</ele><time>2026-04-26T15:24:09.999Z</time></trkpt><trkpt lat="43.49081815910836" lon="13.18295541920794"><ele>86.0</ele><time>2026-04-26T15:24:10.999Z</time></trkpt><trkpt lat="43.490945947338254" lon="13.182608207879941"><ele>86.5</ele><time>2026-04-26T15:24:11.999Z</time></trkpt><trkpt lat="43.491075487346194" lon="13.182260806170603"><ele>87.0</ele><time>2026-04-26T15:24:12.999Z</time></trkpt><trkpt lat="43.49120299259767" lon="13.181897777669725"><ele>86.0</ele><time>2026-04-26T15:24:13.999Z</time></trkpt><trkpt lat="43.49133041735265" lon="13.181543420928788"><ele>85.0</ele><time>2026-04-26T15:24:14.999Z</time></trkpt><trkpt lat="43.49145563795658" lon="13.181181687480239"><ele>85.0</ele><time>2026-04-26T15:24:15.999Z</time></trkpt><trkpt lat="43.49157685476098" lon="13.18082138273935"><ele>85.0</ele><time>2026-04-26T15:24:16.999Z</time></trkpt><trkpt lat="43.49170560524739" lon="13.180457693356091"><ele>84.5</ele><time>2026-04-26T15:24:17.999Z</time></trkpt><trkpt lat="43.49182733292707" lon="13.180090842876389"><ele>84.0</ele><time>2026-04-26T15:24:18.999Z</time></trkpt><trkpt lat="43.491944538228026" lon="13.179722329853842"><ele>83.5</ele><time>2026-04-26T15:24:19.999Z</time></trkpt><trkpt lat="43.49206035796203" lon="13.179353664056494"><ele>83.0</ele><time>2026-04-26T15:24:20.999Z</time></trkpt><trkpt lat="43.49217716699619" lon="13.178981872624336"><ele>82.5</ele><time>2026-04-26T15:24:21.999Z</time></trkpt><trkpt lat="43.49229208768522" lon="13.178611123273985"><ele>82.0</ele><time>2026-04-26T15:24:22.999Z</time></trkpt><trkpt lat="43.49240611126123" lon="13.178239944990466"><ele>83.0</ele><time>2026-04-26T15:24:23.999Z</time></trkpt><trkpt lat="43.49251762873995" lon="13.177866744987664"><ele>84.0</ele><time>2026-04-26T15:24:24.999Z</time></trkpt><trkpt lat="43.49262575932834" lon="13.17749529859583"><ele>84.0</ele><time>2026-04-26T15:24:25.999Z</time></trkpt><trkpt lat="43.49273270822808" lon="13.177121766142717"><ele>84.0</ele><time>2026-04-26T15:24:26.999Z</time></trkpt><trkpt lat="43.49283890560329" lon="13.176742525330454"><ele>84.0</ele><time>2026-04-26T15:24:28Z</time></trkpt><trkpt lat="43.492939534729956" lon="13.17635917826037"><ele>84.0</ele><time>2026-04-26T15:24:29Z</time></trkpt><trkpt lat="43.49303997791629" lon="13.175978361139572"><ele>84.5</ele><time>2026-04-26T15:24:30Z</time></trkpt><trkpt lat="43.49313672446292" lon="13.175598729981033"><ele>85.0</ele><time>2026-04-26T15:24:31Z</time></trkpt><trkpt lat="43.493234489167996" lon="13.17521741208973"><ele>86.0</ele><time>2026-04-26T15:24:32Z</time></trkpt><trkpt lat="43.493331831600656" lon="13.17483830640313"><ele>87.0</ele><time>2026-04-26T15:24:33Z</time></trkpt><trkpt lat="43.49342403129408" lon="13.174459736241747"><ele>87.0</ele><time>2026-04-26T15:24:34Z</time></trkpt><trkpt lat="43.493518586561294" lon="13.174076908368686"><ele>87.0</ele><time>2026-04-26T15:24:35Z</time></trkpt><trkpt lat="43.49360363810261" lon="13.173693604745623"><ele>86.0</ele><time>2026-04-26T15:24:36Z</time></trkpt><trkpt lat="43.49369671232094" lon="13.173291963644658"><ele>85.0</ele><time>2026-04-26T15:24:37Z</time></trkpt><trkpt lat="43.49378370971468" lon="13.172891981653102"><ele>85.0</ele><time>2026-04-26T15:24:38Z</time></trkpt><trkpt lat="43.49386825481504" lon="13.172480795948841"><ele>85.0</ele><time>2026-04-26T15:24:39Z</time></trkpt><trkpt lat="43.49395392783796" lon="13.172067083314774"><ele>85.0</ele><time>2026-04-26T15:24:40Z</time></trkpt><trkpt lat="43.494048296855645" lon="13.171659986884785"><ele>85.0</ele><time>2026-04-26T15:24:41Z</time></trkpt><trkpt lat="43.4941366114184" lon="13.171236010246556"><ele>85.0</ele><time>2026-04-26T15:24:42Z</time></trkpt><trkpt lat="43.494224315527866" lon="13.170814758153401"><ele>85.0</ele><time>2026-04-26T15:24:43Z</time></trkpt><trkpt lat="43.49431409365022" lon="13.170398129486216"><ele>85.0</ele><time>2026-04-26T15:24:44Z</time></trkpt><trkpt lat="43.49440434237319" lon="13.169975079329644"><ele>85.0</ele><time>2026-04-26T15:24:45Z</time></trkpt><trkpt lat="43.494496312889396" lon="13.16955042680274"><ele>84.5</ele><time>2026-04-26T15:24:46Z</time></trkpt><trkpt lat="43.49459097442407" lon="13.169124927728184"><ele>84.0</ele><time>2026-04-26T15:24:47Z</time></trkpt><trkpt lat="43.494685408594265" lon="13.168698651741579"><ele>84.0</ele><time>2026-04-26T15:24:48Z</time></trkpt><trkpt lat="43.49477619926583" lon="13.168269090504712"><ele>84.0</ele><time>2026-04-26T15:24:49Z</time></trkpt><trkpt lat="43.49486949757255" lon="13.167837901192806"><ele>84.5</ele><time>2026-04-26T15:24:50Z</time></trkpt><trkpt lat="43.49496328668962" lon="13.167406749759811"><ele>85.0</ele><time>2026-04-26T15:24:51Z</time></trkpt><trkpt lat="43.495056620513104" lon="13.166974654886534"><ele>86.0</ele><time>2026-04-26T15:24:52Z</time></trkpt><trkpt lat="43.495138007260955" lon="13.166546667895417"><ele>87.0</ele><time>2026-04-26T15:24:53Z</time></trkpt><trkpt lat="43.49520174484773" lon="13.166109955197745"><ele>87.5</ele><time>2026-04-26T15:24:54Z</time></trkpt><trkpt lat="43.49525431671639" lon="13.165670813725505"><ele>88.0</ele><time>2026-04-26T15:24:55Z</time></trkpt><trkpt lat="43.495297172307396" lon="13.16522734701584"><ele>88.0</ele><time>2026-04-26T15:24:56Z</time></trkpt><trkpt lat="43.49532979315336" lon="13.164782062264441"><ele>88.0</ele><time>2026-04-26T15:24:57Z</time></trkpt><trkpt lat="43.49535154471067" lon="13.164334346745452"><ele>88.5</ele><time>2026-04-26T15:24:58Z</time></trkpt><trkpt lat="43.49536181217414" lon="13.163886528197763"><ele>89.0</ele><time>2026-04-26T15:24:59Z</time></trkpt><trkpt lat="43.49535994644591" lon="13.16343792448526"><ele>89.5</ele><time>2026-04-26T15:25:00Z</time></trkpt><trkpt lat="43.495346265403555" lon="13.162988481188327"><ele>90.0</ele><time>2026-04-26T15:25:01Z</time></trkpt><trkpt lat="43.495321308197035" lon="13.162540937618342"><ele>90.5</ele><time>2026-04-26T15:25:02Z</time></trkpt><trkpt lat="43.49528651505826" lon="13.162096207587771"><ele>91.0</ele><time>2026-04-26T15:25:03Z</time></trkpt><trkpt lat="43.4952370836476" lon="13.161656629554516"><ele>91.0</ele><time>2026-04-26T15:25:04Z</time></trkpt><trkpt lat="43.495172504340864" lon="13.161222026955361"><ele>91.0</ele><time>2026-04-26T15:25:05Z</time></trkpt><trkpt lat="43.49510150211013" lon="13.160788672959756"><ele>91.5</ele><time>2026-04-26T15:25:06Z</time></trkpt><trkpt lat="43.495014842600135" lon="13.160369222306544"><ele>92.0</ele><time>2026-04-26T15:25:07Z</time></trkpt><trkpt lat="43.49492117723796" lon="13.159955996549781"><ele>92.0</ele><time>2026-04-26T15:25:08Z</time></trkpt><trkpt lat="43.494822634548036" lon="13.15954822966492"><ele>92.0</ele><time>2026-04-26T15:25:09Z</time></trkpt><trkpt lat="43.494714618323215" lon="13.159151012755434"><ele>94.0</ele><time>2026-04-26T15:25:10Z</time></trkpt><trkpt lat="43.49459823992548" lon="13.158762556777045"><ele>96.0</ele><time>2026-04-26T15:25:11Z</time></trkpt><trkpt lat="43.49448183861811" lon="13.158373723008156"><ele>99.5</ele><time>2026-04-26T15:25:12Z</time></trkpt><trkpt lat="43.494367122021906" lon="13.157984500814829"><ele>103.0</ele><time>2026-04-26T15:25:12.999Z</time></trkpt><trkpt lat="43.49425236119121" lon="13.157594991119986"><ele>102.5</ele><time>2026-04-26T15:25:13.999Z</time></trkpt><trkpt lat="43.49413800278488" lon="13.157204848775429"><ele>102.0</ele><time>2026-04-26T15:25:14.999Z</time></trkpt><trkpt lat="43.4940224763241" lon="13.15681356851402"><ele>101.5</ele><time>2026-04-26T15:25:15.999Z</time></trkpt><trkpt lat="43.49390598111052" lon="13.156421773270283"><ele>101.0</ele><time>2026-04-26T15:25:16.999Z</time></trkpt><trkpt lat="43.49378956874333" lon="13.156026992864266"><ele>102.5</ele><time>2026-04-26T15:25:17.999Z</time></trkpt><trkpt lat="43.49367142790024" lon="13.155631662264408"><ele>104.0</ele><time>2026-04-26T15:25:18.999Z</time></trkpt><trkpt lat="43.4935541353767" lon="13.155234387088838"><ele>104.0</ele><time>2026-04-26T15:25:19.999Z</time></trkpt><trkpt lat="43.49343720807817" lon="13.154834762803787"><ele>104.0</ele><time>2026-04-26T15:25:20.999Z</time></trkpt><trkpt lat="43.493319539623144" lon="13.154432018645277"><ele>103.0</ele><time>2026-04-26T15:25:21.999Z</time></trkpt><trkpt lat="43.49320200459391" lon="13.154030945313107"><ele>102.0</ele><time>2026-04-26T15:25:22.999Z</time></trkpt><trkpt lat="43.49309311432417" lon="13.153623819547272"><ele>102.0</ele><time>2026-04-26T15:25:23.999Z</time></trkpt><trkpt lat="43.49300054913587" lon="13.153209154746094"><ele>102.0</ele><time>2026-04-26T15:25:24.999Z</time></trkpt><trkpt lat="43.49293072135" lon="13.15278610074538"><ele>103.5</ele><time>2026-04-26T15:25:25.999Z</time></trkpt><trkpt lat="43.49288264557692" lon="13.15235245843385"><ele>105.0</ele><time>2026-04-26T15:25:26.999Z</time></trkpt><trkpt lat="43.49285066053574" lon="13.151916450611422"><ele>106.0</ele><time>2026-04-26T15:25:27.999Z</time></trkpt><trkpt lat="43.49283549797442" lon="13.151475494417074"><ele>107.0</ele><time>2026-04-26T15:25:28.999Z</time></trkpt><trkpt lat="43.492836581921274" lon="13.151035864591758"><ele>107.0</ele><time>2026-04-26T15:25:29.999Z</time></trkpt><trkpt lat="43.49285659700343" lon="13.150593704172078"><ele>107.0</ele><time>2026-04-26T15:25:30.999Z</time></trkpt><trkpt lat="43.492898799831856" lon="13.150152441791212"><ele>103.0</ele><time>2026-04-26T15:25:31.999Z</time></trkpt><trkpt lat="43.492959834143214" lon="13.14971617028178"><ele>99.0</ele><time>2026-04-26T15:25:32.999Z</time></trkpt><trkpt lat="43.49303890378542" lon="13.14928227913075"><ele>101.0</ele><time>2026-04-26T15:25:33.999Z</time></trkpt><trkpt lat="43.49313609179141" lon="13.148851450886596"><ele>103.0</ele><time>2026-04-26T15:25:34.999Z</time></trkpt><trkpt lat="43.49325299415539" lon="13.148430141163264"><ele>104.0</ele><time>2026-04-26T15:25:35.999Z</time></trkpt><trkpt lat="43.49339431590096" lon="13.148017421277206"><ele>105.0</ele><time>2026-04-26T15:25:36.999Z</time></trkpt><trkpt lat="43.49354188153824" lon="13.147609484076135"><ele>105.5</ele><time>2026-04-26T15:25:37.999Z</time></trkpt><trkpt lat="43.493686935241726" lon="13.147197481147671"><ele>106.0</ele><time>2026-04-26T15:25:38.999Z</time></trkpt><trkpt lat="43.49383077500173" lon="13.146780584851781"><ele>102.0</ele><time>2026-04-26T15:25:39.999Z</time></trkpt><trkpt lat="43.493973689815626" lon="13.146360031989113"><ele>98.0</ele><time>2026-04-26T15:25:40.999Z</time></trkpt><trkpt lat="43.49411808160948" lon="13.145937076684731"><ele>97.5</ele><time>2026-04-26T15:25:41.999Z</time></trkpt><trkpt lat="43.494265263235995" lon="13.145514852960051"><ele>97.0</ele><time>2026-04-26T15:25:42.999Z</time></trkpt><trkpt lat="43.49440948154765" lon="13.145089808440542"><ele>97.0</ele><time>2026-04-26T15:25:43.999Z</time></trkpt><trkpt lat="43.49455071023762" lon="13.144660494328612"><ele>97.0</ele><time>2026-04-26T15:25:44.999Z</time></trkpt><trkpt lat="43.49468062802746" lon="13.144208180624814"><ele>96.0</ele><time>2026-04-26T15:25:45.999Z</time></trkpt><trkpt lat="43.49479740549892" lon="13.143772400700549"><ele>95.0</ele><time>2026-04-26T15:25:46.999Z</time></trkpt><trkpt lat="43.49489683278919" lon="13.143322408090784"><ele>96.0</ele><time>2026-04-26T15:25:47.999Z</time></trkpt><trkpt lat="43.494985556717985" lon="13.142869492417299"><ele>97.0</ele><time>2026-04-26T15:25:48.999Z</time></trkpt><trkpt lat="43.49506222881018" lon="13.142413973183002"><ele>97.0</ele><time>2026-04-26T15:25:49.999Z</time></trkpt><trkpt lat="43.49512979868198" lon="13.141955855802138"><ele>97.0</ele><time>2026-04-26T15:25:50.999Z</time></trkpt><trkpt lat="43.495183266530056" lon="13.141495423177437"><ele>97.0</ele><time>2026-04-26T15:25:51.999Z</time></trkpt><trkpt lat="43.495229799925625" lon="13.141034765863987"><ele>97.0</ele><time>2026-04-26T15:25:52.999Z</time></trkpt><trkpt lat="43.49527139056" lon="13.140572016387921"><ele>97.5</ele><time>2026-04-26T15:25:53.999Z</time></trkpt><trkpt lat="43.4953143019723" lon="13.14010774380592"><ele>98.0</ele><time>2026-04-26T15:25:54.999Z</time></trkpt><trkpt lat="43.495358999280874" lon="13.139645270646476"><ele>98.0</ele><time>2026-04-26T15:25:55.999Z</time></trkpt><trkpt lat="43.49540630162714" lon="13.139182811124591"><ele>98.0</ele><time>2026-04-26T15:25:56.999Z</time></trkpt><trkpt lat="43.49544927508362" lon="13.138720462421835"><ele>98.0</ele><time>2026-04-26T15:25:57.999Z</time></trkpt><trkpt lat="43.49548335543833" lon="13.138257661190204"><ele>98.0</ele><time>2026-04-26T15:25:58.999Z</time></trkpt><trkpt lat="43.49550015090453" lon="13.1377917204025"><ele>98.0</ele><time>2026-04-26T15:25:59.999Z</time></trkpt><trkpt lat="43.49550517949153" lon="13.137326986040042"><ele>98.0</ele><time>2026-04-26T15:26:00.999Z</time></trkpt><trkpt lat="43.49549937379739" lon="13.136861021544835"><ele>97.5</ele><time>2026-04-26T15:26:01.999Z</time></trkpt><trkpt lat="43.495479651053195" lon="13.136399311513621"><ele>97.0</ele><time>2026-04-26T15:26:02.999Z</time></trkpt><trkpt lat="43.495447222599935" lon="13.135939178373334"><ele>98.0</ele><time>2026-04-26T15:26:03.999Z</time></trkpt><trkpt lat="43.495402325050335" lon="13.1354812789775"><ele>99.0</ele><time>2026-04-26T15:26:04.999Z</time></trkpt><trkpt lat="43.495343535529116" lon="13.135027476507542"><ele>100.0</ele><time>2026-04-26T15:26:05.999Z</time></trkpt><trkpt lat="43.49527761519359" lon="13.134572952570318"><ele>101.0</ele><time>2026-04-26T15:26:06.999Z</time></trkpt><trkpt lat="43.49520838635105" lon="13.134122459972186"><ele>101.0</ele><time>2026-04-26T15:26:07.999Z</time></trkpt><trkpt lat="43.49513932654147" lon="13.133670212458641"><ele>101.0</ele><time>2026-04-26T15:26:08.999Z</time></trkpt><trkpt lat="43.49507160369007" lon="13.133218770494247"><ele>101.0</ele><time>2026-04-26T15:26:09.999Z</time></trkpt><trkpt lat="43.49500398590169" lon="13.132765942411933"><ele>101.0</ele><time>2026-04-26T15:26:10.999Z</time></trkpt><trkpt lat="43.49493930851521" lon="13.132315702666704"><ele>101.0</ele><time>2026-04-26T15:26:11.999Z</time></trkpt><trkpt lat="43.49488074716009" lon="13.131861531541746"><ele>101.0</ele><time>2026-04-26T15:26:12.999Z</time></trkpt><trkpt lat="43.49483606994287" lon="13.13140550513291"><ele>101.5</ele><time>2026-04-26T15:26:13.999Z</time></trkpt><trkpt lat="43.49480458090191" lon="13.130948188594195"><ele>102.0</ele><time>2026-04-26T15:26:14.999Z</time></trkpt><trkpt lat="43.49478858296813" lon="13.130488626259991"><ele>102.0</ele><time>2026-04-26T15:26:15.999Z</time></trkpt><trkpt lat="43.494785809718024" lon="13.130026641240924"><ele>102.0</ele><time>2026-04-26T15:26:16.999Z</time></trkpt><trkpt lat="43.49479025978047" lon="13.12956529440062"><ele>102.0</ele><time>2026-04-26T15:26:17.999Z</time></trkpt><trkpt lat="43.49480079236154" lon="13.1291068342606"><ele>102.0</ele><time>2026-04-26T15:26:18.999Z</time></trkpt><trkpt lat="43.494811552406965" lon="13.12864479681628"><ele>102.0</ele><time>2026-04-26T15:26:19.999Z</time></trkpt><trkpt lat="43.494819009841336" lon="13.128185537842635"><ele>102.0</ele><time>2026-04-26T15:26:20.999Z</time></trkpt><trkpt lat="43.4948268055812" lon="13.127724251118781"><ele>103.0</ele><time>2026-04-26T15:26:21.999Z</time></trkpt><trkpt lat="43.4948344882256" lon="13.12726576902334"><ele>104.0</ele><time>2026-04-26T15:26:22.999Z</time></trkpt><trkpt lat="43.49484394664222" lon="13.12680735261357"><ele>103.5</ele><time>2026-04-26T15:26:23.999Z</time></trkpt><trkpt lat="43.49485343149687" lon="13.126353806696077"><ele>103.0</ele><time>2026-04-26T15:26:24.999Z</time></trkpt><trkpt lat="43.49486459408226" lon="13.125902729116232"><ele>102.5</ele><time>2026-04-26T15:26:25.999Z</time></trkpt><trkpt lat="43.494872827307745" lon="13.125457771882141"><ele>102.0</ele><time>2026-04-26T15:26:26.999Z</time></trkpt><trkpt lat="43.494883375933036" lon="13.125015265532518"><ele>102.0</ele><time>2026-04-26T15:26:27.998Z</time></trkpt><trkpt lat="43.49488862566466" lon="13.124574095286656"><ele>102.0</ele><time>2026-04-26T15:26:28.998Z</time></trkpt><trkpt lat="43.494899084950376" lon="13.124134151975932"><ele>102.5</ele><time>2026-04-26T15:26:29.998Z</time></trkpt><trkpt lat="43.494908977870935" lon="13.123687578458275"><ele>103.0</ele><time>2026-04-26T15:26:30.998Z</time></trkpt><trkpt lat="43.49491854698996" lon="13.123238626580726"><ele>102.5</ele><time>2026-04-26T15:26:31.998Z</time></trkpt><trkpt lat="43.49492778706864" lon="13.122785806966968"><ele>102.0</ele><time>2026-04-26T15:26:33Z</time></trkpt><trkpt lat="43.49493879517776" lon="13.12233491089425"><ele>102.0</ele><time>2026-04-26T15:26:34Z</time></trkpt><trkpt lat="43.494948592007276" lon="13.1218852975338"><ele>102.0</ele><time>2026-04-26T15:26:35Z</time></trkpt><trkpt lat="43.494957147578546" lon="13.121451956031565"><ele>102.0</ele><time>2026-04-26T15:26:36Z</time></trkpt><trkpt lat="43.49496618103191" lon="13.121041679288151"><ele>102.0</ele><time>2026-04-26T15:26:37Z</time></trkpt><trkpt lat="43.49497432612331" lon="13.120644768210324"><ele>103.0</ele><time>2026-04-26T15:26:38Z</time></trkpt><trkpt lat="43.49498213681865" lon="13.12025255803759"><ele>104.0</ele><time>2026-04-26T15:26:39Z</time></trkpt><trkpt lat="43.494990529073185" lon="13.119857911844845"><ele>104.5</ele><time>2026-04-26T15:26:40Z</time></trkpt><trkpt lat="43.49499912812694" lon="13.11946322409711"><ele>105.0</ele><time>2026-04-26T15:26:41Z</time></trkpt><trkpt lat="43.49500745347787" lon="13.119070666821308"><ele>104.5</ele><time>2026-04-26T15:26:42Z</time></trkpt><trkpt lat="43.4950123462388" lon="13.118679732762327"><ele>104.0</ele><time>2026-04-26T15:26:43Z</time></trkpt><trkpt lat="43.49501835696318" lon="13.118285167670415"><ele>104.0</ele><time>2026-04-26T15:26:44Z</time></trkpt><trkpt lat="43.49502272639112" lon="13.117883398083901"><ele>104.0</ele><time>2026-04-26T15:26:45Z</time></trkpt><trkpt lat="43.49501944125253" lon="13.117476967978464"><ele>104.5</ele><time>2026-04-26T15:26:46Z</time></trkpt><trkpt lat="43.495005112120154" lon="13.117066575035656"><ele>105.0</ele><time>2026-04-26T15:26:47Z</time></trkpt><trkpt lat="43.49498024593794" lon="13.116654749439572"><ele>104.5</ele><time>2026-04-26T15:26:48Z</time></trkpt><trkpt lat="43.49494861504554" lon="13.116248437132153"><ele>104.0</ele><time>2026-04-26T15:26:49Z</time></trkpt><trkpt lat="43.49491235787319" lon="13.11584389254869"><ele>103.5</ele><time>2026-04-26T15:26:50Z</time></trkpt><trkpt lat="43.494868215161425" lon="13.115443143766026"><ele>103.0</ele><time>2026-04-26T15:26:51Z</time></trkpt><trkpt lat="43.494813613469184" lon="13.115045456145058"><ele>102.5</ele><time>2026-04-26T15:26:52Z</time></trkpt><trkpt lat="43.494750372345614" lon="13.114652123477612"><ele>102.0</ele><time>2026-04-26T15:26:53Z</time></trkpt><trkpt lat="43.4946840485663" lon="13.114261788185843"><ele>102.0</ele><time>2026-04-26T15:26:54Z</time></trkpt><trkpt lat="43.49461891977985" lon="13.113872856577231"><ele>102.0</ele><time>2026-04-26T15:26:55Z</time></trkpt><trkpt lat="43.49454824904534" lon="13.113488213804857"><ele>103.0</ele><time>2026-04-26T15:26:56Z</time></trkpt><trkpt lat="43.494470660129416" lon="13.113108792921956"><ele>104.0</ele><time>2026-04-26T15:26:57Z</time></trkpt><trkpt lat="43.494381329789235" lon="13.11272417211108"><ele>104.5</ele><time>2026-04-26T15:26:58Z</time></trkpt><trkpt lat="43.494286803227126" lon="13.112338782342007"><ele>105.0</ele><time>2026-04-26T15:26:59Z</time></trkpt><trkpt lat="43.49418802153908" lon="13.111951780688761"><ele>104.5</ele><time>2026-04-26T15:27:00Z</time></trkpt><trkpt lat="43.49408343677608" lon="13.111566222830602"><ele>104.0</ele><time>2026-04-26T15:27:01Z</time></trkpt><trkpt lat="43.493970583280195" lon="13.111181930189305"><ele>104.0</ele><time>2026-04-26T15:27:02Z</time></trkpt><trkpt lat="43.493848083557744" lon="13.11080111662069"><ele>104.0</ele><time>2026-04-26T15:27:03Z</time></trkpt><trkpt lat="43.493717377557054" lon="13.110421330980383"><ele>105.0</ele><time>2026-04-26T15:27:04Z</time></trkpt><trkpt lat="43.4935808405076" lon="13.110044706798325"><ele>106.0</ele><time>2026-04-26T15:27:05Z</time></trkpt><trkpt lat="43.49343865032538" lon="13.109670529944747"><ele>106.5</ele><time>2026-04-26T15:27:06Z</time></trkpt><trkpt lat="43.493289421789" lon="13.10929937922599"><ele>107.0</ele><time>2026-04-26T15:27:07Z</time></trkpt><trkpt lat="43.49313733017264" lon="13.108927789702067"><ele>107.0</ele><time>2026-04-26T15:27:08Z</time></trkpt><trkpt lat="43.492984452499385" lon="13.108557814518093"><ele>107.0</ele><time>2026-04-26T15:27:09Z</time></trkpt><trkpt lat="43.492829244742886" lon="13.108184882413033"><ele>107.5</ele><time>2026-04-26T15:27:10Z</time></trkpt><trkpt lat="43.49267245374923" lon="13.10781211852719"><ele>108.0</ele><time>2026-04-26T15:27:11Z</time></trkpt><trkpt lat="43.49251327532064" lon="13.107437171629055"><ele>108.0</ele><time>2026-04-26T15:27:12Z</time></trkpt><trkpt lat="43.492353631339405" lon="13.107060260248447"><ele>108.0</ele><time>2026-04-26T15:27:13Z</time></trkpt><trkpt lat="43.49219153363592" lon="13.10668580683645"><ele>109.0</ele><time>2026-04-26T15:27:13.999Z</time></trkpt><trkpt lat="43.492023675332575" lon="13.106313504328137"><ele>110.0</ele><time>2026-04-26T15:27:14.999Z</time></trkpt><trkpt lat="43.491853780475296" lon="13.105942152787533"><ele>108.5</ele><time>2026-04-26T15:27:15.999Z</time></trkpt><trkpt lat="43.49167835575678" lon="13.105574525268834"><ele>107.0</ele><time>2026-04-26T15:27:16.999Z</time></trkpt><trkpt lat="43.49149632886081" lon="13.105208815382545"><ele>107.0</ele><time>2026-04-26T15:27:17.999Z</time></trkpt><trkpt lat="43.49131155864183" lon="13.104847126897186"><ele>107.0</ele><time>2026-04-26T15:27:18.999Z</time></trkpt><trkpt lat="43.49112273738453" lon="13.104489560723852"><ele>107.0</ele><time>2026-04-26T15:27:19.999Z</time></trkpt><trkpt lat="43.49093230942204" lon="13.104132099657285"><ele>107.0</ele><time>2026-04-26T15:27:20.999Z</time></trkpt><trkpt lat="43.490739216956214" lon="13.10377614907809"><ele>107.0</ele><time>2026-04-26T15:27:21.999Z</time></trkpt><trkpt lat="43.49054064584752" lon="13.103426149560258"><ele>107.0</ele><time>2026-04-26T15:27:22.999Z</time></trkpt><trkpt lat="43.490334991887785" lon="13.103083106992017"><ele>107.5</ele><time>2026-04-26T15:27:23.999Z</time></trkpt><trkpt lat="43.49012260825631" lon="13.10274639047965"><ele>108.0</ele><time>2026-04-26T15:27:24.999Z</time></trkpt><trkpt lat="43.48990626498814" lon="13.102414297346591"><ele>108.0</ele><time>2026-04-26T15:27:25.999Z</time></trkpt><trkpt lat="43.48968777291561" lon="13.102088047569572"><ele>108.0</ele><time>2026-04-26T15:27:26.999Z</time></trkpt><trkpt lat="43.48946602069488" lon="13.1017673008798"><ele>109.0</ele><time>2026-04-26T15:27:27.999Z</time></trkpt><trkpt lat="43.48924250102703" lon="13.10145010300376"><ele>110.0</ele><time>2026-04-26T15:27:28.999Z</time></trkpt><trkpt lat="43.48901629035206" lon="13.101138192022294"><ele>110.0</ele><time>2026-04-26T15:27:29.999Z</time></trkpt><trkpt lat="43.48878576375553" lon="13.100832348109002"><ele>110.0</ele><time>2026-04-26T15:27:30.999Z</time></trkpt><trkpt lat="43.488549417482574" lon="13.100535036169525"><ele>110.5</ele><time>2026-04-26T15:27:31.999Z</time></trkpt><trkpt lat="43.48831375837548" lon="13.100237394757889"><ele>111.0</ele><time>2026-04-26T15:27:32.999Z</time></trkpt><trkpt lat="43.4880769649051" lon="13.09994422848534"><ele>111.0</ele><time>2026-04-26T15:27:33.999Z</time></trkpt><trkpt lat="43.487840440730395" lon="13.09965075201344"><ele>111.0</ele><time>2026-04-26T15:27:34.999Z</time></trkpt><trkpt lat="43.487603118940726" lon="13.09935824776208"><ele>111.0</ele><time>2026-04-26T15:27:35.999Z</time></trkpt><trkpt lat="43.48736490317737" lon="13.099068396562364"><ele>111.0</ele><time>2026-04-26T15:27:36.999Z</time></trkpt><trkpt lat="43.48712731636908" lon="13.098777831790962"><ele>112.5</ele><time>2026-04-26T15:27:37.999Z</time></trkpt><trkpt lat="43.486891578235706" lon="13.098484935821457"><ele>114.0</ele><time>2026-04-26T15:27:38.999Z</time></trkpt><trkpt lat="43.486660050349194" lon="13.09818712861471"><ele>114.0</ele><time>2026-04-26T15:27:39.999Z</time></trkpt><trkpt lat="43.48643036718062" lon="13.097887378396909"><ele>114.0</ele><time>2026-04-26T15:27:40.999Z</time></trkpt><trkpt lat="43.48620014950655" lon="13.097587251226814"><ele>114.0</ele><time>2026-04-26T15:27:41.999Z</time></trkpt><trkpt lat="43.485971448729714" lon="13.09728647882254"><ele>114.0</ele><time>2026-04-26T15:27:42.999Z</time></trkpt><trkpt lat="43.485745901539026" lon="13.096981320501456"><ele>114.0</ele><time>2026-04-26T15:27:43.999Z</time></trkpt><trkpt lat="43.485525934593014" lon="13.096670451595367"><ele>114.0</ele><time>2026-04-26T15:27:44.999Z</time></trkpt><trkpt lat="43.485306963128416" lon="13.096353728418782"><ele>114.0</ele><time>2026-04-26T15:27:45.999Z</time></trkpt><trkpt lat="43.48509368809716" lon="13.096033139141735"><ele>114.0</ele><time>2026-04-26T15:27:46.999Z</time></trkpt><trkpt lat="43.484886935760905" lon="13.095702339024875"><ele>114.0</ele><time>2026-04-26T15:27:47.999Z</time></trkpt><trkpt lat="43.48468887482039" lon="13.095364544598194"><ele>114.0</ele><time>2026-04-26T15:27:48.999Z</time></trkpt><trkpt lat="43.48449574449209" lon="13.0950206971756"><ele>115.5</ele><time>2026-04-26T15:27:49.999Z</time></trkpt><trkpt lat="43.48430449874938" lon="13.094674311448111"><ele>117.0</ele><time>2026-04-26T15:27:50.999Z</time></trkpt><trkpt lat="43.48411086351884" lon="13.094324923075497"><ele>116.5</ele><time>2026-04-26T15:27:51.999Z</time></trkpt><trkpt lat="43.48392101043325" lon="13.093973474253003"><ele>116.0</ele><time>2026-04-26T15:27:52.999Z</time></trkpt><trkpt lat="43.48373519768974" lon="13.093615609777853"><ele>116.0</ele><time>2026-04-26T15:27:53.999Z</time></trkpt><trkpt lat="43.483553437694226" lon="13.093250376726566"><ele>116.0</ele><time>2026-04-26T15:27:54.999Z</time></trkpt><trkpt lat="43.48337668176133" lon="13.092879032326275"><ele>116.0</ele><time>2026-04-26T15:27:55.999Z</time></trkpt><trkpt lat="43.48320319049213" lon="13.092505102345772"><ele>116.0</ele><time>2026-04-26T15:27:56.999Z</time></trkpt><trkpt lat="43.48303199719022" lon="13.092128137707068"><ele>116.0</ele><time>2026-04-26T15:27:57.999Z</time></trkpt><trkpt lat="43.482863081581" lon="13.091746756476624"><ele>116.0</ele><time>2026-04-26T15:27:58.999Z</time></trkpt><trkpt lat="43.48269865027908" lon="13.091359366315046"><ele>117.0</ele><time>2026-04-26T15:27:59.999Z</time></trkpt><trkpt lat="43.48254130263811" lon="13.09096599533503"><ele>118.0</ele><time>2026-04-26T15:28:00.999Z</time></trkpt><trkpt lat="43.48238959972794" lon="13.090566547779805"><ele>119.5</ele><time>2026-04-26T15:28:01.999Z</time></trkpt><trkpt lat="43.48224596182214" lon="13.090162733783723"><ele>121.0</ele><time>2026-04-26T15:28:02.999Z</time></trkpt><trkpt lat="43.48210476047128" lon="13.089758227233077"><ele>121.0</ele><time>2026-04-26T15:28:03.999Z</time></trkpt><trkpt lat="43.48196277002764" lon="13.089350109034678"><ele>121.0</ele><time>2026-04-26T15:28:04.999Z</time></trkpt><trkpt lat="43.481823912161744" lon="13.08894044589694"><ele>121.0</ele><time>2026-04-26T15:28:05.999Z</time></trkpt><trkpt lat="43.48168767852641" lon="13.08852713803633"><ele>121.0</ele><time>2026-04-26T15:28:06.999Z</time></trkpt><trkpt lat="43.48156082279108" lon="13.088108659845226"><ele>121.0</ele><time>2026-04-26T15:28:07.999Z</time></trkpt><trkpt lat="43.48144263213469" lon="13.087684088712521"><ele>121.0</ele><time>2026-04-26T15:28:08.999Z</time></trkpt><trkpt lat="43.4813285075481" lon="13.08725704000285"><ele>121.0</ele><time>2026-04-26T15:28:09.999Z</time></trkpt><trkpt lat="43.48121719387381" lon="13.08682883582207"><ele>121.0</ele><time>2026-04-26T15:28:10.999Z</time></trkpt><trkpt lat="43.48110586894007" lon="13.086402274587158"><ele>121.0</ele><time>2026-04-26T15:28:11.999Z</time></trkpt><trkpt lat="43.48099112568527" lon="13.08597154912928"><ele>121.0</ele><time>2026-04-26T15:28:12.999Z</time></trkpt><trkpt lat="43.48088222341707" lon="13.085537761533589"><ele>121.0</ele><time>2026-04-26T15:28:13.999Z</time></trkpt><trkpt lat="43.480774725664915" lon="13.08510699324781"><ele>121.0</ele><time>2026-04-26T15:28:14.999Z</time></trkpt><trkpt lat="43.480666602903035" lon="13.084673237808039"><ele>122.0</ele><time>2026-04-26T15:28:15.999Z</time></trkpt><trkpt lat="43.48054775062494" lon="13.084245735750022"><ele>123.0</ele><time>2026-04-26T15:28:16.999Z</time></trkpt><trkpt lat="43.480419177669894" lon="13.083822736811888"><ele>123.5</ele><time>2026-04-26T15:28:17.999Z</time></trkpt><trkpt lat="43.480282500067105" lon="13.083404190181904"><ele>124.0</ele><time>2026-04-26T15:28:18.999Z</time></trkpt><trkpt lat="43.4801401187203" lon="13.082990161666395"><ele>124.0</ele><time>2026-04-26T15:28:19.999Z</time></trkpt><trkpt lat="43.47999014338203" lon="13.082582581198361"><ele>124.0</ele><time>2026-04-26T15:28:20.999Z</time></trkpt><trkpt lat="43.479832350409914" lon="13.082182208338034"><ele>124.0</ele><time>2026-04-26T15:28:21.999Z</time></trkpt><trkpt lat="43.479665955734696" lon="13.081791093712766"><ele>124.0</ele><time>2026-04-26T15:28:22.999Z</time></trkpt><trkpt lat="43.47949311922825" lon="13.081409052982655"><ele>124.0</ele><time>2026-04-26T15:28:23.999Z</time></trkpt><trkpt lat="43.47930956312152" lon="13.081036576320257"><ele>124.0</ele><time>2026-04-26T15:28:24.999Z</time></trkpt><trkpt lat="43.47911712256326" lon="13.08067516129141"><ele>124.5</ele><time>2026-04-26T15:28:25.999Z</time></trkpt><trkpt lat="43.478910274498006" lon="13.08033004659697"><ele>125.0</ele><time>2026-04-26T15:28:26.999Z</time></trkpt><trkpt lat="43.478695427618895" lon="13.079997636980083"><ele>125.0</ele><time>2026-04-26T15:28:27.998Z</time></trkpt><trkpt lat="43.47847456496577" lon="13.079669297990204"><ele>125.0</ele><time>2026-04-26T15:28:28.998Z</time></trkpt><trkpt lat="43.47824944591678" lon="13.079350324694628"><ele>124.0</ele><time>2026-04-26T15:28:29.998Z</time></trkpt><trkpt lat="43.47801326537201" lon="13.079047915859125"><ele>123.0</ele><time>2026-04-26T15:28:30.998Z</time></trkpt><trkpt lat="43.47776703010627" lon="13.078760306082648"><ele>123.0</ele><time>2026-04-26T15:28:31.998Z</time></trkpt><trkpt lat="43.477513310748556" lon="13.07848540060923"><ele>123.0</ele><time>2026-04-26T15:28:32.998Z</time></trkpt><trkpt lat="43.477252557656215" lon="13.07822195867254"><ele>124.0</ele><time>2026-04-26T15:28:33.998Z</time></trkpt><trkpt lat="43.476984963599875" lon="13.077973209688027"><ele>125.0</ele><time>2026-04-26T15:28:34.998Z</time></trkpt><trkpt lat="43.47671036838576" lon="13.077740722867215"><ele>125.0</ele><time>2026-04-26T15:28:35.998Z</time></trkpt><trkpt lat="43.476428503118974" lon="13.077524415827368"><ele>125.0</ele><time>2026-04-26T15:28:36.998Z</time></trkpt><trkpt lat="43.476140649694564" lon="13.077322205489462"><ele>123.5</ele><time>2026-04-26T15:28:37.998Z</time></trkpt><trkpt lat="43.47585213627937" lon="13.077121347738505"><ele>122.0</ele><time>2026-04-26T15:28:39Z</time></trkpt><trkpt lat="43.475564643492056" lon="13.076914111581042"><ele>122.5</ele><time>2026-04-26T15:28:40Z</time></trkpt><trkpt lat="43.47527675693845" lon="13.07671093497597"><ele>123.0</ele><time>2026-04-26T15:28:41Z</time></trkpt><trkpt lat="43.474993723157674" lon="13.076506727446889"><ele>123.0</ele><time>2026-04-26T15:28:42Z</time></trkpt><trkpt lat="43.47471036416432" lon="13.076304004004177"><ele>123.0</ele><time>2026-04-26T15:28:43Z</time></trkpt><trkpt lat="43.47442282023067" lon="13.076100996150604"><ele>123.5</ele><time>2026-04-26T15:28:44Z</time></trkpt><trkpt lat="43.474133231328096" lon="13.075894527694805"><ele>124.0</ele><time>2026-04-26T15:28:45Z</time></trkpt><trkpt lat="43.473852595714604" lon="13.07567913894464"><ele>125.0</ele><time>2026-04-26T15:28:46Z</time></trkpt><trkpt lat="43.473571215460474" lon="13.07546537496657"><ele>126.0</ele><time>2026-04-26T15:28:47Z</time></trkpt><trkpt lat="43.4732935498866" lon="13.075252932882043"><ele>126.0</ele><time>2026-04-26T15:28:48Z</time></trkpt><trkpt lat="43.473016941588234" lon="13.075044499575805"><ele>126.0</ele><time>2026-04-26T15:28:49Z</time></trkpt><trkpt lat="43.472738839707525" lon="13.074834848892161"><ele>126.0</ele><time>2026-04-26T15:28:50Z</time></trkpt><trkpt lat="43.472457011536406" lon="13.074616757524723"><ele>126.0</ele><time>2026-04-26T15:28:51Z</time></trkpt><trkpt lat="43.47218100429039" lon="13.074390067611175"><ele>126.0</ele><time>2026-04-26T15:28:52Z</time></trkpt><trkpt lat="43.47190522175438" lon="13.074155819164167"><ele>126.0</ele><time>2026-04-26T15:28:53Z</time></trkpt><trkpt lat="43.47163512999124" lon="13.073915570702077"><ele>126.0</ele><time>2026-04-26T15:28:54Z</time></trkpt><trkpt lat="43.471368156339025" lon="13.073677246581713"><ele>126.0</ele><time>2026-04-26T15:28:55Z</time></trkpt><trkpt lat="43.47110807101104" lon="13.073440828684836"><ele>126.5</ele><time>2026-04-26T15:28:56Z</time></trkpt><trkpt lat="43.47085760334651" lon="13.073210293693657"><ele>127.0</ele><time>2026-04-26T15:28:57Z</time></trkpt><trkpt lat="43.47062304650059" lon="13.072986223911121"><ele>127.5</ele><time>2026-04-26T15:28:58Z</time></trkpt><trkpt lat="43.47039948359287" lon="13.072767662108618"><ele>128.0</ele><time>2026-04-26T15:28:59Z</time></trkpt><trkpt lat="43.4701881426373" lon="13.07255473117443"><ele>127.5</ele><time>2026-04-26T15:29:00Z</time></trkpt><trkpt lat="43.46998732198136" lon="13.072338839352797"><ele>127.0</ele><time>2026-04-26T15:29:01Z</time></trkpt><trkpt lat="43.46978667530245" lon="13.072122268175752"><ele>127.5</ele><time>2026-04-26T15:29:02Z</time></trkpt><trkpt lat="43.46958597642421" lon="13.071902588687339"><ele>128.0</ele><time>2026-04-26T15:29:03Z</time></trkpt><trkpt lat="43.469385152073464" lon="13.071679538911688"><ele>128.0</ele><time>2026-04-26T15:29:04Z</time></trkpt><trkpt lat="43.46918745617218" lon="13.071451998812838"><ele>128.0</ele><time>2026-04-26T15:29:05Z</time></trkpt><trkpt lat="43.46898993584925" lon="13.07121765054449"><ele>128.0</ele><time>2026-04-26T15:29:06Z</time></trkpt><trkpt lat="43.46879170682122" lon="13.07098066645898"><ele>128.0</ele><time>2026-04-26T15:29:07Z</time></trkpt><trkpt lat="43.46859358908789" lon="13.070741318882533"><ele>128.5</ele><time>2026-04-26T15:29:08Z</time></trkpt><trkpt lat="43.46839590042014" lon="13.07049963084757"><ele>129.0</ele><time>2026-04-26T15:29:09Z</time></trkpt><trkpt lat="43.46819875691978" lon="13.070253936244502"><ele>129.0</ele><time>2026-04-26T15:29:10Z</time></trkpt><trkpt lat="43.46800366933904" lon="13.070003200900995"><ele>129.0</ele><time>2026-04-26T15:29:11Z</time></trkpt><trkpt lat="43.467810196450564" lon="13.069748126933696"><ele>130.0</ele><time>2026-04-26T15:29:12Z</time></trkpt><trkpt lat="43.46762020253862" lon="13.069486332917064"><ele>131.0</ele><time>2026-04-26T15:29:13Z</time></trkpt><trkpt lat="43.4674331160873" lon="13.069220276840314"><ele>130.5</ele><time>2026-04-26T15:29:14Z</time></trkpt><trkpt lat="43.467247757095805" lon="13.068947869668454"><ele>130.0</ele><time>2026-04-26T15:29:15Z</time></trkpt><trkpt lat="43.46706703905533" lon="13.06866816016724"><ele>130.0</ele><time>2026-04-26T15:29:16Z</time></trkpt><trkpt lat="43.466889054290036" lon="13.06838687556584"><ele>130.0</ele><time>2026-04-26T15:29:17Z</time></trkpt><trkpt lat="43.4667108259406" lon="13.06810657266419"><ele>130.0</ele><time>2026-04-26T15:29:18Z</time></trkpt><trkpt lat="43.46653236269898" lon="13.067824005658316"><ele>130.0</ele><time>2026-04-26T15:29:19Z</time></trkpt><trkpt lat="43.46635597578286" lon="13.067538638366681"><ele>131.5</ele><time>2026-04-26T15:29:20Z</time></trkpt><trkpt lat="43.466179912797514" lon="13.067253081928882"><ele>133.0</ele><time>2026-04-26T15:29:21Z</time></trkpt><trkpt lat="43.466004690017094" lon="13.066960616434091"><ele>133.0</ele><time>2026-04-26T15:29:21.999Z</time></trkpt><trkpt lat="43.46583379291251" lon="13.066658796815034"><ele>133.0</ele><time>2026-04-26T15:29:22.999Z</time></trkpt><trkpt lat="43.465668649677006" lon="13.06635139735199"><ele>134.0</ele><time>2026-04-26T15:29:23.999Z</time></trkpt><trkpt lat="43.465505925772156" lon="13.066040828540489"><ele>135.0</ele><time>2026-04-26T15:29:24.999Z</time></trkpt><trkpt lat="43.46534088545217" lon="13.065727975350907"><ele>136.5</ele><time>2026-04-26T15:29:25.999Z</time></trkpt><trkpt lat="43.46517560860408" lon="13.065411720449951"><ele>138.0</ele><time>2026-04-26T15:29:26.999Z</time></trkpt><trkpt lat="43.465009614536186" lon="13.065093207717378"><ele>137.0</ele><time>2026-04-26T15:29:27.999Z</time></trkpt><trkpt lat="43.46484391657301" lon="13.06477087100318"><ele>136.0</ele><time>2026-04-26T15:29:28.999Z</time></trkpt><trkpt lat="43.464680775595234" lon="13.064441382845816"><ele>136.0</ele><time>2026-04-26T15:29:29.999Z</time></trkpt><trkpt lat="43.46452343741541" lon="13.06410342307582"><ele>136.0</ele><time>2026-04-26T15:29:30.999Z</time></trkpt><trkpt lat="43.46437270147647" lon="13.063756242748996"><ele>136.0</ele><time>2026-04-26T15:29:31.999Z</time></trkpt><trkpt lat="43.46422171472513" lon="13.063404890737404"><ele>136.0</ele><time>2026-04-26T15:29:32.999Z</time></trkpt><trkpt lat="43.46407217471655" lon="13.063048324535274"><ele>136.0</ele><time>2026-04-26T15:29:33.999Z</time></trkpt><trkpt lat="43.4639261457949" lon="13.062685978018013"><ele>136.0</ele><time>2026-04-26T15:29:34.999Z</time></trkpt><trkpt lat="43.46378231274865" lon="13.062319677641984"><ele>137.0</ele><time>2026-04-26T15:29:35.999Z</time></trkpt><trkpt lat="43.4636377144338" lon="13.061947322894559"><ele>138.0</ele><time>2026-04-26T15:29:36.999Z</time></trkpt><trkpt lat="43.463495671312934" lon="13.061570093035929"><ele>138.0</ele><time>2026-04-26T15:29:37.999Z</time></trkpt><trkpt lat="43.4633574509624" lon="13.061186389871978"><ele>138.0</ele><time>2026-04-26T15:29:38.999Z</time></trkpt><trkpt lat="43.46322025135837" lon="13.0607972129381"><ele>137.5</ele><time>2026-04-26T15:29:39.999Z</time></trkpt><trkpt lat="43.463083966181074" lon="13.060404020858625"><ele>137.0</ele><time>2026-04-26T15:29:40.999Z</time></trkpt><trkpt lat="43.462947428220865" lon="13.06000882406435"><ele>136.5</ele><time>2026-04-26T15:29:41.999Z</time></trkpt><trkpt lat="43.46281336171016" lon="13.059607248170906"><ele>136.0</ele><time>2026-04-26T15:29:42.999Z</time></trkpt><trkpt lat="43.46268099679741" lon="13.059208939767734"><ele>135.5</ele><time>2026-04-26T15:29:43.999Z</time></trkpt><trkpt lat="43.462548592667176" lon="13.058807151000394"><ele>135.0</ele><time>2026-04-26T15:29:44.999Z</time></trkpt><trkpt lat="43.462417662993914" lon="13.058401359701481"><ele>135.0</ele><time>2026-04-26T15:29:45.999Z</time></trkpt><trkpt lat="43.46228699959999" lon="13.057994458031803"><ele>135.0</ele><time>2026-04-26T15:29:46.999Z</time></trkpt><trkpt lat="43.46215768389821" lon="13.057582910280484"><ele>136.0</ele><time>2026-04-26T15:29:47.999Z</time></trkpt><trkpt lat="43.46203091384517" lon="13.057169605705667"><ele>137.0</ele><time>2026-04-26T15:29:48.999Z</time></trkpt><trkpt lat="43.46190337185708" lon="13.056755300610464"><ele>136.0</ele><time>2026-04-26T15:29:49.999Z</time></trkpt><trkpt lat="43.461774806585794" lon="13.056339490586138"><ele>135.0</ele><time>2026-04-26T15:29:50.999Z</time></trkpt><trkpt lat="43.46164681758184" lon="13.055920435054723"><ele>135.5</ele><time>2026-04-26T15:29:51.999Z</time></trkpt><trkpt lat="43.46151957643129" lon="13.05550578693636"><ele>136.0</ele><time>2026-04-26T15:29:52.999Z</time></trkpt><trkpt lat="43.46139055433296" lon="13.055091815763353"><ele>136.5</ele><time>2026-04-26T15:29:53.999Z</time></trkpt><trkpt lat="43.461263262534885" lon="13.054677766502135"><ele>137.0</ele><time>2026-04-26T15:29:54.999Z</time></trkpt><trkpt lat="43.46113239515832" lon="13.054264131938538"><ele>137.5</ele><time>2026-04-26T15:29:55.999Z</time></trkpt><trkpt lat="43.460998909604285" lon="13.053852355951753"><ele>138.0</ele><time>2026-04-26T15:29:56.999Z</time></trkpt><trkpt lat="43.46085854165658" lon="13.053444510213946"><ele>138.5</ele><time>2026-04-26T15:29:57.999Z</time></trkpt><trkpt lat="43.460708107893886" lon="13.053043514651325"><ele>139.0</ele><time>2026-04-26T15:29:58.999Z</time></trkpt><trkpt lat="43.46054479258418" lon="13.052651656072321"><ele>138.5</ele><time>2026-04-26T15:29:59.999Z</time></trkpt><trkpt lat="43.46037296965998" lon="13.052269691298324"><ele>138.0</ele><time>2026-04-26T15:30:00.999Z</time></trkpt><trkpt lat="43.460191040878414" lon="13.051898091290173"><ele>139.5</ele><time>2026-04-26T15:30:01.999Z</time></trkpt><trkpt lat="43.46000052372965" lon="13.051535811371878"><ele>141.0</ele><time>2026-04-26T15:30:02.999Z</time></trkpt><trkpt lat="43.45980005413867" lon="13.051181757796781"><ele>141.0</ele><time>2026-04-26T15:30:03.999Z</time></trkpt><trkpt lat="43.459590898635774" lon="13.050836772235337"><ele>141.0</ele><time>2026-04-26T15:30:04.999Z</time></trkpt><trkpt lat="43.45937289833665" lon="13.05050362063077"><ele>141.0</ele><time>2026-04-26T15:30:05.999Z</time></trkpt><trkpt lat="43.45914627969754" lon="13.050182621433551"><ele>141.0</ele><time>2026-04-26T15:30:06.999Z</time></trkpt><trkpt lat="43.45891286819011" lon="13.049873723855177"><ele>141.0</ele><time>2026-04-26T15:30:07.999Z</time></trkpt><trkpt lat="43.458670482787525" lon="13.049578141019495"><ele>141.0</ele><time>2026-04-26T15:30:08.999Z</time></trkpt><trkpt lat="43.45842007088752" lon="13.049294621484055"><ele>140.5</ele><time>2026-04-26T15:30:09.999Z</time></trkpt><trkpt lat="43.458163754125835" lon="13.049023653310268"><ele>140.0</ele><time>2026-04-26T15:30:10.999Z</time></trkpt><trkpt lat="43.45790100522001" lon="13.048764774750781"><ele>141.0</ele><time>2026-04-26T15:30:11.999Z</time></trkpt><trkpt lat="43.45763198232892" lon="13.048518863398032"><ele>142.0</ele><time>2026-04-26T15:30:12.999Z</time></trkpt><trkpt lat="43.45735785434196" lon="13.048285966600018"><ele>142.0</ele><time>2026-04-26T15:30:13.999Z</time></trkpt><trkpt lat="43.457077768515944" lon="13.048066452671263"><ele>142.0</ele><time>2026-04-26T15:30:14.999Z</time></trkpt><trkpt lat="43.45679556777478" lon="13.047855366464615"><ele>142.0</ele><time>2026-04-26T15:30:15.999Z</time></trkpt><trkpt lat="43.4565124342817" lon="13.047646884975606"><ele>142.0</ele><time>2026-04-26T15:30:16.999Z</time></trkpt><trkpt lat="43.45622856571382" lon="13.04743845396429"><ele>142.5</ele><time>2026-04-26T15:30:17.999Z</time></trkpt><trkpt lat="43.45594492929817" lon="13.047228607996935"><ele>143.0</ele><time>2026-04-26T15:30:18.999Z</time></trkpt><trkpt lat="43.4556650967124" lon="13.04701180991241"><ele>143.5</ele><time>2026-04-26T15:30:19.999Z</time></trkpt><trkpt lat="43.45538748688617" lon="13.046788362048149"><ele>144.0</ele><time>2026-04-26T15:30:20.999Z</time></trkpt><trkpt lat="43.45511227287669" lon="13.04655847663541"><ele>145.0</ele><time>2026-04-26T15:30:21.999Z</time></trkpt><trkpt lat="43.45484065103587" lon="13.046316863693168"><ele>146.0</ele><time>2026-04-26T15:30:22.999Z</time></trkpt><trkpt lat="43.45457541720538" lon="13.046066323834788"><ele>146.0</ele><time>2026-04-26T15:30:23.999Z</time></trkpt><trkpt lat="43.45431392184452" lon="13.045807056893665"><ele>146.0</ele><time>2026-04-26T15:30:24.999Z</time></trkpt><trkpt lat="43.45405366177205" lon="13.045542299915583"><ele>146.0</ele><time>2026-04-26T15:30:25.999Z</time></trkpt><trkpt lat="43.453795911735654" lon="13.045268693394782"><ele>146.0</ele><time>2026-04-26T15:30:26.999Z</time></trkpt><trkpt lat="43.45354517722213" lon="13.044985086283452"><ele>145.5</ele><time>2026-04-26T15:30:27.999Z</time></trkpt><trkpt lat="43.4533026421347" lon="13.044689177568344"><ele>145.0</ele><time>2026-04-26T15:30:28.999Z</time></trkpt><trkpt lat="43.453067234406674" lon="13.044379693913513"><ele>146.0</ele><time>2026-04-26T15:30:29.999Z</time></trkpt><trkpt lat="43.452836971286786" lon="13.04406338720972"><ele>147.0</ele><time>2026-04-26T15:30:30.999Z</time></trkpt><trkpt lat="43.45261070703698" lon="13.043742390592447"><ele>147.0</ele><time>2026-04-26T15:30:31.999Z</time></trkpt><trkpt lat="43.452390880994514" lon="13.043412214247882"><ele>147.0</ele><time>2026-04-26T15:30:32.998Z</time></trkpt><trkpt lat="43.452175312460476" lon="13.043075449721703"><ele>146.5</ele><time>2026-04-26T15:30:33.998Z</time></trkpt><trkpt lat="43.45196594963262" lon="13.042732966918265"><ele>146.0</ele><time>2026-04-26T15:30:34.998Z</time></trkpt><trkpt lat="43.451763863161474" lon="13.042384450261352"><ele>146.0</ele><time>2026-04-26T15:30:35.998Z</time></trkpt><trkpt lat="43.45157143467676" lon="13.04202450780492"><ele>146.0</ele><time>2026-04-26T15:30:36.998Z</time></trkpt><trkpt lat="43.451385686216405" lon="13.041657239877816"><ele>146.0</ele><time>2026-04-26T15:30:37.998Z</time></trkpt><trkpt lat="43.45120381844306" lon="13.04128507781199"><ele>146.0</ele><time>2026-04-26T15:30:38.998Z</time></trkpt><trkpt lat="43.4510244711513" lon="13.040909503164928"><ele>146.0</ele><time>2026-04-26T15:30:39.998Z</time></trkpt><trkpt lat="43.450847937927556" lon="13.040530958668693"><ele>146.0</ele><time>2026-04-26T15:30:40.998Z</time></trkpt><trkpt lat="43.45067294500452" lon="13.040151192794713"><ele>145.5</ele><time>2026-04-26T15:30:41.998Z</time></trkpt><trkpt lat="43.45049897796282" lon="13.039768669607543"><ele>145.0</ele><time>2026-04-26T15:30:42.998Z</time></trkpt><trkpt lat="43.450329130642324" lon="13.03938270102907"><ele>145.0</ele><time>2026-04-26T15:30:43.998Z</time></trkpt><trkpt lat="43.45015733366442" lon="13.0389974574514"><ele>145.0</ele><time>2026-04-26T15:30:45Z</time></trkpt><trkpt lat="43.44998342642632" lon="13.038614721203535"><ele>145.5</ele><time>2026-04-26T15:30:46Z</time></trkpt><trkpt lat="43.44980435717987" lon="13.038237269327977"><ele>146.0</ele><time>2026-04-26T15:30:47Z</time></trkpt><trkpt lat="43.44961922481137" lon="13.037867062667425"><ele>146.0</ele><time>2026-04-26T15:30:48Z</time></trkpt><trkpt lat="43.44942572599874" lon="13.03750416591644"><ele>146.0</ele><time>2026-04-26T15:30:49Z</time></trkpt><trkpt lat="43.44922498076167" lon="13.03714633332049"><ele>146.0</ele><time>2026-04-26T15:30:50Z</time></trkpt><trkpt lat="43.449019100497765" lon="13.036797251022703"><ele>146.0</ele><time>2026-04-26T15:30:51Z</time></trkpt><trkpt lat="43.44880443102999" lon="13.036454205044375"><ele>146.5</ele><time>2026-04-26T15:30:52Z</time></trkpt><trkpt lat="43.44858422932667" lon="13.036121112948742"><ele>147.0</ele><time>2026-04-26T15:30:53Z</time></trkpt><trkpt lat="43.44835889847872" lon="13.035795891970892"><ele>147.0</ele><time>2026-04-26T15:30:54Z</time></trkpt><trkpt lat="43.44813031862615" lon="13.035481598271872"><ele>147.0</ele><time>2026-04-26T15:30:55Z</time></trkpt><trkpt lat="43.44789547173431" lon="13.035178721514969"><ele>147.5</ele><time>2026-04-26T15:30:56Z</time></trkpt><trkpt lat="43.447653497410755" lon="13.034885731222255"><ele>148.0</ele><time>2026-04-26T15:30:57Z</time></trkpt><trkpt lat="43.44740171188639" lon="13.034603310588123"><ele>148.0</ele><time>2026-04-26T15:30:58Z</time></trkpt><trkpt lat="43.44714796757268" lon="13.034331421825314"><ele>148.0</ele><time>2026-04-26T15:30:59Z</time></trkpt><trkpt lat="43.4468910503942" lon="13.034069790717297"><ele>147.0</ele><time>2026-04-26T15:31:00Z</time></trkpt><trkpt lat="43.446628908030476" lon="13.03381811467787"><ele>146.0</ele><time>2026-04-26T15:31:01Z</time></trkpt><trkpt lat="43.44636133729537" lon="13.033577455682014"><ele>146.0</ele><time>2026-04-26T15:31:02Z</time></trkpt><trkpt lat="43.4460901568111" lon="13.033348123038225"><ele>146.0</ele><time>2026-04-26T15:31:03Z</time></trkpt><trkpt lat="43.44581611792252" lon="13.033129889611072"><ele>146.0</ele><time>2026-04-26T15:31:04Z</time></trkpt><trkpt lat="43.4455365375843" lon="13.032920556909755"><ele>146.0</ele><time>2026-04-26T15:31:05Z</time></trkpt><trkpt lat="43.445252550970054" lon="13.03272179406297"><ele>146.5</ele><time>2026-04-26T15:31:06Z</time></trkpt><trkpt lat="43.44496418205109" lon="13.03252831491905"><ele>147.0</ele><time>2026-04-26T15:31:07Z</time></trkpt><trkpt lat="43.44467444755375" lon="13.032336098017572"><ele>147.5</ele><time>2026-04-26T15:31:08Z</time></trkpt><trkpt lat="43.444384098552575" lon="13.032143020061763"><ele>148.0</ele><time>2026-04-26T15:31:09Z</time></trkpt><trkpt lat="43.44409591420684" lon="13.031941743081996"><ele>148.0</ele><time>2026-04-26T15:31:10Z</time></trkpt><trkpt lat="43.4438148130618" lon="13.03173013151915"><ele>148.0</ele><time>2026-04-26T15:31:11Z</time></trkpt><trkpt lat="43.44354076511034" lon="13.03150174427705"><ele>147.0</ele><time>2026-04-26T15:31:12Z</time></trkpt><trkpt lat="43.44327466831953" lon="13.031261395802828"><ele>146.0</ele><time>2026-04-26T15:31:13Z</time></trkpt><trkpt lat="43.443013904799145" lon="13.031013997212357"><ele>147.5</ele><time>2026-04-26T15:31:14Z</time></trkpt><trkpt lat="43.44275732243992" lon="13.030760495284861"><ele>149.0</ele><time>2026-04-26T15:31:15Z</time></trkpt><trkpt lat="43.44250687919773" lon="13.03050007264754"><ele>149.0</ele><time>2026-04-26T15:31:16Z</time></trkpt><trkpt lat="43.44226574981741" lon="13.03022533694919"><ele>149.0</ele><time>2026-04-26T15:31:17Z</time></trkpt><trkpt lat="43.44203222879836" lon="13.029941567605107"><ele>149.5</ele><time>2026-04-26T15:31:18Z</time></trkpt><trkpt lat="43.44180761459273" lon="13.029650150947104"><ele>150.0</ele><time>2026-04-26T15:31:19Z</time></trkpt><trkpt lat="43.44158691403355" lon="13.02934861945276"><ele>150.0</ele><time>2026-04-26T15:31:20Z</time></trkpt><trkpt lat="43.44137910950584" lon="13.029042168047818"><ele>150.0</ele><time>2026-04-26T15:31:21Z</time></trkpt><trkpt lat="43.44117865409539" lon="13.028728549873874"><ele>150.0</ele><time>2026-04-26T15:31:22Z</time></trkpt><trkpt lat="43.440988991383904" lon="13.028397010140685"><ele>150.0</ele><time>2026-04-26T15:31:23Z</time></trkpt><trkpt lat="43.440806215518656" lon="13.028055391781995"><ele>150.0</ele><time>2026-04-26T15:31:24Z</time></trkpt><trkpt lat="43.4406319518104" lon="13.027705280606094"><ele>150.0</ele><time>2026-04-26T15:31:24.999Z</time></trkpt><trkpt lat="43.440461449214034" lon="13.02735413747214"><ele>152.0</ele><time>2026-04-26T15:31:25.999Z</time></trkpt><trkpt lat="43.44029588493715" lon="13.026998570829232"><ele>154.0</ele><time>2026-04-26T15:31:26.999Z</time></trkpt><trkpt lat="43.44014167414415" lon="13.026634654781857"><ele>154.0</ele><time>2026-04-26T15:31:27.999Z</time></trkpt><trkpt lat="43.43999193486701" lon="13.026271419407196"><ele>154.0</ele><time>2026-04-26T15:31:28.999Z</time></trkpt><trkpt lat="43.43986176192892" lon="13.02588944654012"><ele>154.5</ele><time>2026-04-26T15:31:29.999Z</time></trkpt><trkpt lat="43.43972943134902" lon="13.025515865148073"><ele>155.0</ele><time>2026-04-26T15:31:30.999Z</time></trkpt><trkpt lat="43.43961651835891" lon="13.025153092496568"><ele>157.0</ele><time>2026-04-26T15:31:31.999Z</time></trkpt><trkpt lat="43.43949551625774" lon="13.024833079154709"><ele>159.0</ele><time>2026-04-26T15:31:32.999Z</time></trkpt><trkpt lat="43.43939509373412" lon="13.024490995683546"><ele>159.0</ele><time>2026-04-26T15:31:33.999Z</time></trkpt><trkpt lat="43.43929124060716" lon="13.024161079730753"><ele>159.0</ele><time>2026-04-26T15:31:34.999Z</time></trkpt><trkpt lat="43.439173324063205" lon="13.023840936887657"><ele>157.5</ele><time>2026-04-26T15:31:35.999Z</time></trkpt><trkpt lat="43.43903569961925" lon="13.023527409072951"><ele>156.0</ele><time>2026-04-26T15:31:36.999Z</time></trkpt><trkpt lat="43.43887801780748" lon="13.02322408944765"><ele>157.5</ele><time>2026-04-26T15:31:37.999Z</time></trkpt><trkpt lat="43.43871056416569" lon="13.022927578492302"><ele>159.0</ele><time>2026-04-26T15:31:38.999Z</time></trkpt><trkpt lat="43.43853039897248" lon="13.022640263527316"><ele>155.5</ele><time>2026-04-26T15:31:39.999Z</time></trkpt><trkpt lat="43.43834476544107" lon="13.022365398971552"><ele>152.0</ele><time>2026-04-26T15:31:40.999Z</time></trkpt><trkpt lat="43.43813390628851" lon="13.022110620868514"><ele>153.0</ele><time>2026-04-26T15:31:41.999Z</time></trkpt><trkpt lat="43.43791551571311" lon="13.0218704140081"><ele>154.0</ele><time>2026-04-26T15:31:42.999Z</time></trkpt><trkpt lat="43.437685572570324" lon="13.02164690030125"><ele>154.0</ele><time>2026-04-26T15:31:43.999Z</time></trkpt><trkpt lat="43.437443518394915" lon="13.021445111855705"><ele>154.0</ele><time>2026-04-26T15:31:44.999Z</time></trkpt><trkpt lat="43.43719591108482" lon="13.021251289173165"><ele>156.5</ele><time>2026-04-26T15:31:45.999Z</time></trkpt><trkpt lat="43.43694502477529" lon="13.021060284200864"><ele>159.0</ele><time>2026-04-26T15:31:46.999Z</time></trkpt><trkpt lat="43.43669813996814" lon="13.02085594034784"><ele>159.5</ele><time>2026-04-26T15:31:47.999Z</time></trkpt><trkpt lat="43.43645713646965" lon="13.020638321777726"><ele>160.0</ele><time>2026-04-26T15:31:48.999Z</time></trkpt><trkpt lat="43.43622507371407" lon="13.02039966185416"><ele>160.0</ele><time>2026-04-26T15:31:49.999Z</time></trkpt><trkpt lat="43.436016956195445" lon="13.02014516245178"><ele>160.0</ele><time>2026-04-26T15:31:50.999Z</time></trkpt><trkpt lat="43.43583116928933" lon="13.019894250706443"><ele>162.0</ele><time>2026-04-26T15:31:51.999Z</time></trkpt><trkpt lat="43.43566505486078" lon="13.019648557432506"><ele>164.0</ele><time>2026-04-26T15:31:52.999Z</time></trkpt><trkpt lat="43.43551734709226" lon="13.019399701532059"><ele>164.0</ele><time>2026-04-26T15:31:53.999Z</time></trkpt><trkpt lat="43.435385652205625" lon="13.019156778956592"><ele>164.0</ele><time>2026-04-26T15:31:54.999Z</time></trkpt><trkpt lat="43.43525754592463" lon="13.018920678715208"><ele>164.0</ele><time>2026-04-26T15:31:55.999Z</time></trkpt><trkpt lat="43.43512082003067" lon="13.018675932764749"><ele>164.0</ele><time>2026-04-26T15:31:56.999Z</time></trkpt><trkpt lat="43.434977442715" lon="13.018418955755182"><ele>164.0</ele><time>2026-04-26T15:31:57.999Z</time></trkpt><trkpt lat="43.43483556982048" lon="13.018152536268504"><ele>163.5</ele><time>2026-04-26T15:31:58.999Z</time></trkpt><trkpt lat="43.434691868790374" lon="13.017879558453096"><ele>163.0</ele><time>2026-04-26T15:31:59.999Z</time></trkpt><trkpt lat="43.43454397028434" lon="13.01760272085259"><ele>169.5</ele><time>2026-04-26T15:32:00.999Z</time></trkpt><trkpt lat="43.434398953554755" lon="13.017316107910899"><ele>176.0</ele><time>2026-04-26T15:32:01.999Z</time></trkpt><trkpt lat="43.43425451902179" lon="13.01702264094354"><ele>176.0</ele><time>2026-04-26T15:32:02.999Z</time></trkpt><trkpt lat="43.43411309102983" lon="13.016720367586554"><ele>176.0</ele><time>2026-04-26T15:32:03.999Z</time></trkpt><trkpt lat="43.433969187588104" lon="13.016416279675184"><ele>180.0</ele><time>2026-04-26T15:32:04.999Z</time></trkpt><trkpt lat="43.4338225608526" lon="13.016105184171888"><ele>184.0</ele><time>2026-04-26T15:32:05.999Z</time></trkpt><trkpt lat="43.43367903145994" lon="13.015804759847757"><ele>184.0</ele><time>2026-04-26T15:32:06.999Z</time></trkpt><trkpt lat="43.4335501941453" lon="13.01552677616603"><ele>184.0</ele><time>2026-04-26T15:32:07.999Z</time></trkpt><trkpt lat="43.433426062720486" lon="13.015270994264998"><ele>184.0</ele><time>2026-04-26T15:32:08.999Z</time></trkpt><trkpt lat="43.43331143870199" lon="13.015019244099923"><ele>184.0</ele><time>2026-04-26T15:32:09.999Z</time></trkpt><trkpt lat="43.43319988701786" lon="13.014774284960954"><ele>184.0</ele><time>2026-04-26T15:32:10.999Z</time></trkpt><trkpt lat="43.43308684011628" lon="13.014529552386808"><ele>182.33333333333334</ele><time>2026-04-26T15:32:11.999Z</time></trkpt><trkpt lat="43.43297481415626" lon="13.01428967216227"><ele>180.66666666666666</ele><time>2026-04-26T15:32:12.999Z</time></trkpt><trkpt lat="43.43286714274802" lon="13.014061146059575"><ele>179.0</ele><time>2026-04-26T15:32:13.999Z</time></trkpt><trkpt lat="43.43276456016287" lon="13.013846356607917"><ele>179.0</ele><time>2026-04-26T15:32:14.999Z</time></trkpt><trkpt lat="43.43266664433571" lon="13.013634417769206"><ele>179.0</ele><time>2026-04-26T15:32:15.999Z</time></trkpt><trkpt lat="43.432570341066715" lon="13.013428964035924"><ele>179.0</ele><time>2026-04-26T15:32:16.999Z</time></trkpt><trkpt lat="43.43247705585614" lon="13.013230487017957"><ele>181.66666666666666</ele><time>2026-04-26T15:32:17.999Z</time></trkpt><trkpt lat="43.43238577589782" lon="13.013038819417995"><ele>184.33333333333334</ele><time>2026-04-26T15:32:18.999Z</time></trkpt><trkpt lat="43.432291723066875" lon="13.012850317144492"><ele>187.0</ele><time>2026-04-26T15:32:19.999Z</time></trkpt><trkpt lat="43.4322017203835" lon="13.012667676652013"><ele>183.0</ele><time>2026-04-26T15:32:20.999Z</time></trkpt><trkpt lat="43.43211290919098" lon="13.01247824924923"><ele>179.0</ele><time>2026-04-26T15:32:21.999Z</time></trkpt><trkpt lat="43.43203890629959" lon="13.01229953995519"><ele>175.0</ele><time>2026-04-26T15:32:22.999Z</time></trkpt><trkpt lat="43.43196133227014" lon="13.012111109220767"><ele>175.0</ele><time>2026-04-26T15:32:23.999Z</time></trkpt><trkpt lat="43.431885222955316" lon="13.011925901806146"><ele>175.0</ele><time>2026-04-26T15:32:24.999Z</time></trkpt><trkpt lat="43.43181199028281" lon="13.01173730981874"><ele>175.0</ele><time>2026-04-26T15:32:25.999Z</time></trkpt><trkpt lat="43.431743684682" lon="13.011546421132339"><ele>177.33333333333334</ele><time>2026-04-26T15:32:26.999Z</time></trkpt><trkpt lat="43.43167995601898" lon="13.011355156246246"><ele>179.66666666666666</ele><time>2026-04-26T15:32:27.999Z</time></trkpt><trkpt lat="43.431617790926" lon="13.011163319312303"><ele>182.0</ele><time>2026-04-26T15:32:28.999Z</time></trkpt><trkpt lat="43.43156021200285" lon="13.010972416500593"><ele>187.0</ele><time>2026-04-26T15:32:29.999Z</time></trkpt><trkpt lat="43.43150653575789" lon="13.0107709496352"><ele>192.0</ele><time>2026-04-26T15:32:30.999Z</time></trkpt><trkpt lat="43.43145797771778" lon="13.010563363919026"><ele>197.0</ele><time>2026-04-26T15:32:31.999Z</time></trkpt><trkpt lat="43.431416789842764" lon="13.01034729298939"><ele>197.0</ele><time>2026-04-26T15:32:32.999Z</time></trkpt><trkpt lat="43.43138275241699" lon="13.010132907383785"><ele>197.0</ele><time>2026-04-26T15:32:33.999Z</time></trkpt><trkpt lat="43.43135575759638" lon="13.00992007730543"><ele>197.0</ele><time>2026-04-26T15:32:34.999Z</time></trkpt><trkpt lat="43.43132673641176" lon="13.009630584925455"><ele>200.66666666666669</ele><time>2026-04-26T15:32:35.998Z</time></trkpt><trkpt lat="43.43133545135712" lon="13.009373162011494"><ele>204.33333333333331</ele><time>2026-04-26T15:32:36.998Z</time></trkpt><trkpt lat="43.431278876659285" lon="13.009192265121046"><ele>208.0</ele><time>2026-04-26T15:32:37.998Z</time></trkpt><trkpt lat="43.4312726948862" lon="13.008977919648064"><ele>213.0</ele><time>2026-04-26T15:32:38.998Z</time></trkpt><trkpt lat="43.43125716652851" lon="13.008786408932979"><ele>218.0</ele><time>2026-04-26T15:32:39.998Z</time></trkpt><trkpt lat="43.43129446097323" lon="13.008605447868755"><ele>223.0</ele><time>2026-04-26T15:32:40.998Z</time></trkpt><trkpt lat="43.431294847691056" lon="13.008448609505708"><ele>228.0</ele><time>2026-04-26T15:32:41.998Z</time></trkpt><trkpt lat="43.431385388467675" lon="13.008318545239709"><ele>228.0</ele><time>2026-04-26T15:32:42.998Z</time></trkpt><trkpt lat="43.43141697691923" lon="13.008207309624172"><ele>228.0</ele><time>2026-04-26T15:32:43.998Z</time></trkpt><trkpt lat="43.43144194767676" lon="13.008113807162767"><ele>228.0</ele><time>2026-04-26T15:32:44.998Z</time></trkpt><trkpt lat="43.43146394196997" lon="13.007973492096626"><ele>228.0</ele><time>2026-04-26T15:32:47.032Z</time></trkpt><trkpt lat="43.43133889447523" lon="13.007441452501855"><ele>183.0</ele><time>2026-04-26T15:32:58.43Z</time></trkpt><trkpt lat="43.42802931666248" lon="13.001009401124875"><ele>191.33333333333331</ele><time>2026-04-26T15:33:11.998Z</time></trkpt><trkpt lat="43.427871699200686" lon="13.000803345399744"><ele>199.66666666666666</ele><time>2026-04-26T15:33:12.998Z</time></trkpt><trkpt lat="43.42772949545123" lon="13.000691372974687"><ele>208.0</ele><time>2026-04-26T15:33:13.998Z</time></trkpt><trkpt lat="43.42756343033726" lon="13.000398292547397"><ele>208.0</ele><time>2026-04-26T15:33:14.998Z</time></trkpt><trkpt lat="43.42747006469661" lon="13.000144283576404"><ele>208.0</ele><time>2026-04-26T15:33:15.998Z</time></trkpt><trkpt lat="43.42734405619453" lon="12.999940082980523"><ele>208.0</ele><time>2026-04-26T15:33:16.998Z</time></trkpt><trkpt lat="43.427219183544814" lon="12.999737298264055"><ele>243.5</ele><time>2026-04-26T15:33:17.998Z</time></trkpt><trkpt lat="43.42709460169897" lon="12.999534895064915"><ele>279.0</ele><time>2026-04-26T15:33:18.998Z</time></trkpt><trkpt lat="43.4268394069285" lon="12.99911659504147"><ele>280.0</ele><time>2026-04-26T15:33:21.062Z</time></trkpt><trkpt lat="43.42671636059365" lon="12.998912705075872"><ele>281.0</ele><time>2026-04-26T15:33:22.062Z</time></trkpt><trkpt lat="43.42552038065031" lon="12.996743963543357"><ele>281.0</ele><time>2026-04-26T15:33:25.207Z</time></trkpt><trkpt lat="43.42513001232213" lon="12.996068396467848"><ele>158.0</ele><time>2026-04-26T15:33:26.204Z</time></trkpt><trkpt lat="43.42473774917466" lon="12.995389550239217"><ele>182.0</ele><time>2026-04-26T15:33:27.206Z</time></trkpt><trkpt lat="43.42356505935792" lon="12.99336018933307"><ele>208.0</ele><time>2026-04-26T15:33:30.202Z</time></trkpt><trkpt lat="43.42317178732651" lon="12.992684703886004"><ele>264.0</ele><time>2026-04-26T15:33:31.202Z</time></trkpt><trkpt lat="43.42277292023039" lon="12.992014372579149"><ele>285.0</ele><time>2026-04-26T15:33:32.203Z</time></trkpt><trkpt lat="43.422374671990994" lon="12.99134508131555"><ele>276.5</ele><time>2026-04-26T15:33:33.203Z</time></trkpt><trkpt lat="43.4221428" lon="12.9909554"><ele>268.0</ele><time>2026-04-26T15:33:34.207Z</time></trkpt><trkpt lat="43.42379171406563" lon="12.993920801319799"><ele>248.0</ele><time>2026-04-26T15:33:44.999Z</time></trkpt><trkpt lat="43.423719532488626" lon="12.993724227539255"><ele>228.0</ele><time>2026-04-26T15:33:45.999Z</time></trkpt><trkpt lat="43.42356362040469" lon="12.99346462358933"><ele>208.0</ele><time>2026-04-26T15:33:46.999Z</time></trkpt><trkpt lat="43.4234420395356" lon="12.993248904139675"><ele>208.0</ele><time>2026-04-26T15:33:47.999Z</time></trkpt><trkpt lat="43.42330368887214" lon="12.993023863826416"><ele>208.0</ele><time>2026-04-26T15:33:48.999Z</time></trkpt><trkpt lat="43.423171561088694" lon="12.992792822567846"><ele>208.0</ele><time>2026-04-26T15:33:49.999Z</time></trkpt><trkpt lat="43.4230400148342" lon="12.992563540421317"><ele>220.5</ele><time>2026-04-26T15:33:50.999Z</time></trkpt><trkpt lat="43.42289870729973" lon="12.992326569402966"><ele>233.0</ele><time>2026-04-26T15:33:52.053Z</time></trkpt><trkpt lat="43.421681339412174" lon="12.990184776749073"><ele>180.0</ele><time>2026-04-26T15:33:55.203Z</time></trkpt><trkpt lat="43.42101170559869" lon="12.9889445236391"><ele>188.0</ele><time>2026-04-26T15:34:07.999Z</time></trkpt><trkpt lat="43.42051607724713" lon="12.988287227038606"><ele>184.0</ele><time>2026-04-26T15:34:09.999Z</time></trkpt><trkpt lat="43.420291900449044" lon="12.987891187392478"><ele>180.0</ele><time>2026-04-26T15:34:11.999Z</time></trkpt><trkpt lat="43.420244276777304" lon="12.987781482090032"><ele>180.0</ele><time>2026-04-26T15:34:12.999Z</time></trkpt><trkpt lat="43.41985972646364" lon="12.987943748636773"><ele>180.0</ele><time>2026-04-26T15:34:13.999Z</time></trkpt><trkpt lat="43.41989493899728" lon="12.987547103164228"><ele>182.0</ele><time>2026-04-26T15:34:14.999Z</time></trkpt><trkpt lat="43.41987702866635" lon="12.987174351103626"><ele>184.0</ele><time>2026-04-26T15:34:15.999Z</time></trkpt><trkpt lat="43.419757299862255" lon="12.986906775029912"><ele>183.33333333333334</ele><time>2026-04-26T15:34:16.999Z</time></trkpt><trkpt lat="43.419629665759736" lon="12.986662808226953"><ele>182.66666666666666</ele><time>2026-04-26T15:34:17.999Z</time></trkpt><trkpt lat="43.41950260823167" lon="12.986428071214785"><ele>182.0</ele><time>2026-04-26T15:34:18.999Z</time></trkpt><trkpt lat="43.419395814334585" lon="12.98619606070765"><ele>182.0</ele><time>2026-04-26T15:34:19.999Z</time></trkpt><trkpt lat="43.41926659066435" lon="12.9859866292265"><ele>182.0</ele><time>2026-04-26T15:34:20.999Z</time></trkpt><trkpt lat="43.41912924886164" lon="12.985764653134034"><ele>182.0</ele><time>2026-04-26T15:34:21.999Z</time></trkpt><trkpt lat="43.41899460201172" lon="12.985537189159164"><ele>181.66666666666666</ele><time>2026-04-26T15:34:22.999Z</time></trkpt><trkpt lat="43.41886381438771" lon="12.985309095986025"><ele>181.33333333333334</ele><time>2026-04-26T15:34:23.999Z</time></trkpt><trkpt lat="43.41873184380323" lon="12.985084683420528"><ele>181.0</ele><time>2026-04-26T15:34:24.999Z</time></trkpt><trkpt lat="43.41860051403605" lon="12.984860114649644"><ele>181.0</ele><time>2026-04-26T15:34:25.999Z</time></trkpt><trkpt lat="43.4184672660644" lon="12.984633289609352"><ele>181.0</ele><time>2026-04-26T15:34:26.999Z</time></trkpt><trkpt lat="43.41833235249794" lon="12.984406564575359"><ele>181.0</ele><time>2026-04-26T15:34:27.999Z</time></trkpt><trkpt lat="43.41819781518959" lon="12.984175332231409"><ele>181.0</ele><time>2026-04-26T15:34:28.999Z</time></trkpt><trkpt lat="43.418059801563" lon="12.983949187917807"><ele>181.0</ele><time>2026-04-26T15:34:29.999Z</time></trkpt><trkpt lat="43.41792533548684" lon="12.983708789717978"><ele>181.0</ele><time>2026-04-26T15:34:30.999Z</time></trkpt><trkpt lat="43.417780480348235" lon="12.983486390964448"><ele>182.0</ele><time>2026-04-26T15:34:31.999Z</time></trkpt><trkpt lat="43.4176279327619" lon="12.983254571314646"><ele>183.0</ele><time>2026-04-26T15:34:32.999Z</time></trkpt><trkpt lat="43.41746996814972" lon="12.983038350944732"><ele>183.0</ele><time>2026-04-26T15:34:33.999Z</time></trkpt><trkpt lat="43.41731083286018" lon="12.982823541345553"><ele>183.0</ele><time>2026-04-26T15:34:34.999Z</time></trkpt><trkpt lat="43.4171458390941" lon="12.982616725210695"><ele>183.0</ele><time>2026-04-26T15:34:35.999Z</time></trkpt><trkpt lat="43.41697065927555" lon="12.982431867971608"><ele>182.33333333333334</ele><time>2026-04-26T15:34:36.999Z</time></trkpt><trkpt lat="43.41679600852888" lon="12.98223447773148"><ele>181.66666666666669</ele><time>2026-04-26T15:34:37.999Z</time></trkpt><trkpt lat="43.41664374901962" lon="12.982063413987373"><ele>181.0</ele><time>2026-04-26T15:34:38.999Z</time></trkpt><trkpt lat="43.41648426481121" lon="12.981901573789255"><ele>180.66666666666669</ele><time>2026-04-26T15:34:39.999Z</time></trkpt><trkpt lat="43.41630657281512" lon="12.98177336165782"><ele>180.33333333333334</ele><time>2026-04-26T15:34:40.999Z</time></trkpt><trkpt lat="43.4161358614522" lon="12.981608464348712"><ele>180.0</ele><time>2026-04-26T15:34:41.999Z</time></trkpt><trkpt lat="43.41595682559643" lon="12.981442401370611"><ele>181.0</ele><time>2026-04-26T15:34:42.999Z</time></trkpt><trkpt lat="43.415757040689776" lon="12.981306167073367"><ele>182.0</ele><time>2026-04-26T15:34:43.999Z</time></trkpt><trkpt lat="43.415548229676695" lon="12.981170615655067"><ele>182.0</ele><time>2026-04-26T15:34:44.999Z</time></trkpt><trkpt lat="43.41532521256364" lon="12.981027305926524"><ele>182.0</ele><time>2026-04-26T15:34:45.999Z</time></trkpt><trkpt lat="43.41510849782964" lon="12.980882000034873"><ele>183.0</ele><time>2026-04-26T15:34:46.999Z</time></trkpt><trkpt lat="43.414866142910334" lon="12.980723423886166"><ele>184.0</ele><time>2026-04-26T15:34:47.999Z</time></trkpt><trkpt lat="43.41460627593582" lon="12.98056506444071"><ele>184.0</ele><time>2026-04-26T15:34:48.999Z</time></trkpt><trkpt lat="43.41440382320354" lon="12.980409458462445"><ele>184.0</ele><time>2026-04-26T15:34:49.999Z</time></trkpt><trkpt lat="43.414206832394086" lon="12.980254511133928"><ele>184.0</ele><time>2026-04-26T15:34:50.999Z</time></trkpt><trkpt lat="43.41401080509266" lon="12.980119230409219"><ele>184.0</ele><time>2026-04-26T15:34:51.999Z</time></trkpt><trkpt lat="43.413815998069836" lon="12.979987262443748"><ele>184.0</ele><time>2026-04-26T15:34:52.999Z</time></trkpt><trkpt lat="43.41362056201585" lon="12.979863042900531"><ele>184.0</ele><time>2026-04-26T15:34:53.998Z</time></trkpt><trkpt lat="43.413428482997794" lon="12.979760270271349"><ele>184.0</ele><time>2026-04-26T15:34:54.998Z</time></trkpt><trkpt lat="43.41324856672396" lon="12.979677349071755"><ele>184.0</ele><time>2026-04-26T15:34:55.998Z</time></trkpt><trkpt lat="43.41307760954316" lon="12.979608777929084"><ele>186.0</ele><time>2026-04-26T15:34:56.998Z</time></trkpt><trkpt lat="43.412916377659656" lon="12.979550349882759"><ele>188.0</ele><time>2026-04-26T15:34:57.998Z</time></trkpt><trkpt lat="43.41276902506573" lon="12.979502284854544"><ele>190.0</ele><time>2026-04-26T15:34:58.998Z</time></trkpt><trkpt lat="43.41262977003757" lon="12.979462403808796"><ele>190.0</ele><time>2026-04-26T15:34:59.998Z</time></trkpt><trkpt lat="43.412489349387734" lon="12.979439502045505"><ele>190.0</ele><time>2026-04-26T15:35:00.998Z</time></trkpt><trkpt lat="43.4123337183154" lon="12.979450963034719"><ele>190.0</ele><time>2026-04-26T15:35:01.998Z</time></trkpt><trkpt lat="43.41218613607082" lon="12.979493591854883"><ele>190.0</ele><time>2026-04-26T15:35:02.998Z</time></trkpt><trkpt lat="43.41204618560532" lon="12.979507145593344"><ele>191.25</ele><time>2026-04-26T15:35:03.998Z</time></trkpt><trkpt lat="43.41192432380646" lon="12.979462547040397"><ele>192.5</ele><time>2026-04-26T15:35:04.998Z</time></trkpt><trkpt lat="43.4118167857203" lon="12.979349146215645"><ele>193.75</ele><time>2026-04-26T15:35:05.998Z</time></trkpt><trkpt lat="43.411732247352845" lon="12.979198348943573"><ele>195.0</ele><time>2026-04-26T15:35:06.998Z</time></trkpt><trkpt lat="43.411666440801035" lon="12.9790316698"><ele>192.25</ele><time>2026-04-26T15:35:07.998Z</time></trkpt><trkpt lat="43.41159675609124" lon="12.978881102329378"><ele>189.5</ele><time>2026-04-26T15:35:08.998Z</time></trkpt><trkpt lat="43.41152172897209" lon="12.978759952035443"><ele>186.75</ele><time>2026-04-26T15:35:09.998Z</time></trkpt><trkpt lat="43.41142231752913" lon="12.97866436165003"><ele>184.0</ele><time>2026-04-26T15:35:10.998Z</time></trkpt><trkpt lat="43.41130857128326" lon="12.978613084402017"><ele>183.6</ele><time>2026-04-26T15:35:11.998Z</time></trkpt><trkpt lat="43.41119261214105" lon="12.978615660729233"><ele>183.2</ele><time>2026-04-26T15:35:12.998Z</time></trkpt><trkpt lat="43.411099595436625" lon="12.978636263158224"><ele>182.79999999999998</ele><time>2026-04-26T15:35:13.998Z</time></trkpt><trkpt lat="43.41102914497113" lon="12.978653940623524"><ele>182.39999999999998</ele><time>2026-04-26T15:35:14.998Z</time></trkpt><trkpt lat="43.410953050571095" lon="12.978679014822466"><ele>182.0</ele><time>2026-04-26T15:35:15.998Z</time></trkpt><trkpt lat="43.410855488466886" lon="12.978704377390713"><ele>182.0</ele><time>2026-04-26T15:35:16.998Z</time></trkpt><trkpt lat="43.41075519008374" lon="12.978671436738836"><ele>182.0</ele><time>2026-04-26T15:35:17.998Z</time></trkpt><trkpt lat="43.41063278173378" lon="12.97857145690122"><ele>182.0</ele><time>2026-04-26T15:35:18.998Z</time></trkpt><trkpt lat="43.41046783178691" lon="12.97849746120633"><ele>182.0</ele><time>2026-04-26T15:35:19.998Z</time></trkpt><trkpt lat="43.41029416963594" lon="12.978452260300456"><ele>182.0</ele><time>2026-04-26T15:35:20.998Z</time></trkpt><trkpt lat="43.410132759055344" lon="12.97843061385505"><ele>182.0</ele><time>2026-04-26T15:35:21.998Z</time></trkpt><trkpt lat="43.4099483627558" lon="12.978450556127"><ele>182.0</ele><time>2026-04-26T15:35:22.998Z</time></trkpt><trkpt lat="43.40975752990441" lon="12.978513494520355"><ele>182.0</ele><time>2026-04-26T15:35:23.998Z</time></trkpt><trkpt lat="43.40956634600377" lon="12.978602065957878"><ele>182.0</ele><time>2026-04-26T15:35:24.998Z</time></trkpt><trkpt lat="43.40921177242586" lon="12.978744752340031"><ele>182.0</ele><time>2026-04-26T15:35:27Z</time></trkpt><trkpt lat="43.40907808171068" lon="12.978826679355507"><ele>182.0</ele><time>2026-04-26T15:35:28Z</time></trkpt><trkpt lat="43.40895796201655" lon="12.97894585625439"><ele>182.0</ele><time>2026-04-26T15:35:29Z</time></trkpt><trkpt lat="43.40886364350006" lon="12.979102213849904"><ele>182.0</ele><time>2026-04-26T15:35:30Z</time></trkpt><trkpt lat="43.408798761933355" lon="12.979241918186517"><ele>183.0</ele><time>2026-04-26T15:35:31Z</time></trkpt><trkpt lat="43.408771982618056" lon="12.979368191253307"><ele>184.0</ele><time>2026-04-26T15:35:32Z</time></trkpt><trkpt lat="43.40877465778564" lon="12.979510628264167"><ele>185.0</ele><time>2026-04-26T15:35:33Z</time></trkpt><trkpt lat="43.408789455489405" lon="12.979669652585846"><ele>186.0</ele><time>2026-04-26T15:35:34Z</time></trkpt><trkpt lat="43.408793910902574" lon="12.979805069144913"><ele>187.0</ele><time>2026-04-26T15:35:35Z</time></trkpt><trkpt lat="43.40875941174533" lon="12.979945348503293"><ele>190.5</ele><time>2026-04-26T15:35:37Z</time></trkpt><trkpt lat="43.408665143368374" lon="12.980028497540935"><ele>194.0</ele><time>2026-04-26T15:35:39Z</time></trkpt><trkpt lat="43.40856801653227" lon="12.98005973427523"><ele>197.5</ele><time>2026-04-26T15:35:40Z</time></trkpt><trkpt lat="43.408442888473864" lon="12.980089917646183"><ele>201.0</ele><time>2026-04-26T15:35:41Z</time></trkpt><trkpt lat="43.408313991759755" lon="12.98013374447587"><ele>201.0</ele><time>2026-04-26T15:35:42Z</time></trkpt><trkpt lat="43.408199504022285" lon="12.98018743299176"><ele>201.0</ele><time>2026-04-26T15:35:43Z</time></trkpt><trkpt lat="43.40809426623649" lon="12.980233490038572"><ele>201.0</ele><time>2026-04-26T15:35:44Z</time></trkpt><trkpt lat="43.407991490412336" lon="12.980279237259072"><ele>201.0</ele><time>2026-04-26T15:35:45Z</time></trkpt><trkpt lat="43.4079072420532" lon="12.980322326478712"><ele>201.0</ele><time>2026-04-26T15:35:46Z</time></trkpt><trkpt lat="43.40784008046763" lon="12.980353323479605"><ele>199.0</ele><time>2026-04-26T15:35:47Z</time></trkpt><trkpt lat="43.40774704357622" lon="12.980377820267796"><ele>197.0</ele><time>2026-04-26T15:35:48.999Z</time></trkpt><trkpt lat="43.407664819782056" lon="12.98042729526575"><ele>195.0</ele><time>2026-04-26T15:36:18.999Z</time></trkpt><trkpt lat="43.40759540048477" lon="12.980469956945562"><ele>193.0</ele><time>2026-04-26T15:36:19.999Z</time></trkpt><trkpt lat="43.407501168304925" lon="12.980526505904868"><ele>191.0</ele><time>2026-04-26T15:36:20.999Z</time></trkpt><trkpt lat="43.40739244502807" lon="12.980587231829189"><ele>191.0</ele><time>2026-04-26T15:36:21.999Z</time></trkpt><trkpt lat="43.407281304756474" lon="12.980651703411606"><ele>191.0</ele><time>2026-04-26T15:36:22.999Z</time></trkpt><trkpt lat="43.40717973842897" lon="12.980709807416687"><ele>191.0</ele><time>2026-04-26T15:36:23.999Z</time></trkpt><trkpt lat="43.40707735486272" lon="12.980760672242418"><ele>191.0</ele><time>2026-04-26T15:36:24.999Z</time></trkpt><trkpt lat="43.406967815761924" lon="12.98080240626918"><ele>190.4</ele><time>2026-04-26T15:36:25.999Z</time></trkpt><trkpt lat="43.40687126354005" lon="12.980852583819454"><ele>189.8</ele><time>2026-04-26T15:36:26.999Z</time></trkpt><trkpt lat="43.4067553716595" lon="12.98081525386636"><ele>189.20000000000002</ele><time>2026-04-26T15:36:27.999Z</time></trkpt><trkpt lat="43.40666699412485" lon="12.980745879137155"><ele>188.60000000000002</ele><time>2026-04-26T15:36:28.999Z</time></trkpt><trkpt lat="43.4065638898889" lon="12.980714103020375"><ele>188.0</ele><time>2026-04-26T15:36:29.999Z</time></trkpt><trkpt lat="43.40649757585625" lon="12.980557368786712"><ele>188.0</ele><time>2026-04-26T15:36:30.999Z</time></trkpt><trkpt lat="43.406440470990276" lon="12.980410744785281"><ele>188.0</ele><time>2026-04-26T15:36:31.999Z</time></trkpt><trkpt lat="43.406351465849795" lon="12.980279545461782"><ele>188.0</ele><time>2026-04-26T15:36:32.999Z</time></trkpt><trkpt lat="43.406271287718354" lon="12.98013114303221"><ele>188.0</ele><time>2026-04-26T15:36:33.999Z</time></trkpt><trkpt lat="43.4061942677556" lon="12.979981546588064"><ele>187.4</ele><time>2026-04-26T15:36:34.999Z</time></trkpt><trkpt lat="43.406121025657534" lon="12.979844220500826"><ele>186.8</ele><time>2026-04-26T15:36:35.999Z</time></trkpt><trkpt lat="43.40605087891656" lon="12.979717208996346"><ele>186.2</ele><time>2026-04-26T15:36:36.999Z</time></trkpt><trkpt lat="43.40599084420665" lon="12.979594547890033"><ele>185.6</ele><time>2026-04-26T15:36:37.999Z</time></trkpt><trkpt lat="43.40593642593188" lon="12.97947928043209"><ele>185.0</ele><time>2026-04-26T15:36:38.999Z</time></trkpt><trkpt lat="43.40587940811282" lon="12.979374357418791"><ele>185.0</ele><time>2026-04-26T15:36:39.999Z</time></trkpt><trkpt lat="43.40581602159732" lon="12.979263079953707"><ele>185.0</ele><time>2026-04-26T15:36:40.999Z</time></trkpt><trkpt lat="43.40575459333564" lon="12.979145974935864"><ele>185.0</ele><time>2026-04-26T15:36:41.999Z</time></trkpt><trkpt lat="43.405690642463334" lon="12.97902123006571"><ele>185.0</ele><time>2026-04-26T15:36:42.999Z</time></trkpt><trkpt lat="43.405624060586604" lon="12.978891311567232"><ele>185.0</ele><time>2026-04-26T15:36:43.999Z</time></trkpt><trkpt lat="43.405554196199375" lon="12.978763510397192"><ele>185.5</ele><time>2026-04-26T15:36:44.999Z</time></trkpt><trkpt lat="43.40548525551498" lon="12.978634084652281"><ele>186.0</ele><time>2026-04-26T15:36:45.999Z</time></trkpt><trkpt lat="43.405412042276" lon="12.978505720535454"><ele>186.5</ele><time>2026-04-26T15:36:46.999Z</time></trkpt><trkpt lat="43.405345895239925" lon="12.978368758965885"><ele>187.0</ele><time>2026-04-26T15:36:47.999Z</time></trkpt><trkpt lat="43.40527725623731" lon="12.978232487547992"><ele>187.6</ele><time>2026-04-26T15:36:48.999Z</time></trkpt><trkpt lat="43.405210433523195" lon="12.97810482260757"><ele>188.2</ele><time>2026-04-26T15:36:49.999Z</time></trkpt><trkpt lat="43.4051518529004" lon="12.977991181606297"><ele>188.8</ele><time>2026-04-26T15:36:50.999Z</time></trkpt><trkpt lat="43.40509755327573" lon="12.977885546941197"><ele>189.4</ele><time>2026-04-26T15:36:51.999Z</time></trkpt><trkpt lat="43.405048462432596" lon="12.977799089461394"><ele>190.0</ele><time>2026-04-26T15:36:52.999Z</time></trkpt><trkpt lat="43.405008786500204" lon="12.977719017574206"><ele>190.0</ele><time>2026-04-26T15:36:53.999Z</time></trkpt><trkpt lat="43.40497172353643" lon="12.977640631015163"><ele>190.0</ele><time>2026-04-26T15:36:54.999Z</time></trkpt><trkpt lat="43.404923858228315" lon="12.977505401735414"><ele>190.0</ele><time>2026-04-26T15:36:56.999Z</time></trkpt><trkpt lat="43.404887957218875" lon="12.9774090101476"><ele>190.0</ele><time>2026-04-26T15:36:57.999Z</time></trkpt><trkpt lat="43.4048526539664" lon="12.977295777939226"><ele>190.0</ele><time>2026-04-26T15:36:58.999Z</time></trkpt><trkpt lat="43.40482878353377" lon="12.977147993985442"><ele>192.25</ele><time>2026-04-26T15:36:59.999Z</time></trkpt><trkpt lat="43.40481113962621" lon="12.976979795355293"><ele>194.5</ele><time>2026-04-26T15:37:00.999Z</time></trkpt><trkpt lat="43.40479271097898" lon="12.976788332551072"><ele>196.75</ele><time>2026-04-26T15:37:01.998Z</time></trkpt><trkpt lat="43.404768387922076" lon="12.976582751433138"><ele>199.0</ele><time>2026-04-26T15:37:02.998Z</time></trkpt><trkpt lat="43.40474165654617" lon="12.976371036828763"><ele>197.25</ele><time>2026-04-26T15:37:03.998Z</time></trkpt><trkpt lat="43.40471538615327" lon="12.976176639671932"><ele>195.5</ele><time>2026-04-26T15:37:04.998Z</time></trkpt><trkpt lat="43.4046884717037" lon="12.975997680567865"><ele>193.75</ele><time>2026-04-26T15:37:05.998Z</time></trkpt><trkpt lat="43.404675050260764" lon="12.975827858849929"><ele>192.0</ele><time>2026-04-26T15:37:06.998Z</time></trkpt><trkpt lat="43.40464598923859" lon="12.975676366279018"><ele>192.0</ele><time>2026-04-26T15:37:07.998Z</time></trkpt><trkpt lat="43.40460310298016" lon="12.975519193232824"><ele>192.0</ele><time>2026-04-26T15:37:08.998Z</time></trkpt><trkpt lat="43.40451644529521" lon="12.975390724785916"><ele>192.0</ele><time>2026-04-26T15:37:09.998Z</time></trkpt><trkpt lat="43.40444765913724" lon="12.975267497652675"><ele>192.0</ele><time>2026-04-26T15:37:10.998Z</time></trkpt><trkpt lat="43.40438065305707" lon="12.97513474060321"><ele>197.0</ele><time>2026-04-26T15:37:11.998Z</time></trkpt><trkpt lat="43.404288104039544" lon="12.975016756124026"><ele>202.0</ele><time>2026-04-26T15:37:12.998Z</time></trkpt><trkpt lat="43.40417455820794" lon="12.974930425686047"><ele>207.0</ele><time>2026-04-26T15:37:13.998Z</time></trkpt><trkpt lat="43.40406491192921" lon="12.974830128767499"><ele>212.0</ele><time>2026-04-26T15:37:14.998Z</time></trkpt><trkpt lat="43.40394631260355" lon="12.974748774185318"><ele>208.0</ele><time>2026-04-26T15:37:15.998Z</time></trkpt><trkpt lat="43.40381719865995" lon="12.97468556790668"><ele>204.0</ele><time>2026-04-26T15:37:16.998Z</time></trkpt><trkpt lat="43.403670544907236" lon="12.974646216662942"><ele>200.0</ele><time>2026-04-26T15:37:17.998Z</time></trkpt><trkpt lat="43.40351477027767" lon="12.974617513387942"><ele>196.0</ele><time>2026-04-26T15:37:18.998Z</time></trkpt><trkpt lat="43.40335517559144" lon="12.97458524792911"><ele>196.0</ele><time>2026-04-26T15:37:19.998Z</time></trkpt><trkpt lat="43.40318533110007" lon="12.974558853135065"><ele>196.0</ele><time>2026-04-26T15:37:20.998Z</time></trkpt><trkpt lat="43.40301640960249" lon="12.974532278945654"><ele>196.0</ele><time>2026-04-26T15:37:21.998Z</time></trkpt><trkpt lat="43.402837947696874" lon="12.97450666624811"><ele>196.33333333333331</ele><time>2026-04-26T15:37:22.998Z</time></trkpt><trkpt lat="43.40265694239448" lon="12.974481636303247"><ele>196.66666666666669</ele><time>2026-04-26T15:37:23.998Z</time></trkpt><trkpt lat="43.40247418552388" lon="12.974463139897587"><ele>197.0</ele><time>2026-04-26T15:37:24.998Z</time></trkpt><trkpt lat="43.40229933826664" lon="12.974439669810687"><ele>203.66666666666669</ele><time>2026-04-26T15:37:25.998Z</time></trkpt><trkpt lat="43.4021358108065" lon="12.974408636745247"><ele>210.33333333333331</ele><time>2026-04-26T15:37:26.998Z</time></trkpt><trkpt lat="43.40197780485839" lon="12.974354860621407"><ele>217.0</ele><time>2026-04-26T15:37:27.998Z</time></trkpt><trkpt lat="43.401847399768045" lon="12.974298374983192"><ele>217.0</ele><time>2026-04-26T15:37:28.998Z</time></trkpt><trkpt lat="43.401737065424435" lon="12.974191282926299"><ele>217.0</ele><time>2026-04-26T15:37:29.998Z</time></trkpt><trkpt lat="43.40165912854397" lon="12.974054582529453"><ele>217.0</ele><time>2026-04-26T15:37:30.999Z</time></trkpt><trkpt lat="43.401611303072514" lon="12.973900328755821"><ele>217.0</ele><time>2026-04-26T15:37:31.999Z</time></trkpt><trkpt lat="43.40157046015746" lon="12.973721937743264"><ele>216.0</ele><time>2026-04-26T15:37:32.999Z</time></trkpt><trkpt lat="43.4015307347089" lon="12.973533102393178"><ele>215.0</ele><time>2026-04-26T15:37:33.999Z</time></trkpt><trkpt lat="43.401484534769395" lon="12.973330541543309"><ele>214.0</ele><time>2026-04-26T15:37:34.999Z</time></trkpt><trkpt lat="43.401436349213654" lon="12.973118513377306"><ele>211.66666666666666</ele><time>2026-04-26T15:37:35.999Z</time></trkpt><trkpt lat="43.40138510575428" lon="12.97290227845287"><ele>209.33333333333331</ele><time>2026-04-26T15:37:36.999Z</time></trkpt><trkpt lat="43.401322394625616" lon="12.972665803916446"><ele>207.0</ele><time>2026-04-26T15:37:37.999Z</time></trkpt><trkpt lat="43.40128183732595" lon="12.972466223162806"><ele>207.0</ele><time>2026-04-26T15:37:38.999Z</time></trkpt><trkpt lat="43.40123818446316" lon="12.97226379187493"><ele>207.0</ele><time>2026-04-26T15:37:39.999Z</time></trkpt><trkpt lat="43.40120117999139" lon="12.972074897377086"><ele>207.0</ele><time>2026-04-26T15:37:40.999Z</time></trkpt><trkpt lat="43.40118351314757" lon="12.971904704956117"><ele>207.0</ele><time>2026-04-26T15:37:41.999Z</time></trkpt><trkpt lat="43.401206960404586" lon="12.971740577125225"><ele>205.0</ele><time>2026-04-26T15:37:42.999Z</time></trkpt><trkpt lat="43.40126067115143" lon="12.971570017513159"><ele>203.0</ele><time>2026-04-26T15:37:43.999Z</time></trkpt><trkpt lat="43.40131808195321" lon="12.97140657880542"><ele>201.0</ele><time>2026-04-26T15:37:44.999Z</time></trkpt><trkpt lat="43.40139390586468" lon="12.97124071559312"><ele>199.0</ele><time>2026-04-26T15:37:45.999Z</time></trkpt><trkpt lat="43.40147624770144" lon="12.971066585902049"><ele>199.0</ele><time>2026-04-26T15:37:46.999Z</time></trkpt><trkpt lat="43.40156439966717" lon="12.97088150925157"><ele>199.0</ele><time>2026-04-26T15:37:47.999Z</time></trkpt><trkpt lat="43.401654468889056" lon="12.970681997129443"><ele>199.0</ele><time>2026-04-26T15:37:48.999Z</time></trkpt><trkpt lat="43.401745066272966" lon="12.970488087083595"><ele>201.66666666666666</ele><time>2026-04-26T15:37:49.999Z</time></trkpt><trkpt lat="43.401835679448794" lon="12.970304383272087"><ele>204.33333333333331</ele><time>2026-04-26T15:37:50.999Z</time></trkpt><trkpt lat="43.401917770385836" lon="12.970116769284246"><ele>207.0</ele><time>2026-04-26T15:37:51.999Z</time></trkpt><trkpt lat="43.402013019936206" lon="12.969954187938217"><ele>206.0</ele><time>2026-04-26T15:37:52.999Z</time></trkpt><trkpt lat="43.40208619502922" lon="12.969800051514548"><ele>205.0</ele><time>2026-04-26T15:37:53.999Z</time></trkpt><trkpt lat="43.40215220597825" lon="12.969660043097491"><ele>204.0</ele><time>2026-04-26T15:37:54.999Z</time></trkpt><trkpt lat="43.4022017309325" lon="12.969520150272809"><ele>203.0</ele><time>2026-04-26T15:37:55.999Z</time></trkpt><trkpt lat="43.402258189385336" lon="12.969394855994235"><ele>203.00000000000003</ele><time>2026-04-26T15:37:56.999Z</time></trkpt><trkpt lat="43.40231278166946" lon="12.969267101026484"><ele>203.0</ele><time>2026-04-26T15:37:57.999Z</time></trkpt><trkpt lat="43.40235497256635" lon="12.96915725238988"><ele>203.0</ele><time>2026-04-26T15:37:58.999Z</time></trkpt><trkpt lat="43.40239403370808" lon="12.969056789799168"><ele>203.0</ele><time>2026-04-26T15:37:59.999Z</time></trkpt><trkpt lat="43.402426325659384" lon="12.968963643227168"><ele>203.00000000000003</ele><time>2026-04-26T15:38:00.999Z</time></trkpt><trkpt lat="43.40244357855953" lon="12.968871654127001"><ele>203.0</ele><time>2026-04-26T15:38:01.999Z</time></trkpt><trkpt lat="43.40246121299969" lon="12.968778162684192"><ele>203.50000000000003</ele><time>2026-04-26T15:38:02.999Z</time></trkpt><trkpt lat="43.40247747636807" lon="12.968673134615358"><ele>204.0</ele><time>2026-04-26T15:38:03.999Z</time></trkpt><trkpt lat="43.402489294029806" lon="12.968565545181331"><ele>204.5</ele><time>2026-04-26T15:38:04.999Z</time></trkpt><trkpt lat="43.402505911262296" lon="12.968479338113669"><ele>205.0</ele><time>2026-04-26T15:38:05.999Z</time></trkpt><trkpt lat="43.40258476675096" lon="12.96836558456707"><ele>205.50000000000003</ele><time>2026-04-26T15:38:07.999Z</time></trkpt><trkpt lat="43.40263109531318" lon="12.968299049269717"><ele>206.0</ele><time>2026-04-26T15:38:08.999Z</time></trkpt><trkpt lat="43.402668643219954" lon="12.968142157060672"><ele>206.00000000000003</ele><time>2026-04-26T15:38:10.999Z</time></trkpt><trkpt lat="43.40264711147937" lon="12.96805730346737"><ele>206.0</ele><time>2026-04-26T15:38:11.999Z</time></trkpt><trkpt lat="43.402598246329916" lon="12.967979054674514"><ele>206.0</ele><time>2026-04-26T15:38:12.999Z</time></trkpt><trkpt lat="43.40251669258254" lon="12.96793546259967"><ele>206.0</ele><time>2026-04-26T15:38:13.999Z</time></trkpt><trkpt lat="43.40247614804836" lon="12.96780177253142"><ele>206.00000000000003</ele><time>2026-04-26T15:38:14.999Z</time></trkpt><trkpt lat="43.40243471182168" lon="12.96768171360653"><ele>206.0</ele><time>2026-04-26T15:38:15.999Z</time></trkpt><trkpt lat="43.40240075468586" lon="12.967558086736199"><ele>206.0</ele><time>2026-04-26T15:38:16.999Z</time></trkpt><trkpt lat="43.40237259753455" lon="12.96741956813277"><ele>206.0</ele><time>2026-04-26T15:38:17.999Z</time></trkpt><trkpt lat="43.40233852661675" lon="12.96727871218448"><ele>206.0</ele><time>2026-04-26T15:38:18.999Z</time></trkpt><trkpt lat="43.4022906591406" lon="12.967154529856154"><ele>206.0</ele><time>2026-04-26T15:38:19.999Z</time></trkpt><trkpt lat="43.40223466339591" lon="12.967036924911696"><ele>206.0</ele><time>2026-04-26T15:38:20.999Z</time></trkpt><trkpt lat="43.40217171519005" lon="12.966929585969192"><ele>208.8</ele><time>2026-04-26T15:38:21.999Z</time></trkpt><trkpt lat="43.4020990055822" lon="12.966833092170278"><ele>211.60000000000002</ele><time>2026-04-26T15:38:22.999Z</time></trkpt><trkpt lat="43.40201686741294" lon="12.966753125985951"><ele>214.4</ele><time>2026-04-26T15:38:23.999Z</time></trkpt><trkpt lat="43.40193140115376" lon="12.966670915674833"><ele>217.2</ele><time>2026-04-26T15:38:24.999Z</time></trkpt><trkpt lat="43.40184432827149" lon="12.96657288746218"><ele>220.0</ele><time>2026-04-26T15:38:25.999Z</time></trkpt><trkpt lat="43.40174438124744" lon="12.966498355933432"><ele>220.0</ele><time>2026-04-26T15:38:26.999Z</time></trkpt><trkpt lat="43.40164277110093" lon="12.966417531234"><ele>220.0</ele><time>2026-04-26T15:38:27.999Z</time></trkpt><trkpt lat="43.40154029839322" lon="12.96632595882205"><ele>220.0</ele><time>2026-04-26T15:38:28.999Z</time></trkpt><trkpt lat="43.40143333147737" lon="12.966227130959009"><ele>220.0</ele><time>2026-04-26T15:38:29.999Z</time></trkpt><trkpt lat="43.40131719646282" lon="12.966131053517366"><ele>222.75</ele><time>2026-04-26T15:38:30.999Z</time></trkpt><trkpt lat="43.40120250436714" lon="12.966064043925414"><ele>225.5</ele><time>2026-04-26T15:38:31.999Z</time></trkpt><trkpt lat="43.40107308709055" lon="12.965916958815292"><ele>228.25</ele><time>2026-04-26T15:38:32.999Z</time></trkpt><trkpt lat="43.40094596460519" lon="12.965817957333432"><ele>231.0</ele><time>2026-04-26T15:38:33.999Z</time></trkpt><trkpt lat="43.40082738101033" lon="12.965711547428267"><ele>231.0</ele><time>2026-04-26T15:38:34.999Z</time></trkpt><trkpt lat="43.40071561112905" lon="12.96561233834046"><ele>231.0</ele><time>2026-04-26T15:38:35.999Z</time></trkpt><trkpt lat="43.40061432540569" lon="12.96548787246651"><ele>231.0</ele><time>2026-04-26T15:38:36.999Z</time></trkpt><trkpt lat="43.40053289925651" lon="12.965342312171192"><ele>231.0</ele><time>2026-04-26T15:38:37.999Z</time></trkpt><trkpt lat="43.40047910041634" lon="12.965169277170576"><ele>226.5</ele><time>2026-04-26T15:38:38.999Z</time></trkpt><trkpt lat="43.400465368202966" lon="12.964979959608574"><ele>222.0</ele><time>2026-04-26T15:38:39.999Z</time></trkpt><trkpt lat="43.40047671934541" lon="12.964784520143246"><ele>217.5</ele><time>2026-04-26T15:38:40.999Z</time></trkpt><trkpt lat="43.40050764566649" lon="12.964580437835114"><ele>213.0</ele><time>2026-04-26T15:38:41.999Z</time></trkpt><trkpt lat="43.40051989379569" lon="12.964377169337295"><ele>214.33333333333331</ele><time>2026-04-26T15:38:42.999Z</time></trkpt><trkpt lat="43.40053124208359" lon="12.964169337061566"><ele>215.66666666666666</ele><time>2026-04-26T15:38:43.999Z</time></trkpt><trkpt lat="43.400544076105135" lon="12.963962325639141"><ele>217.0</ele><time>2026-04-26T15:38:44.999Z</time></trkpt><trkpt lat="43.400561378296985" lon="12.963754072318931"><ele>217.0</ele><time>2026-04-26T15:38:45.999Z</time></trkpt><trkpt lat="43.40058047784046" lon="12.963545985239227"><ele>217.0</ele><time>2026-04-26T15:38:46.999Z</time></trkpt><trkpt lat="43.400597772590665" lon="12.963351912254542"><ele>217.0</ele><time>2026-04-26T15:38:47.999Z</time></trkpt><trkpt lat="43.40060580424614" lon="12.963160170325938"><ele>217.0</ele><time>2026-04-26T15:38:48.999Z</time></trkpt><trkpt lat="43.40059954066553" lon="12.962964428165073"><ele>219.25</ele><time>2026-04-26T15:38:49.999Z</time></trkpt><trkpt lat="43.400573820783" lon="12.96275994653049"><ele>221.5</ele><time>2026-04-26T15:38:50.999Z</time></trkpt><trkpt lat="43.4005370297264" lon="12.962562791211095"><ele>223.75</ele><time>2026-04-26T15:38:51.999Z</time></trkpt><trkpt lat="43.40049472143366" lon="12.962380908176405"><ele>226.0</ele><time>2026-04-26T15:38:52.999Z</time></trkpt><trkpt lat="43.40045362869962" lon="12.962207107369718"><ele>234.5</ele><time>2026-04-26T15:38:53.999Z</time></trkpt><trkpt lat="43.40041521939487" lon="12.962047596398145"><ele>243.0</ele><time>2026-04-26T15:38:54.999Z</time></trkpt><trkpt lat="43.40038078613422" lon="12.96189210075719"><ele>251.5</ele><time>2026-04-26T15:38:55.999Z</time></trkpt><trkpt lat="43.40036646418193" lon="12.96172325755245"><ele>260.0</ele><time>2026-04-26T15:38:56.999Z</time></trkpt><trkpt lat="43.40037715425474" lon="12.961536954747983"><ele>260.0</ele><time>2026-04-26T15:38:57.999Z</time></trkpt><trkpt lat="43.4004214420716" lon="12.961339564632922"><ele>260.0</ele><time>2026-04-26T15:38:58.999Z</time></trkpt><trkpt lat="43.4004832895851" lon="12.96114511290614"><ele>260.0</ele><time>2026-04-26T15:38:59.999Z</time></trkpt><trkpt lat="43.40054193860469" lon="12.960957856163176"><ele>260.0</ele><time>2026-04-26T15:39:00.999Z</time></trkpt><trkpt lat="43.40059888958922" lon="12.96078567210639"><ele>260.0</ele><time>2026-04-26T15:39:01.999Z</time></trkpt><trkpt lat="43.400659590705395" lon="12.96063345938301"><ele>260.0</ele><time>2026-04-26T15:39:02.999Z</time></trkpt><trkpt lat="43.40072529194171" lon="12.960507706038701"><ele>260.0</ele><time>2026-04-26T15:39:03.999Z</time></trkpt><trkpt lat="43.40080341166359" lon="12.960422685210176"><ele>260.0</ele><time>2026-04-26T15:39:04.999Z</time></trkpt><trkpt lat="43.40088307081724" lon="12.960364473961645"><ele>260.0</ele><time>2026-04-26T15:39:05.999Z</time></trkpt><trkpt lat="43.40096036742378" lon="12.960303632261427"><ele>260.0</ele><time>2026-04-26T15:39:07.999Z</time></trkpt><trkpt lat="43.40102220009858" lon="12.960270019758324"><ele>260.0</ele><time>2026-04-26T15:39:09.999Z</time></trkpt><trkpt lat="43.40108087247812" lon="12.960213582455944"><ele>260.0</ele><time>2026-04-26T15:39:12.998Z</time></trkpt><trkpt lat="43.40115170347258" lon="12.960152310520492"><ele>260.0</ele><time>2026-04-26T15:40:50.999Z</time></trkpt><trkpt lat="43.401225992367905" lon="12.960080892063429"><ele>260.0</ele><time>2026-04-26T15:40:51.999Z</time></trkpt><trkpt lat="43.40130665092536" lon="12.959979423340549"><ele>260.0</ele><time>2026-04-26T15:40:52.999Z</time></trkpt><trkpt lat="43.40138857471775" lon="12.959844603751689"><ele>260.0</ele><time>2026-04-26T15:40:53.999Z</time></trkpt><trkpt lat="43.401466554122194" lon="12.959689365746172"><ele>260.0</ele><time>2026-04-26T15:40:54.999Z</time></trkpt><trkpt lat="43.40154257654514" lon="12.959525366936964"><ele>260.0</ele><time>2026-04-26T15:40:55.999Z</time></trkpt><trkpt lat="43.401608435157854" lon="12.959376353994731"><ele>260.0</ele><time>2026-04-26T15:40:56.999Z</time></trkpt><trkpt lat="43.40166963783242" lon="12.95922955593067"><ele>260.0</ele><time>2026-04-26T15:40:57.999Z</time></trkpt><trkpt lat="43.401710851626326" lon="12.95904501133939"><ele>260.0</ele><time>2026-04-26T15:40:58.999Z</time></trkpt><trkpt lat="43.40172721532275" lon="12.958875541495175"><ele>260.0</ele><time>2026-04-26T15:40:59.999Z</time></trkpt><trkpt lat="43.401740161441445" lon="12.958709115993733"><ele>260.0</ele><time>2026-04-26T15:41:00.999Z</time></trkpt><trkpt lat="43.40174942171848" lon="12.958531124302743"><ele>260.0</ele><time>2026-04-26T15:41:01.999Z</time></trkpt><trkpt lat="43.40175178525185" lon="12.958350772730867"><ele>260.0</ele><time>2026-04-26T15:41:02.998Z</time></trkpt><trkpt lat="43.40174971189511" lon="12.958165243340412"><ele>260.0</ele><time>2026-04-26T15:41:03.998Z</time></trkpt><trkpt lat="43.401747950999535" lon="12.957977818622055"><ele>260.0</ele><time>2026-04-26T15:41:04.998Z</time></trkpt><trkpt lat="43.40174927694423" lon="12.957782215463043"><ele>260.0</ele><time>2026-04-26T15:41:05.998Z</time></trkpt><trkpt lat="43.40174262575739" lon="12.957576163888863"><ele>260.0</ele><time>2026-04-26T15:41:06.998Z</time></trkpt><trkpt lat="43.401752023766356" lon="12.957372979561814"><ele>260.0</ele><time>2026-04-26T15:41:07.998Z</time></trkpt><trkpt lat="43.40175831269618" lon="12.957167197619443"><ele>260.0</ele><time>2026-04-26T15:41:08.998Z</time></trkpt><trkpt lat="43.4017880880063" lon="12.956960561720445"><ele>260.0</ele><time>2026-04-26T15:41:09.998Z</time></trkpt><trkpt lat="43.40184641325352" lon="12.956772719504558"><ele>260.0</ele><time>2026-04-26T15:41:10.998Z</time></trkpt><trkpt lat="43.40190771207693" lon="12.956601406683564"><ele>260.0</ele><time>2026-04-26T15:41:11.998Z</time></trkpt><trkpt lat="43.401927761980076" lon="12.956446338425303"><ele>260.0</ele><time>2026-04-26T15:41:12.998Z</time></trkpt><trkpt lat="43.40191725169185" lon="12.956289076970963"><ele>260.0</ele><time>2026-04-26T15:41:13.998Z</time></trkpt><trkpt lat="43.401869590430465" lon="12.95612968828861"><ele>260.0</ele><time>2026-04-26T15:41:14.998Z</time></trkpt><trkpt lat="43.4017990050669" lon="12.955984757705567"><ele>260.0</ele><time>2026-04-26T15:41:15.998Z</time></trkpt><trkpt lat="43.40173158478237" lon="12.955857258196714"><ele>260.0</ele><time>2026-04-26T15:41:16.998Z</time></trkpt><trkpt lat="43.40168703484567" lon="12.955721935459524"><ele>260.0</ele><time>2026-04-26T15:41:17.998Z</time></trkpt><trkpt lat="43.401677232907765" lon="12.955554866310953"><ele>260.0</ele><time>2026-04-26T15:41:18.998Z</time></trkpt><trkpt lat="43.40168309209633" lon="12.955372438648862"><ele>260.0</ele><time>2026-04-26T15:41:19.998Z</time></trkpt><trkpt lat="43.401691059690606" lon="12.955167373391562"><ele>260.0</ele><time>2026-04-26T15:41:20.998Z</time></trkpt><trkpt lat="43.401702602825615" lon="12.954952904550913"><ele>260.0</ele><time>2026-04-26T15:41:21.998Z</time></trkpt><trkpt lat="43.401709597815035" lon="12.9547269278878"><ele>260.0</ele><time>2026-04-26T15:41:22.998Z</time></trkpt><trkpt lat="43.40171505059112" lon="12.954492068689744"><ele>260.0</ele><time>2026-04-26T15:41:23.998Z</time></trkpt><trkpt lat="43.40172738665416" lon="12.954269660341007"><ele>260.0</ele><time>2026-04-26T15:41:24.998Z</time></trkpt><trkpt lat="43.4017310875263" lon="12.954055014204709"><ele>260.0</ele><time>2026-04-26T15:41:25.998Z</time></trkpt><trkpt lat="43.4017291636252" lon="12.953837859908115"><ele>260.0</ele><time>2026-04-26T15:41:26.998Z</time></trkpt><trkpt lat="43.40171520503289" lon="12.953614492819044"><ele>260.0</ele><time>2026-04-26T15:41:27.998Z</time></trkpt><trkpt lat="43.40170969474935" lon="12.953380638248161"><ele>260.0</ele><time>2026-04-26T15:41:28.998Z</time></trkpt><trkpt lat="43.401694318599624" lon="12.953158769754344"><ele>260.0</ele><time>2026-04-26T15:41:29.998Z</time></trkpt><trkpt lat="43.401679001644276" lon="12.952930458289753"><ele>260.0</ele><time>2026-04-26T15:41:30.998Z</time></trkpt><trkpt lat="43.40166808867043" lon="12.952720892057066"><ele>260.0</ele><time>2026-04-26T15:41:31.998Z</time></trkpt><trkpt lat="43.40165979916765" lon="12.952513184684568"><ele>260.0</ele><time>2026-04-26T15:41:32.998Z</time></trkpt><trkpt lat="43.401655904131104" lon="12.952309905546143"><ele>260.0</ele><time>2026-04-26T15:41:33.998Z</time></trkpt><trkpt lat="43.40165795734967" lon="12.952104185265705"><ele>260.0</ele><time>2026-04-26T15:41:34.998Z</time></trkpt><trkpt lat="43.40165816795158" lon="12.95189735892912"><ele>260.0</ele><time>2026-04-26T15:41:35.998Z</time></trkpt><trkpt lat="43.40167503851756" lon="12.951692272166943"><ele>260.0</ele><time>2026-04-26T15:41:36.998Z</time></trkpt><trkpt lat="43.40170964628939" lon="12.95149327590979"><ele>260.0</ele><time>2026-04-26T15:41:37.998Z</time></trkpt><trkpt lat="43.40174819947141" lon="12.951299342797267"><ele>260.0</ele><time>2026-04-26T15:41:38.998Z</time></trkpt><trkpt lat="43.40177972522449" lon="12.951116263805856"><ele>260.0</ele><time>2026-04-26T15:41:39.998Z</time></trkpt><trkpt lat="43.40180801502826" lon="12.950942301632953"><ele>260.0</ele><time>2026-04-26T15:41:40.998Z</time></trkpt><trkpt lat="43.40183647093908" lon="12.950780896870775"><ele>260.0</ele><time>2026-04-26T15:41:41.998Z</time></trkpt><trkpt lat="43.40186528084902" lon="12.950626806214608"><ele>260.0</ele><time>2026-04-26T15:41:42.999Z</time></trkpt><trkpt lat="43.40189554189548" lon="12.950458168361786"><ele>260.0</ele><time>2026-04-26T15:41:43.999Z</time></trkpt><trkpt lat="43.40192753882532" lon="12.95027693642527"><ele>260.0</ele><time>2026-04-26T15:41:44.999Z</time></trkpt><trkpt lat="43.401963412191456" lon="12.950094161912624"><ele>260.0</ele><time>2026-04-26T15:41:45.999Z</time></trkpt><trkpt lat="43.401997571350215" lon="12.949907986692526"><ele>260.0</ele><time>2026-04-26T15:41:46.999Z</time></trkpt><trkpt lat="43.402061608628664" lon="12.949729957231233"><ele>262.0</ele><time>2026-04-26T15:41:47.999Z</time></trkpt><trkpt lat="43.40215682444339" lon="12.949559631750539"><ele>264.0</ele><time>2026-04-26T15:41:48.999Z</time></trkpt><trkpt lat="43.40226422790542" lon="12.949401373472353"><ele>266.0</ele><time>2026-04-26T15:41:49.999Z</time></trkpt><trkpt lat="43.40236657234836" lon="12.94923675209383"><ele>264.33333333333337</ele><time>2026-04-26T15:41:50.999Z</time></trkpt><trkpt lat="43.40247152441249" lon="12.949075456578809"><ele>262.6666666666667</ele><time>2026-04-26T15:41:51.999Z</time></trkpt><trkpt lat="43.40259183683455" lon="12.948937313611543"><ele>261.0</ele><time>2026-04-26T15:41:52.999Z</time></trkpt><trkpt lat="43.402727607980324" lon="12.948830904845327"><ele>261.0</ele><time>2026-04-26T15:41:53.999Z</time></trkpt><trkpt lat="43.40286030167656" lon="12.948776659205896"><ele>261.0</ele><time>2026-04-26T15:41:54.999Z</time></trkpt><trkpt lat="43.40298530391618" lon="12.948781183236378"><ele>261.0</ele><time>2026-04-26T15:41:55.999Z</time></trkpt><trkpt lat="43.403116653409604" lon="12.948808063686766"><ele>261.0</ele><time>2026-04-26T15:41:56.999Z</time></trkpt><trkpt lat="43.40325141283319" lon="12.94879284013569"><ele>258.0</ele><time>2026-04-26T15:41:57.999Z</time></trkpt><trkpt lat="43.40338705511244" lon="12.94872912722399"><ele>255.0</ele><time>2026-04-26T15:41:58.999Z</time></trkpt><trkpt lat="43.403537686157364" lon="12.948665295652766"><ele>252.0</ele><time>2026-04-26T15:41:59.999Z</time></trkpt><trkpt lat="43.40368038918084" lon="12.948561742521767"><ele>248.66666666666669</ele><time>2026-04-26T15:42:00.999Z</time></trkpt><trkpt lat="43.40383345260409" lon="12.948478585107878"><ele>245.33333333333334</ele><time>2026-04-26T15:42:01.999Z</time></trkpt><trkpt lat="43.40399291637412" lon="12.948402209863215"><ele>242.0</ele><time>2026-04-26T15:42:02.999Z</time></trkpt><trkpt lat="43.40415569607446" lon="12.948322272323136"><ele>242.0</ele><time>2026-04-26T15:42:03.999Z</time></trkpt><trkpt lat="43.40431721001721" lon="12.948225265776255"><ele>242.0</ele><time>2026-04-26T15:42:04.999Z</time></trkpt><trkpt lat="43.40446321181197" lon="12.948095451232215"><ele>242.0</ele><time>2026-04-26T15:42:05.999Z</time></trkpt><trkpt lat="43.4045958011763" lon="12.947946748040142"><ele>247.66666666666669</ele><time>2026-04-26T15:42:06.999Z</time></trkpt><trkpt lat="43.40470593812532" lon="12.947781835764562"><ele>253.33333333333331</ele><time>2026-04-26T15:42:07.999Z</time></trkpt><trkpt lat="43.40480256186434" lon="12.94760345733886"><ele>259.0</ele><time>2026-04-26T15:42:08.999Z</time></trkpt><trkpt lat="43.40488802462204" lon="12.947405609856993"><ele>259.0</ele><time>2026-04-26T15:42:09.999Z</time></trkpt><trkpt lat="43.404966418275386" lon="12.947195441555182"><ele>259.0</ele><time>2026-04-26T15:42:10.999Z</time></trkpt><trkpt lat="43.405040214976154" lon="12.946966356371268"><ele>259.0</ele><time>2026-04-26T15:42:11.999Z</time></trkpt><trkpt lat="43.40510694968137" lon="12.946719934887629"><ele>251.0</ele><time>2026-04-26T15:42:12.999Z</time></trkpt><trkpt lat="43.405185627723846" lon="12.946509352185986"><ele>243.0</ele><time>2026-04-26T15:42:13.999Z</time></trkpt><trkpt lat="43.40525324581071" lon="12.94630034042645"><ele>235.0</ele><time>2026-04-26T15:42:14.999Z</time></trkpt><trkpt lat="43.40531880522978" lon="12.946102312536025"><ele>235.0</ele><time>2026-04-26T15:42:15.999Z</time></trkpt><trkpt lat="43.405400764909594" lon="12.945905049857933"><ele>235.0</ele><time>2026-04-26T15:42:16.999Z</time></trkpt><trkpt lat="43.40550742298431" lon="12.945717519518526"><ele>235.0</ele><time>2026-04-26T15:42:17.999Z</time></trkpt><trkpt lat="43.405629160814044" lon="12.945558632875434"><ele>239.33333333333331</ele><time>2026-04-26T15:42:18.999Z</time></trkpt><trkpt lat="43.40573551400274" lon="12.945390218335666"><ele>243.66666666666669</ele><time>2026-04-26T15:42:19.999Z</time></trkpt><trkpt lat="43.40582077654327" lon="12.945214511481092"><ele>248.0</ele><time>2026-04-26T15:42:20.999Z</time></trkpt><trkpt lat="43.405867538364795" lon="12.945012055053391"><ele>248.0</ele><time>2026-04-26T15:42:21.999Z</time></trkpt><trkpt lat="43.40588495303483" lon="12.944780618832839"><ele>248.0</ele><time>2026-04-26T15:42:22.999Z</time></trkpt><trkpt lat="43.405882471218106" lon="12.944534825870917"><ele>248.0</ele><time>2026-04-26T15:42:23.999Z</time></trkpt><trkpt lat="43.40586090508344" lon="12.944282060413151"><ele>248.33333333333334</ele><time>2026-04-26T15:42:24.999Z</time></trkpt><trkpt lat="43.40581863671022" lon="12.944025522870398"><ele>248.66666666666669</ele><time>2026-04-26T15:42:25.999Z</time></trkpt><trkpt lat="43.40575991242473" lon="12.943764118042393"><ele>249.0</ele><time>2026-04-26T15:42:26.999Z</time></trkpt><trkpt lat="43.405700562846796" lon="12.943494874156569"><ele>249.0</ele><time>2026-04-26T15:42:27.999Z</time></trkpt><trkpt lat="43.40565143362833" lon="12.943216787835157"><ele>249.0</ele><time>2026-04-26T15:42:28.999Z</time></trkpt><trkpt lat="43.4056095314224" lon="12.942938273628235"><ele>249.0</ele><time>2026-04-26T15:42:29.999Z</time></trkpt><trkpt lat="43.40558005549957" lon="12.942682439483951"><ele>247.0</ele><time>2026-04-26T15:42:30.999Z</time></trkpt><trkpt lat="43.40555612235531" lon="12.942446381785683"><ele>245.0</ele><time>2026-04-26T15:42:31.999Z</time></trkpt><trkpt lat="43.40555416609907" lon="12.942232044119885"><ele>243.0</ele><time>2026-04-26T15:42:32.999Z</time></trkpt><trkpt lat="43.40559980910231" lon="12.942038652942694"><ele>243.0</ele><time>2026-04-26T15:42:33.999Z</time></trkpt><trkpt lat="43.40568888808948" lon="12.941869581162424"><ele>243.0</ele><time>2026-04-26T15:42:34.999Z</time></trkpt><trkpt lat="43.40581957322964" lon="12.941717167455321"><ele>243.0</ele><time>2026-04-26T15:42:35.999Z</time></trkpt><trkpt lat="43.405956867667214" lon="12.941554440166502"><ele>239.66666666666669</ele><time>2026-04-26T15:42:36.999Z</time></trkpt><trkpt lat="43.40609643099838" lon="12.941392872529262"><ele>236.33333333333334</ele><time>2026-04-26T15:42:37.999Z</time></trkpt><trkpt lat="43.4062421049896" lon="12.941225641951524"><ele>233.0</ele><time>2026-04-26T15:42:38.999Z</time></trkpt><trkpt lat="43.40638479149395" lon="12.941066395537199"><ele>236.66666666666669</ele><time>2026-04-26T15:42:39.999Z</time></trkpt><trkpt lat="43.40651676347191" lon="12.940904686540383"><ele>240.33333333333331</ele><time>2026-04-26T15:42:40.999Z</time></trkpt><trkpt lat="43.40660439148037" lon="12.940738854816873"><ele>244.0</ele><time>2026-04-26T15:42:41.999Z</time></trkpt><trkpt lat="43.40667974720486" lon="12.940537622357017"><ele>244.0</ele><time>2026-04-26T15:42:42.999Z</time></trkpt><trkpt lat="43.40672827308193" lon="12.940303130533875"><ele>244.0</ele><time>2026-04-26T15:42:43.999Z</time></trkpt><trkpt lat="43.40677578997076" lon="12.940058549585274"><ele>244.0</ele><time>2026-04-26T15:42:44.999Z</time></trkpt><trkpt lat="43.40680209592821" lon="12.939869890364454"><ele>241.33333333333331</ele><time>2026-04-26T15:42:45.999Z</time></trkpt><trkpt lat="43.40682573267395" lon="12.93965429835158"><ele>238.66666666666669</ele><time>2026-04-26T15:42:46.999Z</time></trkpt><trkpt lat="43.40684019578393" lon="12.939421321115875"><ele>236.0</ele><time>2026-04-26T15:42:47.999Z</time></trkpt><trkpt lat="43.40684581653757" lon="12.93917112066774"><ele>233.33333333333334</ele><time>2026-04-26T15:42:48.999Z</time></trkpt><trkpt lat="43.40685077598807" lon="12.938914468603405"><ele>230.66666666666669</ele><time>2026-04-26T15:42:49.999Z</time></trkpt><trkpt lat="43.4068586103202" lon="12.938650405756608"><ele>228.0</ele><time>2026-04-26T15:42:50.999Z</time></trkpt><trkpt lat="43.406869665331044" lon="12.938386023473248"><ele>228.33333333333331</ele><time>2026-04-26T15:42:51.999Z</time></trkpt><trkpt lat="43.406874431505045" lon="12.938129715893282"><ele>228.66666666666666</ele><time>2026-04-26T15:42:52.999Z</time></trkpt><trkpt lat="43.40685739741156" lon="12.937881973120646"><ele>229.0</ele><time>2026-04-26T15:42:53.999Z</time></trkpt><trkpt lat="43.406804796661355" lon="12.937633502688742"><ele>230.0</ele><time>2026-04-26T15:42:54.999Z</time></trkpt><trkpt lat="43.40672698088691" lon="12.937396601533342"><ele>231.0</ele><time>2026-04-26T15:42:55.999Z</time></trkpt><trkpt lat="43.4066462262219" lon="12.937172765809512"><ele>232.0</ele><time>2026-04-26T15:42:56.999Z</time></trkpt><trkpt lat="43.406576365857916" lon="12.936963712059674"><ele>232.0</ele><time>2026-04-26T15:42:57.999Z</time></trkpt><trkpt lat="43.406532082240666" lon="12.93675827517279"><ele>232.0</ele><time>2026-04-26T15:42:58.999Z</time></trkpt><trkpt lat="43.40649373436462" lon="12.936587507283258"><ele>232.0</ele><time>2026-04-26T15:42:59.999Z</time></trkpt><trkpt lat="43.406535967982734" lon="12.936422461506494"><ele>232.0</ele><time>2026-04-26T15:43:00.999Z</time></trkpt><trkpt lat="43.40660021401127" lon="12.936265931345286"><ele>232.2</ele><time>2026-04-26T15:43:01.999Z</time></trkpt><trkpt lat="43.406665245039186" lon="12.936120567288508"><ele>232.39999999999998</ele><time>2026-04-26T15:43:02.999Z</time></trkpt><trkpt lat="43.406716239905975" lon="12.935976533826894"><ele>232.60000000000002</ele><time>2026-04-26T15:43:03.999Z</time></trkpt><trkpt lat="43.40677879403986" lon="12.935867624580334"><ele>232.8</ele><time>2026-04-26T15:43:04.999Z</time></trkpt><trkpt lat="43.40683109712513" lon="12.93577197858059"><ele>233.0</ele><time>2026-04-26T15:43:05.999Z</time></trkpt><trkpt lat="43.40687794930018" lon="12.935697717048551"><ele>232.50000000000003</ele><time>2026-04-26T15:43:06.999Z</time></trkpt><trkpt lat="43.40693501401221" lon="12.935584972523142"><ele>232.0</ele><time>2026-04-26T15:43:08.999Z</time></trkpt><trkpt lat="43.4069734377091" lon="12.935511222365614"><ele>231.5</ele><time>2026-04-26T15:43:12.999Z</time></trkpt><trkpt lat="43.40702699495052" lon="12.935436260487288"><ele>231.0</ele><time>2026-04-26T15:44:08.999Z</time></trkpt><trkpt lat="43.40708290998356" lon="12.935332678117456"><ele>230.50000000000003</ele><time>2026-04-26T15:44:09.999Z</time></trkpt><trkpt lat="43.40714233910023" lon="12.93522282429756"><ele>230.0</ele><time>2026-04-26T15:44:10.999Z</time></trkpt><trkpt lat="43.40720905495239" lon="12.935100212788678"><ele>230.25</ele><time>2026-04-26T15:44:11.999Z</time></trkpt><trkpt lat="43.40728352288444" lon="12.934963556216927"><ele>230.5</ele><time>2026-04-26T15:44:12.999Z</time></trkpt><trkpt lat="43.407363599535586" lon="12.93481712546857"><ele>230.75</ele><time>2026-04-26T15:44:13.999Z</time></trkpt><trkpt lat="43.40745023684656" lon="12.93465692147683"><ele>231.0</ele><time>2026-04-26T15:44:14.999Z</time></trkpt><trkpt lat="43.407538423665855" lon="12.934492293254447"><ele>231.0</ele><time>2026-04-26T15:44:15.999Z</time></trkpt><trkpt lat="43.40763233951538" lon="12.934316556327994"><ele>231.0</ele><time>2026-04-26T15:44:16.999Z</time></trkpt><trkpt lat="43.407729367526045" lon="12.934134545167467"><ele>231.0</ele><time>2026-04-26T15:44:17.999Z</time></trkpt><trkpt lat="43.407831552167686" lon="12.933942860876543"><ele>230.66666666666669</ele><time>2026-04-26T15:44:18.999Z</time></trkpt><trkpt lat="43.40793831007628" lon="12.933742597778616"><ele>230.33333333333334</ele><time>2026-04-26T15:44:19.999Z</time></trkpt><trkpt lat="43.408046663882885" lon="12.933538136828725"><ele>230.0</ele><time>2026-04-26T15:44:20.999Z</time></trkpt><trkpt lat="43.40814248317248" lon="12.933320136837189"><ele>230.0</ele><time>2026-04-26T15:44:21.999Z</time></trkpt><trkpt lat="43.40825207012973" lon="12.933111703457044"><ele>230.0</ele><time>2026-04-26T15:44:22.999Z</time></trkpt><trkpt lat="43.408357874572474" lon="12.932896246469848"><ele>230.0</ele><time>2026-04-26T15:44:23.999Z</time></trkpt><trkpt lat="43.408453582743185" lon="12.932671395893763"><ele>234.0</ele><time>2026-04-26T15:44:24.999Z</time></trkpt><trkpt lat="43.40855821858838" lon="12.93245040059479"><ele>238.0</ele><time>2026-04-26T15:44:25.999Z</time></trkpt><trkpt lat="43.408642887073036" lon="12.932212134088426"><ele>242.0</ele><time>2026-04-26T15:44:26.999Z</time></trkpt><trkpt lat="43.40870849720139" lon="12.93196159229912"><ele>244.0</ele><time>2026-04-26T15:44:27.999Z</time></trkpt><trkpt lat="43.40879016167397" lon="12.931717773874501"><ele>246.0</ele><time>2026-04-26T15:44:28.999Z</time></trkpt><trkpt lat="43.40887002037271" lon="12.931472553063305"><ele>248.0</ele><time>2026-04-26T15:44:29.999Z</time></trkpt><trkpt lat="43.408962863015496" lon="12.93123653784899"><ele>245.0</ele><time>2026-04-26T15:44:30.999Z</time></trkpt><trkpt lat="43.40903263513845" lon="12.930984676059172"><ele>242.0</ele><time>2026-04-26T15:44:31.999Z</time></trkpt><trkpt lat="43.409134161165014" lon="12.930757038176331"><ele>239.0</ele><time>2026-04-26T15:44:32.999Z</time></trkpt><trkpt lat="43.40925358169094" lon="12.930546568287644"><ele>239.0</ele><time>2026-04-26T15:44:33.999Z</time></trkpt><trkpt lat="43.40938775516138" lon="12.930355826030334"><ele>239.0</ele><time>2026-04-26T15:44:34.999Z</time></trkpt><trkpt lat="43.40953789320864" lon="12.930186240403792"><ele>239.0</ele><time>2026-04-26T15:44:35.999Z</time></trkpt><trkpt lat="43.40970625501548" lon="12.93004080009078"><ele>238.33333333333334</ele><time>2026-04-26T15:44:36.999Z</time></trkpt><trkpt lat="43.40989714321222" lon="12.929938738520244"><ele>237.66666666666669</ele><time>2026-04-26T15:44:37.999Z</time></trkpt><trkpt lat="43.410074887116004" lon="12.929813078117725"><ele>237.0</ele><time>2026-04-26T15:44:38.999Z</time></trkpt><trkpt lat="43.41024549195638" lon="12.92971863233599"><ele>237.0</ele><time>2026-04-26T15:44:39.999Z</time></trkpt><trkpt lat="43.410402358935556" lon="12.929629955625117"><ele>237.0</ele><time>2026-04-26T15:44:40.999Z</time></trkpt><trkpt lat="43.410552341737116" lon="12.929569464179975"><ele>237.0</ele><time>2026-04-26T15:44:41.999Z</time></trkpt><trkpt lat="43.41069838184735" lon="12.929523360291922"><ele>235.75</ele><time>2026-04-26T15:44:42.999Z</time></trkpt><trkpt lat="43.410832468923196" lon="12.929484091376674"><ele>234.5</ele><time>2026-04-26T15:44:43.999Z</time></trkpt><trkpt lat="43.4109548740015" lon="12.929448163549086"><ele>233.25</ele><time>2026-04-26T15:44:44.999Z</time></trkpt><trkpt lat="43.41108091718078" lon="12.929408884865394"><ele>232.0</ele><time>2026-04-26T15:44:45.999Z</time></trkpt><trkpt lat="43.41122738273816" lon="12.929363100699815"><ele>231.66666666666666</ele><time>2026-04-26T15:44:46.999Z</time></trkpt><trkpt lat="43.4113942232734" lon="12.929347524329884"><ele>231.33333333333331</ele><time>2026-04-26T15:44:47.999Z</time></trkpt><trkpt lat="43.41157149455742" lon="12.929353483891502"><ele>231.0</ele><time>2026-04-26T15:44:48.999Z</time></trkpt><trkpt lat="43.41176562066853" lon="12.929370203314594"><ele>231.0</ele><time>2026-04-26T15:44:49.999Z</time></trkpt><trkpt lat="43.41196689560358" lon="12.929385979277216"><ele>231.0</ele><time>2026-04-26T15:44:50.999Z</time></trkpt><trkpt lat="43.412177928833515" lon="12.929399109730241"><ele>231.0</ele><time>2026-04-26T15:44:51.999Z</time></trkpt><trkpt lat="43.412398321608634" lon="12.929413910769071"><ele>230.5</ele><time>2026-04-26T15:44:52.999Z</time></trkpt><trkpt lat="43.4126216529994" lon="12.929431724112412"><ele>230.0</ele><time>2026-04-26T15:44:53.999Z</time></trkpt><trkpt lat="43.412848649409746" lon="12.92944502804998"><ele>230.33333333333334</ele><time>2026-04-26T15:44:54.999Z</time></trkpt><trkpt lat="43.4130742484609" lon="12.92945717911265"><ele>230.66666666666669</ele><time>2026-04-26T15:44:55.999Z</time></trkpt><trkpt lat="43.413288602846585" lon="12.929475930653034"><ele>231.0</ele><time>2026-04-26T15:44:56.999Z</time></trkpt><trkpt lat="43.413494561178645" lon="12.929504091217817"><ele>231.0</ele><time>2026-04-26T15:44:57.999Z</time></trkpt><trkpt lat="43.41370305689373" lon="12.929554782560865"><ele>231.0</ele><time>2026-04-26T15:44:58.999Z</time></trkpt><trkpt lat="43.41391467038426" lon="12.929624478661749"><ele>231.0</ele><time>2026-04-26T15:44:59.999Z</time></trkpt><trkpt lat="43.41413041683548" lon="12.929695660547164"><ele>233.0</ele><time>2026-04-26T15:45:00.999Z</time></trkpt><trkpt lat="43.41435055390704" lon="12.929771380622613"><ele>235.0</ele><time>2026-04-26T15:45:01.999Z</time></trkpt><trkpt lat="43.41457444471688" lon="12.929844431802392"><ele>237.5</ele><time>2026-04-26T15:45:02.999Z</time></trkpt><trkpt lat="43.414805300395564" lon="12.929914996896601"><ele>240.0</ele><time>2026-04-26T15:45:03.999Z</time></trkpt><trkpt lat="43.41504410913804" lon="12.929985567976997"><ele>240.0</ele><time>2026-04-26T15:45:04.999Z</time></trkpt><trkpt lat="43.4152872880637" lon="12.930057575239092"><ele>240.0</ele><time>2026-04-26T15:45:05.999Z</time></trkpt><trkpt lat="43.41553598820536" lon="12.930133420986834"><ele>235.5</ele><time>2026-04-26T15:45:06.999Z</time></trkpt><trkpt lat="43.41578818079071" lon="12.930201362888432"><ele>231.0</ele><time>2026-04-26T15:45:07.999Z</time></trkpt><trkpt lat="43.41604579493162" lon="12.93026409900744"><ele>231.0</ele><time>2026-04-26T15:45:08.999Z</time></trkpt><trkpt lat="43.41630446165252" lon="12.930324386602509"><ele>231.0</ele><time>2026-04-26T15:45:09.999Z</time></trkpt><trkpt lat="43.41656662712125" lon="12.930384130159846"><ele>231.5</ele><time>2026-04-26T15:45:10.999Z</time></trkpt><trkpt lat="43.41683114189109" lon="12.930439659326847"><ele>232.0</ele><time>2026-04-26T15:45:11.999Z</time></trkpt><trkpt lat="43.41710027304527" lon="12.930491769909537"><ele>233.0</ele><time>2026-04-26T15:45:12.999Z</time></trkpt><trkpt lat="43.41736654486802" lon="12.930546207862019"><ele>234.0</ele><time>2026-04-26T15:45:13.999Z</time></trkpt><trkpt lat="43.41763062932548" lon="12.930599561786192"><ele>234.0</ele><time>2026-04-26T15:45:14.999Z</time></trkpt><trkpt lat="43.41788586771717" lon="12.930652246708371"><ele>234.0</ele><time>2026-04-26T15:45:15.999Z</time></trkpt><trkpt lat="43.41812748440638" lon="12.930701768951202"><ele>236.0</ele><time>2026-04-26T15:45:16.999Z</time></trkpt><trkpt lat="43.41836204844239" lon="12.930749997112134"><ele>238.0</ele><time>2026-04-26T15:45:17.999Z</time></trkpt><trkpt lat="43.41860280253286" lon="12.930795965279644"><ele>240.5</ele><time>2026-04-26T15:45:18.999Z</time></trkpt><trkpt lat="43.41885629464574" lon="12.930829355260789"><ele>243.0</ele><time>2026-04-26T15:45:19.999Z</time></trkpt><trkpt lat="43.41911433472536" lon="12.930854926171204"><ele>243.0</ele><time>2026-04-26T15:45:20.999Z</time></trkpt><trkpt lat="43.41937806104182" lon="12.93088530496421"><ele>243.0</ele><time>2026-04-26T15:45:21.999Z</time></trkpt><trkpt lat="43.41964292824245" lon="12.930928605033692"><ele>237.5</ele><time>2026-04-26T15:45:22.999Z</time></trkpt><trkpt lat="43.41991475805624" lon="12.930980507727456"><ele>232.0</ele><time>2026-04-26T15:45:23.999Z</time></trkpt><trkpt lat="43.420187077934536" lon="12.931039198780718"><ele>232.0</ele><time>2026-04-26T15:45:24.999Z</time></trkpt><trkpt lat="43.42046234228541" lon="12.931087287454089"><ele>232.0</ele><time>2026-04-26T15:45:25.999Z</time></trkpt><trkpt lat="43.4207406481881" lon="12.931134012520019"><ele>233.0</ele><time>2026-04-26T15:45:26.999Z</time></trkpt><trkpt lat="43.421021966162584" lon="12.931179249960392"><ele>234.0</ele><time>2026-04-26T15:45:27.999Z</time></trkpt><trkpt lat="43.42130342189539" lon="12.9312234701637"><ele>236.5</ele><time>2026-04-26T15:45:28.999Z</time></trkpt><trkpt lat="43.42157837294676" lon="12.931267020946132"><ele>239.0</ele><time>2026-04-26T15:45:29.999Z</time></trkpt><trkpt lat="43.42182955984917" lon="12.931307355156557"><ele>239.0</ele><time>2026-04-26T15:45:30.998Z</time></trkpt><trkpt lat="43.42206730390411" lon="12.93134717300319"><ele>239.0</ele><time>2026-04-26T15:45:31.998Z</time></trkpt><trkpt lat="43.42229708032567" lon="12.93138847892303"><ele>240.5</ele><time>2026-04-26T15:45:32.998Z</time></trkpt><trkpt lat="43.42252719893847" lon="12.931453642283799"><ele>242.0</ele><time>2026-04-26T15:45:33.998Z</time></trkpt><trkpt lat="43.42275972439752" lon="12.93154310498554"><ele>238.5</ele><time>2026-04-26T15:45:34.998Z</time></trkpt><trkpt lat="43.42299159680589" lon="12.931655307175873"><ele>235.0</ele><time>2026-04-26T15:45:35.998Z</time></trkpt><trkpt lat="43.423229264022545" lon="12.931771433080133"><ele>235.0</ele><time>2026-04-26T15:45:36.998Z</time></trkpt><trkpt lat="43.42347004430357" lon="12.931887249880168"><ele>235.0</ele><time>2026-04-26T15:45:37.998Z</time></trkpt><trkpt lat="43.423712202215334" lon="12.932006671229079"><ele>239.5</ele><time>2026-04-26T15:45:38.998Z</time></trkpt><trkpt lat="43.42395127547027" lon="12.932134946378651"><ele>244.0</ele><time>2026-04-26T15:45:39.998Z</time></trkpt><trkpt lat="43.42417854090682" lon="12.932270996242222"><ele>244.0</ele><time>2026-04-26T15:45:40.998Z</time></trkpt><trkpt lat="43.424385548592255" lon="12.932401126355607"><ele>244.0</ele><time>2026-04-26T15:45:41.998Z</time></trkpt><trkpt lat="43.42458342045153" lon="12.93251811705286"><ele>244.0</ele><time>2026-04-26T15:45:42.998Z</time></trkpt><trkpt lat="43.42477662856519" lon="12.932608044201249"><ele>242.0</ele><time>2026-04-26T15:45:43.998Z</time></trkpt><trkpt lat="43.42497711288904" lon="12.932673455547027"><ele>240.0</ele><time>2026-04-26T15:45:44.998Z</time></trkpt><trkpt lat="43.4251860562049" lon="12.932692112736122"><ele>238.0</ele><time>2026-04-26T15:45:45.998Z</time></trkpt><trkpt lat="43.42540251979145" lon="12.932677668779935"><ele>238.0</ele><time>2026-04-26T15:45:46.998Z</time></trkpt><trkpt lat="43.42562075864381" lon="12.932628041803236"><ele>238.0</ele><time>2026-04-26T15:45:47.998Z</time></trkpt><trkpt lat="43.42582467161864" lon="12.932555096142334"><ele>238.0</ele><time>2026-04-26T15:45:48.998Z</time></trkpt><trkpt lat="43.42600863036491" lon="12.932468934846028"><ele>237.66666666666666</ele><time>2026-04-26T15:45:49.998Z</time></trkpt><trkpt lat="43.426180831221224" lon="12.932400307473177"><ele>237.33333333333331</ele><time>2026-04-26T15:45:50.998Z</time></trkpt><trkpt lat="43.42636807890292" lon="12.932373324915407"><ele>237.0</ele><time>2026-04-26T15:45:51.998Z</time></trkpt><trkpt lat="43.42656213290558" lon="12.932396421341489"><ele>237.0</ele><time>2026-04-26T15:45:52.999Z</time></trkpt><trkpt lat="43.426755344963624" lon="12.93245661824862"><ele>237.0</ele><time>2026-04-26T15:45:53.999Z</time></trkpt><trkpt lat="43.426937738143415" lon="12.932498620709834"><ele>237.0</ele><time>2026-04-26T15:45:54.999Z</time></trkpt><trkpt lat="43.427105086740596" lon="12.932529728170794"><ele>237.66666666666669</ele><time>2026-04-26T15:45:55.999Z</time></trkpt><trkpt lat="43.427257655431596" lon="12.93254391253407"><ele>238.33333333333334</ele><time>2026-04-26T15:45:57Z</time></trkpt><trkpt lat="43.42740605553012" lon="12.932528067661632"><ele>239.0</ele><time>2026-04-26T15:45:57.999Z</time></trkpt><trkpt lat="43.427555798859466" lon="12.932457799588729"><ele>239.0</ele><time>2026-04-26T15:45:59Z</time></trkpt><trkpt lat="43.42770184705291" lon="12.932327884807101"><ele>239.0</ele><time>2026-04-26T15:46:00Z</time></trkpt><trkpt lat="43.42781600137439" lon="12.932146866251784"><ele>239.0</ele><time>2026-04-26T15:46:01Z</time></trkpt><trkpt lat="43.42791517026894" lon="12.93192777478931"><ele>245.66666666666669</ele><time>2026-04-26T15:46:02Z</time></trkpt><trkpt lat="43.427995363394864" lon="12.931683516977523"><ele>252.33333333333331</ele><time>2026-04-26T15:46:03Z</time></trkpt><trkpt lat="43.42807919539377" lon="12.931404915742833"><ele>259.0</ele><time>2026-04-26T15:46:04Z</time></trkpt><trkpt lat="43.428154331139815" lon="12.93113838250622"><ele>257.0</ele><time>2026-04-26T15:46:05Z</time></trkpt><trkpt lat="43.42823229643527" lon="12.93086274879397"><ele>255.0</ele><time>2026-04-26T15:46:06Z</time></trkpt><trkpt lat="43.42829369914849" lon="12.93060164044842"><ele>253.0</ele><time>2026-04-26T15:46:07Z</time></trkpt><trkpt lat="43.42837610433134" lon="12.9303592640095"><ele>253.0</ele><time>2026-04-26T15:46:08Z</time></trkpt><trkpt lat="43.42843282123445" lon="12.930121667285105"><ele>253.0</ele><time>2026-04-26T15:46:09Z</time></trkpt><trkpt lat="43.428473358386505" lon="12.929877673938513"><ele>253.0</ele><time>2026-04-26T15:46:10Z</time></trkpt><trkpt lat="43.42849223043752" lon="12.929619249758549"><ele>250.66666666666666</ele><time>2026-04-26T15:46:11Z</time></trkpt><trkpt lat="43.42849200827617" lon="12.92934473699537"><ele>248.33333333333331</ele><time>2026-04-26T15:46:12Z</time></trkpt><trkpt lat="43.428482594904594" lon="12.929053934342356"><ele>246.0</ele><time>2026-04-26T15:46:13Z</time></trkpt><trkpt lat="43.42846922762889" lon="12.928751184524282"><ele>245.0</ele><time>2026-04-26T15:46:14Z</time></trkpt><trkpt lat="43.42845095764054" lon="12.928440788598019"><ele>244.0</ele><time>2026-04-26T15:46:15Z</time></trkpt><trkpt lat="43.4284284917841" lon="12.928120463745735"><ele>244.0</ele><time>2026-04-26T15:46:16Z</time></trkpt><trkpt lat="43.42842742642895" lon="12.927795595823293"><ele>244.0</ele><time>2026-04-26T15:46:17Z</time></trkpt><trkpt lat="43.42841061255915" lon="12.927464941085217"><ele>244.5</ele><time>2026-04-26T15:46:18Z</time></trkpt><trkpt lat="43.42839341827044" lon="12.9271268052626"><ele>245.0</ele><time>2026-04-26T15:46:19Z</time></trkpt><trkpt lat="43.428353714106926" lon="12.926784334456539"><ele>246.0</ele><time>2026-04-26T15:46:20Z</time></trkpt><trkpt lat="43.42834005532104" lon="12.92644281297546"><ele>247.0</ele><time>2026-04-26T15:46:21Z</time></trkpt><trkpt lat="43.42832708372624" lon="12.9261027274084"><ele>247.0</ele><time>2026-04-26T15:46:22Z</time></trkpt><trkpt lat="43.42831213125381" lon="12.925765890225733"><ele>247.0</ele><time>2026-04-26T15:46:23Z</time></trkpt><trkpt lat="43.42829884220341" lon="12.925426769068853"><ele>247.0</ele><time>2026-04-26T15:46:23.999Z</time></trkpt><trkpt lat="43.42828214255819" lon="12.92508505202181"><ele>247.0</ele><time>2026-04-26T15:46:24.999Z</time></trkpt><trkpt lat="43.42826572363895" lon="12.924741303180879"><ele>247.0</ele><time>2026-04-26T15:46:25.999Z</time></trkpt><trkpt lat="43.42825077392743" lon="12.924395818664767"><ele>247.0</ele><time>2026-04-26T15:46:26.999Z</time></trkpt><trkpt lat="43.42823648088676" lon="12.924049640044906"><ele>248.0</ele><time>2026-04-26T15:46:27.999Z</time></trkpt><trkpt lat="43.42822095601134" lon="12.923704072693914"><ele>249.0</ele><time>2026-04-26T15:46:28.999Z</time></trkpt><trkpt lat="43.42820242306488" lon="12.923358663883018"><ele>251.5</ele><time>2026-04-26T15:46:29.999Z</time></trkpt><trkpt lat="43.42818454319756" lon="12.923013077785505"><ele>254.0</ele><time>2026-04-26T15:46:30.999Z</time></trkpt><trkpt lat="43.42816058048275" lon="12.922671993567254"><ele>257.5</ele><time>2026-04-26T15:46:31.999Z</time></trkpt><trkpt lat="43.42812522738968" lon="12.9223329743205"><ele>261.0</ele><time>2026-04-26T15:46:32.999Z</time></trkpt><trkpt lat="43.42807576853881" lon="12.921999559483245"><ele>263.5</ele><time>2026-04-26T15:46:33.999Z</time></trkpt><trkpt lat="43.42801191135014" lon="12.921671190539792"><ele>266.0</ele><time>2026-04-26T15:46:34.999Z</time></trkpt><trkpt lat="43.42792577461851" lon="12.921346208232913"><ele>257.5</ele><time>2026-04-26T15:46:35.999Z</time></trkpt><trkpt lat="43.42783075915052" lon="12.921019777969896"><ele>249.0</ele><time>2026-04-26T15:46:36.999Z</time></trkpt><trkpt lat="43.42772455144324" lon="12.920702121415077"><ele>249.0</ele><time>2026-04-26T15:46:37.999Z</time></trkpt><trkpt lat="43.427613442692774" lon="12.920398067854144"><ele>249.0</ele><time>2026-04-26T15:46:38.999Z</time></trkpt><trkpt lat="43.427515005247706" lon="12.920100493949766"><ele>250.66666666666669</ele><time>2026-04-26T15:46:39.999Z</time></trkpt><trkpt lat="43.42744674310901" lon="12.91981387223625"><ele>252.33333333333334</ele><time>2026-04-26T15:46:40.999Z</time></trkpt><trkpt lat="43.4274130736065" lon="12.91951122485326"><ele>254.0</ele><time>2026-04-26T15:46:41.999Z</time></trkpt><trkpt lat="43.42734906412255" lon="12.919220717576069"><ele>255.5</ele><time>2026-04-26T15:46:42.999Z</time></trkpt><trkpt lat="43.427279883757876" lon="12.918934769293523"><ele>257.0</ele><time>2026-04-26T15:46:43.999Z</time></trkpt><trkpt lat="43.42737645542163" lon="12.918558278339697"><ele>261.5</ele><time>2026-04-26T15:46:44.999Z</time></trkpt><trkpt lat="43.42736337613394" lon="12.91822874958421"><ele>266.0</ele><time>2026-04-26T15:46:45.999Z</time></trkpt><trkpt lat="43.42734098791817" lon="12.9178970986885"><ele>271.0</ele><time>2026-04-26T15:46:46.999Z</time></trkpt><trkpt lat="43.427304980074425" lon="12.917559697550637"><ele>276.0</ele><time>2026-04-26T15:46:47.999Z</time></trkpt><trkpt lat="43.427259546363075" lon="12.917221001159238"><ele>276.0</ele><time>2026-04-26T15:46:48.999Z</time></trkpt><trkpt lat="43.42721314497768" lon="12.916899421833465"><ele>276.0</ele><time>2026-04-26T15:46:49.999Z</time></trkpt><trkpt lat="43.42718141208739" lon="12.916589929803127"><ele>277.5</ele><time>2026-04-26T15:46:50.999Z</time></trkpt><trkpt lat="43.42717425630542" lon="12.91627297795985"><ele>279.0</ele><time>2026-04-26T15:46:51.999Z</time></trkpt><trkpt lat="43.42719127123358" lon="12.915959785812806"><ele>277.0</ele><time>2026-04-26T15:46:52.999Z</time></trkpt><trkpt lat="43.42725021321976" lon="12.915675238425898"><ele>275.0</ele><time>2026-04-26T15:46:53.999Z</time></trkpt><trkpt lat="43.427341970102994" lon="12.915397705117426"><ele>273.0</ele><time>2026-04-26T15:46:54.999Z</time></trkpt><trkpt lat="43.42746088100079" lon="12.915124983917073"><ele>265.5</ele><time>2026-04-26T15:46:55.999Z</time></trkpt><trkpt lat="43.4276193178759" lon="12.914875327544387"><ele>258.0</ele><time>2026-04-26T15:46:56.999Z</time></trkpt><trkpt lat="43.427802910106664" lon="12.914659144840412"><ele>267.5</ele><time>2026-04-26T15:46:57.999Z</time></trkpt><trkpt lat="43.42800754521222" lon="12.914473576374712"><ele>277.0</ele><time>2026-04-26T15:46:58.999Z</time></trkpt><trkpt lat="43.42822992089389" lon="12.91432142872399"><ele>268.5</ele><time>2026-04-26T15:46:59.999Z</time></trkpt><trkpt lat="43.428459117106186" lon="12.914174726053101"><ele>260.0</ele><time>2026-04-26T15:47:00.999Z</time></trkpt><trkpt lat="43.428687484847494" lon="12.914015771116036"><ele>265.5</ele><time>2026-04-26T15:47:01.999Z</time></trkpt><trkpt lat="43.428925502858384" lon="12.913865801440014"><ele>271.0</ele><time>2026-04-26T15:47:02.999Z</time></trkpt><trkpt lat="43.42915904551764" lon="12.913706916509271"><ele>271.0</ele><time>2026-04-26T15:47:03.999Z</time></trkpt><trkpt lat="43.429395628405395" lon="12.9135475158753"><ele>271.0</ele><time>2026-04-26T15:47:04.999Z</time></trkpt><trkpt lat="43.429627276809285" lon="12.91338686555956"><ele>269.0</ele><time>2026-04-26T15:47:05.999Z</time></trkpt><trkpt lat="43.42985086073683" lon="12.913216601895662"><ele>267.0</ele><time>2026-04-26T15:47:06.999Z</time></trkpt><trkpt lat="43.43005877865549" lon="12.913023462791081"><ele>267.0</ele><time>2026-04-26T15:47:07.999Z</time></trkpt><trkpt lat="43.43024969195635" lon="12.912803123824999"><ele>267.0</ele><time>2026-04-26T15:47:08.999Z</time></trkpt><trkpt lat="43.43042168102084" lon="12.912550356355315"><ele>270.0</ele><time>2026-04-26T15:47:09.999Z</time></trkpt><trkpt lat="43.43058051637846" lon="12.912272416977084"><ele>273.0</ele><time>2026-04-26T15:47:10.999Z</time></trkpt><trkpt lat="43.43072586799531" lon="12.911972374255022"><ele>266.5</ele><time>2026-04-26T15:47:11.999Z</time></trkpt><trkpt lat="43.43086474891878" lon="12.911662752223696"><ele>260.0</ele><time>2026-04-26T15:47:12.999Z</time></trkpt><trkpt lat="43.43100348387529" lon="12.911352053084089"><ele>260.0</ele><time>2026-04-26T15:47:13.999Z</time></trkpt><trkpt lat="43.4311430209652" lon="12.911046842112603"><ele>260.0</ele><time>2026-04-26T15:47:14.999Z</time></trkpt><trkpt lat="43.4312750938727" lon="12.91076396355322"><ele>266.0</ele><time>2026-04-26T15:47:15.999Z</time></trkpt><trkpt lat="43.43140034509553" lon="12.910490000972104"><ele>272.0</ele><time>2026-04-26T15:47:16.999Z</time></trkpt><trkpt lat="43.431519098162866" lon="12.910226589900637"><ele>268.6666666666667</ele><time>2026-04-26T15:47:17.999Z</time></trkpt><trkpt lat="43.43163688171976" lon="12.909992313049077"><ele>265.3333333333333</ele><time>2026-04-26T15:47:18.999Z</time></trkpt><trkpt lat="43.43176647874931" lon="12.909778863729127"><ele>262.0</ele><time>2026-04-26T15:47:19.999Z</time></trkpt><trkpt lat="43.43191357158811" lon="12.909605741884116"><ele>262.0</ele><time>2026-04-26T15:47:20.999Z</time></trkpt><trkpt lat="43.43207248753431" lon="12.909440582662972"><ele>262.0</ele><time>2026-04-26T15:47:21.999Z</time></trkpt><trkpt lat="43.43225068373667" lon="12.909285001602784"><ele>262.0</ele><time>2026-04-26T15:47:22.999Z</time></trkpt><trkpt lat="43.432435206649494" lon="12.909130016709916"><ele>262.0</ele><time>2026-04-26T15:47:23.999Z</time></trkpt><trkpt lat="43.43261423059276" lon="12.908966769275404"><ele>262.0</ele><time>2026-04-26T15:47:24.999Z</time></trkpt><trkpt lat="43.432798357017866" lon="12.908807043666679"><ele>262.0</ele><time>2026-04-26T15:47:25.999Z</time></trkpt><trkpt lat="43.43298520562887" lon="12.908641627515566"><ele>261.5</ele><time>2026-04-26T15:47:26.999Z</time></trkpt><trkpt lat="43.43318118482127" lon="12.908475387318905"><ele>261.0</ele><time>2026-04-26T15:47:27.999Z</time></trkpt><trkpt lat="43.43338466326998" lon="12.908303422581017"><ele>261.0</ele><time>2026-04-26T15:47:28.999Z</time></trkpt><trkpt lat="43.43359081758083" lon="12.908126852507122"><ele>261.0</ele><time>2026-04-26T15:47:29.999Z</time></trkpt><trkpt lat="43.4337998714979" lon="12.907939620151245"><ele>260.0</ele><time>2026-04-26T15:47:30.999Z</time></trkpt><trkpt lat="43.43401135861492" lon="12.907745532152804"><ele>259.0</ele><time>2026-04-26T15:47:31.999Z</time></trkpt><trkpt lat="43.43422474965161" lon="12.907549478738618"><ele>259.0</ele><time>2026-04-26T15:47:32.999Z</time></trkpt><trkpt lat="43.434440668381846" lon="12.907349819312365"><ele>259.0</ele><time>2026-04-26T15:47:33.999Z</time></trkpt><trkpt lat="43.434657835249276" lon="12.907143917885941"><ele>261.5</ele><time>2026-04-26T15:47:34.999Z</time></trkpt><trkpt lat="43.434883623156814" lon="12.906956986086692"><ele>264.0</ele><time>2026-04-26T15:47:35.999Z</time></trkpt><trkpt lat="43.435098136913766" lon="12.90675445304389"><ele>264.5</ele><time>2026-04-26T15:47:36.999Z</time></trkpt><trkpt lat="43.4353099337314" lon="12.906552766178832"><ele>265.0</ele><time>2026-04-26T15:47:37.999Z</time></trkpt><trkpt lat="43.43549791576583" lon="12.9063379273281"><ele>265.0</ele><time>2026-04-26T15:47:38.999Z</time></trkpt><trkpt lat="43.435681298211136" lon="12.906140464769113"><ele>265.0</ele><time>2026-04-26T15:47:39.999Z</time></trkpt><trkpt lat="43.43586437363485" lon="12.905949291221416"><ele>263.5</ele><time>2026-04-26T15:47:40.999Z</time></trkpt><trkpt lat="43.43605183821557" lon="12.905739634160321"><ele>262.0</ele><time>2026-04-26T15:47:41.999Z</time></trkpt><trkpt lat="43.43624131045894" lon="12.905517117397011"><ele>262.5</ele><time>2026-04-26T15:47:42.999Z</time></trkpt><trkpt lat="43.43643323465607" lon="12.905293940543846"><ele>263.0</ele><time>2026-04-26T15:47:43.999Z</time></trkpt><trkpt lat="43.436628705103914" lon="12.905068143927927"><ele>263.0</ele><time>2026-04-26T15:47:44.999Z</time></trkpt><trkpt lat="43.43683908916494" lon="12.904861851368505"><ele>263.0</ele><time>2026-04-26T15:47:45.999Z</time></trkpt><trkpt lat="43.43703588099147" lon="12.904633233157531"><ele>263.0</ele><time>2026-04-26T15:47:46.999Z</time></trkpt><trkpt lat="43.437223732172015" lon="12.904381546428436"><ele>263.0</ele><time>2026-04-26T15:47:47.999Z</time></trkpt><trkpt lat="43.4374388820211" lon="12.904158651232892"><ele>263.0</ele><time>2026-04-26T15:47:48.999Z</time></trkpt><trkpt lat="43.4376407664853" lon="12.903921457261934"><ele>263.0</ele><time>2026-04-26T15:47:49.999Z</time></trkpt><trkpt lat="43.437828444195326" lon="12.903700470792405"><ele>263.5</ele><time>2026-04-26T15:47:50.999Z</time></trkpt><trkpt lat="43.437993582497626" lon="12.90347367067763"><ele>264.0</ele><time>2026-04-26T15:47:51.999Z</time></trkpt><trkpt lat="43.43816436882077" lon="12.903273388250705"><ele>264.0</ele><time>2026-04-26T15:47:52.999Z</time></trkpt><trkpt lat="43.43832173673213" lon="12.903090268086398"><ele>264.0</ele><time>2026-04-26T15:47:53.999Z</time></trkpt><trkpt lat="43.43847335478563" lon="12.902916666179918"><ele>264.0</ele><time>2026-04-26T15:47:54.999Z</time></trkpt><trkpt lat="43.438629009790084" lon="12.90273637288241"><ele>263.0</ele><time>2026-04-26T15:47:55.999Z</time></trkpt><trkpt lat="43.43879527684364" lon="12.90255131551485"><ele>262.0</ele><time>2026-04-26T15:47:56.999Z</time></trkpt><trkpt lat="43.43896808703577" lon="12.902357962705448"><ele>261.0</ele><time>2026-04-26T15:47:58Z</time></trkpt><trkpt lat="43.43914642185799" lon="12.90215674417876"><ele>261.0</ele><time>2026-04-26T15:47:59Z</time></trkpt><trkpt lat="43.4393292855133" lon="12.901952658784356"><ele>261.0</ele><time>2026-04-26T15:48:00Z</time></trkpt><trkpt lat="43.439511602781415" lon="12.90174862566596"><ele>260.5</ele><time>2026-04-26T15:48:01Z</time></trkpt><trkpt lat="43.43968318121" lon="12.90153152123793"><ele>260.0</ele><time>2026-04-26T15:48:02Z</time></trkpt><trkpt lat="43.439829744123706" lon="12.901275379484687"><ele>260.0</ele><time>2026-04-26T15:48:03Z</time></trkpt><trkpt lat="43.43995537208422" lon="12.900982636858336"><ele>260.0</ele><time>2026-04-26T15:48:04Z</time></trkpt><trkpt lat="43.44007992191509" lon="12.900684288888746"><ele>259.0</ele><time>2026-04-26T15:48:05Z</time></trkpt><trkpt lat="43.44021006678131" lon="12.900392332352393"><ele>258.0</ele><time>2026-04-26T15:48:06Z</time></trkpt><trkpt lat="43.44034468871835" lon="12.900108291567113"><ele>259.6666666666667</ele><time>2026-04-26T15:48:07Z</time></trkpt><trkpt lat="43.44047008314021" lon="12.8998438787964"><ele>261.33333333333337</ele><time>2026-04-26T15:48:08Z</time></trkpt><trkpt lat="43.44058637948331" lon="12.89959422665505"><ele>263.0</ele><time>2026-04-26T15:48:09Z</time></trkpt><trkpt lat="43.440702695033906" lon="12.899361607641538"><ele>262.33333333333337</ele><time>2026-04-26T15:48:10Z</time></trkpt><trkpt lat="43.44082464155803" lon="12.899142453745906"><ele>261.6666666666667</ele><time>2026-04-26T15:48:11Z</time></trkpt><trkpt lat="43.4409604776136" lon="12.898917731101335"><ele>261.0</ele><time>2026-04-26T15:48:12Z</time></trkpt><trkpt lat="43.44111262452456" lon="12.898686764775974"><ele>261.0</ele><time>2026-04-26T15:48:13Z</time></trkpt><trkpt lat="43.441281897002135" lon="12.89846812918908"><ele>261.0</ele><time>2026-04-26T15:48:14Z</time></trkpt><trkpt lat="43.44146064864554" lon="12.898253794402603"><ele>263.0</ele><time>2026-04-26T15:48:15Z</time></trkpt><trkpt lat="43.44164581667643" lon="12.89803353506965"><ele>265.0</ele><time>2026-04-26T15:48:16Z</time></trkpt><trkpt lat="43.4418333618219" lon="12.897810815950827"><ele>265.0</ele><time>2026-04-26T15:48:17Z</time></trkpt><trkpt lat="43.442029641834026" lon="12.897592747475985"><ele>265.0</ele><time>2026-04-26T15:48:18Z</time></trkpt><trkpt lat="43.44222963798964" lon="12.89738424238"><ele>267.5</ele><time>2026-04-26T15:48:19Z</time></trkpt><trkpt lat="43.442425633891446" lon="12.897173000164663"><ele>270.0</ele><time>2026-04-26T15:48:20Z</time></trkpt><trkpt lat="43.44262038530211" lon="12.896958183623926"><ele>270.0</ele><time>2026-04-26T15:48:21Z</time></trkpt><trkpt lat="43.44280611867952" lon="12.89675699846309"><ele>270.0</ele><time>2026-04-26T15:48:22Z</time></trkpt><trkpt lat="43.44297603042511" lon="12.896570006881346"><ele>273.0</ele><time>2026-04-26T15:48:23Z</time></trkpt><trkpt lat="43.44310745136172" lon="12.896380360360768"><ele>276.0</ele><time>2026-04-26T15:48:24Z</time></trkpt><trkpt lat="43.44320332553855" lon="12.896163193207748"><ele>279.0</ele><time>2026-04-26T15:48:25Z</time></trkpt><trkpt lat="43.44327131111925" lon="12.895929743236884"><ele>276.6666666666667</ele><time>2026-04-26T15:48:26Z</time></trkpt><trkpt lat="43.44331455279725" lon="12.89567161346676"><ele>274.33333333333337</ele><time>2026-04-26T15:48:27Z</time></trkpt><trkpt lat="43.44334310031925" lon="12.895410844115665"><ele>272.0</ele><time>2026-04-26T15:48:28Z</time></trkpt><trkpt lat="43.44336269004159" lon="12.895169727678228"><ele>271.25</ele><time>2026-04-26T15:48:29Z</time></trkpt><trkpt lat="43.44338046683317" lon="12.89495196235619"><ele>270.5</ele><time>2026-04-26T15:48:30Z</time></trkpt><trkpt lat="43.443402219506325" lon="12.894757146598584"><ele>269.75</ele><time>2026-04-26T15:48:31Z</time></trkpt><trkpt lat="43.443418334212296" lon="12.894587721456219"><ele>269.0</ele><time>2026-04-26T15:48:32Z</time></trkpt><trkpt lat="43.44342798663761" lon="12.89446069429353"><ele>269.0</ele><time>2026-04-26T15:48:33Z</time></trkpt><trkpt lat="43.44343956641451" lon="12.894369973115722"><ele>269.0</ele><time>2026-04-26T15:48:34Z</time></trkpt><trkpt lat="43.4434274233926" lon="12.894275559829053"><ele>269.0</ele><time>2026-04-26T15:48:36Z</time></trkpt><trkpt lat="43.44334018886317" lon="12.894188754094202"><ele>269.0</ele><time>2026-04-26T15:48:38Z</time></trkpt><trkpt lat="43.44323972245139" lon="12.894172434250608"><ele>269.0</ele><time>2026-04-26T15:50:30Z</time></trkpt><trkpt lat="43.44314989715626" lon="12.894141385859815"><ele>269.0</ele><time>2026-04-26T15:50:31Z</time></trkpt><trkpt lat="43.44304225556496" lon="12.89411419379402"><ele>269.0</ele><time>2026-04-26T15:50:32Z</time></trkpt><trkpt lat="43.44291596140451" lon="12.894075796969705"><ele>269.0</ele><time>2026-04-26T15:50:33Z</time></trkpt><trkpt lat="43.442775595833204" lon="12.89403514268152"><ele>269.0</ele><time>2026-04-26T15:50:34Z</time></trkpt><trkpt lat="43.44262376847412" lon="12.893985568372203"><ele>269.0</ele><time>2026-04-26T15:50:35Z</time></trkpt><trkpt lat="43.44246083064964" lon="12.89393422272567"><ele>269.0</ele><time>2026-04-26T15:50:36Z</time></trkpt><trkpt lat="43.44229317831223" lon="12.893887018626828"><ele>269.0</ele><time>2026-04-26T15:50:37Z</time></trkpt><trkpt lat="43.44212943095748" lon="12.893841925572096"><ele>269.0</ele><time>2026-04-26T15:50:38Z</time></trkpt><trkpt lat="43.44197266521571" lon="12.893791983790978"><ele>269.6666666666667</ele><time>2026-04-26T15:50:39Z</time></trkpt><trkpt lat="43.441825200041635" lon="12.893735349780817"><ele>270.3333333333333</ele><time>2026-04-26T15:50:40Z</time></trkpt><trkpt lat="43.44169406760214" lon="12.893652381656326"><ele>271.0</ele><time>2026-04-26T15:50:41Z</time></trkpt><trkpt lat="43.441565421257685" lon="12.89353131683552"><ele>272.66666666666663</ele><time>2026-04-26T15:50:42Z</time></trkpt><trkpt lat="43.441445975686506" lon="12.89338311376974"><ele>274.3333333333333</ele><time>2026-04-26T15:50:43Z</time></trkpt><trkpt lat="43.441338951959175" lon="12.89320354080699"><ele>276.0</ele><time>2026-04-26T15:50:44Z</time></trkpt><trkpt lat="43.441247454446504" lon="12.892997370049045"><ele>276.3333333333333</ele><time>2026-04-26T15:50:45Z</time></trkpt><trkpt lat="43.44116679517685" lon="12.892768629970746"><ele>276.66666666666663</ele><time>2026-04-26T15:50:46Z</time></trkpt><trkpt lat="43.44108377014777" lon="12.89252895378812"><ele>277.0</ele><time>2026-04-26T15:50:47Z</time></trkpt><trkpt lat="43.44100241773802" lon="12.89227283880034"><ele>277.0</ele><time>2026-04-26T15:50:48Z</time></trkpt><trkpt lat="43.44091434297727" lon="12.892021273915457"><ele>277.0</ele><time>2026-04-26T15:50:49Z</time></trkpt><trkpt lat="43.4408395909964" lon="12.891746997176773"><ele>277.0</ele><time>2026-04-26T15:50:50Z</time></trkpt><trkpt lat="43.44074479357991" lon="12.891468403615388"><ele>276.0</ele><time>2026-04-26T15:50:51Z</time></trkpt><trkpt lat="43.44064753563967" lon="12.891183172211388"><ele>275.0</ele><time>2026-04-26T15:50:52Z</time></trkpt><trkpt lat="43.44054606563778" lon="12.89088633360732"><ele>274.0</ele><time>2026-04-26T15:50:53Z</time></trkpt><trkpt lat="43.440441884946786" lon="12.890577520027385"><ele>273.0</ele><time>2026-04-26T15:50:54Z</time></trkpt><trkpt lat="43.440335120631296" lon="12.890260549646074"><ele>273.0</ele><time>2026-04-26T15:50:55Z</time></trkpt><trkpt lat="43.44022442283699" lon="12.889931901685793"><ele>273.0</ele><time>2026-04-26T15:50:56Z</time></trkpt><trkpt lat="43.44011038782411" lon="12.889593746320074"><ele>271.0</ele><time>2026-04-26T15:50:57Z</time></trkpt><trkpt lat="43.43997951301298" lon="12.889256395724342"><ele>269.0</ele><time>2026-04-26T15:50:58Z</time></trkpt><trkpt lat="43.43987269179508" lon="12.888888651349067"><ele>269.0</ele><time>2026-04-26T15:50:59Z</time></trkpt><trkpt lat="43.439742334537286" lon="12.888543829735061"><ele>269.0</ele><time>2026-04-26T15:51:00Z</time></trkpt><trkpt lat="43.43961794653031" lon="12.888182270570352"><ele>267.0</ele><time>2026-04-26T15:51:01Z</time></trkpt><trkpt lat="43.4395103808909" lon="12.887810526210838"><ele>265.0</ele><time>2026-04-26T15:51:02Z</time></trkpt><trkpt lat="43.43938784409957" lon="12.887445050654183"><ele>264.5</ele><time>2026-04-26T15:51:03Z</time></trkpt><trkpt lat="43.43926413025987" lon="12.887075974023595"><ele>264.0</ele><time>2026-04-26T15:51:04Z</time></trkpt><trkpt lat="43.4391401671555" lon="12.886706952368645"><ele>265.0</ele><time>2026-04-26T15:51:05Z</time></trkpt><trkpt lat="43.43901470584901" lon="12.886334402600099"><ele>266.0</ele><time>2026-04-26T15:51:06Z</time></trkpt><trkpt lat="43.43888717737267" lon="12.885958853733682"><ele>264.0</ele><time>2026-04-26T15:51:07Z</time></trkpt><trkpt lat="43.43875974506856" lon="12.885583588030967"><ele>262.0</ele><time>2026-04-26T15:51:08Z</time></trkpt><trkpt lat="43.438631525261926" lon="12.885205704899255"><ele>262.5</ele><time>2026-04-26T15:51:09Z</time></trkpt><trkpt lat="43.43850347891095" lon="12.884827642940056"><ele>263.0</ele><time>2026-04-26T15:51:10Z</time></trkpt><trkpt lat="43.4383754296054" lon="12.884449533059804"><ele>264.0</ele><time>2026-04-26T15:51:11Z</time></trkpt><trkpt lat="43.438246304282686" lon="12.884068413116491"><ele>265.0</ele><time>2026-04-26T15:51:12Z</time></trkpt><trkpt lat="43.43811763180362" lon="12.883691263428528"><ele>264.5</ele><time>2026-04-26T15:51:13Z</time></trkpt><trkpt lat="43.437989336541605" lon="12.883315219409448"><ele>264.0</ele><time>2026-04-26T15:51:14Z</time></trkpt><trkpt lat="43.43786118503635" lon="12.88293959676794"><ele>267.0</ele><time>2026-04-26T15:51:15Z</time></trkpt><trkpt lat="43.437732884348655" lon="12.882563268800535"><ele>270.0</ele><time>2026-04-26T15:51:16Z</time></trkpt><trkpt lat="43.43760485921108" lon="12.882186342220706"><ele>270.0</ele><time>2026-04-26T15:51:17Z</time></trkpt><trkpt lat="43.437479667193244" lon="12.881817756893074"><ele>270.0</ele><time>2026-04-26T15:51:18Z</time></trkpt><trkpt lat="43.43734554488259" lon="12.881474725141713"><ele>271.0</ele><time>2026-04-26T15:51:19Z</time></trkpt><trkpt lat="43.43723247509985" lon="12.881144748480613"><ele>272.0</ele><time>2026-04-26T15:51:20Z</time></trkpt><trkpt lat="43.437137744570144" lon="12.880815454397077"><ele>272.5</ele><time>2026-04-26T15:51:21Z</time></trkpt><trkpt lat="43.43701581669874" lon="12.88050760723184"><ele>273.0</ele><time>2026-04-26T15:51:22Z</time></trkpt><trkpt lat="43.43691050870833" lon="12.880193245746478"><ele>274.0</ele><time>2026-04-26T15:51:23Z</time></trkpt><trkpt lat="43.436804508511244" lon="12.879884569958044"><ele>275.0</ele><time>2026-04-26T15:51:23.999Z</time></trkpt><trkpt lat="43.43670267601894" lon="12.879582603164943"><ele>275.0</ele><time>2026-04-26T15:51:24.999Z</time></trkpt><trkpt lat="43.436609363347756" lon="12.879301115573968"><ele>275.0</ele><time>2026-04-26T15:51:25.999Z</time></trkpt><trkpt lat="43.4365217185726" lon="12.879033812246458"><ele>275.0</ele><time>2026-04-26T15:51:26.999Z</time></trkpt><trkpt lat="43.43645544534878" lon="12.878760832763279"><ele>277.0</ele><time>2026-04-26T15:51:27.999Z</time></trkpt><trkpt lat="43.436374935950035" lon="12.878495302327183"><ele>279.0</ele><time>2026-04-26T15:51:28.999Z</time></trkpt><trkpt lat="43.43633695506111" lon="12.8781982716692"><ele>281.0</ele><time>2026-04-26T15:51:29.999Z</time></trkpt><trkpt lat="43.436319319014984" lon="12.877884804255118"><ele>284.5</ele><time>2026-04-26T15:51:30.999Z</time></trkpt><trkpt lat="43.43631420158425" lon="12.877561859605763"><ele>288.0</ele><time>2026-04-26T15:51:31.999Z</time></trkpt><trkpt lat="43.43630403927231" lon="12.877228395705071"><ele>281.0</ele><time>2026-04-26T15:51:32.999Z</time></trkpt><trkpt lat="43.43629173338616" lon="12.876890150327448"><ele>274.0</ele><time>2026-04-26T15:51:33.999Z</time></trkpt><trkpt lat="43.436279859314915" lon="12.876541007561466"><ele>274.0</ele><time>2026-04-26T15:51:34.999Z</time></trkpt><trkpt lat="43.436267008459076" lon="12.87618724740198"><ele>274.0</ele><time>2026-04-26T15:51:35.999Z</time></trkpt><trkpt lat="43.4362540329484" lon="12.875831177381807"><ele>276.0</ele><time>2026-04-26T15:51:36.999Z</time></trkpt><trkpt lat="43.436241495221466" lon="12.875498884435167"><ele>278.0</ele><time>2026-04-26T15:51:37.999Z</time></trkpt><trkpt lat="43.43622731575517" lon="12.875186612316941"><ele>278.0</ele><time>2026-04-26T15:51:38.999Z</time></trkpt><trkpt lat="43.436209444265096" lon="12.874890248060108"><ele>278.0</ele><time>2026-04-26T15:51:39.999Z</time></trkpt><trkpt lat="43.43618079586984" lon="12.874613326980658"><ele>278.0</ele><time>2026-04-26T15:51:40.999Z</time></trkpt><trkpt lat="43.43612335806169" lon="12.874360869621219"><ele>279.33333333333337</ele><time>2026-04-26T15:51:41.999Z</time></trkpt><trkpt lat="43.43605724516753" lon="12.874138295422604"><ele>280.6666666666667</ele><time>2026-04-26T15:51:42.999Z</time></trkpt><trkpt lat="43.43600286823474" lon="12.873944271799235"><ele>282.0</ele><time>2026-04-26T15:51:43.999Z</time></trkpt><trkpt lat="43.43596781555119" lon="12.873772005627654"><ele>282.0</ele><time>2026-04-26T15:51:44.999Z</time></trkpt><trkpt lat="43.43595484261781" lon="12.87361380133139"><ele>282.0</ele><time>2026-04-26T15:51:45.999Z</time></trkpt><trkpt lat="43.43595946426227" lon="12.873478520638477"><ele>282.0</ele><time>2026-04-26T15:51:46.999Z</time></trkpt><trkpt lat="43.43596905509273" lon="12.873373990795068"><ele>282.0</ele><time>2026-04-26T15:51:47.999Z</time></trkpt><trkpt lat="43.436029221364905" lon="12.873269843597367"><ele>282.0</ele><time>2026-04-26T15:51:49.999Z</time></trkpt><trkpt lat="43.43609781370258" lon="12.873176529639093"><ele>282.0</ele><time>2026-04-26T15:51:51.999Z</time></trkpt><trkpt lat="43.436106842338745" lon="12.873069565147485"><ele>282.0</ele><time>2026-04-26T15:51:53.999Z</time></trkpt><trkpt lat="43.436115578118596" lon="12.872983233190993"><ele>282.0</ele><time>2026-04-26T15:51:56.999Z</time></trkpt><trkpt lat="43.43610874272004" lon="12.873131814216705"><ele>282.0</ele><time>2026-04-26T15:52:44.03Z</time></trkpt><trkpt lat="43.43603120204127" lon="12.87324682688117"><ele>282.0</ele><time>2026-04-26T15:52:52Z</time></trkpt><trkpt lat="43.43603942233961" lon="12.873111079985469"><ele>282.0</ele><time>2026-04-26T15:53:31.999Z</time></trkpt><trkpt lat="43.43595684768406" lon="12.87277081028186"><ele>282.0</ele><time>2026-04-26T15:54:31Z</time></trkpt><trkpt lat="43.43589788822426" lon="12.872718532047074"><ele>282.0</ele><time>2026-04-26T15:54:33Z</time></trkpt><trkpt lat="43.43586120260494" lon="12.872603416619448"><ele>282.0</ele><time>2026-04-26T15:54:35Z</time></trkpt><trkpt lat="43.43588601492579" lon="12.872475396031263"><ele>282.5</ele><time>2026-04-26T15:54:36Z</time></trkpt><trkpt lat="43.43587730124941" lon="12.872307562393354"><ele>283.0</ele><time>2026-04-26T15:54:37Z</time></trkpt><trkpt lat="43.4358680309277" lon="12.872129007266391"><ele>283.5</ele><time>2026-04-26T15:54:38Z</time></trkpt><trkpt lat="43.435857228238504" lon="12.87192093735024"><ele>284.0</ele><time>2026-04-26T15:54:39Z</time></trkpt><trkpt lat="43.435845582041075" lon="12.87169662062008"><ele>284.0</ele><time>2026-04-26T15:54:40Z</time></trkpt><trkpt lat="43.43582778434715" lon="12.871452032570627"><ele>284.0</ele><time>2026-04-26T15:54:41Z</time></trkpt><trkpt lat="43.43580128426187" lon="12.871202645376746"><ele>284.0</ele><time>2026-04-26T15:54:42Z</time></trkpt><trkpt lat="43.43574153383005" lon="12.870961863483886"><ele>284.6666666666667</ele><time>2026-04-26T15:54:43Z</time></trkpt><trkpt lat="43.43569843520659" lon="12.870720985717309"><ele>285.3333333333333</ele><time>2026-04-26T15:54:44Z</time></trkpt><trkpt lat="43.43562717288472" lon="12.87049430836235"><ele>286.0</ele><time>2026-04-26T15:54:45Z</time></trkpt><trkpt lat="43.43553322431089" lon="12.870257463766913"><ele>284.66666666666663</ele><time>2026-04-26T15:54:46Z</time></trkpt><trkpt lat="43.43538626287036" lon="12.870051360645647"><ele>283.3333333333333</ele><time>2026-04-26T15:54:47Z</time></trkpt><trkpt lat="43.43522382823327" lon="12.869867727272329"><ele>282.0</ele><time>2026-04-26T15:54:48Z</time></trkpt><trkpt lat="43.43504884112378" lon="12.869688877974676"><ele>282.0</ele><time>2026-04-26T15:54:49Z</time></trkpt><trkpt lat="43.434881060728365" lon="12.869480732999165"><ele>282.0</ele><time>2026-04-26T15:54:50Z</time></trkpt><trkpt lat="43.43471316308887" lon="12.869266176932182"><ele>279.5</ele><time>2026-04-26T15:54:51Z</time></trkpt><trkpt lat="43.434552081261195" lon="12.869037532068699"><ele>277.0</ele><time>2026-04-26T15:54:52Z</time></trkpt><trkpt lat="43.43439992129349" lon="12.86879049880564"><ele>277.0</ele><time>2026-04-26T15:54:53Z</time></trkpt><trkpt lat="43.43427528544934" lon="12.86851659173196"><ele>277.0</ele><time>2026-04-26T15:54:54Z</time></trkpt><trkpt lat="43.434131241594905" lon="12.868262351810207"><ele>279.66666666666663</ele><time>2026-04-26T15:54:55Z</time></trkpt><trkpt lat="43.43403324209994" lon="12.867979123443119"><ele>282.3333333333333</ele><time>2026-04-26T15:54:56Z</time></trkpt><trkpt lat="43.433950269716235" lon="12.86771172560784"><ele>285.0</ele><time>2026-04-26T15:54:57Z</time></trkpt><trkpt lat="43.43390551365214" lon="12.867442023488662"><ele>286.6666666666667</ele><time>2026-04-26T15:54:58Z</time></trkpt><trkpt lat="43.433886565806496" lon="12.867155951977088"><ele>288.33333333333337</ele><time>2026-04-26T15:54:59Z</time></trkpt><trkpt lat="43.43387653581793" lon="12.866858838443177"><ele>290.0</ele><time>2026-04-26T15:55:00Z</time></trkpt><trkpt lat="43.43386731794458" lon="12.86655258596465"><ele>292.0</ele><time>2026-04-26T15:55:01Z</time></trkpt><trkpt lat="43.433857881378174" lon="12.866239067859143"><ele>294.0</ele><time>2026-04-26T15:55:02Z</time></trkpt><trkpt lat="43.433848499097394" lon="12.865927353463931"><ele>296.0</ele><time>2026-04-26T15:55:03Z</time></trkpt><trkpt lat="43.43382299318289" lon="12.86561831394199"><ele>298.0</ele><time>2026-04-26T15:55:04Z</time></trkpt><trkpt lat="43.43381786756062" lon="12.865329850223407"><ele>300.0</ele><time>2026-04-26T15:55:05Z</time></trkpt><trkpt lat="43.43380971046051" lon="12.865055190242959"><ele>295.3333333333333</ele><time>2026-04-26T15:55:06Z</time></trkpt><trkpt lat="43.43380050541124" lon="12.864791885114814"><ele>290.66666666666663</ele><time>2026-04-26T15:55:06.999Z</time></trkpt><trkpt lat="43.433793069266784" lon="12.8645326595526"><ele>286.0</ele><time>2026-04-26T15:55:07.999Z</time></trkpt><trkpt lat="43.43378506882896" lon="12.864277085410556"><ele>284.66666666666663</ele><time>2026-04-26T15:55:08.999Z</time></trkpt><trkpt lat="43.43377721128518" lon="12.86402456340584"><ele>283.3333333333333</ele><time>2026-04-26T15:55:09.999Z</time></trkpt><trkpt lat="43.43376999183106" lon="12.863776138224463"><ele>282.0</ele><time>2026-04-26T15:55:10.999Z</time></trkpt><trkpt lat="43.43376153910958" lon="12.863527727346018"><ele>282.0</ele><time>2026-04-26T15:55:11.999Z</time></trkpt><trkpt lat="43.433751913689235" lon="12.863272277477945"><ele>282.0</ele><time>2026-04-26T15:55:12.999Z</time></trkpt><trkpt lat="43.43374325423004" lon="12.86300400873433"><ele>282.0</ele><time>2026-04-26T15:55:13.999Z</time></trkpt><trkpt lat="43.43373559933662" lon="12.862737672018818"><ele>283.0</ele><time>2026-04-26T15:55:14.999Z</time></trkpt><trkpt lat="43.433728223699156" lon="12.862472273141602"><ele>284.0</ele><time>2026-04-26T15:55:15.999Z</time></trkpt><trkpt lat="43.43372185935977" lon="12.862205619418692"><ele>285.0</ele><time>2026-04-26T15:55:16.999Z</time></trkpt><trkpt lat="43.433712744442396" lon="12.861943447363643"><ele>285.3333333333333</ele><time>2026-04-26T15:55:17.999Z</time></trkpt><trkpt lat="43.433701890253445" lon="12.861694390487118"><ele>285.66666666666663</ele><time>2026-04-26T15:55:18.999Z</time></trkpt><trkpt lat="43.433675931923496" lon="12.861448373485086"><ele>286.0</ele><time>2026-04-26T15:55:19.999Z</time></trkpt><trkpt lat="43.433624050291" lon="12.861196899105755"><ele>287.0</ele><time>2026-04-26T15:55:20.999Z</time></trkpt><trkpt lat="43.43355233803875" lon="12.86094818583642"><ele>288.0</ele><time>2026-04-26T15:55:21.999Z</time></trkpt><trkpt lat="43.43346654117284" lon="12.860698960974206"><ele>289.0</ele><time>2026-04-26T15:55:22.999Z</time></trkpt><trkpt lat="43.4333806544128" lon="12.860460554257333"><ele>289.0</ele><time>2026-04-26T15:55:23.999Z</time></trkpt><trkpt lat="43.4332870261999" lon="12.860244649776122"><ele>289.0</ele><time>2026-04-26T15:55:24.999Z</time></trkpt><trkpt lat="43.43317973514028" lon="12.860046999437465"><ele>289.0</ele><time>2026-04-26T15:55:25.999Z</time></trkpt><trkpt lat="43.43307225339365" lon="12.85988383019235"><ele>288.25</ele><time>2026-04-26T15:55:26.999Z</time></trkpt><trkpt lat="43.43297483128227" lon="12.859749155824648"><ele>287.5</ele><time>2026-04-26T15:55:27.999Z</time></trkpt><trkpt lat="43.432864402292964" lon="12.859644614177439"><ele>286.75</ele><time>2026-04-26T15:55:28.999Z</time></trkpt><trkpt lat="43.432753564444624" lon="12.859532893576228"><ele>286.0</ele><time>2026-04-26T15:55:29.999Z</time></trkpt><trkpt lat="43.432647473645424" lon="12.859396985034028"><ele>287.75</ele><time>2026-04-26T15:55:30.999Z</time></trkpt><trkpt lat="43.432519272682526" lon="12.859283161893522"><ele>289.5</ele><time>2026-04-26T15:55:31.999Z</time></trkpt><trkpt lat="43.43240055456316" lon="12.859167469737638"><ele>291.25</ele><time>2026-04-26T15:55:32.999Z</time></trkpt><trkpt lat="43.43228903168621" lon="12.85907181665283"><ele>293.0</ele><time>2026-04-26T15:55:33.999Z</time></trkpt><trkpt lat="43.43219508489014" lon="12.859002478946472"><ele>292.6</ele><time>2026-04-26T15:55:34.999Z</time></trkpt><trkpt lat="43.43210931204307" lon="12.858940341763347"><ele>292.20000000000005</ele><time>2026-04-26T15:55:35.999Z</time></trkpt><trkpt lat="43.43202694043368" lon="12.858883145746459"><ele>291.8</ele><time>2026-04-26T15:55:36.999Z</time></trkpt><trkpt lat="43.43193330079778" lon="12.858821390544641"><ele>291.40000000000003</ele><time>2026-04-26T15:55:37.999Z</time></trkpt><trkpt lat="43.431820218952346" lon="12.85874617353488"><ele>291.0</ele><time>2026-04-26T15:55:38.999Z</time></trkpt><trkpt lat="43.431699531299586" lon="12.858649289324275"><ele>291.0</ele><time>2026-04-26T15:55:39.999Z</time></trkpt><trkpt lat="43.43158193322047" lon="12.858557742363194"><ele>291.0</ele><time>2026-04-26T15:55:40.999Z</time></trkpt><trkpt lat="43.43146524673449" lon="12.858475745978144"><ele>291.0</ele><time>2026-04-26T15:55:41.999Z</time></trkpt><trkpt lat="43.4313561532163" lon="12.858395594765906"><ele>291.0</ele><time>2026-04-26T15:55:42.999Z</time></trkpt><trkpt lat="43.43125280096654" lon="12.858319074737189"><ele>289.2</ele><time>2026-04-26T15:55:43.999Z</time></trkpt><trkpt lat="43.43115881957413" lon="12.85824854958307"><ele>287.40000000000003</ele><time>2026-04-26T15:55:44.999Z</time></trkpt><trkpt lat="43.431076722900755" lon="12.858185893913886"><ele>285.6</ele><time>2026-04-26T15:55:45.999Z</time></trkpt><trkpt lat="43.431008987254664" lon="12.858132358575107"><ele>283.8</ele><time>2026-04-26T15:55:46.999Z</time></trkpt><trkpt lat="43.43094653244406" lon="12.858086640916978"><ele>282.0</ele><time>2026-04-26T15:55:47.999Z</time></trkpt><trkpt lat="43.430852120570584" lon="12.858035869181258"><ele>282.0</ele><time>2026-04-26T15:55:49.999Z</time></trkpt><trkpt lat="43.43079498789073" lon="12.857988929441849"><ele>282.0</ele><time>2026-04-26T15:55:51.999Z</time></trkpt><trkpt lat="43.43073230183926" lon="12.857912961438926"><ele>282.0</ele><time>2026-04-26T15:56:27Z</time></trkpt><trkpt lat="43.43067132796154" lon="12.85786550611393"><ele>282.0</ele><time>2026-04-26T15:56:28Z</time></trkpt><trkpt lat="43.430600593070466" lon="12.857818270977782"><ele>282.0</ele><time>2026-04-26T15:56:29Z</time></trkpt><trkpt lat="43.43052506663298" lon="12.857761723516987"><ele>282.0</ele><time>2026-04-26T15:56:30Z</time></trkpt><trkpt lat="43.43044270628416" lon="12.857703907810201"><ele>282.2</ele><time>2026-04-26T15:56:31Z</time></trkpt><trkpt lat="43.43035999527176" lon="12.857642369290117"><ele>282.4</ele><time>2026-04-26T15:56:32Z</time></trkpt><trkpt lat="43.43027365179978" lon="12.857574601105597"><ele>282.6</ele><time>2026-04-26T15:56:33Z</time></trkpt><trkpt lat="43.43018258889055" lon="12.857504113554628"><ele>282.8</ele><time>2026-04-26T15:56:34Z</time></trkpt><trkpt lat="43.43008833464303" lon="12.857429490281383"><ele>283.0</ele><time>2026-04-26T15:56:35Z</time></trkpt><trkpt lat="43.429995024033694" lon="12.857347761253902"><ele>283.2</ele><time>2026-04-26T15:56:36Z</time></trkpt><trkpt lat="43.42989811660144" lon="12.85727634582132"><ele>283.4</ele><time>2026-04-26T15:56:37Z</time></trkpt><trkpt lat="43.42979432637187" lon="12.85722120305155"><ele>283.59999999999997</ele><time>2026-04-26T15:56:38Z</time></trkpt><trkpt lat="43.429686305800736" lon="12.85718912895789"><ele>283.8</ele><time>2026-04-26T15:56:39Z</time></trkpt><trkpt lat="43.42957241383666" lon="12.857160186968029"><ele>284.0</ele><time>2026-04-26T15:56:40Z</time></trkpt><trkpt lat="43.42945114878352" lon="12.857134921699146"><ele>285.25</ele><time>2026-04-26T15:56:41Z</time></trkpt><trkpt lat="43.42933239522496" lon="12.857106496453852"><ele>286.5</ele><time>2026-04-26T15:56:42Z</time></trkpt><trkpt lat="43.429212002435705" lon="12.857073163772885"><ele>287.75</ele><time>2026-04-26T15:56:43Z</time></trkpt><trkpt lat="43.42908914942724" lon="12.857040620141714"><ele>289.0</ele><time>2026-04-26T15:56:44Z</time></trkpt><trkpt lat="43.42896384430955" lon="12.857005303950553"><ele>289.0</ele><time>2026-04-26T15:56:45Z</time></trkpt><trkpt lat="43.428835033202475" lon="12.856974566288507"><ele>289.0</ele><time>2026-04-26T15:56:46Z</time></trkpt><trkpt lat="43.42870778694137" lon="12.856939907847096"><ele>289.0</ele><time>2026-04-26T15:56:47Z</time></trkpt><trkpt lat="43.42857903535453" lon="12.85690905707734"><ele>289.0</ele><time>2026-04-26T15:56:48Z</time></trkpt><trkpt lat="43.4284478434196" lon="12.856878848957676"><ele>288.75</ele><time>2026-04-26T15:56:49Z</time></trkpt><trkpt lat="43.42831860858765" lon="12.856846814519278"><ele>288.5</ele><time>2026-04-26T15:56:50Z</time></trkpt><trkpt lat="43.42818773863716" lon="12.856807684828597"><ele>288.25</ele><time>2026-04-26T15:56:51Z</time></trkpt><trkpt lat="43.42805579061554" lon="12.8567731498317"><ele>288.0</ele><time>2026-04-26T15:56:52Z</time></trkpt><trkpt lat="43.427922360069616" lon="12.856742479298438"><ele>289.0</ele><time>2026-04-26T15:56:53Z</time></trkpt><trkpt lat="43.427790599546945" lon="12.856709250906741"><ele>290.0</ele><time>2026-04-26T15:56:54Z</time></trkpt><trkpt lat="43.42765794309856" lon="12.856675504883677"><ele>291.0</ele><time>2026-04-26T15:56:55Z</time></trkpt><trkpt lat="43.427525406015384" lon="12.85664211280337"><ele>292.0</ele><time>2026-04-26T15:56:56Z</time></trkpt><trkpt lat="43.427393027211906" lon="12.856603146524222"><ele>292.0</ele><time>2026-04-26T15:56:57Z</time></trkpt><trkpt lat="43.427260413893364" lon="12.856572592842726"><ele>292.0</ele><time>2026-04-26T15:56:58Z</time></trkpt><trkpt lat="43.4271243043637" lon="12.856544586297629"><ele>292.0</ele><time>2026-04-26T15:56:59Z</time></trkpt><trkpt lat="43.426991391476584" lon="12.856507333076904"><ele>292.0</ele><time>2026-04-26T15:57:00Z</time></trkpt><trkpt lat="43.426856252591264" lon="12.85646894050745"><ele>293.25</ele><time>2026-04-26T15:57:00.999Z</time></trkpt><trkpt lat="43.426719745439264" lon="12.856431655178001"><ele>294.5</ele><time>2026-04-26T15:57:01.999Z</time></trkpt><trkpt lat="43.426582605901004" lon="12.85639749565997"><ele>295.75</ele><time>2026-04-26T15:57:02.999Z</time></trkpt><trkpt lat="43.426440002478174" lon="12.856362642814005"><ele>297.0</ele><time>2026-04-26T15:57:03.999Z</time></trkpt><trkpt lat="43.42628593287298" lon="12.856322335594673"><ele>298.0</ele><time>2026-04-26T15:57:04.999Z</time></trkpt><trkpt lat="43.426123538033984" lon="12.856276591430689"><ele>299.0</ele><time>2026-04-26T15:57:05.999Z</time></trkpt><trkpt lat="43.42595243421133" lon="12.85623371949831"><ele>300.0</ele><time>2026-04-26T15:57:06.999Z</time></trkpt><trkpt lat="43.42577559253679" lon="12.856186160383817"><ele>300.0</ele><time>2026-04-26T15:57:07.999Z</time></trkpt><trkpt lat="43.42559795234697" lon="12.856139612292647"><ele>300.0</ele><time>2026-04-26T15:57:08.999Z</time></trkpt><trkpt lat="43.42542542548322" lon="12.856095756643493"><ele>300.0</ele><time>2026-04-26T15:57:09.999Z</time></trkpt><trkpt lat="43.42526260437654" lon="12.856057780408937"><ele>300.0</ele><time>2026-04-26T15:57:10.999Z</time></trkpt><trkpt lat="43.4251002224876" lon="12.85601655950249"><ele>300.0</ele><time>2026-04-26T15:57:11.999Z</time></trkpt><trkpt lat="43.42493414861447" lon="12.855965789018052"><ele>300.0</ele><time>2026-04-26T15:57:12.999Z</time></trkpt><trkpt lat="43.42476525551434" lon="12.85589553214106"><ele>299.6666666666667</ele><time>2026-04-26T15:57:13.999Z</time></trkpt><trkpt lat="43.42459349301339" lon="12.85578964301135"><ele>299.33333333333337</ele><time>2026-04-26T15:57:14.999Z</time></trkpt><trkpt lat="43.424421505687654" lon="12.855660480335978"><ele>299.0</ele><time>2026-04-26T15:57:15.999Z</time></trkpt><trkpt lat="43.424244904194154" lon="12.855520208546814"><ele>299.0</ele><time>2026-04-26T15:57:16.999Z</time></trkpt><trkpt lat="43.42406245945467" lon="12.855374600168888"><ele>299.0</ele><time>2026-04-26T15:57:17.999Z</time></trkpt><trkpt lat="43.423872774218204" lon="12.855225047035882"><ele>299.0</ele><time>2026-04-26T15:57:18.999Z</time></trkpt><trkpt lat="43.423678802129025" lon="12.855069595553747"><ele>303.0</ele><time>2026-04-26T15:57:19.999Z</time></trkpt><trkpt lat="43.42347766034465" lon="12.854909134883744"><ele>307.0</ele><time>2026-04-26T15:57:20.999Z</time></trkpt><trkpt lat="43.42327222563032" lon="12.854744747524746"><ele>307.0</ele><time>2026-04-26T15:57:21.999Z</time></trkpt><trkpt lat="43.42306382187559" lon="12.854576283429344"><ele>307.0</ele><time>2026-04-26T15:57:22.999Z</time></trkpt><trkpt lat="43.42284858385504" lon="12.854409534197682"><ele>307.5</ele><time>2026-04-26T15:57:23.999Z</time></trkpt><trkpt lat="43.42263180957433" lon="12.85423652400372"><ele>308.0</ele><time>2026-04-26T15:57:24.999Z</time></trkpt><trkpt lat="43.42241477329437" lon="12.854060600535817"><ele>308.0</ele><time>2026-04-26T15:57:25.999Z</time></trkpt><trkpt lat="43.42219479364054" lon="12.853886016900208"><ele>308.0</ele><time>2026-04-26T15:57:26.999Z</time></trkpt><trkpt lat="43.42197422455879" lon="12.85371018411659"><ele>308.0</ele><time>2026-04-26T15:57:27.999Z</time></trkpt><trkpt lat="43.42175392218767" lon="12.853536928633751"><ele>308.0</ele><time>2026-04-26T15:57:28.999Z</time></trkpt><trkpt lat="43.42153483378738" lon="12.85336367995324"><ele>308.0</ele><time>2026-04-26T15:57:29.999Z</time></trkpt><trkpt lat="43.42131599708119" lon="12.853191161774049"><ele>308.0</ele><time>2026-04-26T15:57:30.999Z</time></trkpt><trkpt lat="43.42110538201619" lon="12.853027762499362"><ele>308.5</ele><time>2026-04-26T15:57:31.999Z</time></trkpt><trkpt lat="43.420905078630085" lon="12.852868296248454"><ele>309.0</ele><time>2026-04-26T15:57:32.999Z</time></trkpt><trkpt lat="43.420714339221085" lon="12.852715593353206"><ele>308.6666666666667</ele><time>2026-04-26T15:57:33.999Z</time></trkpt><trkpt lat="43.42053881552663" lon="12.852575670837908"><ele>308.33333333333337</ele><time>2026-04-26T15:57:34.999Z</time></trkpt><trkpt lat="43.42037058573013" lon="12.852442677751233"><ele>308.0</ele><time>2026-04-26T15:57:35.999Z</time></trkpt><trkpt lat="43.42021259431996" lon="12.852294927504794"><ele>307.6666666666667</ele><time>2026-04-26T15:57:36.999Z</time></trkpt><trkpt lat="43.42006594909785" lon="12.852121906314757"><ele>307.3333333333333</ele><time>2026-04-26T15:57:37.999Z</time></trkpt><trkpt lat="43.419940205024965" lon="12.851934197858645"><ele>307.0</ele><time>2026-04-26T15:57:38.999Z</time></trkpt><trkpt lat="43.41984699504351" lon="12.851736787615652"><ele>308.0</ele><time>2026-04-26T15:57:39.999Z</time></trkpt><trkpt lat="43.41975656868892" lon="12.85154448445242"><ele>309.0</ele><time>2026-04-26T15:57:40.999Z</time></trkpt><trkpt lat="43.41967335338487" lon="12.851333009950684"><ele>310.0</ele><time>2026-04-26T15:57:41.999Z</time></trkpt><trkpt lat="43.41959165660865" lon="12.851116301663538"><ele>311.66666666666663</ele><time>2026-04-26T15:57:42.999Z</time></trkpt><trkpt lat="43.41950591304734" lon="12.850889252930285"><ele>313.3333333333333</ele><time>2026-04-26T15:57:43.999Z</time></trkpt><trkpt lat="43.419416110510795" lon="12.850651456039602"><ele>315.0</ele><time>2026-04-26T15:57:44.999Z</time></trkpt><trkpt lat="43.41932322475848" lon="12.850403574606405"><ele>315.0</ele><time>2026-04-26T15:57:45.999Z</time></trkpt><trkpt lat="43.41923199894121" lon="12.850151936607075"><ele>315.0</ele><time>2026-04-26T15:57:46.999Z</time></trkpt><trkpt lat="43.419145507651656" lon="12.849896473965858"><ele>315.0</ele><time>2026-04-26T15:57:47.999Z</time></trkpt><trkpt lat="43.41907564113743" lon="12.849629560548244"><ele>314.6666666666667</ele><time>2026-04-26T15:57:48.999Z</time></trkpt><trkpt lat="43.419024409633536" lon="12.849348033795993"><ele>314.33333333333337</ele><time>2026-04-26T15:57:49.999Z</time></trkpt><trkpt lat="43.41901524766861" lon="12.849049144832518"><ele>314.0</ele><time>2026-04-26T15:57:50.999Z</time></trkpt><trkpt lat="43.41903712226717" lon="12.848738268037101"><ele>310.5</ele><time>2026-04-26T15:57:51.999Z</time></trkpt><trkpt lat="43.419062594454054" lon="12.848415638547792"><ele>307.0</ele><time>2026-04-26T15:57:52.999Z</time></trkpt><trkpt lat="43.41908982819549" lon="12.848087659071288"><ele>307.0</ele><time>2026-04-26T15:57:53.999Z</time></trkpt><trkpt lat="43.4191178107271" lon="12.847756425368575"><ele>307.0</ele><time>2026-04-26T15:57:54.999Z</time></trkpt><trkpt lat="43.41914474548192" lon="12.847428315578089"><ele>309.0</ele><time>2026-04-26T15:57:55.999Z</time></trkpt><trkpt lat="43.41917034564248" lon="12.847111030276913"><ele>311.0</ele><time>2026-04-26T15:57:56.999Z</time></trkpt><trkpt lat="43.41917570374627" lon="12.846809490963784"><ele>311.33333333333337</ele><time>2026-04-26T15:57:57.999Z</time></trkpt><trkpt lat="43.41917782357511" lon="12.846512446294987"><ele>311.6666666666667</ele><time>2026-04-26T15:57:58.999Z</time></trkpt><trkpt lat="43.41915866151107" lon="12.846209930837302"><ele>312.0</ele><time>2026-04-26T15:57:59.999Z</time></trkpt><trkpt lat="43.41913655163786" lon="12.845904099096268"><ele>312.0</ele><time>2026-04-26T15:58:00.999Z</time></trkpt><trkpt lat="43.419136228186915" lon="12.845593428825119"><ele>312.0</ele><time>2026-04-26T15:58:01.999Z</time></trkpt><trkpt lat="43.41909495619519" lon="12.845288630333707"><ele>311.0</ele><time>2026-04-26T15:58:02.999Z</time></trkpt><trkpt lat="43.41907393804204" lon="12.844978028071488"><ele>310.0</ele><time>2026-04-26T15:58:03.999Z</time></trkpt><trkpt lat="43.41898295201746" lon="12.844683080432944"><ele>310.0</ele><time>2026-04-26T15:58:04.999Z</time></trkpt><trkpt lat="43.41888621378189" lon="12.844385963031852"><ele>310.0</ele><time>2026-04-26T15:58:05.999Z</time></trkpt><trkpt lat="43.41879976854641" lon="12.84407141257417"><ele>311.5</ele><time>2026-04-26T15:58:06.999Z</time></trkpt><trkpt lat="43.418696851401094" lon="12.843759927971726"><ele>313.0</ele><time>2026-04-26T15:58:07.999Z</time></trkpt><trkpt lat="43.418592508169915" lon="12.843445423745417"><ele>313.0</ele><time>2026-04-26T15:58:08.999Z</time></trkpt><trkpt lat="43.418486915260374" lon="12.84312692757276"><ele>313.0</ele><time>2026-04-26T15:58:09.999Z</time></trkpt><trkpt lat="43.418381010682396" lon="12.842807414425176"><ele>313.5</ele><time>2026-04-26T15:58:10.999Z</time></trkpt><trkpt lat="43.4182772780575" lon="12.84249262516704"><ele>314.0</ele><time>2026-04-26T15:58:11.999Z</time></trkpt><trkpt lat="43.418160840377716" lon="12.842193393593309"><ele>314.0</ele><time>2026-04-26T15:58:12.999Z</time></trkpt><trkpt lat="43.41805859929864" lon="12.841905655085542"><ele>314.0</ele><time>2026-04-26T15:58:13.999Z</time></trkpt><trkpt lat="43.41795117146488" lon="12.84161909927554"><ele>317.0</ele><time>2026-04-26T15:58:14.999Z</time></trkpt><trkpt lat="43.41778379604422" lon="12.841380014218599"><ele>320.0</ele><time>2026-04-26T15:58:15.998Z</time></trkpt><trkpt lat="43.41761222476614" lon="12.841142959709973"><ele>320.5</ele><time>2026-04-26T15:58:16.998Z</time></trkpt><trkpt lat="43.41744533266863" lon="12.840889873333644"><ele>321.0</ele><time>2026-04-26T15:58:17.998Z</time></trkpt><trkpt lat="43.417264491859484" lon="12.840650883263521"><ele>321.5</ele><time>2026-04-26T15:58:18.998Z</time></trkpt><trkpt lat="43.41706862633542" lon="12.840427095252387"><ele>322.0</ele><time>2026-04-26T15:58:19.998Z</time></trkpt><trkpt lat="43.416896763145616" lon="12.84016324650277"><ele>321.5</ele><time>2026-04-26T15:58:20.998Z</time></trkpt><trkpt lat="43.4167313947804" lon="12.839888767724961"><ele>321.0</ele><time>2026-04-26T15:58:21.998Z</time></trkpt><trkpt lat="43.41656504467202" lon="12.839613356391201"><ele>321.0</ele><time>2026-04-26T15:58:22.998Z</time></trkpt><trkpt lat="43.41641147498657" lon="12.839320238175647"><ele>321.0</ele><time>2026-04-26T15:58:23.998Z</time></trkpt><trkpt lat="43.416243031696524" lon="12.839045094399273"><ele>321.0</ele><time>2026-04-26T15:58:24.998Z</time></trkpt><trkpt lat="43.4160769245692" lon="12.838773674148024"><ele>321.0</ele><time>2026-04-26T15:58:25.998Z</time></trkpt><trkpt lat="43.415908049411605" lon="12.838509820658178"><ele>321.5</ele><time>2026-04-26T15:58:26.998Z</time></trkpt><trkpt lat="43.41573070148463" lon="12.838272601981373"><ele>322.0</ele><time>2026-04-26T15:58:28Z</time></trkpt><trkpt lat="43.415546269593975" lon="12.838083642389908"><ele>322.3333333333333</ele><time>2026-04-26T15:58:29Z</time></trkpt><trkpt lat="43.415387098305935" lon="12.837892927344596"><ele>322.6666666666667</ele><time>2026-04-26T15:58:30Z</time></trkpt><trkpt lat="43.415246007379764" lon="12.837725047462166"><ele>323.0</ele><time>2026-04-26T15:58:31Z</time></trkpt><trkpt lat="43.41513065770106" lon="12.837589859425831"><ele>322.0</ele><time>2026-04-26T15:58:32Z</time></trkpt><trkpt lat="43.41503611458763" lon="12.83749629685713"><ele>321.0</ele><time>2026-04-26T15:58:33Z</time></trkpt><trkpt lat="43.414929873959174" lon="12.837434123373797"><ele>320.0</ele><time>2026-04-26T15:58:34Z</time></trkpt><trkpt lat="43.41482063109066" lon="12.837441336425217"><ele>319.0</ele><time>2026-04-26T15:58:35Z</time></trkpt><trkpt lat="43.41471366680012" lon="12.837517156461734"><ele>318.75</ele><time>2026-04-26T15:58:36Z</time></trkpt><trkpt lat="43.41461082759599" lon="12.837646280678833"><ele>318.5</ele><time>2026-04-26T15:58:37Z</time></trkpt><trkpt lat="43.41450690137033" lon="12.837763657649871"><ele>318.25</ele><time>2026-04-26T15:58:38Z</time></trkpt><trkpt lat="43.414406533773146" lon="12.837813145391532"><ele>318.0</ele><time>2026-04-26T15:58:39Z</time></trkpt><trkpt lat="43.41431494322186" lon="12.837795575132793"><ele>318.0</ele><time>2026-04-26T15:58:40Z</time></trkpt><trkpt lat="43.41423774637612" lon="12.837725806485457"><ele>318.0</ele><time>2026-04-26T15:58:41Z</time></trkpt><trkpt lat="43.414186495628805" lon="12.837630090200548"><ele>318.0</ele><time>2026-04-26T15:58:42Z</time></trkpt><trkpt lat="43.414151559982024" lon="12.837530420606853"><ele>318.0</ele><time>2026-04-26T15:58:43Z</time></trkpt><trkpt lat="43.41413261996462" lon="12.837418779896565"><ele>318.0</ele><time>2026-04-26T15:58:44Z</time></trkpt><trkpt lat="43.41413510455405" lon="12.837298572827512"><ele>318.0</ele><time>2026-04-26T15:58:45Z</time></trkpt><trkpt lat="43.4141563232906" lon="12.837182846339989"><ele>317.8</ele><time>2026-04-26T15:58:46Z</time></trkpt><trkpt lat="43.41418326239903" lon="12.837065904859129"><ele>317.6</ele><time>2026-04-26T15:58:47Z</time></trkpt><trkpt lat="43.41422594423499" lon="12.83693107064934"><ele>317.4</ele><time>2026-04-26T15:58:48Z</time></trkpt><trkpt lat="43.41431447849287" lon="12.836862303023654"><ele>317.2</ele><time>2026-04-26T15:58:49Z</time></trkpt><trkpt lat="43.41438601508036" lon="12.836697025057283"><ele>317.0</ele><time>2026-04-26T15:58:50Z</time></trkpt><trkpt lat="43.414430968579566" lon="12.836529092924273"><ele>318.6666666666667</ele><time>2026-04-26T15:58:51Z</time></trkpt><trkpt lat="43.414552551688985" lon="12.836360199364144"><ele>320.3333333333333</ele><time>2026-04-26T15:58:52Z</time></trkpt><trkpt lat="43.41465313567509" lon="12.836133885450272"><ele>322.0</ele><time>2026-04-26T15:58:53Z</time></trkpt><trkpt lat="43.414754087617304" lon="12.835892383321942"><ele>318.0</ele><time>2026-04-26T15:58:54Z</time></trkpt><trkpt lat="43.4148347715356" lon="12.835664176355664"><ele>314.0</ele><time>2026-04-26T15:58:55Z</time></trkpt><trkpt lat="43.4149018482147" lon="12.835480145536316"><ele>310.0</ele><time>2026-04-26T15:58:56Z</time></trkpt><trkpt lat="43.4149352450101" lon="12.83534136500777"><ele>306.0</ele><time>2026-04-26T15:58:57Z</time></trkpt><trkpt lat="43.414949088209326" lon="12.835221486756389"><ele>306.0</ele><time>2026-04-26T15:58:58Z</time></trkpt><trkpt lat="43.4149435779876" lon="12.835124392643246"><ele>306.0</ele><time>2026-04-26T15:58:59Z</time></trkpt><trkpt lat="43.41488014151693" lon="12.834998474020333"><ele>306.0</ele><time>2026-04-26T15:59:00Z</time></trkpt><trkpt lat="43.41477463718449" lon="12.834880469769177"><ele>306.0</ele><time>2026-04-26T15:59:01Z</time></trkpt><trkpt lat="43.414658966064" lon="12.834746794382301"><ele>310.6666666666667</ele><time>2026-04-26T15:59:02Z</time></trkpt><trkpt lat="43.41452440030088" lon="12.834613507139162"><ele>315.33333333333337</ele><time>2026-04-26T15:59:03Z</time></trkpt><trkpt lat="43.4143577980796" lon="12.834517423504769"><ele>320.0</ele><time>2026-04-26T15:59:04Z</time></trkpt><trkpt lat="43.41418254212178" lon="12.834469962808747"><ele>320.0</ele><time>2026-04-26T15:59:05Z</time></trkpt><trkpt lat="43.414050151148714" lon="12.834423365497262"><ele>320.0</ele><time>2026-04-26T15:59:06Z</time></trkpt><trkpt lat="43.413933962752026" lon="12.83439910912248"><ele>320.0</ele><time>2026-04-26T15:59:06.999Z</time></trkpt><trkpt lat="43.413843472603055" lon="12.834343878978434"><ele>320.0</ele><time>2026-04-26T15:59:07.999Z</time></trkpt><trkpt lat="43.41380787100021" lon="12.834210759769475"><ele>318.5</ele><time>2026-04-26T15:59:08.999Z</time></trkpt><trkpt lat="43.413818167972124" lon="12.834077896065883"><ele>317.0</ele><time>2026-04-26T15:59:09.999Z</time></trkpt><trkpt lat="43.413879430484116" lon="12.833942974541689"><ele>315.5</ele><time>2026-04-26T15:59:10.999Z</time></trkpt><trkpt lat="43.41395902309096" lon="12.833792025694258"><ele>314.0</ele><time>2026-04-26T15:59:11.999Z</time></trkpt><trkpt lat="43.41407139207932" lon="12.833678378589145"><ele>313.25</ele><time>2026-04-26T15:59:12.999Z</time></trkpt><trkpt lat="43.414215919717" lon="12.833614316013527"><ele>312.5</ele><time>2026-04-26T15:59:13.999Z</time></trkpt><trkpt lat="43.41435192846213" lon="12.833532437078711"><ele>311.75</ele><time>2026-04-26T15:59:14.999Z</time></trkpt><trkpt lat="43.4144400845645" lon="12.833428068132031"><ele>311.0</ele><time>2026-04-26T15:59:15.999Z</time></trkpt><trkpt lat="43.41449921582443" lon="12.83329740594497"><ele>311.0</ele><time>2026-04-26T15:59:16.999Z</time></trkpt><trkpt lat="43.41450259477915" lon="12.833137298387593"><ele>311.0</ele><time>2026-04-26T15:59:17.999Z</time></trkpt><trkpt lat="43.41442991706021" lon="12.832932126719237"><ele>311.0</ele><time>2026-04-26T15:59:18.999Z</time></trkpt><trkpt lat="43.4143899753308" lon="12.832738921014526"><ele>311.0</ele><time>2026-04-26T15:59:19.999Z</time></trkpt><trkpt lat="43.41435098432779" lon="12.83254599271803"><ele>312.6666666666667</ele><time>2026-04-26T15:59:20.999Z</time></trkpt><trkpt lat="43.41430943624955" lon="12.832336052212852"><ele>314.3333333333333</ele><time>2026-04-26T15:59:21.999Z</time></trkpt><trkpt lat="43.41427102094978" lon="12.83211357543579"><ele>316.0</ele><time>2026-04-26T15:59:22.999Z</time></trkpt><trkpt lat="43.41425571357262" lon="12.831880731838396"><ele>317.66666666666663</ele><time>2026-04-26T15:59:23.999Z</time></trkpt><trkpt lat="43.41427561601313" lon="12.831643730648231"><ele>319.3333333333333</ele><time>2026-04-26T15:59:24.999Z</time></trkpt><trkpt lat="43.41431569432918" lon="12.831390349634042"><ele>321.0</ele><time>2026-04-26T15:59:25.999Z</time></trkpt><trkpt lat="43.41435587701036" lon="12.831124026517038"><ele>321.6666666666667</ele><time>2026-04-26T15:59:26.999Z</time></trkpt><trkpt lat="43.41439752875558" lon="12.83085135766675"><ele>322.33333333333337</ele><time>2026-04-26T15:59:27.999Z</time></trkpt><trkpt lat="43.41443859289541" lon="12.830590191861493"><ele>323.0</ele><time>2026-04-26T15:59:28.999Z</time></trkpt><trkpt lat="43.41445667598687" lon="12.830360576930854"><ele>323.0</ele><time>2026-04-26T15:59:29.999Z</time></trkpt><trkpt lat="43.414461606073736" lon="12.8301587160271"><ele>323.0</ele><time>2026-04-26T15:59:30.999Z</time></trkpt><trkpt lat="43.41441775870461" lon="12.829978383732872"><ele>323.0</ele><time>2026-04-26T15:59:31.999Z</time></trkpt><trkpt lat="43.41431194099451" lon="12.829821422561942"><ele>323.0</ele><time>2026-04-26T15:59:32.999Z</time></trkpt><trkpt lat="43.41417073105726" lon="12.82969669218643"><ele>323.0</ele><time>2026-04-26T15:59:33.999Z</time></trkpt><trkpt lat="43.4140214041362" lon="12.829565624929188"><ele>323.0</ele><time>2026-04-26T15:59:34.999Z</time></trkpt><trkpt lat="43.4138704246491" lon="12.829413369227156"><ele>323.0</ele><time>2026-04-26T15:59:35.999Z</time></trkpt><trkpt lat="43.413717417020514" lon="12.829249141605771"><ele>324.0</ele><time>2026-04-26T15:59:36.999Z</time></trkpt><trkpt lat="43.41355743996837" lon="12.829080487080322"><ele>325.0</ele><time>2026-04-26T15:59:37.999Z</time></trkpt><trkpt lat="43.41342950879071" lon="12.828865540179656"><ele>326.0</ele><time>2026-04-26T15:59:38.999Z</time></trkpt><trkpt lat="43.41330733330612" lon="12.828630804109856"><ele>326.0</ele><time>2026-04-26T15:59:39.999Z</time></trkpt><trkpt lat="43.413170372146546" lon="12.828401665053901"><ele>326.0</ele><time>2026-04-26T15:59:40.999Z</time></trkpt><trkpt lat="43.41306369400644" lon="12.82818540834943"><ele>326.0</ele><time>2026-04-26T15:59:41.999Z</time></trkpt><trkpt lat="43.412950423116754" lon="12.828021663490997"><ele>326.0</ele><time>2026-04-26T15:59:42.999Z</time></trkpt><trkpt lat="43.41280826202784" lon="12.827896552508575"><ele>326.0</ele><time>2026-04-26T15:59:43.999Z</time></trkpt><trkpt lat="43.41262498513595" lon="12.827827879880882"><ele>326.0</ele><time>2026-04-26T15:59:44.999Z</time></trkpt><trkpt lat="43.41243633115982" lon="12.827772652006663"><ele>326.0</ele><time>2026-04-26T15:59:45.999Z</time></trkpt><trkpt lat="43.41228626612307" lon="12.827651742583376"><ele>326.0</ele><time>2026-04-26T15:59:46.999Z</time></trkpt><trkpt lat="43.412166161149585" lon="12.82751608292226"><ele>326.0</ele><time>2026-04-26T15:59:47.999Z</time></trkpt><trkpt lat="43.41207503903199" lon="12.827343178893452"><ele>326.33333333333337</ele><time>2026-04-26T15:59:48.999Z</time></trkpt><trkpt lat="43.41204679011644" lon="12.827132299555627"><ele>326.6666666666667</ele><time>2026-04-26T15:59:49.999Z</time></trkpt><trkpt lat="43.41202496014772" lon="12.826884708129285"><ele>327.0</ele><time>2026-04-26T15:59:50.999Z</time></trkpt><trkpt lat="43.41200198325167" lon="12.826629402819453"><ele>325.6666666666667</ele><time>2026-04-26T15:59:51.999Z</time></trkpt><trkpt lat="43.411966165426136" lon="12.826362425288782"><ele>324.33333333333337</ele><time>2026-04-26T15:59:52.999Z</time></trkpt><trkpt lat="43.4119310068615" lon="12.82609508521717"><ele>323.0</ele><time>2026-04-26T15:59:53.999Z</time></trkpt><trkpt lat="43.411882717680996" lon="12.825822393415987"><ele>322.6666666666667</ele><time>2026-04-26T15:59:54.999Z</time></trkpt><trkpt lat="43.41182731009868" lon="12.825545417442944"><ele>322.3333333333333</ele><time>2026-04-26T15:59:55.999Z</time></trkpt><trkpt lat="43.41176760249836" lon="12.825269035127102"><ele>322.0</ele><time>2026-04-26T15:59:56.999Z</time></trkpt><trkpt lat="43.41171379751283" lon="12.825006510605977"><ele>322.0</ele><time>2026-04-26T15:59:57.999Z</time></trkpt><trkpt lat="43.41164361746163" lon="12.824762856009334"><ele>322.0</ele><time>2026-04-26T15:59:58.999Z</time></trkpt><trkpt lat="43.41153069175569" lon="12.824530633379938"><ele>322.0</ele><time>2026-04-26T15:59:59.999Z</time></trkpt><trkpt lat="43.41140540323767" lon="12.824301997136098"><ele>325.66666666666663</ele><time>2026-04-26T16:00:00.999Z</time></trkpt><trkpt lat="43.4113098061694" lon="12.824064857779605"><ele>329.3333333333333</ele><time>2026-04-26T16:00:01.999Z</time></trkpt><trkpt lat="43.41122004629707" lon="12.823857323025752"><ele>333.0</ele><time>2026-04-26T16:00:02.999Z</time></trkpt><trkpt lat="43.41116265102527" lon="12.823656995592328"><ele>333.0</ele><time>2026-04-26T16:00:03.999Z</time></trkpt><trkpt lat="43.41114884084736" lon="12.82344723895143"><ele>333.0</ele><time>2026-04-26T16:00:04.999Z</time></trkpt><trkpt lat="43.41116064400941" lon="12.823216572153477"><ele>333.0</ele><time>2026-04-26T16:00:05.999Z</time></trkpt><trkpt lat="43.411182159616516" lon="12.82297187657226"><ele>333.0</ele><time>2026-04-26T16:00:06.999Z</time></trkpt><trkpt lat="43.4112088743727" lon="12.822715098311043"><ele>333.0</ele><time>2026-04-26T16:00:07.999Z</time></trkpt><trkpt lat="43.41124669270059" lon="12.822459950594128"><ele>333.0</ele><time>2026-04-26T16:00:08.999Z</time></trkpt><trkpt lat="43.41131259975391" lon="12.822208760334206"><ele>333.0</ele><time>2026-04-26T16:00:09.999Z</time></trkpt><trkpt lat="43.41139681548062" lon="12.821954784361136"><ele>333.0</ele><time>2026-04-26T16:00:10.999Z</time></trkpt><trkpt lat="43.41148724285017" lon="12.821690716788796"><ele>333.0</ele><time>2026-04-26T16:00:11.999Z</time></trkpt><trkpt lat="43.411565050215714" lon="12.82141544692529"><ele>333.0</ele><time>2026-04-26T16:00:12.999Z</time></trkpt><trkpt lat="43.41165533088095" lon="12.821149033616656"><ele>333.0</ele><time>2026-04-26T16:00:13.999Z</time></trkpt><trkpt lat="43.411740825020274" lon="12.820898341960968"><ele>333.0</ele><time>2026-04-26T16:00:14.999Z</time></trkpt><trkpt lat="43.41180871669307" lon="12.820671343365296"><ele>333.3333333333333</ele><time>2026-04-26T16:00:15.999Z</time></trkpt><trkpt lat="43.411848226422684" lon="12.820444822508898"><ele>333.66666666666663</ele><time>2026-04-26T16:00:16.999Z</time></trkpt><trkpt lat="43.411847863129935" lon="12.820204366187896"><ele>334.0</ele><time>2026-04-26T16:00:17.999Z</time></trkpt><trkpt lat="43.41180387710357" lon="12.819951406718792"><ele>335.0</ele><time>2026-04-26T16:00:18.999Z</time></trkpt><trkpt lat="43.411719103630496" lon="12.819703509120297"><ele>336.0</ele><time>2026-04-26T16:00:19.998Z</time></trkpt><trkpt lat="43.41162789475514" lon="12.819462867702745"><ele>337.0</ele><time>2026-04-26T16:00:20.998Z</time></trkpt><trkpt lat="43.41155557872174" lon="12.819240120406317"><ele>337.0</ele><time>2026-04-26T16:00:21.998Z</time></trkpt><trkpt lat="43.41150802852825" lon="12.819018255381085"><ele>337.0</ele><time>2026-04-26T16:00:22.998Z</time></trkpt><trkpt lat="43.41150930698104" lon="12.818792239396563"><ele>337.0</ele><time>2026-04-26T16:00:23.998Z</time></trkpt><trkpt lat="43.41155438718055" lon="12.818558658078327"><ele>336.3333333333333</ele><time>2026-04-26T16:00:24.998Z</time></trkpt><trkpt lat="43.41165057486457" lon="12.818326324361106"><ele>335.6666666666667</ele><time>2026-04-26T16:00:25.998Z</time></trkpt><trkpt lat="43.411713746332914" lon="12.8180648330372"><ele>335.0</ele><time>2026-04-26T16:00:26.998Z</time></trkpt><trkpt lat="43.41176558511515" lon="12.817785788322245"><ele>335.33333333333337</ele><time>2026-04-26T16:00:27.998Z</time></trkpt><trkpt lat="43.411849325649065" lon="12.817508162491274"><ele>335.6666666666667</ele><time>2026-04-26T16:00:28.998Z</time></trkpt><trkpt lat="43.41190768604426" lon="12.817206841191782"><ele>336.0</ele><time>2026-04-26T16:00:29.998Z</time></trkpt><trkpt lat="43.41198211409191" lon="12.816921983595682"><ele>338.3333333333333</ele><time>2026-04-26T16:00:30.998Z</time></trkpt><trkpt lat="43.412045785806974" lon="12.816662007996579"><ele>340.66666666666663</ele><time>2026-04-26T16:00:31.998Z</time></trkpt><trkpt lat="43.41209163748785" lon="12.816414960483575"><ele>343.0</ele><time>2026-04-26T16:00:32.998Z</time></trkpt><trkpt lat="43.41210726617562" lon="12.816155480597157"><ele>345.66666666666663</ele><time>2026-04-26T16:00:34Z</time></trkpt><trkpt lat="43.41209037574503" lon="12.815884896113765"><ele>348.3333333333333</ele><time>2026-04-26T16:00:35Z</time></trkpt><trkpt lat="43.41209923279134" lon="12.815607638956402"><ele>351.0</ele><time>2026-04-26T16:00:36Z</time></trkpt><trkpt lat="43.412106706433896" lon="12.815331955388269"><ele>351.3333333333333</ele><time>2026-04-26T16:00:37Z</time></trkpt><trkpt lat="43.412124721627734" lon="12.815075439753727"><ele>351.66666666666663</ele><time>2026-04-26T16:00:38Z</time></trkpt><trkpt lat="43.41215669548168" lon="12.814848908920311"><ele>352.0</ele><time>2026-04-26T16:00:39Z</time></trkpt><trkpt lat="43.41221865303442" lon="12.814675809242154"><ele>346.66666666666663</ele><time>2026-04-26T16:00:40Z</time></trkpt><trkpt lat="43.41232323497516" lon="12.814538389226572"><ele>341.3333333333333</ele><time>2026-04-26T16:00:41Z</time></trkpt><trkpt lat="43.412446609819995" lon="12.814375865058965"><ele>336.0</ele><time>2026-04-26T16:00:42Z</time></trkpt><trkpt lat="43.41257041937054" lon="12.814196113720762"><ele>336.0</ele><time>2026-04-26T16:00:43Z</time></trkpt><trkpt lat="43.41268958685732" lon="12.814011574068884"><ele>336.0</ele><time>2026-04-26T16:00:44Z</time></trkpt><trkpt lat="43.41279238025249" lon="12.813785534772837"><ele>336.0</ele><time>2026-04-26T16:00:45Z</time></trkpt><trkpt lat="43.41286237851332" lon="12.813525301443173"><ele>333.3333333333333</ele><time>2026-04-26T16:00:46Z</time></trkpt><trkpt lat="43.41292869140573" lon="12.813256465652268"><ele>330.66666666666663</ele><time>2026-04-26T16:00:47Z</time></trkpt><trkpt lat="43.41301596017384" lon="12.813030653176678"><ele>328.0</ele><time>2026-04-26T16:00:48Z</time></trkpt><trkpt lat="43.4131120531706" lon="12.812846782211405"><ele>328.0</ele><time>2026-04-26T16:00:49Z</time></trkpt><trkpt lat="43.413244849402254" lon="12.812692477792094"><ele>328.0</ele><time>2026-04-26T16:00:50Z</time></trkpt><trkpt lat="43.413403847894905" lon="12.812535236537476"><ele>328.0</ele><time>2026-04-26T16:00:51Z</time></trkpt><trkpt lat="43.41356317579153" lon="12.812380162677655"><ele>329.0</ele><time>2026-04-26T16:00:52Z</time></trkpt><trkpt lat="43.413737120174815" lon="12.812256750279795"><ele>330.0</ele><time>2026-04-26T16:00:53Z</time></trkpt><trkpt lat="43.41393350070187" lon="12.812161576373802"><ele>331.0</ele><time>2026-04-26T16:00:54Z</time></trkpt><trkpt lat="43.4141341609515" lon="12.812047258806219"><ele>331.0</ele><time>2026-04-26T16:00:55Z</time></trkpt><trkpt lat="43.41434542726037" lon="12.811958206489642"><ele>331.0</ele><time>2026-04-26T16:00:56Z</time></trkpt><trkpt lat="43.41455502127233" lon="12.811861256109804"><ele>331.0</ele><time>2026-04-26T16:00:57Z</time></trkpt><trkpt lat="43.41475278034474" lon="12.811776704084767"><ele>335.3333333333333</ele><time>2026-04-26T16:00:58Z</time></trkpt><trkpt lat="43.41492647800853" lon="12.81170578139798"><ele>339.6666666666667</ele><time>2026-04-26T16:00:59Z</time></trkpt><trkpt lat="43.41507684111217" lon="12.811613369522439"><ele>344.0</ele><time>2026-04-26T16:01:00Z</time></trkpt><trkpt lat="43.41520178747576" lon="12.811450751111852"><ele>344.0</ele><time>2026-04-26T16:01:01Z</time></trkpt><trkpt lat="43.415325672902455" lon="12.8112587570551"><ele>344.0</ele><time>2026-04-26T16:01:02Z</time></trkpt><trkpt lat="43.41548890215518" lon="12.811131170282543"><ele>344.0</ele><time>2026-04-26T16:01:03Z</time></trkpt><trkpt lat="43.415663588958765" lon="12.811000313908975"><ele>345.0</ele><time>2026-04-26T16:01:04Z</time></trkpt><trkpt lat="43.41584690246529" lon="12.810854595161109"><ele>346.0</ele><time>2026-04-26T16:01:05Z</time></trkpt><trkpt lat="43.41603406339858" lon="12.810709213154905"><ele>347.0</ele><time>2026-04-26T16:01:06Z</time></trkpt><trkpt lat="43.41622212401897" lon="12.810560534300922"><ele>348.33333333333337</ele><time>2026-04-26T16:01:07Z</time></trkpt><trkpt lat="43.41639993952096" lon="12.81040217506386"><ele>349.6666666666667</ele><time>2026-04-26T16:01:08Z</time></trkpt><trkpt lat="43.41656044160052" lon="12.810207605451117"><ele>351.0</ele><time>2026-04-26T16:01:09Z</time></trkpt><trkpt lat="43.41670467808971" lon="12.809983007229897"><ele>351.0</ele><time>2026-04-26T16:01:10Z</time></trkpt><trkpt lat="43.41683270838874" lon="12.80973758484151"><ele>351.0</ele><time>2026-04-26T16:01:11Z</time></trkpt><trkpt lat="43.4169767892183" lon="12.80950772617966"><ele>351.0</ele><time>2026-04-26T16:01:11.999Z</time></trkpt><trkpt lat="43.417151180721106" lon="12.809307715207897"><ele>348.5</ele><time>2026-04-26T16:01:12.999Z</time></trkpt><trkpt lat="43.41732992784717" lon="12.809103392056665"><ele>346.0</ele><time>2026-04-26T16:01:13.999Z</time></trkpt><trkpt lat="43.417508403781994" lon="12.80889001775685"><ele>346.0</ele><time>2026-04-26T16:01:14.999Z</time></trkpt><trkpt lat="43.41770256038028" lon="12.808692161961114"><ele>346.0</ele><time>2026-04-26T16:01:15.999Z</time></trkpt><trkpt lat="43.41789545196661" lon="12.808495829998758"><ele>347.0</ele><time>2026-04-26T16:01:16.999Z</time></trkpt><trkpt lat="43.418079081862246" lon="12.808304815689652"><ele>348.0</ele><time>2026-04-26T16:01:17.999Z</time></trkpt><trkpt lat="43.41824736003871" lon="12.808126242009331"><ele>349.0</ele><time>2026-04-26T16:01:18.999Z</time></trkpt><trkpt lat="43.41840769547851" lon="12.807932678210769"><ele>349.0</ele><time>2026-04-26T16:01:19.999Z</time></trkpt><trkpt lat="43.418557694676046" lon="12.80770333065606"><ele>349.0</ele><time>2026-04-26T16:01:20.999Z</time></trkpt><trkpt lat="43.41867451432658" lon="12.807428180054208"><ele>347.0</ele><time>2026-04-26T16:01:21.999Z</time></trkpt><trkpt lat="43.4187815496553" lon="12.807142517865417"><ele>345.0</ele><time>2026-04-26T16:01:22.999Z</time></trkpt><trkpt lat="43.41893690951107" lon="12.806897539836768"><ele>348.5</ele><time>2026-04-26T16:01:23.999Z</time></trkpt><trkpt lat="43.41909840770746" lon="12.806650544357533"><ele>352.0</ele><time>2026-04-26T16:01:24.999Z</time></trkpt><trkpt lat="43.41924500510479" lon="12.80640634202893"><ele>352.0</ele><time>2026-04-26T16:01:25.999Z</time></trkpt><trkpt lat="43.41939078479311" lon="12.80619970473663"><ele>352.0</ele><time>2026-04-26T16:01:26.999Z</time></trkpt><trkpt lat="43.41951391391084" lon="12.806026945794828"><ele>352.0</ele><time>2026-04-26T16:01:27.999Z</time></trkpt><trkpt lat="43.41959931824119" lon="12.805892454108323"><ele>356.0</ele><time>2026-04-26T16:01:28.999Z</time></trkpt><trkpt lat="43.41963920727395" lon="12.805752925817336"><ele>360.0</ele><time>2026-04-26T16:01:29.999Z</time></trkpt><trkpt lat="43.41964089239947" lon="12.805596157182743"><ele>364.0</ele><time>2026-04-26T16:01:30.999Z</time></trkpt><trkpt lat="43.419584775840256" lon="12.805430575337947"><ele>368.0</ele><time>2026-04-26T16:01:31.999Z</time></trkpt><trkpt lat="43.41949015231759" lon="12.805275225435096"><ele>369.0</ele><time>2026-04-26T16:01:32.999Z</time></trkpt><trkpt lat="43.41939176538844" lon="12.805110024706904"><ele>370.0</ele><time>2026-04-26T16:01:33.999Z</time></trkpt><trkpt lat="43.41929982916471" lon="12.8049213341612"><ele>371.0</ele><time>2026-04-26T16:01:34.999Z</time></trkpt><trkpt lat="43.41922871964578" lon="12.80470581282186"><ele>371.0</ele><time>2026-04-26T16:01:35.999Z</time></trkpt><trkpt lat="43.41918195893034" lon="12.804466002375408"><ele>371.0</ele><time>2026-04-26T16:01:36.999Z</time></trkpt><trkpt lat="43.41915637627597" lon="12.80422320505722"><ele>371.0</ele><time>2026-04-26T16:01:37.999Z</time></trkpt><trkpt lat="43.41912210359336" lon="12.803971752760434"><ele>370.0</ele><time>2026-04-26T16:01:38.999Z</time></trkpt><trkpt lat="43.419112989763164" lon="12.803713172294513"><ele>369.0</ele><time>2026-04-26T16:01:39.999Z</time></trkpt><trkpt lat="43.419107887616136" lon="12.803455859783945"><ele>368.0</ele><time>2026-04-26T16:01:40.999Z</time></trkpt><trkpt lat="43.41912522963784" lon="12.803195313439796"><ele>367.6666666666667</ele><time>2026-04-26T16:01:41.999Z</time></trkpt><trkpt lat="43.41916447820687" lon="12.8029371771646"><ele>367.3333333333333</ele><time>2026-04-26T16:01:42.999Z</time></trkpt><trkpt lat="43.419188726204645" lon="12.802711989426053"><ele>367.0</ele><time>2026-04-26T16:01:43.999Z</time></trkpt><trkpt lat="43.41923463747087" lon="12.802526760554917"><ele>370.0</ele><time>2026-04-26T16:01:44.999Z</time></trkpt><trkpt lat="43.419286871185854" lon="12.802357434676862"><ele>373.0</ele><time>2026-04-26T16:01:45.999Z</time></trkpt><trkpt lat="43.41932928957631" lon="12.802194969410632"><ele>376.0</ele><time>2026-04-26T16:01:46.999Z</time></trkpt><trkpt lat="43.41935743605561" lon="12.802046958882439"><ele>379.0</ele><time>2026-04-26T16:01:47.999Z</time></trkpt><trkpt lat="43.41967751632005" lon="12.80195984933047"><ele>375.0</ele><time>2026-04-26T16:01:48.999Z</time></trkpt><trkpt lat="43.419815872684886" lon="12.80180618126151"><ele>371.0</ele><time>2026-04-26T16:01:49.999Z</time></trkpt><trkpt lat="43.41996455153555" lon="12.801652240960209"><ele>367.0</ele><time>2026-04-26T16:01:50.999Z</time></trkpt><trkpt lat="43.42012123686755" lon="12.801490849198766"><ele>367.0</ele><time>2026-04-26T16:01:51.999Z</time></trkpt><trkpt lat="43.420279290219376" lon="12.80132348684976"><ele>367.0</ele><time>2026-04-26T16:01:52.999Z</time></trkpt><trkpt lat="43.420432195027004" lon="12.80115509288171"><ele>367.0</ele><time>2026-04-26T16:01:53.999Z</time></trkpt><trkpt lat="43.42057789332624" lon="12.800982559330127"><ele>365.66666666666663</ele><time>2026-04-26T16:01:54.999Z</time></trkpt><trkpt lat="43.42070641351594" lon="12.800805711130744"><ele>364.3333333333333</ele><time>2026-04-26T16:01:55.999Z</time></trkpt><trkpt lat="43.42082482680064" lon="12.800619626766313"><ele>363.0</ele><time>2026-04-26T16:01:56.999Z</time></trkpt><trkpt lat="43.420928763258885" lon="12.800413215468222"><ele>363.0</ele><time>2026-04-26T16:01:57.999Z</time></trkpt><trkpt lat="43.421007497741584" lon="12.800171369113736"><ele>363.0</ele><time>2026-04-26T16:01:58.999Z</time></trkpt><trkpt lat="43.42106059740305" lon="12.799897189908883"><ele>363.0</ele><time>2026-04-26T16:01:59.999Z</time></trkpt><trkpt lat="43.42110220308507" lon="12.799600990864677"><ele>375.5</ele><time>2026-04-26T16:02:00.999Z</time></trkpt><trkpt lat="43.42114191300466" lon="12.799293288070906"><ele>388.0</ele><time>2026-04-26T16:02:01.999Z</time></trkpt><trkpt lat="43.421188745326546" lon="12.798978488663593"><ele>388.0</ele><time>2026-04-26T16:02:02.999Z</time></trkpt><trkpt lat="43.421238135580154" lon="12.79865652760765"><ele>388.0</ele><time>2026-04-26T16:02:03.999Z</time></trkpt><trkpt lat="43.42128284359898" lon="12.798339067992188"><ele>375.6666666666667</ele><time>2026-04-26T16:02:04.999Z</time></trkpt><trkpt lat="43.421328787536346" lon="12.798041282483755"><ele>363.33333333333337</ele><time>2026-04-26T16:02:05.999Z</time></trkpt><trkpt lat="43.421375583356145" lon="12.797769886368837"><ele>351.0</ele><time>2026-04-26T16:02:06.999Z</time></trkpt><trkpt lat="43.42141748050738" lon="12.797520599670147"><ele>351.0</ele><time>2026-04-26T16:02:07.999Z</time></trkpt><trkpt lat="43.42144420527419" lon="12.797291631069417"><ele>351.0</ele><time>2026-04-26T16:02:08.999Z</time></trkpt><trkpt lat="43.42142648344746" lon="12.797055350324634"><ele>351.0</ele><time>2026-04-26T16:02:09.999Z</time></trkpt><trkpt lat="43.42136594635213" lon="12.796861501743038"><ele>350.75</ele><time>2026-04-26T16:02:10.999Z</time></trkpt><trkpt lat="43.42132367630834" lon="12.796691238966686"><ele>350.5</ele><time>2026-04-26T16:02:11.999Z</time></trkpt><trkpt lat="43.4213344292056" lon="12.796510497018113"><ele>350.25</ele><time>2026-04-26T16:02:12.999Z</time></trkpt><trkpt lat="43.42139546836996" lon="12.796321784860769"><ele>350.0</ele><time>2026-04-26T16:02:13.999Z</time></trkpt><trkpt lat="43.42148491733122" lon="12.796140314235926"><ele>352.0</ele><time>2026-04-26T16:02:14.999Z</time></trkpt><trkpt lat="43.42154900110099" lon="12.79592127537569"><ele>354.0</ele><time>2026-04-26T16:02:15.999Z</time></trkpt><trkpt lat="43.421625671977225" lon="12.795697080383917"><ele>356.0</ele><time>2026-04-26T16:02:16.999Z</time></trkpt><trkpt lat="43.421688199201036" lon="12.795474083198979"><ele>356.0</ele><time>2026-04-26T16:02:17.999Z</time></trkpt><trkpt lat="43.42172103212346" lon="12.795256346701377"><ele>356.0</ele><time>2026-04-26T16:02:18.999Z</time></trkpt><trkpt lat="43.4217113253311" lon="12.79501860100439"><ele>356.0</ele><time>2026-04-26T16:02:19.999Z</time></trkpt><trkpt lat="43.42166925728928" lon="12.794775239616783"><ele>356.6666666666667</ele><time>2026-04-26T16:02:20.999Z</time></trkpt><trkpt lat="43.421592599249706" lon="12.7945402274843"><ele>357.3333333333333</ele><time>2026-04-26T16:02:21.999Z</time></trkpt><trkpt lat="43.421493674327955" lon="12.794314754144528"><ele>358.0</ele><time>2026-04-26T16:02:22.998Z</time></trkpt><trkpt lat="43.42136745157048" lon="12.794121140547952"><ele>366.0</ele><time>2026-04-26T16:02:23.998Z</time></trkpt><trkpt lat="43.42123297714832" lon="12.793959300835716"><ele>374.0</ele><time>2026-04-26T16:02:24.998Z</time></trkpt><trkpt lat="43.42107093966523" lon="12.793821674129896"><ele>382.0</ele><time>2026-04-26T16:02:25.998Z</time></trkpt><trkpt lat="43.420905846253284" lon="12.793706280488289"><ele>382.0</ele><time>2026-04-26T16:02:26.998Z</time></trkpt><trkpt lat="43.42073476435827" lon="12.79363153166637"><ele>382.0</ele><time>2026-04-26T16:02:27.998Z</time></trkpt><trkpt lat="43.42054535618878" lon="12.79360059967865"><ele>382.0</ele><time>2026-04-26T16:02:28.998Z</time></trkpt><trkpt lat="43.420348799414995" lon="12.793612480288811"><ele>381.3333333333333</ele><time>2026-04-26T16:02:29.998Z</time></trkpt><trkpt lat="43.42014756553867" lon="12.79366936449091"><ele>380.6666666666667</ele><time>2026-04-26T16:02:30.998Z</time></trkpt><trkpt lat="43.419939289646216" lon="12.793753995893708"><ele>380.0</ele><time>2026-04-26T16:02:31.998Z</time></trkpt><trkpt lat="43.41972427383614" lon="12.793830067952147"><ele>376.0</ele><time>2026-04-26T16:02:32.998Z</time></trkpt><trkpt lat="43.41949928614775" lon="12.793896079405005"><ele>372.0</ele><time>2026-04-26T16:02:33.998Z</time></trkpt><trkpt lat="43.41927419158717" lon="12.7939675522216"><ele>372.0</ele><time>2026-04-26T16:02:34.998Z</time></trkpt><trkpt lat="43.41905279931975" lon="12.794056683630563"><ele>372.0</ele><time>2026-04-26T16:02:35.998Z</time></trkpt><trkpt lat="43.41884478149483" lon="12.794168606836978"><ele>370.6666666666667</ele><time>2026-04-26T16:02:36.998Z</time></trkpt><trkpt lat="43.418652279651454" lon="12.794266356596742"><ele>369.33333333333337</ele><time>2026-04-26T16:02:37.998Z</time></trkpt><trkpt lat="43.41846726022182" lon="12.794336030436261"><ele>368.0</ele><time>2026-04-26T16:02:38.998Z</time></trkpt><trkpt lat="43.41828811276738" lon="12.794371060343392"><ele>366.0</ele><time>2026-04-26T16:02:40Z</time></trkpt><trkpt lat="43.41811645173705" lon="12.794361282452574"><ele>364.0</ele><time>2026-04-26T16:02:41Z</time></trkpt><trkpt lat="43.417952946875666" lon="12.794298989540376"><ele>362.0</ele><time>2026-04-26T16:02:42Z</time></trkpt><trkpt lat="43.41781494512092" lon="12.794213390845162"><ele>362.0</ele><time>2026-04-26T16:02:43Z</time></trkpt><trkpt lat="43.41766459212825" lon="12.79421110273385"><ele>362.0</ele><time>2026-04-26T16:02:44Z</time></trkpt><trkpt lat="43.41749418488448" lon="12.794324251841784"><ele>362.0</ele><time>2026-04-26T16:02:45Z</time></trkpt><trkpt lat="43.41733625517982" lon="12.794463478441935"><ele>363.6666666666667</ele><time>2026-04-26T16:02:46Z</time></trkpt><trkpt lat="43.41718039923393" lon="12.794636516745335"><ele>365.3333333333333</ele><time>2026-04-26T16:02:47Z</time></trkpt><trkpt lat="43.41704083122473" lon="12.79480821902063"><ele>367.0</ele><time>2026-04-26T16:02:48Z</time></trkpt><trkpt lat="43.416905240758894" lon="12.794935870623778"><ele>367.0</ele><time>2026-04-26T16:02:49Z</time></trkpt><trkpt lat="43.416765434448614" lon="12.795000677567257"><ele>367.0</ele><time>2026-04-26T16:02:50Z</time></trkpt><trkpt lat="43.41660391367712" lon="12.794995731781622"><ele>367.0</ele><time>2026-04-26T16:02:51Z</time></trkpt><trkpt lat="43.41646965563281" lon="12.79498922187539"><ele>367.0</ele><time>2026-04-26T16:02:52Z</time></trkpt><trkpt lat="43.41635062816035" lon="12.794952115062223"><ele>371.0</ele><time>2026-04-26T16:02:53Z</time></trkpt><trkpt lat="43.41623485169152" lon="12.79485376243404"><ele>375.0</ele><time>2026-04-26T16:02:54Z</time></trkpt><trkpt lat="43.41612874962782" lon="12.794691531360574"><ele>379.0</ele><time>2026-04-26T16:02:55Z</time></trkpt><trkpt lat="43.41602536705124" lon="12.794520370065985"><ele>373.66666666666663</ele><time>2026-04-26T16:02:56Z</time></trkpt><trkpt lat="43.41591631033414" lon="12.794337245171334"><ele>368.3333333333333</ele><time>2026-04-26T16:02:57Z</time></trkpt><trkpt lat="43.415795877890105" lon="12.794147842965721"><ele>363.0</ele><time>2026-04-26T16:02:58Z</time></trkpt><trkpt lat="43.4156785193914" lon="12.793972007233467"><ele>363.0</ele><time>2026-04-26T16:02:59Z</time></trkpt><trkpt lat="43.41557328462423" lon="12.793818734447251"><ele>363.0</ele><time>2026-04-26T16:03:00Z</time></trkpt><trkpt lat="43.41548268860965" lon="12.793674871943603"><ele>363.0</ele><time>2026-04-26T16:03:01Z</time></trkpt><trkpt lat="43.41541017124296" lon="12.793523945342933"><ele>363.0</ele><time>2026-04-26T16:03:02Z</time></trkpt><trkpt lat="43.41536446546661" lon="12.793343902119755"><ele>374.33333333333337</ele><time>2026-04-26T16:03:03Z</time></trkpt><trkpt lat="43.41533400917557" lon="12.793122452769385"><ele>385.6666666666667</ele><time>2026-04-26T16:03:04Z</time></trkpt><trkpt lat="43.41532748532483" lon="12.792902420287568"><ele>397.0</ele><time>2026-04-26T16:03:05Z</time></trkpt><trkpt lat="43.41535128399728" lon="12.792678552269926"><ele>402.0</ele><time>2026-04-26T16:03:06Z</time></trkpt><trkpt lat="43.41541540557133" lon="12.79245759350724"><ele>407.0</ele><time>2026-04-26T16:03:07Z</time></trkpt><trkpt lat="43.41551186071825" lon="12.792258198377471"><ele>412.0</ele><time>2026-04-26T16:03:08Z</time></trkpt><trkpt lat="43.41564413158502" lon="12.792077201119882"><ele>404.33333333333337</ele><time>2026-04-26T16:03:09Z</time></trkpt><trkpt lat="43.415802218360575" lon="12.791913022327478"><ele>396.66666666666663</ele><time>2026-04-26T16:03:10Z</time></trkpt><trkpt lat="43.41597987601588" lon="12.791767887337258"><ele>389.0</ele><time>2026-04-26T16:03:11Z</time></trkpt><trkpt lat="43.41617028613912" lon="12.791634693825483"><ele>382.3333333333333</ele><time>2026-04-26T16:03:12Z</time></trkpt><trkpt lat="43.41637051780221" lon="12.791516884458842"><ele>375.66666666666663</ele><time>2026-04-26T16:03:13Z</time></trkpt><trkpt lat="43.41655458761164" lon="12.791418834293598"><ele>369.0</ele><time>2026-04-26T16:03:14Z</time></trkpt><trkpt lat="43.416721424476" lon="12.791339135543817"><ele>369.0</ele><time>2026-04-26T16:03:15Z</time></trkpt><trkpt lat="43.41690459765367" lon="12.79128465848159"><ele>369.0</ele><time>2026-04-26T16:03:15.999Z</time></trkpt><trkpt lat="43.41709605717196" lon="12.791284866126963"><ele>369.0</ele><time>2026-04-26T16:03:16.999Z</time></trkpt><trkpt lat="43.417297780076176" lon="12.791289871044391"><ele>369.0</ele><time>2026-04-26T16:03:17.999Z</time></trkpt><trkpt lat="43.41749823744579" lon="12.79129346768509"><ele>369.0</ele><time>2026-04-26T16:03:18.999Z</time></trkpt><trkpt lat="43.417686576624284" lon="12.791304142836733"><ele>369.0</ele><time>2026-04-26T16:03:19.999Z</time></trkpt><trkpt lat="43.41783951084623" lon="12.79134795372585"><ele>369.0</ele><time>2026-04-26T16:03:20.999Z</time></trkpt><trkpt lat="43.417972400191616" lon="12.791350944023797"><ele>369.0</ele><time>2026-04-26T16:03:21.999Z</time></trkpt><trkpt lat="43.418093639024924" lon="12.791290378459003"><ele>369.0</ele><time>2026-04-26T16:03:22.999Z</time></trkpt><trkpt lat="43.41820628817351" lon="12.791186282733285"><ele>369.0</ele><time>2026-04-26T16:03:23.999Z</time></trkpt><trkpt lat="43.41828030923829" lon="12.791023408814665"><ele>371.0</ele><time>2026-04-26T16:03:24.999Z</time></trkpt><trkpt lat="43.41833851221109" lon="12.790832345175"><ele>373.0</ele><time>2026-04-26T16:03:25.999Z</time></trkpt><trkpt lat="43.41837969153426" lon="12.790612317836928"><ele>375.0</ele><time>2026-04-26T16:03:26.999Z</time></trkpt><trkpt lat="43.41843490355939" lon="12.790390134954716"><ele>381.0</ele><time>2026-04-26T16:03:27.999Z</time></trkpt><trkpt lat="43.41849412194862" lon="12.790157641277236"><ele>387.0</ele><time>2026-04-26T16:03:28.999Z</time></trkpt><trkpt lat="43.41857300250305" lon="12.789920025308339"><ele>393.0</ele><time>2026-04-26T16:03:29.999Z</time></trkpt><trkpt lat="43.41865392886213" lon="12.789685328695827"><ele>393.0</ele><time>2026-04-26T16:03:30.999Z</time></trkpt><trkpt lat="43.418743725269316" lon="12.789444373745317"><ele>393.0</ele><time>2026-04-26T16:03:31.999Z</time></trkpt><trkpt lat="43.418845712590375" lon="12.78922128340551"><ele>393.0</ele><time>2026-04-26T16:03:32.999Z</time></trkpt><trkpt lat="43.41894143692722" lon="12.78902530894572"><ele>387.0</ele><time>2026-04-26T16:03:33.999Z</time></trkpt><trkpt lat="43.41902068943554" lon="12.788838450703217"><ele>381.0</ele><time>2026-04-26T16:03:34.999Z</time></trkpt><trkpt lat="43.419063334579015" lon="12.788637091059837"><ele>375.0</ele><time>2026-04-26T16:03:35.999Z</time></trkpt><trkpt lat="43.41907621491902" lon="12.788415899465836"><ele>375.0</ele><time>2026-04-26T16:03:36.999Z</time></trkpt><trkpt lat="43.4190557824632" lon="12.788190512732312"><ele>375.0</ele><time>2026-04-26T16:03:37.999Z</time></trkpt><trkpt lat="43.419008461108554" lon="12.787997148654393"><ele>375.0</ele><time>2026-04-26T16:03:38.999Z</time></trkpt><trkpt lat="43.41893331168055" lon="12.787825273463374"><ele>377.6666666666667</ele><time>2026-04-26T16:03:39.999Z</time></trkpt><trkpt lat="43.41879765635456" lon="12.787683948983434"><ele>380.33333333333337</ele><time>2026-04-26T16:03:40.999Z</time></trkpt><trkpt lat="43.418638466419985" lon="12.787573957210649"><ele>383.0</ele><time>2026-04-26T16:03:41.999Z</time></trkpt><trkpt lat="43.418471282048294" lon="12.787466031078264"><ele>383.0</ele><time>2026-04-26T16:03:42.999Z</time></trkpt><trkpt lat="43.418294965658184" lon="12.787347240129131"><ele>383.0</ele><time>2026-04-26T16:03:43.999Z</time></trkpt><trkpt lat="43.41811639210314" lon="12.787217971203248"><ele>383.0</ele><time>2026-04-26T16:03:44.999Z</time></trkpt><trkpt lat="43.41793711068979" lon="12.787062807185144"><ele>384.0</ele><time>2026-04-26T16:03:45.999Z</time></trkpt><trkpt lat="43.41776202703198" lon="12.786877975778216"><ele>385.0</ele><time>2026-04-26T16:03:46.999Z</time></trkpt><trkpt lat="43.4175858341231" lon="12.786680622889607"><ele>386.0</ele><time>2026-04-26T16:03:47.999Z</time></trkpt><trkpt lat="43.41741002753448" lon="12.786483078989638"><ele>386.0</ele><time>2026-04-26T16:03:48.999Z</time></trkpt><trkpt lat="43.41723249249745" lon="12.786282727583796"><ele>386.0</ele><time>2026-04-26T16:03:49.999Z</time></trkpt><trkpt lat="43.4170566330356" lon="12.786092081573456"><ele>384.66666666666663</ele><time>2026-04-26T16:03:50.999Z</time></trkpt><trkpt lat="43.41689264478502" lon="12.785889931948823"><ele>383.3333333333333</ele><time>2026-04-26T16:03:51.999Z</time></trkpt><trkpt lat="43.416754577593274" lon="12.785663339697196"><ele>382.0</ele><time>2026-04-26T16:03:52.999Z</time></trkpt><trkpt lat="43.41665413170509" lon="12.785401563714563"><ele>378.0</ele><time>2026-04-26T16:03:53.999Z</time></trkpt><trkpt lat="43.41658701337502" lon="12.785107804947135"><ele>374.0</ele><time>2026-04-26T16:03:54.999Z</time></trkpt><trkpt lat="43.41652959002251" lon="12.78480210564696"><ele>374.0</ele><time>2026-04-26T16:03:55.999Z</time></trkpt><trkpt lat="43.41646665588582" lon="12.78449091782392"><ele>374.0</ele><time>2026-04-26T16:03:56.999Z</time></trkpt><trkpt lat="43.41640114617327" lon="12.78416904486666"><ele>374.5</ele><time>2026-04-26T16:03:57.999Z</time></trkpt><trkpt lat="43.41633356036559" lon="12.783840786239846"><ele>375.0</ele><time>2026-04-26T16:03:58.999Z</time></trkpt><trkpt lat="43.41626185991327" lon="12.783505671093158"><ele>374.0</ele><time>2026-04-26T16:03:59.999Z</time></trkpt><trkpt lat="43.41618819930339" lon="12.783165788178698"><ele>373.0</ele><time>2026-04-26T16:04:00.999Z</time></trkpt><trkpt lat="43.416116274228266" lon="12.782819564227593"><ele>374.5</ele><time>2026-04-26T16:04:01.999Z</time></trkpt><trkpt lat="43.41604659913646" lon="12.782470834874527"><ele>376.0</ele><time>2026-04-26T16:04:02.999Z</time></trkpt><trkpt lat="43.41598004689896" lon="12.78213604282098"><ele>377.3333333333333</ele><time>2026-04-26T16:04:03.999Z</time></trkpt><trkpt lat="43.41591979695411" lon="12.781829079690182"><ele>378.6666666666667</ele><time>2026-04-26T16:04:04.999Z</time></trkpt><trkpt lat="43.41586461351882" lon="12.781550521277822"><ele>380.0</ele><time>2026-04-26T16:04:05.999Z</time></trkpt><trkpt lat="43.415833298757825" lon="12.781307074688206"><ele>380.0</ele><time>2026-04-26T16:04:06.999Z</time></trkpt><trkpt lat="43.415842268469085" lon="12.781076843151661"><ele>380.0</ele><time>2026-04-26T16:04:07.999Z</time></trkpt><trkpt lat="43.4158928058717" lon="12.780860912584723"><ele>380.0</ele><time>2026-04-26T16:04:08.999Z</time></trkpt><trkpt lat="43.41598670170295" lon="12.780655971346782"><ele>380.33333333333337</ele><time>2026-04-26T16:04:09.999Z</time></trkpt><trkpt lat="43.41609520295261" lon="12.780454288827764"><ele>380.6666666666667</ele><time>2026-04-26T16:04:10.999Z</time></trkpt><trkpt lat="43.416202314417426" lon="12.780240168695533"><ele>381.0</ele><time>2026-04-26T16:04:11.999Z</time></trkpt><trkpt lat="43.416301828654085" lon="12.780032582038606"><ele>386.0</ele><time>2026-04-26T16:04:12.999Z</time></trkpt><trkpt lat="43.416429745352765" lon="12.779866234867674"><ele>391.0</ele><time>2026-04-26T16:04:13.999Z</time></trkpt><trkpt lat="43.41659291136401" lon="12.779741294712137"><ele>396.0</ele><time>2026-04-26T16:04:14.999Z</time></trkpt><trkpt lat="43.41675932742081" lon="12.77960647716554"><ele>396.0</ele><time>2026-04-26T16:04:15.999Z</time></trkpt><trkpt lat="43.41690354634153" lon="12.779426162002489"><ele>396.0</ele><time>2026-04-26T16:04:16.999Z</time></trkpt><trkpt lat="43.417013725134105" lon="12.779188446003788"><ele>396.0</ele><time>2026-04-26T16:04:17.998Z</time></trkpt><trkpt lat="43.41710305013573" lon="12.778925693407992"><ele>394.0</ele><time>2026-04-26T16:04:18.998Z</time></trkpt><trkpt lat="43.41720630254306" lon="12.77866066556235"><ele>392.0</ele><time>2026-04-26T16:04:19.998Z</time></trkpt><trkpt lat="43.41734253747933" lon="12.778410457649912"><ele>390.0</ele><time>2026-04-26T16:04:20.998Z</time></trkpt><trkpt lat="43.41748656117099" lon="12.77816011994816"><ele>390.0</ele><time>2026-04-26T16:04:21.998Z</time></trkpt><trkpt lat="43.41763488078346" lon="12.77790602631731"><ele>390.0</ele><time>2026-04-26T16:04:22.998Z</time></trkpt><trkpt lat="43.41778070490039" lon="12.777644517424896"><ele>386.0</ele><time>2026-04-26T16:04:23.998Z</time></trkpt><trkpt lat="43.417922443848056" lon="12.77739389820257"><ele>382.0</ele><time>2026-04-26T16:04:24.998Z</time></trkpt><trkpt lat="43.418054877969155" lon="12.77716047730621"><ele>378.0</ele><time>2026-04-26T16:04:25.998Z</time></trkpt><trkpt lat="43.41818638555566" lon="12.77694944984148"><ele>380.33333333333337</ele><time>2026-04-26T16:04:26.998Z</time></trkpt><trkpt lat="43.41834645919811" lon="12.776764064575715"><ele>382.6666666666667</ele><time>2026-04-26T16:04:27.998Z</time></trkpt><trkpt lat="43.41853127183249" lon="12.776602562869606"><ele>385.0</ele><time>2026-04-26T16:04:28.998Z</time></trkpt><trkpt lat="43.41872070513241" lon="12.776440372291914"><ele>385.33333333333337</ele><time>2026-04-26T16:04:29.998Z</time></trkpt><trkpt lat="43.41889473674821" lon="12.776255250019268"><ele>385.66666666666663</ele><time>2026-04-26T16:04:30.998Z</time></trkpt><trkpt lat="43.419061089903884" lon="12.776058131968899"><ele>386.0</ele><time>2026-04-26T16:04:31.998Z</time></trkpt><trkpt lat="43.41924651399918" lon="12.775899345649215"><ele>386.0</ele><time>2026-04-26T16:04:32.998Z</time></trkpt><trkpt lat="43.41945112099309" lon="12.77577721564531"><ele>386.0</ele><time>2026-04-26T16:04:33.998Z</time></trkpt><trkpt lat="43.419668799823576" lon="12.775683882678456"><ele>391.0</ele><time>2026-04-26T16:04:34.998Z</time></trkpt><trkpt lat="43.41987628304328" lon="12.775604691154285"><ele>396.0</ele><time>2026-04-26T16:04:35.998Z</time></trkpt><trkpt lat="43.42007868989533" lon="12.775525648083073"><ele>401.0</ele><time>2026-04-26T16:04:36.998Z</time></trkpt><trkpt lat="43.4202901958832" lon="12.775475428068829"><ele>404.0</ele><time>2026-04-26T16:04:37.998Z</time></trkpt><trkpt lat="43.420515440055986" lon="12.775456104548912"><ele>407.0</ele><time>2026-04-26T16:04:38.998Z</time></trkpt><trkpt lat="43.420745793990804" lon="12.775437521352522"><ele>407.0</ele><time>2026-04-26T16:04:39.998Z</time></trkpt><trkpt lat="43.42098113513167" lon="12.775416581814666"><ele>407.0</ele><time>2026-04-26T16:04:40.998Z</time></trkpt><trkpt lat="43.421221470705895" lon="12.775396219001076"><ele>409.5</ele><time>2026-04-26T16:04:41.998Z</time></trkpt><trkpt lat="43.42145704266633" lon="12.775369836760104"><ele>412.0</ele><time>2026-04-26T16:04:42.998Z</time></trkpt><trkpt lat="43.421692508496484" lon="12.775314231941918"><ele>412.0</ele><time>2026-04-26T16:04:43.998Z</time></trkpt><trkpt lat="43.42192398487698" lon="12.775235071391858"><ele>412.0</ele><time>2026-04-26T16:04:44.998Z</time></trkpt><trkpt lat="43.4221381415658" lon="12.775148285500867"><ele>407.0</ele><time>2026-04-26T16:04:46Z</time></trkpt><trkpt lat="43.42233122965885" lon="12.775071174178441"><ele>402.0</ele><time>2026-04-26T16:04:47Z</time></trkpt><trkpt lat="43.42250264999393" lon="12.77499064319679"><ele>397.0</ele><time>2026-04-26T16:04:48Z</time></trkpt><trkpt lat="43.42266502088612" lon="12.774862164902729"><ele>397.0</ele><time>2026-04-26T16:04:49Z</time></trkpt><trkpt lat="43.42280647584254" lon="12.774675128991834"><ele>397.0</ele><time>2026-04-26T16:04:50Z</time></trkpt><trkpt lat="43.42292534822449" lon="12.774504100538003"><ele>397.0</ele><time>2026-04-26T16:04:51Z</time></trkpt><trkpt lat="43.42301719683805" lon="12.774285898737142"><ele>396.33333333333337</ele><time>2026-04-26T16:04:52Z</time></trkpt><trkpt lat="43.42307324128611" lon="12.774032120150006"><ele>395.66666666666663</ele><time>2026-04-26T16:04:53Z</time></trkpt><trkpt lat="43.42312320756802" lon="12.773763699276765"><ele>395.0</ele><time>2026-04-26T16:04:54Z</time></trkpt><trkpt lat="43.423184089660396" lon="12.773488757543944"><ele>395.0</ele><time>2026-04-26T16:04:55Z</time></trkpt><trkpt lat="43.42324877454631" lon="12.773209511219012"><ele>395.0</ele><time>2026-04-26T16:04:56Z</time></trkpt><trkpt lat="43.42331504517015" lon="12.772916972801426"><ele>395.0</ele><time>2026-04-26T16:04:57Z</time></trkpt><trkpt lat="43.42338119757989" lon="12.772615079374729"><ele>393.5</ele><time>2026-04-26T16:04:58Z</time></trkpt><trkpt lat="43.42345085296705" lon="12.772307257991521"><ele>392.0</ele><time>2026-04-26T16:04:59Z</time></trkpt><trkpt lat="43.42352122067751" lon="12.771992436091688"><ele>390.5</ele><time>2026-04-26T16:05:00Z</time></trkpt><trkpt lat="43.42359503772114" lon="12.771670175870998"><ele>389.0</ele><time>2026-04-26T16:05:01Z</time></trkpt><trkpt lat="43.4236727303053" lon="12.771343156619045"><ele>390.0</ele><time>2026-04-26T16:05:02Z</time></trkpt><trkpt lat="43.42374967914831" lon="12.771010249723204"><ele>391.0</ele><time>2026-04-26T16:05:03Z</time></trkpt><trkpt lat="43.42382527627128" lon="12.770670514835308"><ele>398.5</ele><time>2026-04-26T16:05:04Z</time></trkpt><trkpt lat="43.42390182775039" lon="12.770326592028198"><ele>406.0</ele><time>2026-04-26T16:05:05Z</time></trkpt><trkpt lat="43.423985193798416" lon="12.769978907083674"><ele>406.0</ele><time>2026-04-26T16:05:06Z</time></trkpt><trkpt lat="43.42406706271623" lon="12.769630731165172"><ele>406.0</ele><time>2026-04-26T16:05:07Z</time></trkpt><trkpt lat="43.42414450909523" lon="12.769297068275478"><ele>403.5</ele><time>2026-04-26T16:05:08Z</time></trkpt><trkpt lat="43.424219154880376" lon="12.76898193131958"><ele>401.0</ele><time>2026-04-26T16:05:09Z</time></trkpt><trkpt lat="43.42428962206514" lon="12.768679378196596"><ele>399.3333333333333</ele><time>2026-04-26T16:05:10Z</time></trkpt><trkpt lat="43.424351326859764" lon="12.768406518499665"><ele>397.66666666666663</ele><time>2026-04-26T16:05:11Z</time></trkpt><trkpt lat="43.42437905849301" lon="12.768152769466964"><ele>396.0</ele><time>2026-04-26T16:05:12Z</time></trkpt><trkpt lat="43.42437254725471" lon="12.767897970308105"><ele>397.0</ele><time>2026-04-26T16:05:13Z</time></trkpt><trkpt lat="43.42434268009662" lon="12.76764102365804"><ele>398.0</ele><time>2026-04-26T16:05:14Z</time></trkpt><trkpt lat="43.4243010858734" lon="12.767386835220886"><ele>399.0</ele><time>2026-04-26T16:05:15Z</time></trkpt><trkpt lat="43.424230719219736" lon="12.76714232608713"><ele>399.0</ele><time>2026-04-26T16:05:16Z</time></trkpt><trkpt lat="43.42413057002249" lon="12.766912388477005"><ele>399.0</ele><time>2026-04-26T16:05:17Z</time></trkpt><trkpt lat="43.4240173363345" lon="12.76670585896599"><ele>399.0</ele><time>2026-04-26T16:05:18Z</time></trkpt><trkpt lat="43.423900626490266" lon="12.76654806483593"><ele>402.33333333333337</ele><time>2026-04-26T16:05:18.999Z</time></trkpt><trkpt lat="43.42374604400065" lon="12.766436754935695"><ele>405.6666666666667</ele><time>2026-04-26T16:05:19.999Z</time></trkpt><trkpt lat="43.42358335614667" lon="12.766316612400356"><ele>409.0</ele><time>2026-04-26T16:05:20.999Z</time></trkpt><trkpt lat="43.42343490341162" lon="12.766139145660702"><ele>412.6666666666667</ele><time>2026-04-26T16:05:21.999Z</time></trkpt><trkpt lat="43.42330230811228" lon="12.765942407489469"><ele>416.33333333333337</ele><time>2026-04-26T16:05:22.999Z</time></trkpt><trkpt lat="43.42315556866753" lon="12.76573325026672"><ele>420.0</ele><time>2026-04-26T16:05:23.999Z</time></trkpt><trkpt lat="43.42300527585441" lon="12.765522350640667"><ele>419.66666666666663</ele><time>2026-04-26T16:05:24.999Z</time></trkpt><trkpt lat="43.42286061706032" lon="12.765309942150143"><ele>419.3333333333333</ele><time>2026-04-26T16:05:25.999Z</time></trkpt><trkpt lat="43.422722462922515" lon="12.765125280098042"><ele>419.0</ele><time>2026-04-26T16:05:26.999Z</time></trkpt><trkpt lat="43.42258306394907" lon="12.76495901216483"><ele>419.0</ele><time>2026-04-26T16:05:27.999Z</time></trkpt><trkpt lat="43.42246250790162" lon="12.764789346759544"><ele>419.0</ele><time>2026-04-26T16:05:28.999Z</time></trkpt><trkpt lat="43.42236176248762" lon="12.764595042739105"><ele>419.0</ele><time>2026-04-26T16:05:29.999Z</time></trkpt><trkpt lat="43.42227761028211" lon="12.764375012043926"><ele>417.0</ele><time>2026-04-26T16:05:30.999Z</time></trkpt><trkpt lat="43.42221057638565" lon="12.764139674976892"><ele>415.0</ele><time>2026-04-26T16:05:31.999Z</time></trkpt><trkpt lat="43.42212381545997" lon="12.763922008086016"><ele>413.0</ele><time>2026-04-26T16:05:32.999Z</time></trkpt><trkpt lat="43.422000894843464" lon="12.763723045263907"><ele>413.0</ele><time>2026-04-26T16:05:33.999Z</time></trkpt><trkpt lat="43.421852195486764" lon="12.763557262419287"><ele>413.0</ele><time>2026-04-26T16:05:34.999Z</time></trkpt><trkpt lat="43.42169417086299" lon="12.763411639619658"><ele>413.0</ele><time>2026-04-26T16:05:35.999Z</time></trkpt><trkpt lat="43.42154757358215" lon="12.763272662906825"><ele>415.66666666666663</ele><time>2026-04-26T16:05:36.999Z</time></trkpt><trkpt lat="43.42141499678097" lon="12.76314799471313"><ele>418.33333333333337</ele><time>2026-04-26T16:05:37.999Z</time></trkpt><trkpt lat="43.421316451549465" lon="12.762999915982578"><ele>421.0</ele><time>2026-04-26T16:05:38.999Z</time></trkpt><trkpt lat="43.42123732396273" lon="12.762811090613736"><ele>421.33333333333337</ele><time>2026-04-26T16:05:39.999Z</time></trkpt><trkpt lat="43.421189937344664" lon="12.762589111348236"><ele>421.66666666666663</ele><time>2026-04-26T16:05:40.999Z</time></trkpt><trkpt lat="43.42115550402079" lon="12.762346503219302"><ele>422.0</ele><time>2026-04-26T16:05:41.999Z</time></trkpt><trkpt lat="43.42111148144819" lon="12.762092407489382"><ele>419.0</ele><time>2026-04-26T16:05:42.999Z</time></trkpt><trkpt lat="43.421056302347964" lon="12.761830057219031"><ele>416.0</ele><time>2026-04-26T16:05:43.999Z</time></trkpt><trkpt lat="43.420990387824105" lon="12.761558968565849"><ele>413.0</ele><time>2026-04-26T16:05:44.999Z</time></trkpt><trkpt lat="43.42091614896386" lon="12.761280556636288"><ele>415.0</ele><time>2026-04-26T16:05:45.999Z</time></trkpt><trkpt lat="43.420836567182434" lon="12.760998894522261"><ele>417.0</ele><time>2026-04-26T16:05:46.999Z</time></trkpt><trkpt lat="43.420759598233744" lon="12.760739086566254"><ele>419.0</ele><time>2026-04-26T16:05:47.999Z</time></trkpt><trkpt lat="43.4206706979886" lon="12.760504754606869"><ele>419.0</ele><time>2026-04-26T16:05:48.999Z</time></trkpt><trkpt lat="43.42055229803735" lon="12.760311498073392"><ele>419.0</ele><time>2026-04-26T16:05:49.999Z</time></trkpt><trkpt lat="43.4204271356142" lon="12.76014482050826"><ele>419.0</ele><time>2026-04-26T16:05:50.999Z</time></trkpt><trkpt lat="43.42032374613325" lon="12.759997849776589"><ele>418.2</ele><time>2026-04-26T16:05:51.999Z</time></trkpt><trkpt lat="43.420248862547034" lon="12.759862660448084"><ele>417.4</ele><time>2026-04-26T16:05:52.999Z</time></trkpt><trkpt lat="43.4202187284097" lon="12.759721311150823"><ele>416.6</ele><time>2026-04-26T16:05:53.999Z</time></trkpt><trkpt lat="43.42023756656197" lon="12.759585424893114"><ele>415.8</ele><time>2026-04-26T16:05:54.999Z</time></trkpt><trkpt lat="43.420296171439155" lon="12.759467980235645"><ele>415.0</ele><time>2026-04-26T16:05:55.999Z</time></trkpt><trkpt lat="43.42041023919267" lon="12.759382034702279"><ele>417.0</ele><time>2026-04-26T16:05:56.999Z</time></trkpt><trkpt lat="43.420518719358896" lon="12.759258325465973"><ele>419.0</ele><time>2026-04-26T16:05:57.999Z</time></trkpt><trkpt lat="43.42062642145043" lon="12.759108132068695"><ele>421.0</ele><time>2026-04-26T16:05:58.999Z</time></trkpt><trkpt lat="43.42076290449879" lon="12.758980500554259"><ele>421.0</ele><time>2026-04-26T16:05:59.999Z</time></trkpt><trkpt lat="43.420895953054746" lon="12.758827297062268"><ele>421.0</ele><time>2026-04-26T16:06:00.999Z</time></trkpt><trkpt lat="43.42102172454415" lon="12.75868151380004"><ele>421.0</ele><time>2026-04-26T16:06:01.999Z</time></trkpt><trkpt lat="43.42112002601731" lon="12.758537051979152"><ele>418.75</ele><time>2026-04-26T16:06:02.999Z</time></trkpt><trkpt lat="43.42119035551692" lon="12.758410454104848"><ele>416.5</ele><time>2026-04-26T16:06:03.999Z</time></trkpt><trkpt lat="43.421212478524275" lon="12.758263818722583"><ele>414.25</ele><time>2026-04-26T16:06:04.999Z</time></trkpt><trkpt lat="43.421183743522704" lon="12.758099188882516"><ele>412.0</ele><time>2026-04-26T16:06:05.999Z</time></trkpt><trkpt lat="43.421106788392784" lon="12.757928303461723"><ele>412.0</ele><time>2026-04-26T16:06:06.999Z</time></trkpt><trkpt lat="43.42102988903246" lon="12.757749472169069"><ele>412.0</ele><time>2026-04-26T16:06:07.999Z</time></trkpt><trkpt lat="43.420954406985544" lon="12.757553360391285"><ele>412.0</ele><time>2026-04-26T16:06:08.999Z</time></trkpt><trkpt lat="43.4208821811269" lon="12.757369201848661"><ele>411.0</ele><time>2026-04-26T16:06:09.999Z</time></trkpt><trkpt lat="43.4208154619616" lon="12.757197318740724"><ele>410.0</ele><time>2026-04-26T16:06:10.999Z</time></trkpt><trkpt lat="43.42074632703155" lon="12.757041105600397"><ele>409.0</ele><time>2026-04-26T16:06:11.999Z</time></trkpt><trkpt lat="43.420653321361385" lon="12.756900775171957"><ele>408.0</ele><time>2026-04-26T16:06:12.999Z</time></trkpt><trkpt lat="43.42053186810885" lon="12.756822642497097"><ele>409.75</ele><time>2026-04-26T16:06:13.999Z</time></trkpt><trkpt lat="43.42039646188538" lon="12.756805412821882"><ele>411.5</ele><time>2026-04-26T16:06:14.999Z</time></trkpt><trkpt lat="43.42027180038563" lon="12.756813914448578"><ele>413.25</ele><time>2026-04-26T16:06:15.999Z</time></trkpt><trkpt lat="43.42015951243156" lon="12.756763885951063"><ele>415.0</ele><time>2026-04-26T16:06:16.999Z</time></trkpt><trkpt lat="43.42008108837272" lon="12.756651456032973"><ele>415.0</ele><time>2026-04-26T16:06:17.999Z</time></trkpt><trkpt lat="43.42006509866996" lon="12.756512747678567"><ele>415.0</ele><time>2026-04-26T16:06:18.999Z</time></trkpt><trkpt lat="43.42009441658007" lon="12.756378840942629"><ele>415.0</ele><time>2026-04-26T16:06:19.999Z</time></trkpt><trkpt lat="43.42017575169642" lon="12.756274017333473"><ele>415.0</ele><time>2026-04-26T16:06:20.999Z</time></trkpt><trkpt lat="43.42027250406804" lon="12.756134658360697"><ele>414.33333333333337</ele><time>2026-04-26T16:06:21.999Z</time></trkpt><trkpt lat="43.420381268725556" lon="12.756001425515159"><ele>413.66666666666663</ele><time>2026-04-26T16:06:22.999Z</time></trkpt><trkpt lat="43.420476669489005" lon="12.75583871903637"><ele>413.0</ele><time>2026-04-26T16:06:23.999Z</time></trkpt><trkpt lat="43.420560480242266" lon="12.75564058832252"><ele>415.0</ele><time>2026-04-26T16:06:24.999Z</time></trkpt><trkpt lat="43.42063597977531" lon="12.755438782309154"><ele>417.0</ele><time>2026-04-26T16:06:25.999Z</time></trkpt><trkpt lat="43.420681289808165" lon="12.755216056053344"><ele>419.0</ele><time>2026-04-26T16:06:26.998Z</time></trkpt><trkpt lat="43.420712361072994" lon="12.755017308717326"><ele>419.0</ele><time>2026-04-26T16:06:27.998Z</time></trkpt><trkpt lat="43.42075852896378" lon="12.754856649954146"><ele>419.0</ele><time>2026-04-26T16:06:28.998Z</time></trkpt><trkpt lat="43.42084504478244" lon="12.754733235898065"><ele>419.0</ele><time>2026-04-26T16:06:29.998Z</time></trkpt><trkpt lat="43.42096553019327" lon="12.754665520769606"><ele>419.0</ele><time>2026-04-26T16:06:30.998Z</time></trkpt><trkpt lat="43.42110623634114" lon="12.7546388445364"><ele>419.0</ele><time>2026-04-26T16:06:31.998Z</time></trkpt><trkpt lat="43.42125619412828" lon="12.754609223863676"><ele>419.0</ele><time>2026-04-26T16:06:32.998Z</time></trkpt><trkpt lat="43.42138649628092" lon="12.754494611198758"><ele>419.0</ele><time>2026-04-26T16:06:33.998Z</time></trkpt><trkpt lat="43.42149580884926" lon="12.754311960427259"><ele>420.66666666666663</ele><time>2026-04-26T16:06:34.998Z</time></trkpt><trkpt lat="43.42158371410263" lon="12.754098783512447"><ele>422.33333333333337</ele><time>2026-04-26T16:06:35.998Z</time></trkpt><trkpt lat="43.421661431782574" lon="12.753873609230341"><ele>424.0</ele><time>2026-04-26T16:06:36.998Z</time></trkpt><trkpt lat="43.42173375840596" lon="12.753640007261708"><ele>422.6666666666667</ele><time>2026-04-26T16:06:37.998Z</time></trkpt><trkpt lat="43.42179162535825" lon="12.753392049249126"><ele>421.33333333333337</ele><time>2026-04-26T16:06:38.998Z</time></trkpt><trkpt lat="43.421840984951935" lon="12.753128606273286"><ele>420.0</ele><time>2026-04-26T16:06:39.998Z</time></trkpt><trkpt lat="43.42188451937167" lon="12.752856785924433"><ele>418.0</ele><time>2026-04-26T16:06:40.998Z</time></trkpt><trkpt lat="43.42192579179943" lon="12.752598476797454"><ele>416.0</ele><time>2026-04-26T16:06:41.998Z</time></trkpt><trkpt lat="43.42196440443094" lon="12.752363915182402"><ele>414.0</ele><time>2026-04-26T16:06:42.998Z</time></trkpt><trkpt lat="43.42201973934857" lon="12.752174993814352"><ele>414.0</ele><time>2026-04-26T16:06:43.998Z</time></trkpt><trkpt lat="43.42209411495493" lon="12.752027507729856"><ele>414.0</ele><time>2026-04-26T16:06:44.998Z</time></trkpt><trkpt lat="43.42220713540732" lon="12.751902504189559"><ele>414.0</ele><time>2026-04-26T16:06:45.998Z</time></trkpt><trkpt lat="43.422325770642146" lon="12.751733006191936"><ele>414.0</ele><time>2026-04-26T16:06:46.998Z</time></trkpt><trkpt lat="43.42245977317456" lon="12.751607729837694"><ele>417.25</ele><time>2026-04-26T16:06:47.998Z</time></trkpt><trkpt lat="43.42258560019703" lon="12.75151740565783"><ele>420.5</ele><time>2026-04-26T16:06:48.998Z</time></trkpt><trkpt lat="43.42272783736934" lon="12.751502309306339"><ele>423.75</ele><time>2026-04-26T16:06:49.998Z</time></trkpt><trkpt lat="43.42287169147501" lon="12.751482399838387"><ele>427.0</ele><time>2026-04-26T16:06:50.998Z</time></trkpt><trkpt lat="43.42299917103581" lon="12.751435185574026"><ele>429.33333333333337</ele><time>2026-04-26T16:06:52Z</time></trkpt><trkpt lat="43.423121896223215" lon="12.75132884844434"><ele>431.66666666666663</ele><time>2026-04-26T16:06:53Z</time></trkpt><trkpt lat="43.423229467135386" lon="12.751156469069183"><ele>434.0</ele><time>2026-04-26T16:06:54Z</time></trkpt><trkpt lat="43.423307427241696" lon="12.750937194424154"><ele>434.0</ele><time>2026-04-26T16:06:55Z</time></trkpt><trkpt lat="43.42335958082762" lon="12.750690339492083"><ele>434.0</ele><time>2026-04-26T16:06:56Z</time></trkpt><trkpt lat="43.423424694708224" lon="12.750443708041924"><ele>434.0</ele><time>2026-04-26T16:06:57Z</time></trkpt><trkpt lat="43.42350751569421" lon="12.75020059064564"><ele>429.66666666666663</ele><time>2026-04-26T16:06:58Z</time></trkpt><trkpt lat="43.423601160113535" lon="12.749955453381355"><ele>425.33333333333337</ele><time>2026-04-26T16:06:59Z</time></trkpt><trkpt lat="43.42370032434954" lon="12.749724354564282"><ele>421.0</ele><time>2026-04-26T16:07:00Z</time></trkpt><trkpt lat="43.42381510617519" lon="12.749525186058149"><ele>429.33333333333337</ele><time>2026-04-26T16:07:01Z</time></trkpt><trkpt lat="43.423889560218235" lon="12.749320486635547"><ele>437.66666666666663</ele><time>2026-04-26T16:07:02Z</time></trkpt><trkpt lat="43.42394029866011" lon="12.749104526238575"><ele>446.0</ele><time>2026-04-26T16:07:03Z</time></trkpt><trkpt lat="43.4239524212449" lon="12.748879728061798"><ele>446.0</ele><time>2026-04-26T16:07:04Z</time></trkpt><trkpt lat="43.423944855054884" lon="12.748670244699184"><ele>446.0</ele><time>2026-04-26T16:07:05Z</time></trkpt><trkpt lat="43.42392141428654" lon="12.748455853445414"><ele>446.0</ele><time>2026-04-26T16:07:06Z</time></trkpt><trkpt lat="43.42387762746202" lon="12.748235632639988"><ele>443.75</ele><time>2026-04-26T16:07:07Z</time></trkpt><trkpt lat="43.423828918619016" lon="12.74801462460396"><ele>441.5</ele><time>2026-04-26T16:07:08Z</time></trkpt><trkpt lat="43.42378182317623" lon="12.747821308802314"><ele>439.25</ele><time>2026-04-26T16:07:09Z</time></trkpt><trkpt lat="43.42375392447152" lon="12.747644559584062"><ele>437.0</ele><time>2026-04-26T16:07:10Z</time></trkpt><trkpt lat="43.423776596080316" lon="12.747493467798646"><ele>434.40000000000003</ele><time>2026-04-26T16:07:11Z</time></trkpt><trkpt lat="43.4238677905976" lon="12.747401990515286"><ele>431.80000000000007</ele><time>2026-04-26T16:07:12Z</time></trkpt><trkpt lat="43.42395851719644" lon="12.747358287841534"><ele>429.2</ele><time>2026-04-26T16:07:13Z</time></trkpt><trkpt lat="43.42404558723622" lon="12.747383580233581"><ele>426.6</ele><time>2026-04-26T16:07:14Z</time></trkpt><trkpt lat="43.42411776661175" lon="12.747454178791894"><ele>424.0</ele><time>2026-04-26T16:07:15Z</time></trkpt><trkpt lat="43.42421087039575" lon="12.747571427170802"><ele>427.25</ele><time>2026-04-26T16:07:16Z</time></trkpt><trkpt lat="43.424294940819344" lon="12.747717382895011"><ele>430.5</ele><time>2026-04-26T16:07:17Z</time></trkpt><trkpt lat="43.42439810697861" lon="12.747825897170895"><ele>433.75</ele><time>2026-04-26T16:07:18Z</time></trkpt><trkpt lat="43.42451604878091" lon="12.747835231107254"><ele>437.0</ele><time>2026-04-26T16:07:19Z</time></trkpt><trkpt lat="43.424652353477825" lon="12.747800913572407"><ele>433.0</ele><time>2026-04-26T16:07:20Z</time></trkpt><trkpt lat="43.42479679206511" lon="12.747777269401118"><ele>429.0</ele><time>2026-04-26T16:07:21Z</time></trkpt><trkpt lat="43.4249435750698" lon="12.747730528111761"><ele>425.0</ele><time>2026-04-26T16:07:22Z</time></trkpt><trkpt lat="43.42511882932872" lon="12.747685105356299"><ele>425.0</ele><time>2026-04-26T16:07:22.999Z</time></trkpt><trkpt lat="43.425282404770876" lon="12.747680899876665"><ele>425.0</ele><time>2026-04-26T16:07:23.999Z</time></trkpt><trkpt lat="43.425454147224045" lon="12.747714899663853"><ele>425.0</ele><time>2026-04-26T16:07:24.999Z</time></trkpt><trkpt lat="43.425635404734585" lon="12.747741807902703"><ele>424.66666666666663</ele><time>2026-04-26T16:07:25.999Z</time></trkpt><trkpt lat="43.425802704241484" lon="12.747721524827398"><ele>424.33333333333337</ele><time>2026-04-26T16:07:26.999Z</time></trkpt><trkpt lat="43.425966247272044" lon="12.747632359443388"><ele>424.0</ele><time>2026-04-26T16:07:27.999Z</time></trkpt><trkpt lat="43.42613159090093" lon="12.747520371523713"><ele>424.0</ele><time>2026-04-26T16:07:28.999Z</time></trkpt><trkpt lat="43.42631148899505" lon="12.747420503280544"><ele>424.0</ele><time>2026-04-26T16:07:29.999Z</time></trkpt><trkpt lat="43.42649675720612" lon="12.747280822334893"><ele>424.0</ele><time>2026-04-26T16:07:30.999Z</time></trkpt><trkpt lat="43.42668503509426" lon="12.747151611205622"><ele>425.6666666666667</ele><time>2026-04-26T16:07:31.999Z</time></trkpt><trkpt lat="43.426882333724286" lon="12.74701916280179"><ele>427.33333333333337</ele><time>2026-04-26T16:07:32.999Z</time></trkpt><trkpt lat="43.427073458590954" lon="12.746894650661787"><ele>429.0</ele><time>2026-04-26T16:07:33.999Z</time></trkpt><trkpt lat="43.42725001533748" lon="12.746785658579103"><ele>429.0</ele><time>2026-04-26T16:07:34.999Z</time></trkpt><trkpt lat="43.42741320979851" lon="12.746669453847126"><ele>429.0</ele><time>2026-04-26T16:07:35.999Z</time></trkpt><trkpt lat="43.42756001114944" lon="12.746501281972003"><ele>429.0</ele><time>2026-04-26T16:07:36.999Z</time></trkpt><trkpt lat="43.42769098985769" lon="12.746291236579927"><ele>429.0</ele><time>2026-04-26T16:07:37.999Z</time></trkpt><trkpt lat="43.42782049655397" lon="12.746057315850013"><ele>429.0</ele><time>2026-04-26T16:07:38.999Z</time></trkpt><trkpt lat="43.4279703723301" lon="12.745839157014919"><ele>429.0</ele><time>2026-04-26T16:07:39.999Z</time></trkpt><trkpt lat="43.42810930092583" lon="12.745590901162279"><ele>429.0</ele><time>2026-04-26T16:07:40.999Z</time></trkpt><trkpt lat="43.428273464224304" lon="12.74536135479262"><ele>429.0</ele><time>2026-04-26T16:07:41.999Z</time></trkpt><trkpt lat="43.4284390342843" lon="12.745126254351918"><ele>429.0</ele><time>2026-04-26T16:07:42.999Z</time></trkpt><trkpt lat="43.42861966969423" lon="12.744908108242504"><ele>429.0</ele><time>2026-04-26T16:07:43.999Z</time></trkpt><trkpt lat="43.42878057655962" lon="12.74468530124633"><ele>431.0</ele><time>2026-04-26T16:07:44.999Z</time></trkpt><trkpt lat="43.42893463227259" lon="12.744472666534827"><ele>433.0</ele><time>2026-04-26T16:07:45.999Z</time></trkpt><trkpt lat="43.42910496830166" lon="12.744288519779493"><ele>435.0</ele><time>2026-04-26T16:07:46.999Z</time></trkpt><trkpt lat="43.429290333634015" lon="12.744142854616507"><ele>435.0</ele><time>2026-04-26T16:07:47.999Z</time></trkpt><trkpt lat="43.42946495472169" lon="12.744003648040806"><ele>435.0</ele><time>2026-04-26T16:07:48.999Z</time></trkpt><trkpt lat="43.42963813312861" lon="12.743863266675623"><ele>435.0</ele><time>2026-04-26T16:07:49.999Z</time></trkpt><trkpt lat="43.42979037957474" lon="12.743686216824795"><ele>439.66666666666663</ele><time>2026-04-26T16:07:50.999Z</time></trkpt><trkpt lat="43.429905472290464" lon="12.743482161570794"><ele>444.3333333333333</ele><time>2026-04-26T16:07:51.999Z</time></trkpt><trkpt lat="43.429980114381635" lon="12.743235436335352"><ele>449.0</ele><time>2026-04-26T16:07:52.999Z</time></trkpt><trkpt lat="43.43004120568846" lon="12.742960937368236"><ele>445.66666666666663</ele><time>2026-04-26T16:07:53.999Z</time></trkpt><trkpt lat="43.430100866102244" lon="12.742680643784608"><ele>442.33333333333337</ele><time>2026-04-26T16:07:54.999Z</time></trkpt><trkpt lat="43.4301649957195" lon="12.742384768507502"><ele>439.0</ele><time>2026-04-26T16:07:55.999Z</time></trkpt><trkpt lat="43.43022985902307" lon="12.74208764870978"><ele>435.5</ele><time>2026-04-26T16:07:56.999Z</time></trkpt><trkpt lat="43.43028101259242" lon="12.741774239916975"><ele>432.0</ele><time>2026-04-26T16:07:57.999Z</time></trkpt><trkpt lat="43.43035275008181" lon="12.741462761321094"><ele>432.0</ele><time>2026-04-26T16:07:58.999Z</time></trkpt><trkpt lat="43.43041775936103" lon="12.741162257975853"><ele>432.0</ele><time>2026-04-26T16:07:59.999Z</time></trkpt><trkpt lat="43.430490046829625" lon="12.740897219022514"><ele>432.0</ele><time>2026-04-26T16:08:00.999Z</time></trkpt><trkpt lat="43.43054240895691" lon="12.7406492009956"><ele>433.33333333333337</ele><time>2026-04-26T16:08:01.999Z</time></trkpt><trkpt lat="43.430576279248605" lon="12.74041412218631"><ele>434.6666666666667</ele><time>2026-04-26T16:08:02.999Z</time></trkpt><trkpt lat="43.43064562882203" lon="12.740213796697525"><ele>436.0</ele><time>2026-04-26T16:08:03.999Z</time></trkpt><trkpt lat="43.430744748340324" lon="12.74007965331051"><ele>436.0</ele><time>2026-04-26T16:08:04.999Z</time></trkpt><trkpt lat="43.430881993136936" lon="12.740019465180927"><ele>436.0</ele><time>2026-04-26T16:08:05.999Z</time></trkpt><trkpt lat="43.43103457743515" lon="12.739957504116104"><ele>436.0</ele><time>2026-04-26T16:08:06.999Z</time></trkpt><trkpt lat="43.43120286411383" lon="12.73990045512725"><ele>439.0</ele><time>2026-04-26T16:08:07.999Z</time></trkpt><trkpt lat="43.43137363860659" lon="12.739834422185211"><ele>442.0</ele><time>2026-04-26T16:08:08.999Z</time></trkpt><trkpt lat="43.43155196413095" lon="12.739765458299622"><ele>445.0</ele><time>2026-04-26T16:08:09.999Z</time></trkpt><trkpt lat="43.43174229883562" lon="12.739695001941008"><ele>445.0</ele><time>2026-04-26T16:08:10.999Z</time></trkpt><trkpt lat="43.43193760134984" lon="12.739621699382301"><ele>445.0</ele><time>2026-04-26T16:08:11.999Z</time></trkpt><trkpt lat="43.43212800186064" lon="12.7395491877051"><ele>445.0</ele><time>2026-04-26T16:08:12.999Z</time></trkpt><trkpt lat="43.432302577238275" lon="12.739486976247864"><ele>445.75</ele><time>2026-04-26T16:08:13.999Z</time></trkpt><trkpt lat="43.43245132462129" lon="12.739428315887173"><ele>446.5</ele><time>2026-04-26T16:08:14.999Z</time></trkpt><trkpt lat="43.4325861866423" lon="12.739416803370812"><ele>447.25</ele><time>2026-04-26T16:08:15.999Z</time></trkpt><trkpt lat="43.432713432698215" lon="12.739427987527872"><ele>448.0</ele><time>2026-04-26T16:08:16.999Z</time></trkpt><trkpt lat="43.43285958939427" lon="12.739448507736135"><ele>447.0</ele><time>2026-04-26T16:08:17.999Z</time></trkpt><trkpt lat="43.43299695186554" lon="12.739496021333387"><ele>446.0</ele><time>2026-04-26T16:08:18.999Z</time></trkpt><trkpt lat="43.43312690948824" lon="12.73950808231823"><ele>445.0</ele><time>2026-04-26T16:08:19.999Z</time></trkpt><trkpt lat="43.433245528421295" lon="12.73946461345121"><ele>444.0</ele><time>2026-04-26T16:08:20.999Z</time></trkpt><trkpt lat="43.433353556997005" lon="12.739378458639067"><ele>443.0</ele><time>2026-04-26T16:08:21.999Z</time></trkpt><trkpt lat="43.433444224560745" lon="12.739269807645366"><ele>442.0</ele><time>2026-04-26T16:08:22.999Z</time></trkpt><trkpt lat="43.43352420074923" lon="12.739176050088695"><ele>441.0</ele><time>2026-04-26T16:08:23.999Z</time></trkpt><trkpt lat="43.4335846247208" lon="12.739094001109526"><ele>440.0</ele><time>2026-04-26T16:08:24.999Z</time></trkpt><trkpt lat="43.433493185296484" lon="12.738780463380145"><ele>440.0</ele><time>2026-04-26T16:08:26.999Z</time></trkpt><trkpt lat="43.433422921121846" lon="12.738661822086717"><ele>440.0</ele><time>2026-04-26T16:08:27.999Z</time></trkpt><trkpt lat="43.43335555006925" lon="12.738544503436314"><ele>440.0</ele><time>2026-04-26T16:08:28.998Z</time></trkpt><trkpt lat="43.43329288480214" lon="12.738420810654977"><ele>440.0</ele><time>2026-04-26T16:08:29.998Z</time></trkpt><trkpt lat="43.43322753005568" lon="12.738303878178646"><ele>440.0</ele><time>2026-04-26T16:08:30.998Z</time></trkpt><trkpt lat="43.43317366836844" lon="12.738198022466545"><ele>441.6</ele><time>2026-04-26T16:08:31.998Z</time></trkpt><trkpt lat="43.43314569335307" lon="12.738076632630422"><ele>443.2</ele><time>2026-04-26T16:08:32.998Z</time></trkpt><trkpt lat="43.43310832208223" lon="12.737960785062866"><ele>444.79999999999995</ele><time>2026-04-26T16:08:33.998Z</time></trkpt><trkpt lat="43.433077059315785" lon="12.737833877450074"><ele>446.4</ele><time>2026-04-26T16:08:34.998Z</time></trkpt><trkpt lat="43.43304984793299" lon="12.737699534528648"><ele>448.0</ele><time>2026-04-26T16:08:35.998Z</time></trkpt><trkpt lat="43.43302529717934" lon="12.737576400270935"><ele>449.0</ele><time>2026-04-26T16:08:36.998Z</time></trkpt><trkpt lat="43.4329827497186" lon="12.737473083016214"><ele>449.99999999999994</ele><time>2026-04-26T16:08:37.998Z</time></trkpt><trkpt lat="43.43296291565378" lon="12.737366633353815"><ele>450.99999999999994</ele><time>2026-04-26T16:08:38.998Z</time></trkpt><trkpt lat="43.43291410840913" lon="12.73726434970665"><ele>452.0</ele><time>2026-04-26T16:08:39.998Z</time></trkpt><trkpt lat="43.43283908558798" lon="12.737149839581633"><ele>453.0</ele><time>2026-04-26T16:08:40.998Z</time></trkpt><trkpt lat="43.432788208546" lon="12.737018731772174"><ele>450.5</ele><time>2026-04-26T16:08:41.998Z</time></trkpt><trkpt lat="43.432763601255495" lon="12.736870086872743"><ele>448.0</ele><time>2026-04-26T16:08:42.998Z</time></trkpt><trkpt lat="43.43270863830768" lon="12.736730141765772"><ele>445.5</ele><time>2026-04-26T16:08:43.998Z</time></trkpt><trkpt lat="43.43266631948822" lon="12.736577305777711"><ele>443.0</ele><time>2026-04-26T16:08:44.998Z</time></trkpt><trkpt lat="43.43262186202959" lon="12.736419421611334"><ele>443.0</ele><time>2026-04-26T16:08:45.998Z</time></trkpt><trkpt lat="43.43257770932307" lon="12.736259293356666"><ele>443.0</ele><time>2026-04-26T16:08:46.998Z</time></trkpt><trkpt lat="43.43253696015188" lon="12.736094351922493"><ele>443.0</ele><time>2026-04-26T16:08:47.998Z</time></trkpt><trkpt lat="43.43248972900902" lon="12.735929170315808"><ele>443.0</ele><time>2026-04-26T16:08:48.998Z</time></trkpt><trkpt lat="43.4324366521214" lon="12.73576452099666"><ele>445.0</ele><time>2026-04-26T16:08:49.998Z</time></trkpt><trkpt lat="43.432376598996605" lon="12.735601749131915"><ele>447.0</ele><time>2026-04-26T16:08:50.998Z</time></trkpt><trkpt lat="43.432299833843736" lon="12.735439626669491"><ele>449.0</ele><time>2026-04-26T16:08:51.998Z</time></trkpt><trkpt lat="43.43220684135603" lon="12.735281529324938"><ele>451.0</ele><time>2026-04-26T16:08:52.998Z</time></trkpt><trkpt lat="43.432107824933375" lon="12.735120357309153"><ele>451.33333333333337</ele><time>2026-04-26T16:08:53.998Z</time></trkpt><trkpt lat="43.43200167213989" lon="12.734952879567656"><ele>451.66666666666663</ele><time>2026-04-26T16:08:54.998Z</time></trkpt><trkpt lat="43.43189398324992" lon="12.734774546824365"><ele>452.0</ele><time>2026-04-26T16:08:55.998Z</time></trkpt><trkpt lat="43.43178733005323" lon="12.734589759586962"><ele>453.66666666666663</ele><time>2026-04-26T16:08:56.998Z</time></trkpt><trkpt lat="43.43169723014062" lon="12.734378051099462"><ele>455.33333333333337</ele><time>2026-04-26T16:08:58Z</time></trkpt><trkpt lat="43.43162099121069" lon="12.73414269785784"><ele>457.0</ele><time>2026-04-26T16:08:59Z</time></trkpt><trkpt lat="43.43154733224191" lon="12.733898943477755"><ele>457.0</ele><time>2026-04-26T16:09:00Z</time></trkpt><trkpt lat="43.43146322374259" lon="12.733650456044106"><ele>457.0</ele><time>2026-04-26T16:09:01Z</time></trkpt><trkpt lat="43.43135999383213" lon="12.733413474489774"><ele>457.0</ele><time>2026-04-26T16:09:02Z</time></trkpt><trkpt lat="43.43125316114702" lon="12.733174616210565"><ele>455.0</ele><time>2026-04-26T16:09:03Z</time></trkpt><trkpt lat="43.43114363030631" lon="12.732939563638284"><ele>453.0</ele><time>2026-04-26T16:09:04Z</time></trkpt><trkpt lat="43.43102952602734" lon="12.732723698395668"><ele>451.0</ele><time>2026-04-26T16:09:05Z</time></trkpt><trkpt lat="43.43092320581382" lon="12.732530596238323"><ele>452.0</ele><time>2026-04-26T16:09:06Z</time></trkpt><trkpt lat="43.43082707264196" lon="12.732363575791295"><ele>453.0</ele><time>2026-04-26T16:09:07Z</time></trkpt><trkpt lat="43.43073236299449" lon="12.732235962788874"><ele>454.0</ele><time>2026-04-26T16:09:08Z</time></trkpt><trkpt lat="43.43059972500339" lon="12.732155660810054"><ele>455.0</ele><time>2026-04-26T16:09:09Z</time></trkpt><trkpt lat="43.43044057100353" lon="12.73212734270296"><ele>455.0</ele><time>2026-04-26T16:09:10Z</time></trkpt><trkpt lat="43.43027137845587" lon="12.732149474957982"><ele>455.0</ele><time>2026-04-26T16:09:11Z</time></trkpt><trkpt lat="43.430093279182294" lon="12.732189929623377"><ele>455.0</ele><time>2026-04-26T16:09:12Z</time></trkpt><trkpt lat="43.429915599468494" lon="12.732261424590787"><ele>455.0</ele><time>2026-04-26T16:09:13Z</time></trkpt><trkpt lat="43.429734175580286" lon="12.732357664102306"><ele>455.0</ele><time>2026-04-26T16:09:14Z</time></trkpt><trkpt lat="43.42954346996419" lon="12.732461107120397"><ele>455.0</ele><time>2026-04-26T16:09:15Z</time></trkpt><trkpt lat="43.429352133776675" lon="12.732568358303938"><ele>454.3333333333333</ele><time>2026-04-26T16:09:16Z</time></trkpt><trkpt lat="43.42916078818484" lon="12.732670059228358"><ele>453.66666666666663</ele><time>2026-04-26T16:09:17Z</time></trkpt><trkpt lat="43.428960505653826" lon="12.732759854626185"><ele>453.0</ele><time>2026-04-26T16:09:18Z</time></trkpt><trkpt lat="43.42874883486116" lon="12.732820736963966"><ele>452.66666666666663</ele><time>2026-04-26T16:09:19Z</time></trkpt><trkpt lat="43.428526833997275" lon="12.732839295612292"><ele>452.3333333333333</ele><time>2026-04-26T16:09:20Z</time></trkpt><trkpt lat="43.42830264770525" lon="12.732859291726012"><ele>452.0</ele><time>2026-04-26T16:09:21Z</time></trkpt><trkpt lat="43.42808399757453" lon="12.732888661142473"><ele>452.66666666666663</ele><time>2026-04-26T16:09:22Z</time></trkpt><trkpt lat="43.42789059729166" lon="12.732921572886179"><ele>453.33333333333337</ele><time>2026-04-26T16:09:23Z</time></trkpt><trkpt lat="43.42772402630011" lon="12.73292717432691"><ele>454.0</ele><time>2026-04-26T16:09:24Z</time></trkpt><trkpt lat="43.42756548872506" lon="12.732870967402778"><ele>454.0</ele><time>2026-04-26T16:09:25Z</time></trkpt><trkpt lat="43.42741026042918" lon="12.732760369382463"><ele>454.0</ele><time>2026-04-26T16:09:25.999Z</time></trkpt><trkpt lat="43.42726675881201" lon="12.732618761562142"><ele>454.0</ele><time>2026-04-26T16:09:26.999Z</time></trkpt><trkpt lat="43.42712331069414" lon="12.732458989876202"><ele>455.6666666666667</ele><time>2026-04-26T16:09:27.999Z</time></trkpt><trkpt lat="43.42698200352549" lon="12.73229611488737"><ele>457.33333333333337</ele><time>2026-04-26T16:09:28.999Z</time></trkpt><trkpt lat="43.42685726317304" lon="12.732113906895474"><ele>459.0</ele><time>2026-04-26T16:09:29.999Z</time></trkpt><trkpt lat="43.42674284472233" lon="12.731914257237502"><ele>466.33333333333337</ele><time>2026-04-26T16:09:30.999Z</time></trkpt><trkpt lat="43.42663858799596" lon="12.731693897137085"><ele>473.6666666666667</ele><time>2026-04-26T16:09:31.999Z</time></trkpt><trkpt lat="43.42649978973401" lon="12.731501378879479"><ele>481.0</ele><time>2026-04-26T16:09:32.999Z</time></trkpt><trkpt lat="43.42633988660461" lon="12.731332285448172"><ele>484.33333333333337</ele><time>2026-04-26T16:09:33.999Z</time></trkpt><trkpt lat="43.426186555445" lon="12.731149498365282"><ele>487.66666666666663</ele><time>2026-04-26T16:09:34.999Z</time></trkpt><trkpt lat="43.426027759773156" lon="12.730973259823363"><ele>491.0</ele><time>2026-04-26T16:09:35.999Z</time></trkpt><trkpt lat="43.42585634322281" lon="12.730827756388928"><ele>491.0</ele><time>2026-04-26T16:09:36.999Z</time></trkpt><trkpt lat="43.42567602467058" lon="12.730709509989932"><ele>491.0</ele><time>2026-04-26T16:09:37.999Z</time></trkpt><trkpt lat="43.425518679390095" lon="12.730596248738223"><ele>491.0</ele><time>2026-04-26T16:09:38.999Z</time></trkpt><trkpt lat="43.425383658015505" lon="12.730495614275764"><ele>489.75</ele><time>2026-04-26T16:09:39.999Z</time></trkpt><trkpt lat="43.425267127171956" lon="12.730436411515477"><ele>488.5</ele><time>2026-04-26T16:09:40.999Z</time></trkpt><trkpt lat="43.42514603535378" lon="12.730435123145522"><ele>487.25</ele><time>2026-04-26T16:09:41.999Z</time></trkpt><trkpt lat="43.425012267291415" lon="12.73051222036889"><ele>486.0</ele><time>2026-04-26T16:09:42.999Z</time></trkpt><trkpt lat="43.42488216267888" lon="12.73064015777042"><ele>486.0</ele><time>2026-04-26T16:09:43.999Z</time></trkpt><trkpt lat="43.42473662946056" lon="12.73074379541003"><ele>486.0</ele><time>2026-04-26T16:09:44.999Z</time></trkpt><trkpt lat="43.42459230178616" lon="12.730791778549655"><ele>486.0</ele><time>2026-04-26T16:09:45.999Z</time></trkpt><trkpt lat="43.42442743414441" lon="12.730833702836353"><ele>492.33333333333337</ele><time>2026-04-26T16:09:46.999Z</time></trkpt><trkpt lat="43.42424507075747" lon="12.730869650413757"><ele>498.6666666666667</ele><time>2026-04-26T16:09:47.999Z</time></trkpt><trkpt lat="43.4240495195114" lon="12.73091042853039"><ele>505.0</ele><time>2026-04-26T16:09:48.999Z</time></trkpt><trkpt lat="43.42384959029361" lon="12.730936638073564"><ele>506.0</ele><time>2026-04-26T16:09:49.999Z</time></trkpt><trkpt lat="43.423649009622686" lon="12.730961441407691"><ele>507.0</ele><time>2026-04-26T16:09:50.999Z</time></trkpt><trkpt lat="43.42343722626914" lon="12.730986753285173"><ele>508.0</ele><time>2026-04-26T16:09:51.999Z</time></trkpt><trkpt lat="43.42322808271488" lon="12.731026712301327"><ele>496.0</ele><time>2026-04-26T16:09:52.999Z</time></trkpt><trkpt lat="43.423015771809844" lon="12.731061286124374"><ele>484.0</ele><time>2026-04-26T16:09:53.999Z</time></trkpt><trkpt lat="43.42283221726953" lon="12.731087454672004"><ele>472.0</ele><time>2026-04-26T16:09:54.999Z</time></trkpt><trkpt lat="43.42267068446617" lon="12.731116980140682"><ele>472.0</ele><time>2026-04-26T16:09:55.999Z</time></trkpt><trkpt lat="43.42252945507136" lon="12.73112541008387"><ele>472.0</ele><time>2026-04-26T16:09:56.999Z</time></trkpt><trkpt lat="43.4224144232456" lon="12.73106723116341"><ele>472.0</ele><time>2026-04-26T16:09:57.999Z</time></trkpt><trkpt lat="43.422355712637454" lon="12.730963099363255"><ele>472.0</ele><time>2026-04-26T16:09:58.999Z</time></trkpt><trkpt lat="43.422369312543026" lon="12.730812019542997"><ele>479.0</ele><time>2026-04-26T16:09:59.999Z</time></trkpt><trkpt lat="43.422388036621456" lon="12.730641278652424"><ele>486.0</ele><time>2026-04-26T16:10:00.999Z</time></trkpt><trkpt lat="43.422465992460104" lon="12.730503680570237"><ele>493.0</ele><time>2026-04-26T16:10:01.999Z</time></trkpt><trkpt lat="43.422522422886274" lon="12.730253877677102"><ele>500.0</ele><time>2026-04-26T16:10:02.999Z</time></trkpt><trkpt lat="43.42251253523822" lon="12.730019481099369"><ele>501.3333333333333</ele><time>2026-04-26T16:10:03.999Z</time></trkpt><trkpt lat="43.422501133305936" lon="12.729804991824597"><ele>502.66666666666663</ele><time>2026-04-26T16:10:04.999Z</time></trkpt><trkpt lat="43.42249065450719" lon="12.729575437723932"><ele>504.0</ele><time>2026-04-26T16:10:05.999Z</time></trkpt><trkpt lat="43.422480501821795" lon="12.729352415992025"><ele>508.0</ele><time>2026-04-26T16:10:06.999Z</time></trkpt><trkpt lat="43.422473641270024" lon="12.729176242643865"><ele>512.0</ele><time>2026-04-26T16:10:07.999Z</time></trkpt><trkpt lat="43.42246394506894" lon="12.728995021713647"><ele>516.0</ele><time>2026-04-26T16:10:08.999Z</time></trkpt><trkpt lat="43.4224529884965" lon="12.728833462223628"><ele>520.0</ele><time>2026-04-26T16:10:09.999Z</time></trkpt><trkpt lat="43.422436205902" lon="12.728706227913326"><ele>520.0</ele><time>2026-04-26T16:10:10.999Z</time></trkpt><trkpt lat="43.42238272735974" lon="12.728585488686788"><ele>520.0</ele><time>2026-04-26T16:10:11.999Z</time></trkpt><trkpt lat="43.422313810463834" lon="12.728497666885861"><ele>520.0</ele><time>2026-04-26T16:10:12.999Z</time></trkpt><trkpt lat="43.422238758524074" lon="12.728400642899663"><ele>520.0</ele><time>2026-04-26T16:10:13.999Z</time></trkpt><trkpt lat="43.42217621423958" lon="12.728297079830654"><ele>520.0</ele><time>2026-04-26T16:10:14.999Z</time></trkpt><trkpt lat="43.42211251123379" lon="12.72818211634128"><ele>513.2</ele><time>2026-04-26T16:10:15.999Z</time></trkpt><trkpt lat="43.42205142842054" lon="12.728066105826967"><ele>506.4</ele><time>2026-04-26T16:10:16.999Z</time></trkpt><trkpt lat="43.421970036253455" lon="12.727958429175239"><ele>499.6</ele><time>2026-04-26T16:10:17.999Z</time></trkpt><trkpt lat="43.421865330330526" lon="12.727877791500816"><ele>492.8</ele><time>2026-04-26T16:10:18.999Z</time></trkpt><trkpt lat="43.42176945121834" lon="12.727815433587097"><ele>486.0</ele><time>2026-04-26T16:10:19.999Z</time></trkpt><trkpt lat="43.42167383255869" lon="12.72778276475656"><ele>486.0</ele><time>2026-04-26T16:10:20.999Z</time></trkpt><trkpt lat="43.42157597092181" lon="12.727755078709492"><ele>486.0</ele><time>2026-04-26T16:10:21.999Z</time></trkpt><trkpt lat="43.421502604263594" lon="12.727739737524198"><ele>486.0</ele><time>2026-04-26T16:10:22.999Z</time></trkpt><trkpt lat="43.42137581453607" lon="12.727623650899103"><ele>486.0</ele><time>2026-04-26T16:10:24.999Z</time></trkpt><trkpt lat="43.4213236800399" lon="12.727520029919678"><ele>486.0</ele><time>2026-04-26T16:10:25.999Z</time></trkpt><trkpt lat="43.42126592253665" lon="12.727408586396962"><ele>491.20000000000005</ele><time>2026-04-26T16:10:26.999Z</time></trkpt><trkpt lat="43.42124642698541" lon="12.727272236573349"><ele>496.40000000000003</ele><time>2026-04-26T16:10:27.999Z</time></trkpt><trkpt lat="43.42120648400052" lon="12.727124261905496"><ele>501.6</ele><time>2026-04-26T16:10:28.999Z</time></trkpt><trkpt lat="43.42114809796489" lon="12.726989024438618"><ele>506.8</ele><time>2026-04-26T16:10:29.998Z</time></trkpt><trkpt lat="43.42109280434801" lon="12.726850705519098"><ele>512.0</ele><time>2026-04-26T16:10:30.998Z</time></trkpt><trkpt lat="43.4210217488678" lon="12.726726713746219"><ele>514.75</ele><time>2026-04-26T16:10:31.998Z</time></trkpt><trkpt lat="43.421014796337964" lon="12.726573927837846"><ele>517.5</ele><time>2026-04-26T16:10:32.998Z</time></trkpt><trkpt lat="43.421010229229374" lon="12.726399321786191"><ele>520.25</ele><time>2026-04-26T16:10:33.998Z</time></trkpt><trkpt lat="43.42099506115983" lon="12.726203266953705"><ele>523.0</ele><time>2026-04-26T16:10:34.998Z</time></trkpt><trkpt lat="43.42099140552328" lon="12.725991028567377"><ele>523.0</ele><time>2026-04-26T16:10:35.998Z</time></trkpt><trkpt lat="43.42097521894435" lon="12.725818091122804"><ele>523.0</ele><time>2026-04-26T16:10:36.998Z</time></trkpt><trkpt lat="43.420966377850085" lon="12.725658422474817"><ele>523.0</ele><time>2026-04-26T16:10:37.998Z</time></trkpt><trkpt lat="43.42096472659844" lon="12.72549917701743"><ele>523.0</ele><time>2026-04-26T16:10:38.998Z</time></trkpt><trkpt lat="43.42102257882696" lon="12.725372136977008"><ele>523.0</ele><time>2026-04-26T16:10:39.998Z</time></trkpt><trkpt lat="43.42104927494809" lon="12.725246259125111"><ele>523.0</ele><time>2026-04-26T16:10:40.998Z</time></trkpt><trkpt lat="43.421052261322345" lon="12.725101464958554"><ele>523.0</ele><time>2026-04-26T16:10:41.998Z</time></trkpt><trkpt lat="43.421010483613436" lon="12.724963576622175"><ele>523.0</ele><time>2026-04-26T16:10:42.998Z</time></trkpt><trkpt lat="43.420930266615315" lon="12.724830673893809"><ele>523.0</ele><time>2026-04-26T16:10:43.998Z</time></trkpt><trkpt lat="43.42081686142066" lon="12.7247491806636"><ele>550.75</ele><time>2026-04-26T16:10:44.998Z</time></trkpt><trkpt lat="43.420687445794925" lon="12.724715203051923"><ele>578.5</ele><time>2026-04-26T16:10:45.998Z</time></trkpt><trkpt lat="43.42057008879645" lon="12.72465762682552"><ele>606.25</ele><time>2026-04-26T16:10:46.998Z</time></trkpt><trkpt lat="43.420476570594204" lon="12.72456896085454"><ele>634.0</ele><time>2026-04-26T16:10:47.998Z</time></trkpt><trkpt lat="43.42040059186485" lon="12.72448525987299"><ele>634.0</ele><time>2026-04-26T16:10:48.998Z</time></trkpt><trkpt lat="43.42034801455842" lon="12.724402865967287"><ele>634.0</ele><time>2026-04-26T16:10:49.998Z</time></trkpt><trkpt lat="43.42031993409713" lon="12.724290220024315"><ele>634.0</ele><time>2026-04-26T16:10:50.998Z</time></trkpt><trkpt lat="43.42031211666667" lon="12.72416165141661"><ele>634.0</ele><time>2026-04-26T16:10:51.998Z</time></trkpt><trkpt lat="43.42034969445345" lon="12.724019129930499"><ele>634.0</ele><time>2026-04-26T16:10:52.998Z</time></trkpt><trkpt lat="43.42036084975258" lon="12.723850297033843"><ele>613.25</ele><time>2026-04-26T16:10:53.998Z</time></trkpt><trkpt lat="43.420383941998836" lon="12.72367046951006"><ele>592.5</ele><time>2026-04-26T16:10:54.998Z</time></trkpt><trkpt lat="43.42040094126825" lon="12.723482303988739"><ele>571.75</ele><time>2026-04-26T16:10:55.998Z</time></trkpt><trkpt lat="43.420423393311545" lon="12.723296067710486"><ele>551.0</ele><time>2026-04-26T16:10:56.998Z</time></trkpt><trkpt lat="43.42043880091899" lon="12.723149323895905"><ele>550.6</ele><time>2026-04-26T16:10:57.998Z</time></trkpt><trkpt lat="43.42046234878234" lon="12.72304698440206"><ele>550.2</ele><time>2026-04-26T16:10:58.998Z</time></trkpt><trkpt lat="43.420522756071335" lon="12.722977265893624"><ele>549.8</ele><time>2026-04-26T16:10:59.998Z</time></trkpt><trkpt lat="43.42062728689321" lon="12.722894978143044"><ele>549.4</ele><time>2026-04-26T16:11:00.998Z</time></trkpt><trkpt lat="43.420733441891514" lon="12.722767049572466"><ele>549.0</ele><time>2026-04-26T16:11:01.998Z</time></trkpt><trkpt lat="43.42084263501034" lon="12.722638376392803"><ele>540.6666666666666</ele><time>2026-04-26T16:11:02.998Z</time></trkpt><trkpt lat="43.42090022163981" lon="12.72243875689196"><ele>532.3333333333333</ele><time>2026-04-26T16:11:04Z</time></trkpt><trkpt lat="43.4209156033791" lon="12.722205441584036"><ele>524.0</ele><time>2026-04-26T16:11:05Z</time></trkpt><trkpt lat="43.42095423207404" lon="12.721987284752021"><ele>519.0</ele><time>2026-04-26T16:11:06Z</time></trkpt><trkpt lat="43.42104942830905" lon="12.721803311763715"><ele>514.0</ele><time>2026-04-26T16:11:07Z</time></trkpt><trkpt lat="43.42120001638379" lon="12.72166527475572"><ele>509.0</ele><time>2026-04-26T16:11:08Z</time></trkpt><trkpt lat="43.421369297180696" lon="12.721567699684472"><ele>513.3333333333333</ele><time>2026-04-26T16:11:09Z</time></trkpt><trkpt lat="43.421525364996555" lon="12.721429985361695"><ele>517.6666666666666</ele><time>2026-04-26T16:11:10Z</time></trkpt><trkpt lat="43.421640311108355" lon="12.721248865936143"><ele>522.0</ele><time>2026-04-26T16:11:11Z</time></trkpt><trkpt lat="43.42172768464997" lon="12.72106243081054"><ele>522.0</ele><time>2026-04-26T16:11:12Z</time></trkpt><trkpt lat="43.42180160330627" lon="12.720864535002237"><ele>522.0</ele><time>2026-04-26T16:11:13Z</time></trkpt><trkpt lat="43.421846774652614" lon="12.720635247744893"><ele>522.0</ele><time>2026-04-26T16:11:14Z</time></trkpt><trkpt lat="43.42188156911962" lon="12.720399358573468"><ele>518.0</ele><time>2026-04-26T16:11:15Z</time></trkpt><trkpt lat="43.42193355410905" lon="12.720135656035538"><ele>514.0</ele><time>2026-04-26T16:11:16Z</time></trkpt><trkpt lat="43.42197580309111" lon="12.719877823815118"><ele>510.0</ele><time>2026-04-26T16:11:17Z</time></trkpt><trkpt lat="43.421999469175084" lon="12.719613297162006"><ele>507.66666666666663</ele><time>2026-04-26T16:11:18Z</time></trkpt><trkpt lat="43.42201865938173" lon="12.719344190442394"><ele>505.3333333333333</ele><time>2026-04-26T16:11:19Z</time></trkpt><trkpt lat="43.422077383768865" lon="12.719083960051623"><ele>503.0</ele><time>2026-04-26T16:11:20Z</time></trkpt><trkpt lat="43.42213897529939" lon="12.718816499029485"><ele>511.66666666666663</ele><time>2026-04-26T16:11:21Z</time></trkpt><trkpt lat="43.422193812912674" lon="12.718538078343519"><ele>520.3333333333334</ele><time>2026-04-26T16:11:22Z</time></trkpt><trkpt lat="43.422258663340784" lon="12.718270842956214"><ele>529.0</ele><time>2026-04-26T16:11:23Z</time></trkpt><trkpt lat="43.42231334956123" lon="12.718013646447307"><ele>529.0</ele><time>2026-04-26T16:11:24Z</time></trkpt><trkpt lat="43.42239514307049" lon="12.717788616304045"><ele>529.0</ele><time>2026-04-26T16:11:25Z</time></trkpt><trkpt lat="43.42249142072944" lon="12.717596796828635"><ele>529.0</ele><time>2026-04-26T16:11:26Z</time></trkpt><trkpt lat="43.422616147965016" lon="12.717417672204187"><ele>525.0</ele><time>2026-04-26T16:11:27Z</time></trkpt><trkpt lat="43.422770623099694" lon="12.717262524823015"><ele>521.0</ele><time>2026-04-26T16:11:28Z</time></trkpt><trkpt lat="43.42293702759652" lon="12.717103764240587"><ele>517.0</ele><time>2026-04-26T16:11:28.999Z</time></trkpt><trkpt lat="43.4231009550115" lon="12.716928706871917"><ele>516.0</ele><time>2026-04-26T16:11:29.999Z</time></trkpt><trkpt lat="43.42326900694606" lon="12.716768958742191"><ele>515.0</ele><time>2026-04-26T16:11:30.999Z</time></trkpt><trkpt lat="43.423422818688934" lon="12.71660644162215"><ele>514.0</ele><time>2026-04-26T16:11:31.999Z</time></trkpt><trkpt lat="43.42355606613297" lon="12.7164260600724"><ele>514.0</ele><time>2026-04-26T16:11:32.999Z</time></trkpt><trkpt lat="43.42365312761356" lon="12.716215185125744"><ele>514.0</ele><time>2026-04-26T16:11:33.999Z</time></trkpt><trkpt lat="43.42372228421406" lon="12.715982956635527"><ele>514.0</ele><time>2026-04-26T16:11:34.999Z</time></trkpt><trkpt lat="43.42375209635339" lon="12.715753760069806"><ele>515.6</ele><time>2026-04-26T16:11:35.999Z</time></trkpt><trkpt lat="43.423789072783734" lon="12.715571534086045"><ele>517.2</ele><time>2026-04-26T16:11:36.999Z</time></trkpt><trkpt lat="43.42384564089914" lon="12.715440122617364"><ele>518.8000000000001</ele><time>2026-04-26T16:11:37.999Z</time></trkpt><trkpt lat="43.423928606142354" lon="12.715359693382087"><ele>520.4</ele><time>2026-04-26T16:11:38.999Z</time></trkpt><trkpt lat="43.42402706811002" lon="12.715349571658635"><ele>522.0</ele><time>2026-04-26T16:11:39.999Z</time></trkpt><trkpt lat="43.424142394850385" lon="12.715373353265328"><ele>522.0</ele><time>2026-04-26T16:11:40.999Z</time></trkpt><trkpt lat="43.42428999908614" lon="12.715451284575739"><ele>522.0</ele><time>2026-04-26T16:11:41.999Z</time></trkpt><trkpt lat="43.42443370471076" lon="12.715528548078794"><ele>522.0</ele><time>2026-04-26T16:11:42.999Z</time></trkpt><trkpt lat="43.424593607626065" lon="12.715567240594213"><ele>527.0</ele><time>2026-04-26T16:11:43.999Z</time></trkpt><trkpt lat="43.42476768313163" lon="12.715596428169826"><ele>532.0</ele><time>2026-04-26T16:11:44.999Z</time></trkpt><trkpt lat="43.424947483471065" lon="12.715614046996661"><ele>537.0</ele><time>2026-04-26T16:11:45.999Z</time></trkpt><trkpt lat="43.42511588363362" lon="12.715631080344844"><ele>537.0</ele><time>2026-04-26T16:11:46.999Z</time></trkpt><trkpt lat="43.425276433619125" lon="12.715612413682466"><ele>537.0</ele><time>2026-04-26T16:11:47.999Z</time></trkpt><trkpt lat="43.42541821465367" lon="12.715533299387099"><ele>537.0</ele><time>2026-04-26T16:11:48.999Z</time></trkpt><trkpt lat="43.425550213084406" lon="12.71540026445443"><ele>532.6666666666666</ele><time>2026-04-26T16:11:49.999Z</time></trkpt><trkpt lat="43.42567194770667" lon="12.715230407644405"><ele>528.3333333333333</ele><time>2026-04-26T16:11:50.999Z</time></trkpt><trkpt lat="43.42576820043848" lon="12.715042927526104"><ele>524.0</ele><time>2026-04-26T16:11:51.999Z</time></trkpt><trkpt lat="43.425846101072665" lon="12.714873704301501"><ele>524.0</ele><time>2026-04-26T16:11:52.999Z</time></trkpt><trkpt lat="43.42587120239683" lon="12.714695984795966"><ele>524.0</ele><time>2026-04-26T16:11:53.999Z</time></trkpt><trkpt lat="43.425841048564486" lon="12.71451311053066"><ele>524.0</ele><time>2026-04-26T16:11:54.999Z</time></trkpt><trkpt lat="43.425775157615504" lon="12.714322789102287"><ele>524.0</ele><time>2026-04-26T16:11:55.999Z</time></trkpt><trkpt lat="43.42569537532167" lon="12.714126465928173"><ele>524.0</ele><time>2026-04-26T16:11:56.999Z</time></trkpt><trkpt lat="43.4256159280071" lon="12.713918322408352"><ele>524.0</ele><time>2026-04-26T16:11:57.999Z</time></trkpt><trkpt lat="43.425537287306824" lon="12.713703860437043"><ele>524.0</ele><time>2026-04-26T16:11:58.999Z</time></trkpt><trkpt lat="43.425473181727085" lon="12.713500675790776"><ele>525.0</ele><time>2026-04-26T16:11:59.999Z</time></trkpt><trkpt lat="43.42544951630388" lon="12.713307576946487"><ele>526.0</ele><time>2026-04-26T16:12:00.999Z</time></trkpt><trkpt lat="43.425474032105555" lon="12.713091036586478"><ele>527.0</ele><time>2026-04-26T16:12:01.999Z</time></trkpt><trkpt lat="43.4255306775128" lon="12.712881008958531"><ele>525.0</ele><time>2026-04-26T16:12:02.999Z</time></trkpt><trkpt lat="43.42552913012183" lon="12.712680525100836"><ele>523.0</ele><time>2026-04-26T16:12:03.999Z</time></trkpt><trkpt lat="43.42546264595496" lon="12.712457021484616"><ele>521.0</ele><time>2026-04-26T16:12:04.999Z</time></trkpt><trkpt lat="43.4253785336161" lon="12.712259819476415"><ele>521.0</ele><time>2026-04-26T16:12:05.999Z</time></trkpt><trkpt lat="43.425301162448456" lon="12.71212007117984"><ele>521.0</ele><time>2026-04-26T16:12:06.999Z</time></trkpt><trkpt lat="43.42529530388046" lon="12.71194291494473"><ele>521.0</ele><time>2026-04-26T16:12:07.999Z</time></trkpt><trkpt lat="43.42536367328217" lon="12.711649661760527"><ele>521.0</ele><time>2026-04-26T16:12:08.999Z</time></trkpt><trkpt lat="43.42536202016007" lon="12.71144559174474"><ele>521.0</ele><time>2026-04-26T16:12:09.999Z</time></trkpt><trkpt lat="43.42536763120018" lon="12.711238317914674"><ele>521.0</ele><time>2026-04-26T16:12:10.999Z</time></trkpt><trkpt lat="43.425359752031056" lon="12.711051949975813"><ele>521.0</ele><time>2026-04-26T16:12:11.999Z</time></trkpt><trkpt lat="43.4253103890506" lon="12.710886862881939"><ele>521.0</ele><time>2026-04-26T16:12:12.999Z</time></trkpt><trkpt lat="43.425252216243265" lon="12.710768295605096"><ele>521.0</ele><time>2026-04-26T16:12:13.999Z</time></trkpt><trkpt lat="43.425186403515674" lon="12.710661037282009"><ele>521.0</ele><time>2026-04-26T16:12:14.999Z</time></trkpt><trkpt lat="43.425101796206846" lon="12.710596651860326"><ele>521.0</ele><time>2026-04-26T16:12:15.999Z</time></trkpt><trkpt lat="43.42497621419597" lon="12.710565372286705"><ele>521.0</ele><time>2026-04-26T16:12:16.999Z</time></trkpt><trkpt lat="43.42483721201925" lon="12.710498672535332"><ele>521.0</ele><time>2026-04-26T16:12:17.999Z</time></trkpt><trkpt lat="43.42470484808107" lon="12.710427891348422"><ele>521.0</ele><time>2026-04-26T16:12:18.999Z</time></trkpt><trkpt lat="43.4245482303596" lon="12.710338502492215"><ele>521.0</ele><time>2026-04-26T16:12:19.999Z</time></trkpt><trkpt lat="43.42437925160169" lon="12.710254211048994"><ele>523.3333333333333</ele><time>2026-04-26T16:12:20.999Z</time></trkpt><trkpt lat="43.42420537008788" lon="12.710161315376366"><ele>525.6666666666666</ele><time>2026-04-26T16:12:21.999Z</time></trkpt><trkpt lat="43.424047947679426" lon="12.710060841023113"><ele>528.0</ele><time>2026-04-26T16:12:22.999Z</time></trkpt><trkpt lat="43.423904004622614" lon="12.709914284204743"><ele>528.0</ele><time>2026-04-26T16:12:23.999Z</time></trkpt><trkpt lat="43.42382828904886" lon="12.70968710046158"><ele>528.0</ele><time>2026-04-26T16:12:24.999Z</time></trkpt><trkpt lat="43.423760284013696" lon="12.70948323705318"><ele>528.0</ele><time>2026-04-26T16:12:25.999Z</time></trkpt><trkpt lat="43.42374314395933" lon="12.709266232669124"><ele>527.6666666666666</ele><time>2026-04-26T16:12:26.999Z</time></trkpt><trkpt lat="43.42373223358296" lon="12.709039342520525"><ele>527.3333333333333</ele><time>2026-04-26T16:12:27.999Z</time></trkpt><trkpt lat="43.423685635892866" lon="12.708852516458183"><ele>527.0</ele><time>2026-04-26T16:12:28.999Z</time></trkpt><trkpt lat="43.42362777122381" lon="12.70867049464785"><ele>531.3333333333333</ele><time>2026-04-26T16:12:29.999Z</time></trkpt><trkpt lat="43.42352623987933" lon="12.70851104091938"><ele>535.6666666666666</ele><time>2026-04-26T16:12:30.999Z</time></trkpt><trkpt lat="43.42340838051099" lon="12.708355519783412"><ele>540.0</ele><time>2026-04-26T16:12:31.999Z</time></trkpt><trkpt lat="43.42325727486951" lon="12.708235169067795"><ele>540.0</ele><time>2026-04-26T16:12:32.999Z</time></trkpt><trkpt lat="43.42308101714287" lon="12.708171562904196"><ele>540.0</ele><time>2026-04-26T16:12:33.998Z</time></trkpt><trkpt lat="43.42288103656058" lon="12.708128262542342"><ele>540.0</ele><time>2026-04-26T16:12:34.998Z</time></trkpt><trkpt lat="43.422700335623205" lon="12.708023035766297"><ele>537.6666666666666</ele><time>2026-04-26T16:12:35.998Z</time></trkpt><trkpt lat="43.42254190863774" lon="12.707875187717274"><ele>535.3333333333333</ele><time>2026-04-26T16:12:36.998Z</time></trkpt><trkpt lat="43.42240743032835" lon="12.707755038756467"><ele>533.0</ele><time>2026-04-26T16:12:37.998Z</time></trkpt><trkpt lat="43.422291092793735" lon="12.707695249555552"><ele>533.3333333333333</ele><time>2026-04-26T16:12:38.998Z</time></trkpt><trkpt lat="43.42214896297016" lon="12.707689228776655"><ele>533.6666666666666</ele><time>2026-04-26T16:12:39.998Z</time></trkpt><trkpt lat="43.42199314883157" lon="12.707774003110764"><ele>534.0</ele><time>2026-04-26T16:12:40.998Z</time></trkpt><trkpt lat="43.421846865806394" lon="12.707884586042173"><ele>534.0</ele><time>2026-04-26T16:12:41.998Z</time></trkpt><trkpt lat="43.42167723941677" lon="12.707834321373104"><ele>534.0</ele><time>2026-04-26T16:12:42.998Z</time></trkpt><trkpt lat="43.42152737972457" lon="12.707726981163717"><ele>534.0</ele><time>2026-04-26T16:12:43.998Z</time></trkpt><trkpt lat="43.42139700855963" lon="12.707610128563276"><ele>544.3333333333334</ele><time>2026-04-26T16:12:44.998Z</time></trkpt><trkpt lat="43.42127401754413" lon="12.707553335954117"><ele>554.6666666666667</ele><time>2026-04-26T16:12:45.998Z</time></trkpt><trkpt lat="43.42114409564768" lon="12.707555973066741"><ele>565.0</ele><time>2026-04-26T16:12:46.998Z</time></trkpt><trkpt lat="43.42096382747725" lon="12.707650892125121"><ele>555.6666666666667</ele><time>2026-04-26T16:12:47.998Z</time></trkpt><trkpt lat="43.42081527050815" lon="12.70778492674395"><ele>546.3333333333334</ele><time>2026-04-26T16:12:48.998Z</time></trkpt><trkpt lat="43.42067849877631" lon="12.707958612355077"><ele>537.0</ele><time>2026-04-26T16:12:49.998Z</time></trkpt><trkpt lat="43.42055377260275" lon="12.708168844428391"><ele>536.0</ele><time>2026-04-26T16:12:50.998Z</time></trkpt><trkpt lat="43.42043641234132" lon="12.708390324073596"><ele>535.0</ele><time>2026-04-26T16:12:51.998Z</time></trkpt><trkpt lat="43.42027936332534" lon="12.708568286312545"><ele>534.0</ele><time>2026-04-26T16:12:52.998Z</time></trkpt><trkpt lat="43.42009852004468" lon="12.708657406524091"><ele>534.0</ele><time>2026-04-26T16:12:53.998Z</time></trkpt><trkpt lat="43.41995736372491" lon="12.7087113838102"><ele>534.0</ele><time>2026-04-26T16:12:54.998Z</time></trkpt><trkpt lat="43.41981973344483" lon="12.708703846349238"><ele>534.0</ele><time>2026-04-26T16:12:55.998Z</time></trkpt><trkpt lat="43.41973001447118" lon="12.708591589301633"><ele>534.0</ele><time>2026-04-26T16:12:56.998Z</time></trkpt><trkpt lat="43.41961260281664" lon="12.708441926380145"><ele>536.0</ele><time>2026-04-26T16:12:57.998Z</time></trkpt><trkpt lat="43.419505088411015" lon="12.708267201452538"><ele>538.0</ele><time>2026-04-26T16:12:58.998Z</time></trkpt><trkpt lat="43.41942423236582" lon="12.708084367567581"><ele>540.0</ele><time>2026-04-26T16:12:59.998Z</time></trkpt><trkpt lat="43.41932277099733" lon="12.707895152208348"><ele>540.3333333333334</ele><time>2026-04-26T16:13:00.998Z</time></trkpt><trkpt lat="43.41932888852097" lon="12.707623768073343"><ele>540.6666666666667</ele><time>2026-04-26T16:13:01.998Z</time></trkpt><trkpt lat="43.41931569280765" lon="12.707362029188989"><ele>541.0</ele><time>2026-04-26T16:13:02.998Z</time></trkpt><trkpt lat="43.4192891636261" lon="12.707104770064467"><ele>546.6666666666667</ele><time>2026-04-26T16:13:03.998Z</time></trkpt><trkpt lat="43.41919322544028" lon="12.706880381599214"><ele>552.3333333333334</ele><time>2026-04-26T16:13:04.998Z</time></trkpt><trkpt lat="43.41906114361063" lon="12.706676457970644"><ele>558.0</ele><time>2026-04-26T16:13:05.998Z</time></trkpt><trkpt lat="43.41888960793174" lon="12.706513089033495"><ele>553.6666666666666</ele><time>2026-04-26T16:13:06.998Z</time></trkpt><trkpt lat="43.418684325127096" lon="12.706384700285083"><ele>549.3333333333333</ele><time>2026-04-26T16:13:07.998Z</time></trkpt><trkpt lat="43.41847844246813" lon="12.706291275915019"><ele>545.0</ele><time>2026-04-26T16:13:08.998Z</time></trkpt><trkpt lat="43.418290493816876" lon="12.70624440447486"><ele>545.0</ele><time>2026-04-26T16:13:10Z</time></trkpt><trkpt lat="43.41809974004962" lon="12.70626686069468"><ele>545.0</ele><time>2026-04-26T16:13:11Z</time></trkpt><trkpt lat="43.417902551990544" lon="12.70636107558082"><ele>545.0</ele><time>2026-04-26T16:13:12Z</time></trkpt><trkpt lat="43.41770344746915" lon="12.706484979510751"><ele>544.3333333333333</ele><time>2026-04-26T16:13:13Z</time></trkpt><trkpt lat="43.41751940479565" lon="12.706583978775798"><ele>543.6666666666666</ele><time>2026-04-26T16:13:14Z</time></trkpt><trkpt lat="43.41730126604284" lon="12.706657085610079"><ele>543.0</ele><time>2026-04-26T16:13:15Z</time></trkpt><trkpt lat="43.417128655156986" lon="12.7067365461874"><ele>543.0</ele><time>2026-04-26T16:13:16Z</time></trkpt><trkpt lat="43.416992097634036" lon="12.706780709694263"><ele>543.0</ele><time>2026-04-26T16:13:17Z</time></trkpt><trkpt lat="43.41688270749273" lon="12.706816364253951"><ele>543.0</ele><time>2026-04-26T16:13:18Z</time></trkpt><trkpt lat="43.4167496313256" lon="12.706700447672407"><ele>543.0</ele><time>2026-04-26T16:13:19Z</time></trkpt><trkpt lat="43.41662614824072" lon="12.706514089981493"><ele>543.0</ele><time>2026-04-26T16:13:20Z</time></trkpt><trkpt lat="43.41651664785349" lon="12.70634201919507"><ele>543.0</ele><time>2026-04-26T16:13:21Z</time></trkpt><trkpt lat="43.41636843466397" lon="12.706198650319482"><ele>543.0</ele><time>2026-04-26T16:13:22Z</time></trkpt><trkpt lat="43.416222176323764" lon="12.706036059709986"><ele>543.3333333333334</ele><time>2026-04-26T16:13:23Z</time></trkpt><trkpt lat="43.41608434441999" lon="12.705859822336572"><ele>543.6666666666667</ele><time>2026-04-26T16:13:24Z</time></trkpt><trkpt lat="43.415992838046876" lon="12.705631302588342"><ele>544.0</ele><time>2026-04-26T16:13:25Z</time></trkpt><trkpt lat="43.41594102398679" lon="12.705366995699261"><ele>542.6666666666667</ele><time>2026-04-26T16:13:26Z</time></trkpt><trkpt lat="43.415888902505266" lon="12.705158126083166"><ele>541.3333333333334</ele><time>2026-04-26T16:13:27Z</time></trkpt><trkpt lat="43.41586687711895" lon="12.704849679046093"><ele>540.0</ele><time>2026-04-26T16:13:28Z</time></trkpt><trkpt lat="43.41580269419659" lon="12.70453850504918"><ele>542.0</ele><time>2026-04-26T16:13:29Z</time></trkpt><trkpt lat="43.415749345860114" lon="12.704251993998861"><ele>544.0</ele><time>2026-04-26T16:13:30Z</time></trkpt><trkpt lat="43.415702483594224" lon="12.703994437750007"><ele>546.0</ele><time>2026-04-26T16:13:31Z</time></trkpt><trkpt lat="43.41565950396941" lon="12.703767890413175"><ele>547.3333333333334</ele><time>2026-04-26T16:13:31.999Z</time></trkpt><trkpt lat="43.415631640111535" lon="12.703553068910388"><ele>548.6666666666667</ele><time>2026-04-26T16:13:32.999Z</time></trkpt><trkpt lat="43.415634555065616" lon="12.703357864562102"><ele>550.0</ele><time>2026-04-26T16:13:33.999Z</time></trkpt><trkpt lat="43.41569439180868" lon="12.703160433000484"><ele>550.0</ele><time>2026-04-26T16:13:34.999Z</time></trkpt><trkpt lat="43.41579680303694" lon="12.702990676260084"><ele>550.0</ele><time>2026-04-26T16:13:35.999Z</time></trkpt><trkpt lat="43.41592287098923" lon="12.702847334864973"><ele>550.0</ele><time>2026-04-26T16:13:36.999Z</time></trkpt><trkpt lat="43.416056707832816" lon="12.702703149386812"><ele>548.6666666666667</ele><time>2026-04-26T16:13:37.999Z</time></trkpt><trkpt lat="43.41617761467723" lon="12.702527160141116"><ele>547.3333333333334</ele><time>2026-04-26T16:13:38.999Z</time></trkpt><trkpt lat="43.41627089999174" lon="12.702319186994423"><ele>546.0</ele><time>2026-04-26T16:13:39.999Z</time></trkpt><trkpt lat="43.416332554711104" lon="12.702085470785796"><ele>546.3333333333334</ele><time>2026-04-26T16:13:40.999Z</time></trkpt><trkpt lat="43.41636042838989" lon="12.701850987114977"><ele>546.6666666666667</ele><time>2026-04-26T16:13:41.999Z</time></trkpt><trkpt lat="43.41634068802865" lon="12.7016315582868"><ele>547.0</ele><time>2026-04-26T16:13:42.999Z</time></trkpt><trkpt lat="43.41626823497932" lon="12.701420244156209"><ele>547.0</ele><time>2026-04-26T16:13:43.999Z</time></trkpt><trkpt lat="43.41615171390189" lon="12.701225722901055"><ele>547.0</ele><time>2026-04-26T16:13:44.999Z</time></trkpt><trkpt lat="43.41600528902772" lon="12.701059323222559"><ele>547.0</ele><time>2026-04-26T16:13:45.999Z</time></trkpt><trkpt lat="43.41584357424067" lon="12.700908559924402"><ele>547.6666666666667</ele><time>2026-04-26T16:13:46.999Z</time></trkpt><trkpt lat="43.41566658872995" lon="12.700780424712235"><ele>548.3333333333334</ele><time>2026-04-26T16:13:47.999Z</time></trkpt><trkpt lat="43.41547982712165" lon="12.70069455289241"><ele>549.0</ele><time>2026-04-26T16:13:48.999Z</time></trkpt><trkpt lat="43.415299885361506" lon="12.70065086320622"><ele>549.0</ele><time>2026-04-26T16:13:49.999Z</time></trkpt><trkpt lat="43.41514486737978" lon="12.700626331518304"><ele>549.0</ele><time>2026-04-26T16:13:50.999Z</time></trkpt><trkpt lat="43.41502056458325" lon="12.700562172964325"><ele>549.0</ele><time>2026-04-26T16:13:51.999Z</time></trkpt><trkpt lat="43.41493955109081" lon="12.70043595431331"><ele>549.0</ele><time>2026-04-26T16:13:52.999Z</time></trkpt><trkpt lat="43.4148896860546" lon="12.700236625726161"><ele>551.6666666666666</ele><time>2026-04-26T16:13:53.999Z</time></trkpt><trkpt lat="43.41489035133711" lon="12.700025586911991"><ele>554.3333333333333</ele><time>2026-04-26T16:13:54.999Z</time></trkpt><trkpt lat="43.41487724088396" lon="12.699825657777518"><ele>557.0</ele><time>2026-04-26T16:13:55.999Z</time></trkpt><trkpt lat="43.4148513866597" lon="12.699612729227997"><ele>562.3333333333333</ele><time>2026-04-26T16:13:56.999Z</time></trkpt><trkpt lat="43.41480831863108" lon="12.69932493940879"><ele>567.6666666666666</ele><time>2026-04-26T16:13:57.999Z</time></trkpt><trkpt lat="43.414784530479174" lon="12.699066522070758"><ele>573.0</ele><time>2026-04-26T16:13:58.999Z</time></trkpt><trkpt lat="43.414770089268096" lon="12.698818213911512"><ele>569.0</ele><time>2026-04-26T16:13:59.999Z</time></trkpt><trkpt lat="43.41472694772342" lon="12.698576536743147"><ele>565.0</ele><time>2026-04-26T16:14:00.999Z</time></trkpt><trkpt lat="43.41464735798653" lon="12.69833265660127"><ele>561.0</ele><time>2026-04-26T16:14:01.999Z</time></trkpt><trkpt lat="43.414540480447904" lon="12.698092374815937"><ele>561.0</ele><time>2026-04-26T16:14:02.999Z</time></trkpt><trkpt lat="43.41443870893531" lon="12.697849112091905"><ele>561.0</ele><time>2026-04-26T16:14:03.999Z</time></trkpt><trkpt lat="43.4143472386535" lon="12.697590183823952"><ele>561.0</ele><time>2026-04-26T16:14:04.999Z</time></trkpt><trkpt lat="43.41427517106217" lon="12.697322559684926"><ele>562.0</ele><time>2026-04-26T16:14:05.999Z</time></trkpt><trkpt lat="43.414223031541106" lon="12.697046192462063"><ele>563.0</ele><time>2026-04-26T16:14:06.999Z</time></trkpt><trkpt lat="43.41417845296595" lon="12.696770191479578"><ele>564.0</ele><time>2026-04-26T16:14:07.999Z</time></trkpt><trkpt lat="43.41414895026002" lon="12.696496832518559"><ele>564.0</ele><time>2026-04-26T16:14:08.999Z</time></trkpt><trkpt lat="43.41414192140117" lon="12.696209949744524"><ele>564.0</ele><time>2026-04-26T16:14:09.999Z</time></trkpt><trkpt lat="43.41415003700183" lon="12.695922188939393"><ele>564.0</ele><time>2026-04-26T16:14:10.999Z</time></trkpt><trkpt lat="43.414176260822146" lon="12.695625889015288"><ele>563.0</ele><time>2026-04-26T16:14:11.999Z</time></trkpt><trkpt lat="43.414216608074746" lon="12.695342747297557"><ele>562.0</ele><time>2026-04-26T16:14:12.999Z</time></trkpt><trkpt lat="43.41425727055011" lon="12.695071106353193"><ele>561.0</ele><time>2026-04-26T16:14:13.999Z</time></trkpt><trkpt lat="43.4142847722857" lon="12.69480355300382"><ele>561.0</ele><time>2026-04-26T16:14:14.999Z</time></trkpt><trkpt lat="43.414275655937" lon="12.694547119671276"><ele>561.0</ele><time>2026-04-26T16:14:15.999Z</time></trkpt><trkpt lat="43.41423528639161" lon="12.694297107722168"><ele>561.0</ele><time>2026-04-26T16:14:16.999Z</time></trkpt><trkpt lat="43.41416726868879" lon="12.694042385002543"><ele>561.6666666666666</ele><time>2026-04-26T16:14:17.999Z</time></trkpt><trkpt lat="43.41408443007852" lon="12.693781755203974"><ele>562.3333333333333</ele><time>2026-04-26T16:14:18.999Z</time></trkpt><trkpt lat="43.41399874844866" lon="12.693506655184335"><ele>563.0</ele><time>2026-04-26T16:14:19.999Z</time></trkpt><trkpt lat="43.413909974410295" lon="12.693225138986302"><ele>558.0</ele><time>2026-04-26T16:14:20.999Z</time></trkpt><trkpt lat="43.413820923602934" lon="12.692938318836053"><ele>553.0</ele><time>2026-04-26T16:14:21.999Z</time></trkpt><trkpt lat="43.4137300286501" lon="12.692649568359444"><ele>553.0</ele><time>2026-04-26T16:14:22.999Z</time></trkpt><trkpt lat="43.41363982587814" lon="12.692354709417549"><ele>553.0</ele><time>2026-04-26T16:14:23.999Z</time></trkpt><trkpt lat="43.41354611784655" lon="12.69205822691323"><ele>559.0</ele><time>2026-04-26T16:14:24.999Z</time></trkpt><trkpt lat="43.41343069495299" lon="12.691771544052383"><ele>565.0</ele><time>2026-04-26T16:14:25.999Z</time></trkpt><trkpt lat="43.41328016717847" lon="12.691507558131514"><ele>565.0</ele><time>2026-04-26T16:14:26.999Z</time></trkpt><trkpt lat="43.41312342105782" lon="12.691242800192544"><ele>565.0</ele><time>2026-04-26T16:14:27.999Z</time></trkpt><trkpt lat="43.412972827559464" lon="12.690966727709256"><ele>561.0</ele><time>2026-04-26T16:14:28.999Z</time></trkpt><trkpt lat="43.41282794289933" lon="12.690695066518412"><ele>557.0</ele><time>2026-04-26T16:14:29.999Z</time></trkpt><trkpt lat="43.412691520238425" lon="12.690436170927082"><ele>562.0</ele><time>2026-04-26T16:14:30.999Z</time></trkpt><trkpt lat="43.41256356538091" lon="12.690195290131351"><ele>567.0</ele><time>2026-04-26T16:14:31.999Z</time></trkpt><trkpt lat="43.412452365090836" lon="12.689972226315389"><ele>572.0</ele><time>2026-04-26T16:14:32.999Z</time></trkpt><trkpt lat="43.41235851331475" lon="12.689751024136253"><ele>572.0</ele><time>2026-04-26T16:14:33.999Z</time></trkpt><trkpt lat="43.412294033283665" lon="12.68952206267325"><ele>572.0</ele><time>2026-04-26T16:14:34.999Z</time></trkpt><trkpt lat="43.41226556169524" lon="12.689272546569368"><ele>572.0</ele><time>2026-04-26T16:14:35.998Z</time></trkpt><trkpt lat="43.41221953871614" lon="12.68898915740838"><ele>569.3333333333333</ele><time>2026-04-26T16:14:36.998Z</time></trkpt><trkpt lat="43.41217548270573" lon="12.688708286965559"><ele>566.6666666666666</ele><time>2026-04-26T16:14:37.998Z</time></trkpt><trkpt lat="43.41211023840917" lon="12.688427109655297"><ele>564.0</ele><time>2026-04-26T16:14:38.998Z</time></trkpt><trkpt lat="43.41204069301282" lon="12.68815006162804"><ele>564.0</ele><time>2026-04-26T16:14:39.998Z</time></trkpt><trkpt lat="43.41197477836305" lon="12.687869923142662"><ele>564.0</ele><time>2026-04-26T16:14:40.998Z</time></trkpt><trkpt lat="43.41191806561657" lon="12.68758150408064"><ele>564.0</ele><time>2026-04-26T16:14:41.998Z</time></trkpt><trkpt lat="43.41185071450332" lon="12.687298935563472"><ele>564.3333333333334</ele><time>2026-04-26T16:14:42.998Z</time></trkpt><trkpt lat="43.41176438918087" lon="12.687025550989153"><ele>564.6666666666667</ele><time>2026-04-26T16:14:43.998Z</time></trkpt><trkpt lat="43.41169140914584" lon="12.686759149713769"><ele>565.0</ele><time>2026-04-26T16:14:44.998Z</time></trkpt><trkpt lat="43.411665606965016" lon="12.686477790792445"><ele>568.0</ele><time>2026-04-26T16:14:45.998Z</time></trkpt><trkpt lat="43.411633395415684" lon="12.68621492599059"><ele>571.0</ele><time>2026-04-26T16:14:46.998Z</time></trkpt><trkpt lat="43.41161651049269" lon="12.685990059390836"><ele>574.0</ele><time>2026-04-26T16:14:47.998Z</time></trkpt><trkpt lat="43.411576524847625" lon="12.68580070331476"><ele>573.3333333333334</ele><time>2026-04-26T16:14:48.998Z</time></trkpt><trkpt lat="43.4114734503454" lon="12.685645233135961"><ele>572.6666666666666</ele><time>2026-04-26T16:14:49.998Z</time></trkpt><trkpt lat="43.41131880631374" lon="12.685522916301768"><ele>572.0</ele><time>2026-04-26T16:14:50.998Z</time></trkpt><trkpt lat="43.41113945951534" lon="12.685439451802"><ele>572.0</ele><time>2026-04-26T16:14:51.998Z</time></trkpt><trkpt lat="43.410957848752425" lon="12.685365281251192"><ele>572.0</ele><time>2026-04-26T16:14:52.998Z</time></trkpt><trkpt lat="43.410785928028865" lon="12.685266020189008"><ele>572.0</ele><time>2026-04-26T16:14:53.998Z</time></trkpt><trkpt lat="43.410641187051496" lon="12.685115362085137"><ele>572.6666666666666</ele><time>2026-04-26T16:14:54.998Z</time></trkpt><trkpt lat="43.41051667450352" lon="12.684888067604884"><ele>573.3333333333334</ele><time>2026-04-26T16:14:55.998Z</time></trkpt><trkpt lat="43.410393966037766" lon="12.68465062656235"><ele>574.0</ele><time>2026-04-26T16:14:56.998Z</time></trkpt><trkpt lat="43.410308427838004" lon="12.684415307890735"><ele>572.3333333333334</ele><time>2026-04-26T16:14:57.998Z</time></trkpt><trkpt lat="43.41020281571462" lon="12.684221813682653"><ele>570.6666666666666</ele><time>2026-04-26T16:14:58.998Z</time></trkpt><trkpt lat="43.41008474965554" lon="12.684055839925051"><ele>569.0</ele><time>2026-04-26T16:14:59.998Z</time></trkpt><trkpt lat="43.409949681651845" lon="12.683925998529572"><ele>569.0</ele><time>2026-04-26T16:15:00.998Z</time></trkpt><trkpt lat="43.40984171732148" lon="12.683797330434782"><ele>569.0</ele><time>2026-04-26T16:15:01.998Z</time></trkpt><trkpt lat="43.409779974951924" lon="12.683624519722114"><ele>569.0</ele><time>2026-04-26T16:15:02.998Z</time></trkpt><trkpt lat="43.40970668955593" lon="12.683473852085955"><ele>569.0</ele><time>2026-04-26T16:15:03.998Z</time></trkpt><trkpt lat="43.40965503457379" lon="12.683324372086119"><ele>568.4</ele><time>2026-04-26T16:15:04.998Z</time></trkpt><trkpt lat="43.409606001932836" lon="12.683193611220526"><ele>567.8</ele><time>2026-04-26T16:15:05.998Z</time></trkpt><trkpt lat="43.40954904351336" lon="12.683074444843749"><ele>567.2</ele><time>2026-04-26T16:15:06.998Z</time></trkpt><trkpt lat="43.409481641415475" lon="12.682957189304993"><ele>566.6</ele><time>2026-04-26T16:15:07.998Z</time></trkpt><trkpt lat="43.409415906494" lon="12.682836846333991"><ele>566.0</ele><time>2026-04-26T16:15:08.998Z</time></trkpt><trkpt lat="43.409349031393305" lon="12.682717749868392"><ele>566.0</ele><time>2026-04-26T16:15:09.998Z</time></trkpt><trkpt lat="43.40927869329975" lon="12.682603119287421"><ele>566.0</ele><time>2026-04-26T16:15:10.998Z</time></trkpt><trkpt lat="43.40921089492922" lon="12.682488589607276"><ele>566.0</ele><time>2026-04-26T16:15:11.998Z</time></trkpt><trkpt lat="43.40915275699418" lon="12.682367617094213"><ele>566.0</ele><time>2026-04-26T16:15:12.998Z</time></trkpt><trkpt lat="43.409103940942316" lon="12.682254426262993"><ele>566.0</ele><time>2026-04-26T16:15:13.998Z</time></trkpt><trkpt lat="43.40907277805941" lon="12.682131966075003"><ele>566.0</ele><time>2026-04-26T16:15:14.998Z</time></trkpt><trkpt lat="43.40903465213164" lon="12.681998093039068"><ele>566.0</ele><time>2026-04-26T16:15:16Z</time></trkpt><trkpt lat="43.408956411436954" lon="12.681883235192728"><ele>566.0</ele><time>2026-04-26T16:15:17Z</time></trkpt><trkpt lat="43.408876819192955" lon="12.68178491455004"><ele>566.0</ele><time>2026-04-26T16:15:18Z</time></trkpt><trkpt lat="43.4088137482687" lon="12.681681168701639"><ele>566.0</ele><time>2026-04-26T16:15:19Z</time></trkpt><trkpt lat="43.40875730793524" lon="12.681574434209718"><ele>566.0</ele><time>2026-04-26T16:15:20Z</time></trkpt><trkpt lat="43.40870035579417" lon="12.681472537448695"><ele>566.0</ele><time>2026-04-26T16:15:21Z</time></trkpt><trkpt lat="43.408645139298116" lon="12.681377820536845"><ele>566.0</ele><time>2026-04-26T16:15:22Z</time></trkpt><trkpt lat="43.40859145168852" lon="12.681280296187959"><ele>566.0</ele><time>2026-04-26T16:15:23Z</time></trkpt><trkpt lat="43.40853635246889" lon="12.681185122052097"><ele>566.0</ele><time>2026-04-26T16:15:24Z</time></trkpt><trkpt lat="43.40848868981534" lon="12.681085436705425"><ele>566.0</ele><time>2026-04-26T16:15:25Z</time></trkpt><trkpt lat="43.40843257387224" lon="12.680992637994144"><ele>567.2</ele><time>2026-04-26T16:15:26Z</time></trkpt><trkpt lat="43.40837933161319" lon="12.6808976016803"><ele>568.4000000000001</ele><time>2026-04-26T16:15:27Z</time></trkpt><trkpt lat="43.40833916273155" lon="12.680787982817083"><ele>569.6</ele><time>2026-04-26T16:15:28Z</time></trkpt><trkpt lat="43.40828814609928" lon="12.68067664400192"><ele>570.8000000000001</ele><time>2026-04-26T16:15:29Z</time></trkpt><trkpt lat="43.40824375290856" lon="12.680568378936115"><ele>572.0</ele><time>2026-04-26T16:15:30Z</time></trkpt><trkpt lat="43.40819668145178" lon="12.680460295017564"><ele>572.0</ele><time>2026-04-26T16:15:31Z</time></trkpt><trkpt lat="43.40815292448819" lon="12.680349131613129"><ele>572.0</ele><time>2026-04-26T16:15:32Z</time></trkpt><trkpt lat="43.40811390131668" lon="12.680225410140375"><ele>572.0</ele><time>2026-04-26T16:15:33Z</time></trkpt><trkpt lat="43.408074196689356" lon="12.680099424866922"><ele>572.0</ele><time>2026-04-26T16:15:34Z</time></trkpt><trkpt lat="43.40802891549014" lon="12.679972791216858"><ele>572.0</ele><time>2026-04-26T16:15:35Z</time></trkpt><trkpt lat="43.40798557701729" lon="12.679841984794695"><ele>572.0</ele><time>2026-04-26T16:15:36Z</time></trkpt><trkpt lat="43.4079366991215" lon="12.679707323631453"><ele>572.0</ele><time>2026-04-26T16:15:36.999Z</time></trkpt><trkpt lat="43.40788484793591" lon="12.679567791721169"><ele>572.0</ele><time>2026-04-26T16:15:37.999Z</time></trkpt><trkpt lat="43.40783749072446" lon="12.679421050514442"><ele>572.0</ele><time>2026-04-26T16:15:38.999Z</time></trkpt><trkpt lat="43.40777984852749" lon="12.679265378367866"><ele>572.0</ele><time>2026-04-26T16:15:39.999Z</time></trkpt><trkpt lat="43.407703314326234" lon="12.679102582165285"><ele>572.0</ele><time>2026-04-26T16:15:40.999Z</time></trkpt><trkpt lat="43.40761577343983" lon="12.67892684885362"><ele>572.0</ele><time>2026-04-26T16:15:41.999Z</time></trkpt><trkpt lat="43.40752357024135" lon="12.678733136566684"><ele>577.0</ele><time>2026-04-26T16:15:42.999Z</time></trkpt><trkpt lat="43.4074295163888" lon="12.678529634866731"><ele>582.0</ele><time>2026-04-26T16:15:43.999Z</time></trkpt><trkpt lat="43.40732797808936" lon="12.678321601608026"><ele>587.0</ele><time>2026-04-26T16:15:44.999Z</time></trkpt><trkpt lat="43.40722576382742" lon="12.678103487428915"><ele>585.0</ele><time>2026-04-26T16:15:45.999Z</time></trkpt><trkpt lat="43.407118344482306" lon="12.67787765706577"><ele>583.0</ele><time>2026-04-26T16:15:46.999Z</time></trkpt><trkpt lat="43.407008941683166" lon="12.677645447339122"><ele>581.0</ele><time>2026-04-26T16:15:47.999Z</time></trkpt><trkpt lat="43.40689644450901" lon="12.677417241204441"><ele>581.6666666666666</ele><time>2026-04-26T16:15:48.999Z</time></trkpt><trkpt lat="43.406790063866616" lon="12.677209336721996"><ele>582.3333333333334</ele><time>2026-04-26T16:15:49.999Z</time></trkpt><trkpt lat="43.40669679487354" lon="12.676980940003943"><ele>583.0</ele><time>2026-04-26T16:15:50.999Z</time></trkpt><trkpt lat="43.406631643159194" lon="12.676717791495223"><ele>583.0</ele><time>2026-04-26T16:15:51.999Z</time></trkpt><trkpt lat="43.406583722541335" lon="12.676436780510313"><ele>583.0</ele><time>2026-04-26T16:15:52.999Z</time></trkpt><trkpt lat="43.40653877323729" lon="12.676141122054512"><ele>583.0</ele><time>2026-04-26T16:15:53.999Z</time></trkpt><trkpt lat="43.40647227509628" lon="12.675849659608328"><ele>580.0</ele><time>2026-04-26T16:15:54.999Z</time></trkpt><trkpt lat="43.40640071525235" lon="12.675551661150513"><ele>577.0</ele><time>2026-04-26T16:15:55.999Z</time></trkpt><trkpt lat="43.40631856361799" lon="12.675254745897151"><ele>577.0</ele><time>2026-04-26T16:15:56.999Z</time></trkpt><trkpt lat="43.40623306472728" lon="12.674959824404006"><ele>577.0</ele><time>2026-04-26T16:15:57.999Z</time></trkpt><trkpt lat="43.40614122402238" lon="12.674657517345178"><ele>579.0</ele><time>2026-04-26T16:15:58.999Z</time></trkpt><trkpt lat="43.406023100943614" lon="12.674365808331606"><ele>581.0</ele><time>2026-04-26T16:15:59.999Z</time></trkpt><trkpt lat="43.405884780217235" lon="12.674085822864878"><ele>581.0</ele><time>2026-04-26T16:16:00.999Z</time></trkpt><trkpt lat="43.40574235518085" lon="12.673803836919491"><ele>581.0</ele><time>2026-04-26T16:16:01.999Z</time></trkpt><trkpt lat="43.405604479281735" lon="12.673520048945305"><ele>580.5</ele><time>2026-04-26T16:16:02.999Z</time></trkpt><trkpt lat="43.40546908213899" lon="12.673242783928476"><ele>580.0</ele><time>2026-04-26T16:16:03.999Z</time></trkpt><trkpt lat="43.40533244860095" lon="12.672968770224363"><ele>581.5</ele><time>2026-04-26T16:16:04.999Z</time></trkpt><trkpt lat="43.40519687412659" lon="12.67269757542385"><ele>583.0</ele><time>2026-04-26T16:16:05.999Z</time></trkpt><trkpt lat="43.4050645380905" lon="12.672424616348465"><ele>583.0</ele><time>2026-04-26T16:16:06.999Z</time></trkpt><trkpt lat="43.40493027740955" lon="12.672151353365868"><ele>583.0</ele><time>2026-04-26T16:16:07.999Z</time></trkpt><trkpt lat="43.404794235007124" lon="12.671879016567214"><ele>586.5</ele><time>2026-04-26T16:16:08.999Z</time></trkpt><trkpt lat="43.404660430802494" lon="12.671612522450447"><ele>590.0</ele><time>2026-04-26T16:16:09.999Z</time></trkpt><trkpt lat="43.40452843175506" lon="12.671364568181128"><ele>590.0</ele><time>2026-04-26T16:16:10.999Z</time></trkpt><trkpt lat="43.40439721088286" lon="12.67113304281415"><ele>590.0</ele><time>2026-04-26T16:16:11.999Z</time></trkpt><trkpt lat="43.40427002026158" lon="12.670919321627713"><ele>590.0</ele><time>2026-04-26T16:16:12.999Z</time></trkpt><trkpt lat="43.404150399985845" lon="12.670723127135771"><ele>588.6666666666666</ele><time>2026-04-26T16:16:13.999Z</time></trkpt><trkpt lat="43.4040382368135" lon="12.670538339176652"><ele>587.3333333333334</ele><time>2026-04-26T16:16:14.999Z</time></trkpt><trkpt lat="43.403937428173045" lon="12.670362929668196"><ele>586.0</ele><time>2026-04-26T16:16:15.999Z</time></trkpt><trkpt lat="43.40383685823273" lon="12.670198808460059"><ele>585.25</ele><time>2026-04-26T16:16:16.999Z</time></trkpt><trkpt lat="43.403723361167195" lon="12.670057200338723"><ele>584.5</ele><time>2026-04-26T16:16:17.999Z</time></trkpt><trkpt lat="43.40360858452993" lon="12.669936357195835"><ele>583.75</ele><time>2026-04-26T16:16:18.999Z</time></trkpt><trkpt lat="43.40350981296837" lon="12.669832603504666"><ele>583.0</ele><time>2026-04-26T16:16:19.999Z</time></trkpt><trkpt lat="43.40342507156256" lon="12.66974982247411"><ele>583.0</ele><time>2026-04-26T16:16:20.999Z</time></trkpt><trkpt lat="43.40333169555612" lon="12.669690181888512"><ele>583.0</ele><time>2026-04-26T16:16:21.999Z</time></trkpt><trkpt lat="43.403215294835526" lon="12.669670490291981"><ele>583.0</ele><time>2026-04-26T16:16:22.999Z</time></trkpt><trkpt lat="43.40307888062495" lon="12.669683816802985"><ele>583.0</ele><time>2026-04-26T16:16:23.999Z</time></trkpt><trkpt lat="43.40293187469142" lon="12.669705054846679"><ele>583.25</ele><time>2026-04-26T16:16:24.999Z</time></trkpt><trkpt lat="43.40277560869081" lon="12.669719101160066"><ele>583.5</ele><time>2026-04-26T16:16:25.999Z</time></trkpt><trkpt lat="43.40262448028606" lon="12.669736141118792"><ele>583.75</ele><time>2026-04-26T16:16:26.999Z</time></trkpt><trkpt lat="43.40249038906959" lon="12.669759754212865"><ele>584.0</ele><time>2026-04-26T16:16:27.999Z</time></trkpt><trkpt lat="43.402367688790555" lon="12.669775443963541"><ele>584.0</ele><time>2026-04-26T16:16:28.999Z</time></trkpt><trkpt lat="43.402259885122106" lon="12.66979272258484"><ele>584.0</ele><time>2026-04-26T16:16:29.999Z</time></trkpt><trkpt lat="43.40216902536539" lon="12.669806457078815"><ele>584.0</ele><time>2026-04-26T16:16:30.999Z</time></trkpt><trkpt lat="43.40209204908413" lon="12.66978578499097"><ele>584.0</ele><time>2026-04-26T16:16:31.999Z</time></trkpt><trkpt lat="43.402041815457636" lon="12.669725650183377"><ele>584.0</ele><time>2026-04-26T16:16:32.999Z</time></trkpt><trkpt lat="43.401988763254735" lon="12.669610556764702"><ele>584.0</ele><time>2026-04-26T16:16:34.999Z</time></trkpt><trkpt lat="43.402132634968424" lon="12.669454939260813"><ele>582.5</ele><time>2026-04-26T16:16:35.999Z</time></trkpt><trkpt lat="43.40220727366725" lon="12.669325278951195"><ele>581.0</ele><time>2026-04-26T16:16:36.999Z</time></trkpt><trkpt lat="43.402288924457146" lon="12.669177316403436"><ele>579.5</ele><time>2026-04-26T16:16:37.999Z</time></trkpt><trkpt lat="43.40236871344427" lon="12.668996865848014"><ele>578.0</ele><time>2026-04-26T16:16:38.999Z</time></trkpt><trkpt lat="43.40247087522897" lon="12.66881533749921"><ele>578.0</ele><time>2026-04-26T16:16:39.998Z</time></trkpt><trkpt lat="43.40257591697291" lon="12.668615844112457"><ele>578.0</ele><time>2026-04-26T16:16:40.998Z</time></trkpt><trkpt lat="43.402680396375175" lon="12.668423868851542"><ele>578.0</ele><time>2026-04-26T16:16:41.998Z</time></trkpt><trkpt lat="43.40277648914508" lon="12.668249445185255"><ele>577.75</ele><time>2026-04-26T16:16:42.998Z</time></trkpt><trkpt lat="43.40285587355327" lon="12.668081352448047"><ele>577.5</ele><time>2026-04-26T16:16:43.998Z</time></trkpt><trkpt lat="43.402912210241496" lon="12.66790594168564"><ele>577.25</ele><time>2026-04-26T16:16:44.998Z</time></trkpt><trkpt lat="43.40294363166901" lon="12.667704124416861"><ele>577.0</ele><time>2026-04-26T16:16:45.998Z</time></trkpt><trkpt lat="43.40295818838015" lon="12.667485384031258"><ele>578.3333333333334</ele><time>2026-04-26T16:16:46.998Z</time></trkpt><trkpt lat="43.402958657699465" lon="12.667255980366722"><ele>579.6666666666666</ele><time>2026-04-26T16:16:47.998Z</time></trkpt><trkpt lat="43.40295750301505" lon="12.667045358446831"><ele>581.0</ele><time>2026-04-26T16:16:48.998Z</time></trkpt><trkpt lat="43.402956121375865" lon="12.666865361361047"><ele>581.75</ele><time>2026-04-26T16:16:49.998Z</time></trkpt><trkpt lat="43.40295129214215" lon="12.666711577319072"><ele>582.5</ele><time>2026-04-26T16:16:50.998Z</time></trkpt><trkpt lat="43.40296034901961" lon="12.666554140234044"><ele>583.25</ele><time>2026-04-26T16:16:51.998Z</time></trkpt><trkpt lat="43.402859120380555" lon="12.666384635471962"><ele>584.0</ele><time>2026-04-26T16:16:52.998Z</time></trkpt><trkpt lat="43.40279768255336" lon="12.66620308270425"><ele>584.0</ele><time>2026-04-26T16:16:53.998Z</time></trkpt><trkpt lat="43.402740298542064" lon="12.66600047091069"><ele>584.0</ele><time>2026-04-26T16:16:54.998Z</time></trkpt><trkpt lat="43.402691889086036" lon="12.665771280520174"><ele>584.0</ele><time>2026-04-26T16:16:55.998Z</time></trkpt><trkpt lat="43.402658748153165" lon="12.66551548063804"><ele>584.6666666666666</ele><time>2026-04-26T16:16:56.998Z</time></trkpt><trkpt lat="43.40262384611728" lon="12.6652445838634"><ele>585.3333333333334</ele><time>2026-04-26T16:16:57.998Z</time></trkpt><trkpt lat="43.40258924882379" lon="12.664961682501447"><ele>586.0</ele><time>2026-04-26T16:16:58.998Z</time></trkpt><trkpt lat="43.402557639498156" lon="12.66466737711784"><ele>586.3333333333334</ele><time>2026-04-26T16:16:59.998Z</time></trkpt><trkpt lat="43.40252575101342" lon="12.664363874441685"><ele>586.6666666666666</ele><time>2026-04-26T16:17:00.998Z</time></trkpt><trkpt lat="43.402494184593564" lon="12.664056422083368"><ele>587.0</ele><time>2026-04-26T16:17:01.998Z</time></trkpt><trkpt lat="43.402463891119126" lon="12.663748270831206"><ele>586.0</ele><time>2026-04-26T16:17:02.998Z</time></trkpt><trkpt lat="43.402456805514774" lon="12.663435609226104"><ele>585.0</ele><time>2026-04-26T16:17:03.998Z</time></trkpt><trkpt lat="43.4024515500439" lon="12.66312002160388"><ele>585.0</ele><time>2026-04-26T16:17:04.998Z</time></trkpt><trkpt lat="43.40246127469162" lon="12.662795722171984"><ele>585.0</ele><time>2026-04-26T16:17:05.998Z</time></trkpt><trkpt lat="43.40247767082198" lon="12.662463948568865"><ele>585.5</ele><time>2026-04-26T16:17:06.998Z</time></trkpt><trkpt lat="43.40249532936133" lon="12.662127008202576"><ele>586.0</ele><time>2026-04-26T16:17:07.998Z</time></trkpt><trkpt lat="43.40251441440931" lon="12.661783229751768"><ele>586.5</ele><time>2026-04-26T16:17:08.998Z</time></trkpt><trkpt lat="43.402534133078404" lon="12.66143465966382"><ele>587.0</ele><time>2026-04-26T16:17:09.998Z</time></trkpt><trkpt lat="43.40255436217552" lon="12.661079313820506"><ele>587.0</ele><time>2026-04-26T16:17:10.998Z</time></trkpt><trkpt lat="43.402574841204455" lon="12.660719577655964"><ele>587.0</ele><time>2026-04-26T16:17:11.998Z</time></trkpt><trkpt lat="43.40258065536422" lon="12.660353267713086"><ele>588.0</ele><time>2026-04-26T16:17:12.998Z</time></trkpt><trkpt lat="43.40260246346217" lon="12.659986103093496"><ele>589.0</ele><time>2026-04-26T16:17:13.998Z</time></trkpt><trkpt lat="43.40262482770047" lon="12.659626147919017"><ele>589.5</ele><time>2026-04-26T16:17:14.998Z</time></trkpt><trkpt lat="43.402646189624576" lon="12.659292041352476"><ele>590.0</ele><time>2026-04-26T16:17:15.998Z</time></trkpt><trkpt lat="43.4026666565557" lon="12.65898295713094"><ele>590.0</ele><time>2026-04-26T16:17:16.998Z</time></trkpt><trkpt lat="43.40268651404532" lon="12.658695187825613"><ele>590.0</ele><time>2026-04-26T16:17:17.998Z</time></trkpt><trkpt lat="43.4027016999418" lon="12.658435932896415"><ele>590.0</ele><time>2026-04-26T16:17:18.998Z</time></trkpt><trkpt lat="43.4027134907249" lon="12.65819875434397"><ele>589.6666666666666</ele><time>2026-04-26T16:17:19.998Z</time></trkpt><trkpt lat="43.40274058479544" lon="12.657971126619165"><ele>589.3333333333334</ele><time>2026-04-26T16:17:20.998Z</time></trkpt><trkpt lat="43.4027423878186" lon="12.657748609563788"><ele>589.0</ele><time>2026-04-26T16:17:22Z</time></trkpt><trkpt lat="43.40271349796679" lon="12.657540737344181"><ele>589.0</ele><time>2026-04-26T16:17:23Z</time></trkpt><trkpt lat="43.40268459671594" lon="12.657346938055538"><ele>589.0</ele><time>2026-04-26T16:17:24Z</time></trkpt><trkpt lat="43.40265295463639" lon="12.657165337319"><ele>589.0</ele><time>2026-04-26T16:17:25Z</time></trkpt><trkpt lat="43.4026363198056" lon="12.656980615221878"><ele>589.0</ele><time>2026-04-26T16:17:26Z</time></trkpt><trkpt lat="43.40264692540252" lon="12.656791403729544"><ele>589.5</ele><time>2026-04-26T16:17:27Z</time></trkpt><trkpt lat="43.40267925592519" lon="12.656609191898697"><ele>590.0</ele><time>2026-04-26T16:17:28Z</time></trkpt><trkpt lat="43.40272383689019" lon="12.65643441540123"><ele>590.5</ele><time>2026-04-26T16:17:29Z</time></trkpt><trkpt lat="43.402773566739924" lon="12.656271243804035"><ele>591.0</ele><time>2026-04-26T16:17:30Z</time></trkpt><trkpt lat="43.40282143303922" lon="12.656111105736164"><ele>590.0</ele><time>2026-04-26T16:17:31Z</time></trkpt><trkpt lat="43.40286074808048" lon="12.65595618416875"><ele>589.0</ele><time>2026-04-26T16:17:32Z</time></trkpt><trkpt lat="43.40288673221551" lon="12.65577471103189"><ele>588.0</ele><time>2026-04-26T16:17:33Z</time></trkpt><trkpt lat="43.402882417497025" lon="12.655577238257326"><ele>587.0</ele><time>2026-04-26T16:17:34Z</time></trkpt><trkpt lat="43.402821334606294" lon="12.655369537129141"><ele>588.0</ele><time>2026-04-26T16:17:35Z</time></trkpt><trkpt lat="43.402719816916495" lon="12.655176215936192"><ele>589.0</ele><time>2026-04-26T16:17:36Z</time></trkpt><trkpt lat="43.40259443091968" lon="12.654991188955758"><ele>590.0</ele><time>2026-04-26T16:17:37Z</time></trkpt><trkpt lat="43.4024857871858" lon="12.654775846145904"><ele>590.0</ele><time>2026-04-26T16:17:38Z</time></trkpt><trkpt lat="43.402360078730915" lon="12.654560970416759"><ele>590.0</ele><time>2026-04-26T16:17:38.999Z</time></trkpt><trkpt lat="43.40223982863512" lon="12.654329598544862"><ele>590.0</ele><time>2026-04-26T16:17:39.999Z</time></trkpt><trkpt lat="43.402131138236875" lon="12.654074693811026"><ele>589.3333333333333</ele><time>2026-04-26T16:17:40.999Z</time></trkpt><trkpt lat="43.40202682686043" lon="12.653805890233292"><ele>588.6666666666666</ele><time>2026-04-26T16:17:41.999Z</time></trkpt><trkpt lat="43.40192206024858" lon="12.65352780503823"><ele>588.0</ele><time>2026-04-26T16:17:42.999Z</time></trkpt><trkpt lat="43.40181502961127" lon="12.653242292823679"><ele>590.5</ele><time>2026-04-26T16:17:43.999Z</time></trkpt><trkpt lat="43.40170503779909" lon="12.652952491411405"><ele>593.0</ele><time>2026-04-26T16:17:44.999Z</time></trkpt><trkpt lat="43.40159674227169" lon="12.652667182211456"><ele>596.5</ele><time>2026-04-26T16:17:45.999Z</time></trkpt><trkpt lat="43.401490612422506" lon="12.652381153816851"><ele>600.0</ele><time>2026-04-26T16:17:46.999Z</time></trkpt><trkpt lat="43.40137885047987" lon="12.65210178127668"><ele>597.5</ele><time>2026-04-26T16:17:47.999Z</time></trkpt><trkpt lat="43.401241617587665" lon="12.651848065271738"><ele>595.0</ele><time>2026-04-26T16:17:48.999Z</time></trkpt><trkpt lat="43.40108938898075" lon="12.651601614045251"><ele>595.0</ele><time>2026-04-26T16:17:49.999Z</time></trkpt><trkpt lat="43.40091870174505" lon="12.651370281180236"><ele>595.0</ele><time>2026-04-26T16:17:50.999Z</time></trkpt><trkpt lat="43.400729942007935" lon="12.651156881671206"><ele>598.0</ele><time>2026-04-26T16:17:51.999Z</time></trkpt><trkpt lat="43.40052595474809" lon="12.650965719236481"><ele>601.0</ele><time>2026-04-26T16:17:52.999Z</time></trkpt><trkpt lat="43.40030845936872" lon="12.650797384510055"><ele>601.0</ele><time>2026-04-26T16:17:53.999Z</time></trkpt><trkpt lat="43.40009149991973" lon="12.650628789697008"><ele>601.0</ele><time>2026-04-26T16:17:54.999Z</time></trkpt><trkpt lat="43.39988295759468" lon="12.65043392199061"><ele>602.5</ele><time>2026-04-26T16:17:56Z</time></trkpt><trkpt lat="43.399680736652975" lon="12.650221461026907"><ele>604.0</ele><time>2026-04-26T16:17:57Z</time></trkpt><trkpt lat="43.399482486147136" lon="12.650004155153379"><ele>604.0</ele><time>2026-04-26T16:17:58Z</time></trkpt><trkpt lat="43.399306870507544" lon="12.649765489970157"><ele>604.0</ele><time>2026-04-26T16:17:59Z</time></trkpt><trkpt lat="43.399122795174755" lon="12.649556035552584"><ele>604.3333333333334</ele><time>2026-04-26T16:18:00Z</time></trkpt><trkpt lat="43.39897687089189" lon="12.649350483466241"><ele>604.6666666666666</ele><time>2026-04-26T16:18:01Z</time></trkpt><trkpt lat="43.39886861401286" lon="12.649158084388603"><ele>605.0</ele><time>2026-04-26T16:18:02Z</time></trkpt><trkpt lat="43.39880091658598" lon="12.648930318002833"><ele>605.0</ele><time>2026-04-26T16:18:03Z</time></trkpt><trkpt lat="43.398748827596485" lon="12.648685089591675"><ele>605.0</ele><time>2026-04-26T16:18:04Z</time></trkpt><trkpt lat="43.398719812656005" lon="12.648428200747675"><ele>605.0</ele><time>2026-04-26T16:18:05Z</time></trkpt><trkpt lat="43.398684280823524" lon="12.648162175659174"><ele>608.6666666666666</ele><time>2026-04-26T16:18:06Z</time></trkpt><trkpt lat="43.39865024307727" lon="12.64789160740952"><ele>612.3333333333334</ele><time>2026-04-26T16:18:07Z</time></trkpt><trkpt lat="43.39854172375674" lon="12.64763899502069"><ele>616.0</ele><time>2026-04-26T16:18:08Z</time></trkpt><trkpt lat="43.398434195353985" lon="12.647375524558178"><ele>619.0</ele><time>2026-04-26T16:18:09Z</time></trkpt><trkpt lat="43.39832132675738" lon="12.64710609441689"><ele>622.0</ele><time>2026-04-26T16:18:10Z</time></trkpt><trkpt lat="43.39820557739698" lon="12.646841537725214"><ele>622.6666666666667</ele><time>2026-04-26T16:18:11Z</time></trkpt><trkpt lat="43.39806992368565" lon="12.646599709132316"><ele>623.3333333333334</ele><time>2026-04-26T16:18:12Z</time></trkpt><trkpt lat="43.39792241314278" lon="12.646369907337691"><ele>624.0</ele><time>2026-04-26T16:18:13Z</time></trkpt><trkpt lat="43.39778535311942" lon="12.646122588838383"><ele>621.5</ele><time>2026-04-26T16:18:14Z</time></trkpt><trkpt lat="43.3976700944329" lon="12.645845101100361"><ele>619.0</ele><time>2026-04-26T16:18:15Z</time></trkpt><trkpt lat="43.39754228485489" lon="12.645564705452843"><ele>622.0</ele><time>2026-04-26T16:18:16Z</time></trkpt><trkpt lat="43.397430744596704" lon="12.64526319422399"><ele>625.0</ele><time>2026-04-26T16:18:17Z</time></trkpt><trkpt lat="43.39731426128328" lon="12.644956431571158"><ele>625.0</ele><time>2026-04-26T16:18:18Z</time></trkpt><trkpt lat="43.39719106785138" lon="12.644645110807463"><ele>625.0</ele><time>2026-04-26T16:18:19Z</time></trkpt><trkpt lat="43.397076459840356" lon="12.644316306281855"><ele>619.5</ele><time>2026-04-26T16:18:20Z</time></trkpt><trkpt lat="43.39693491267811" lon="12.64399768153826"><ele>614.0</ele><time>2026-04-26T16:18:21Z</time></trkpt><trkpt lat="43.396773722371094" lon="12.643691576133556"><ele>619.5</ele><time>2026-04-26T16:18:22Z</time></trkpt><trkpt lat="43.39661021058207" lon="12.643389171536093"><ele>625.0</ele><time>2026-04-26T16:18:23Z</time></trkpt><trkpt lat="43.39644216705408" lon="12.643108208751155"><ele>620.5</ele><time>2026-04-26T16:18:24Z</time></trkpt><trkpt lat="43.39629335720572" lon="12.642817028763028"><ele>616.0</ele><time>2026-04-26T16:18:25Z</time></trkpt><trkpt lat="43.3961366506386" lon="12.642541651539293"><ele>616.0</ele><time>2026-04-26T16:18:26Z</time></trkpt><trkpt lat="43.39595918575916" lon="12.64228436528202"><ele>616.0</ele><time>2026-04-26T16:18:27Z</time></trkpt><trkpt lat="43.39576764627054" lon="12.642040357766183"><ele>615.5</ele><time>2026-04-26T16:18:28Z</time></trkpt><trkpt lat="43.39557477765768" lon="12.64179793928027"><ele>615.0</ele><time>2026-04-26T16:18:29Z</time></trkpt><trkpt lat="43.39538465781935" lon="12.641547113524917"><ele>615.0</ele><time>2026-04-26T16:18:30Z</time></trkpt><trkpt lat="43.395192647892586" lon="12.641293893779217"><ele>615.0</ele><time>2026-04-26T16:18:31Z</time></trkpt><trkpt lat="43.3949981460686" lon="12.641037994611711"><ele>615.5</ele><time>2026-04-26T16:18:32Z</time></trkpt><trkpt lat="43.394806350583146" lon="12.640777948494557"><ele>616.0</ele><time>2026-04-26T16:18:33Z</time></trkpt><trkpt lat="43.39462901437336" lon="12.64054246649463"><ele>616.0</ele><time>2026-04-26T16:18:34Z</time></trkpt><trkpt lat="43.39444921628807" lon="12.640302158958074"><ele>616.0</ele><time>2026-04-26T16:18:35Z</time></trkpt><trkpt lat="43.39427761555999" lon="12.64007141412338"><ele>618.5</ele><time>2026-04-26T16:18:36Z</time></trkpt><trkpt lat="43.394104687277704" lon="12.639839469452163"><ele>621.0</ele><time>2026-04-26T16:18:37Z</time></trkpt><trkpt lat="43.39392940782706" lon="12.639610542820314"><ele>622.5</ele><time>2026-04-26T16:18:38Z</time></trkpt><trkpt lat="43.3937538351335" lon="12.639379552277784"><ele>624.0</ele><time>2026-04-26T16:18:39Z</time></trkpt><trkpt lat="43.39357982700291" lon="12.639145003313478"><ele>624.0</ele><time>2026-04-26T16:18:40Z</time></trkpt><trkpt lat="43.39340899783128" lon="12.638917044124932"><ele>624.0</ele><time>2026-04-26T16:18:41Z</time></trkpt><trkpt lat="43.39324760807889" lon="12.638709046137604"><ele>626.0</ele><time>2026-04-26T16:18:42Z</time></trkpt><trkpt lat="43.39309200066927" lon="12.638514995602296"><ele>628.0</ele><time>2026-04-26T16:18:42.999Z</time></trkpt><trkpt lat="43.39294990753899" lon="12.638330622700382"><ele>630.0</ele><time>2026-04-26T16:18:43.999Z</time></trkpt><trkpt lat="43.39282471861702" lon="12.638115642422768"><ele>626.0</ele><time>2026-04-26T16:18:44.999Z</time></trkpt><trkpt lat="43.39272766061215" lon="12.637859238537418"><ele>622.0</ele><time>2026-04-26T16:18:45.999Z</time></trkpt><trkpt lat="43.392642780288185" lon="12.637582804941298"><ele>618.0</ele><time>2026-04-26T16:18:46.999Z</time></trkpt><trkpt lat="43.392575103872474" lon="12.637286196229194"><ele>618.0</ele><time>2026-04-26T16:18:47.999Z</time></trkpt><trkpt lat="43.392482632319144" lon="12.636996119502315"><ele>618.0</ele><time>2026-04-26T16:18:48.999Z</time></trkpt><trkpt lat="43.39238767347103" lon="12.636698240266352"><ele>623.5</ele><time>2026-04-26T16:18:49.999Z</time></trkpt><trkpt lat="43.39229234999566" lon="12.636396070763592"><ele>629.0</ele><time>2026-04-26T16:18:50.999Z</time></trkpt><trkpt lat="43.39221108745536" lon="12.63607848505103"><ele>625.0</ele><time>2026-04-26T16:18:51.999Z</time></trkpt><trkpt lat="43.39214406371642" lon="12.635754470638163"><ele>621.0</ele><time>2026-04-26T16:18:52.999Z</time></trkpt><trkpt lat="43.392080306621075" lon="12.635437582008889"><ele>623.0</ele><time>2026-04-26T16:18:53.999Z</time></trkpt><trkpt lat="43.39201818155025" lon="12.635124640562328"><ele>625.0</ele><time>2026-04-26T16:18:54.999Z</time></trkpt><trkpt lat="43.39195778765075" lon="12.634818641726852"><ele>625.0</ele><time>2026-04-26T16:18:55.999Z</time></trkpt><trkpt lat="43.39189957803538" lon="12.634523004069992"><ele>625.0</ele><time>2026-04-26T16:18:56.999Z</time></trkpt><trkpt lat="43.39182852158784" lon="12.634256957397826"><ele>625.0</ele><time>2026-04-26T16:18:57.999Z</time></trkpt><trkpt lat="43.39177952324686" lon="12.634006345502387"><ele>627.6666666666667</ele><time>2026-04-26T16:18:58.999Z</time></trkpt><trkpt lat="43.39174794461686" lon="12.633768966738982"><ele>630.3333333333334</ele><time>2026-04-26T16:18:59.999Z</time></trkpt><trkpt lat="43.39175339236478" lon="12.633530315627931"><ele>633.0</ele><time>2026-04-26T16:19:00.999Z</time></trkpt><trkpt lat="43.39180823109322" lon="12.63328558140677"><ele>633.3333333333334</ele><time>2026-04-26T16:19:01.999Z</time></trkpt><trkpt lat="43.3918942372007" lon="12.633055350870043"><ele>633.6666666666667</ele><time>2026-04-26T16:19:02.999Z</time></trkpt><trkpt lat="43.39196588387428" lon="12.632801873318176"><ele>634.0</ele><time>2026-04-26T16:19:03.999Z</time></trkpt><trkpt lat="43.39203987892588" lon="12.632540407697611"><ele>633.0</ele><time>2026-04-26T16:19:04.999Z</time></trkpt><trkpt lat="43.39211642594594" lon="12.632269648512157"><ele>632.0</ele><time>2026-04-26T16:19:05.999Z</time></trkpt><trkpt lat="43.392195690295296" lon="12.631989008000994"><ele>631.0</ele><time>2026-04-26T16:19:06.999Z</time></trkpt><trkpt lat="43.3922774429982" lon="12.631699557489807"><ele>632.0</ele><time>2026-04-26T16:19:07.999Z</time></trkpt><trkpt lat="43.392362326304756" lon="12.63139852430637"><ele>633.0</ele><time>2026-04-26T16:19:08.999Z</time></trkpt><trkpt lat="43.39245003306329" lon="12.631087070667885"><ele>633.0</ele><time>2026-04-26T16:19:09.999Z</time></trkpt><trkpt lat="43.39253896202937" lon="12.63076877220605"><ele>633.0</ele><time>2026-04-26T16:19:10.999Z</time></trkpt><trkpt lat="43.392628587888254" lon="12.630450964118339"><ele>634.0</ele><time>2026-04-26T16:19:11.999Z</time></trkpt><trkpt lat="43.392716889199185" lon="12.63013931858804"><ele>635.0</ele><time>2026-04-26T16:19:12.999Z</time></trkpt><trkpt lat="43.392803086683344" lon="12.62983545793662"><ele>635.0</ele><time>2026-04-26T16:19:13.999Z</time></trkpt><trkpt lat="43.39288729537568" lon="12.629537662210408"><ele>635.0</ele><time>2026-04-26T16:19:14.999Z</time></trkpt><trkpt lat="43.39296351249811" lon="12.629265938138815"><ele>635.0</ele><time>2026-04-26T16:19:15.999Z</time></trkpt><trkpt lat="43.393021430411444" lon="12.629000053448115"><ele>636.6666666666666</ele><time>2026-04-26T16:19:16.999Z</time></trkpt><trkpt lat="43.39307605712064" lon="12.628743779932693"><ele>638.3333333333334</ele><time>2026-04-26T16:19:17.999Z</time></trkpt><trkpt lat="43.39312850245311" lon="12.628473401019312"><ele>640.0</ele><time>2026-04-26T16:19:18.999Z</time></trkpt><trkpt lat="43.39314387130907" lon="12.62817652325736"><ele>640.0</ele><time>2026-04-26T16:19:19.999Z</time></trkpt><trkpt lat="43.39313845911081" lon="12.627870842893916"><ele>640.0</ele><time>2026-04-26T16:19:20.999Z</time></trkpt><trkpt lat="43.39312495354287" lon="12.627551967593872"><ele>637.5</ele><time>2026-04-26T16:19:21.999Z</time></trkpt><trkpt lat="43.393107685056755" lon="12.627229023780695"><ele>635.0</ele><time>2026-04-26T16:19:22.999Z</time></trkpt><trkpt lat="43.39309185666702" lon="12.626898318185283"><ele>635.0</ele><time>2026-04-26T16:19:23.999Z</time></trkpt><trkpt lat="43.39307622365607" lon="12.626562328488184"><ele>635.0</ele><time>2026-04-26T16:19:24.999Z</time></trkpt><trkpt lat="43.393060350444074" lon="12.626223231017192"><ele>638.5</ele><time>2026-04-26T16:19:25.999Z</time></trkpt><trkpt lat="43.39304447339622" lon="12.625884287294213"><ele>642.0</ele><time>2026-04-26T16:19:27.001Z</time></trkpt><trkpt lat="43.39302839196291" lon="12.62554773982287"><ele>641.0</ele><time>2026-04-26T16:19:28.001Z</time></trkpt><trkpt lat="43.39301327575041" lon="12.625212687501715"><ele>640.0</ele><time>2026-04-26T16:19:29.001Z</time></trkpt><trkpt lat="43.39299840631504" lon="12.624882154962398"><ele>640.0</ele><time>2026-04-26T16:19:30.001Z</time></trkpt><trkpt lat="43.392984238720274" lon="12.62456050116109"><ele>640.0</ele><time>2026-04-26T16:19:31.001Z</time></trkpt><trkpt lat="43.392970462964676" lon="12.624247743427135"><ele>640.6666666666667</ele><time>2026-04-26T16:19:32.001Z</time></trkpt><trkpt lat="43.3929547631234" lon="12.623949531551704"><ele>641.3333333333334</ele><time>2026-04-26T16:19:33.001Z</time></trkpt><trkpt lat="43.392936269654385" lon="12.623658734222962"><ele>642.0</ele><time>2026-04-26T16:19:34.001Z</time></trkpt><trkpt lat="43.39291883477447" lon="12.623384582367231"><ele>648.0</ele><time>2026-04-26T16:19:35.001Z</time></trkpt><trkpt lat="43.392893548892935" lon="12.623135773624329"><ele>654.0</ele><time>2026-04-26T16:19:36.001Z</time></trkpt><trkpt lat="43.39257032175521" lon="12.622951066607193"><ele>655.3333333333334</ele><time>2026-04-26T16:19:37.001Z</time></trkpt><trkpt lat="43.392417903211864" lon="12.622751366814526"><ele>656.6666666666667</ele><time>2026-04-26T16:19:38.001Z</time></trkpt><trkpt lat="43.392271318333435" lon="12.622542412644867"><ele>658.0</ele><time>2026-04-26T16:19:39.001Z</time></trkpt><trkpt lat="43.39214522400575" lon="12.62234305409881"><ele>658.0</ele><time>2026-04-26T16:19:40.001Z</time></trkpt><trkpt lat="43.39206397303417" lon="12.622140587802766"><ele>658.0</ele><time>2026-04-26T16:19:41.001Z</time></trkpt><trkpt lat="43.392039963668665" lon="12.621917081690896"><ele>658.0</ele><time>2026-04-26T16:19:42Z</time></trkpt><trkpt lat="43.392049580081675" lon="12.621697611602459"><ele>661.0</ele><time>2026-04-26T16:19:43Z</time></trkpt><trkpt lat="43.392100074040584" lon="12.62148824277863"><ele>664.0</ele><time>2026-04-26T16:19:44Z</time></trkpt><trkpt lat="43.39217573675085" lon="12.621280530384428"><ele>667.0</ele><time>2026-04-26T16:19:45Z</time></trkpt><trkpt lat="43.39226656101887" lon="12.62107566482923"><ele>673.0</ele><time>2026-04-26T16:19:46Z</time></trkpt><trkpt lat="43.39235709164701" lon="12.620865555056609"><ele>679.0</ele><time>2026-04-26T16:19:47Z</time></trkpt><trkpt lat="43.39244970847601" lon="12.620650603438678"><ele>685.0</ele><time>2026-04-26T16:19:48Z</time></trkpt><trkpt lat="43.39254584279066" lon="12.620428642727985"><ele>683.0</ele><time>2026-04-26T16:19:49Z</time></trkpt><trkpt lat="43.39264593638025" lon="12.620197545680327"><ele>681.0</ele><time>2026-04-26T16:19:50Z</time></trkpt><trkpt lat="43.39274785510237" lon="12.619962261304476"><ele>679.0</ele><time>2026-04-26T16:19:51Z</time></trkpt><trkpt lat="43.39285432097544" lon="12.619718387300544"><ele>677.6666666666667</ele><time>2026-04-26T16:19:52Z</time></trkpt><trkpt lat="43.392949023237165" lon="12.619464430929364"><ele>676.3333333333334</ele><time>2026-04-26T16:19:53Z</time></trkpt><trkpt lat="43.393047910195676" lon="12.61924066438189"><ele>675.0</ele><time>2026-04-26T16:19:54Z</time></trkpt><trkpt lat="43.3931447803286" lon="12.61902731151352"><ele>678.6666666666666</ele><time>2026-04-26T16:19:55Z</time></trkpt><trkpt lat="43.393189521862794" lon="12.61876970521839"><ele>682.3333333333333</ele><time>2026-04-26T16:19:56Z</time></trkpt><trkpt lat="43.39322569942808" lon="12.61850467534238"><ele>686.0</ele><time>2026-04-26T16:19:57Z</time></trkpt><trkpt lat="43.39322639200838" lon="12.61822773949899"><ele>687.3333333333333</ele><time>2026-04-26T16:19:58Z</time></trkpt><trkpt lat="43.39319852785581" lon="12.617945390874594"><ele>688.6666666666666</ele><time>2026-04-26T16:19:59Z</time></trkpt><trkpt lat="43.39314249844192" lon="12.617664763905518"><ele>690.0</ele><time>2026-04-26T16:20:00Z</time></trkpt><trkpt lat="43.39304934015068" lon="12.617395144092939"><ele>690.0</ele><time>2026-04-26T16:20:01Z</time></trkpt><trkpt lat="43.39292167181907" lon="12.617144026042862"><ele>690.0</ele><time>2026-04-26T16:20:02Z</time></trkpt><trkpt lat="43.39276257130954" lon="12.616918910199114"><ele>690.0</ele><time>2026-04-26T16:20:03Z</time></trkpt><trkpt lat="43.39257847080743" lon="12.616717954172037"><ele>690.0</ele><time>2026-04-26T16:20:04Z</time></trkpt><trkpt lat="43.392388121652296" lon="12.6165163680519"><ele>690.0</ele><time>2026-04-26T16:20:05Z</time></trkpt><trkpt lat="43.39220093129622" lon="12.616302991241188"><ele>690.0</ele><time>2026-04-26T16:20:06Z</time></trkpt><trkpt lat="43.392028626997366" lon="12.616097237161146"><ele>690.3333333333334</ele><time>2026-04-26T16:20:07Z</time></trkpt><trkpt lat="43.39186608102381" lon="12.615906228206562"><ele>690.6666666666667</ele><time>2026-04-26T16:20:08Z</time></trkpt><trkpt lat="43.39171335300948" lon="12.615732820585794"><ele>691.0</ele><time>2026-04-26T16:20:09Z</time></trkpt><trkpt lat="43.39155519936854" lon="12.615612814659151"><ele>691.0</ele><time>2026-04-26T16:20:10Z</time></trkpt><trkpt lat="43.39139165620949" lon="12.615545016624635"><ele>691.0</ele><time>2026-04-26T16:20:11Z</time></trkpt><trkpt lat="43.39121571693498" lon="12.615523777829795"><ele>691.0</ele><time>2026-04-26T16:20:12Z</time></trkpt><trkpt lat="43.39103715601938" lon="12.615524189044432"><ele>691.0</ele><time>2026-04-26T16:20:13Z</time></trkpt><trkpt lat="43.39085465138075" lon="12.615567833750804"><ele>691.0</ele><time>2026-04-26T16:20:14Z</time></trkpt><trkpt lat="43.390666197349184" lon="12.615632370019096"><ele>691.0</ele><time>2026-04-26T16:20:15Z</time></trkpt><trkpt lat="43.390471339853995" lon="12.615701120846918"><ele>694.0</ele><time>2026-04-26T16:20:16Z</time></trkpt><trkpt lat="43.39027076000909" lon="12.615768856464037"><ele>697.0</ele><time>2026-04-26T16:20:17Z</time></trkpt><trkpt lat="43.39007121662967" lon="12.615820382812776"><ele>700.0</ele><time>2026-04-26T16:20:18Z</time></trkpt><trkpt lat="43.38986382012182" lon="12.61582277654034"><ele>700.6666666666667</ele><time>2026-04-26T16:20:19Z</time></trkpt><trkpt lat="43.389654403917916" lon="12.615773975117033"><ele>701.3333333333334</ele><time>2026-04-26T16:20:20Z</time></trkpt><trkpt lat="43.38944646610508" lon="12.615716626828538"><ele>702.0</ele><time>2026-04-26T16:20:21Z</time></trkpt><trkpt lat="43.389242879340316" lon="12.615661472410824"><ele>702.0</ele><time>2026-04-26T16:20:22Z</time></trkpt><trkpt lat="43.38904668845976" lon="12.615586057194408"><ele>702.0</ele><time>2026-04-26T16:20:23Z</time></trkpt><trkpt lat="43.3888584394777" lon="12.615474369067508"><ele>702.0</ele><time>2026-04-26T16:20:24Z</time></trkpt><trkpt lat="43.388681929987484" lon="12.615336905233496"><ele>704.6666666666666</ele><time>2026-04-26T16:20:25Z</time></trkpt><trkpt lat="43.38851142114692" lon="12.615191843712402"><ele>707.3333333333333</ele><time>2026-04-26T16:20:26Z</time></trkpt><trkpt lat="43.38834242449437" lon="12.615050953291139"><ele>710.0</ele><time>2026-04-26T16:20:27Z</time></trkpt><trkpt lat="43.38817098433917" lon="12.614907897285535"><ele>710.0</ele><time>2026-04-26T16:20:28Z</time></trkpt><trkpt lat="43.388018350229046" lon="12.614760725958956"><ele>710.0</ele><time>2026-04-26T16:20:29Z</time></trkpt><trkpt lat="43.38789523104008" lon="12.614616502598626"><ele>710.0</ele><time>2026-04-26T16:20:30Z</time></trkpt><trkpt lat="43.38780615850464" lon="12.61447351349455"><ele>708.75</ele><time>2026-04-26T16:20:31Z</time></trkpt><trkpt lat="43.38776794019361" lon="12.614294042655105"><ele>707.5</ele><time>2026-04-26T16:20:32Z</time></trkpt><trkpt lat="43.38780851098698" lon="12.614097113149557"><ele>706.25</ele><time>2026-04-26T16:20:33Z</time></trkpt><trkpt lat="43.387846041138104" lon="12.613884209516513"><ele>705.0</ele><time>2026-04-26T16:20:34Z</time></trkpt><trkpt lat="43.387893788543394" lon="12.613673431799258"><ele>705.6666666666666</ele><time>2026-04-26T16:20:35Z</time></trkpt><trkpt lat="43.38790244325558" lon="12.613434364921025"><ele>706.3333333333333</ele><time>2026-04-26T16:20:36Z</time></trkpt><trkpt lat="43.387893686571246" lon="12.613182534580439"><ele>707.0</ele><time>2026-04-26T16:20:37Z</time></trkpt><trkpt lat="43.38787912213825" lon="12.612937417700529"><ele>709.25</ele><time>2026-04-26T16:20:38Z</time></trkpt><trkpt lat="43.38786184057303" lon="12.61273113131517"><ele>711.5</ele><time>2026-04-26T16:20:39Z</time></trkpt><trkpt lat="43.38783955205201" lon="12.612554649288116"><ele>713.75</ele><time>2026-04-26T16:20:40Z</time></trkpt><trkpt lat="43.38779243113612" lon="12.612404956518585"><ele>716.0</ele><time>2026-04-26T16:20:41Z</time></trkpt><trkpt lat="43.387705808305554" lon="12.612283449604313"><ele>716.0</ele><time>2026-04-26T16:20:42Z</time></trkpt><trkpt lat="43.38758102670877" lon="12.612204670353442"><ele>716.0</ele><time>2026-04-26T16:20:43Z</time></trkpt><trkpt lat="43.387432902629506" lon="12.6121962065529"><ele>716.0</ele><time>2026-04-26T16:20:44Z</time></trkpt><trkpt lat="43.38727109796195" lon="12.612262983287664"><ele>714.3333333333333</ele><time>2026-04-26T16:20:45Z</time></trkpt><trkpt lat="43.38710424747813" lon="12.612339264051586"><ele>712.6666666666666</ele><time>2026-04-26T16:20:45.999Z</time></trkpt><trkpt lat="43.38691538566619" lon="12.612382525539187"><ele>711.0</ele><time>2026-04-26T16:20:46.999Z</time></trkpt><trkpt lat="43.38671282845069" lon="12.612408426590632"><ele>711.0</ele><time>2026-04-26T16:20:47.999Z</time></trkpt><trkpt lat="43.38650408682216" lon="12.612427606053945"><ele>711.0</ele><time>2026-04-26T16:20:48.999Z</time></trkpt><trkpt lat="43.38630514540906" lon="12.612446843286273"><ele>711.0</ele><time>2026-04-26T16:20:49.999Z</time></trkpt><trkpt lat="43.386129229209445" lon="12.612476177753289"><ele>706.0</ele><time>2026-04-26T16:20:50.999Z</time></trkpt><trkpt lat="43.38596758433942" lon="12.612483070577134"><ele>701.0</ele><time>2026-04-26T16:20:51.999Z</time></trkpt><trkpt lat="43.385805505964385" lon="12.61242619178466"><ele>696.0</ele><time>2026-04-26T16:20:52.999Z</time></trkpt><trkpt lat="43.38564860494004" lon="12.61228016876209"><ele>696.0</ele><time>2026-04-26T16:20:53.999Z</time></trkpt><trkpt lat="43.38551239924934" lon="12.612065053943617"><ele>696.0</ele><time>2026-04-26T16:20:54.999Z</time></trkpt><trkpt lat="43.38539862726048" lon="12.611804088935964"><ele>696.0</ele><time>2026-04-26T16:20:55.999Z</time></trkpt><trkpt lat="43.38528095691171" lon="12.611545953387875"><ele>694.5</ele><time>2026-04-26T16:20:56.999Z</time></trkpt><trkpt lat="43.38515077624944" lon="12.611283018482744"><ele>693.0</ele><time>2026-04-26T16:20:57.999Z</time></trkpt><trkpt lat="43.385019080312865" lon="12.611018508250075"><ele>695.6666666666666</ele><time>2026-04-26T16:20:58.999Z</time></trkpt><trkpt lat="43.384898418584534" lon="12.610771589871561"><ele>698.3333333333333</ele><time>2026-04-26T16:20:59.999Z</time></trkpt><trkpt lat="43.384793328188934" lon="12.610558373657085"><ele>701.0</ele><time>2026-04-26T16:21:00.999Z</time></trkpt><trkpt lat="43.384670713155714" lon="12.610397932885165"><ele>703.6666666666666</ele><time>2026-04-26T16:21:01.999Z</time></trkpt><trkpt lat="43.3844989929895" lon="12.610264449998098"><ele>706.3333333333334</ele><time>2026-04-26T16:21:02.999Z</time></trkpt><trkpt lat="43.38430140997392" lon="12.610176673052406"><ele>709.0</ele><time>2026-04-26T16:21:03.999Z</time></trkpt><trkpt lat="43.38410559278716" lon="12.610085475661712"><ele>709.0</ele><time>2026-04-26T16:21:04.999Z</time></trkpt><trkpt lat="43.38390839461944" lon="12.609978103416301"><ele>709.0</ele><time>2026-04-26T16:21:05.999Z</time></trkpt><trkpt lat="43.383725180888575" lon="12.609826787888284"><ele>709.0</ele><time>2026-04-26T16:21:06.999Z</time></trkpt><trkpt lat="43.38358214612326" lon="12.609611729805241"><ele>712.0</ele><time>2026-04-26T16:21:07.999Z</time></trkpt><trkpt lat="43.383463245250596" lon="12.609395499185524"><ele>715.0</ele><time>2026-04-26T16:21:08.999Z</time></trkpt><trkpt lat="43.38335484439457" lon="12.60922490028113"><ele>718.0</ele><time>2026-04-26T16:21:09.999Z</time></trkpt><trkpt lat="43.38324674035268" lon="12.609107786721344"><ele>718.0</ele><time>2026-04-26T16:21:10.999Z</time></trkpt><trkpt lat="43.38312179988707" lon="12.609047767436364"><ele>718.0</ele><time>2026-04-26T16:21:11.999Z</time></trkpt><trkpt lat="43.382990348493166" lon="12.609072879902165"><ele>718.0</ele><time>2026-04-26T16:21:12.999Z</time></trkpt><trkpt lat="43.382861513826526" lon="12.609164096435237"><ele>718.0</ele><time>2026-04-26T16:21:13.999Z</time></trkpt><trkpt lat="43.38275375933875" lon="12.60930652337398"><ele>717.5</ele><time>2026-04-26T16:21:14.999Z</time></trkpt><trkpt lat="43.38262666584534" lon="12.60938294171278"><ele>717.0</ele><time>2026-04-26T16:21:15.999Z</time></trkpt><trkpt lat="43.38248100926292" lon="12.609366236639396"><ele>716.5</ele><time>2026-04-26T16:21:16.999Z</time></trkpt><trkpt lat="43.382349681080356" lon="12.609276157729639"><ele>716.0</ele><time>2026-04-26T16:21:17.999Z</time></trkpt><trkpt lat="43.382249077189734" lon="12.609119901015907"><ele>722.6666666666666</ele><time>2026-04-26T16:21:18.999Z</time></trkpt><trkpt lat="43.382144866441955" lon="12.60897017768039"><ele>729.3333333333334</ele><time>2026-04-26T16:21:19.999Z</time></trkpt><trkpt lat="43.38203709386427" lon="12.60882256632807"><ele>736.0</ele><time>2026-04-26T16:21:20.999Z</time></trkpt><trkpt lat="43.381923776209604" lon="12.60867092312113"><ele>732.6666666666667</ele><time>2026-04-26T16:21:21.999Z</time></trkpt><trkpt lat="43.381809949224944" lon="12.608513622909735"><ele>729.3333333333334</ele><time>2026-04-26T16:21:22.999Z</time></trkpt><trkpt lat="43.38169452850286" lon="12.608349806751804"><ele>726.0</ele><time>2026-04-26T16:21:23.999Z</time></trkpt><trkpt lat="43.38157334020211" lon="12.608185673474336"><ele>726.0</ele><time>2026-04-26T16:21:24.999Z</time></trkpt><trkpt lat="43.38144941840872" lon="12.608016018932236"><ele>726.0</ele><time>2026-04-26T16:21:25.999Z</time></trkpt><trkpt lat="43.3813231830117" lon="12.607843503055014"><ele>726.0</ele><time>2026-04-26T16:21:26.999Z</time></trkpt><trkpt lat="43.381202583984006" lon="12.60765892789708"><ele>729.6666666666666</ele><time>2026-04-26T16:21:27.999Z</time></trkpt><trkpt lat="43.38105916824777" lon="12.607499842315857"><ele>733.3333333333333</ele><time>2026-04-26T16:21:28.999Z</time></trkpt><trkpt lat="43.38091419894675" lon="12.607337922635509"><ele>737.0</ele><time>2026-04-26T16:21:29.999Z</time></trkpt><trkpt lat="43.38075914312903" lon="12.607183091438129"><ele>737.0</ele><time>2026-04-26T16:21:30.999Z</time></trkpt><trkpt lat="43.38059486880042" lon="12.60703309076902"><ele>737.0</ele><time>2026-04-26T16:21:31.999Z</time></trkpt><trkpt lat="43.380420714091244" lon="12.606889910432207"><ele>737.0</ele><time>2026-04-26T16:21:33.001Z</time></trkpt><trkpt lat="43.38025093299089" lon="12.606742500813887"><ele>739.6666666666666</ele><time>2026-04-26T16:21:34.001Z</time></trkpt><trkpt lat="43.38009647427362" lon="12.606605350953751"><ele>742.3333333333334</ele><time>2026-04-26T16:21:35.001Z</time></trkpt><trkpt lat="43.3799347993493" lon="12.606497829369708"><ele>745.0</ele><time>2026-04-26T16:21:36.001Z</time></trkpt><trkpt lat="43.37975787485009" lon="12.606449128583037"><ele>747.3333333333334</ele><time>2026-04-26T16:21:37.001Z</time></trkpt><trkpt lat="43.379570433779726" lon="12.606444024228963"><ele>749.6666666666666</ele><time>2026-04-26T16:21:38.001Z</time></trkpt><trkpt lat="43.37937872774874" lon="12.606458028465488"><ele>752.0</ele><time>2026-04-26T16:21:39.001Z</time></trkpt><trkpt lat="43.37918720374927" lon="12.606479183078156"><ele>752.0</ele><time>2026-04-26T16:21:40.001Z</time></trkpt><trkpt lat="43.37899144124767" lon="12.606506328018432"><ele>752.0</ele><time>2026-04-26T16:21:41.001Z</time></trkpt><trkpt lat="43.3787962165022" lon="12.606543870093715"><ele>752.0</ele><time>2026-04-26T16:21:42.001Z</time></trkpt><trkpt lat="43.37860001621087" lon="12.606582165033325"><ele>754.0</ele><time>2026-04-26T16:21:43.001Z</time></trkpt><trkpt lat="43.37840376785562" lon="12.606622374321907"><ele>756.0</ele><time>2026-04-26T16:21:44.001Z</time></trkpt><trkpt lat="43.37820631590191" lon="12.606677915501175"><ele>758.0</ele><time>2026-04-26T16:21:45.001Z</time></trkpt><trkpt lat="43.378006341575286" lon="12.60673913649703"><ele>761.6666666666666</ele><time>2026-04-26T16:21:46.001Z</time></trkpt><trkpt lat="43.37781671530948" lon="12.606800787549894"><ele>765.3333333333333</ele><time>2026-04-26T16:21:47Z</time></trkpt><trkpt lat="43.37765060213711" lon="12.606858889244444"><ele>769.0</ele><time>2026-04-26T16:21:48Z</time></trkpt><trkpt lat="43.377501100303526" lon="12.606903655235516"><ele>769.0</ele><time>2026-04-26T16:21:49Z</time></trkpt><trkpt lat="43.37735904248065" lon="12.606892747096019"><ele>769.0</ele><time>2026-04-26T16:21:50Z</time></trkpt><trkpt lat="43.3772391226538" lon="12.606820417047242"><ele>769.0</ele><time>2026-04-26T16:21:51Z</time></trkpt><trkpt lat="43.37714780458491" lon="12.606685722508349"><ele>769.0</ele><time>2026-04-26T16:21:52Z</time></trkpt><trkpt lat="43.37712102500915" lon="12.606494942203561"><ele>768.5</ele><time>2026-04-26T16:21:53Z</time></trkpt><trkpt lat="43.37713552227998" lon="12.606300266412381"><ele>768.0</ele><time>2026-04-26T16:21:54Z</time></trkpt><trkpt lat="43.377214476020974" lon="12.606134784152474"><ele>767.5</ele><time>2026-04-26T16:21:55Z</time></trkpt><trkpt lat="43.37730382334458" lon="12.605948360851956"><ele>767.0</ele><time>2026-04-26T16:21:56Z</time></trkpt><trkpt lat="43.37739927348551" lon="12.605754777484943"><ele>767.0</ele><time>2026-04-26T16:21:57Z</time></trkpt><trkpt lat="43.37750368423333" lon="12.605559742510088"><ele>767.0</ele><time>2026-04-26T16:21:58Z</time></trkpt><trkpt lat="43.3776321135682" lon="12.605410808786615"><ele>767.0</ele><time>2026-04-26T16:21:59Z</time></trkpt><trkpt lat="43.37779446070937" lon="12.605331664950754"><ele>769.0</ele><time>2026-04-26T16:22:00Z</time></trkpt><trkpt lat="43.377977297330986" lon="12.605311001379492"><ele>771.0</ele><time>2026-04-26T16:22:01Z</time></trkpt><trkpt lat="43.37814777901335" lon="12.605276288320837"><ele>773.0</ele><time>2026-04-26T16:22:02Z</time></trkpt><trkpt lat="43.378294483827574" lon="12.605227981740503"><ele>773.0</ele><time>2026-04-26T16:22:03Z</time></trkpt><trkpt lat="43.3784232190762" lon="12.605122838265538"><ele>773.0</ele><time>2026-04-26T16:22:04Z</time></trkpt><trkpt lat="43.378525530191595" lon="12.604964490073003"><ele>773.0</ele><time>2026-04-26T16:22:05Z</time></trkpt><trkpt lat="43.378580142725426" lon="12.60476913897779"><ele>773.0</ele><time>2026-04-26T16:22:06Z</time></trkpt><trkpt lat="43.37860865321685" lon="12.604560090604679"><ele>773.0</ele><time>2026-04-26T16:22:07Z</time></trkpt><trkpt lat="43.37861888877122" lon="12.604343336321884"><ele>773.0</ele><time>2026-04-26T16:22:08Z</time></trkpt><trkpt lat="43.37860929624696" lon="12.60415319075308"><ele>774.75</ele><time>2026-04-26T16:22:09Z</time></trkpt><trkpt lat="43.37856137281082" lon="12.603995745239557"><ele>776.5</ele><time>2026-04-26T16:22:10Z</time></trkpt><trkpt lat="43.3784705558297" lon="12.603879146007465"><ele>778.25</ele><time>2026-04-26T16:22:11Z</time></trkpt><trkpt lat="43.378341584888254" lon="12.603813076144215"><ele>780.0</ele><time>2026-04-26T16:22:12Z</time></trkpt><trkpt lat="43.37818641187988" lon="12.603806027392409"><ele>779.3333333333333</ele><time>2026-04-26T16:22:13Z</time></trkpt><trkpt lat="43.378016552778796" lon="12.6038366582339"><ele>778.6666666666666</ele><time>2026-04-26T16:22:14Z</time></trkpt><trkpt lat="43.377833168393906" lon="12.603851077965789"><ele>778.0</ele><time>2026-04-26T16:22:15Z</time></trkpt><trkpt lat="43.37765243634375" lon="12.6038395536867"><ele>778.0</ele><time>2026-04-26T16:22:16Z</time></trkpt><trkpt lat="43.377489835153995" lon="12.603819170477895"><ele>778.0</ele><time>2026-04-26T16:22:17Z</time></trkpt><trkpt lat="43.377341980919276" lon="12.603763785739186"><ele>778.0</ele><time>2026-04-26T16:22:18Z</time></trkpt><trkpt lat="43.37721021674505" lon="12.603671775214185"><ele>770.0</ele><time>2026-04-26T16:22:19Z</time></trkpt><trkpt lat="43.377088678564974" lon="12.603589723937537"><ele>762.0</ele><time>2026-04-26T16:22:20Z</time></trkpt><trkpt lat="43.37693492367136" lon="12.603569012931022"><ele>754.0</ele><time>2026-04-26T16:22:21Z</time></trkpt><trkpt lat="43.37675670892544" lon="12.603624995992584"><ele>759.0</ele><time>2026-04-26T16:22:22Z</time></trkpt><trkpt lat="43.3765676709412" lon="12.603676558281782"><ele>764.0</ele><time>2026-04-26T16:22:23Z</time></trkpt><trkpt lat="43.37640010374774" lon="12.603719806658406"><ele>769.0</ele><time>2026-04-26T16:22:24Z</time></trkpt><trkpt lat="43.37627787904797" lon="12.603737577681173"><ele>769.0</ele><time>2026-04-26T16:22:25Z</time></trkpt><trkpt lat="43.37617977081952" lon="12.603710634236569"><ele>769.0</ele><time>2026-04-26T16:22:26Z</time></trkpt><trkpt lat="43.37611967899735" lon="12.603616800246748"><ele>769.0</ele><time>2026-04-26T16:22:27Z</time></trkpt><trkpt lat="43.376091777611634" lon="12.603481851112397"><ele>769.0</ele><time>2026-04-26T16:22:28Z</time></trkpt><trkpt lat="43.37609490192929" lon="12.60332901985751"><ele>769.0</ele><time>2026-04-26T16:22:29Z</time></trkpt><trkpt lat="43.37616559494908" lon="12.603188175382828"><ele>764.0</ele><time>2026-04-26T16:22:30Z</time></trkpt><trkpt lat="43.37630732937122" lon="12.603145452114365"><ele>759.0</ele><time>2026-04-26T16:22:31Z</time></trkpt><trkpt lat="43.37646186235386" lon="12.603056470339205"><ele>754.0</ele><time>2026-04-26T16:22:32Z</time></trkpt><trkpt lat="43.376609371660955" lon="12.602974488848748"><ele>754.0</ele><time>2026-04-26T16:22:33Z</time></trkpt><trkpt lat="43.37672911764761" lon="12.60290162335303"><ele>754.0</ele><time>2026-04-26T16:22:34Z</time></trkpt><trkpt lat="43.37682405282812" lon="12.60282177283325"><ele>754.0</ele><time>2026-04-26T16:22:35Z</time></trkpt><trkpt lat="43.37688964791706" lon="12.602695515072767"><ele>754.0</ele><time>2026-04-26T16:22:36Z</time></trkpt><trkpt lat="43.37688217394683" lon="12.602537392299062"><ele>750.75</ele><time>2026-04-26T16:22:37Z</time></trkpt><trkpt lat="43.37683709442318" lon="12.602406421361577"><ele>747.5</ele><time>2026-04-26T16:22:38Z</time></trkpt><trkpt lat="43.37673516292573" lon="12.602328575182039"><ele>744.25</ele><time>2026-04-26T16:22:39Z</time></trkpt><trkpt lat="43.37660199443553" lon="12.602339060083937"><ele>741.0</ele><time>2026-04-26T16:22:40Z</time></trkpt><trkpt lat="43.3764460554604" lon="12.602372946290547"><ele>740.75</ele><time>2026-04-26T16:22:41Z</time></trkpt><trkpt lat="43.376283645969096" lon="12.602406110608097"><ele>740.5</ele><time>2026-04-26T16:22:42Z</time></trkpt><trkpt lat="43.376143108180315" lon="12.60243547003066"><ele>740.25</ele><time>2026-04-26T16:22:43Z</time></trkpt><trkpt lat="43.376051617330845" lon="12.602442689648502"><ele>740.0</ele><time>2026-04-26T16:22:44Z</time></trkpt><trkpt lat="43.37598917974848" lon="12.60240135290121"><ele>740.0</ele><time>2026-04-26T16:22:45Z</time></trkpt><trkpt lat="43.375937189398435" lon="12.602213269651871"><ele>740.0</ele><time>2026-04-26T16:22:47Z</time></trkpt><trkpt lat="43.37597907314618" lon="12.602082185888188"><ele>740.0</ele><time>2026-04-26T16:22:47.999Z</time></trkpt><trkpt lat="43.376066091934476" lon="12.60196583716797"><ele>740.0</ele><time>2026-04-26T16:22:48.999Z</time></trkpt><trkpt lat="43.376131456497234" lon="12.60176872827637"><ele>737.0</ele><time>2026-04-26T16:22:49.999Z</time></trkpt><trkpt lat="43.37614779423631" lon="12.601548133847485"><ele>734.0</ele><time>2026-04-26T16:22:50.999Z</time></trkpt><trkpt lat="43.3760813146042" lon="12.601319924891646"><ele>731.0</ele><time>2026-04-26T16:22:51.999Z</time></trkpt><trkpt lat="43.375987527599264" lon="12.601092013046905"><ele>729.0</ele><time>2026-04-26T16:22:52.999Z</time></trkpt><trkpt lat="43.37588767565325" lon="12.600840172293987"><ele>727.0</ele><time>2026-04-26T16:22:53.999Z</time></trkpt><trkpt lat="43.37574462762226" lon="12.600599522440888"><ele>725.0</ele><time>2026-04-26T16:22:54.999Z</time></trkpt><trkpt lat="43.37557648341157" lon="12.600370511463275"><ele>720.5</ele><time>2026-04-26T16:22:55.999Z</time></trkpt><trkpt lat="43.375382495543235" lon="12.600156561279961"><ele>716.0</ele><time>2026-04-26T16:22:56.999Z</time></trkpt><trkpt lat="43.37519712842916" lon="12.599934744022033"><ele>716.0</ele><time>2026-04-26T16:22:57.999Z</time></trkpt><trkpt lat="43.37505400617116" lon="12.599661353775181"><ele>716.0</ele><time>2026-04-26T16:22:58.999Z</time></trkpt><trkpt lat="43.37491549593036" lon="12.599365815666912"><ele>718.5</ele><time>2026-04-26T16:22:59.999Z</time></trkpt><trkpt lat="43.3747536098373" lon="12.599144785100421"><ele>721.0</ele><time>2026-04-26T16:23:00.999Z</time></trkpt><trkpt lat="43.37457972675677" lon="12.598902607535583"><ele>712.0</ele><time>2026-04-26T16:23:01.999Z</time></trkpt><trkpt lat="43.37444515692414" lon="12.598639820210751"><ele>703.0</ele><time>2026-04-26T16:23:02.999Z</time></trkpt><trkpt lat="43.37432496630094" lon="12.59834516989895"><ele>703.0</ele><time>2026-04-26T16:23:03.999Z</time></trkpt><trkpt lat="43.37420333777551" lon="12.598025480100075"><ele>703.0</ele><time>2026-04-26T16:23:04.999Z</time></trkpt><trkpt lat="43.37406781887566" lon="12.59771343674343"><ele>702.5</ele><time>2026-04-26T16:23:05.999Z</time></trkpt><trkpt lat="43.37393734175435" lon="12.597391793100318"><ele>702.0</ele><time>2026-04-26T16:23:06.999Z</time></trkpt><trkpt lat="43.37378570734985" lon="12.597078052739842"><ele>698.0</ele><time>2026-04-26T16:23:07.999Z</time></trkpt><trkpt lat="43.37362667523293" lon="12.596781162824707"><ele>694.0</ele><time>2026-04-26T16:23:08.999Z</time></trkpt><trkpt lat="43.37347726158724" lon="12.596498028789824"><ele>694.0</ele><time>2026-04-26T16:23:09.999Z</time></trkpt><trkpt lat="43.37334919170911" lon="12.596234521928855"><ele>694.0</ele><time>2026-04-26T16:23:10.999Z</time></trkpt><trkpt lat="43.37322335571878" lon="12.595999006703334"><ele>694.0</ele><time>2026-04-26T16:23:11.999Z</time></trkpt><trkpt lat="43.37310314373164" lon="12.595769893952953"><ele>691.6666666666667</ele><time>2026-04-26T16:23:12.999Z</time></trkpt><trkpt lat="43.37296118093425" lon="12.595583211378472"><ele>689.3333333333334</ele><time>2026-04-26T16:23:13.999Z</time></trkpt><trkpt lat="43.37280840375559" lon="12.595445287005434"><ele>687.0</ele><time>2026-04-26T16:23:14.999Z</time></trkpt><trkpt lat="43.372710688773864" lon="12.595253213000145"><ele>685.3333333333334</ele><time>2026-04-26T16:23:15.999Z</time></trkpt><trkpt lat="43.37263451855828" lon="12.595001227999784"><ele>683.6666666666667</ele><time>2026-04-26T16:23:16.999Z</time></trkpt><trkpt lat="43.37252029779585" lon="12.594741757008055"><ele>682.0</ele><time>2026-04-26T16:23:17.999Z</time></trkpt><trkpt lat="43.37242383116025" lon="12.594541232173738"><ele>681.0</ele><time>2026-04-26T16:23:18.999Z</time></trkpt><trkpt lat="43.372369302925264" lon="12.594355583932899"><ele>680.0</ele><time>2026-04-26T16:23:19.999Z</time></trkpt><trkpt lat="43.37235552228402" lon="12.594140722403768"><ele>679.0</ele><time>2026-04-26T16:23:20.999Z</time></trkpt><trkpt lat="43.37239011690238" lon="12.593867356616098"><ele>679.0</ele><time>2026-04-26T16:23:21.999Z</time></trkpt><trkpt lat="43.37241573273455" lon="12.593626403980503"><ele>679.0</ele><time>2026-04-26T16:23:22.999Z</time></trkpt><trkpt lat="43.37242649982851" lon="12.593397329662007"><ele>679.0</ele><time>2026-04-26T16:23:23.999Z</time></trkpt><trkpt lat="43.37237507779138" lon="12.59315392477057"><ele>679.0</ele><time>2026-04-26T16:23:24.999Z</time></trkpt><trkpt lat="43.3722639362367" lon="12.5929461806567"><ele>679.0</ele><time>2026-04-26T16:23:25.999Z</time></trkpt><trkpt lat="43.37213647392299" lon="12.592797655351573"><ele>679.0</ele><time>2026-04-26T16:23:26.999Z</time></trkpt><trkpt lat="43.37204136246136" lon="12.592655125584193"><ele>668.6666666666667</ele><time>2026-04-26T16:23:27.999Z</time></trkpt><trkpt lat="43.3720327248126" lon="12.592452198195579"><ele>658.3333333333334</ele><time>2026-04-26T16:23:28.999Z</time></trkpt><trkpt lat="43.37208717471401" lon="12.592219427226246"><ele>648.0</ele><time>2026-04-26T16:23:29.999Z</time></trkpt><trkpt lat="43.37212710282076" lon="12.591959363150394"><ele>647.3333333333334</ele><time>2026-04-26T16:23:30.999Z</time></trkpt><trkpt lat="43.37213341485786" lon="12.591684518310752"><ele>646.6666666666667</ele><time>2026-04-26T16:23:31.999Z</time></trkpt><trkpt lat="43.37210894568582" lon="12.59140828806157"><ele>646.0</ele><time>2026-04-26T16:23:32.999Z</time></trkpt><trkpt lat="43.37212107143137" lon="12.591128527010477"><ele>645.75</ele><time>2026-04-26T16:23:33.999Z</time></trkpt><trkpt lat="43.3721751010373" lon="12.590890211568816"><ele>645.5</ele><time>2026-04-26T16:23:34.999Z</time></trkpt><trkpt lat="43.37223037254843" lon="12.590712236706613"><ele>645.25</ele><time>2026-04-26T16:23:35.999Z</time></trkpt><trkpt lat="43.372296528080724" lon="12.590582489563259"><ele>645.0</ele><time>2026-04-26T16:23:36.999Z</time></trkpt><trkpt lat="43.37239724267722" lon="12.590511953572925"><ele>645.0</ele><time>2026-04-26T16:23:37.999Z</time></trkpt><trkpt lat="43.37254866588307" lon="12.590518093208674"><ele>645.0</ele><time>2026-04-26T16:23:39Z</time></trkpt><trkpt lat="43.37270562358557" lon="12.590581384562151"><ele>645.0</ele><time>2026-04-26T16:23:40Z</time></trkpt><trkpt lat="43.37285608569517" lon="12.590660599066698"><ele>645.0</ele><time>2026-04-26T16:23:41Z</time></trkpt><trkpt lat="43.37298275409053" lon="12.590693959457191"><ele>645.0</ele><time>2026-04-26T16:23:42Z</time></trkpt><trkpt lat="43.37308091681623" lon="12.590680285842115"><ele>645.0</ele><time>2026-04-26T16:23:43Z</time></trkpt><trkpt lat="43.373162366957494" lon="12.590588924093625"><ele>645.0</ele><time>2026-04-26T16:23:44Z</time></trkpt><trkpt lat="43.37320092654355" lon="12.590441929457183"><ele>645.0</ele><time>2026-04-26T16:23:45Z</time></trkpt><trkpt lat="43.373171466714126" lon="12.59029748667466"><ele>642.25</ele><time>2026-04-26T16:23:46Z</time></trkpt><trkpt lat="43.373078454985155" lon="12.59019976338199"><ele>639.5</ele><time>2026-04-26T16:23:47Z</time></trkpt><trkpt lat="43.37294559122834" lon="12.590142199411138"><ele>636.75</ele><time>2026-04-26T16:23:48Z</time></trkpt><trkpt lat="43.372782436416294" lon="12.590144182333619"><ele>634.0</ele><time>2026-04-26T16:23:49Z</time></trkpt><trkpt lat="43.37260852139421" lon="12.590157384580575"><ele>633.6666666666667</ele><time>2026-04-26T16:23:50Z</time></trkpt><trkpt lat="43.372425401822454" lon="12.59011682812963"><ele>633.3333333333334</ele><time>2026-04-26T16:23:51Z</time></trkpt><trkpt lat="43.37223740888772" lon="12.590011031600513"><ele>633.0</ele><time>2026-04-26T16:23:52Z</time></trkpt><trkpt lat="43.37205712674577" lon="12.589855042498753"><ele>633.0</ele><time>2026-04-26T16:23:53Z</time></trkpt><trkpt lat="43.37187672120363" lon="12.589659857336637"><ele>633.0</ele><time>2026-04-26T16:23:54Z</time></trkpt><trkpt lat="43.371698053111864" lon="12.589499364123952"><ele>633.0</ele><time>2026-04-26T16:23:55Z</time></trkpt><trkpt lat="43.37153135701093" lon="12.589351340603818"><ele>630.6666666666666</ele><time>2026-04-26T16:23:56Z</time></trkpt><trkpt lat="43.371374542438296" lon="12.589201643599326"><ele>628.3333333333333</ele><time>2026-04-26T16:23:57Z</time></trkpt><trkpt lat="43.37121263022495" lon="12.589106988523422"><ele>626.0</ele><time>2026-04-26T16:23:58Z</time></trkpt><trkpt lat="43.371017588484655" lon="12.5891018954894"><ele>626.0</ele><time>2026-04-26T16:23:59Z</time></trkpt><trkpt lat="43.37082013329276" lon="12.58914739289152"><ele>626.0</ele><time>2026-04-26T16:24:00Z</time></trkpt><trkpt lat="43.37062214664604" lon="12.589151046775765"><ele>626.0</ele><time>2026-04-26T16:24:01Z</time></trkpt><trkpt lat="43.37041225518873" lon="12.589068507554511"><ele>622.6666666666666</ele><time>2026-04-26T16:24:02Z</time></trkpt><trkpt lat="43.37022226343373" lon="12.588934647134142"><ele>619.3333333333334</ele><time>2026-04-26T16:24:03Z</time></trkpt><trkpt lat="43.37004375560291" lon="12.588770343931285"><ele>616.0</ele><time>2026-04-26T16:24:04Z</time></trkpt><trkpt lat="43.369888601495994" lon="12.588593571674165"><ele>616.0</ele><time>2026-04-26T16:24:05Z</time></trkpt><trkpt lat="43.36978091081477" lon="12.588391945871459"><ele>616.0</ele><time>2026-04-26T16:24:06Z</time></trkpt><trkpt lat="43.36968970312005" lon="12.588211501600052"><ele>616.0</ele><time>2026-04-26T16:24:07Z</time></trkpt><trkpt lat="43.36956400294015" lon="12.588094878255523"><ele>616.3333333333334</ele><time>2026-04-26T16:24:08Z</time></trkpt><trkpt lat="43.36939140865919" lon="12.588049149997525"><ele>616.6666666666666</ele><time>2026-04-26T16:24:09Z</time></trkpt><trkpt lat="43.36919354932762" lon="12.588064902626481"><ele>617.0</ele><time>2026-04-26T16:24:10Z</time></trkpt><trkpt lat="43.36899579823358" lon="12.588088330816442"><ele>620.3333333333333</ele><time>2026-04-26T16:24:11Z</time></trkpt><trkpt lat="43.36879878223868" lon="12.588083473639593"><ele>623.6666666666666</ele><time>2026-04-26T16:24:12Z</time></trkpt><trkpt lat="43.36860169327072" lon="12.588006852945705"><ele>627.0</ele><time>2026-04-26T16:24:13Z</time></trkpt><trkpt lat="43.368414937109755" lon="12.58787720618098"><ele>630.6666666666666</ele><time>2026-04-26T16:24:14Z</time></trkpt><trkpt lat="43.3682354661778" lon="12.587725562772668"><ele>634.3333333333333</ele><time>2026-04-26T16:24:15Z</time></trkpt><trkpt lat="43.368076912712944" lon="12.587596354972176"><ele>638.0</ele><time>2026-04-26T16:24:16Z</time></trkpt><trkpt lat="43.36794649908731" lon="12.58747157092123"><ele>638.0</ele><time>2026-04-26T16:24:17Z</time></trkpt><trkpt lat="43.36784696142724" lon="12.587317727214694"><ele>638.0</ele><time>2026-04-26T16:24:18Z</time></trkpt><trkpt lat="43.367782183212455" lon="12.587114503968511"><ele>638.0</ele><time>2026-04-26T16:24:19Z</time></trkpt><trkpt lat="43.36775139250746" lon="12.586886779757094"><ele>630.3333333333333</ele><time>2026-04-26T16:24:20Z</time></trkpt><trkpt lat="43.36776918433521" lon="12.58665496199378"><ele>622.6666666666666</ele><time>2026-04-26T16:24:21Z</time></trkpt><trkpt lat="43.36784957317173" lon="12.586420616204553"><ele>615.0</ele><time>2026-04-26T16:24:22Z</time></trkpt><trkpt lat="43.367954739659716" lon="12.586199716382417"><ele>619.0</ele><time>2026-04-26T16:24:23Z</time></trkpt><trkpt lat="43.36804590611469" lon="12.585970885239442"><ele>623.0</ele><time>2026-04-26T16:24:24Z</time></trkpt><trkpt lat="43.36811017819104" lon="12.585689752629817"><ele>627.0</ele><time>2026-04-26T16:24:25Z</time></trkpt><trkpt lat="43.368156657815966" lon="12.585399135438786"><ele>625.6666666666666</ele><time>2026-04-26T16:24:26Z</time></trkpt><trkpt lat="43.368192828864856" lon="12.58512939422723"><ele>624.3333333333333</ele><time>2026-04-26T16:24:27Z</time></trkpt><trkpt lat="43.3681874224369" lon="12.584882989803486"><ele>623.0</ele><time>2026-04-26T16:24:28Z</time></trkpt><trkpt lat="43.36815127399004" lon="12.584600709850706"><ele>622.6666666666666</ele><time>2026-04-26T16:24:29Z</time></trkpt><trkpt lat="43.368076218304594" lon="12.584324585724191"><ele>622.3333333333334</ele><time>2026-04-26T16:24:30Z</time></trkpt><trkpt lat="43.367987020494624" lon="12.584069550966403"><ele>622.0</ele><time>2026-04-26T16:24:31Z</time></trkpt><trkpt lat="43.36792265237646" lon="12.583860830440017"><ele>616.3333333333334</ele><time>2026-04-26T16:24:32Z</time></trkpt><trkpt lat="43.367840461694584" lon="12.583693642424533"><ele>610.6666666666666</ele><time>2026-04-26T16:24:33Z</time></trkpt><trkpt lat="43.36771329585166" lon="12.583549958983271"><ele>605.0</ele><time>2026-04-26T16:24:34Z</time></trkpt><trkpt lat="43.36754887817015" lon="12.583434973927968"><ele>604.3333333333333</ele><time>2026-04-26T16:24:35Z</time></trkpt><trkpt lat="43.367352091025346" lon="12.583350105208146"><ele>603.6666666666666</ele><time>2026-04-26T16:24:36Z</time></trkpt><trkpt lat="43.36714344985719" lon="12.58328724943782"><ele>603.0</ele><time>2026-04-26T16:24:37Z</time></trkpt><trkpt lat="43.36692234059319" lon="12.58324814395217"><ele>603.0</ele><time>2026-04-26T16:24:38Z</time></trkpt><trkpt lat="43.36671397521558" lon="12.583231052841487"><ele>603.0</ele><time>2026-04-26T16:24:39Z</time></trkpt><trkpt lat="43.36651330698448" lon="12.583191809172412"><ele>603.0</ele><time>2026-04-26T16:24:40Z</time></trkpt><trkpt lat="43.36634120774135" lon="12.583046246647806"><ele>598.0</ele><time>2026-04-26T16:24:41Z</time></trkpt><trkpt lat="43.366172788549235" lon="12.582856073141345"><ele>593.0</ele><time>2026-04-26T16:24:42Z</time></trkpt><trkpt lat="43.366028626371076" lon="12.582688295495464"><ele>588.0</ele><time>2026-04-26T16:24:43Z</time></trkpt><trkpt lat="43.3658784117577" lon="12.582553375144592"><ele>588.0</ele><time>2026-04-26T16:24:44Z</time></trkpt><trkpt lat="43.36570678925214" lon="12.582470703093344"><ele>588.0</ele><time>2026-04-26T16:24:45Z</time></trkpt><trkpt lat="43.36552762767261" lon="12.582454745356394"><ele>588.0</ele><time>2026-04-26T16:24:46Z</time></trkpt><trkpt lat="43.36533655679678" lon="12.582513172985248"><ele>585.3333333333334</ele><time>2026-04-26T16:24:47Z</time></trkpt><trkpt lat="43.36513820925805" lon="12.582634895672776"><ele>582.6666666666667</ele><time>2026-04-26T16:24:48Z</time></trkpt><trkpt lat="43.364961212486925" lon="12.582781216100924"><ele>580.0</ele><time>2026-04-26T16:24:49Z</time></trkpt><trkpt lat="43.36478250954979" lon="12.58287188548662"><ele>581.0</ele><time>2026-04-26T16:24:50Z</time></trkpt><trkpt lat="43.364586914400626" lon="12.582869544407245"><ele>582.0</ele><time>2026-04-26T16:24:51Z</time></trkpt><trkpt lat="43.36439326127724" lon="12.582820277379064"><ele>583.0</ele><time>2026-04-26T16:24:52Z</time></trkpt><trkpt lat="43.36422466885713" lon="12.58276726157468"><ele>583.0</ele><time>2026-04-26T16:24:53Z</time></trkpt><trkpt lat="43.36405094968735" lon="12.58277317619523"><ele>583.0</ele><time>2026-04-26T16:24:54Z</time></trkpt><trkpt lat="43.36387870342581" lon="12.582881792118087"><ele>583.0</ele><time>2026-04-26T16:24:54.999Z</time></trkpt><trkpt lat="43.36374099999183" lon="12.583057409477789"><ele>580.75</ele><time>2026-04-26T16:24:55.999Z</time></trkpt><trkpt lat="43.36360809093536" lon="12.583172849438757"><ele>578.5</ele><time>2026-04-26T16:24:56.999Z</time></trkpt><trkpt lat="43.36347323465885" lon="12.583226757805141"><ele>576.25</ele><time>2026-04-26T16:24:57.999Z</time></trkpt><trkpt lat="43.363324864741244" lon="12.583220013061844"><ele>574.0</ele><time>2026-04-26T16:24:58.999Z</time></trkpt><trkpt lat="43.363178722729536" lon="12.583126167055221"><ele>569.6666666666667</ele><time>2026-04-26T16:24:59.999Z</time></trkpt><trkpt lat="43.36300917820614" lon="12.583016762094218"><ele>565.3333333333334</ele><time>2026-04-26T16:25:00.999Z</time></trkpt><trkpt lat="43.362833189618534" lon="12.582911726138192"><ele>561.0</ele><time>2026-04-26T16:25:01.999Z</time></trkpt><trkpt lat="43.36269694335311" lon="12.582797425505003"><ele>561.0</ele><time>2026-04-26T16:25:02.999Z</time></trkpt><trkpt lat="43.36257015217444" lon="12.582723582528507"><ele>561.0</ele><time>2026-04-26T16:25:03.999Z</time></trkpt><trkpt lat="43.36245906359717" lon="12.582659620686448"><ele>561.0</ele><time>2026-04-26T16:25:04.999Z</time></trkpt><trkpt lat="43.36234885855788" lon="12.582583021046677"><ele>561.0</ele><time>2026-04-26T16:25:05.999Z</time></trkpt><trkpt lat="43.362217301663115" lon="12.582468830715335"><ele>566.6666666666666</ele><time>2026-04-26T16:25:06.999Z</time></trkpt><trkpt lat="43.36211640292636" lon="12.582355233888222"><ele>572.3333333333333</ele><time>2026-04-26T16:25:07.999Z</time></trkpt><trkpt lat="43.3619977579336" lon="12.582204467090689"><ele>578.0</ele><time>2026-04-26T16:25:08.999Z</time></trkpt><trkpt lat="43.36186468064478" lon="12.58201999356882"><ele>576.0</ele><time>2026-04-26T16:25:09.999Z</time></trkpt><trkpt lat="43.36169197771151" lon="12.581871035631375"><ele>574.0</ele><time>2026-04-26T16:25:10.999Z</time></trkpt><trkpt lat="43.36149369126906" lon="12.581701385939539"><ele>572.0</ele><time>2026-04-26T16:25:11.999Z</time></trkpt><trkpt lat="43.36129479807437" lon="12.581542293014516"><ele>572.0</ele><time>2026-04-26T16:25:12.999Z</time></trkpt><trkpt lat="43.3610884607251" lon="12.581377922041186"><ele>572.0</ele><time>2026-04-26T16:25:13.999Z</time></trkpt><trkpt lat="43.36089771020831" lon="12.581224925617992"><ele>572.3333333333333</ele><time>2026-04-26T16:25:14.999Z</time></trkpt><trkpt lat="43.360725443395054" lon="12.581087111423718"><ele>572.6666666666666</ele><time>2026-04-26T16:25:15.999Z</time></trkpt><trkpt lat="43.36057989513268" lon="12.580923032044012"><ele>573.0</ele><time>2026-04-26T16:25:16.999Z</time></trkpt><trkpt lat="43.36047951758974" lon="12.580706667783984"><ele>573.0</ele><time>2026-04-26T16:25:17.999Z</time></trkpt><trkpt lat="43.36040436975244" lon="12.580474946512073"><ele>573.0</ele><time>2026-04-26T16:25:18.999Z</time></trkpt><trkpt lat="43.36029692603173" lon="12.580280039128288"><ele>573.0</ele><time>2026-04-26T16:25:19.999Z</time></trkpt><trkpt lat="43.360136167035975" lon="12.580122202216877"><ele>577.6666666666666</ele><time>2026-04-26T16:25:20.999Z</time></trkpt><trkpt lat="43.35993615957243" lon="12.580009131423537"><ele>582.3333333333333</ele><time>2026-04-26T16:25:21.999Z</time></trkpt><trkpt lat="43.35972299058628" lon="12.57992500218064"><ele>587.0</ele><time>2026-04-26T16:25:22.999Z</time></trkpt><trkpt lat="43.35952079428902" lon="12.579832860996536"><ele>587.0</ele><time>2026-04-26T16:25:23.999Z</time></trkpt><trkpt lat="43.3593462988102" lon="12.57971320438897"><ele>587.0</ele><time>2026-04-26T16:25:24.999Z</time></trkpt><trkpt lat="43.359207166996455" lon="12.579550408261372"><ele>587.0</ele><time>2026-04-26T16:25:25.999Z</time></trkpt><trkpt lat="43.35909192193859" lon="12.579328605137471"><ele>569.0</ele><time>2026-04-26T16:25:26.999Z</time></trkpt><trkpt lat="43.35899596429649" lon="12.579064377670864"><ele>551.0</ele><time>2026-04-26T16:25:27.999Z</time></trkpt><trkpt lat="43.358896807412954" lon="12.57878064887687"><ele>533.0</ele><time>2026-04-26T16:25:28.999Z</time></trkpt><trkpt lat="43.35877524780079" lon="12.57850063014063"><ele>530.5</ele><time>2026-04-26T16:25:29.999Z</time></trkpt><trkpt lat="43.358638512169584" lon="12.578218928711237"><ele>528.0</ele><time>2026-04-26T16:25:30.999Z</time></trkpt><trkpt lat="43.35848954820746" lon="12.577929785349204"><ele>528.0</ele><time>2026-04-26T16:25:31.999Z</time></trkpt><trkpt lat="43.35834637905461" lon="12.577642885979095"><ele>528.0</ele><time>2026-04-26T16:25:32.999Z</time></trkpt><trkpt lat="43.35821126865102" lon="12.577374535868563"><ele>528.0</ele><time>2026-04-26T16:25:33.999Z</time></trkpt><trkpt lat="43.35808992363032" lon="12.57712630752223"><ele>528.0</ele><time>2026-04-26T16:25:34.999Z</time></trkpt><trkpt lat="43.35798304428553" lon="12.576905283217371"><ele>528.0</ele><time>2026-04-26T16:25:35.999Z</time></trkpt><trkpt lat="43.357881325888954" lon="12.576717917992855"><ele>526.3333333333334</ele><time>2026-04-26T16:25:36.999Z</time></trkpt><trkpt lat="43.3577403474107" lon="12.576569866861949"><ele>524.6666666666667</ele><time>2026-04-26T16:25:37.999Z</time></trkpt><trkpt lat="43.357554485209924" lon="12.576465951953931"><ele>523.0</ele><time>2026-04-26T16:25:38.999Z</time></trkpt><trkpt lat="43.357373578629634" lon="12.576362652195048"><ele>523.0</ele><time>2026-04-26T16:25:39.999Z</time></trkpt><trkpt lat="43.35720626026371" lon="12.576269840420824"><ele>523.0</ele><time>2026-04-26T16:25:40.999Z</time></trkpt><trkpt lat="43.35705639157336" lon="12.576185196718058"><ele>523.0</ele><time>2026-04-26T16:25:41.999Z</time></trkpt><trkpt lat="43.35692832603056" lon="12.576121960175941"><ele>522.4</ele><time>2026-04-26T16:25:42.999Z</time></trkpt><trkpt lat="43.35682274701047" lon="12.576080462898021"><ele>521.8</ele><time>2026-04-26T16:25:43.999Z</time></trkpt><trkpt lat="43.3567374837687" lon="12.576040090589785"><ele>521.2</ele><time>2026-04-26T16:25:45Z</time></trkpt><trkpt lat="43.356677181372845" lon="12.575989792526384"><ele>520.6</ele><time>2026-04-26T16:25:46Z</time></trkpt><trkpt lat="43.35662931110938" lon="12.575892704861863"><ele>520.0</ele><time>2026-04-26T16:25:47Z</time></trkpt><trkpt lat="43.3565999946461" lon="12.575765774680798"><ele>520.0</ele><time>2026-04-26T16:25:48Z</time></trkpt><trkpt lat="43.35657216530922" lon="12.575633488863271"><ele>520.0</ele><time>2026-04-26T16:25:49Z</time></trkpt><trkpt lat="43.356538181035056" lon="12.57549444093549"><ele>520.0</ele><time>2026-04-26T16:25:50Z</time></trkpt><trkpt lat="43.3565019461215" lon="12.575356717621052"><ele>520.0</ele><time>2026-04-26T16:25:51Z</time></trkpt><trkpt lat="43.356474223974644" lon="12.575222082837895"><ele>520.0</ele><time>2026-04-26T16:25:52Z</time></trkpt><trkpt lat="43.356436287266476" lon="12.575101488419497"><ele>521.2</ele><time>2026-04-26T16:25:53Z</time></trkpt><trkpt lat="43.35639748138647" lon="12.574989143400535"><ele>522.4</ele><time>2026-04-26T16:25:54Z</time></trkpt><trkpt lat="43.356360334216376" lon="12.57487625031909"><ele>523.6</ele><time>2026-04-26T16:25:55Z</time></trkpt><trkpt lat="43.35631713067092" lon="12.574756517399344"><ele>524.8</ele><time>2026-04-26T16:25:56Z</time></trkpt><trkpt lat="43.35627233022064" lon="12.574646561965956"><ele>526.0</ele><time>2026-04-26T16:25:57Z</time></trkpt><trkpt lat="43.35623507580378" lon="12.574543917882929"><ele>523.1666666666667</ele><time>2026-04-26T16:25:58Z</time></trkpt><trkpt lat="43.35620110435546" lon="12.57444916179152"><ele>520.3333333333334</ele><time>2026-04-26T16:25:59Z</time></trkpt><trkpt lat="43.35616582556087" lon="12.574368010119684"><ele>517.5</ele><time>2026-04-26T16:26:00Z</time></trkpt><trkpt lat="43.35610606926539" lon="12.574257122180674"><ele>514.6666666666666</ele><time>2026-04-26T16:26:02Z</time></trkpt><trkpt lat="43.35605211411005" lon="12.574100727595992"><ele>511.8333333333333</ele><time>2026-04-26T16:26:04Z</time></trkpt><trkpt lat="43.356001578906174" lon="12.574022248224662"><ele>509.0</ele><time>2026-04-26T16:26:05Z</time></trkpt><trkpt lat="43.355938024106045" lon="12.573944065347138"><ele>509.0</ele><time>2026-04-26T16:26:06Z</time></trkpt><trkpt lat="43.355878026267746" lon="12.573878543579038"><ele>509.0</ele><time>2026-04-26T16:26:07Z</time></trkpt><trkpt lat="43.35578458444169" lon="12.573843082953408"><ele>509.0</ele><time>2026-04-26T16:26:09Z</time></trkpt><trkpt lat="43.35572626277897" lon="12.573761403219493"><ele>509.0</ele><time>2026-04-26T16:26:11Z</time></trkpt><trkpt lat="43.35568297958106" lon="12.573647050165032"><ele>509.0</ele><time>2026-04-26T16:26:13Z</time></trkpt><trkpt lat="43.35563280870788" lon="12.57352010129782"><ele>508.99999999999994</ele><time>2026-04-26T16:26:15Z</time></trkpt><trkpt lat="43.355590481431435" lon="12.573438482543033"><ele>509.0</ele><time>2026-04-26T16:26:16Z</time></trkpt><trkpt lat="43.355547003829635" lon="12.573350092376575"><ele>509.0</ele><time>2026-04-26T16:26:17Z</time></trkpt><trkpt lat="43.355515852213394" lon="12.573263432607437"><ele>509.0</ele><time>2026-04-26T16:26:18Z</time></trkpt><trkpt lat="43.35546891347068" lon="12.573152687272655"><ele>508.99999999999994</ele><time>2026-04-26T16:26:20Z</time></trkpt><trkpt lat="43.355431755628146" lon="12.573066151508804"><ele>509.0</ele><time>2026-04-26T16:26:22Z</time></trkpt><trkpt lat="43.3553689714797" lon="12.572981728302345"><ele>508.0</ele><time>2026-04-26T16:26:24Z</time></trkpt><trkpt lat="43.35531201569096" lon="12.572852875149076"><ele>507.0</ele><time>2026-04-26T16:26:26Z</time></trkpt><trkpt lat="43.355257702633665" lon="12.572709851361164"><ele>506.0</ele><time>2026-04-26T16:26:28Z</time></trkpt><trkpt lat="43.35516701435487" lon="12.57259899898305"><ele>505.0</ele><time>2026-04-26T16:26:30Z</time></trkpt><trkpt lat="43.35509246443709" lon="12.572602735759872"><ele>504.0</ele><time>2026-04-26T16:26:31Z</time></trkpt><trkpt lat="43.35501481595238" lon="12.572644810429649"><ele>504.0</ele><time>2026-04-26T16:26:32Z</time></trkpt><trkpt lat="43.35494349948056" lon="12.572697983674828"><ele>504.0</ele><time>2026-04-26T16:26:33Z</time></trkpt><trkpt lat="43.354876485814025" lon="12.572726672793724"><ele>504.0</ele><time>2026-04-26T16:26:34Z</time></trkpt><trkpt lat="43.35480996076734" lon="12.572739574880547"><ele>504.0</ele><time>2026-04-26T16:26:35Z</time></trkpt><trkpt lat="43.35470289326554" lon="12.572782177747916"><ele>504.0</ele><time>2026-04-26T16:26:37Z</time></trkpt><trkpt lat="43.35460504322858" lon="12.572837365132946"><ele>504.0</ele><time>2026-04-26T16:26:39Z</time></trkpt><trkpt lat="43.35454318118417" lon="12.572874189595884"><ele>503.0</ele><time>2026-04-26T16:26:40Z</time></trkpt><trkpt lat="43.354482882714464" lon="12.572930785315764"><ele>502.0</ele><time>2026-04-26T16:26:41Z</time></trkpt><trkpt lat="43.35441535038422" lon="12.572991633462939"><ele>501.0</ele><time>2026-04-26T16:26:42Z</time></trkpt><trkpt lat="43.35434985323585" lon="12.573052599007656"><ele>500.0</ele><time>2026-04-26T16:26:43Z</time></trkpt><trkpt lat="43.35429476628646" lon="12.573103163106508"><ele>499.0</ele><time>2026-04-26T16:26:44Z</time></trkpt><trkpt lat="43.35419826466891" lon="12.573180717170677"><ele>498.0</ele><time>2026-04-26T16:26:46Z</time></trkpt><trkpt lat="43.35409857023723" lon="12.573230091608355"><ele>498.0</ele><time>2026-04-26T16:26:48Z</time></trkpt><trkpt lat="43.35403439128201" lon="12.573205276268272"><ele>498.0</ele><time>2026-04-26T16:26:49Z</time></trkpt><trkpt lat="43.35397073199416" lon="12.573123896670742"><ele>498.0</ele><time>2026-04-26T16:26:50Z</time></trkpt><trkpt lat="43.353911533515756" lon="12.573028658903144"><ele>498.0</ele><time>2026-04-26T16:26:51Z</time></trkpt><trkpt lat="43.353885683630594" lon="12.572927783861733"><ele>498.0</ele><time>2026-04-26T16:26:52Z</time></trkpt><trkpt lat="43.353806003932256" lon="12.572838150627522"><ele>498.0</ele><time>2026-04-26T16:26:53Z</time></trkpt><trkpt lat="43.353755987213944" lon="12.57275890495142"><ele>497.3333333333333</ele><time>2026-04-26T16:26:54Z</time></trkpt><trkpt lat="43.35370950333134" lon="12.572686535757212"><ele>496.66666666666663</ele><time>2026-04-26T16:26:55Z</time></trkpt><trkpt lat="43.353631713053076" lon="12.572552648958148"><ele>496.0</ele><time>2026-04-26T16:26:57Z</time></trkpt><trkpt lat="43.35357990897704" lon="12.57248415942175"><ele>495.3333333333333</ele><time>2026-04-26T16:26:58Z</time></trkpt><trkpt lat="43.35353188054124" lon="12.572391243758029"><ele>494.66666666666663</ele><time>2026-04-26T16:26:58.999Z</time></trkpt><trkpt lat="43.35346156318386" lon="12.572310463932428"><ele>494.0</ele><time>2026-04-26T16:26:59.999Z</time></trkpt><trkpt lat="43.353401469598886" lon="12.57220303146168"><ele>493.99999999999994</ele><time>2026-04-26T16:27:00.999Z</time></trkpt><trkpt lat="43.35334223893685" lon="12.572101997971718"><ele>494.0</ele><time>2026-04-26T16:27:01.999Z</time></trkpt><trkpt lat="43.35328883714222" lon="12.57200881945281"><ele>494.0</ele><time>2026-04-26T16:27:02.999Z</time></trkpt><trkpt lat="43.35323789407092" lon="12.57192089381922"><ele>494.0</ele><time>2026-04-26T16:27:03.999Z</time></trkpt><trkpt lat="43.35317643500556" lon="12.571831780152188"><ele>493.99999999999994</ele><time>2026-04-26T16:27:04.999Z</time></trkpt><trkpt lat="43.35310900226843" lon="12.571741142264637"><ele>494.0</ele><time>2026-04-26T16:27:05.999Z</time></trkpt><trkpt lat="43.35302582029054" lon="12.571655793984954"><ele>493.75</ele><time>2026-04-26T16:27:06.999Z</time></trkpt><trkpt lat="43.352936276261346" lon="12.571579744116724"><ele>493.5</ele><time>2026-04-26T16:27:07.999Z</time></trkpt><trkpt lat="43.35284106806674" lon="12.5715036475565"><ele>493.25</ele><time>2026-04-26T16:27:08.999Z</time></trkpt><trkpt lat="43.35274436564493" lon="12.571420817131434"><ele>493.0</ele><time>2026-04-26T16:27:09.999Z</time></trkpt><trkpt lat="43.35264063452997" lon="12.57132594091089"><ele>493.0</ele><time>2026-04-26T16:27:10.999Z</time></trkpt><trkpt lat="43.35252888424814" lon="12.571234176729105"><ele>493.0</ele><time>2026-04-26T16:27:11.999Z</time></trkpt><trkpt lat="43.352414070138536" lon="12.571143508883278"><ele>493.0</ele><time>2026-04-26T16:27:12.999Z</time></trkpt><trkpt lat="43.352297509839204" lon="12.571044696036024"><ele>493.0</ele><time>2026-04-26T16:27:13.999Z</time></trkpt><trkpt lat="43.35217080784611" lon="12.570939125443926"><ele>492.33333333333337</ele><time>2026-04-26T16:27:14.999Z</time></trkpt><trkpt lat="43.35203506951802" lon="12.57083412368304"><ele>491.66666666666663</ele><time>2026-04-26T16:27:15.999Z</time></trkpt><trkpt lat="43.35188421127417" lon="12.570718000277274"><ele>491.0</ele><time>2026-04-26T16:27:16.999Z</time></trkpt><trkpt lat="43.351739581587594" lon="12.57058706695693"><ele>491.0</ele><time>2026-04-26T16:27:17.999Z</time></trkpt><trkpt lat="43.35160894274584" lon="12.570457837400497"><ele>491.0</ele><time>2026-04-26T16:27:18.999Z</time></trkpt><trkpt lat="43.35148360611131" lon="12.57034003658075"><ele>491.0</ele><time>2026-04-26T16:27:19.999Z</time></trkpt><trkpt lat="43.35136409131738" lon="12.570241632056284"><ele>489.0</ele><time>2026-04-26T16:27:20.999Z</time></trkpt><trkpt lat="43.35125434524882" lon="12.570146896514611"><ele>487.0</ele><time>2026-04-26T16:27:21.999Z</time></trkpt><trkpt lat="43.351153998108934" lon="12.570056773833905"><ele>485.0</ele><time>2026-04-26T16:27:22.999Z</time></trkpt><trkpt lat="43.3510620154161" lon="12.569974950207452"><ele>483.0</ele><time>2026-04-26T16:27:23.999Z</time></trkpt><trkpt lat="43.35097218590587" lon="12.56989991794651"><ele>483.0</ele><time>2026-04-26T16:27:24.999Z</time></trkpt><trkpt lat="43.35088708569897" lon="12.569824415692437"><ele>482.99999999999994</ele><time>2026-04-26T16:27:25.999Z</time></trkpt><trkpt lat="43.3508045817654" lon="12.569752115399382"><ele>482.99999999999994</ele><time>2026-04-26T16:27:26.999Z</time></trkpt><trkpt lat="43.35072963406104" lon="12.569673694428015"><ele>483.0</ele><time>2026-04-26T16:27:27.999Z</time></trkpt><trkpt lat="43.350664140474606" lon="12.569582754479162"><ele>483.0</ele><time>2026-04-26T16:27:28.999Z</time></trkpt><trkpt lat="43.350592227384524" lon="12.56950589762334"><ele>482.59999999999997</ele><time>2026-04-26T16:27:29.999Z</time></trkpt><trkpt lat="43.35049907439437" lon="12.5694566663341"><ele>482.19999999999993</ele><time>2026-04-26T16:27:30.999Z</time></trkpt><trkpt lat="43.350406410027624" lon="12.56940177463139"><ele>481.8</ele><time>2026-04-26T16:27:31.999Z</time></trkpt><trkpt lat="43.35032768958108" lon="12.569331077434807"><ele>481.4</ele><time>2026-04-26T16:27:32.999Z</time></trkpt><trkpt lat="43.35024964244649" lon="12.569263274185342"><ele>481.0</ele><time>2026-04-26T16:27:33.999Z</time></trkpt><trkpt lat="43.35017666031859" lon="12.56919898785414"><ele>481.00000000000006</ele><time>2026-04-26T16:27:34.999Z</time></trkpt><trkpt lat="43.350107733292184" lon="12.569136751383311"><ele>481.0</ele><time>2026-04-26T16:27:35.999Z</time></trkpt><trkpt lat="43.35004207034162" lon="12.569078507190792"><ele>481.0</ele><time>2026-04-26T16:27:36.999Z</time></trkpt><trkpt lat="43.34998084624666" lon="12.569024648955034"><ele>481.0</ele><time>2026-04-26T16:27:37.999Z</time></trkpt><trkpt lat="43.34992214777027" lon="12.568969942502195"><ele>481.00000000000006</ele><time>2026-04-26T16:27:38.999Z</time></trkpt><trkpt lat="43.349855595216646" lon="12.568912250740333"><ele>481.0</ele><time>2026-04-26T16:27:39.999Z</time></trkpt><trkpt lat="43.349788775395766" lon="12.56885366833886"><ele>481.00000000000006</ele><time>2026-04-26T16:27:40.999Z</time></trkpt><trkpt lat="43.349730255262486" lon="12.568798072939753"><ele>481.0</ele><time>2026-04-26T16:27:41.999Z</time></trkpt><trkpt lat="43.349675119787" lon="12.568744588198596"><ele>481.0</ele><time>2026-04-26T16:27:42.999Z</time></trkpt><trkpt lat="43.34956306515037" lon="12.568650111932536"><ele>481.0</ele><time>2026-04-26T16:27:44.999Z</time></trkpt><trkpt lat="43.349500877923965" lon="12.568598180234266"><ele>481.00000000000006</ele><time>2026-04-26T16:27:45.999Z</time></trkpt><trkpt lat="43.349442457229586" lon="12.56854475443279"><ele>481.0</ele><time>2026-04-26T16:27:46.999Z</time></trkpt><trkpt lat="43.34934475245661" lon="12.568450393097184"><ele>480.6666666666667</ele><time>2026-04-26T16:27:48.999Z</time></trkpt><trkpt lat="43.34926407165287" lon="12.568383095034845"><ele>480.33333333333337</ele><time>2026-04-26T16:27:51Z</time></trkpt><trkpt lat="43.34920677706848" lon="12.56833316546029"><ele>480.0</ele><time>2026-04-26T16:27:53Z</time></trkpt><trkpt lat="43.34914828054569" lon="12.56828509117138"><ele>479.66666666666663</ele><time>2026-04-26T16:27:55Z</time></trkpt><trkpt lat="43.34906428595483" lon="12.568200606142534"><ele>479.3333333333333</ele><time>2026-04-26T16:27:57Z</time></trkpt><trkpt lat="43.34900625278341" lon="12.568151342968639"><ele>479.0</ele><time>2026-04-26T16:27:58Z</time></trkpt><trkpt lat="43.348943648684305" lon="12.568092470349292"><ele>478.3333333333333</ele><time>2026-04-26T16:27:59Z</time></trkpt><trkpt lat="43.34887491370902" lon="12.568033990518105"><ele>477.66666666666663</ele><time>2026-04-26T16:28:00Z</time></trkpt><trkpt lat="43.34880290231443" lon="12.567975063974878"><ele>477.0</ele><time>2026-04-26T16:28:01Z</time></trkpt><trkpt lat="43.348736602031735" lon="12.567912908183482"><ele>476.33333333333337</ele><time>2026-04-26T16:28:02Z</time></trkpt><trkpt lat="43.348676132962396" lon="12.567853799516634"><ele>475.6666666666667</ele><time>2026-04-26T16:28:03Z</time></trkpt><trkpt lat="43.348609521793506" lon="12.56779218740647"><ele>475.0</ele><time>2026-04-26T16:28:04Z</time></trkpt><trkpt lat="43.34853685987569" lon="12.567733578540118"><ele>474.83333333333337</ele><time>2026-04-26T16:28:05Z</time></trkpt><trkpt lat="43.3484715978545" lon="12.567673602779005"><ele>474.6666666666667</ele><time>2026-04-26T16:28:06Z</time></trkpt><trkpt lat="43.34840878861407" lon="12.567609447835732"><ele>474.5</ele><time>2026-04-26T16:28:07Z</time></trkpt><trkpt lat="43.348347985415266" lon="12.567553438554258"><ele>474.33333333333337</ele><time>2026-04-26T16:28:08Z</time></trkpt><trkpt lat="43.34829033527976" lon="12.567500237679724"><ele>474.1666666666667</ele><time>2026-04-26T16:28:09Z</time></trkpt><trkpt lat="43.34823965567133" lon="12.567447424061104"><ele>474.0</ele><time>2026-04-26T16:28:10Z</time></trkpt><trkpt lat="43.34814167382176" lon="12.567341353387581"><ele>473.99999999999994</ele><time>2026-04-26T16:28:12Z</time></trkpt><trkpt lat="43.34808932572983" lon="12.567272586473429"><ele>474.0</ele><time>2026-04-26T16:28:13Z</time></trkpt><trkpt lat="43.34802958859072" lon="12.5672045355696"><ele>473.99999999999994</ele><time>2026-04-26T16:28:14Z</time></trkpt><trkpt lat="43.347969599161964" lon="12.567138983469645"><ele>473.99999999999994</ele><time>2026-04-26T16:28:15Z</time></trkpt><trkpt lat="43.347918049536155" lon="12.567071957305469"><ele>474.0</ele><time>2026-04-26T16:28:16Z</time></trkpt><trkpt lat="43.347869922199855" lon="12.567010902357698"><ele>473.99999999999994</ele><time>2026-04-26T16:28:17Z</time></trkpt><trkpt lat="43.347820777395235" lon="12.566950429222192"><ele>473.99999999999994</ele><time>2026-04-26T16:28:18Z</time></trkpt><trkpt lat="43.34778421537964" lon="12.56686293624158"><ele>473.4</ele><time>2026-04-26T16:28:19Z</time></trkpt><trkpt lat="43.347735581145656" lon="12.566787079837422"><ele>472.79999999999995</ele><time>2026-04-26T16:28:20Z</time></trkpt><trkpt lat="43.34769224652955" lon="12.566718854497104"><ele>472.20000000000005</ele><time>2026-04-26T16:28:21Z</time></trkpt><trkpt lat="43.3476030129042" lon="12.566595585487406"><ele>471.6</ele><time>2026-04-26T16:28:23Z</time></trkpt><trkpt lat="43.34752667829844" lon="12.566457008815272"><ele>471.0</ele><time>2026-04-26T16:28:25Z</time></trkpt><trkpt lat="43.34748331425218" lon="12.566389422426612"><ele>471.0</ele><time>2026-04-26T16:28:26Z</time></trkpt><trkpt lat="43.347416731831636" lon="12.566266769503487"><ele>471.0</ele><time>2026-04-26T16:28:28Z</time></trkpt><trkpt lat="43.34734385816906" lon="12.566149963247277"><ele>471.0</ele><time>2026-04-26T16:28:30Z</time></trkpt><trkpt lat="43.34730172299326" lon="12.566082105914033"><ele>471.0</ele><time>2026-04-26T16:28:31Z</time></trkpt><trkpt lat="43.34725745254768" lon="12.566008149481881"><ele>471.0</ele><time>2026-04-26T16:28:32Z</time></trkpt><trkpt lat="43.3472081761386" lon="12.565930807674878"><ele>471.0</ele><time>2026-04-26T16:28:33Z</time></trkpt><trkpt lat="43.34715627932536" lon="12.565845931116332"><ele>470.4</ele><time>2026-04-26T16:28:34Z</time></trkpt><trkpt lat="43.34710020763826" lon="12.565754117263475"><ele>469.8</ele><time>2026-04-26T16:28:35Z</time></trkpt><trkpt lat="43.34703871184796" lon="12.565659096432432"><ele>469.19999999999993</ele><time>2026-04-26T16:28:36Z</time></trkpt><trkpt lat="43.34697583872341" lon="12.565550632228726"><ele>468.59999999999997</ele><time>2026-04-26T16:28:37Z</time></trkpt><trkpt lat="43.34690836456161" lon="12.565432072983265"><ele>468.0</ele><time>2026-04-26T16:28:38Z</time></trkpt><trkpt lat="43.34683420481061" lon="12.565310963130576"><ele>468.0</ele><time>2026-04-26T16:28:39Z</time></trkpt><trkpt lat="43.34676156957943" lon="12.565191086333138"><ele>468.0</ele><time>2026-04-26T16:28:40Z</time></trkpt><trkpt lat="43.346691778778734" lon="12.565074848545105"><ele>468.0</ele><time>2026-04-26T16:28:41Z</time></trkpt><trkpt lat="43.34661539788947" lon="12.564956410758032"><ele>468.0</ele><time>2026-04-26T16:28:42Z</time></trkpt><trkpt lat="43.346542513502534" lon="12.56483301845652"><ele>468.0</ele><time>2026-04-26T16:28:43Z</time></trkpt><trkpt lat="43.34647116079206" lon="12.564710028952563"><ele>467.99999999999994</ele><time>2026-04-26T16:28:44Z</time></trkpt><trkpt lat="43.34640007496092" lon="12.564593293510615"><ele>467.99999999999994</ele><time>2026-04-26T16:28:45Z</time></trkpt><trkpt lat="43.34633522729699" lon="12.56448000840634"><ele>468.0</ele><time>2026-04-26T16:28:46Z</time></trkpt><trkpt lat="43.346277232257584" lon="12.564385082075015"><ele>468.0</ele><time>2026-04-26T16:28:47Z</time></trkpt><trkpt lat="43.346230989654984" lon="12.56430619254265"><ele>467.79999999999995</ele><time>2026-04-26T16:28:48Z</time></trkpt><trkpt lat="43.3462124447957" lon="12.564222650011393"><ele>467.59999999999997</ele><time>2026-04-26T16:28:49Z</time></trkpt><trkpt lat="43.34618372258043" lon="12.564112952519835"><ele>467.40000000000003</ele><time>2026-04-26T16:28:51Z</time></trkpt><trkpt lat="43.34629669677111" lon="12.563993336396166"><ele>467.20000000000005</ele><time>2026-04-26T16:28:52Z</time></trkpt><trkpt lat="43.346349559320096" lon="12.563882955751197"><ele>467.0</ele><time>2026-04-26T16:28:53Z</time></trkpt><trkpt lat="43.34641346529607" lon="12.563785695268752"><ele>466.6</ele><time>2026-04-26T16:28:54Z</time></trkpt><trkpt lat="43.346482312543394" lon="12.563679783888945"><ele>466.20000000000005</ele><time>2026-04-26T16:28:55Z</time></trkpt><trkpt lat="43.34656036950585" lon="12.563566476594112"><ele>465.8</ele><time>2026-04-26T16:28:56Z</time></trkpt><trkpt lat="43.34663744675139" lon="12.563455245594204"><ele>465.4</ele><time>2026-04-26T16:28:57Z</time></trkpt><trkpt lat="43.34671424639242" lon="12.563338761811753"><ele>465.0</ele><time>2026-04-26T16:28:58Z</time></trkpt><trkpt lat="43.34680293085767" lon="12.563224021371427"><ele>465.0</ele><time>2026-04-26T16:28:59Z</time></trkpt><trkpt lat="43.346903648345936" lon="12.563107471893362"><ele>465.0</ele><time>2026-04-26T16:28:59.999Z</time></trkpt><trkpt lat="43.3470157248893" lon="12.562985700513046"><ele>465.0</ele><time>2026-04-26T16:29:00.999Z</time></trkpt><trkpt lat="43.347132947938505" lon="12.562848642239798"><ele>465.0</ele><time>2026-04-26T16:29:01.999Z</time></trkpt><trkpt lat="43.34725800291745" lon="12.562699066630952"><ele>465.0</ele><time>2026-04-26T16:29:02.999Z</time></trkpt><trkpt lat="43.34739262388446" lon="12.562539990443387"><ele>465.0</ele><time>2026-04-26T16:29:03.999Z</time></trkpt><trkpt lat="43.347543873208835" lon="12.56237683574126"><ele>465.0</ele><time>2026-04-26T16:29:04.999Z</time></trkpt><trkpt lat="43.34771074678458" lon="12.56220130233067"><ele>464.66666666666663</ele><time>2026-04-26T16:29:05.999Z</time></trkpt><trkpt lat="43.347877869214635" lon="12.56201995533568"><ele>464.3333333333333</ele><time>2026-04-26T16:29:06.999Z</time></trkpt><trkpt lat="43.34805340574242" lon="12.561829427384328"><ele>464.0</ele><time>2026-04-26T16:29:07.999Z</time></trkpt><trkpt lat="43.348237356423425" lon="12.561634740975686"><ele>465.0</ele><time>2026-04-26T16:29:08.999Z</time></trkpt><trkpt lat="43.34842510483509" lon="12.561433538998443"><ele>466.0</ele><time>2026-04-26T16:29:09.999Z</time></trkpt><trkpt lat="43.348618445077655" lon="12.56122635365508"><ele>464.5</ele><time>2026-04-26T16:29:10.999Z</time></trkpt><trkpt lat="43.34881540734806" lon="12.56101330079604"><ele>463.0</ele><time>2026-04-26T16:29:11.999Z</time></trkpt><trkpt lat="43.34901494006686" lon="12.56079400876118"><ele>462.5</ele><time>2026-04-26T16:29:12.999Z</time></trkpt><trkpt lat="43.349218203289475" lon="12.56056743804507"><ele>462.0</ele><time>2026-04-26T16:29:13.999Z</time></trkpt><trkpt lat="43.34942226934272" lon="12.560334065382408"><ele>461.5</ele><time>2026-04-26T16:29:14.999Z</time></trkpt><trkpt lat="43.349626707956844" lon="12.560091823715418"><ele>461.0</ele><time>2026-04-26T16:29:15.999Z</time></trkpt><trkpt lat="43.3498277362104" lon="12.559844182333464"><ele>461.0</ele><time>2026-04-26T16:29:16.999Z</time></trkpt><trkpt lat="43.35002573395956" lon="12.559598827460993"><ele>461.0</ele><time>2026-04-26T16:29:17.999Z</time></trkpt><trkpt lat="43.35021970446889" lon="12.559350994263756"><ele>460.5</ele><time>2026-04-26T16:29:18.999Z</time></trkpt><trkpt lat="43.35040793789108" lon="12.559095293438707"><ele>460.0</ele><time>2026-04-26T16:29:19.999Z</time></trkpt><trkpt lat="43.350596078255016" lon="12.558825836515755"><ele>461.0</ele><time>2026-04-26T16:29:20.999Z</time></trkpt><trkpt lat="43.350797802702495" lon="12.558565781388307"><ele>462.0</ele><time>2026-04-26T16:29:21.999Z</time></trkpt><trkpt lat="43.350988524824054" lon="12.558285123770867"><ele>462.0</ele><time>2026-04-26T16:29:22.999Z</time></trkpt><trkpt lat="43.35117648114627" lon="12.557995851755164"><ele>462.0</ele><time>2026-04-26T16:29:23.999Z</time></trkpt><trkpt lat="43.351364655017534" lon="12.557706980428769"><ele>460.0</ele><time>2026-04-26T16:29:24.999Z</time></trkpt><trkpt lat="43.35153848278492" lon="12.557429257357255"><ele>458.0</ele><time>2026-04-26T16:29:25.999Z</time></trkpt><trkpt lat="43.35170951530875" lon="12.557137948882094"><ele>457.0</ele><time>2026-04-26T16:29:26.999Z</time></trkpt><trkpt lat="43.35187935486396" lon="12.556838217879847"><ele>456.0</ele><time>2026-04-26T16:29:27.999Z</time></trkpt><trkpt lat="43.352037378052174" lon="12.556519574783884"><ele>458.0</ele><time>2026-04-26T16:29:28.999Z</time></trkpt><trkpt lat="43.35221785608906" lon="12.556218930264395"><ele>460.0</ele><time>2026-04-26T16:29:29.999Z</time></trkpt><trkpt lat="43.352394069084646" lon="12.555907899036509"><ele>460.0</ele><time>2026-04-26T16:29:30.999Z</time></trkpt><trkpt lat="43.35256890166928" lon="12.5555910620061"><ele>460.0</ele><time>2026-04-26T16:29:31.999Z</time></trkpt><trkpt lat="43.35274452803651" lon="12.555271661509055"><ele>460.0</ele><time>2026-04-26T16:29:32.999Z</time></trkpt><trkpt lat="43.35292142970199" lon="12.554951962333096"><ele>460.0</ele><time>2026-04-26T16:29:33.999Z</time></trkpt><trkpt lat="43.35309684186617" lon="12.55463279178053"><ele>459.0</ele><time>2026-04-26T16:29:34.999Z</time></trkpt><trkpt lat="43.353273685080254" lon="12.55430983670012"><ele>458.0</ele><time>2026-04-26T16:29:35.999Z</time></trkpt><trkpt lat="43.35345217649797" lon="12.553987999940693"><ele>458.0</ele><time>2026-04-26T16:29:36.999Z</time></trkpt><trkpt lat="43.35363339650844" lon="12.553664493159065"><ele>458.0</ele><time>2026-04-26T16:29:37.999Z</time></trkpt><trkpt lat="43.353814761048994" lon="12.553336319336426"><ele>458.5</ele><time>2026-04-26T16:29:38.999Z</time></trkpt><trkpt lat="43.35399273323914" lon="12.55300644364544"><ele>459.0</ele><time>2026-04-26T16:29:39.999Z</time></trkpt><trkpt lat="43.35417286652871" lon="12.552678220094872"><ele>459.0</ele><time>2026-04-26T16:29:40.999Z</time></trkpt><trkpt lat="43.35435347968321" lon="12.552348668163383"><ele>459.0</ele><time>2026-04-26T16:29:41.999Z</time></trkpt><trkpt lat="43.354535938382504" lon="12.552018986368669"><ele>459.5</ele><time>2026-04-26T16:29:42.999Z</time></trkpt><trkpt lat="43.3547144874404" lon="12.55168385828112"><ele>460.0</ele><time>2026-04-26T16:29:43.999Z</time></trkpt><trkpt lat="43.354883893147345" lon="12.551356624018558"><ele>459.0</ele><time>2026-04-26T16:29:44.999Z</time></trkpt><trkpt lat="43.35503651942605" lon="12.55102936416642"><ele>458.0</ele><time>2026-04-26T16:29:45.999Z</time></trkpt><trkpt lat="43.355178571324764" lon="12.550695844624478"><ele>458.5</ele><time>2026-04-26T16:29:46.999Z</time></trkpt><trkpt lat="43.35530783330693" lon="12.550352726736584"><ele>459.0</ele><time>2026-04-26T16:29:47.999Z</time></trkpt><trkpt lat="43.35542884767436" lon="12.55000476236611"><ele>460.5</ele><time>2026-04-26T16:29:48.999Z</time></trkpt><trkpt lat="43.35554649546891" lon="12.54965138665006"><ele>462.0</ele><time>2026-04-26T16:29:49.999Z</time></trkpt><trkpt lat="43.35565582127684" lon="12.54928708900855"><ele>462.0</ele><time>2026-04-26T16:29:50.999Z</time></trkpt><trkpt lat="43.35575132509641" lon="12.548917103424643"><ele>462.0</ele><time>2026-04-26T16:29:51.999Z</time></trkpt><trkpt lat="43.35583415147072" lon="12.548539609209088"><ele>461.5</ele><time>2026-04-26T16:29:52.999Z</time></trkpt><trkpt lat="43.35590422189213" lon="12.548157158094385"><ele>461.0</ele><time>2026-04-26T16:29:53.999Z</time></trkpt><trkpt lat="43.35596502116208" lon="12.54776870371336"><ele>459.0</ele><time>2026-04-26T16:29:54.999Z</time></trkpt><trkpt lat="43.35602075168793" lon="12.547379308570822"><ele>457.0</ele><time>2026-04-26T16:29:55.999Z</time></trkpt><trkpt lat="43.35607304983527" lon="12.546985210653272"><ele>456.5</ele><time>2026-04-26T16:29:57Z</time></trkpt><trkpt lat="43.35612226175892" lon="12.546606140951868"><ele>456.0</ele><time>2026-04-26T16:29:58Z</time></trkpt><trkpt lat="43.356167255814874" lon="12.546248972889494"><ele>456.0</ele><time>2026-04-26T16:29:59Z</time></trkpt><trkpt lat="43.356208730228765" lon="12.545910470725111"><ele>456.0</ele><time>2026-04-26T16:30:00Z</time></trkpt><trkpt lat="43.35624949853188" lon="12.54557453863483"><ele>454.5</ele><time>2026-04-26T16:30:01Z</time></trkpt><trkpt lat="43.35629617924679" lon="12.545222089625577"><ele>453.0</ele><time>2026-04-26T16:30:02Z</time></trkpt><trkpt lat="43.35634668197766" lon="12.544866022132723"><ele>454.5</ele><time>2026-04-26T16:30:03Z</time></trkpt><trkpt lat="43.35639344086715" lon="12.54450387428924"><ele>456.0</ele><time>2026-04-26T16:30:04Z</time></trkpt><trkpt lat="43.35643829015456" lon="12.544134268333096"><ele>456.0</ele><time>2026-04-26T16:30:05Z</time></trkpt><trkpt lat="43.35648457363771" lon="12.54376039409356"><ele>456.0</ele><time>2026-04-26T16:30:06Z</time></trkpt><trkpt lat="43.35653248763319" lon="12.543381506976063"><ele>454.5</ele><time>2026-04-26T16:30:07Z</time></trkpt><trkpt lat="43.35658238074369" lon="12.542999761632775"><ele>453.0</ele><time>2026-04-26T16:30:08Z</time></trkpt><trkpt lat="43.35663223529965" lon="12.54261321461808"><ele>452.5</ele><time>2026-04-26T16:30:09Z</time></trkpt><trkpt lat="43.35668163349241" lon="12.542223418627268"><ele>452.0</ele><time>2026-04-26T16:30:10Z</time></trkpt><trkpt lat="43.356732447622164" lon="12.541828524458552"><ele>451.0</ele><time>2026-04-26T16:30:11Z</time></trkpt><trkpt lat="43.356783849154034" lon="12.541428588078402"><ele>450.0</ele><time>2026-04-26T16:30:12Z</time></trkpt><trkpt lat="43.35683546008073" lon="12.541024882676275"><ele>449.5</ele><time>2026-04-26T16:30:13Z</time></trkpt><trkpt lat="43.35688736333151" lon="12.540614758714472"><ele>449.0</ele><time>2026-04-26T16:30:14Z</time></trkpt><trkpt lat="43.356938987609425" lon="12.540199314413671"><ele>448.0</ele><time>2026-04-26T16:30:15Z</time></trkpt><trkpt lat="43.35699359414719" lon="12.539781492599557"><ele>447.0</ele><time>2026-04-26T16:30:16Z</time></trkpt><trkpt lat="43.35704610907771" lon="12.539360750690626"><ele>447.0</ele><time>2026-04-26T16:30:17Z</time></trkpt><trkpt lat="43.35709920056318" lon="12.538940658392885"><ele>447.0</ele><time>2026-04-26T16:30:18Z</time></trkpt><trkpt lat="43.35715487149089" lon="12.538528771564017"><ele>446.5</ele><time>2026-04-26T16:30:19Z</time></trkpt><trkpt lat="43.35720601763085" lon="12.53812286408285"><ele>446.0</ele><time>2026-04-26T16:30:20Z</time></trkpt><trkpt lat="43.357250611941836" lon="12.537725016347391"><ele>444.5</ele><time>2026-04-26T16:30:21Z</time></trkpt><trkpt lat="43.357295284564856" lon="12.537351144433071"><ele>443.0</ele><time>2026-04-26T16:30:22Z</time></trkpt><trkpt lat="43.357341024581864" lon="12.536994615225431"><ele>442.0</ele><time>2026-04-26T16:30:23Z</time></trkpt><trkpt lat="43.3573844160441" lon="12.53664530845061"><ele>441.0</ele><time>2026-04-26T16:30:24Z</time></trkpt><trkpt lat="43.35742587984401" lon="12.536280123520145"><ele>440.5</ele><time>2026-04-26T16:30:25Z</time></trkpt><trkpt lat="43.357472418409486" lon="12.535904510085976"><ele>440.0</ele><time>2026-04-26T16:30:26Z</time></trkpt><trkpt lat="43.3575258503829" lon="12.535524440124584"><ele>438.5</ele><time>2026-04-26T16:30:27Z</time></trkpt><trkpt lat="43.35758369741624" lon="12.535141172395017"><ele>437.0</ele><time>2026-04-26T16:30:28Z</time></trkpt><trkpt lat="43.357634575773105" lon="12.534750708205891"><ele>437.0</ele><time>2026-04-26T16:30:29Z</time></trkpt><trkpt lat="43.357685217520554" lon="12.534354246926146"><ele>437.0</ele><time>2026-04-26T16:30:30Z</time></trkpt><trkpt lat="43.35774377767789" lon="12.533955064591646"><ele>436.0</ele><time>2026-04-26T16:30:31Z</time></trkpt><trkpt lat="43.357817490984296" lon="12.533557554914598"><ele>435.0</ele><time>2026-04-26T16:30:32Z</time></trkpt><trkpt lat="43.3579088084783" lon="12.533159900770306"><ele>435.0</ele><time>2026-04-26T16:30:33Z</time></trkpt><trkpt lat="43.35801813393868" lon="12.532767884234742"><ele>435.0</ele><time>2026-04-26T16:30:34Z</time></trkpt><trkpt lat="43.35814625321176" lon="12.532386581311727"><ele>433.0</ele><time>2026-04-26T16:30:35Z</time></trkpt><trkpt lat="43.35829556416547" lon="12.53201799640127"><ele>431.0</ele><time>2026-04-26T16:30:36Z</time></trkpt><trkpt lat="43.35846103051501" lon="12.531657620320336"><ele>431.0</ele><time>2026-04-26T16:30:37Z</time></trkpt><trkpt lat="43.35864615671497" lon="12.531311093800314"><ele>431.0</ele><time>2026-04-26T16:30:38Z</time></trkpt><trkpt lat="43.358843517592504" lon="12.530974433670371"><ele>430.5</ele><time>2026-04-26T16:30:39Z</time></trkpt><trkpt lat="43.35903914258871" lon="12.530636074682617"><ele>430.0</ele><time>2026-04-26T16:30:40Z</time></trkpt><trkpt lat="43.359235039239884" lon="12.530295327081683"><ele>430.0</ele><time>2026-04-26T16:30:41Z</time></trkpt><trkpt lat="43.35943185282755" lon="12.529951701553463"><ele>430.0</ele><time>2026-04-26T16:30:42Z</time></trkpt><trkpt lat="43.3596291081544" lon="12.52960439045461"><ele>430.0</ele><time>2026-04-26T16:30:43Z</time></trkpt><trkpt lat="43.35982636320057" lon="12.52925440655539"><ele>430.0</ele><time>2026-04-26T16:30:44Z</time></trkpt><trkpt lat="43.3600241359779" lon="12.528904829445493"><ele>428.5</ele><time>2026-04-26T16:30:45Z</time></trkpt><trkpt lat="43.36022265678895" lon="12.52855537828493"><ele>427.0</ele><time>2026-04-26T16:30:46Z</time></trkpt><trkpt lat="43.360421758529355" lon="12.52820700181401"><ele>426.5</ele><time>2026-04-26T16:30:47Z</time></trkpt><trkpt lat="43.3606240743014" lon="12.527855711389178"><ele>426.0</ele><time>2026-04-26T16:30:48Z</time></trkpt><trkpt lat="43.36082746780431" lon="12.527504176350659"><ele>426.0</ele><time>2026-04-26T16:30:49Z</time></trkpt><trkpt lat="43.36102879874485" lon="12.527152312212708"><ele>426.0</ele><time>2026-04-26T16:30:50Z</time></trkpt><trkpt lat="43.36123059309911" lon="12.52679705949473"><ele>427.0</ele><time>2026-04-26T16:30:51Z</time></trkpt><trkpt lat="43.36143220245637" lon="12.526441561200208"><ele>428.0</ele><time>2026-04-26T16:30:52Z</time></trkpt><trkpt lat="43.36163183568932" lon="12.526082791883496"><ele>425.0</ele><time>2026-04-26T16:30:53Z</time></trkpt><trkpt lat="43.36183539825098" lon="12.52572662777772"><ele>422.0</ele><time>2026-04-26T16:30:54Z</time></trkpt><trkpt lat="43.36203961526859" lon="12.525370061002208"><ele>421.5</ele><time>2026-04-26T16:30:55Z</time></trkpt><trkpt lat="43.36224499881051" lon="12.525013123645978"><ele>421.0</ele><time>2026-04-26T16:30:56Z</time></trkpt><trkpt lat="43.36244905435701" lon="12.524655095128768"><ele>421.5</ele><time>2026-04-26T16:30:57Z</time></trkpt><trkpt lat="43.36265477015463" lon="12.524294626514427"><ele>422.0</ele><time>2026-04-26T16:30:58Z</time></trkpt><trkpt lat="43.362861059846324" lon="12.523934729111724"><ele>420.0</ele><time>2026-04-26T16:30:59Z</time></trkpt><trkpt lat="43.363064802021086" lon="12.523575894820395"><ele>418.0</ele><time>2026-04-26T16:31:00Z</time></trkpt><trkpt lat="43.363271478531125" lon="12.523215806464691"><ele>416.5</ele><time>2026-04-26T16:31:01Z</time></trkpt><trkpt lat="43.36347633049893" lon="12.522854538529783"><ele>415.0</ele><time>2026-04-26T16:31:02Z</time></trkpt><trkpt lat="43.36368434192446" lon="12.522493370996674"><ele>415.0</ele><time>2026-04-26T16:31:02.999Z</time></trkpt><trkpt lat="43.363891006029014" lon="12.522130946127843"><ele>415.0</ele><time>2026-04-26T16:31:03.999Z</time></trkpt><trkpt lat="43.364096556321414" lon="12.521768463926499"><ele>415.0</ele><time>2026-04-26T16:31:04.999Z</time></trkpt><trkpt lat="43.3643025854884" lon="12.521404814828298"><ele>415.0</ele><time>2026-04-26T16:31:05.999Z</time></trkpt><trkpt lat="43.364507926734305" lon="12.521037572183474"><ele>414.5</ele><time>2026-04-26T16:31:06.999Z</time></trkpt><trkpt lat="43.364708622930266" lon="12.520672918756727"><ele>414.0</ele><time>2026-04-26T16:31:07.999Z</time></trkpt><trkpt lat="43.36491198179295" lon="12.520306313733364"><ele>414.0</ele><time>2026-04-26T16:31:08.999Z</time></trkpt><trkpt lat="43.365111539985506" lon="12.519939518708792"><ele>414.0</ele><time>2026-04-26T16:31:09.999Z</time></trkpt><trkpt lat="43.36530908594038" lon="12.519571548816925"><ele>412.5</ele><time>2026-04-26T16:31:10.999Z</time></trkpt><trkpt lat="43.3655034502305" lon="12.519197803496558"><ele>411.0</ele><time>2026-04-26T16:31:11.999Z</time></trkpt><trkpt lat="43.3656945993962" lon="12.518820437915373"><ele>410.5</ele><time>2026-04-26T16:31:12.999Z</time></trkpt><trkpt lat="43.36588460024456" lon="12.518441959940201"><ele>410.0</ele><time>2026-04-26T16:31:13.999Z</time></trkpt><trkpt lat="43.36607197336558" lon="12.518062156800461"><ele>410.0</ele><time>2026-04-26T16:31:14.999Z</time></trkpt><trkpt lat="43.36625613399156" lon="12.517683931266381"><ele>410.0</ele><time>2026-04-26T16:31:15.999Z</time></trkpt><trkpt lat="43.36644246102473" lon="12.517303010655905"><ele>409.0</ele><time>2026-04-26T16:31:16.999Z</time></trkpt><trkpt lat="43.36662610732781" lon="12.5169202853347"><ele>408.0</ele><time>2026-04-26T16:31:17.999Z</time></trkpt><trkpt lat="43.366808795031936" lon="12.516538610524158"><ele>406.5</ele><time>2026-04-26T16:31:18.999Z</time></trkpt><trkpt lat="43.366992145243124" lon="12.51615733183817"><ele>405.0</ele><time>2026-04-26T16:31:19.999Z</time></trkpt><trkpt lat="43.36718020267287" lon="12.515774307631595"><ele>404.5</ele><time>2026-04-26T16:31:20.999Z</time></trkpt><trkpt lat="43.36736661683963" lon="12.51539752999718"><ele>404.0</ele><time>2026-04-26T16:31:21.999Z</time></trkpt><trkpt lat="43.36755773937673" lon="12.515020856884634"><ele>404.0</ele><time>2026-04-26T16:31:22.999Z</time></trkpt><trkpt lat="43.36775324849227" lon="12.514644339400236"><ele>404.0</ele><time>2026-04-26T16:31:23.999Z</time></trkpt><trkpt lat="43.36794612771202" lon="12.514271912469285"><ele>404.0</ele><time>2026-04-26T16:31:24.999Z</time></trkpt><trkpt lat="43.36813683398942" lon="12.513906246126576"><ele>404.0</ele><time>2026-04-26T16:31:25.999Z</time></trkpt><trkpt lat="43.36832918774313" lon="12.513548999175494"><ele>403.5</ele><time>2026-04-26T16:31:26.999Z</time></trkpt><trkpt lat="43.36851946311816" lon="12.513201285018075"><ele>403.0</ele><time>2026-04-26T16:31:27.999Z</time></trkpt><trkpt lat="43.36870156175412" lon="12.512870542645814"><ele>402.0</ele><time>2026-04-26T16:31:28.999Z</time></trkpt><trkpt lat="43.36887864388501" lon="12.512549915787742"><ele>401.0</ele><time>2026-04-26T16:31:29.999Z</time></trkpt><trkpt lat="43.369057447802085" lon="12.512232518849672"><ele>401.0</ele><time>2026-04-26T16:31:30.999Z</time></trkpt><trkpt lat="43.369227035147745" lon="12.511938252033033"><ele>401.0</ele><time>2026-04-26T16:31:31.999Z</time></trkpt><trkpt lat="43.369395175624916" lon="12.511660644210018"><ele>401.0</ele><time>2026-04-26T16:31:32.999Z</time></trkpt><trkpt lat="43.369563342397825" lon="12.511380125465116"><ele>401.0</ele><time>2026-04-26T16:31:33.999Z</time></trkpt><trkpt lat="43.3697344046304" lon="12.51108821091834"><ele>401.0</ele><time>2026-04-26T16:31:34.999Z</time></trkpt><trkpt lat="43.36990945013955" lon="12.510788124370666"><ele>401.0</ele><time>2026-04-26T16:31:35.999Z</time></trkpt><trkpt lat="43.37008604223882" lon="12.510485061083997"><ele>399.5</ele><time>2026-04-26T16:31:36.999Z</time></trkpt><trkpt lat="43.370266176285085" lon="12.51018432980954"><ele>398.0</ele><time>2026-04-26T16:31:37.999Z</time></trkpt><trkpt lat="43.37045131203932" lon="12.509883655874036"><ele>398.5</ele><time>2026-04-26T16:31:38.999Z</time></trkpt><trkpt lat="43.370637962758174" lon="12.509578694542316"><ele>399.0</ele><time>2026-04-26T16:31:39.999Z</time></trkpt><trkpt lat="43.37082733200586" lon="12.509273652087648"><ele>399.0</ele><time>2026-04-26T16:31:40.999Z</time></trkpt><trkpt lat="43.371014980086265" lon="12.508964589775324"><ele>399.0</ele><time>2026-04-26T16:31:41.999Z</time></trkpt><trkpt lat="43.3712082509409" lon="12.508657372591557"><ele>399.0</ele><time>2026-04-26T16:31:42.999Z</time></trkpt><trkpt lat="43.37139561453401" lon="12.508341129438499"><ele>399.0</ele><time>2026-04-26T16:31:43.999Z</time></trkpt><trkpt lat="43.37158147018046" lon="12.508019593826742"><ele>398.5</ele><time>2026-04-26T16:31:44.999Z</time></trkpt><trkpt lat="43.37176659186529" lon="12.507690926695078"><ele>398.0</ele><time>2026-04-26T16:31:45.999Z</time></trkpt><trkpt lat="43.37195235416734" lon="12.507367028461509"><ele>397.5</ele><time>2026-04-26T16:31:46.999Z</time></trkpt><trkpt lat="43.372135900850665" lon="12.507035883373254"><ele>397.0</ele><time>2026-04-26T16:31:47.999Z</time></trkpt><trkpt lat="43.372318389589516" lon="12.506699004907254"><ele>398.0</ele><time>2026-04-26T16:31:48.999Z</time></trkpt><trkpt lat="43.372499053042965" lon="12.506361522992766"><ele>399.0</ele><time>2026-04-26T16:31:49.999Z</time></trkpt><trkpt lat="43.37267675825431" lon="12.506021578845015"><ele>399.5</ele><time>2026-04-26T16:31:50.999Z</time></trkpt><trkpt lat="43.372856238929025" lon="12.5056814146565"><ele>400.0</ele><time>2026-04-26T16:31:51.999Z</time></trkpt><trkpt lat="43.373034113222914" lon="12.505341537846276"><ele>402.0</ele><time>2026-04-26T16:31:52.999Z</time></trkpt><trkpt lat="43.37321311332838" lon="12.50500085693422"><ele>404.0</ele><time>2026-04-26T16:31:53.999Z</time></trkpt><trkpt lat="43.37338199743573" lon="12.504660124304749"><ele>403.5</ele><time>2026-04-26T16:31:54.999Z</time></trkpt><trkpt lat="43.37355495745496" lon="12.50432865023129"><ele>403.0</ele><time>2026-04-26T16:31:55.999Z</time></trkpt><trkpt lat="43.37372262093591" lon="12.5040027011977"><ele>404.0</ele><time>2026-04-26T16:31:56.999Z</time></trkpt><trkpt lat="43.3738936986313" lon="12.5036733231105"><ele>405.0</ele><time>2026-04-26T16:31:57.999Z</time></trkpt><trkpt lat="43.37406912342103" lon="12.503344395930974"><ele>405.0</ele><time>2026-04-26T16:31:58.999Z</time></trkpt><trkpt lat="43.37424639719166" lon="12.503019040502558"><ele>405.0</ele><time>2026-04-26T16:31:59.999Z</time></trkpt><trkpt lat="43.374422013610605" lon="12.502692395600189"><ele>405.5</ele><time>2026-04-26T16:32:00.999Z</time></trkpt><trkpt lat="43.374595980901454" lon="12.502361994070075"><ele>406.0</ele><time>2026-04-26T16:32:01.999Z</time></trkpt><trkpt lat="43.37477091101138" lon="12.50203359739595"><ele>408.5</ele><time>2026-04-26T16:32:03Z</time></trkpt><trkpt lat="43.374942513681596" lon="12.501704487518678"><ele>411.0</ele><time>2026-04-26T16:32:04Z</time></trkpt><trkpt lat="43.37511620088565" lon="12.501378414609603"><ele>411.0</ele><time>2026-04-26T16:32:05Z</time></trkpt><trkpt lat="43.375288900960136" lon="12.501049468873445"><ele>411.0</ele><time>2026-04-26T16:32:06Z</time></trkpt><trkpt lat="43.37545908067794" lon="12.500718924672698"><ele>411.0</ele><time>2026-04-26T16:32:07Z</time></trkpt><trkpt lat="43.37562914954626" lon="12.50039379146222"><ele>411.0</ele><time>2026-04-26T16:32:08Z</time></trkpt><trkpt lat="43.375796692780014" lon="12.500063978903087"><ele>411.0</ele><time>2026-04-26T16:32:09Z</time></trkpt><trkpt lat="43.37595127748641" lon="12.49972812178954"><ele>411.0</ele><time>2026-04-26T16:32:10Z</time></trkpt><trkpt lat="43.376091898224416" lon="12.499388981288924"><ele>411.5</ele><time>2026-04-26T16:32:11Z</time></trkpt><trkpt lat="43.37620691536587" lon="12.4990666170072"><ele>412.0</ele><time>2026-04-26T16:32:12Z</time></trkpt><trkpt lat="43.37631075423271" lon="12.4987539224911"><ele>412.5</ele><time>2026-04-26T16:32:13Z</time></trkpt><trkpt lat="43.37639840939377" lon="12.498435561106676"><ele>413.0</ele><time>2026-04-26T16:32:14Z</time></trkpt><trkpt lat="43.37647447283989" lon="12.498104759836743"><ele>411.5</ele><time>2026-04-26T16:32:15Z</time></trkpt><trkpt lat="43.37653361949259" lon="12.49776344361858"><ele>410.0</ele><time>2026-04-26T16:32:16Z</time></trkpt><trkpt lat="43.37658925662448" lon="12.497426016827173"><ele>410.0</ele><time>2026-04-26T16:32:17Z</time></trkpt><trkpt lat="43.37664354100329" lon="12.49709654158255"><ele>410.0</ele><time>2026-04-26T16:32:18Z</time></trkpt><trkpt lat="43.37669896165925" lon="12.496777540741935"><ele>410.3333333333333</ele><time>2026-04-26T16:32:19Z</time></trkpt><trkpt lat="43.3767454050557" lon="12.496471254901515"><ele>410.66666666666663</ele><time>2026-04-26T16:32:20Z</time></trkpt><trkpt lat="43.3767901902826" lon="12.4961741495936"><ele>411.0</ele><time>2026-04-26T16:32:21Z</time></trkpt><trkpt lat="43.37683557677238" lon="12.495874027367027"><ele>411.5</ele><time>2026-04-26T16:32:22Z</time></trkpt><trkpt lat="43.37688301245324" lon="12.495571132372687"><ele>412.0</ele><time>2026-04-26T16:32:23Z</time></trkpt><trkpt lat="43.376931342918866" lon="12.495263942732045"><ele>412.0</ele><time>2026-04-26T16:32:24Z</time></trkpt><trkpt lat="43.376980935446475" lon="12.494953681828868"><ele>412.0</ele><time>2026-04-26T16:32:25Z</time></trkpt><trkpt lat="43.3770297386768" lon="12.494650564572586"><ele>412.0</ele><time>2026-04-26T16:32:26Z</time></trkpt><trkpt lat="43.37707547000291" lon="12.494367517768547"><ele>412.0</ele><time>2026-04-26T16:32:27Z</time></trkpt><trkpt lat="43.377117135016654" lon="12.494111764600222"><ele>412.0</ele><time>2026-04-26T16:32:28Z</time></trkpt><trkpt lat="43.377153679733" lon="12.493886316778811"><ele>412.0</ele><time>2026-04-26T16:32:29Z</time></trkpt><trkpt lat="43.37719297565223" lon="12.49368359469883"><ele>412.0</ele><time>2026-04-26T16:32:30Z</time></trkpt><trkpt lat="43.37725642336301" lon="12.49351587000108"><ele>412.0</ele><time>2026-04-26T16:32:31Z</time></trkpt><trkpt lat="43.37734276405408" lon="12.49338877147575"><ele>412.0</ele><time>2026-04-26T16:32:32Z</time></trkpt><trkpt lat="43.377452630338375" lon="12.493311044778046"><ele>412.0</ele><time>2026-04-26T16:32:33Z</time></trkpt><trkpt lat="43.37756832894086" lon="12.493286938977864"><ele>412.0</ele><time>2026-04-26T16:32:34Z</time></trkpt><trkpt lat="43.3776778925757" lon="12.493295617910501"><ele>412.0</ele><time>2026-04-26T16:32:35Z</time></trkpt><trkpt lat="43.377767246623876" lon="12.49330953494078"><ele>412.0</ele><time>2026-04-26T16:32:36Z</time></trkpt><trkpt lat="43.377848449314996" lon="12.493303188953632"><ele>412.0</ele><time>2026-04-26T16:32:38Z</time></trkpt><trkpt lat="43.37785939369322" lon="12.493138671375117"><ele>412.0</ele><time>2026-04-26T16:32:48Z</time></trkpt><trkpt lat="43.37782320634275" lon="12.493006059542669"><ele>412.0</ele><time>2026-04-26T16:32:49Z</time></trkpt><trkpt lat="43.37776775581564" lon="12.492848798178624"><ele>412.0</ele><time>2026-04-26T16:32:50Z</time></trkpt><trkpt lat="43.37770414608529" lon="12.492673291218939"><ele>412.0</ele><time>2026-04-26T16:32:51Z</time></trkpt><trkpt lat="43.377655365476066" lon="12.492462897876422"><ele>411.33333333333337</ele><time>2026-04-26T16:32:52Z</time></trkpt><trkpt lat="43.377577522966035" lon="12.492253150676227"><ele>410.66666666666663</ele><time>2026-04-26T16:32:53Z</time></trkpt><trkpt lat="43.3774924727466" lon="12.49202398225235"><ele>410.0</ele><time>2026-04-26T16:32:54Z</time></trkpt><trkpt lat="43.377385409425074" lon="12.491793250532096"><ele>410.0</ele><time>2026-04-26T16:32:55Z</time></trkpt><trkpt lat="43.37728720671598" lon="12.49154036933874"><ele>410.0</ele><time>2026-04-26T16:32:56Z</time></trkpt><trkpt lat="43.37720743303551" lon="12.491286140112798"><ele>410.0</ele><time>2026-04-26T16:32:57Z</time></trkpt><trkpt lat="43.37716860596536" lon="12.491016182841737"><ele>410.66666666666663</ele><time>2026-04-26T16:32:58Z</time></trkpt><trkpt lat="43.377173406969064" lon="12.49072366237899"><ele>411.33333333333337</ele><time>2026-04-26T16:32:59Z</time></trkpt><trkpt lat="43.377213799878774" lon="12.490418771611825"><ele>412.0</ele><time>2026-04-26T16:33:00Z</time></trkpt><trkpt lat="43.37728123780471" lon="12.490107669759972"><ele>410.0</ele><time>2026-04-26T16:33:01Z</time></trkpt><trkpt lat="43.377353316829364" lon="12.489791735396944"><ele>408.0</ele><time>2026-04-26T16:33:02Z</time></trkpt><trkpt lat="43.37741375220798" lon="12.48947578222881"><ele>406.66666666666663</ele><time>2026-04-26T16:33:03Z</time></trkpt><trkpt lat="43.37747030597438" lon="12.489180417700675"><ele>405.3333333333333</ele><time>2026-04-26T16:33:04Z</time></trkpt><trkpt lat="43.37752459028973" lon="12.488900199292942"><ele>404.0</ele><time>2026-04-26T16:33:05Z</time></trkpt><trkpt lat="43.37757554844964" lon="12.48863835667981"><ele>403.3333333333333</ele><time>2026-04-26T16:33:06Z</time></trkpt><trkpt lat="43.37762118019414" lon="12.488412953926051"><ele>402.66666666666663</ele><time>2026-04-26T16:33:07Z</time></trkpt><trkpt lat="43.37765137511092" lon="12.488193238932539"><ele>402.0</ele><time>2026-04-26T16:33:08Z</time></trkpt><trkpt lat="43.37764856987543" lon="12.48795618059379"><ele>402.0</ele><time>2026-04-26T16:33:08.999Z</time></trkpt><trkpt lat="43.377598977769836" lon="12.48769981072422"><ele>402.0</ele><time>2026-04-26T16:33:09.999Z</time></trkpt><trkpt lat="43.377500673753154" lon="12.487447678230343"><ele>402.0</ele><time>2026-04-26T16:33:10.999Z</time></trkpt><trkpt lat="43.377353818134175" lon="12.487221065764412"><ele>402.0</ele><time>2026-04-26T16:33:11.999Z</time></trkpt><trkpt lat="43.37718720790886" lon="12.487008078610787"><ele>402.0</ele><time>2026-04-26T16:33:12.999Z</time></trkpt><trkpt lat="43.37703323312083" lon="12.486771593042262"><ele>401.0</ele><time>2026-04-26T16:33:13.999Z</time></trkpt><trkpt lat="43.37688184183282" lon="12.486511591739216"><ele>400.0</ele><time>2026-04-26T16:33:14.999Z</time></trkpt><trkpt lat="43.37672801865761" lon="12.48624764186014"><ele>400.0</ele><time>2026-04-26T16:33:15.999Z</time></trkpt><trkpt lat="43.37657061751724" lon="12.485972686302034"><ele>400.0</ele><time>2026-04-26T16:33:16.999Z</time></trkpt><trkpt lat="43.37641069633805" lon="12.485692540053655"><ele>399.0</ele><time>2026-04-26T16:33:17.999Z</time></trkpt><trkpt lat="43.37624192864498" lon="12.485413615665992"><ele>398.0</ele><time>2026-04-26T16:33:18.999Z</time></trkpt><trkpt lat="43.37607055754868" lon="12.485127526775603"><ele>398.0</ele><time>2026-04-26T16:33:19.999Z</time></trkpt><trkpt lat="43.375901563533205" lon="12.484836993114747"><ele>398.0</ele><time>2026-04-26T16:33:20.999Z</time></trkpt><trkpt lat="43.37573452010905" lon="12.484532029284914"><ele>397.5</ele><time>2026-04-26T16:33:21.999Z</time></trkpt><trkpt lat="43.37556228775375" lon="12.484230512067406"><ele>397.0</ele><time>2026-04-26T16:33:22.999Z</time></trkpt><trkpt lat="43.375383036506435" lon="12.483926395769897"><ele>399.5</ele><time>2026-04-26T16:33:23.999Z</time></trkpt><trkpt lat="43.37520694686431" lon="12.483626032552577"><ele>402.0</ele><time>2026-04-26T16:33:24.999Z</time></trkpt><trkpt lat="43.375040802491384" lon="12.483337885485563"><ele>402.0</ele><time>2026-04-26T16:33:25.999Z</time></trkpt><trkpt lat="43.3748887969354" lon="12.48307507853264"><ele>402.0</ele><time>2026-04-26T16:33:26.999Z</time></trkpt><trkpt lat="43.374744300595886" lon="12.48283406324844"><ele>400.66666666666663</ele><time>2026-04-26T16:33:27.999Z</time></trkpt><trkpt lat="43.37460819123797" lon="12.482613949560184"><ele>399.3333333333333</ele><time>2026-04-26T16:33:28.999Z</time></trkpt><trkpt lat="43.37446465549348" lon="12.482396603320716"><ele>398.0</ele><time>2026-04-26T16:33:29.999Z</time></trkpt><trkpt lat="43.3742850181229" lon="12.482192904090422"><ele>400.5</ele><time>2026-04-26T16:33:30.999Z</time></trkpt><trkpt lat="43.37408353154056" lon="12.482009969244181"><ele>403.0</ele><time>2026-04-26T16:33:31.999Z</time></trkpt><trkpt lat="43.37387621962497" lon="12.48181944028133"><ele>399.5</ele><time>2026-04-26T16:33:32.999Z</time></trkpt><trkpt lat="43.37367536404901" lon="12.481617221635716"><ele>396.0</ele><time>2026-04-26T16:33:33.999Z</time></trkpt><trkpt lat="43.37349273231589" lon="12.481439350438567"><ele>398.0</ele><time>2026-04-26T16:33:34.999Z</time></trkpt><trkpt lat="43.37333711571678" lon="12.481263302419038"><ele>400.0</ele><time>2026-04-26T16:33:35.999Z</time></trkpt><trkpt lat="43.373227549862776" lon="12.481057461823749"><ele>402.0</ele><time>2026-04-26T16:33:36.999Z</time></trkpt><trkpt lat="43.37315163167431" lon="12.480815248925767"><ele>402.0</ele><time>2026-04-26T16:33:37.999Z</time></trkpt><trkpt lat="43.373129765666675" lon="12.480524450418043"><ele>402.0</ele><time>2026-04-26T16:33:38.999Z</time></trkpt><trkpt lat="43.37313924549361" lon="12.480230743678872"><ele>402.0</ele><time>2026-04-26T16:33:39.999Z</time></trkpt><trkpt lat="43.37321305650133" lon="12.479953529833175"><ele>402.33333333333337</ele><time>2026-04-26T16:33:40.999Z</time></trkpt><trkpt lat="43.373326614069725" lon="12.479699362589376"><ele>402.6666666666667</ele><time>2026-04-26T16:33:41.999Z</time></trkpt><trkpt lat="43.373477993399476" lon="12.479460300784737"><ele>403.0</ele><time>2026-04-26T16:33:42.999Z</time></trkpt><trkpt lat="43.373637707349005" lon="12.479225668380607"><ele>407.5</ele><time>2026-04-26T16:33:43.999Z</time></trkpt><trkpt lat="43.37381049944983" lon="12.47900279810301"><ele>412.0</ele><time>2026-04-26T16:33:44.999Z</time></trkpt><trkpt lat="43.37399743467196" lon="12.478797755982932"><ele>403.0</ele><time>2026-04-26T16:33:45.999Z</time></trkpt><trkpt lat="43.374196924765606" lon="12.478589573459953"><ele>394.0</ele><time>2026-04-26T16:33:46.999Z</time></trkpt><trkpt lat="43.37441068221415" lon="12.478364367816798"><ele>394.0</ele><time>2026-04-26T16:33:47.999Z</time></trkpt><trkpt lat="43.37459755425753" lon="12.478156161467243"><ele>394.0</ele><time>2026-04-26T16:33:48.999Z</time></trkpt><trkpt lat="43.374781600934824" lon="12.477958137910035"><ele>395.33333333333337</ele><time>2026-04-26T16:33:49.999Z</time></trkpt><trkpt lat="43.37491751383837" lon="12.477750201786531"><ele>396.66666666666663</ele><time>2026-04-26T16:33:50.999Z</time></trkpt><trkpt lat="43.37505808254492" lon="12.477534416845744"><ele>398.0</ele><time>2026-04-26T16:33:51.999Z</time></trkpt><trkpt lat="43.37518118025699" lon="12.477311495149348"><ele>393.3333333333333</ele><time>2026-04-26T16:33:52.999Z</time></trkpt><trkpt lat="43.37527383893993" lon="12.47708395557172"><ele>388.66666666666663</ele><time>2026-04-26T16:33:53.999Z</time></trkpt><trkpt lat="43.375346168335525" lon="12.476843775831663"><ele>384.0</ele><time>2026-04-26T16:33:54.999Z</time></trkpt><trkpt lat="43.375410275810026" lon="12.476581602808393"><ele>384.0</ele><time>2026-04-26T16:33:55.999Z</time></trkpt><trkpt lat="43.375443363386104" lon="12.476292535293304"><ele>384.0</ele><time>2026-04-26T16:33:56.999Z</time></trkpt><trkpt lat="43.37547460960737" lon="12.475989904011183"><ele>384.0</ele><time>2026-04-26T16:33:57.999Z</time></trkpt><trkpt lat="43.375497398170246" lon="12.47567230759566"><ele>382.0</ele><time>2026-04-26T16:33:58.999Z</time></trkpt><trkpt lat="43.375520069114685" lon="12.475342813499587"><ele>380.0</ele><time>2026-04-26T16:33:59.999Z</time></trkpt><trkpt lat="43.375541345206834" lon="12.475026946233772"><ele>389.0</ele><time>2026-04-26T16:34:00.999Z</time></trkpt><trkpt lat="43.37554923730381" lon="12.47473819108884"><ele>398.0</ele><time>2026-04-26T16:34:01.999Z</time></trkpt><trkpt lat="43.37556729853867" lon="12.474472380758275"><ele>407.0</ele><time>2026-04-26T16:34:02.999Z</time></trkpt><trkpt lat="43.37557858177727" lon="12.474236737166121"><ele>407.0</ele><time>2026-04-26T16:34:03.999Z</time></trkpt><trkpt lat="43.3756087253347" lon="12.474027166628133"><ele>407.0</ele><time>2026-04-26T16:34:04.999Z</time></trkpt><trkpt lat="43.375622115868744" lon="12.473829127686193"><ele>407.0</ele><time>2026-04-26T16:34:05.999Z</time></trkpt><trkpt lat="43.37563547417123" lon="12.47363156541773"><ele>407.0</ele><time>2026-04-26T16:34:06.999Z</time></trkpt><trkpt lat="43.375648948455556" lon="12.473432287659435"><ele>405.75</ele><time>2026-04-26T16:34:07.999Z</time></trkpt><trkpt lat="43.375662813641654" lon="12.473239273947891"><ele>404.5</ele><time>2026-04-26T16:34:09Z</time></trkpt><trkpt lat="43.375659033024014" lon="12.473058056763257"><ele>403.25</ele><time>2026-04-26T16:34:10Z</time></trkpt><trkpt lat="43.37568732654234" lon="12.472893386891931"><ele>402.0</ele><time>2026-04-26T16:34:11Z</time></trkpt><trkpt lat="43.37569896766742" lon="12.472729125843816"><ele>401.0</ele><time>2026-04-26T16:34:12Z</time></trkpt><trkpt lat="43.375711033467645" lon="12.47255887245548"><ele>400.0</ele><time>2026-04-26T16:34:13Z</time></trkpt><trkpt lat="43.375723443629056" lon="12.472383759999481"><ele>399.0</ele><time>2026-04-26T16:34:14Z</time></trkpt><trkpt lat="43.37573609677323" lon="12.472205218951855"><ele>398.0</ele><time>2026-04-26T16:34:15Z</time></trkpt><trkpt lat="43.37574876802333" lon="12.47202642244129"><ele>396.25</ele><time>2026-04-26T16:34:16Z</time></trkpt><trkpt lat="43.375760950789264" lon="12.471854518626323"><ele>394.5</ele><time>2026-04-26T16:34:17Z</time></trkpt><trkpt lat="43.37575930640132" lon="12.47168470838421"><ele>392.75</ele><time>2026-04-26T16:34:18Z</time></trkpt><trkpt lat="43.37577122401669" lon="12.471518389304947"><ele>391.0</ele><time>2026-04-26T16:34:19Z</time></trkpt><trkpt lat="43.37578487846769" lon="12.471361286677038"><ele>392.5</ele><time>2026-04-26T16:34:20Z</time></trkpt><trkpt lat="43.37579027909377" lon="12.471208092467146"><ele>394.0</ele><time>2026-04-26T16:34:21Z</time></trkpt><trkpt lat="43.37579864327663" lon="12.471050017510878"><ele>395.5</ele><time>2026-04-26T16:34:22Z</time></trkpt><trkpt lat="43.37576949297101" lon="12.470882745252661"><ele>397.0</ele><time>2026-04-26T16:34:23Z</time></trkpt><trkpt lat="43.37569955024239" lon="12.470734115231464"><ele>397.0</ele><time>2026-04-26T16:34:24Z</time></trkpt><trkpt lat="43.37563210585003" lon="12.470597558767741"><ele>397.0</ele><time>2026-04-26T16:34:25Z</time></trkpt><trkpt lat="43.37554987401301" lon="12.470473767613589"><ele>397.0</ele><time>2026-04-26T16:34:26Z</time></trkpt><trkpt lat="43.37545663483799" lon="12.470362254837246"><ele>397.0</ele><time>2026-04-26T16:34:27Z</time></trkpt><trkpt lat="43.37535424107365" lon="12.470257702723707"><ele>394.0</ele><time>2026-04-26T16:34:28Z</time></trkpt><trkpt lat="43.37525464518611" lon="12.470149514135311"><ele>391.0</ele><time>2026-04-26T16:34:29Z</time></trkpt><trkpt lat="43.37516544194985" lon="12.470034806816349"><ele>388.0</ele><time>2026-04-26T16:34:30Z</time></trkpt><trkpt lat="43.37508346636848" lon="12.469902723839251"><ele>385.0</ele><time>2026-04-26T16:34:31Z</time></trkpt><trkpt lat="43.3750150998434" lon="12.46976575826057"><ele>385.0</ele><time>2026-04-26T16:34:32Z</time></trkpt><trkpt lat="43.37497893382523" lon="12.469609078409189"><ele>385.0</ele><time>2026-04-26T16:34:33Z</time></trkpt><trkpt lat="43.37493243141733" lon="12.469453432582569"><ele>385.0</ele><time>2026-04-26T16:34:34Z</time></trkpt><trkpt lat="43.37490000490886" lon="12.469287244869534"><ele>385.0</ele><time>2026-04-26T16:34:35Z</time></trkpt><trkpt lat="43.3748911717661" lon="12.469112783912811"><ele>387.6666666666667</ele><time>2026-04-26T16:34:36Z</time></trkpt><trkpt lat="43.374900716832926" lon="12.468918319823898"><ele>390.33333333333337</ele><time>2026-04-26T16:34:37Z</time></trkpt><trkpt lat="43.37493703780957" lon="12.468706950269187"><ele>393.0</ele><time>2026-04-26T16:34:38Z</time></trkpt><trkpt lat="43.37499176800237" lon="12.46847365701977"><ele>393.0</ele><time>2026-04-26T16:34:39Z</time></trkpt><trkpt lat="43.37503265804059" lon="12.468216365846041"><ele>393.0</ele><time>2026-04-26T16:34:40Z</time></trkpt><trkpt lat="43.37504145878007" lon="12.46792854144069"><ele>393.0</ele><time>2026-04-26T16:34:41Z</time></trkpt><trkpt lat="43.37501009055215" lon="12.467627950576714"><ele>391.5</ele><time>2026-04-26T16:34:42Z</time></trkpt><trkpt lat="43.374948233791855" lon="12.467330296946326"><ele>390.0</ele><time>2026-04-26T16:34:43Z</time></trkpt><trkpt lat="43.37489519094694" lon="12.467017235568328"><ele>390.0</ele><time>2026-04-26T16:34:44Z</time></trkpt><trkpt lat="43.37485843314211" lon="12.466693208208588"><ele>390.0</ele><time>2026-04-26T16:34:45Z</time></trkpt><trkpt lat="43.374805653277335" lon="12.466374332040626"><ele>391.5</ele><time>2026-04-26T16:34:46Z</time></trkpt><trkpt lat="43.37475345936282" lon="12.466054657627948"><ele>393.0</ele><time>2026-04-26T16:34:47Z</time></trkpt><trkpt lat="43.37470229695529" lon="12.465733742865604"><ele>382.0</ele><time>2026-04-26T16:34:48Z</time></trkpt><trkpt lat="43.37463860584997" lon="12.465420845078118"><ele>371.0</ele><time>2026-04-26T16:34:49Z</time></trkpt><trkpt lat="43.374596078368796" lon="12.46512109540986"><ele>371.0</ele><time>2026-04-26T16:34:50Z</time></trkpt><trkpt lat="43.37455245784419" lon="12.46484057206949"><ele>371.0</ele><time>2026-04-26T16:34:51Z</time></trkpt><trkpt lat="43.37451244414959" lon="12.464582843331609"><ele>371.0</ele><time>2026-04-26T16:34:52Z</time></trkpt><trkpt lat="43.3744727800381" lon="12.46435210872716"><ele>372.33333333333337</ele><time>2026-04-26T16:34:53Z</time></trkpt><trkpt lat="43.374407032907634" lon="12.464155598431114"><ele>373.6666666666667</ele><time>2026-04-26T16:34:54Z</time></trkpt><trkpt lat="43.37430537222257" lon="12.4639930083326"><ele>375.0</ele><time>2026-04-26T16:34:55Z</time></trkpt><trkpt lat="43.374170337654874" lon="12.463862804735653"><ele>377.6666666666667</ele><time>2026-04-26T16:34:56Z</time></trkpt><trkpt lat="43.37400904970916" lon="12.463762905896115"><ele>380.33333333333337</ele><time>2026-04-26T16:34:57Z</time></trkpt><trkpt lat="43.37383399501365" lon="12.463676203944543"><ele>383.0</ele><time>2026-04-26T16:34:58Z</time></trkpt><trkpt lat="43.37365120718697" lon="12.46357907819511"><ele>383.0</ele><time>2026-04-26T16:34:59Z</time></trkpt><trkpt lat="43.37346198588614" lon="12.4634730052258"><ele>383.0</ele><time>2026-04-26T16:35:00Z</time></trkpt><trkpt lat="43.37326750934535" lon="12.463394308807105"><ele>383.0</ele><time>2026-04-26T16:35:01Z</time></trkpt><trkpt lat="43.37308418247943" lon="12.463334731347821"><ele>379.33333333333337</ele><time>2026-04-26T16:35:02Z</time></trkpt><trkpt lat="43.37290921166874" lon="12.463301800224844"><ele>375.6666666666667</ele><time>2026-04-26T16:35:03Z</time></trkpt><trkpt lat="43.37274937952313" lon="12.463190888632166"><ele>372.0</ele><time>2026-04-26T16:35:04Z</time></trkpt><trkpt lat="43.372615517996195" lon="12.463031387751805"><ele>375.3333333333333</ele><time>2026-04-26T16:35:05Z</time></trkpt><trkpt lat="43.372519687085635" lon="12.462810910538984"><ele>378.66666666666663</ele><time>2026-04-26T16:35:06Z</time></trkpt><trkpt lat="43.372410427891545" lon="12.46258887522072"><ele>382.0</ele><time>2026-04-26T16:35:07Z</time></trkpt><trkpt lat="43.372327600380274" lon="12.462336526325704"><ele>384.0</ele><time>2026-04-26T16:35:08Z</time></trkpt><trkpt lat="43.37224615201" lon="12.462072580379532"><ele>386.0</ele><time>2026-04-26T16:35:09Z</time></trkpt><trkpt lat="43.37219811192542" lon="12.461785803278111"><ele>388.0</ele><time>2026-04-26T16:35:10Z</time></trkpt><trkpt lat="43.372181667296" lon="12.461478893227026"><ele>390.5</ele><time>2026-04-26T16:35:11Z</time></trkpt><trkpt lat="43.37219671616248" lon="12.46116136928097"><ele>393.0</ele><time>2026-04-26T16:35:12Z</time></trkpt><trkpt lat="43.37220864028753" lon="12.460836688810623"><ele>393.0</ele><time>2026-04-26T16:35:13Z</time></trkpt><trkpt lat="43.37223535033668" lon="12.460534765210129"><ele>393.0</ele><time>2026-04-26T16:35:14Z</time></trkpt><trkpt lat="43.37224600952984" lon="12.46024228274949"><ele>393.0</ele><time>2026-04-26T16:35:15Z</time></trkpt><trkpt lat="43.372236446025255" lon="12.459962708978214"><ele>393.33333333333337</ele><time>2026-04-26T16:35:16Z</time></trkpt><trkpt lat="43.37220998037315" lon="12.459696327139284"><ele>393.6666666666667</ele><time>2026-04-26T16:35:16.999Z</time></trkpt><trkpt lat="43.37216474689921" lon="12.459431934580298"><ele>394.0</ele><time>2026-04-26T16:35:17.999Z</time></trkpt><trkpt lat="43.372116408819245" lon="12.459150284408874"><ele>381.5</ele><time>2026-04-26T16:35:18.999Z</time></trkpt><trkpt lat="43.37206990885108" lon="12.458850542839912"><ele>369.0</ele><time>2026-04-26T16:35:19.999Z</time></trkpt><trkpt lat="43.37202249616296" lon="12.45853988225155"><ele>369.0</ele><time>2026-04-26T16:35:20.999Z</time></trkpt><trkpt lat="43.37197859504584" lon="12.45822072659548"><ele>369.0</ele><time>2026-04-26T16:35:21.999Z</time></trkpt><trkpt lat="43.37195670259392" lon="12.457916984231131"><ele>368.3333333333333</ele><time>2026-04-26T16:35:22.999Z</time></trkpt><trkpt lat="43.37199284803834" lon="12.457629659010733"><ele>367.66666666666663</ele><time>2026-04-26T16:35:23.999Z</time></trkpt><trkpt lat="43.37200272345111" lon="12.457357245483477"><ele>367.0</ele><time>2026-04-26T16:35:24.999Z</time></trkpt><trkpt lat="43.37199457289827" lon="12.457096368605782"><ele>366.3333333333333</ele><time>2026-04-26T16:35:25.999Z</time></trkpt><trkpt lat="43.371952421489084" lon="12.45683830210416"><ele>365.6666666666667</ele><time>2026-04-26T16:35:26.999Z</time></trkpt><trkpt lat="43.37186630411711" lon="12.456583887841632"><ele>365.0</ele><time>2026-04-26T16:35:27.999Z</time></trkpt><trkpt lat="43.37174205508414" lon="12.456342907281005"><ele>366.33333333333337</ele><time>2026-04-26T16:35:28.999Z</time></trkpt><trkpt lat="43.37161521015346" lon="12.456095817751441"><ele>367.6666666666667</ele><time>2026-04-26T16:35:29.999Z</time></trkpt><trkpt lat="43.3715051602184" lon="12.455862169821874"><ele>369.0</ele><time>2026-04-26T16:35:30.999Z</time></trkpt><trkpt lat="43.3714398503796" lon="12.45559327133599"><ele>369.6666666666667</ele><time>2026-04-26T16:35:31.999Z</time></trkpt><trkpt lat="43.37141477906835" lon="12.455304171348809"><ele>370.33333333333337</ele><time>2026-04-26T16:35:32.999Z</time></trkpt><trkpt lat="43.37138478834649" lon="12.45499286575676"><ele>371.0</ele><time>2026-04-26T16:35:33.999Z</time></trkpt><trkpt lat="43.371378110152904" lon="12.454672919248235"><ele>371.5</ele><time>2026-04-26T16:35:34.999Z</time></trkpt><trkpt lat="43.3713740733548" lon="12.454343604070894"><ele>372.0</ele><time>2026-04-26T16:35:35.999Z</time></trkpt><trkpt lat="43.371372879451016" lon="12.454006787283097"><ele>374.0</ele><time>2026-04-26T16:35:36.999Z</time></trkpt><trkpt lat="43.371371306004896" lon="12.453666605943546"><ele>376.0</ele><time>2026-04-26T16:35:37.999Z</time></trkpt><trkpt lat="43.37137038146983" lon="12.4533344488154"><ele>376.0</ele><time>2026-04-26T16:35:38.999Z</time></trkpt><trkpt lat="43.37136713685386" lon="12.453024022274377"><ele>376.0</ele><time>2026-04-26T16:35:39.999Z</time></trkpt><trkpt lat="43.371368141166066" lon="12.45273184530119"><ele>376.0</ele><time>2026-04-26T16:35:40.999Z</time></trkpt><trkpt lat="43.37137054134944" lon="12.452455213568884"><ele>379.0</ele><time>2026-04-26T16:35:41.999Z</time></trkpt><trkpt lat="43.37136779940284" lon="12.452186917080233"><ele>382.0</ele><time>2026-04-26T16:35:42.999Z</time></trkpt><trkpt lat="43.37136515688843" lon="12.451921349268678"><ele>385.0</ele><time>2026-04-26T16:35:43.999Z</time></trkpt><trkpt lat="43.371362111678856" lon="12.451663373654174"><ele>378.33333333333337</ele><time>2026-04-26T16:35:44.999Z</time></trkpt><trkpt lat="43.37134963532482" lon="12.451401810922354"><ele>371.6666666666667</ele><time>2026-04-26T16:35:45.999Z</time></trkpt><trkpt lat="43.371312847355" lon="12.45114656245098"><ele>365.0</ele><time>2026-04-26T16:35:46.999Z</time></trkpt><trkpt lat="43.37124568258793" lon="12.450894518579865"><ele>365.0</ele><time>2026-04-26T16:35:47.999Z</time></trkpt><trkpt lat="43.37116764613728" lon="12.450633842650022"><ele>365.0</ele><time>2026-04-26T16:35:48.999Z</time></trkpt><trkpt lat="43.371071786897694" lon="12.4503753718674"><ele>365.0</ele><time>2026-04-26T16:35:49.999Z</time></trkpt><trkpt lat="43.37097314018715" lon="12.450109385066275"><ele>369.0</ele><time>2026-04-26T16:35:50.999Z</time></trkpt><trkpt lat="43.37086733957045" lon="12.449836937935228"><ele>373.0</ele><time>2026-04-26T16:35:51.999Z</time></trkpt><trkpt lat="43.370674171484225" lon="12.44961745720982"><ele>372.5</ele><time>2026-04-26T16:35:52.999Z</time></trkpt><trkpt lat="43.370548224487955" lon="12.44934508328927"><ele>372.0</ele><time>2026-04-26T16:35:53.999Z</time></trkpt><trkpt lat="43.37040352711357" lon="12.449086176600103"><ele>372.0</ele><time>2026-04-26T16:35:54.999Z</time></trkpt><trkpt lat="43.3702311694007" lon="12.44885641337468"><ele>372.0</ele><time>2026-04-26T16:35:55.999Z</time></trkpt><trkpt lat="43.37003731913021" lon="12.448658181040006"><ele>376.5</ele><time>2026-04-26T16:35:56.999Z</time></trkpt><trkpt lat="43.36982737026846" lon="12.448486476168561"><ele>381.0</ele><time>2026-04-26T16:35:57.999Z</time></trkpt><trkpt lat="43.36960614265964" lon="12.448332591124867"><ele>381.0</ele><time>2026-04-26T16:35:58.999Z</time></trkpt><trkpt lat="43.3693803523842" lon="12.448180359806887"><ele>381.0</ele><time>2026-04-26T16:35:59.999Z</time></trkpt><trkpt lat="43.36915436279924" lon="12.44801413517493"><ele>385.5</ele><time>2026-04-26T16:36:00.999Z</time></trkpt><trkpt lat="43.368923928394885" lon="12.447850289147336"><ele>390.0</ele><time>2026-04-26T16:36:01.999Z</time></trkpt><trkpt lat="43.368685839340756" lon="12.447698868426532"><ele>390.0</ele><time>2026-04-26T16:36:02.999Z</time></trkpt><trkpt lat="43.36843810420647" lon="12.447563099662553"><ele>390.0</ele><time>2026-04-26T16:36:03.999Z</time></trkpt><trkpt lat="43.36818313611208" lon="12.447437854335119"><ele>383.0</ele><time>2026-04-26T16:36:04.999Z</time></trkpt><trkpt lat="43.36792492617726" lon="12.447310466295141"><ele>376.0</ele><time>2026-04-26T16:36:05.999Z</time></trkpt><trkpt lat="43.36767015136723" lon="12.447180749702742"><ele>379.0</ele><time>2026-04-26T16:36:06.999Z</time></trkpt><trkpt lat="43.36742385977797" lon="12.447076923159255"><ele>382.0</ele><time>2026-04-26T16:36:07.999Z</time></trkpt><trkpt lat="43.36718418653469" lon="12.446989328533697"><ele>382.0</ele><time>2026-04-26T16:36:08.999Z</time></trkpt><trkpt lat="43.36696982140505" lon="12.44689095118546"><ele>382.0</ele><time>2026-04-26T16:36:09.999Z</time></trkpt><trkpt lat="43.366777774540054" lon="12.446747516306525"><ele>382.0</ele><time>2026-04-26T16:36:10.999Z</time></trkpt><trkpt lat="43.36660151864465" lon="12.446528122045262"><ele>377.5</ele><time>2026-04-26T16:36:11.999Z</time></trkpt><trkpt lat="43.366443884265244" lon="12.446266430837138"><ele>373.0</ele><time>2026-04-26T16:36:12.999Z</time></trkpt><trkpt lat="43.366269444923006" lon="12.446011704529754"><ele>373.0</ele><time>2026-04-26T16:36:13.999Z</time></trkpt><trkpt lat="43.366092167492674" lon="12.445750176945467"><ele>373.0</ele><time>2026-04-26T16:36:15Z</time></trkpt><trkpt lat="43.3659244142836" lon="12.445465793201702"><ele>378.5</ele><time>2026-04-26T16:36:16Z</time></trkpt><trkpt lat="43.365775438730566" lon="12.445151181381851"><ele>384.0</ele><time>2026-04-26T16:36:17Z</time></trkpt><trkpt lat="43.365629790486565" lon="12.444822560464836"><ele>374.0</ele><time>2026-04-26T16:36:18Z</time></trkpt><trkpt lat="43.36547470386198" lon="12.444491935805507"><ele>364.0</ele><time>2026-04-26T16:36:19Z</time></trkpt><trkpt lat="43.36530076553888" lon="12.444171647021381"><ele>364.0</ele><time>2026-04-26T16:36:20Z</time></trkpt><trkpt lat="43.36511382812129" lon="12.443857552691497"><ele>364.0</ele><time>2026-04-26T16:36:21Z</time></trkpt><trkpt lat="43.36492612908489" lon="12.443538366262105"><ele>362.0</ele><time>2026-04-26T16:36:22Z</time></trkpt><trkpt lat="43.36475170854819" lon="12.443229713207385"><ele>360.0</ele><time>2026-04-26T16:36:23Z</time></trkpt><trkpt lat="43.364585925795566" lon="12.442936389439389"><ele>360.0</ele><time>2026-04-26T16:36:24Z</time></trkpt><trkpt lat="43.36442410138269" lon="12.442658904118048"><ele>360.0</ele><time>2026-04-26T16:36:25Z</time></trkpt><trkpt lat="43.36428320626117" lon="12.442402679497713"><ele>360.0</ele><time>2026-04-26T16:36:26Z</time></trkpt><trkpt lat="43.364181780965026" lon="12.44214255812996"><ele>360.0</ele><time>2026-04-26T16:36:27Z</time></trkpt><trkpt lat="43.36412984848697" lon="12.441849881935081"><ele>360.0</ele><time>2026-04-26T16:36:28Z</time></trkpt><trkpt lat="43.36409679417667" lon="12.441526306844118"><ele>365.0</ele><time>2026-04-26T16:36:29Z</time></trkpt><trkpt lat="43.364061161837746" lon="12.441199182012115"><ele>370.0</ele><time>2026-04-26T16:36:30Z</time></trkpt><trkpt lat="43.364020786505414" lon="12.44088051856377"><ele>370.0</ele><time>2026-04-26T16:36:31Z</time></trkpt><trkpt lat="43.36396273962984" lon="12.44058823740615"><ele>370.0</ele><time>2026-04-26T16:36:32Z</time></trkpt><trkpt lat="43.363861992762615" lon="12.440299706958475"><ele>363.5</ele><time>2026-04-26T16:36:33Z</time></trkpt><trkpt lat="43.36373342647142" lon="12.440025773507507"><ele>357.0</ele><time>2026-04-26T16:36:34Z</time></trkpt><trkpt lat="43.363582579581944" lon="12.439756724755231"><ele>364.5</ele><time>2026-04-26T16:36:35Z</time></trkpt><trkpt lat="43.3634214093607" lon="12.4394906141205"><ele>372.0</ele><time>2026-04-26T16:36:36Z</time></trkpt><trkpt lat="43.36325863224121" lon="12.43925529504434"><ele>372.0</ele><time>2026-04-26T16:36:37Z</time></trkpt><trkpt lat="43.363092391769" lon="12.439072668652745"><ele>372.0</ele><time>2026-04-26T16:36:38Z</time></trkpt><trkpt lat="43.36293866278621" lon="12.438907874764594"><ele>372.0</ele><time>2026-04-26T16:36:39Z</time></trkpt><trkpt lat="43.36276352093023" lon="12.438774546567545"><ele>371.0</ele><time>2026-04-26T16:36:40Z</time></trkpt><trkpt lat="43.362557937333115" lon="12.438692364586096"><ele>370.0</ele><time>2026-04-26T16:36:41Z</time></trkpt><trkpt lat="43.36233340966531" lon="12.438628521702178"><ele>369.0</ele><time>2026-04-26T16:36:42Z</time></trkpt><trkpt lat="43.36210295089403" lon="12.43856292163737"><ele>369.0</ele><time>2026-04-26T16:36:43Z</time></trkpt><trkpt lat="43.361873826644725" lon="12.438485066664608"><ele>369.0</ele><time>2026-04-26T16:36:44Z</time></trkpt><trkpt lat="43.36164000198318" lon="12.438386526109012"><ele>369.0</ele><time>2026-04-26T16:36:45Z</time></trkpt><trkpt lat="43.36140596029534" lon="12.438257706148338"><ele>369.0</ele><time>2026-04-26T16:36:46Z</time></trkpt><trkpt lat="43.36117068723005" lon="12.438118173961996"><ele>374.5</ele><time>2026-04-26T16:36:47Z</time></trkpt><trkpt lat="43.36095150950594" lon="12.437997909709011"><ele>380.0</ele><time>2026-04-26T16:36:48Z</time></trkpt><trkpt lat="43.36074811297401" lon="12.437892754340641"><ele>380.0</ele><time>2026-04-26T16:36:49Z</time></trkpt><trkpt lat="43.360574900809205" lon="12.437757130902488"><ele>380.0</ele><time>2026-04-26T16:36:50Z</time></trkpt><trkpt lat="43.36044090737208" lon="12.437528993622587"><ele>380.0</ele><time>2026-04-26T16:36:51Z</time></trkpt><trkpt lat="43.36030127289286" lon="12.437283563605774"><ele>380.0</ele><time>2026-04-26T16:36:52Z</time></trkpt><trkpt lat="43.360157969415695" lon="12.437052694472035"><ele>380.0</ele><time>2026-04-26T16:36:53Z</time></trkpt><trkpt lat="43.360008138479465" lon="12.436864751396904"><ele>380.0</ele><time>2026-04-26T16:36:54Z</time></trkpt><trkpt lat="43.35982013286999" lon="12.436727130796458"><ele>371.0</ele><time>2026-04-26T16:36:55Z</time></trkpt><trkpt lat="43.359609015018314" lon="12.43660675253912"><ele>362.0</ele><time>2026-04-26T16:36:56Z</time></trkpt><trkpt lat="43.35940399724267" lon="12.436466700124573"><ele>362.0</ele><time>2026-04-26T16:36:57Z</time></trkpt><trkpt lat="43.35919490565388" lon="12.436311964296749"><ele>362.0</ele><time>2026-04-26T16:36:58Z</time></trkpt><trkpt lat="43.35899209928297" lon="12.436164247279633"><ele>369.6666666666667</ele><time>2026-04-26T16:36:59Z</time></trkpt><trkpt lat="43.358801696649756" lon="12.436026011447709"><ele>377.33333333333337</ele><time>2026-04-26T16:37:00Z</time></trkpt><trkpt lat="43.35861076390051" lon="12.435937654964743"><ele>385.0</ele><time>2026-04-26T16:37:01Z</time></trkpt><trkpt lat="43.35840913689653" lon="12.435894281689933"><ele>385.0</ele><time>2026-04-26T16:37:02Z</time></trkpt><trkpt lat="43.358194490297656" lon="12.435910623253276"><ele>385.0</ele><time>2026-04-26T16:37:03Z</time></trkpt><trkpt lat="43.357977160947485" lon="12.435954438963115"><ele>385.0</ele><time>2026-04-26T16:37:04Z</time></trkpt><trkpt lat="43.3577678320147" lon="12.435959208901606"><ele>386.33333333333337</ele><time>2026-04-26T16:37:05Z</time></trkpt><trkpt lat="43.357560441861686" lon="12.435936016142763"><ele>387.66666666666663</ele><time>2026-04-26T16:37:06Z</time></trkpt><trkpt lat="43.35734677727406" lon="12.435967478029788"><ele>389.0</ele><time>2026-04-26T16:37:07Z</time></trkpt><trkpt lat="43.35712482565402" lon="12.436081918109277"><ele>379.0</ele><time>2026-04-26T16:37:08Z</time></trkpt><trkpt lat="43.35690745958582" lon="12.43621904976746"><ele>369.0</ele><time>2026-04-26T16:37:09Z</time></trkpt><trkpt lat="43.35670555141602" lon="12.436323820765061"><ele>369.0</ele><time>2026-04-26T16:37:10Z</time></trkpt><trkpt lat="43.35650750362587" lon="12.43638249431749"><ele>369.0</ele><time>2026-04-26T16:37:11Z</time></trkpt><trkpt lat="43.35628186512347" lon="12.436456648876561"><ele>369.0</ele><time>2026-04-26T16:37:12Z</time></trkpt><trkpt lat="43.356031435556645" lon="12.436628469371756"><ele>377.0</ele><time>2026-04-26T16:37:13Z</time></trkpt><trkpt lat="43.35580762490829" lon="12.436723181646327"><ele>385.0</ele><time>2026-04-26T16:37:14Z</time></trkpt><trkpt lat="43.355563543933435" lon="12.436796142073794"><ele>389.5</ele><time>2026-04-26T16:37:15Z</time></trkpt><trkpt lat="43.35531717339082" lon="12.436819222349454"><ele>394.0</ele><time>2026-04-26T16:37:16Z</time></trkpt><trkpt lat="43.355076173720256" lon="12.436808468408513"><ele>394.0</ele><time>2026-04-26T16:37:16.999Z</time></trkpt><trkpt lat="43.35484166621018" lon="12.436742056781881"><ele>394.0</ele><time>2026-04-26T16:37:17.999Z</time></trkpt><trkpt lat="43.35459844622056" lon="12.436659037672941"><ele>386.0</ele><time>2026-04-26T16:37:18.999Z</time></trkpt><trkpt lat="43.35435900018172" lon="12.436533575131264"><ele>378.0</ele><time>2026-04-26T16:37:19.999Z</time></trkpt><trkpt lat="43.35412233462864" lon="12.436412469729415"><ele>378.0</ele><time>2026-04-26T16:37:20.999Z</time></trkpt><trkpt lat="43.35390354125143" lon="12.436317524076031"><ele>378.0</ele><time>2026-04-26T16:37:21.999Z</time></trkpt><trkpt lat="43.3537089530048" lon="12.436216358150052"><ele>378.0</ele><time>2026-04-26T16:37:22.999Z</time></trkpt><trkpt lat="43.35355712507095" lon="12.43603735674743"><ele>382.5</ele><time>2026-04-26T16:37:23.999Z</time></trkpt><trkpt lat="43.3534115799843" lon="12.435811763242782"><ele>387.0</ele><time>2026-04-26T16:37:24.999Z</time></trkpt><trkpt lat="43.353256541950344" lon="12.435568064998032"><ele>386.0</ele><time>2026-04-26T16:37:25.999Z</time></trkpt><trkpt lat="43.35309224604638" lon="12.435346671933141"><ele>385.0</ele><time>2026-04-26T16:37:26.999Z</time></trkpt><trkpt lat="43.35288208439879" lon="12.435191806113748"><ele>385.0</ele><time>2026-04-26T16:37:27.999Z</time></trkpt><trkpt lat="43.352660898599844" lon="12.435055972011824"><ele>385.0</ele><time>2026-04-26T16:37:28.999Z</time></trkpt><trkpt lat="43.35244035337617" lon="12.434889199249053"><ele>385.0</ele><time>2026-04-26T16:37:29.999Z</time></trkpt><trkpt lat="43.35222219120126" lon="12.434716866334956"><ele>385.0</ele><time>2026-04-26T16:37:30.999Z</time></trkpt><trkpt lat="43.352013255836376" lon="12.434546877095478"><ele>386.5</ele><time>2026-04-26T16:37:31.999Z</time></trkpt><trkpt lat="43.35182067405912" lon="12.434357972495803"><ele>388.0</ele><time>2026-04-26T16:37:32.999Z</time></trkpt><trkpt lat="43.35165973076134" lon="12.434134293683"><ele>388.0</ele><time>2026-04-26T16:37:33.999Z</time></trkpt><trkpt lat="43.35153814628107" lon="12.433923396722957"><ele>388.0</ele><time>2026-04-26T16:37:34.999Z</time></trkpt><trkpt lat="43.351394139835655" lon="12.433757257188873"><ele>388.0</ele><time>2026-04-26T16:37:35.999Z</time></trkpt><trkpt lat="43.35120732096787" lon="12.43365611412588"><ele>396.6666666666667</ele><time>2026-04-26T16:37:36.999Z</time></trkpt><trkpt lat="43.35099069086395" lon="12.433609291545137"><ele>405.33333333333337</ele><time>2026-04-26T16:37:37.999Z</time></trkpt><trkpt lat="43.35077793487674" lon="12.433584831453985"><ele>414.0</ele><time>2026-04-26T16:37:38.999Z</time></trkpt><trkpt lat="43.35059921074116" lon="12.43355430208989"><ele>408.33333333333337</ele><time>2026-04-26T16:37:39.999Z</time></trkpt><trkpt lat="43.35044568757889" lon="12.433500753138519"><ele>402.6666666666667</ele><time>2026-04-26T16:37:40.999Z</time></trkpt><trkpt lat="43.350284532634156" lon="12.433460137560381"><ele>397.0</ele><time>2026-04-26T16:37:41.999Z</time></trkpt><trkpt lat="43.35008784306495" lon="12.4333932889167"><ele>397.0</ele><time>2026-04-26T16:37:42.999Z</time></trkpt><trkpt lat="43.349901980674744" lon="12.433345662072451"><ele>397.0</ele><time>2026-04-26T16:37:43.999Z</time></trkpt><trkpt lat="43.34973684448897" lon="12.433295642542713"><ele>397.0</ele><time>2026-04-26T16:37:44.999Z</time></trkpt><trkpt lat="43.34954986326036" lon="12.43332801895299"><ele>391.6666666666667</ele><time>2026-04-26T16:37:45.999Z</time></trkpt><trkpt lat="43.34938296509945" lon="12.43344696668252"><ele>386.33333333333337</ele><time>2026-04-26T16:37:46.999Z</time></trkpt><trkpt lat="43.34923120199739" lon="12.433629598062724"><ele>381.0</ele><time>2026-04-26T16:37:47.999Z</time></trkpt><trkpt lat="43.349086182223026" lon="12.433823387102073"><ele>381.0</ele><time>2026-04-26T16:37:48.999Z</time></trkpt><trkpt lat="43.348919241520306" lon="12.433950901692176"><ele>381.0</ele><time>2026-04-26T16:37:49.999Z</time></trkpt><trkpt lat="43.348712364034256" lon="12.43410204304981"><ele>381.0</ele><time>2026-04-26T16:37:50.999Z</time></trkpt><trkpt lat="43.34853091231163" lon="12.434287331843711"><ele>379.6666666666667</ele><time>2026-04-26T16:37:51.999Z</time></trkpt><trkpt lat="43.348373590665084" lon="12.434497071217143"><ele>378.33333333333337</ele><time>2026-04-26T16:37:52.999Z</time></trkpt><trkpt lat="43.34826781693848" lon="12.43470891436239"><ele>377.0</ele><time>2026-04-26T16:37:53.999Z</time></trkpt><trkpt lat="43.34820307492123" lon="12.434915426065208"><ele>377.0</ele><time>2026-04-26T16:37:54.999Z</time></trkpt><trkpt lat="43.34816146238544" lon="12.435097450290586"><ele>377.0</ele><time>2026-04-26T16:37:55.999Z</time></trkpt><trkpt lat="43.3480781612308" lon="12.435229628367127"><ele>377.0</ele><time>2026-04-26T16:37:56.999Z</time></trkpt><trkpt lat="43.34794163272426" lon="12.435295592687964"><ele>377.0</ele><time>2026-04-26T16:37:57.999Z</time></trkpt><trkpt lat="43.34782597355944" lon="12.435438199270518"><ele>379.0</ele><time>2026-04-26T16:37:58.999Z</time></trkpt><trkpt lat="43.347684861672775" lon="12.435368478374748"><ele>381.0</ele><time>2026-04-26T16:37:59.999Z</time></trkpt><trkpt lat="43.34755621363332" lon="12.435251698841459"><ele>383.0</ele><time>2026-04-26T16:38:00.999Z</time></trkpt><trkpt lat="43.34739963307758" lon="12.434989821016302"><ele>383.0</ele><time>2026-04-26T16:38:01.999Z</time></trkpt><trkpt lat="43.347241236737" lon="12.434792295817498"><ele>383.0</ele><time>2026-04-26T16:38:02.999Z</time></trkpt><trkpt lat="43.347085097831204" lon="12.434598587273918"><ele>383.0</ele><time>2026-04-26T16:38:03.999Z</time></trkpt><trkpt lat="43.34691660508159" lon="12.434389673528877"><ele>386.6666666666667</ele><time>2026-04-26T16:38:04.999Z</time></trkpt><trkpt lat="43.34676997313708" lon="12.434216766595073"><ele>390.33333333333337</ele><time>2026-04-26T16:38:05.999Z</time></trkpt><trkpt lat="43.34664397426002" lon="12.434082163916504"><ele>394.0</ele><time>2026-04-26T16:38:06.999Z</time></trkpt><trkpt lat="43.3464843102399" lon="12.434060905402234"><ele>391.75</ele><time>2026-04-26T16:38:07.999Z</time></trkpt><trkpt lat="43.346355340737595" lon="12.434127408387145"><ele>389.5</ele><time>2026-04-26T16:38:08.999Z</time></trkpt><trkpt lat="43.346248819762494" lon="12.434252705208364"><ele>387.25</ele><time>2026-04-26T16:38:09.999Z</time></trkpt><trkpt lat="43.34612783772925" lon="12.43432827823543"><ele>385.0</ele><time>2026-04-26T16:38:10.999Z</time></trkpt><trkpt lat="43.345960623264446" lon="12.434370385395942"><ele>385.0</ele><time>2026-04-26T16:38:11.999Z</time></trkpt><trkpt lat="43.34577779678968" lon="12.434361660075098"><ele>385.0</ele><time>2026-04-26T16:38:12.999Z</time></trkpt><trkpt lat="43.34559207218951" lon="12.43431831198521"><ele>385.0</ele><time>2026-04-26T16:38:13.999Z</time></trkpt><trkpt lat="43.345374798706395" lon="12.43422322603904"><ele>379.0</ele><time>2026-04-26T16:38:14.999Z</time></trkpt><trkpt lat="43.34519675515055" lon="12.434077386393547"><ele>373.0</ele><time>2026-04-26T16:38:15.999Z</time></trkpt><trkpt lat="43.345043905034366" lon="12.433909305017902"><ele>367.0</ele><time>2026-04-26T16:38:16.999Z</time></trkpt><trkpt lat="43.34496137377577" lon="12.43360413956842"><ele>367.0</ele><time>2026-04-26T16:38:17.999Z</time></trkpt><trkpt lat="43.34488485388363" lon="12.433339768591678"><ele>367.0</ele><time>2026-04-26T16:38:18.999Z</time></trkpt><trkpt lat="43.344884212284434" lon="12.433014464737601"><ele>367.0</ele><time>2026-04-26T16:38:19.998Z</time></trkpt><trkpt lat="43.34486534052093" lon="12.432670423616974"><ele>366.66666666666663</ele><time>2026-04-26T16:38:21Z</time></trkpt><trkpt lat="43.3448626576745" lon="12.432374430194509"><ele>366.3333333333333</ele><time>2026-04-26T16:38:22Z</time></trkpt><trkpt lat="43.34496522039898" lon="12.432111507164517"><ele>366.0</ele><time>2026-04-26T16:38:23Z</time></trkpt><trkpt lat="43.34501468327857" lon="12.431879206851699"><ele>366.0</ele><time>2026-04-26T16:38:24Z</time></trkpt><trkpt lat="43.3450541507847" lon="12.43154496117745"><ele>366.0</ele><time>2026-04-26T16:38:25Z</time></trkpt><trkpt lat="43.345046895814434" lon="12.431230379606273"><ele>365.0</ele><time>2026-04-26T16:38:26Z</time></trkpt><trkpt lat="43.34504176366701" lon="12.43090967830097"><ele>364.0</ele><time>2026-04-26T16:38:27Z</time></trkpt><trkpt lat="43.34503295440792" lon="12.430623854450566"><ele>363.0</ele><time>2026-04-26T16:38:28Z</time></trkpt><trkpt lat="43.34503642710722" lon="12.430350078139773"><ele>364.5</ele><time>2026-04-26T16:38:29Z</time></trkpt><trkpt lat="43.34501992633742" lon="12.43015144646951"><ele>366.0</ele><time>2026-04-26T16:38:30Z</time></trkpt><trkpt lat="43.3449609786603" lon="12.430057197039158"><ele>367.5</ele><time>2026-04-26T16:38:31Z</time></trkpt><trkpt lat="43.34484141629324" lon="12.429949870528246"><ele>369.0</ele><time>2026-04-26T16:38:32Z</time></trkpt><trkpt lat="43.3447379396324" lon="12.42988639097169"><ele>364.3333333333333</ele><time>2026-04-26T16:38:33Z</time></trkpt><trkpt lat="43.34456864925397" lon="12.429929893656947"><ele>359.66666666666663</ele><time>2026-04-26T16:38:34Z</time></trkpt><trkpt lat="43.3443927337512" lon="12.430002023375412"><ele>355.0</ele><time>2026-04-26T16:38:35Z</time></trkpt><trkpt lat="43.344203037132914" lon="12.430049727490008"><ele>355.0</ele><time>2026-04-26T16:38:36Z</time></trkpt><trkpt lat="43.34401439114818" lon="12.429978531748686"><ele>355.0</ele><time>2026-04-26T16:38:37Z</time></trkpt><trkpt lat="43.34384753270319" lon="12.429807739645117"><ele>355.0</ele><time>2026-04-26T16:38:38Z</time></trkpt><trkpt lat="43.34370071838621" lon="12.429591447341238"><ele>353.5</ele><time>2026-04-26T16:38:39Z</time></trkpt><trkpt lat="43.34354390181867" lon="12.42936143107119"><ele>352.0</ele><time>2026-04-26T16:38:40Z</time></trkpt><trkpt lat="43.34338131305154" lon="12.429124591991224"><ele>352.0</ele><time>2026-04-26T16:38:41Z</time></trkpt><trkpt lat="43.34320294364704" lon="12.42889140152373"><ele>352.0</ele><time>2026-04-26T16:38:42Z</time></trkpt><trkpt lat="43.34303285454652" lon="12.428686565069285"><ele>345.66666666666663</ele><time>2026-04-26T16:38:43Z</time></trkpt><trkpt lat="43.34290139381806" lon="12.428503022216207"><ele>339.3333333333333</ele><time>2026-04-26T16:38:44Z</time></trkpt><trkpt lat="43.34280016103731" lon="12.428358222005544"><ele>333.0</ele><time>2026-04-26T16:38:45Z</time></trkpt><trkpt lat="43.34275457147199" lon="12.428207878825571"><ele>333.0</ele><time>2026-04-26T16:38:46Z</time></trkpt><trkpt lat="43.342745450553345" lon="12.428023238095683"><ele>333.0</ele><time>2026-04-26T16:38:47Z</time></trkpt><trkpt lat="43.34278734686443" lon="12.427800494164162"><ele>333.0</ele><time>2026-04-26T16:38:48Z</time></trkpt><trkpt lat="43.34291062226429" lon="12.427565918918901"><ele>332.3333333333333</ele><time>2026-04-26T16:38:49Z</time></trkpt><trkpt lat="43.34300667111824" lon="12.427306330220683"><ele>331.66666666666663</ele><time>2026-04-26T16:38:50Z</time></trkpt><trkpt lat="43.34309269624453" lon="12.427033317417376"><ele>331.0</ele><time>2026-04-26T16:38:51Z</time></trkpt><trkpt lat="43.343135687440665" lon="12.426745035858286"><ele>334.0</ele><time>2026-04-26T16:38:52Z</time></trkpt><trkpt lat="43.34316782432057" lon="12.426428887200473"><ele>337.0</ele><time>2026-04-26T16:38:53Z</time></trkpt><trkpt lat="43.343216251447586" lon="12.426108599384426"><ele>337.0</ele><time>2026-04-26T16:38:54Z</time></trkpt><trkpt lat="43.34327054159412" lon="12.425769929789245"><ele>337.0</ele><time>2026-04-26T16:38:55Z</time></trkpt><trkpt lat="43.34332865390095" lon="12.425427405513027"><ele>335.0</ele><time>2026-04-26T16:38:56Z</time></trkpt><trkpt lat="43.343385332387186" lon="12.42508605578646"><ele>333.0</ele><time>2026-04-26T16:38:57Z</time></trkpt><trkpt lat="43.34344085371787" lon="12.424737498933375"><ele>332.5</ele><time>2026-04-26T16:38:58Z</time></trkpt><trkpt lat="43.34347702777146" lon="12.424398663165311"><ele>332.0</ele><time>2026-04-26T16:38:59Z</time></trkpt><trkpt lat="43.343497471220694" lon="12.424085682055003"><ele>330.5</ele><time>2026-04-26T16:39:00Z</time></trkpt><trkpt lat="43.34349174122062" lon="12.4237375474468"><ele>329.0</ele><time>2026-04-26T16:39:01Z</time></trkpt><trkpt lat="43.343478655869205" lon="12.42339757184321"><ele>329.0</ele><time>2026-04-26T16:39:02Z</time></trkpt><trkpt lat="43.34345325881282" lon="12.423039164398034"><ele>329.0</ele><time>2026-04-26T16:39:03Z</time></trkpt><trkpt lat="43.34341238333013" lon="12.42269167130119"><ele>326.5</ele><time>2026-04-26T16:39:04Z</time></trkpt><trkpt lat="43.343335633571385" lon="12.42234217087381"><ele>324.0</ele><time>2026-04-26T16:39:05Z</time></trkpt><trkpt lat="43.343248395432006" lon="12.42201720530393"><ele>324.3333333333333</ele><time>2026-04-26T16:39:06Z</time></trkpt><trkpt lat="43.343163601278526" lon="12.421731443513842"><ele>324.66666666666663</ele><time>2026-04-26T16:39:07Z</time></trkpt><trkpt lat="43.343067491137695" lon="12.421500467374702"><ele>325.0</ele><time>2026-04-26T16:39:08Z</time></trkpt><trkpt lat="43.34294153900631" lon="12.421302377799885"><ele>325.0</ele><time>2026-04-26T16:39:09Z</time></trkpt><trkpt lat="43.34272941659999" lon="12.421180994900602"><ele>325.0</ele><time>2026-04-26T16:39:10Z</time></trkpt><trkpt lat="43.342507139599405" lon="12.42107572136138"><ele>325.0</ele><time>2026-04-26T16:39:11Z</time></trkpt><trkpt lat="43.34227676055353" lon="12.420983307430431"><ele>325.0</ele><time>2026-04-26T16:39:12Z</time></trkpt><trkpt lat="43.342048508053104" lon="12.420862178372293"><ele>322.0</ele><time>2026-04-26T16:39:13Z</time></trkpt><trkpt lat="43.34181589391594" lon="12.420731676753254"><ele>319.0</ele><time>2026-04-26T16:39:14Z</time></trkpt><trkpt lat="43.34159097957439" lon="12.420617587235858"><ele>316.0</ele><time>2026-04-26T16:39:15Z</time></trkpt><trkpt lat="43.34137461666523" lon="12.420500334693168"><ele>313.0</ele><time>2026-04-26T16:39:16Z</time></trkpt><trkpt lat="43.34116067321915" lon="12.420377101813227"><ele>321.0</ele><time>2026-04-26T16:39:17Z</time></trkpt><trkpt lat="43.34094883079043" lon="12.420222325153249"><ele>329.0</ele><time>2026-04-26T16:39:18Z</time></trkpt><trkpt lat="43.34074148984931" lon="12.420034264462297"><ele>326.0</ele><time>2026-04-26T16:39:19Z</time></trkpt><trkpt lat="43.340529191971456" lon="12.419816204760911"><ele>323.0</ele><time>2026-04-26T16:39:20Z</time></trkpt><trkpt lat="43.34031561220728" lon="12.419602980231188"><ele>323.0</ele><time>2026-04-26T16:39:21Z</time></trkpt><trkpt lat="43.340107514458474" lon="12.419379530436414"><ele>323.0</ele><time>2026-04-26T16:39:22Z</time></trkpt><trkpt lat="43.3399127977627" lon="12.419143032015945"><ele>323.0</ele><time>2026-04-26T16:39:23Z</time></trkpt><trkpt lat="43.33972035940333" lon="12.418904669512463"><ele>323.0</ele><time>2026-04-26T16:39:24Z</time></trkpt><trkpt lat="43.33951182076325" lon="12.418701339648305"><ele>323.0</ele><time>2026-04-26T16:39:24.999Z</time></trkpt><trkpt lat="43.33927957158911" lon="12.418540682914438"><ele>323.0</ele><time>2026-04-26T16:39:25.999Z</time></trkpt><trkpt lat="43.33905571851433" lon="12.418354032373104"><ele>321.0</ele><time>2026-04-26T16:39:26.999Z</time></trkpt><trkpt lat="43.33884874164773" lon="12.418178033646221"><ele>319.0</ele><time>2026-04-26T16:39:27.999Z</time></trkpt><trkpt lat="43.338629483614625" lon="12.417893138543825"><ele>319.0</ele><time>2026-04-26T16:39:28.999Z</time></trkpt><trkpt lat="43.338436975567824" lon="12.41763753463626"><ele>319.0</ele><time>2026-04-26T16:39:29.999Z</time></trkpt><trkpt lat="43.33825496984219" lon="12.417363396108387"><ele>323.0</ele><time>2026-04-26T16:39:30.999Z</time></trkpt><trkpt lat="43.338110177386234" lon="12.417086696855108"><ele>327.0</ele><time>2026-04-26T16:39:31.999Z</time></trkpt><trkpt lat="43.33799494032513" lon="12.416804245943544"><ele>320.5</ele><time>2026-04-26T16:39:32.999Z</time></trkpt><trkpt lat="43.3379037101203" lon="12.416524586487895"><ele>314.0</ele><time>2026-04-26T16:39:33.999Z</time></trkpt><trkpt lat="43.33781484570521" lon="12.41622813742212"><ele>314.0</ele><time>2026-04-26T16:39:34.999Z</time></trkpt><trkpt lat="43.33771757345796" lon="12.415947002523863"><ele>314.0</ele><time>2026-04-26T16:39:35.999Z</time></trkpt><trkpt lat="43.33760438707412" lon="12.415678501810351"><ele>320.0</ele><time>2026-04-26T16:39:36.999Z</time></trkpt><trkpt lat="43.33745447373115" lon="12.415421699672077"><ele>326.0</ele><time>2026-04-26T16:39:37.999Z</time></trkpt><trkpt lat="43.33728050946948" lon="12.415173937078144"><ele>317.5</ele><time>2026-04-26T16:39:38.999Z</time></trkpt><trkpt lat="43.337095453116646" lon="12.414933995452488"><ele>309.0</ele><time>2026-04-26T16:39:39.999Z</time></trkpt><trkpt lat="43.33690584140982" lon="12.414702785182858"><ele>314.5</ele><time>2026-04-26T16:39:40.999Z</time></trkpt><trkpt lat="43.3367268889765" lon="12.41445896349788"><ele>320.0</ele><time>2026-04-26T16:39:41.999Z</time></trkpt><trkpt lat="43.33655373146065" lon="12.414218064034632"><ele>320.0</ele><time>2026-04-26T16:39:42.999Z</time></trkpt><trkpt lat="43.33639721275272" lon="12.413994336302814"><ele>320.0</ele><time>2026-04-26T16:39:43.999Z</time></trkpt><trkpt lat="43.336249182505156" lon="12.413791078864035"><ele>320.0</ele><time>2026-04-26T16:39:44.999Z</time></trkpt><trkpt lat="43.33607910883407" lon="12.4136196349289"><ele>320.6666666666667</ele><time>2026-04-26T16:39:45.999Z</time></trkpt><trkpt lat="43.335885829364244" lon="12.413484361679885"><ele>321.3333333333333</ele><time>2026-04-26T16:39:46.999Z</time></trkpt><trkpt lat="43.335662512921516" lon="12.41340297564035"><ele>322.0</ele><time>2026-04-26T16:39:47.999Z</time></trkpt><trkpt lat="43.33542753622183" lon="12.41337557268087"><ele>316.5</ele><time>2026-04-26T16:39:48.999Z</time></trkpt><trkpt lat="43.33520122248231" lon="12.41333117032344"><ele>311.0</ele><time>2026-04-26T16:39:49.999Z</time></trkpt><trkpt lat="43.33500670277093" lon="12.413166192730971"><ele>309.33333333333337</ele><time>2026-04-26T16:39:50.999Z</time></trkpt><trkpt lat="43.334837422392646" lon="12.412970959222655"><ele>307.6666666666667</ele><time>2026-04-26T16:39:51.999Z</time></trkpt><trkpt lat="43.33473659121835" lon="12.412789469315113"><ele>306.0</ele><time>2026-04-26T16:39:52.999Z</time></trkpt><trkpt lat="43.334654385641535" lon="12.412625059642473"><ele>306.0</ele><time>2026-04-26T16:39:53.999Z</time></trkpt><trkpt lat="43.33457450623095" lon="12.412454518556963"><ele>306.0</ele><time>2026-04-26T16:39:54.999Z</time></trkpt><trkpt lat="43.3345133179375" lon="12.412328459147917"><ele>306.0</ele><time>2026-04-26T16:39:55.999Z</time></trkpt><trkpt lat="43.334425514199694" lon="12.412187348887304"><ele>306.0</ele><time>2026-04-26T16:39:56.999Z</time></trkpt><trkpt lat="43.334347693302206" lon="12.411989626752227"><ele>309.0</ele><time>2026-04-26T16:39:57.999Z</time></trkpt><trkpt lat="43.33423455927223" lon="12.411804590631231"><ele>312.0</ele><time>2026-04-26T16:39:58.999Z</time></trkpt><trkpt lat="43.334132084302155" lon="12.411590891729542"><ele>315.0</ele><time>2026-04-26T16:39:59.999Z</time></trkpt><trkpt lat="43.33402866120074" lon="12.41136130284765"><ele>312.6666666666667</ele><time>2026-04-26T16:40:00.999Z</time></trkpt><trkpt lat="43.333895747327674" lon="12.411123055493457"><ele>310.33333333333337</ele><time>2026-04-26T16:40:01.999Z</time></trkpt><trkpt lat="43.3337613644945" lon="12.410883688547543"><ele>308.0</ele><time>2026-04-26T16:40:02.999Z</time></trkpt><trkpt lat="43.33360285470912" lon="12.41065495972665"><ele>317.0</ele><time>2026-04-26T16:40:03.999Z</time></trkpt><trkpt lat="43.33342943563341" lon="12.410431973833077"><ele>326.0</ele><time>2026-04-26T16:40:04.999Z</time></trkpt><trkpt lat="43.33323979626259" lon="12.410219568434895"><ele>315.0</ele><time>2026-04-26T16:40:05.999Z</time></trkpt><trkpt lat="43.33304355790663" lon="12.410010629121569"><ele>304.0</ele><time>2026-04-26T16:40:06.999Z</time></trkpt><trkpt lat="43.33284641449043" lon="12.409804510826595"><ele>309.5</ele><time>2026-04-26T16:40:07.999Z</time></trkpt><trkpt lat="43.33265357657537" lon="12.409575120386442"><ele>315.0</ele><time>2026-04-26T16:40:08.999Z</time></trkpt><trkpt lat="43.33246705021843" lon="12.409320606254942"><ele>315.0</ele><time>2026-04-26T16:40:09.999Z</time></trkpt><trkpt lat="43.33228574531549" lon="12.40905094974644"><ele>315.0</ele><time>2026-04-26T16:40:10.999Z</time></trkpt><trkpt lat="43.33210088199687" lon="12.408778148081115"><ele>309.5</ele><time>2026-04-26T16:40:11.999Z</time></trkpt><trkpt lat="43.33192284539866" lon="12.408519786289265"><ele>304.0</ele><time>2026-04-26T16:40:12.999Z</time></trkpt><trkpt lat="43.33175508097593" lon="12.408280561283657"><ele>304.0</ele><time>2026-04-26T16:40:13.999Z</time></trkpt><trkpt lat="43.33159599934822" lon="12.408045619514805"><ele>304.0</ele><time>2026-04-26T16:40:14.999Z</time></trkpt><trkpt lat="43.33142592624497" lon="12.407813874468642"><ele>302.0</ele><time>2026-04-26T16:40:15.999Z</time></trkpt><trkpt lat="43.331234180099926" lon="12.407592883819527"><ele>300.0</ele><time>2026-04-26T16:40:16.999Z</time></trkpt><trkpt lat="43.3310183260415" lon="12.40739838975121"><ele>300.0</ele><time>2026-04-26T16:40:17.999Z</time></trkpt><trkpt lat="43.330787764245976" lon="12.407224475294182"><ele>300.0</ele><time>2026-04-26T16:40:18.999Z</time></trkpt><trkpt lat="43.33055310390878" lon="12.407049531581222"><ele>300.0</ele><time>2026-04-26T16:40:19.999Z</time></trkpt><trkpt lat="43.33031992961139" lon="12.406860568630913"><ele>300.0</ele><time>2026-04-26T16:40:20.999Z</time></trkpt><trkpt lat="43.33009636384994" lon="12.406674142933147"><ele>300.0</ele><time>2026-04-26T16:40:21.999Z</time></trkpt><trkpt lat="43.32988825342794" lon="12.406497503239693"><ele>300.0</ele><time>2026-04-26T16:40:22.999Z</time></trkpt><trkpt lat="43.329694454615456" lon="12.406316578358883"><ele>297.5</ele><time>2026-04-26T16:40:23.999Z</time></trkpt><trkpt lat="43.32953949810366" lon="12.406073876250536"><ele>295.0</ele><time>2026-04-26T16:40:24.999Z</time></trkpt><trkpt lat="43.32940354535345" lon="12.405816225477187"><ele>295.0</ele><time>2026-04-26T16:40:25.999Z</time></trkpt><trkpt lat="43.329298723622095" lon="12.405528240362253"><ele>295.0</ele><time>2026-04-26T16:40:27Z</time></trkpt><trkpt lat="43.329225744040805" lon="12.40520066173512"><ele>296.5</ele><time>2026-04-26T16:40:28Z</time></trkpt><trkpt lat="43.32916635894209" lon="12.404856464593593"><ele>298.0</ele><time>2026-04-26T16:40:29Z</time></trkpt><trkpt lat="43.32910221614803" lon="12.4045227911106"><ele>298.0</ele><time>2026-04-26T16:40:30Z</time></trkpt><trkpt lat="43.32903018220334" lon="12.40421059777484"><ele>298.0</ele><time>2026-04-26T16:40:31Z</time></trkpt><trkpt lat="43.32892084763638" lon="12.403920053835103"><ele>296.5</ele><time>2026-04-26T16:40:32Z</time></trkpt><trkpt lat="43.32877369940958" lon="12.403653981006105"><ele>295.0</ele><time>2026-04-26T16:40:33Z</time></trkpt><trkpt lat="43.32859276214402" lon="12.403416835493893"><ele>295.0</ele><time>2026-04-26T16:40:34Z</time></trkpt><trkpt lat="43.32839302573424" lon="12.403205937901111"><ele>295.0</ele><time>2026-04-26T16:40:35Z</time></trkpt><trkpt lat="43.328171569738245" lon="12.403026135880282"><ele>298.5</ele><time>2026-04-26T16:40:36Z</time></trkpt><trkpt lat="43.32792960753875" lon="12.402887104746867"><ele>302.0</ele><time>2026-04-26T16:40:37Z</time></trkpt><trkpt lat="43.327672166912194" lon="12.40279302466085"><ele>302.0</ele><time>2026-04-26T16:40:38Z</time></trkpt><trkpt lat="43.32740395874502" lon="12.402718159659091"><ele>302.0</ele><time>2026-04-26T16:40:39Z</time></trkpt><trkpt lat="43.327161208382925" lon="12.402583893378443"><ele>298.0</ele><time>2026-04-26T16:40:40Z</time></trkpt><trkpt lat="43.32694814884885" lon="12.40243780753419"><ele>294.0</ele><time>2026-04-26T16:40:41Z</time></trkpt><trkpt lat="43.32673721891813" lon="12.402238829816682"><ele>293.5</ele><time>2026-04-26T16:40:42Z</time></trkpt><trkpt lat="43.326531633932866" lon="12.402027439525105"><ele>293.0</ele><time>2026-04-26T16:40:43Z</time></trkpt><trkpt lat="43.326349453864914" lon="12.40183685822758"><ele>293.0</ele><time>2026-04-26T16:40:44Z</time></trkpt><trkpt lat="43.32618524934531" lon="12.401645976817472"><ele>293.0</ele><time>2026-04-26T16:40:45Z</time></trkpt><trkpt lat="43.32605222416013" lon="12.401434542366765"><ele>293.0</ele><time>2026-04-26T16:40:46Z</time></trkpt><trkpt lat="43.325960386458874" lon="12.401180323400592"><ele>292.0</ele><time>2026-04-26T16:40:47Z</time></trkpt><trkpt lat="43.325894471449104" lon="12.40087737289876"><ele>291.0</ele><time>2026-04-26T16:40:48Z</time></trkpt><trkpt lat="43.32583990454334" lon="12.400554483370337"><ele>290.0</ele><time>2026-04-26T16:40:49Z</time></trkpt><trkpt lat="43.32579442699085" lon="12.40026237872468"><ele>289.0</ele><time>2026-04-26T16:40:50Z</time></trkpt><trkpt lat="43.325755364354634" lon="12.399993745631685"><ele>288.0</ele><time>2026-04-26T16:40:51Z</time></trkpt><trkpt lat="43.32571917785941" lon="12.399740556722069"><ele>288.0</ele><time>2026-04-26T16:40:52Z</time></trkpt><trkpt lat="43.325695874686666" lon="12.399499351210784"><ele>288.0</ele><time>2026-04-26T16:40:53Z</time></trkpt><trkpt lat="43.32566471007678" lon="12.39923596743952"><ele>288.0</ele><time>2026-04-26T16:40:54Z</time></trkpt><trkpt lat="43.32567291616581" lon="12.398949784048346"><ele>286.6666666666667</ele><time>2026-04-26T16:40:55Z</time></trkpt><trkpt lat="43.32570094294206" lon="12.398645264153558"><ele>285.33333333333337</ele><time>2026-04-26T16:40:56Z</time></trkpt><trkpt lat="43.32573167457769" lon="12.398343763864727"><ele>284.0</ele><time>2026-04-26T16:40:57Z</time></trkpt><trkpt lat="43.325758711185664" lon="12.398045998919933"><ele>283.6666666666667</ele><time>2026-04-26T16:40:58Z</time></trkpt><trkpt lat="43.32578597242544" lon="12.397742772348936"><ele>283.3333333333333</ele><time>2026-04-26T16:40:59Z</time></trkpt><trkpt lat="43.32581246946079" lon="12.397432728701293"><ele>283.0</ele><time>2026-04-26T16:41:00Z</time></trkpt><trkpt lat="43.325833994503476" lon="12.397111028369798"><ele>282.0</ele><time>2026-04-26T16:41:01Z</time></trkpt><trkpt lat="43.325861786477" lon="12.396776140229441"><ele>281.0</ele><time>2026-04-26T16:41:02Z</time></trkpt><trkpt lat="43.32589120968368" lon="12.396429738414316"><ele>281.5</ele><time>2026-04-26T16:41:03Z</time></trkpt><trkpt lat="43.32591825518755" lon="12.396074487419046"><ele>282.0</ele><time>2026-04-26T16:41:04Z</time></trkpt><trkpt lat="43.325946684068086" lon="12.395711247759623"><ele>282.0</ele><time>2026-04-26T16:41:05Z</time></trkpt><trkpt lat="43.32597123345867" lon="12.395340916814028"><ele>282.0</ele><time>2026-04-26T16:41:06Z</time></trkpt><trkpt lat="43.3259877768933" lon="12.394962555561953"><ele>282.5</ele><time>2026-04-26T16:41:07Z</time></trkpt><trkpt lat="43.32601365997356" lon="12.394579179599232"><ele>283.0</ele><time>2026-04-26T16:41:08Z</time></trkpt><trkpt lat="43.32604699730268" lon="12.39419590874168"><ele>283.0</ele><time>2026-04-26T16:41:09Z</time></trkpt><trkpt lat="43.32608585300455" lon="12.393809999303032"><ele>283.0</ele><time>2026-04-26T16:41:10Z</time></trkpt><trkpt lat="43.326128954506224" lon="12.393423660681925"><ele>283.0</ele><time>2026-04-26T16:41:11Z</time></trkpt><trkpt lat="43.326163816742984" lon="12.393055873390015"><ele>283.0</ele><time>2026-04-26T16:41:12Z</time></trkpt><trkpt lat="43.3261929734929" lon="12.392708993654091"><ele>283.0</ele><time>2026-04-26T16:41:13Z</time></trkpt><trkpt lat="43.326219897723206" lon="12.392386138200932"><ele>283.0</ele><time>2026-04-26T16:41:14Z</time></trkpt><trkpt lat="43.326251339322845" lon="12.392084944707905"><ele>283.0</ele><time>2026-04-26T16:41:15Z</time></trkpt><trkpt lat="43.3262668001309" lon="12.391815391784482"><ele>283.0</ele><time>2026-04-26T16:41:16Z</time></trkpt><trkpt lat="43.326247903851396" lon="12.391573824180771"><ele>283.0</ele><time>2026-04-26T16:41:17Z</time></trkpt><trkpt lat="43.3261807222388" lon="12.391362889836786"><ele>282.3333333333333</ele><time>2026-04-26T16:41:18Z</time></trkpt><trkpt lat="43.326067323979736" lon="12.391188562915866"><ele>281.6666666666667</ele><time>2026-04-26T16:41:19Z</time></trkpt><trkpt lat="43.3259062420376" lon="12.391050146483739"><ele>281.0</ele><time>2026-04-26T16:41:20Z</time></trkpt><trkpt lat="43.325721216940984" lon="12.39094009816569"><ele>279.33333333333337</ele><time>2026-04-26T16:41:21Z</time></trkpt><trkpt lat="43.325524503305765" lon="12.390844855513071"><ele>277.6666666666667</ele><time>2026-04-26T16:41:22Z</time></trkpt><trkpt lat="43.32531603166085" lon="12.390743688554181"><ele>276.0</ele><time>2026-04-26T16:41:23Z</time></trkpt><trkpt lat="43.325102021671334" lon="12.390628523688681"><ele>276.0</ele><time>2026-04-26T16:41:24Z</time></trkpt><trkpt lat="43.32488768577941" lon="12.3905124855988"><ele>276.0</ele><time>2026-04-26T16:41:25Z</time></trkpt><trkpt lat="43.32464885606972" lon="12.390433051793677"><ele>276.5</ele><time>2026-04-26T16:41:26Z</time></trkpt><trkpt lat="43.324416044869395" lon="12.390408262894445"><ele>277.0</ele><time>2026-04-26T16:41:27Z</time></trkpt><trkpt lat="43.32417751632452" lon="12.390417363610064"><ele>277.0</ele><time>2026-04-26T16:41:28Z</time></trkpt><trkpt lat="43.32396858368773" lon="12.390465965358269"><ele>277.0</ele><time>2026-04-26T16:41:28.999Z</time></trkpt><trkpt lat="43.3237923183074" lon="12.390468035019552"><ele>277.0</ele><time>2026-04-26T16:41:29.999Z</time></trkpt><trkpt lat="43.32363325577213" lon="12.390462100627117"><ele>280.3333333333333</ele><time>2026-04-26T16:41:30.999Z</time></trkpt><trkpt lat="43.32351844719896" lon="12.390317413110484"><ele>283.6666666666667</ele><time>2026-04-26T16:41:31.999Z</time></trkpt><trkpt lat="43.32341782443679" lon="12.390127013960246"><ele>287.0</ele><time>2026-04-26T16:41:32.999Z</time></trkpt><trkpt lat="43.32333782794657" lon="12.38990832199589"><ele>286.0</ele><time>2026-04-26T16:41:33.999Z</time></trkpt><trkpt lat="43.32326248049432" lon="12.389666450677277"><ele>285.0</ele><time>2026-04-26T16:41:34.999Z</time></trkpt><trkpt lat="43.32318967051678" lon="12.389410431228356"><ele>284.0</ele><time>2026-04-26T16:41:35.999Z</time></trkpt><trkpt lat="43.32313537351612" lon="12.389142280029349"><ele>284.0</ele><time>2026-04-26T16:41:36.999Z</time></trkpt><trkpt lat="43.323126608033284" lon="12.388858230362215"><ele>284.0</ele><time>2026-04-26T16:41:37.999Z</time></trkpt><trkpt lat="43.323161707089845" lon="12.388559145411833"><ele>284.0</ele><time>2026-04-26T16:41:38.999Z</time></trkpt><trkpt lat="43.32321072937423" lon="12.38825023184053"><ele>285.0</ele><time>2026-04-26T16:41:39.999Z</time></trkpt><trkpt lat="43.32324314699377" lon="12.38796110289369"><ele>286.0</ele><time>2026-04-26T16:41:40.999Z</time></trkpt><trkpt lat="43.32329170324812" lon="12.387700358603682"><ele>287.0</ele><time>2026-04-26T16:41:41.999Z</time></trkpt><trkpt lat="43.32332122552983" lon="12.387450195697566"><ele>287.0</ele><time>2026-04-26T16:41:42.999Z</time></trkpt><trkpt lat="43.32331361355432" lon="12.38721346571007"><ele>287.0</ele><time>2026-04-26T16:41:43.999Z</time></trkpt><trkpt lat="43.323268991909025" lon="12.386984709152545"><ele>287.0</ele><time>2026-04-26T16:41:44.999Z</time></trkpt><trkpt lat="43.323177657519466" lon="12.386763873208304"><ele>288.0</ele><time>2026-04-26T16:41:45.999Z</time></trkpt><trkpt lat="43.32304836945807" lon="12.386557519393829"><ele>289.0</ele><time>2026-04-26T16:41:46.999Z</time></trkpt><trkpt lat="43.32288548163456" lon="12.386379365193529"><ele>290.0</ele><time>2026-04-26T16:41:47.999Z</time></trkpt><trkpt lat="43.32270504076806" lon="12.386224800636423"><ele>290.0</ele><time>2026-04-26T16:41:48.999Z</time></trkpt><trkpt lat="43.32251167389762" lon="12.386084304379263"><ele>290.0</ele><time>2026-04-26T16:41:49.999Z</time></trkpt><trkpt lat="43.322308431708095" lon="12.38594975027738"><ele>290.0</ele><time>2026-04-26T16:41:50.999Z</time></trkpt><trkpt lat="43.32210247507936" lon="12.385810199355705"><ele>287.0</ele><time>2026-04-26T16:41:51.999Z</time></trkpt><trkpt lat="43.32189381608164" lon="12.385656537861742"><ele>284.0</ele><time>2026-04-26T16:41:52.999Z</time></trkpt><trkpt lat="43.321691552277606" lon="12.38550302795845"><ele>284.0</ele><time>2026-04-26T16:41:53.999Z</time></trkpt><trkpt lat="43.321491579270415" lon="12.38537710523959"><ele>284.0</ele><time>2026-04-26T16:41:54.999Z</time></trkpt><trkpt lat="43.32127569844462" lon="12.385309668814827"><ele>284.0</ele><time>2026-04-26T16:41:55.999Z</time></trkpt><trkpt lat="43.321042210352886" lon="12.385303599850351"><ele>283.0</ele><time>2026-04-26T16:41:56.999Z</time></trkpt><trkpt lat="43.32080251152984" lon="12.385342508166008"><ele>282.0</ele><time>2026-04-26T16:41:57.999Z</time></trkpt><trkpt lat="43.32055884689042" lon="12.385415836063006"><ele>282.0</ele><time>2026-04-26T16:41:58.999Z</time></trkpt><trkpt lat="43.32031135864078" lon="12.385494057623575"><ele>282.0</ele><time>2026-04-26T16:41:59.999Z</time></trkpt><trkpt lat="43.320053876527176" lon="12.385559858389927"><ele>288.0</ele><time>2026-04-26T16:42:00.999Z</time></trkpt><trkpt lat="43.31979502736491" lon="12.385620233515834"><ele>294.0</ele><time>2026-04-26T16:42:01.999Z</time></trkpt><trkpt lat="43.319549443874486" lon="12.38567815284894"><ele>294.0</ele><time>2026-04-26T16:42:02.999Z</time></trkpt><trkpt lat="43.319316182911926" lon="12.38571937625208"><ele>294.0</ele><time>2026-04-26T16:42:03.999Z</time></trkpt><trkpt lat="43.31908811994905" lon="12.385717690937845"><ele>296.5</ele><time>2026-04-26T16:42:04.999Z</time></trkpt><trkpt lat="43.318866099065986" lon="12.385626530845895"><ele>299.0</ele><time>2026-04-26T16:42:05.999Z</time></trkpt><trkpt lat="43.31864154798193" lon="12.385492673241881"><ele>291.5</ele><time>2026-04-26T16:42:06.999Z</time></trkpt><trkpt lat="43.318424304862134" lon="12.38531193030905"><ele>284.0</ele><time>2026-04-26T16:42:07.999Z</time></trkpt><trkpt lat="43.318203729943406" lon="12.385110241543966"><ele>289.0</ele><time>2026-04-26T16:42:08.999Z</time></trkpt><trkpt lat="43.31797190902015" lon="12.3849180842684"><ele>294.0</ele><time>2026-04-26T16:42:09.999Z</time></trkpt><trkpt lat="43.31774669104612" lon="12.384704852302038"><ele>287.5</ele><time>2026-04-26T16:42:10.999Z</time></trkpt><trkpt lat="43.31754135334117" lon="12.38451448376108"><ele>281.0</ele><time>2026-04-26T16:42:11.999Z</time></trkpt><trkpt lat="43.31734913816104" lon="12.384333814025963"><ele>280.33333333333337</ele><time>2026-04-26T16:42:12.999Z</time></trkpt><trkpt lat="43.317154195088506" lon="12.384203997181368"><ele>279.6666666666667</ele><time>2026-04-26T16:42:13.999Z</time></trkpt><trkpt lat="43.31694127740978" lon="12.384136293788655"><ele>279.0</ele><time>2026-04-26T16:42:14.999Z</time></trkpt><trkpt lat="43.31670988743039" lon="12.384143568080004"><ele>279.0</ele><time>2026-04-26T16:42:15.999Z</time></trkpt><trkpt lat="43.31647191888562" lon="12.38420574183499"><ele>279.0</ele><time>2026-04-26T16:42:16.999Z</time></trkpt><trkpt lat="43.31623051841849" lon="12.384285301207772"><ele>278.5</ele><time>2026-04-26T16:42:17.999Z</time></trkpt><trkpt lat="43.31598284943556" lon="12.384346875556208"><ele>278.0</ele><time>2026-04-26T16:42:18.999Z</time></trkpt><trkpt lat="43.31576005542873" lon="12.384406498575038"><ele>277.33333333333337</ele><time>2026-04-26T16:42:19.999Z</time></trkpt><trkpt lat="43.31556118563384" lon="12.384459477419968"><ele>276.6666666666667</ele><time>2026-04-26T16:42:20.999Z</time></trkpt><trkpt lat="43.3153784048427" lon="12.384494558744256"><ele>276.0</ele><time>2026-04-26T16:42:21.999Z</time></trkpt><trkpt lat="43.31520241598851" lon="12.384494988282649"><ele>276.0</ele><time>2026-04-26T16:42:22.999Z</time></trkpt><trkpt lat="43.31502052101869" lon="12.384417247242064"><ele>276.0</ele><time>2026-04-26T16:42:23.999Z</time></trkpt><trkpt lat="43.31486751775274" lon="12.384230031595221"><ele>276.0</ele><time>2026-04-26T16:42:24.999Z</time></trkpt><trkpt lat="43.31472600607416" lon="12.384018902804499"><ele>272.5</ele><time>2026-04-26T16:42:25.999Z</time></trkpt><trkpt lat="43.31457457893085" lon="12.383788924917345"><ele>269.0</ele><time>2026-04-26T16:42:26.999Z</time></trkpt><trkpt lat="43.31442950794108" lon="12.383539879557075"><ele>269.0</ele><time>2026-04-26T16:42:27.999Z</time></trkpt><trkpt lat="43.314280181208375" lon="12.383285959947711"><ele>269.0</ele><time>2026-04-26T16:42:28.999Z</time></trkpt><trkpt lat="43.31413825126311" lon="12.383052531233432"><ele>268.0</ele><time>2026-04-26T16:42:29.999Z</time></trkpt><trkpt lat="43.3139812368697" lon="12.382852935261752"><ele>267.0</ele><time>2026-04-26T16:42:30.999Z</time></trkpt><trkpt lat="43.31379249882029" lon="12.382694897768452"><ele>266.0</ele><time>2026-04-26T16:42:31.998Z</time></trkpt><trkpt lat="43.31358022607508" lon="12.382579662925908"><ele>266.0</ele><time>2026-04-26T16:42:33Z</time></trkpt><trkpt lat="43.313357529654766" lon="12.382498876787674"><ele>266.0</ele><time>2026-04-26T16:42:34Z</time></trkpt><trkpt lat="43.313120136485885" lon="12.382451593680967"><ele>265.5</ele><time>2026-04-26T16:42:35Z</time></trkpt><trkpt lat="43.31287326628939" lon="12.38243967837354"><ele>265.0</ele><time>2026-04-26T16:42:36Z</time></trkpt><trkpt lat="43.31261755730298" lon="12.38244209626336"><ele>265.0</ele><time>2026-04-26T16:42:37Z</time></trkpt><trkpt lat="43.3123542792764" lon="12.382434805372469"><ele>265.0</ele><time>2026-04-26T16:42:38Z</time></trkpt><trkpt lat="43.312086980840306" lon="12.382424867396466"><ele>266.0</ele><time>2026-04-26T16:42:39Z</time></trkpt><trkpt lat="43.31181408292065" lon="12.382421841399989"><ele>267.0</ele><time>2026-04-26T16:42:40Z</time></trkpt><trkpt lat="43.31153608193012" lon="12.382395948144532"><ele>267.5</ele><time>2026-04-26T16:42:41Z</time></trkpt><trkpt lat="43.31125265116913" lon="12.382384518172364"><ele>268.0</ele><time>2026-04-26T16:42:42Z</time></trkpt><trkpt lat="43.310964792098545" lon="12.382393279591282"><ele>268.0</ele><time>2026-04-26T16:42:43Z</time></trkpt><trkpt lat="43.31068161902638" lon="12.382376015659359"><ele>268.0</ele><time>2026-04-26T16:42:44Z</time></trkpt><trkpt lat="43.31041223143786" lon="12.382362889694416"><ele>267.5</ele><time>2026-04-26T16:42:45Z</time></trkpt><trkpt lat="43.310159236110714" lon="12.38235556106408"><ele>267.0</ele><time>2026-04-26T16:42:46Z</time></trkpt><trkpt lat="43.30991502241251" lon="12.38234874134766"><ele>266.0</ele><time>2026-04-26T16:42:47Z</time></trkpt><trkpt lat="43.30968418549431" lon="12.38233955466744"><ele>265.0</ele><time>2026-04-26T16:42:48Z</time></trkpt><trkpt lat="43.3094647308242" lon="12.382333212002946"><ele>265.0</ele><time>2026-04-26T16:42:49Z</time></trkpt><trkpt lat="43.30925344266685" lon="12.382325398142864"><ele>265.0</ele><time>2026-04-26T16:42:50Z</time></trkpt><trkpt lat="43.309053029152054" lon="12.382321379358498"><ele>265.0</ele><time>2026-04-26T16:42:51Z</time></trkpt><trkpt lat="43.30885826028925" lon="12.382317457449629"><ele>266.66666666666663</ele><time>2026-04-26T16:42:52Z</time></trkpt><trkpt lat="43.30867224673256" lon="12.382312425586859"><ele>268.3333333333333</ele><time>2026-04-26T16:42:53Z</time></trkpt><trkpt lat="43.30849280252946" lon="12.38229811823906"><ele>270.0</ele><time>2026-04-26T16:42:54Z</time></trkpt><trkpt lat="43.308316162789374" lon="12.382284847472036"><ele>270.0</ele><time>2026-04-26T16:42:55Z</time></trkpt><trkpt lat="43.30813546743515" lon="12.382246197193895"><ele>270.0</ele><time>2026-04-26T16:42:56Z</time></trkpt><trkpt lat="43.307953168307975" lon="12.382176092782432"><ele>270.0</ele><time>2026-04-26T16:42:57Z</time></trkpt><trkpt lat="43.30777952521056" lon="12.38208373881015"><ele>265.6666666666667</ele><time>2026-04-26T16:42:58Z</time></trkpt><trkpt lat="43.30761362288174" lon="12.381961977595115"><ele>261.33333333333337</ele><time>2026-04-26T16:42:59Z</time></trkpt><trkpt lat="43.307455467000565" lon="12.381828963119242"><ele>257.0</ele><time>2026-04-26T16:43:00Z</time></trkpt><trkpt lat="43.30730178994075" lon="12.381695394520804"><ele>256.6666666666667</ele><time>2026-04-26T16:43:01Z</time></trkpt><trkpt lat="43.307149986144715" lon="12.381562074690775"><ele>256.3333333333333</ele><time>2026-04-26T16:43:02Z</time></trkpt><trkpt lat="43.306998247113526" lon="12.38143851828773"><ele>256.0</ele><time>2026-04-26T16:43:03Z</time></trkpt><trkpt lat="43.30684740793186" lon="12.381313116909002"><ele>256.0</ele><time>2026-04-26T16:43:04Z</time></trkpt><trkpt lat="43.3066995199332" lon="12.381190012618116"><ele>256.0</ele><time>2026-04-26T16:43:05Z</time></trkpt><trkpt lat="43.30656232672409" lon="12.38106841902421"><ele>256.0</ele><time>2026-04-26T16:43:06Z</time></trkpt><trkpt lat="43.30642898989373" lon="12.380954038129486"><ele>257.75</ele><time>2026-04-26T16:43:07Z</time></trkpt><trkpt lat="43.30629983175176" lon="12.380851055742008"><ele>259.5</ele><time>2026-04-26T16:43:08Z</time></trkpt><trkpt lat="43.306173750067494" lon="12.380749958963063"><ele>261.25</ele><time>2026-04-26T16:43:09Z</time></trkpt><trkpt lat="43.306045674025015" lon="12.380637573574164"><ele>263.0</ele><time>2026-04-26T16:43:10Z</time></trkpt><trkpt lat="43.305911483667714" lon="12.38052207818912"><ele>261.0</ele><time>2026-04-26T16:43:11Z</time></trkpt><trkpt lat="43.305774621032754" lon="12.380409705782604"><ele>259.0</ele><time>2026-04-26T16:43:12Z</time></trkpt><trkpt lat="43.30563793330532" lon="12.380295652334148"><ele>257.0</ele><time>2026-04-26T16:43:13Z</time></trkpt><trkpt lat="43.30550647861703" lon="12.380198320825826"><ele>257.0</ele><time>2026-04-26T16:43:14Z</time></trkpt><trkpt lat="43.305365728883686" lon="12.380123701017265"><ele>257.0</ele><time>2026-04-26T16:43:15Z</time></trkpt><trkpt lat="43.30521044193945" lon="12.380061637393496"><ele>257.0</ele><time>2026-04-26T16:43:16Z</time></trkpt><trkpt lat="43.30504319738108" lon="12.380016770379054"><ele>257.0</ele><time>2026-04-26T16:43:17Z</time></trkpt><trkpt lat="43.30486693601687" lon="12.379988533099866"><ele>257.0</ele><time>2026-04-26T16:43:18Z</time></trkpt><trkpt lat="43.3046863108886" lon="12.37998863282651"><ele>257.0</ele><time>2026-04-26T16:43:19Z</time></trkpt><trkpt lat="43.30450219152471" lon="12.379996258363267"><ele>257.33333333333337</ele><time>2026-04-26T16:43:20Z</time></trkpt><trkpt lat="43.30431252160237" lon="12.379989704129132"><ele>257.6666666666667</ele><time>2026-04-26T16:43:21Z</time></trkpt><trkpt lat="43.304117048911486" lon="12.379982141606469"><ele>258.0</ele><time>2026-04-26T16:43:22Z</time></trkpt><trkpt lat="43.303913958442145" lon="12.379980826864841"><ele>258.6666666666667</ele><time>2026-04-26T16:43:23Z</time></trkpt><trkpt lat="43.30370718544014" lon="12.379985577936154"><ele>259.33333333333337</ele><time>2026-04-26T16:43:24Z</time></trkpt><trkpt lat="43.303491956602066" lon="12.379979631313931"><ele>260.0</ele><time>2026-04-26T16:43:25Z</time></trkpt><trkpt lat="43.30327023153551" lon="12.379975516075396"><ele>259.0</ele><time>2026-04-26T16:43:26Z</time></trkpt><trkpt lat="43.30303562202212" lon="12.379979465909663"><ele>258.0</ele><time>2026-04-26T16:43:27Z</time></trkpt><trkpt lat="43.302798384029984" lon="12.3799785019435"><ele>258.0</ele><time>2026-04-26T16:43:28Z</time></trkpt><trkpt lat="43.302552917600025" lon="12.379963315414788"><ele>258.0</ele><time>2026-04-26T16:43:29Z</time></trkpt><trkpt lat="43.30230114010638" lon="12.379952377427655"><ele>257.0</ele><time>2026-04-26T16:43:30Z</time></trkpt><trkpt lat="43.30204147272367" lon="12.37994508025456"><ele>256.0</ele><time>2026-04-26T16:43:31Z</time></trkpt><trkpt lat="43.30177594845804" lon="12.37993364266882"><ele>256.0</ele><time>2026-04-26T16:43:32Z</time></trkpt><trkpt lat="43.30150511698753" lon="12.379922727629145"><ele>256.0</ele><time>2026-04-26T16:43:33Z</time></trkpt><trkpt lat="43.30122911449902" lon="12.37991943965447"><ele>256.5</ele><time>2026-04-26T16:43:33.999Z</time></trkpt><trkpt lat="43.30095004132397" lon="12.379913394729062"><ele>257.0</ele><time>2026-04-26T16:43:34.999Z</time></trkpt><trkpt lat="43.30066965878708" lon="12.379898874435215"><ele>258.5</ele><time>2026-04-26T16:43:35.999Z</time></trkpt><trkpt lat="43.30038365564488" lon="12.379880519656073"><ele>260.0</ele><time>2026-04-26T16:43:36.999Z</time></trkpt><trkpt lat="43.30009709866793" lon="12.3798685146719"><ele>260.0</ele><time>2026-04-26T16:43:37.999Z</time></trkpt><trkpt lat="43.29981080556452" lon="12.379860198198758"><ele>260.0</ele><time>2026-04-26T16:43:38.999Z</time></trkpt><trkpt lat="43.299518548071845" lon="12.379850028502542"><ele>258.0</ele><time>2026-04-26T16:43:39.999Z</time></trkpt><trkpt lat="43.29922512448937" lon="12.37983773518283"><ele>256.0</ele><time>2026-04-26T16:43:40.999Z</time></trkpt><trkpt lat="43.29893151990479" lon="12.379829009750855"><ele>254.5</ele><time>2026-04-26T16:43:41.999Z</time></trkpt><trkpt lat="43.29864476980354" lon="12.379821942450226"><ele>253.0</ele><time>2026-04-26T16:43:42.999Z</time></trkpt><trkpt lat="43.29837050030496" lon="12.37981642680435"><ele>253.0</ele><time>2026-04-26T16:43:43.999Z</time></trkpt><trkpt lat="43.29811004376446" lon="12.37981170566008"><ele>253.0</ele><time>2026-04-26T16:43:44.999Z</time></trkpt><trkpt lat="43.297862258164194" lon="12.37980531338663"><ele>252.5</ele><time>2026-04-26T16:43:45.999Z</time></trkpt><trkpt lat="43.29762599170362" lon="12.379785046429186"><ele>252.0</ele><time>2026-04-26T16:43:46.999Z</time></trkpt><trkpt lat="43.29739948323987" lon="12.379738435791962"><ele>250.66666666666669</ele><time>2026-04-26T16:43:47.999Z</time></trkpt><trkpt lat="43.29718869111011" lon="12.379656895919377"><ele>249.33333333333334</ele><time>2026-04-26T16:43:48.999Z</time></trkpt><trkpt lat="43.29699622196818" lon="12.379536980031293"><ele>248.0</ele><time>2026-04-26T16:43:49.999Z</time></trkpt><trkpt lat="43.296815909248465" lon="12.379387540538616"><ele>248.0</ele><time>2026-04-26T16:43:50.999Z</time></trkpt><trkpt lat="43.29663945397846" lon="12.379218201953181"><ele>248.0</ele><time>2026-04-26T16:43:51.999Z</time></trkpt><trkpt lat="43.29646535824762" lon="12.379045255251663"><ele>248.0</ele><time>2026-04-26T16:43:52.999Z</time></trkpt><trkpt lat="43.29630225868253" lon="12.378879261946462"><ele>246.66666666666669</ele><time>2026-04-26T16:43:53.999Z</time></trkpt><trkpt lat="43.296148714107474" lon="12.378719302164257"><ele>245.33333333333331</ele><time>2026-04-26T16:43:54.999Z</time></trkpt><trkpt lat="43.29600055804343" lon="12.378564466909596"><ele>244.0</ele><time>2026-04-26T16:43:55.999Z</time></trkpt><trkpt lat="43.2958572503803" lon="12.378411018436429"><ele>244.0</ele><time>2026-04-26T16:43:56.999Z</time></trkpt><trkpt lat="43.295718940870955" lon="12.378264834509794"><ele>244.0</ele><time>2026-04-26T16:43:57.999Z</time></trkpt><trkpt lat="43.29558305076" lon="12.378127320498562"><ele>244.0</ele><time>2026-04-26T16:43:58.999Z</time></trkpt><trkpt lat="43.295446584020205" lon="12.377983344871575"><ele>245.0</ele><time>2026-04-26T16:43:59.999Z</time></trkpt><trkpt lat="43.2952954426465" lon="12.377821997550939"><ele>246.0</ele><time>2026-04-26T16:44:00.999Z</time></trkpt><trkpt lat="43.29513371576014" lon="12.377654008190602"><ele>247.0</ele><time>2026-04-26T16:44:01.999Z</time></trkpt><trkpt lat="43.29497108148487" lon="12.377480284386468"><ele>247.0</ele><time>2026-04-26T16:44:02.999Z</time></trkpt><trkpt lat="43.29481520386416" lon="12.377314527603241"><ele>247.0</ele><time>2026-04-26T16:44:03.999Z</time></trkpt><trkpt lat="43.294664104268634" lon="12.377154298422663"><ele>247.0</ele><time>2026-04-26T16:44:04.999Z</time></trkpt><trkpt lat="43.29450642239513" lon="12.376998259361576"><ele>244.66666666666666</ele><time>2026-04-26T16:44:05.999Z</time></trkpt><trkpt lat="43.29434412029154" lon="12.376843612302418"><ele>242.33333333333331</ele><time>2026-04-26T16:44:06.999Z</time></trkpt><trkpt lat="43.294183653362545" lon="12.376680603732618"><ele>240.0</ele><time>2026-04-26T16:44:07.999Z</time></trkpt><trkpt lat="43.29402422465008" lon="12.376510910928223"><ele>240.33333333333331</ele><time>2026-04-26T16:44:08.999Z</time></trkpt><trkpt lat="43.293861200688845" lon="12.376345897138474"><ele>240.66666666666666</ele><time>2026-04-26T16:44:09.999Z</time></trkpt><trkpt lat="43.29369936045082" lon="12.376182769310576"><ele>241.0</ele><time>2026-04-26T16:44:10.999Z</time></trkpt><trkpt lat="43.293550211499046" lon="12.376016988056806"><ele>241.0</ele><time>2026-04-26T16:44:11.999Z</time></trkpt><trkpt lat="43.2934067065225" lon="12.375861287295889"><ele>241.0</ele><time>2026-04-26T16:44:12.999Z</time></trkpt><trkpt lat="43.29325864373549" lon="12.375712870642875"><ele>241.0</ele><time>2026-04-26T16:44:13.999Z</time></trkpt><trkpt lat="43.29310452407136" lon="12.375566067479452"><ele>240.0</ele><time>2026-04-26T16:44:14.999Z</time></trkpt><trkpt lat="43.292958775205044" lon="12.375402725977773"><ele>239.0</ele><time>2026-04-26T16:44:15.999Z</time></trkpt><trkpt lat="43.2928079045528" lon="12.375234983071417"><ele>238.0</ele><time>2026-04-26T16:44:16.999Z</time></trkpt><trkpt lat="43.292657010831626" lon="12.375081476815708"><ele>238.0</ele><time>2026-04-26T16:44:17.999Z</time></trkpt><trkpt lat="43.292513548053044" lon="12.374934381885355"><ele>238.0</ele><time>2026-04-26T16:44:18.999Z</time></trkpt><trkpt lat="43.29237680626918" lon="12.374794633118727"><ele>238.0</ele><time>2026-04-26T16:44:19.999Z</time></trkpt><trkpt lat="43.29224651948822" lon="12.374661044762924"><ele>238.66666666666666</ele><time>2026-04-26T16:44:20.999Z</time></trkpt><trkpt lat="43.292121657392464" lon="12.374528516430532"><ele>239.33333333333331</ele><time>2026-04-26T16:44:21.999Z</time></trkpt><trkpt lat="43.29200146357114" lon="12.374392251745544"><ele>240.0</ele><time>2026-04-26T16:44:22.999Z</time></trkpt><trkpt lat="43.29188319291807" lon="12.374262693404207"><ele>240.0</ele><time>2026-04-26T16:44:23.999Z</time></trkpt><trkpt lat="43.29176840787553" lon="12.374146350751737"><ele>240.0</ele><time>2026-04-26T16:44:24.999Z</time></trkpt><trkpt lat="43.29165850079586" lon="12.374038641645926"><ele>240.0</ele><time>2026-04-26T16:44:25.999Z</time></trkpt><trkpt lat="43.291555930201106" lon="12.373933952576325"><ele>240.0</ele><time>2026-04-26T16:44:26.999Z</time></trkpt><trkpt lat="43.2914584109068" lon="12.373835752916445"><ele>240.25</ele><time>2026-04-26T16:44:27.999Z</time></trkpt><trkpt lat="43.291362366975996" lon="12.373742507593025"><ele>240.5</ele><time>2026-04-26T16:44:28.999Z</time></trkpt><trkpt lat="43.29126775135665" lon="12.373649180439836"><ele>240.75</ele><time>2026-04-26T16:44:29.999Z</time></trkpt><trkpt lat="43.29116717264802" lon="12.373563005416619"><ele>241.0</ele><time>2026-04-26T16:44:30.999Z</time></trkpt><trkpt lat="43.291062268585705" lon="12.373486913106964"><ele>241.0</ele><time>2026-04-26T16:44:31.999Z</time></trkpt><trkpt lat="43.29096396135977" lon="12.373421715055743"><ele>241.00000000000003</ele><time>2026-04-26T16:44:32.999Z</time></trkpt><trkpt lat="43.290873276584314" lon="12.373358199673566"><ele>241.00000000000003</ele><time>2026-04-26T16:44:33.999Z</time></trkpt><trkpt lat="43.29078661177857" lon="12.37329795038044"><ele>241.0</ele><time>2026-04-26T16:44:34.999Z</time></trkpt><trkpt lat="43.29069841331005" lon="12.373235995933971"><ele>241.0</ele><time>2026-04-26T16:44:35.999Z</time></trkpt><trkpt lat="43.29060290554276" lon="12.373177907169033"><ele>241.0</ele><time>2026-04-26T16:44:36.998Z</time></trkpt><trkpt lat="43.2905002300821" lon="12.373111605656755"><ele>241.0</ele><time>2026-04-26T16:44:37.998Z</time></trkpt><trkpt lat="43.29038879377883" lon="12.373036246737088"><ele>241.0</ele><time>2026-04-26T16:44:39Z</time></trkpt><trkpt lat="43.290275344922485" lon="12.372961993469413"><ele>241.0</ele><time>2026-04-26T16:44:40Z</time></trkpt><trkpt lat="43.290158481118375" lon="12.372884044164284"><ele>240.5</ele><time>2026-04-26T16:44:41Z</time></trkpt><trkpt lat="43.29003702505864" lon="12.372798577478884"><ele>240.0</ele><time>2026-04-26T16:44:42Z</time></trkpt><trkpt lat="43.28992097586284" lon="12.37272439062692"><ele>239.5</ele><time>2026-04-26T16:44:43Z</time></trkpt><trkpt lat="43.28980862415099" lon="12.372654525881211"><ele>239.0</ele><time>2026-04-26T16:44:44Z</time></trkpt><trkpt lat="43.28970337519567" lon="12.37259357162021"><ele>238.79999999999998</ele><time>2026-04-26T16:44:45Z</time></trkpt><trkpt lat="43.28961263019654" lon="12.372512456399534"><ele>238.59999999999997</ele><time>2026-04-26T16:44:46Z</time></trkpt><trkpt lat="43.289519483056864" lon="12.372452859999086"><ele>238.4</ele><time>2026-04-26T16:44:47Z</time></trkpt><trkpt lat="43.289425845426244" lon="12.372415239192781"><ele>238.2</ele><time>2026-04-26T16:44:48Z</time></trkpt><trkpt lat="43.28935678806036" lon="12.372348766237751"><ele>238.0</ele><time>2026-04-26T16:44:49Z</time></trkpt><trkpt lat="43.28929258685912" lon="12.372307689716106"><ele>238.0</ele><time>2026-04-26T16:44:50Z</time></trkpt><trkpt lat="43.28923500995207" lon="12.372270851478953"><ele>238.0</ele><time>2026-04-26T16:44:51Z</time></trkpt><trkpt lat="43.289072287126054" lon="12.372438247697744"><ele>238.0</ele><time>2026-04-26T16:44:53Z</time></trkpt><trkpt lat="43.28903475773543" lon="12.372543010085295"><ele>238.0</ele><time>2026-04-26T16:44:54Z</time></trkpt><trkpt lat="43.28901570166187" lon="12.372659794474787"><ele>238.0</ele><time>2026-04-26T16:44:55Z</time></trkpt><trkpt lat="43.289000253380884" lon="12.372789006784789"><ele>238.0</ele><time>2026-04-26T16:44:56Z</time></trkpt><trkpt lat="43.28895555075255" lon="12.37291977038233"><ele>238.0</ele><time>2026-04-26T16:44:57Z</time></trkpt><trkpt lat="43.28889011791546" lon="12.373040156570616"><ele>238.0</ele><time>2026-04-26T16:44:58Z</time></trkpt><trkpt lat="43.288810620932345" lon="12.373144264747056"><ele>238.0</ele><time>2026-04-26T16:44:59Z</time></trkpt><trkpt lat="43.28871622209824" lon="12.373221811676885"><ele>238.0</ele><time>2026-04-26T16:45:00Z</time></trkpt><trkpt lat="43.28862021016622" lon="12.37326689002144"><ele>239.25</ele><time>2026-04-26T16:45:01Z</time></trkpt><trkpt lat="43.288523711680256" lon="12.373293422988592"><ele>240.5</ele><time>2026-04-26T16:45:02Z</time></trkpt><trkpt lat="43.28841322136036" lon="12.373303032470972"><ele>241.75</ele><time>2026-04-26T16:45:03Z</time></trkpt><trkpt lat="43.2882886569875" lon="12.373278964439498"><ele>243.0</ele><time>2026-04-26T16:45:04Z</time></trkpt><trkpt lat="43.288156034571344" lon="12.37321806911554"><ele>243.66666666666669</ele><time>2026-04-26T16:45:05Z</time></trkpt><trkpt lat="43.28802900769203" lon="12.373108007497779"><ele>244.33333333333334</ele><time>2026-04-26T16:45:06Z</time></trkpt><trkpt lat="43.28791096208971" lon="12.372956801516624"><ele>245.0</ele><time>2026-04-26T16:45:07Z</time></trkpt><trkpt lat="43.28779100552849" lon="12.3727790418612"><ele>245.0</ele><time>2026-04-26T16:45:08Z</time></trkpt><trkpt lat="43.2876598885936" lon="12.37259024982266"><ele>245.0</ele><time>2026-04-26T16:45:09Z</time></trkpt><trkpt lat="43.287524589247205" lon="12.372398749440414"><ele>245.0</ele><time>2026-04-26T16:45:10Z</time></trkpt><trkpt lat="43.28739675569514" lon="12.37222903614446"><ele>244.5</ele><time>2026-04-26T16:45:11Z</time></trkpt><trkpt lat="43.28728716775745" lon="12.372087798509716"><ele>244.0</ele><time>2026-04-26T16:45:12Z</time></trkpt><trkpt lat="43.28717094574407" lon="12.372000393309184"><ele>243.5</ele><time>2026-04-26T16:45:13Z</time></trkpt><trkpt lat="43.28703429271204" lon="12.371975022602422"><ele>243.0</ele><time>2026-04-26T16:45:14Z</time></trkpt><trkpt lat="43.28690105509157" lon="12.37201865184209"><ele>243.0</ele><time>2026-04-26T16:45:15Z</time></trkpt><trkpt lat="43.28678155490321" lon="12.372116773443565"><ele>243.0</ele><time>2026-04-26T16:45:16Z</time></trkpt><trkpt lat="43.28669033371248" lon="12.372267069157644"><ele>243.0</ele><time>2026-04-26T16:45:17Z</time></trkpt><trkpt lat="43.28662941844785" lon="12.372435764731177"><ele>243.0</ele><time>2026-04-26T16:45:18Z</time></trkpt><trkpt lat="43.28662122447592" lon="12.372629675802422"><ele>244.33333333333331</ele><time>2026-04-26T16:45:19Z</time></trkpt><trkpt lat="43.286681053610025" lon="12.372824837257678"><ele>245.66666666666666</ele><time>2026-04-26T16:45:20Z</time></trkpt><trkpt lat="43.28671359838087" lon="12.373035271672464"><ele>247.0</ele><time>2026-04-26T16:45:21Z</time></trkpt><trkpt lat="43.28673935905885" lon="12.373255497188925"><ele>247.66666666666666</ele><time>2026-04-26T16:45:22Z</time></trkpt><trkpt lat="43.28672005907712" lon="12.373493721384298"><ele>248.33333333333331</ele><time>2026-04-26T16:45:23Z</time></trkpt><trkpt lat="43.286659638823906" lon="12.373729398215184"><ele>249.0</ele><time>2026-04-26T16:45:24Z</time></trkpt><trkpt lat="43.286562117928845" lon="12.37395243268183"><ele>248.33333333333331</ele><time>2026-04-26T16:45:25Z</time></trkpt><trkpt lat="43.28642774494606" lon="12.374155303809138"><ele>247.66666666666666</ele><time>2026-04-26T16:45:26Z</time></trkpt><trkpt lat="43.286265217933554" lon="12.374337489479897"><ele>247.0</ele><time>2026-04-26T16:45:27Z</time></trkpt><trkpt lat="43.28612149380285" lon="12.374562183022887"><ele>248.5</ele><time>2026-04-26T16:45:28Z</time></trkpt><trkpt lat="43.285974971395824" lon="12.374795686974718"><ele>250.0</ele><time>2026-04-26T16:45:29Z</time></trkpt><trkpt lat="43.285815914476046" lon="12.375031268565452"><ele>250.0</ele><time>2026-04-26T16:45:30Z</time></trkpt><trkpt lat="43.28566143821085" lon="12.37526699841414"><ele>250.0</ele><time>2026-04-26T16:45:31Z</time></trkpt><trkpt lat="43.285491345399045" lon="12.375507012312294"><ele>249.0</ele><time>2026-04-26T16:45:32Z</time></trkpt><trkpt lat="43.28531288488936" lon="12.375743609689152"><ele>248.0</ele><time>2026-04-26T16:45:33Z</time></trkpt><trkpt lat="43.28513060164261" lon="12.37598688063293"><ele>248.0</ele><time>2026-04-26T16:45:34Z</time></trkpt><trkpt lat="43.2849460748544" lon="12.376234066916394"><ele>248.0</ele><time>2026-04-26T16:45:35Z</time></trkpt><trkpt lat="43.284756323501604" lon="12.376486255372475"><ele>249.0</ele><time>2026-04-26T16:45:35.999Z</time></trkpt><trkpt lat="43.28456561562484" lon="12.37674331553331"><ele>250.0</ele><time>2026-04-26T16:45:36.999Z</time></trkpt><trkpt lat="43.28437331485329" lon="12.377005740491292"><ele>252.0</ele><time>2026-04-26T16:45:37.999Z</time></trkpt><trkpt lat="43.28417741668075" lon="12.377269782401124"><ele>254.0</ele><time>2026-04-26T16:45:38.999Z</time></trkpt><trkpt lat="43.28397874886181" lon="12.377536847651362"><ele>254.0</ele><time>2026-04-26T16:45:39.999Z</time></trkpt><trkpt lat="43.28377808970636" lon="12.377802004448109"><ele>254.0</ele><time>2026-04-26T16:45:40.999Z</time></trkpt><trkpt lat="43.28357371397965" lon="12.378070791095057"><ele>254.0</ele><time>2026-04-26T16:45:41.999Z</time></trkpt><trkpt lat="43.28337261771272" lon="12.378346655784433"><ele>254.0</ele><time>2026-04-26T16:45:42.999Z</time></trkpt><trkpt lat="43.283169403402695" lon="12.37862253828149"><ele>255.0</ele><time>2026-04-26T16:45:43.999Z</time></trkpt><trkpt lat="43.28296311279308" lon="12.378898016888396"><ele>256.0</ele><time>2026-04-26T16:45:44.999Z</time></trkpt><trkpt lat="43.2827554496053" lon="12.379176323047488"><ele>256.0</ele><time>2026-04-26T16:45:45.999Z</time></trkpt><trkpt lat="43.282545969013526" lon="12.379456336476057"><ele>256.0</ele><time>2026-04-26T16:45:46.999Z</time></trkpt><trkpt lat="43.28233454919581" lon="12.379738896154368"><ele>256.5</ele><time>2026-04-26T16:45:47.999Z</time></trkpt><trkpt lat="43.28212542581277" lon="12.380025022450676"><ele>257.0</ele><time>2026-04-26T16:45:48.999Z</time></trkpt><trkpt lat="43.28191231454672" lon="12.380309072222637"><ele>260.5</ele><time>2026-04-26T16:45:49.999Z</time></trkpt><trkpt lat="43.28168600261728" lon="12.380584645237954"><ele>264.0</ele><time>2026-04-26T16:45:50.999Z</time></trkpt><trkpt lat="43.28145003818116" lon="12.380840129412373"><ele>262.5</ele><time>2026-04-26T16:45:51.999Z</time></trkpt><trkpt lat="43.28120961409691" lon="12.381092113694246"><ele>261.0</ele><time>2026-04-26T16:45:52.999Z</time></trkpt><trkpt lat="43.28096211267321" lon="12.381335868156658"><ele>260.0</ele><time>2026-04-26T16:45:53.999Z</time></trkpt><trkpt lat="43.280706814201665" lon="12.381562567221978"><ele>259.0</ele><time>2026-04-26T16:45:54.999Z</time></trkpt><trkpt lat="43.28043975885214" lon="12.38177027579503"><ele>259.0</ele><time>2026-04-26T16:45:55.999Z</time></trkpt><trkpt lat="43.28016571416703" lon="12.381959181645948"><ele>259.0</ele><time>2026-04-26T16:45:56.999Z</time></trkpt><trkpt lat="43.279885061200716" lon="12.382132895248008"><ele>260.5</ele><time>2026-04-26T16:45:57.999Z</time></trkpt><trkpt lat="43.27959841864574" lon="12.382287748225595"><ele>262.0</ele><time>2026-04-26T16:45:58.999Z</time></trkpt><trkpt lat="43.27930320157708" lon="12.382421956472978"><ele>262.0</ele><time>2026-04-26T16:45:59.999Z</time></trkpt><trkpt lat="43.2790041771672" lon="12.382538140534372"><ele>262.0</ele><time>2026-04-26T16:46:00.999Z</time></trkpt><trkpt lat="43.278700409988424" lon="12.382633093888465"><ele>260.5</ele><time>2026-04-26T16:46:01.999Z</time></trkpt><trkpt lat="43.27839657554663" lon="12.382715572890152"><ele>259.0</ele><time>2026-04-26T16:46:02.999Z</time></trkpt><trkpt lat="43.27809100320641" lon="12.382800790582715"><ele>259.0</ele><time>2026-04-26T16:46:03.999Z</time></trkpt><trkpt lat="43.277783467073775" lon="12.382889017573676"><ele>259.0</ele><time>2026-04-26T16:46:04.999Z</time></trkpt><trkpt lat="43.277475120628445" lon="12.382974291164178"><ele>263.5</ele><time>2026-04-26T16:46:05.999Z</time></trkpt><trkpt lat="43.277166210046126" lon="12.383060224866389"><ele>268.0</ele><time>2026-04-26T16:46:06.999Z</time></trkpt><trkpt lat="43.276857600383586" lon="12.383144155970374"><ele>268.0</ele><time>2026-04-26T16:46:07.999Z</time></trkpt><trkpt lat="43.27654787041969" lon="12.383230315831925"><ele>268.0</ele><time>2026-04-26T16:46:08.999Z</time></trkpt><trkpt lat="43.27623640807708" lon="12.383318113010718"><ele>268.0</ele><time>2026-04-26T16:46:09.999Z</time></trkpt><trkpt lat="43.27592222331962" lon="12.383403757836211"><ele>268.0</ele><time>2026-04-26T16:46:10.999Z</time></trkpt><trkpt lat="43.275607004148185" lon="12.383487018374275"><ele>267.0</ele><time>2026-04-26T16:46:11.999Z</time></trkpt><trkpt lat="43.27529190023438" lon="12.383573824893675"><ele>266.0</ele><time>2026-04-26T16:46:12.999Z</time></trkpt><trkpt lat="43.274975148510016" lon="12.383663296514433"><ele>267.5</ele><time>2026-04-26T16:46:13.999Z</time></trkpt><trkpt lat="43.27465553495543" lon="12.38375462480498"><ele>269.0</ele><time>2026-04-26T16:46:14.999Z</time></trkpt><trkpt lat="43.27433564087672" lon="12.383851851645229"><ele>269.0</ele><time>2026-04-26T16:46:15.999Z</time></trkpt><trkpt lat="43.274015770856906" lon="12.38395312665026"><ele>269.0</ele><time>2026-04-26T16:46:16.999Z</time></trkpt><trkpt lat="43.27369231271927" lon="12.38405206752669"><ele>269.0</ele><time>2026-04-26T16:46:17.999Z</time></trkpt><trkpt lat="43.27336849092941" lon="12.38414767074254"><ele>269.0</ele><time>2026-04-26T16:46:18.999Z</time></trkpt><trkpt lat="43.27304214908624" lon="12.384241868054982"><ele>269.0</ele><time>2026-04-26T16:46:19.999Z</time></trkpt><trkpt lat="43.272716086526586" lon="12.384337072841697"><ele>269.0</ele><time>2026-04-26T16:46:20.999Z</time></trkpt><trkpt lat="43.27238713568688" lon="12.384430604245866"><ele>267.0</ele><time>2026-04-26T16:46:21.999Z</time></trkpt><trkpt lat="43.272056670599575" lon="12.384524496840129"><ele>265.0</ele><time>2026-04-26T16:46:22.999Z</time></trkpt><trkpt lat="43.2717235714043" lon="12.384613637440191"><ele>263.5</ele><time>2026-04-26T16:46:23.999Z</time></trkpt><trkpt lat="43.27139018639355" lon="12.384707259559685"><ele>262.0</ele><time>2026-04-26T16:46:24.999Z</time></trkpt><trkpt lat="43.27105605377061" lon="12.384799968199298"><ele>262.0</ele><time>2026-04-26T16:46:25.999Z</time></trkpt><trkpt lat="43.270717093627646" lon="12.384886904434172"><ele>262.0</ele><time>2026-04-26T16:46:26.999Z</time></trkpt><trkpt lat="43.27037926877045" lon="12.384972139404137"><ele>257.0</ele><time>2026-04-26T16:46:27.999Z</time></trkpt><trkpt lat="43.27003980978043" lon="12.3850625694809"><ele>252.0</ele><time>2026-04-26T16:46:28.999Z</time></trkpt><trkpt lat="43.269699089845155" lon="12.385153480273264"><ele>249.0</ele><time>2026-04-26T16:46:29.999Z</time></trkpt><trkpt lat="43.269358122037644" lon="12.385247559492804"><ele>246.0</ele><time>2026-04-26T16:46:30.999Z</time></trkpt><trkpt lat="43.26903102136823" lon="12.3853319429097"><ele>242.5</ele><time>2026-04-26T16:46:31.999Z</time></trkpt><trkpt lat="43.26872056788764" lon="12.385411602782476"><ele>239.0</ele><time>2026-04-26T16:46:32.999Z</time></trkpt><trkpt lat="43.26842271724932" lon="12.385490821529293"><ele>241.5</ele><time>2026-04-26T16:46:33.999Z</time></trkpt><trkpt lat="43.26813508373647" lon="12.385568384915112"><ele>244.0</ele><time>2026-04-26T16:46:34.999Z</time></trkpt><trkpt lat="43.2678584281974" lon="12.385641946536008"><ele>244.0</ele><time>2026-04-26T16:46:35.999Z</time></trkpt><trkpt lat="43.2675827620312" lon="12.385714840613103"><ele>244.0</ele><time>2026-04-26T16:46:36.999Z</time></trkpt><trkpt lat="43.26729824248907" lon="12.38578908595132"><ele>242.5</ele><time>2026-04-26T16:46:37.999Z</time></trkpt><trkpt lat="43.26700692426197" lon="12.385869864107585"><ele>241.0</ele><time>2026-04-26T16:46:38.998Z</time></trkpt><trkpt lat="43.26671134799459" lon="12.385955727557102"><ele>238.5</ele><time>2026-04-26T16:46:39.998Z</time></trkpt><trkpt lat="43.26641074690992" lon="12.386040487342404"><ele>236.0</ele><time>2026-04-26T16:46:40.998Z</time></trkpt><trkpt lat="43.26610723341481" lon="12.386124441360256"><ele>236.0</ele><time>2026-04-26T16:46:41.998Z</time></trkpt><trkpt lat="43.26581885199488" lon="12.386202083226204"><ele>236.0</ele><time>2026-04-26T16:46:42.998Z</time></trkpt><trkpt lat="43.26554057061009" lon="12.386274446264776"><ele>237.0</ele><time>2026-04-26T16:46:43.998Z</time></trkpt><trkpt lat="43.26527678540967" lon="12.386348335498147"><ele>238.0</ele><time>2026-04-26T16:46:45Z</time></trkpt><trkpt lat="43.26501986802458" lon="12.386418432625447"><ele>236.0</ele><time>2026-04-26T16:46:46Z</time></trkpt><trkpt lat="43.26477172604769" lon="12.386485208936762"><ele>234.0</ele><time>2026-04-26T16:46:47Z</time></trkpt><trkpt lat="43.26453215488037" lon="12.386547684982038"><ele>234.0</ele><time>2026-04-26T16:46:48Z</time></trkpt><trkpt lat="43.26430111728975" lon="12.386609109254204"><ele>234.0</ele><time>2026-04-26T16:46:49Z</time></trkpt><trkpt lat="43.264077026962354" lon="12.38666539849472"><ele>233.66666666666669</ele><time>2026-04-26T16:46:50Z</time></trkpt><trkpt lat="43.26386307416108" lon="12.386729144423123"><ele>233.33333333333334</ele><time>2026-04-26T16:46:51Z</time></trkpt><trkpt lat="43.26365696261724" lon="12.386808268550837"><ele>233.0</ele><time>2026-04-26T16:46:52Z</time></trkpt><trkpt lat="43.26346017475728" lon="12.386890757981977"><ele>233.0</ele><time>2026-04-26T16:46:53Z</time></trkpt><trkpt lat="43.26327587321505" lon="12.38697266986083"><ele>233.0</ele><time>2026-04-26T16:46:54Z</time></trkpt><trkpt lat="43.26311557889015" lon="12.387052644729769"><ele>233.0</ele><time>2026-04-26T16:46:55Z</time></trkpt><trkpt lat="43.262979330877734" lon="12.387116048273759"><ele>233.0</ele><time>2026-04-26T16:46:56Z</time></trkpt><trkpt lat="43.26284773936877" lon="12.387149844791718"><ele>233.0</ele><time>2026-04-26T16:46:57Z</time></trkpt><trkpt lat="43.2627054075494" lon="12.387132539340044"><ele>233.0</ele><time>2026-04-26T16:46:58Z</time></trkpt><trkpt lat="43.26256015667456" lon="12.387037443462331"><ele>233.0</ele><time>2026-04-26T16:46:59Z</time></trkpt><trkpt lat="43.26242819976118" lon="12.386925668381794"><ele>233.0</ele><time>2026-04-26T16:47:00Z</time></trkpt><trkpt lat="43.26232304586031" lon="12.386786874313199"><ele>233.0</ele><time>2026-04-26T16:47:01Z</time></trkpt><trkpt lat="43.2622416940574" lon="12.386613125897888"><ele>233.0</ele><time>2026-04-26T16:47:02Z</time></trkpt><trkpt lat="43.262183869422365" lon="12.386414523367803"><ele>233.25</ele><time>2026-04-26T16:47:03Z</time></trkpt><trkpt lat="43.26216354072608" lon="12.38621848346376"><ele>233.5</ele><time>2026-04-26T16:47:04Z</time></trkpt><trkpt lat="43.26218500317049" lon="12.386025518262041"><ele>233.75</ele><time>2026-04-26T16:47:05Z</time></trkpt><trkpt lat="43.26224961070774" lon="12.385858610208116"><ele>234.0</ele><time>2026-04-26T16:47:06Z</time></trkpt><trkpt lat="43.26234943371316" lon="12.385742498272691"><ele>234.0</ele><time>2026-04-26T16:47:07Z</time></trkpt><trkpt lat="43.26246355394269" lon="12.385689316417517"><ele>233.99999999999997</ele><time>2026-04-26T16:47:08Z</time></trkpt><trkpt lat="43.26253760679291" lon="12.385620764061573"><ele>233.99999999999997</ele><time>2026-04-26T16:47:09Z</time></trkpt><trkpt lat="43.26262082587877" lon="12.385547307020428"><ele>234.0</ele><time>2026-04-26T16:47:11Z</time></trkpt><trkpt lat="43.26268569944493" lon="12.385473552346541"><ele>234.0</ele><time>2026-04-26T16:47:19Z</time></trkpt><trkpt lat="43.26265470080195" lon="12.385268321290752"><ele>233.75</ele><time>2026-04-26T16:47:21Z</time></trkpt><trkpt lat="43.26260170346946" lon="12.385118912650384"><ele>233.5</ele><time>2026-04-26T16:47:22Z</time></trkpt><trkpt lat="43.26252747108244" lon="12.384954099218048"><ele>233.25</ele><time>2026-04-26T16:47:23Z</time></trkpt><trkpt lat="43.26243254123547" lon="12.384781058515667"><ele>233.0</ele><time>2026-04-26T16:47:24Z</time></trkpt><trkpt lat="43.26235817346818" lon="12.384562679110319"><ele>231.0</ele><time>2026-04-26T16:47:25Z</time></trkpt><trkpt lat="43.26225864207182" lon="12.384337324815053"><ele>229.0</ele><time>2026-04-26T16:47:26Z</time></trkpt><trkpt lat="43.262148929024534" lon="12.384101860766147"><ele>227.0</ele><time>2026-04-26T16:47:27Z</time></trkpt><trkpt lat="43.262017270030526" lon="12.383863094997027"><ele>227.0</ele><time>2026-04-26T16:47:28Z</time></trkpt><trkpt lat="43.26185151654109" lon="12.38365011610784"><ele>227.0</ele><time>2026-04-26T16:47:29Z</time></trkpt><trkpt lat="43.26168785840421" lon="12.383426176180246"><ele>227.0</ele><time>2026-04-26T16:47:30Z</time></trkpt><trkpt lat="43.26150039103404" lon="12.383221964537668"><ele>227.0</ele><time>2026-04-26T16:47:31Z</time></trkpt><trkpt lat="43.26130982102377" lon="12.383009309612294"><ele>225.5</ele><time>2026-04-26T16:47:32Z</time></trkpt><trkpt lat="43.26111912216534" lon="12.382783894534812"><ele>224.0</ele><time>2026-04-26T16:47:33Z</time></trkpt><trkpt lat="43.26092566805851" lon="12.38255387656868"><ele>224.0</ele><time>2026-04-26T16:47:34Z</time></trkpt><trkpt lat="43.26074183870504" lon="12.382340583043721"><ele>224.0</ele><time>2026-04-26T16:47:35Z</time></trkpt><trkpt lat="43.26056190409355" lon="12.382135119795292"><ele>224.0</ele><time>2026-04-26T16:47:36Z</time></trkpt><trkpt lat="43.26036531801105" lon="12.38195819660482"><ele>224.0</ele><time>2026-04-26T16:47:37Z</time></trkpt><trkpt lat="43.26014381299793" lon="12.381812925236549"><ele>224.0</ele><time>2026-04-26T16:47:38Z</time></trkpt><trkpt lat="43.25991371122759" lon="12.381678881575455"><ele>224.0</ele><time>2026-04-26T16:47:39Z</time></trkpt><trkpt lat="43.25966980058123" lon="12.381566440357782"><ele>225.5</ele><time>2026-04-26T16:47:40Z</time></trkpt><trkpt lat="43.25943297865879" lon="12.381434054196355"><ele>227.0</ele><time>2026-04-26T16:47:41Z</time></trkpt><trkpt lat="43.25921223406799" lon="12.381307578565577"><ele>227.0</ele><time>2026-04-26T16:47:42Z</time></trkpt><trkpt lat="43.259005664992515" lon="12.381192247461026"><ele>227.0</ele><time>2026-04-26T16:47:42.999Z</time></trkpt><trkpt lat="43.25879697302989" lon="12.381084179736705"><ele>227.0</ele><time>2026-04-26T16:47:43.999Z</time></trkpt><trkpt lat="43.25858355235076" lon="12.381015258727194"><ele>226.66666666666669</ele><time>2026-04-26T16:47:44.999Z</time></trkpt><trkpt lat="43.25837985335618" lon="12.380954045660335"><ele>226.33333333333331</ele><time>2026-04-26T16:47:45.999Z</time></trkpt><trkpt lat="43.25815371103963" lon="12.380943402742345"><ele>226.0</ele><time>2026-04-26T16:47:46.999Z</time></trkpt><trkpt lat="43.257920398670464" lon="12.380974247726698"><ele>226.0</ele><time>2026-04-26T16:47:47.999Z</time></trkpt><trkpt lat="43.25768805987443" lon="12.381033913798847"><ele>226.0</ele><time>2026-04-26T16:47:48.999Z</time></trkpt><trkpt lat="43.257444860249564" lon="12.381110937593046"><ele>226.0</ele><time>2026-04-26T16:47:49.999Z</time></trkpt><trkpt lat="43.257201067681606" lon="12.381213268843913"><ele>226.0</ele><time>2026-04-26T16:47:50.999Z</time></trkpt><trkpt lat="43.25695494777322" lon="12.381323846642605"><ele>226.0</ele><time>2026-04-26T16:47:51.999Z</time></trkpt><trkpt lat="43.25670591834819" lon="12.381427846500362"><ele>226.0</ele><time>2026-04-26T16:47:52.999Z</time></trkpt><trkpt lat="43.256465784918674" lon="12.381530299707212"><ele>226.0</ele><time>2026-04-26T16:47:53.999Z</time></trkpt><trkpt lat="43.25622230994514" lon="12.381637616137436"><ele>226.0</ele><time>2026-04-26T16:47:54.999Z</time></trkpt><trkpt lat="43.25599103115027" lon="12.38173251770884"><ele>226.0</ele><time>2026-04-26T16:47:55.999Z</time></trkpt><trkpt lat="43.25577121353286" lon="12.381823090599276"><ele>226.0</ele><time>2026-04-26T16:47:56.999Z</time></trkpt><trkpt lat="43.25556281606927" lon="12.381908254305527"><ele>226.0</ele><time>2026-04-26T16:47:57.999Z</time></trkpt><trkpt lat="43.255359052061955" lon="12.381993844252234"><ele>226.0</ele><time>2026-04-26T16:47:58.999Z</time></trkpt><trkpt lat="43.25515299677804" lon="12.38208566473195"><ele>226.0</ele><time>2026-04-26T16:47:59.999Z</time></trkpt><trkpt lat="43.25495119847405" lon="12.38216543482046"><ele>226.0</ele><time>2026-04-26T16:48:00.999Z</time></trkpt><trkpt lat="43.25474890088248" lon="12.382231693309214"><ele>226.0</ele><time>2026-04-26T16:48:01.999Z</time></trkpt><trkpt lat="43.25453324177429" lon="12.382269845147581"><ele>226.0</ele><time>2026-04-26T16:48:02.999Z</time></trkpt><trkpt lat="43.25430242383367" lon="12.382269385726223"><ele>226.0</ele><time>2026-04-26T16:48:03.999Z</time></trkpt><trkpt lat="43.25406515617949" lon="12.38226100644271"><ele>228.0</ele><time>2026-04-26T16:48:04.999Z</time></trkpt><trkpt lat="43.25382396022766" lon="12.382261628444702"><ele>230.0</ele><time>2026-04-26T16:48:05.999Z</time></trkpt><trkpt lat="43.2535765428776" lon="12.382254117790833"><ele>230.0</ele><time>2026-04-26T16:48:06.999Z</time></trkpt><trkpt lat="43.25332495195924" lon="12.382238903554303"><ele>230.0</ele><time>2026-04-26T16:48:07.999Z</time></trkpt><trkpt lat="43.25307055710924" lon="12.382217941784054"><ele>229.0</ele><time>2026-04-26T16:48:08.999Z</time></trkpt><trkpt lat="43.25280932813416" lon="12.38220039912115"><ele>228.0</ele><time>2026-04-26T16:48:09.999Z</time></trkpt><trkpt lat="43.25254477276988" lon="12.382176502360526"><ele>228.5</ele><time>2026-04-26T16:48:10.999Z</time></trkpt><trkpt lat="43.25227872902217" lon="12.382154145574015"><ele>229.0</ele><time>2026-04-26T16:48:11.999Z</time></trkpt><trkpt lat="43.25201283098293" lon="12.382138438623887"><ele>229.0</ele><time>2026-04-26T16:48:12.999Z</time></trkpt><trkpt lat="43.25174573393769" lon="12.382129604528949"><ele>229.0</ele><time>2026-04-26T16:48:13.999Z</time></trkpt><trkpt lat="43.25147983555173" lon="12.382131526892582"><ele>230.5</ele><time>2026-04-26T16:48:14.999Z</time></trkpt><trkpt lat="43.25121386580933" lon="12.382110500218683"><ele>232.0</ele><time>2026-04-26T16:48:15.999Z</time></trkpt><trkpt lat="43.25094761203098" lon="12.382069989749347"><ele>232.0</ele><time>2026-04-26T16:48:16.999Z</time></trkpt><trkpt lat="43.250689100356645" lon="12.382013230034195"><ele>232.0</ele><time>2026-04-26T16:48:17.999Z</time></trkpt><trkpt lat="43.25044759439012" lon="12.381940071922557"><ele>233.5</ele><time>2026-04-26T16:48:18.999Z</time></trkpt><trkpt lat="43.250218948938624" lon="12.381838260140848"><ele>235.0</ele><time>2026-04-26T16:48:19.999Z</time></trkpt><trkpt lat="43.24999872541889" lon="12.38170240077396"><ele>237.0</ele><time>2026-04-26T16:48:20.999Z</time></trkpt><trkpt lat="43.249790085835194" lon="12.381530074857222"><ele>239.0</ele><time>2026-04-26T16:48:21.999Z</time></trkpt><trkpt lat="43.24959688816316" lon="12.381326567665255"><ele>239.0</ele><time>2026-04-26T16:48:22.999Z</time></trkpt><trkpt lat="43.24943840032024" lon="12.38110138065933"><ele>239.0</ele><time>2026-04-26T16:48:23.999Z</time></trkpt><trkpt lat="43.249283436221795" lon="12.380872458489431"><ele>239.0</ele><time>2026-04-26T16:48:24.999Z</time></trkpt><trkpt lat="43.24914804846923" lon="12.380615743359897"><ele>239.0</ele><time>2026-04-26T16:48:25.999Z</time></trkpt><trkpt lat="43.24903453516733" lon="12.380331829239244"><ele>244.5</ele><time>2026-04-26T16:48:26.999Z</time></trkpt><trkpt lat="43.248937006891154" lon="12.380024583811007"><ele>250.0</ele><time>2026-04-26T16:48:27.999Z</time></trkpt><trkpt lat="43.24884597967718" lon="12.379705352522189"><ele>246.0</ele><time>2026-04-26T16:48:28.999Z</time></trkpt><trkpt lat="43.248773919597014" lon="12.379379691721711"><ele>242.0</ele><time>2026-04-26T16:48:29.999Z</time></trkpt><trkpt lat="43.248691740833806" lon="12.379080671608964"><ele>240.66666666666669</ele><time>2026-04-26T16:48:30.999Z</time></trkpt><trkpt lat="43.24861245090961" lon="12.378792162950115"><ele>239.33333333333331</ele><time>2026-04-26T16:48:31.999Z</time></trkpt><trkpt lat="43.248537698749665" lon="12.378520165652267"><ele>238.0</ele><time>2026-04-26T16:48:32.999Z</time></trkpt><trkpt lat="43.248449981293156" lon="12.378264425281394"><ele>236.66666666666666</ele><time>2026-04-26T16:48:33.999Z</time></trkpt><trkpt lat="43.2483800955501" lon="12.378007538360123"><ele>235.33333333333331</ele><time>2026-04-26T16:48:34.999Z</time></trkpt><trkpt lat="43.24831079712527" lon="12.377752625285932"><ele>234.0</ele><time>2026-04-26T16:48:35.999Z</time></trkpt><trkpt lat="43.24824162846769" lon="12.37749606426311"><ele>234.0</ele><time>2026-04-26T16:48:36.999Z</time></trkpt><trkpt lat="43.24817521793012" lon="12.377238704518705"><ele>234.0</ele><time>2026-04-26T16:48:37.999Z</time></trkpt><trkpt lat="43.24810234069924" lon="12.376976258070039"><ele>234.0</ele><time>2026-04-26T16:48:38.999Z</time></trkpt><trkpt lat="43.24803881756641" lon="12.376736047054937"><ele>235.66666666666669</ele><time>2026-04-26T16:48:39.999Z</time></trkpt><trkpt lat="43.247983793140875" lon="12.376512471679078"><ele>237.33333333333334</ele><time>2026-04-26T16:48:40.999Z</time></trkpt><trkpt lat="43.24796047820205" lon="12.37625829639874"><ele>239.0</ele><time>2026-04-26T16:48:41.999Z</time></trkpt><trkpt lat="43.247943153428174" lon="12.375988974047985"><ele>239.0</ele><time>2026-04-26T16:48:42.999Z</time></trkpt><trkpt lat="43.247934879674055" lon="12.375703306032092"><ele>239.0</ele><time>2026-04-26T16:48:43.999Z</time></trkpt><trkpt lat="43.247931923888515" lon="12.375404270648541"><ele>239.0</ele><time>2026-04-26T16:48:44.999Z</time></trkpt><trkpt lat="43.24792887430437" lon="12.375095746703288"><ele>239.0</ele><time>2026-04-26T16:48:45.998Z</time></trkpt><trkpt lat="43.24792593319091" lon="12.374779058542606"><ele>239.0</ele><time>2026-04-26T16:48:46.998Z</time></trkpt><trkpt lat="43.247922933379726" lon="12.374452853310434"><ele>239.0</ele><time>2026-04-26T16:48:47.998Z</time></trkpt><trkpt lat="43.247905255659" lon="12.37411823187418"><ele>239.0</ele><time>2026-04-26T16:48:48.998Z</time></trkpt><trkpt lat="43.24790275000099" lon="12.373774445434151"><ele>239.5</ele><time>2026-04-26T16:48:50Z</time></trkpt><trkpt lat="43.24790139312349" lon="12.37342464621544"><ele>240.0</ele><time>2026-04-26T16:48:51Z</time></trkpt><trkpt lat="43.24789978146948" lon="12.373068247797388"><ele>241.5</ele><time>2026-04-26T16:48:52Z</time></trkpt><trkpt lat="43.24789414892275" lon="12.372707850131667"><ele>243.0</ele><time>2026-04-26T16:48:53Z</time></trkpt><trkpt lat="43.24789096508657" lon="12.372344610426756"><ele>243.0</ele><time>2026-04-26T16:48:54Z</time></trkpt><trkpt lat="43.24788824749331" lon="12.371993480374293"><ele>243.0</ele><time>2026-04-26T16:48:55Z</time></trkpt><trkpt lat="43.247883156070465" lon="12.371651583782624"><ele>245.5</ele><time>2026-04-26T16:48:56Z</time></trkpt><trkpt lat="43.247893922038195" lon="12.371321670868092"><ele>248.0</ele><time>2026-04-26T16:48:57Z</time></trkpt><trkpt lat="43.2478910411514" lon="12.371013203349918"><ele>248.0</ele><time>2026-04-26T16:48:58Z</time></trkpt><trkpt lat="43.247873807640374" lon="12.370727182875902"><ele>248.0</ele><time>2026-04-26T16:48:59Z</time></trkpt><trkpt lat="43.24787338937257" lon="12.370464777292675"><ele>248.0</ele><time>2026-04-26T16:49:00Z</time></trkpt><trkpt lat="43.24787219583023" lon="12.370222460734935"><ele>251.0</ele><time>2026-04-26T16:49:01Z</time></trkpt><trkpt lat="43.24786811045403" lon="12.369999979815345"><ele>254.0</ele><time>2026-04-26T16:49:02Z</time></trkpt><trkpt lat="43.24786548977977" lon="12.369793611546738"><ele>257.0</ele><time>2026-04-26T16:49:03Z</time></trkpt><trkpt lat="43.24786415152479" lon="12.369603837308713"><ele>259.0</ele><time>2026-04-26T16:49:04Z</time></trkpt><trkpt lat="43.24788484899202" lon="12.369449689542481"><ele>261.0</ele><time>2026-04-26T16:49:05Z</time></trkpt><trkpt lat="43.247893407481534" lon="12.369325187217218"><ele>263.0</ele><time>2026-04-26T16:49:06Z</time></trkpt><trkpt lat="43.2479097774512" lon="12.369183708882117"><ele>265.0</ele><time>2026-04-26T16:49:07Z</time></trkpt><trkpt lat="43.24793735943303" lon="12.369009123429567"><ele>267.0</ele><time>2026-04-26T16:49:08Z</time></trkpt><trkpt lat="43.247979111101415" lon="12.368813492585256"><ele>268.3333333333333</ele><time>2026-04-26T16:49:09Z</time></trkpt><trkpt lat="43.248029687076695" lon="12.368600491073307"><ele>269.66666666666663</ele><time>2026-04-26T16:49:10Z</time></trkpt><trkpt lat="43.24808133977705" lon="12.368365350358026"><ele>271.0</ele><time>2026-04-26T16:49:11Z</time></trkpt><trkpt lat="43.24814841941636" lon="12.368118946386852"><ele>262.66666666666663</ele><time>2026-04-26T16:49:12Z</time></trkpt><trkpt lat="43.24821289429379" lon="12.36785162365705"><ele>254.33333333333331</ele><time>2026-04-26T16:49:13Z</time></trkpt><trkpt lat="43.24827971577756" lon="12.367569845463319"><ele>246.0</ele><time>2026-04-26T16:49:14Z</time></trkpt><trkpt lat="43.248334125954464" lon="12.367284849864607"><ele>248.33333333333331</ele><time>2026-04-26T16:49:15Z</time></trkpt><trkpt lat="43.24837375621233" lon="12.367001485157788"><ele>250.66666666666666</ele><time>2026-04-26T16:49:16Z</time></trkpt><trkpt lat="43.24838691347689" lon="12.366702884047486"><ele>253.0</ele><time>2026-04-26T16:49:17Z</time></trkpt><trkpt lat="43.24838558681314" lon="12.366401882691372"><ele>252.33333333333331</ele><time>2026-04-26T16:49:18Z</time></trkpt><trkpt lat="43.248381349820576" lon="12.3661342855914"><ele>251.66666666666669</ele><time>2026-04-26T16:49:19Z</time></trkpt><trkpt lat="43.24837547615887" lon="12.365900947419677"><ele>251.0</ele><time>2026-04-26T16:49:20Z</time></trkpt><trkpt lat="43.24836340589599" lon="12.365693565024015"><ele>249.33333333333334</ele><time>2026-04-26T16:49:21Z</time></trkpt><trkpt lat="43.24832084317861" lon="12.365478879783607"><ele>247.66666666666669</ele><time>2026-04-26T16:49:22Z</time></trkpt><trkpt lat="43.24823493445089" lon="12.36527739082784"><ele>246.0</ele><time>2026-04-26T16:49:23Z</time></trkpt><trkpt lat="43.24810110960248" lon="12.365117617086833"><ele>249.66666666666669</ele><time>2026-04-26T16:49:24Z</time></trkpt><trkpt lat="43.247939091643154" lon="12.364995006570295"><ele>253.33333333333334</ele><time>2026-04-26T16:49:25Z</time></trkpt><trkpt lat="43.247781111823095" lon="12.364853726664007"><ele>257.0</ele><time>2026-04-26T16:49:26Z</time></trkpt><trkpt lat="43.24764102724884" lon="12.364662555833682"><ele>257.0</ele><time>2026-04-26T16:49:27Z</time></trkpt><trkpt lat="43.24752900917634" lon="12.364447743509814"><ele>257.0</ele><time>2026-04-26T16:49:28Z</time></trkpt><trkpt lat="43.247429756462694" lon="12.364211725146221"><ele>257.0</ele><time>2026-04-26T16:49:29Z</time></trkpt><trkpt lat="43.24733681159305" lon="12.363962269660778"><ele>269.0</ele><time>2026-04-26T16:49:30Z</time></trkpt><trkpt lat="43.2472370845969" lon="12.363712793907114"><ele>281.0</ele><time>2026-04-26T16:49:31Z</time></trkpt><trkpt lat="43.24713122539807" lon="12.363463788665099"><ele>293.0</ele><time>2026-04-26T16:49:32Z</time></trkpt><trkpt lat="43.24702764790199" lon="12.36321117303397"><ele>287.0</ele><time>2026-04-26T16:49:33Z</time></trkpt><trkpt lat="43.24692378911377" lon="12.362953424196618"><ele>281.0</ele><time>2026-04-26T16:49:34Z</time></trkpt><trkpt lat="43.24681745236044" lon="12.362695301765985"><ele>275.0</ele><time>2026-04-26T16:49:35Z</time></trkpt><trkpt lat="43.246707985309804" lon="12.362436353022094"><ele>271.33333333333337</ele><time>2026-04-26T16:49:36Z</time></trkpt><trkpt lat="43.24659956030202" lon="12.362173909430691"><ele>267.6666666666667</ele><time>2026-04-26T16:49:37Z</time></trkpt><trkpt lat="43.246494562484095" lon="12.361907773692272"><ele>264.0</ele><time>2026-04-26T16:49:38Z</time></trkpt><trkpt lat="43.24638830567853" lon="12.3616384794949"><ele>280.5</ele><time>2026-04-26T16:49:39Z</time></trkpt><trkpt lat="43.24627738082707" lon="12.361370436150175"><ele>297.0</ele><time>2026-04-26T16:49:40Z</time></trkpt><trkpt lat="43.24616532325177" lon="12.361102285185778"><ele>297.0</ele><time>2026-04-26T16:49:41Z</time></trkpt><trkpt lat="43.246056204787756" lon="12.360830264043013"><ele>297.0</ele><time>2026-04-26T16:49:42Z</time></trkpt><trkpt lat="43.24594504367966" lon="12.360557691385365"><ele>291.3333333333333</ele><time>2026-04-26T16:49:43Z</time></trkpt><trkpt lat="43.2458360769152" lon="12.360291376107037"><ele>285.66666666666663</ele><time>2026-04-26T16:49:44Z</time></trkpt><trkpt lat="43.24574784606445" lon="12.360056285422747"><ele>280.0</ele><time>2026-04-26T16:49:44.999Z</time></trkpt><trkpt lat="43.245665769838006" lon="12.359851031877312"><ele>280.3333333333333</ele><time>2026-04-26T16:49:45.999Z</time></trkpt><trkpt lat="43.24557953759825" lon="12.359681343985166"><ele>280.6666666666667</ele><time>2026-04-26T16:49:46.999Z</time></trkpt><trkpt lat="43.24546440504563" lon="12.359542949900067"><ele>281.0</ele><time>2026-04-26T16:49:47.999Z</time></trkpt><trkpt lat="43.24531845467585" lon="12.359471363041319"><ele>281.0</ele><time>2026-04-26T16:49:48.999Z</time></trkpt><trkpt lat="43.24514980672583" lon="12.359468054267312"><ele>281.0</ele><time>2026-04-26T16:49:49.999Z</time></trkpt><trkpt lat="43.244981217706126" lon="12.359522286300676"><ele>281.0</ele><time>2026-04-26T16:49:50.999Z</time></trkpt><trkpt lat="43.244816773491976" lon="12.359623078753385"><ele>287.33333333333337</ele><time>2026-04-26T16:49:51.999Z</time></trkpt><trkpt lat="43.24465252913689" lon="12.359734929175652"><ele>293.6666666666667</ele><time>2026-04-26T16:49:52.999Z</time></trkpt><trkpt lat="43.24448120308565" lon="12.359842438392272"><ele>300.0</ele><time>2026-04-26T16:49:53.999Z</time></trkpt><trkpt lat="43.24430321843464" lon="12.359943419461398"><ele>300.0</ele><time>2026-04-26T16:49:54.999Z</time></trkpt><trkpt lat="43.24411793401384" lon="12.360028340609933"><ele>300.0</ele><time>2026-04-26T16:49:55.999Z</time></trkpt><trkpt lat="43.24392167240873" lon="12.360077651772373"><ele>300.0</ele><time>2026-04-26T16:49:56.999Z</time></trkpt><trkpt lat="43.243719033126055" lon="12.360084606349945"><ele>301.0</ele><time>2026-04-26T16:49:57.999Z</time></trkpt><trkpt lat="43.243515400160994" lon="12.360052056951082"><ele>302.0</ele><time>2026-04-26T16:49:58.999Z</time></trkpt><trkpt lat="43.243323996486005" lon="12.35998527959455"><ele>303.0</ele><time>2026-04-26T16:49:59.999Z</time></trkpt><trkpt lat="43.243154727447774" lon="12.359911365103127"><ele>307.3333333333333</ele><time>2026-04-26T16:50:00.999Z</time></trkpt><trkpt lat="43.24299507690347" lon="12.359846077674733"><ele>311.66666666666663</ele><time>2026-04-26T16:50:01.999Z</time></trkpt><trkpt lat="43.24283654729836" lon="12.359792257834593"><ele>316.0</ele><time>2026-04-26T16:50:02.999Z</time></trkpt><trkpt lat="43.24267804324987" lon="12.359757271014582"><ele>316.0</ele><time>2026-04-26T16:50:03.999Z</time></trkpt><trkpt lat="43.24251516698983" lon="12.359742095880614"><ele>316.0</ele><time>2026-04-26T16:50:04.999Z</time></trkpt><trkpt lat="43.24235078425555" lon="12.359753282066873"><ele>316.0</ele><time>2026-04-26T16:50:05.999Z</time></trkpt><trkpt lat="43.24219294421235" lon="12.359793998898377"><ele>318.3333333333333</ele><time>2026-04-26T16:50:06.999Z</time></trkpt><trkpt lat="43.242043062523024" lon="12.359861017762784"><ele>320.6666666666667</ele><time>2026-04-26T16:50:07.999Z</time></trkpt><trkpt lat="43.241902227373124" lon="12.35997814709642"><ele>323.0</ele><time>2026-04-26T16:50:08.999Z</time></trkpt><trkpt lat="43.241768503561445" lon="12.360127586295278"><ele>323.0</ele><time>2026-04-26T16:50:09.999Z</time></trkpt><trkpt lat="43.24164398356963" lon="12.360301899076976"><ele>323.0</ele><time>2026-04-26T16:50:10.999Z</time></trkpt><trkpt lat="43.24151142989626" lon="12.360479274664899"><ele>323.0</ele><time>2026-04-26T16:50:11.999Z</time></trkpt><trkpt lat="43.24136978553527" lon="12.360658158743036"><ele>323.6666666666667</ele><time>2026-04-26T16:50:12.999Z</time></trkpt><trkpt lat="43.241229931458484" lon="12.360835737237274"><ele>324.3333333333333</ele><time>2026-04-26T16:50:13.999Z</time></trkpt><trkpt lat="43.24110499018339" lon="12.361002717461549"><ele>325.0</ele><time>2026-04-26T16:50:14.999Z</time></trkpt><trkpt lat="43.24098680970265" lon="12.361168879685295"><ele>325.0</ele><time>2026-04-26T16:50:15.999Z</time></trkpt><trkpt lat="43.24086688993373" lon="12.361336808376215"><ele>325.0</ele><time>2026-04-26T16:50:16.999Z</time></trkpt><trkpt lat="43.24074499037582" lon="12.361506672325271"><ele>325.0</ele><time>2026-04-26T16:50:17.999Z</time></trkpt><trkpt lat="43.24061421201332" lon="12.361669931408029"><ele>321.3333333333333</ele><time>2026-04-26T16:50:18.999Z</time></trkpt><trkpt lat="43.24045515508845" lon="12.361813916254675"><ele>317.6666666666667</ele><time>2026-04-26T16:50:19.999Z</time></trkpt><trkpt lat="43.240270075382135" lon="12.36191481931089"><ele>314.0</ele><time>2026-04-26T16:50:20.999Z</time></trkpt><trkpt lat="43.240068397866004" lon="12.361970021437722"><ele>314.0</ele><time>2026-04-26T16:50:21.999Z</time></trkpt><trkpt lat="43.23984786361704" lon="12.361969941912783"><ele>314.0</ele><time>2026-04-26T16:50:22.999Z</time></trkpt><trkpt lat="43.23962672038292" lon="12.36194183537347"><ele>314.0</ele><time>2026-04-26T16:50:23.999Z</time></trkpt><trkpt lat="43.239417394330715" lon="12.361913980559429"><ele>314.0</ele><time>2026-04-26T16:50:24.999Z</time></trkpt><trkpt lat="43.23921566369584" lon="12.361890005145652"><ele>314.0</ele><time>2026-04-26T16:50:25.999Z</time></trkpt><trkpt lat="43.23901180008149" lon="12.361869607807805"><ele>314.0</ele><time>2026-04-26T16:50:26.999Z</time></trkpt><trkpt lat="43.23880477398317" lon="12.361846778694991"><ele>314.33333333333337</ele><time>2026-04-26T16:50:27.999Z</time></trkpt><trkpt lat="43.238597068426515" lon="12.361816676770584"><ele>314.6666666666667</ele><time>2026-04-26T16:50:28.999Z</time></trkpt><trkpt lat="43.23840260973975" lon="12.36176567861632"><ele>315.0</ele><time>2026-04-26T16:50:29.999Z</time></trkpt><trkpt lat="43.23821244163873" lon="12.361670807032796"><ele>315.6666666666667</ele><time>2026-04-26T16:50:30.999Z</time></trkpt><trkpt lat="43.238024289703795" lon="12.36153496004137"><ele>316.33333333333337</ele><time>2026-04-26T16:50:31.999Z</time></trkpt><trkpt lat="43.23784305523702" lon="12.361353925426958"><ele>317.0</ele><time>2026-04-26T16:50:32.999Z</time></trkpt><trkpt lat="43.2376726840038" lon="12.36113722710631"><ele>317.0</ele><time>2026-04-26T16:50:33.999Z</time></trkpt><trkpt lat="43.237494854737314" lon="12.360915757410963"><ele>317.0</ele><time>2026-04-26T16:50:34.999Z</time></trkpt><trkpt lat="43.23730921895994" lon="12.360694262292036"><ele>316.0</ele><time>2026-04-26T16:50:35.999Z</time></trkpt><trkpt lat="43.23712109139064" lon="12.36047386959808"><ele>315.0</ele><time>2026-04-26T16:50:36.999Z</time></trkpt><trkpt lat="43.23693846745799" lon="12.360230299429139"><ele>315.0</ele><time>2026-04-26T16:50:37.999Z</time></trkpt><trkpt lat="43.23674837249819" lon="12.360030957083351"><ele>315.0</ele><time>2026-04-26T16:50:38.999Z</time></trkpt><trkpt lat="43.23660323561258" lon="12.35984655905078"><ele>315.0</ele><time>2026-04-26T16:50:39.999Z</time></trkpt><trkpt lat="43.23648103499291" lon="12.359679179752208"><ele>315.0</ele><time>2026-04-26T16:50:40.999Z</time></trkpt><trkpt lat="43.23637832794519" lon="12.359499249857853"><ele>315.0</ele><time>2026-04-26T16:50:41.999Z</time></trkpt><trkpt lat="43.236273818757304" lon="12.359339289322442"><ele>315.0</ele><time>2026-04-26T16:50:42.999Z</time></trkpt><trkpt lat="43.23617676442069" lon="12.359187700193758"><ele>315.0</ele><time>2026-04-26T16:50:43.999Z</time></trkpt><trkpt lat="43.23608667465982" lon="12.359047072276187"><ele>315.0</ele><time>2026-04-26T16:50:44.999Z</time></trkpt><trkpt lat="43.236003615881664" lon="12.358917419553903"><ele>315.0</ele><time>2026-04-26T16:50:45.999Z</time></trkpt><trkpt lat="43.23592772810543" lon="12.358798960591189"><ele>315.0</ele><time>2026-04-26T16:50:46.999Z</time></trkpt><trkpt lat="43.23586636467988" lon="12.35870436408124"><ele>314.8333333333333</ele><time>2026-04-26T16:50:47.998Z</time></trkpt><trkpt lat="43.23582181303478" lon="12.358636417542641"><ele>314.6666666666667</ele><time>2026-04-26T16:50:48.998Z</time></trkpt><trkpt lat="43.23576048278847" lon="12.35857602789792"><ele>314.5</ele><time>2026-04-26T16:50:59Z</time></trkpt><trkpt lat="43.23571740974692" lon="12.358487153432486"><ele>314.33333333333337</ele><time>2026-04-26T16:52:43.999Z</time></trkpt><trkpt lat="43.23566093548162" lon="12.358415109442754"><ele>314.1666666666667</ele><time>2026-04-26T16:52:44.999Z</time></trkpt><trkpt lat="43.23559228413096" lon="12.358317192778566"><ele>314.0</ele><time>2026-04-26T16:52:45.999Z</time></trkpt><trkpt lat="43.23552646271228" lon="12.358188653012302"><ele>314.0</ele><time>2026-04-26T16:52:46.999Z</time></trkpt><trkpt lat="43.235442375371974" lon="12.358061543989947"><ele>314.0</ele><time>2026-04-26T16:52:47.999Z</time></trkpt><trkpt lat="43.235351486750794" lon="12.357923698019782"><ele>314.0</ele><time>2026-04-26T16:52:48.998Z</time></trkpt><trkpt lat="43.23525290464592" lon="12.357774598190982"><ele>314.0</ele><time>2026-04-26T16:52:49.998Z</time></trkpt><trkpt lat="43.235150038082494" lon="12.357618974012246"><ele>316.6666666666667</ele><time>2026-04-26T16:52:50.998Z</time></trkpt><trkpt lat="43.23502039943874" lon="12.357480311143645"><ele>319.3333333333333</ele><time>2026-04-26T16:52:51.998Z</time></trkpt><trkpt lat="43.23490817995831" lon="12.357307956456893"><ele>322.0</ele><time>2026-04-26T16:52:52.998Z</time></trkpt><trkpt lat="43.234786726601975" lon="12.357131915982675"><ele>322.0</ele><time>2026-04-26T16:52:53.998Z</time></trkpt><trkpt lat="43.234661866824986" lon="12.35694885532806"><ele>322.0</ele><time>2026-04-26T16:52:54.998Z</time></trkpt><trkpt lat="43.234538445688365" lon="12.356755430344084"><ele>322.0</ele><time>2026-04-26T16:52:55.998Z</time></trkpt><trkpt lat="43.23443206175863" lon="12.356548007041013"><ele>326.66666666666663</ele><time>2026-04-26T16:52:56.998Z</time></trkpt><trkpt lat="43.23433410612739" lon="12.356320258354806"><ele>331.3333333333333</ele><time>2026-04-26T16:52:57.998Z</time></trkpt><trkpt lat="43.23426470871307" lon="12.356061650654489"><ele>336.0</ele><time>2026-04-26T16:52:58.998Z</time></trkpt><trkpt lat="43.23421252724769" lon="12.355787880476202"><ele>339.3333333333333</ele><time>2026-04-26T16:52:59.998Z</time></trkpt><trkpt lat="43.234186890003706" lon="12.355510612499327"><ele>342.66666666666663</ele><time>2026-04-26T16:53:01Z</time></trkpt><trkpt lat="43.23411616345493" lon="12.35521449660729"><ele>346.0</ele><time>2026-04-26T16:53:02Z</time></trkpt><trkpt lat="43.234062134563445" lon="12.354957488178046"><ele>350.66666666666663</ele><time>2026-04-26T16:53:03Z</time></trkpt><trkpt lat="43.23399846760288" lon="12.354692534540453"><ele>355.3333333333333</ele><time>2026-04-26T16:53:04Z</time></trkpt><trkpt lat="43.23393757238731" lon="12.354427522082219"><ele>360.0</ele><time>2026-04-26T16:53:05Z</time></trkpt><trkpt lat="43.23386137796087" lon="12.354163930786063"><ele>352.6666666666667</ele><time>2026-04-26T16:53:06Z</time></trkpt><trkpt lat="43.23376089630413" lon="12.35390569828026"><ele>345.33333333333337</ele><time>2026-04-26T16:53:07Z</time></trkpt><trkpt lat="43.233641353582684" lon="12.353656158190496"><ele>338.0</ele><time>2026-04-26T16:53:08Z</time></trkpt><trkpt lat="43.233512201021234" lon="12.353413587521608"><ele>338.0</ele><time>2026-04-26T16:53:09Z</time></trkpt><trkpt lat="43.23338165963806" lon="12.353164490924001"><ele>338.0</ele><time>2026-04-26T16:53:10Z</time></trkpt><trkpt lat="43.233246005558286" lon="12.35291326248215"><ele>336.5</ele><time>2026-04-26T16:53:11Z</time></trkpt><trkpt lat="43.23310523395206" lon="12.352663344221384"><ele>335.0</ele><time>2026-04-26T16:53:12Z</time></trkpt><trkpt lat="43.23296409188224" lon="12.35240904991672"><ele>344.5</ele><time>2026-04-26T16:53:13Z</time></trkpt><trkpt lat="43.23282211721033" lon="12.352152069856798"><ele>354.0</ele><time>2026-04-26T16:53:14Z</time></trkpt><trkpt lat="43.23268316580154" lon="12.351893036424956"><ele>354.0</ele><time>2026-04-26T16:53:15Z</time></trkpt><trkpt lat="43.23253989579245" lon="12.35162313092257"><ele>354.0</ele><time>2026-04-26T16:53:16Z</time></trkpt><trkpt lat="43.23239703939828" lon="12.351348363700497"><ele>349.0</ele><time>2026-04-26T16:53:17Z</time></trkpt><trkpt lat="43.23225204183447" lon="12.351070022702029"><ele>344.0</ele><time>2026-04-26T16:53:18Z</time></trkpt><trkpt lat="43.23210574480533" lon="12.350785969901676"><ele>351.0</ele><time>2026-04-26T16:53:19Z</time></trkpt><trkpt lat="43.231956642521354" lon="12.350497891171935"><ele>358.0</ele><time>2026-04-26T16:53:20Z</time></trkpt><trkpt lat="43.231804464873534" lon="12.350206347451646"><ele>358.0</ele><time>2026-04-26T16:53:21Z</time></trkpt><trkpt lat="43.23165023792817" lon="12.349909846023374"><ele>358.0</ele><time>2026-04-26T16:53:22Z</time></trkpt><trkpt lat="43.231494208571924" lon="12.349610589545877"><ele>348.5</ele><time>2026-04-26T16:53:23Z</time></trkpt><trkpt lat="43.23134340160531" lon="12.349330633089055"><ele>339.0</ele><time>2026-04-26T16:53:24Z</time></trkpt><trkpt lat="43.23120122123077" lon="12.349064198373835"><ele>348.5</ele><time>2026-04-26T16:53:25Z</time></trkpt><trkpt lat="43.231063723461766" lon="12.348810138258749"><ele>358.0</ele><time>2026-04-26T16:53:26Z</time></trkpt><trkpt lat="43.23093856119678" lon="12.34856315139714"><ele>358.0</ele><time>2026-04-26T16:53:27Z</time></trkpt><trkpt lat="43.230817344481295" lon="12.348327983310375"><ele>358.0</ele><time>2026-04-26T16:53:28Z</time></trkpt><trkpt lat="43.230680040364064" lon="12.348104920259967"><ele>358.0</ele><time>2026-04-26T16:53:29Z</time></trkpt><trkpt lat="43.23051968707964" lon="12.34789281380789"><ele>357.0</ele><time>2026-04-26T16:53:30Z</time></trkpt><trkpt lat="43.230356008837475" lon="12.347707217303343"><ele>356.0</ele><time>2026-04-26T16:53:31Z</time></trkpt><trkpt lat="43.23019615703525" lon="12.347542611192885"><ele>355.0</ele><time>2026-04-26T16:53:32Z</time></trkpt><trkpt lat="43.230036000201686" lon="12.347405424762492"><ele>355.0</ele><time>2026-04-26T16:53:33Z</time></trkpt><trkpt lat="43.229878028885295" lon="12.347289914313365"><ele>355.0</ele><time>2026-04-26T16:53:34Z</time></trkpt><trkpt lat="43.22972305061817" lon="12.347192039848169"><ele>355.0</ele><time>2026-04-26T16:53:35Z</time></trkpt><trkpt lat="43.22956476503929" lon="12.347113045073828"><ele>357.66666666666663</ele><time>2026-04-26T16:53:36Z</time></trkpt><trkpt lat="43.22939070960425" lon="12.347034176369977"><ele>360.3333333333333</ele><time>2026-04-26T16:53:37Z</time></trkpt><trkpt lat="43.22920712904644" lon="12.346954585064026"><ele>363.0</ele><time>2026-04-26T16:53:38Z</time></trkpt><trkpt lat="43.22901328699935" lon="12.346866998203764"><ele>362.3333333333333</ele><time>2026-04-26T16:53:39Z</time></trkpt><trkpt lat="43.22880757161692" lon="12.346774932153258"><ele>361.66666666666663</ele><time>2026-04-26T16:53:40Z</time></trkpt><trkpt lat="43.228597352959156" lon="12.346689135598561"><ele>361.0</ele><time>2026-04-26T16:53:41Z</time></trkpt><trkpt lat="43.22838046496677" lon="12.346597839032126"><ele>361.0</ele><time>2026-04-26T16:53:42Z</time></trkpt><trkpt lat="43.228156260545425" lon="12.346504167568371"><ele>361.0</ele><time>2026-04-26T16:53:43Z</time></trkpt><trkpt lat="43.22792866675193" lon="12.346409727763682"><ele>362.5</ele><time>2026-04-26T16:53:44Z</time></trkpt><trkpt lat="43.2277030615418" lon="12.346318008385882"><ele>364.0</ele><time>2026-04-26T16:53:45Z</time></trkpt><trkpt lat="43.227486048507096" lon="12.346227739698284"><ele>359.66666666666663</ele><time>2026-04-26T16:53:46Z</time></trkpt><trkpt lat="43.227283180491796" lon="12.346132979507482"><ele>355.3333333333333</ele><time>2026-04-26T16:53:47Z</time></trkpt><trkpt lat="43.22708479000104" lon="12.346014917451484"><ele>351.0</ele><time>2026-04-26T16:53:48Z</time></trkpt><trkpt lat="43.22688890045241" lon="12.345870594010115"><ele>351.0</ele><time>2026-04-26T16:53:49Z</time></trkpt><trkpt lat="43.22669891653002" lon="12.345708326171824"><ele>351.0</ele><time>2026-04-26T16:53:50Z</time></trkpt><trkpt lat="43.226519234881025" lon="12.345532819819686"><ele>351.0</ele><time>2026-04-26T16:53:51Z</time></trkpt><trkpt lat="43.22635231922812" lon="12.345339286803881"><ele>352.3333333333333</ele><time>2026-04-26T16:53:52Z</time></trkpt><trkpt lat="43.22619601396099" lon="12.345129671184187"><ele>353.66666666666663</ele><time>2026-04-26T16:53:53Z</time></trkpt><trkpt lat="43.226051354768" lon="12.344901165157822"><ele>355.0</ele><time>2026-04-26T16:53:53.999Z</time></trkpt><trkpt lat="43.2259185886565" lon="12.34465011329487"><ele>355.0</ele><time>2026-04-26T16:53:54.999Z</time></trkpt><trkpt lat="43.22579601950545" lon="12.344384168837394"><ele>355.0</ele><time>2026-04-26T16:53:55.999Z</time></trkpt><trkpt lat="43.225691580702346" lon="12.344100960552188"><ele>361.5</ele><time>2026-04-26T16:53:56.999Z</time></trkpt><trkpt lat="43.225619957276606" lon="12.343802285428234"><ele>368.0</ele><time>2026-04-26T16:53:57.999Z</time></trkpt><trkpt lat="43.22555192403296" lon="12.343506056829087"><ele>368.0</ele><time>2026-04-26T16:53:58.999Z</time></trkpt><trkpt lat="43.225486577722585" lon="12.34319516408896"><ele>368.0</ele><time>2026-04-26T16:53:59.999Z</time></trkpt><trkpt lat="43.225435486522315" lon="12.34287089653054"><ele>367.5</ele><time>2026-04-26T16:54:00.999Z</time></trkpt><trkpt lat="43.22538448013239" lon="12.342538646045032"><ele>367.0</ele><time>2026-04-26T16:54:01.999Z</time></trkpt><trkpt lat="43.22533294267627" lon="12.342199563067274"><ele>365.5</ele><time>2026-04-26T16:54:02.999Z</time></trkpt><trkpt lat="43.22527950492447" lon="12.34185431822831"><ele>364.0</ele><time>2026-04-26T16:54:03.999Z</time></trkpt><trkpt lat="43.22522837927063" lon="12.34151619066788"><ele>363.0</ele><time>2026-04-26T16:54:04.999Z</time></trkpt><trkpt lat="43.22518148252486" lon="12.341201886019194"><ele>362.0</ele><time>2026-04-26T16:54:05.999Z</time></trkpt><trkpt lat="43.22513803101368" lon="12.340907357894924"><ele>362.0</ele><time>2026-04-26T16:54:06.999Z</time></trkpt><trkpt lat="43.22511934631168" lon="12.340630178029318"><ele>362.0</ele><time>2026-04-26T16:54:07.999Z</time></trkpt><trkpt lat="43.22509838060237" lon="12.34037586055433"><ele>362.0</ele><time>2026-04-26T16:54:08.999Z</time></trkpt><trkpt lat="43.22509790218873" lon="12.340132342989131"><ele>361.33333333333337</ele><time>2026-04-26T16:54:09.999Z</time></trkpt><trkpt lat="43.22510629954075" lon="12.339897167797732"><ele>360.6666666666667</ele><time>2026-04-26T16:54:10.999Z</time></trkpt><trkpt lat="43.22515137623191" lon="12.339676427454721"><ele>360.0</ele><time>2026-04-26T16:54:11.999Z</time></trkpt><trkpt lat="43.22520681657515" lon="12.339474791318194"><ele>361.0</ele><time>2026-04-26T16:54:12.999Z</time></trkpt><trkpt lat="43.22527106192933" lon="12.339296360440446"><ele>362.0</ele><time>2026-04-26T16:54:13.999Z</time></trkpt><trkpt lat="43.22529692428939" lon="12.339125794421697"><ele>363.0</ele><time>2026-04-26T16:54:14.999Z</time></trkpt><trkpt lat="43.22535799885143" lon="12.33898788328986"><ele>364.0</ele><time>2026-04-26T16:54:15.999Z</time></trkpt><trkpt lat="43.22541563704153" lon="12.33887088539577"><ele>365.2</ele><time>2026-04-26T16:54:16.999Z</time></trkpt><trkpt lat="43.22542896727238" lon="12.338741365761527"><ele>366.4</ele><time>2026-04-26T16:54:17.999Z</time></trkpt><trkpt lat="43.2254001803857" lon="12.338605117033332"><ele>367.6</ele><time>2026-04-26T16:54:18.999Z</time></trkpt><trkpt lat="43.22533071915368" lon="12.33847708422173"><ele>368.8</ele><time>2026-04-26T16:54:19.999Z</time></trkpt><trkpt lat="43.22524056426703" lon="12.33834376104483"><ele>370.0</ele><time>2026-04-26T16:54:20.999Z</time></trkpt><trkpt lat="43.225189081112205" lon="12.338157279232487"><ele>370.66666666666663</ele><time>2026-04-26T16:54:21.999Z</time></trkpt><trkpt lat="43.22520924048652" lon="12.337943125431583"><ele>371.3333333333333</ele><time>2026-04-26T16:54:22.999Z</time></trkpt><trkpt lat="43.22522742227493" lon="12.337714290705948"><ele>372.0</ele><time>2026-04-26T16:54:23.999Z</time></trkpt><trkpt lat="43.22522940317395" lon="12.337473005739666"><ele>372.0</ele><time>2026-04-26T16:54:24.999Z</time></trkpt><trkpt lat="43.22524135963804" lon="12.33722330606527"><ele>372.0</ele><time>2026-04-26T16:54:25.999Z</time></trkpt><trkpt lat="43.22525030377561" lon="12.336957929326164"><ele>372.0</ele><time>2026-04-26T16:54:26.999Z</time></trkpt><trkpt lat="43.2252469344285" lon="12.336685389025957"><ele>372.3333333333333</ele><time>2026-04-26T16:54:27.999Z</time></trkpt><trkpt lat="43.22522694416751" lon="12.336406583473435"><ele>372.66666666666663</ele><time>2026-04-26T16:54:28.999Z</time></trkpt><trkpt lat="43.22519389895814" lon="12.336124911433654"><ele>373.0</ele><time>2026-04-26T16:54:29.999Z</time></trkpt><trkpt lat="43.22514749175253" lon="12.335838994002481"><ele>375.3333333333333</ele><time>2026-04-26T16:54:30.999Z</time></trkpt><trkpt lat="43.22509208821545" lon="12.335552620790724"><ele>377.6666666666667</ele><time>2026-04-26T16:54:31.999Z</time></trkpt><trkpt lat="43.22502895686807" lon="12.335266032644329"><ele>380.0</ele><time>2026-04-26T16:54:32.999Z</time></trkpt><trkpt lat="43.22496626546156" lon="12.33497368030382"><ele>385.0</ele><time>2026-04-26T16:54:33.999Z</time></trkpt><trkpt lat="43.224905264378556" lon="12.33467498008855"><ele>390.0</ele><time>2026-04-26T16:54:34.999Z</time></trkpt><trkpt lat="43.22484268377674" lon="12.334373870577787"><ele>390.5</ele><time>2026-04-26T16:54:35.999Z</time></trkpt><trkpt lat="43.22477766864828" lon="12.334069397935538"><ele>391.0</ele><time>2026-04-26T16:54:36.999Z</time></trkpt><trkpt lat="43.224711229690755" lon="12.333761488384205"><ele>388.5</ele><time>2026-04-26T16:54:37.999Z</time></trkpt><trkpt lat="43.22464545827024" lon="12.333449364548292"><ele>386.0</ele><time>2026-04-26T16:54:38.999Z</time></trkpt><trkpt lat="43.22457626315854" lon="12.333134054596965"><ele>385.0</ele><time>2026-04-26T16:54:39.999Z</time></trkpt><trkpt lat="43.224503313766725" lon="12.33281577613228"><ele>384.0</ele><time>2026-04-26T16:54:40.999Z</time></trkpt><trkpt lat="43.22442469793676" lon="12.332497445433209"><ele>384.0</ele><time>2026-04-26T16:54:41.999Z</time></trkpt><trkpt lat="43.22434077178881" lon="12.332178739518062"><ele>384.0</ele><time>2026-04-26T16:54:42.999Z</time></trkpt><trkpt lat="43.22425255776597" lon="12.331857222911337"><ele>384.0</ele><time>2026-04-26T16:54:43.999Z</time></trkpt><trkpt lat="43.224157055789696" lon="12.331536670228958"><ele>384.0</ele><time>2026-04-26T16:54:44.999Z</time></trkpt><trkpt lat="43.22405053240458" lon="12.331218975164273"><ele>384.0</ele><time>2026-04-26T16:54:45.999Z</time></trkpt><trkpt lat="43.22393536808839" lon="12.330900527489913"><ele>384.0</ele><time>2026-04-26T16:54:46.999Z</time></trkpt><trkpt lat="43.22380797380998" lon="12.33058365876301"><ele>380.5</ele><time>2026-04-26T16:54:47.999Z</time></trkpt><trkpt lat="43.22367115620375" lon="12.330268641264105"><ele>377.0</ele><time>2026-04-26T16:54:48.999Z</time></trkpt><trkpt lat="43.22352797847784" lon="12.32995337825821"><ele>377.5</ele><time>2026-04-26T16:54:49.999Z</time></trkpt><trkpt lat="43.22338195784956" lon="12.329634806353154"><ele>378.0</ele><time>2026-04-26T16:54:50.999Z</time></trkpt><trkpt lat="43.22323482534982" lon="12.329311575811106"><ele>380.0</ele><time>2026-04-26T16:54:51.999Z</time></trkpt><trkpt lat="43.22308710131579" lon="12.328984722505655"><ele>382.0</ele><time>2026-04-26T16:54:52.999Z</time></trkpt><trkpt lat="43.22293625721601" lon="12.32865596846832"><ele>382.0</ele><time>2026-04-26T16:54:53.999Z</time></trkpt><trkpt lat="43.22278387141456" lon="12.328325858186105"><ele>382.0</ele><time>2026-04-26T16:54:54.999Z</time></trkpt><trkpt lat="43.22263502707058" lon="12.328001976112457"><ele>378.5</ele><time>2026-04-26T16:54:55.999Z</time></trkpt><trkpt lat="43.22249633867934" lon="12.327694966501983"><ele>375.0</ele><time>2026-04-26T16:54:56.999Z</time></trkpt><trkpt lat="43.222362767396135" lon="12.327405439927917"><ele>376.5</ele><time>2026-04-26T16:54:57.998Z</time></trkpt><trkpt lat="43.22223664596767" lon="12.327130390846635"><ele>378.0</ele><time>2026-04-26T16:54:58.998Z</time></trkpt><trkpt lat="43.22211673740863" lon="12.32687838621609"><ele>378.0</ele><time>2026-04-26T16:54:59.998Z</time></trkpt><trkpt lat="43.22198250096666" lon="12.326653955337804"><ele>378.0</ele><time>2026-04-26T16:55:00.998Z</time></trkpt><trkpt lat="43.22181825499804" lon="12.326446231487589"><ele>378.0</ele><time>2026-04-26T16:55:01.998Z</time></trkpt><trkpt lat="43.221631483249205" lon="12.326259883273048"><ele>376.5</ele><time>2026-04-26T16:55:02.998Z</time></trkpt><trkpt lat="43.22142868283709" lon="12.326092524670132"><ele>375.0</ele><time>2026-04-26T16:55:03.998Z</time></trkpt><trkpt lat="43.22121227376092" lon="12.325942101377674"><ele>375.0</ele><time>2026-04-26T16:55:04.998Z</time></trkpt><trkpt lat="43.220984804007244" lon="12.325802439304722"><ele>375.0</ele><time>2026-04-26T16:55:05.998Z</time></trkpt><trkpt lat="43.22075200698559" lon="12.325655927871345"><ele>374.5</ele><time>2026-04-26T16:55:07Z</time></trkpt><trkpt lat="43.22051704094647" lon="12.325504910849906"><ele>374.0</ele><time>2026-04-26T16:55:08Z</time></trkpt><trkpt lat="43.2202770003616" lon="12.325350228673287"><ele>374.0</ele><time>2026-04-26T16:55:09Z</time></trkpt><trkpt lat="43.220031169317075" lon="12.325195680377021"><ele>374.0</ele><time>2026-04-26T16:55:10Z</time></trkpt><trkpt lat="43.219782227287524" lon="12.32503704116623"><ele>375.0</ele><time>2026-04-26T16:55:11Z</time></trkpt><trkpt lat="43.21953084170147" lon="12.32487662877408"><ele>376.0</ele><time>2026-04-26T16:55:12Z</time></trkpt><trkpt lat="43.21927594439083" lon="12.324713567371587"><ele>376.0</ele><time>2026-04-26T16:55:13Z</time></trkpt><trkpt lat="43.21902262280612" lon="12.324553228748488"><ele>376.0</ele><time>2026-04-26T16:55:14Z</time></trkpt><trkpt lat="43.2187857147515" lon="12.32440127805092"><ele>374.5</ele><time>2026-04-26T16:55:15Z</time></trkpt><trkpt lat="43.21854930883942" lon="12.32425615448805"><ele>373.0</ele><time>2026-04-26T16:55:16Z</time></trkpt><trkpt lat="43.21830623675933" lon="12.324135848437976"><ele>374.0</ele><time>2026-04-26T16:55:17Z</time></trkpt><trkpt lat="43.21807245659796" lon="12.324049528039403"><ele>375.0</ele><time>2026-04-26T16:55:18Z</time></trkpt><trkpt lat="43.217855625399785" lon="12.323984810870511"><ele>375.0</ele><time>2026-04-26T16:55:19Z</time></trkpt><trkpt lat="43.21766447191311" lon="12.323934625846114"><ele>375.0</ele><time>2026-04-26T16:55:20Z</time></trkpt><trkpt lat="43.21749667224998" lon="12.323886895832999"><ele>375.0</ele><time>2026-04-26T16:55:21Z</time></trkpt><trkpt lat="43.21735387843054" lon="12.32384435771581"><ele>373.4</ele><time>2026-04-26T16:55:22Z</time></trkpt><trkpt lat="43.217236664561106" lon="12.323811429825055"><ele>371.8</ele><time>2026-04-26T16:55:23Z</time></trkpt><trkpt lat="43.21714327582242" lon="12.32378663749773"><ele>370.20000000000005</ele><time>2026-04-26T16:55:24Z</time></trkpt><trkpt lat="43.21707126556837" lon="12.323770234749546"><ele>368.6</ele><time>2026-04-26T16:55:25Z</time></trkpt><trkpt lat="43.21697347921686" lon="12.32375562125093"><ele>367.0</ele><time>2026-04-26T16:55:27Z</time></trkpt><trkpt lat="43.21690770176446" lon="12.323713859863377"><ele>367.0</ele><time>2026-04-26T16:55:44Z</time></trkpt><trkpt lat="43.21681001144942" lon="12.323694717951893"><ele>367.0</ele><time>2026-04-26T16:56:47.999Z</time></trkpt><trkpt lat="43.21667802133681" lon="12.323604484006495"><ele>367.0</ele><time>2026-04-26T16:56:49.999Z</time></trkpt><trkpt lat="43.21658110441588" lon="12.323521030286813"><ele>367.0</ele><time>2026-04-26T16:56:50.999Z</time></trkpt><trkpt lat="43.21647641069375" lon="12.323405033903585"><ele>368.66666666666663</ele><time>2026-04-26T16:56:51.999Z</time></trkpt><trkpt lat="43.21637273754925" lon="12.323258272890616"><ele>370.3333333333333</ele><time>2026-04-26T16:56:52.999Z</time></trkpt><trkpt lat="43.21626466991064" lon="12.323085532348639"><ele>372.0</ele><time>2026-04-26T16:56:53.999Z</time></trkpt><trkpt lat="43.216166033690385" lon="12.322915694281974"><ele>368.75</ele><time>2026-04-26T16:56:54.999Z</time></trkpt><trkpt lat="43.21606029940353" lon="12.322766867929484"><ele>365.5</ele><time>2026-04-26T16:56:55.999Z</time></trkpt><trkpt lat="43.21593457332847" lon="12.322683010792932"><ele>362.25</ele><time>2026-04-26T16:56:56.999Z</time></trkpt><trkpt lat="43.21580118790318" lon="12.322616203553165"><ele>359.0</ele><time>2026-04-26T16:56:57.999Z</time></trkpt><trkpt lat="43.215639326713344" lon="12.322598846205349"><ele>358.6666666666667</ele><time>2026-04-26T16:56:58.999Z</time></trkpt><trkpt lat="43.215461143559146" lon="12.322626806022944"><ele>358.3333333333333</ele><time>2026-04-26T16:56:59.999Z</time></trkpt><trkpt lat="43.21527151786046" lon="12.322632893209441"><ele>358.0</ele><time>2026-04-26T16:57:00.999Z</time></trkpt><trkpt lat="43.21506910823154" lon="12.322587943911984"><ele>358.0</ele><time>2026-04-26T16:57:01.999Z</time></trkpt><trkpt lat="43.21485857082097" lon="12.32253046014674"><ele>358.0</ele><time>2026-04-26T16:57:02.999Z</time></trkpt><trkpt lat="43.21464064028424" lon="12.322482010069221"><ele>358.0</ele><time>2026-04-26T16:57:03.998Z</time></trkpt><trkpt lat="43.21441491301986" lon="12.322464170242096"><ele>357.66666666666663</ele><time>2026-04-26T16:57:04.998Z</time></trkpt><trkpt lat="43.21419564637335" lon="12.322476179891433"><ele>357.3333333333333</ele><time>2026-04-26T16:57:05.998Z</time></trkpt><trkpt lat="43.21399158075753" lon="12.322477170541578"><ele>357.0</ele><time>2026-04-26T16:57:06.998Z</time></trkpt><trkpt lat="43.21379855423858" lon="12.322443273005433"><ele>359.3333333333333</ele><time>2026-04-26T16:57:07.998Z</time></trkpt><trkpt lat="43.213617988379454" lon="12.322370903281575"><ele>361.66666666666663</ele><time>2026-04-26T16:57:08.998Z</time></trkpt><trkpt lat="43.21344865522574" lon="12.322243958657904"><ele>364.0</ele><time>2026-04-26T16:57:09.998Z</time></trkpt><trkpt lat="43.2132914720805" lon="12.32206271871971"><ele>362.66666666666663</ele><time>2026-04-26T16:57:10.998Z</time></trkpt><trkpt lat="43.2131433241033" lon="12.32184437042204"><ele>361.3333333333333</ele><time>2026-04-26T16:57:11.998Z</time></trkpt><trkpt lat="43.212987647423546" lon="12.321610284464057"><ele>360.0</ele><time>2026-04-26T16:57:13Z</time></trkpt><trkpt lat="43.212827017515586" lon="12.321370776264299"><ele>353.5</ele><time>2026-04-26T16:57:14Z</time></trkpt><trkpt lat="43.21265484421846" lon="12.321140881848663"><ele>347.0</ele><time>2026-04-26T16:57:15Z</time></trkpt><trkpt lat="43.21245879750575" lon="12.320931914927735"><ele>350.0</ele><time>2026-04-26T16:57:16Z</time></trkpt><trkpt lat="43.212246174076185" lon="12.320734283066194"><ele>353.0</ele><time>2026-04-26T16:57:17Z</time></trkpt><trkpt lat="43.21202902810429" lon="12.320536008226341"><ele>347.0</ele><time>2026-04-26T16:57:18Z</time></trkpt><trkpt lat="43.21181958246007" lon="12.320354763413123"><ele>341.0</ele><time>2026-04-26T16:57:19Z</time></trkpt><trkpt lat="43.21161430273425" lon="12.320184565194962"><ele>346.0</ele><time>2026-04-26T16:57:20Z</time></trkpt><trkpt lat="43.211410688641664" lon="12.319997348804101"><ele>351.0</ele><time>2026-04-26T16:57:21Z</time></trkpt><trkpt lat="43.211228092573734" lon="12.319766878338688"><ele>346.5</ele><time>2026-04-26T16:57:22Z</time></trkpt><trkpt lat="43.21104876929423" lon="12.319520147888673"><ele>342.0</ele><time>2026-04-26T16:57:23Z</time></trkpt><trkpt lat="43.21086777634241" lon="12.319269154430009"><ele>342.0</ele><time>2026-04-26T16:57:24Z</time></trkpt><trkpt lat="43.21070406351977" lon="12.319006976378725"><ele>342.0</ele><time>2026-04-26T16:57:25Z</time></trkpt><trkpt lat="43.21052292621613" lon="12.318766070864433"><ele>342.0</ele><time>2026-04-26T16:57:26Z</time></trkpt><trkpt lat="43.21032791830253" lon="12.318550935511366"><ele>342.0</ele><time>2026-04-26T16:57:27Z</time></trkpt><trkpt lat="43.21012087354471" lon="12.318362020686083"><ele>342.0</ele><time>2026-04-26T16:57:28Z</time></trkpt><trkpt lat="43.20990035254447" lon="12.318200361020862"><ele>342.0</ele><time>2026-04-26T16:57:29Z</time></trkpt><trkpt lat="43.209676848157585" lon="12.318059392744374"><ele>336.5</ele><time>2026-04-26T16:57:30Z</time></trkpt><trkpt lat="43.209450600722654" lon="12.317938087687324"><ele>331.0</ele><time>2026-04-26T16:57:31Z</time></trkpt><trkpt lat="43.209237537170424" lon="12.317833067617329"><ele>331.0</ele><time>2026-04-26T16:57:32Z</time></trkpt><trkpt lat="43.209026860921604" lon="12.317756661226246"><ele>331.0</ele><time>2026-04-26T16:57:33Z</time></trkpt><trkpt lat="43.208800463271004" lon="12.317711203542135"><ele>331.0</ele><time>2026-04-26T16:57:34Z</time></trkpt><trkpt lat="43.20856458369371" lon="12.317703217383675"><ele>331.0</ele><time>2026-04-26T16:57:35Z</time></trkpt><trkpt lat="43.20832320654258" lon="12.317743063024512"><ele>331.0</ele><time>2026-04-26T16:57:36Z</time></trkpt><trkpt lat="43.20809337592519" lon="12.317815062672086"><ele>328.66666666666663</ele><time>2026-04-26T16:57:37Z</time></trkpt><trkpt lat="43.20787544390336" lon="12.317894928737669"><ele>326.3333333333333</ele><time>2026-04-26T16:57:38Z</time></trkpt><trkpt lat="43.20766211371846" lon="12.317958428018985"><ele>324.0</ele><time>2026-04-26T16:57:39Z</time></trkpt><trkpt lat="43.20744497632349" lon="12.31799304123186"><ele>323.0</ele><time>2026-04-26T16:57:40Z</time></trkpt><trkpt lat="43.20722370469325" lon="12.317985771344235"><ele>322.0</ele><time>2026-04-26T16:57:41Z</time></trkpt><trkpt lat="43.2069978161887" lon="12.317925519687133"><ele>322.0</ele><time>2026-04-26T16:57:42Z</time></trkpt><trkpt lat="43.20676997264349" lon="12.317814833159613"><ele>322.0</ele><time>2026-04-26T16:57:43Z</time></trkpt><trkpt lat="43.20654798834017" lon="12.317661497773924"><ele>326.0</ele><time>2026-04-26T16:57:44Z</time></trkpt><trkpt lat="43.20633507329342" lon="12.31748988535961"><ele>330.0</ele><time>2026-04-26T16:57:45Z</time></trkpt><trkpt lat="43.20612356004375" lon="12.317346813599645"><ele>330.0</ele><time>2026-04-26T16:57:46Z</time></trkpt><trkpt lat="43.20589414463707" lon="12.317239827006029"><ele>330.0</ele><time>2026-04-26T16:57:47Z</time></trkpt><trkpt lat="43.20565332070111" lon="12.31717212996372"><ele>322.5</ele><time>2026-04-26T16:57:48Z</time></trkpt><trkpt lat="43.20540587477607" lon="12.317131993241896"><ele>315.0</ele><time>2026-04-26T16:57:49Z</time></trkpt><trkpt lat="43.20515192849308" lon="12.317102823495153"><ele>315.0</ele><time>2026-04-26T16:57:50Z</time></trkpt><trkpt lat="43.20490074698719" lon="12.317082968900873"><ele>315.0</ele><time>2026-04-26T16:57:51Z</time></trkpt><trkpt lat="43.20464680540634" lon="12.317084495949961"><ele>314.0</ele><time>2026-04-26T16:57:52Z</time></trkpt><trkpt lat="43.20438724266592" lon="12.317123816848197"><ele>313.0</ele><time>2026-04-26T16:57:53Z</time></trkpt><trkpt lat="43.20412406971017" lon="12.317201296291126"><ele>315.5</ele><time>2026-04-26T16:57:54Z</time></trkpt><trkpt lat="43.203861109982554" lon="12.317305785040462"><ele>318.0</ele><time>2026-04-26T16:57:55Z</time></trkpt><trkpt lat="43.20359667594312" lon="12.317427820418876"><ele>318.0</ele><time>2026-04-26T16:57:56Z</time></trkpt><trkpt lat="43.20332729069831" lon="12.317552809580457"><ele>318.0</ele><time>2026-04-26T16:57:57Z</time></trkpt><trkpt lat="43.20305410132481" lon="12.317679608859045"><ele>313.5</ele><time>2026-04-26T16:57:58Z</time></trkpt><trkpt lat="43.20277776131435" lon="12.31781226553742"><ele>309.0</ele><time>2026-04-26T16:57:59Z</time></trkpt><trkpt lat="43.202497680411085" lon="12.317946574801622"><ele>310.0</ele><time>2026-04-26T16:58:00Z</time></trkpt><trkpt lat="43.20221384776732" lon="12.318079499820977"><ele>311.0</ele><time>2026-04-26T16:58:00.999Z</time></trkpt><trkpt lat="43.20192619049442" lon="12.318210577857705"><ele>311.0</ele><time>2026-04-26T16:58:01.999Z</time></trkpt><trkpt lat="43.20163527646486" lon="12.318338200748082"><ele>311.0</ele><time>2026-04-26T16:58:02.999Z</time></trkpt><trkpt lat="43.20134019446953" lon="12.318455157208808"><ele>307.5</ele><time>2026-04-26T16:58:03.999Z</time></trkpt><trkpt lat="43.2010403494924" lon="12.31856292997772"><ele>304.0</ele><time>2026-04-26T16:58:04.999Z</time></trkpt><trkpt lat="43.20073883285974" lon="12.31867087666435"><ele>303.5</ele><time>2026-04-26T16:58:05.999Z</time></trkpt><trkpt lat="43.20043471691506" lon="12.318779244217792"><ele>303.0</ele><time>2026-04-26T16:58:06.999Z</time></trkpt><trkpt lat="43.20012838334783" lon="12.318886225693472"><ele>304.5</ele><time>2026-04-26T16:58:07.999Z</time></trkpt><trkpt lat="43.19982322588718" lon="12.318994606835117"><ele>306.0</ele><time>2026-04-26T16:58:08.999Z</time></trkpt><trkpt lat="43.19951725530301" lon="12.319104798675944"><ele>306.0</ele><time>2026-04-26T16:58:09.999Z</time></trkpt><trkpt lat="43.19921246852738" lon="12.319214362549184"><ele>306.0</ele><time>2026-04-26T16:58:10.999Z</time></trkpt><trkpt lat="43.19892543027632" lon="12.319310529765687"><ele>303.0</ele><time>2026-04-26T16:58:11.999Z</time></trkpt><trkpt lat="43.19865218085532" lon="12.319403955249502"><ele>300.0</ele><time>2026-04-26T16:58:12.999Z</time></trkpt><trkpt lat="43.19839071171978" lon="12.319498169063277"><ele>298.5</ele><time>2026-04-26T16:58:13.999Z</time></trkpt><trkpt lat="43.19814029300513" lon="12.319591805398447"><ele>297.0</ele><time>2026-04-26T16:58:14.999Z</time></trkpt><trkpt lat="43.19788675290483" lon="12.319699520038885"><ele>301.5</ele><time>2026-04-26T16:58:15.999Z</time></trkpt><trkpt lat="43.197633727058964" lon="12.319829346789206"><ele>306.0</ele><time>2026-04-26T16:58:16.999Z</time></trkpt><trkpt lat="43.19738116168073" lon="12.3199740781332"><ele>301.5</ele><time>2026-04-26T16:58:17.999Z</time></trkpt><trkpt lat="43.19712965783424" lon="12.320121296411493"><ele>297.0</ele><time>2026-04-26T16:58:18.999Z</time></trkpt><trkpt lat="43.19689250741733" lon="12.320253756056099"><ele>297.0</ele><time>2026-04-26T16:58:19.999Z</time></trkpt><trkpt lat="43.19665913483202" lon="12.320354093084806"><ele>297.0</ele><time>2026-04-26T16:58:20.999Z</time></trkpt><trkpt lat="43.19642529149751" lon="12.320407487396599"><ele>296.0</ele><time>2026-04-26T16:58:21.999Z</time></trkpt><trkpt lat="43.19617975897798" lon="12.32040994714278"><ele>295.0</ele><time>2026-04-26T16:58:22.999Z</time></trkpt><trkpt lat="43.19592720226259" lon="12.320375128434403"><ele>295.0</ele><time>2026-04-26T16:58:23.999Z</time></trkpt><trkpt lat="43.19566676595649" lon="12.320339669166088"><ele>295.0</ele><time>2026-04-26T16:58:24.999Z</time></trkpt><trkpt lat="43.19540211821014" lon="12.32032962151701"><ele>295.0</ele><time>2026-04-26T16:58:25.999Z</time></trkpt><trkpt lat="43.195132918836364" lon="12.320342596498882"><ele>295.0</ele><time>2026-04-26T16:58:26.999Z</time></trkpt><trkpt lat="43.194859591244885" lon="12.320358080444317"><ele>294.0</ele><time>2026-04-26T16:58:27.999Z</time></trkpt><trkpt lat="43.19458265352884" lon="12.320388483147093"><ele>293.0</ele><time>2026-04-26T16:58:28.999Z</time></trkpt><trkpt lat="43.19430447718892" lon="12.320417402983432"><ele>293.0</ele><time>2026-04-26T16:58:29.999Z</time></trkpt><trkpt lat="43.194025845768564" lon="12.32043121772057"><ele>293.0</ele><time>2026-04-26T16:58:30.999Z</time></trkpt><trkpt lat="43.193746053105414" lon="12.320418558621517"><ele>293.0</ele><time>2026-04-26T16:58:31.999Z</time></trkpt><trkpt lat="43.19346673537" lon="12.320374894009644"><ele>293.0</ele><time>2026-04-26T16:58:32.999Z</time></trkpt><trkpt lat="43.193188074139165" lon="12.320295976610469"><ele>291.0</ele><time>2026-04-26T16:58:33.999Z</time></trkpt><trkpt lat="43.192914078807306" lon="12.3201775728334"><ele>289.0</ele><time>2026-04-26T16:58:34.999Z</time></trkpt><trkpt lat="43.19264709691712" lon="12.320022587022912"><ele>289.0</ele><time>2026-04-26T16:58:35.999Z</time></trkpt><trkpt lat="43.19238079999429" lon="12.319857625773272"><ele>289.0</ele><time>2026-04-26T16:58:36.999Z</time></trkpt><trkpt lat="43.19210600194631" lon="12.319707994279765"><ele>287.5</ele><time>2026-04-26T16:58:37.999Z</time></trkpt><trkpt lat="43.191829303982246" lon="12.319567647907876"><ele>286.0</ele><time>2026-04-26T16:58:38.999Z</time></trkpt><trkpt lat="43.19155093761128" lon="12.31942334724273"><ele>287.0</ele><time>2026-04-26T16:58:39.999Z</time></trkpt><trkpt lat="43.19126911384962" lon="12.319280374887848"><ele>288.0</ele><time>2026-04-26T16:58:40.999Z</time></trkpt><trkpt lat="43.19098911987828" lon="12.319135451784824"><ele>288.0</ele><time>2026-04-26T16:58:41.999Z</time></trkpt><trkpt lat="43.19070374647936" lon="12.318982291704893"><ele>288.0</ele><time>2026-04-26T16:58:42.999Z</time></trkpt><trkpt lat="43.190417719838074" lon="12.318825950933785"><ele>286.5</ele><time>2026-04-26T16:58:43.999Z</time></trkpt><trkpt lat="43.19012776118605" lon="12.318669138720644"><ele>285.0</ele><time>2026-04-26T16:58:44.999Z</time></trkpt><trkpt lat="43.18983546652382" lon="12.31851607680412"><ele>285.0</ele><time>2026-04-26T16:58:45.999Z</time></trkpt><trkpt lat="43.189541279281386" lon="12.31836152546513"><ele>285.0</ele><time>2026-04-26T16:58:46.999Z</time></trkpt><trkpt lat="43.18924375099463" lon="12.318207117907443"><ele>283.5</ele><time>2026-04-26T16:58:47.999Z</time></trkpt><trkpt lat="43.1889453595707" lon="12.318050812858475"><ele>282.0</ele><time>2026-04-26T16:58:48.999Z</time></trkpt><trkpt lat="43.18864746079191" lon="12.317892571417076"><ele>282.0</ele><time>2026-04-26T16:58:49.999Z</time></trkpt><trkpt lat="43.18835422182581" lon="12.317739339351226"><ele>282.0</ele><time>2026-04-26T16:58:50.999Z</time></trkpt><trkpt lat="43.188059969200694" lon="12.31758842414301"><ele>283.0</ele><time>2026-04-26T16:58:51.999Z</time></trkpt><trkpt lat="43.187760896059295" lon="12.317451787343485"><ele>284.0</ele><time>2026-04-26T16:58:52.999Z</time></trkpt><trkpt lat="43.187456965423344" lon="12.317326913440844"><ele>283.0</ele><time>2026-04-26T16:58:53.999Z</time></trkpt><trkpt lat="43.18715070265323" lon="12.31721190361751"><ele>282.0</ele><time>2026-04-26T16:58:54.999Z</time></trkpt><trkpt lat="43.18684329014669" lon="12.317097526944826"><ele>282.0</ele><time>2026-04-26T16:58:55.999Z</time></trkpt><trkpt lat="43.18653479866116" lon="12.316982581627837"><ele>282.0</ele><time>2026-04-26T16:58:56.999Z</time></trkpt><trkpt lat="43.18622660933309" lon="12.316868389902595"><ele>281.5</ele><time>2026-04-26T16:58:57.999Z</time></trkpt><trkpt lat="43.18592137852269" lon="12.316752894372247"><ele>281.0</ele><time>2026-04-26T16:58:58.999Z</time></trkpt><trkpt lat="43.185634787010265" lon="12.316643747366808"><ele>282.0</ele><time>2026-04-26T16:58:59.999Z</time></trkpt><trkpt lat="43.185361456934615" lon="12.316542729029287"><ele>283.0</ele><time>2026-04-26T16:59:00.999Z</time></trkpt><trkpt lat="43.18509995025396" lon="12.316444892777316"><ele>288.0</ele><time>2026-04-26T16:59:01.999Z</time></trkpt><trkpt lat="43.184849127105714" lon="12.316359904675855"><ele>293.0</ele><time>2026-04-26T16:59:02.999Z</time></trkpt><trkpt lat="43.184598434255925" lon="12.31630585096974"><ele>293.0</ele><time>2026-04-26T16:59:03.998Z</time></trkpt><trkpt lat="43.18434885559342" lon="12.316287831893312"><ele>293.0</ele><time>2026-04-26T16:59:04.998Z</time></trkpt><trkpt lat="43.184097587500936" lon="12.316308528734595"><ele>292.5</ele><time>2026-04-26T16:59:05.998Z</time></trkpt><trkpt lat="43.183847345972005" lon="12.316366962970411"><ele>292.0</ele><time>2026-04-26T16:59:06.998Z</time></trkpt><trkpt lat="43.18360017274052" lon="12.31647153520763"><ele>287.0</ele><time>2026-04-26T16:59:07.998Z</time></trkpt><trkpt lat="43.18335685092745" lon="12.316612871553067"><ele>282.0</ele><time>2026-04-26T16:59:08.998Z</time></trkpt><trkpt lat="43.1831134254223" lon="12.316756507496109"><ele>282.0</ele><time>2026-04-26T16:59:09.998Z</time></trkpt><trkpt lat="43.18286295081358" lon="12.316871380446072"><ele>282.0</ele><time>2026-04-26T16:59:10.998Z</time></trkpt><trkpt lat="43.18261742012574" lon="12.316950887289158"><ele>282.0</ele><time>2026-04-26T16:59:11.998Z</time></trkpt><trkpt lat="43.182361279348356" lon="12.316977456736426"><ele>282.0</ele><time>2026-04-26T16:59:12.998Z</time></trkpt><trkpt lat="43.18209670404024" lon="12.316960966588173"><ele>282.0</ele><time>2026-04-26T16:59:13.998Z</time></trkpt><trkpt lat="43.18182949729154" lon="12.316925277529633"><ele>282.0</ele><time>2026-04-26T16:59:14.998Z</time></trkpt><trkpt lat="43.181557231275775" lon="12.316889082334402"><ele>284.0</ele><time>2026-04-26T16:59:15.998Z</time></trkpt><trkpt lat="43.18128007536478" lon="12.316854403015283"><ele>286.0</ele><time>2026-04-26T16:59:16.998Z</time></trkpt><trkpt lat="43.18099932719307" lon="12.316823499325416"><ele>286.0</ele><time>2026-04-26T16:59:17.998Z</time></trkpt><trkpt lat="43.18071311910258" lon="12.316804756904386"><ele>286.0</ele><time>2026-04-26T16:59:19Z</time></trkpt><trkpt lat="43.18042442981627" lon="12.31681434030181"><ele>282.0</ele><time>2026-04-26T16:59:20Z</time></trkpt><trkpt lat="43.180133148551405" lon="12.316846311835418"><ele>278.0</ele><time>2026-04-26T16:59:21Z</time></trkpt><trkpt lat="43.17984613628695" lon="12.31687677248738"><ele>274.5</ele><time>2026-04-26T16:59:22Z</time></trkpt><trkpt lat="43.17956038168555" lon="12.316863495441744"><ele>271.0</ele><time>2026-04-26T16:59:23Z</time></trkpt><trkpt lat="43.17927227769332" lon="12.316799464295048"><ele>270.0</ele><time>2026-04-26T16:59:24Z</time></trkpt><trkpt lat="43.17898717495976" lon="12.31671127251492"><ele>269.0</ele><time>2026-04-26T16:59:25Z</time></trkpt><trkpt lat="43.17870248770422" lon="12.316639818436757"><ele>269.0</ele><time>2026-04-26T16:59:26Z</time></trkpt><trkpt lat="43.178412410596685" lon="12.316565550624759"><ele>269.0</ele><time>2026-04-26T16:59:27Z</time></trkpt><trkpt lat="43.1781186961369" lon="12.316491087615818"><ele>268.5</ele><time>2026-04-26T16:59:28Z</time></trkpt><trkpt lat="43.17782200989298" lon="12.316412466944067"><ele>268.0</ele><time>2026-04-26T16:59:29Z</time></trkpt><trkpt lat="43.177523640571806" lon="12.316331873684492"><ele>268.5</ele><time>2026-04-26T16:59:30Z</time></trkpt><trkpt lat="43.17722325597463" lon="12.316253868722434"><ele>269.0</ele><time>2026-04-26T16:59:31Z</time></trkpt><trkpt lat="43.17692094754745" lon="12.316178192527317"><ele>269.0</ele><time>2026-04-26T16:59:32Z</time></trkpt><trkpt lat="43.176618009043146" lon="12.316098554761686"><ele>269.0</ele><time>2026-04-26T16:59:33Z</time></trkpt><trkpt lat="43.17631334592182" lon="12.316016404715985"><ele>268.0</ele><time>2026-04-26T16:59:34Z</time></trkpt><trkpt lat="43.176007268153995" lon="12.315935874163026"><ele>267.0</ele><time>2026-04-26T16:59:35Z</time></trkpt><trkpt lat="43.175699638128705" lon="12.315854139107273"><ele>266.5</ele><time>2026-04-26T16:59:36Z</time></trkpt><trkpt lat="43.17539103067994" lon="12.31577107759036"><ele>266.0</ele><time>2026-04-26T16:59:37Z</time></trkpt><trkpt lat="43.17508190758971" lon="12.315687755966929"><ele>265.5</ele><time>2026-04-26T16:59:38Z</time></trkpt><trkpt lat="43.174770169179936" lon="12.315603946709887"><ele>265.0</ele><time>2026-04-26T16:59:39Z</time></trkpt><trkpt lat="43.17445842358551" lon="12.315522478347145"><ele>265.5</ele><time>2026-04-26T16:59:40Z</time></trkpt><trkpt lat="43.17414604542976" lon="12.31543801117881"><ele>266.0</ele><time>2026-04-26T16:59:41Z</time></trkpt><trkpt lat="43.17383855151675" lon="12.315351440232035"><ele>266.0</ele><time>2026-04-26T16:59:42Z</time></trkpt><trkpt lat="43.17354802845217" lon="12.315270098024184"><ele>266.0</ele><time>2026-04-26T16:59:43Z</time></trkpt><trkpt lat="43.173269731596776" lon="12.315203532837174"><ele>265.5</ele><time>2026-04-26T16:59:44Z</time></trkpt><trkpt lat="43.1729926605211" lon="12.31516155850589"><ele>265.0</ele><time>2026-04-26T16:59:45Z</time></trkpt><trkpt lat="43.17272134286588" lon="12.315162482526352"><ele>265.0</ele><time>2026-04-26T16:59:46Z</time></trkpt><trkpt lat="43.172451094660865" lon="12.31520484319148"><ele>265.0</ele><time>2026-04-26T16:59:47Z</time></trkpt><trkpt lat="43.17219090678873" lon="12.315281283912189"><ele>264.0</ele><time>2026-04-26T16:59:48Z</time></trkpt><trkpt lat="43.17194649040784" lon="12.315381063131685"><ele>263.0</ele><time>2026-04-26T16:59:49Z</time></trkpt><trkpt lat="43.17169910919147" lon="12.315502529630802"><ele>265.5</ele><time>2026-04-26T16:59:50Z</time></trkpt><trkpt lat="43.1714461438703" lon="12.315619394155135"><ele>268.0</ele><time>2026-04-26T16:59:51Z</time></trkpt><trkpt lat="43.17118528315593" lon="12.315715149795405"><ele>268.0</ele><time>2026-04-26T16:59:52Z</time></trkpt><trkpt lat="43.1709143602912" lon="12.315770198504614"><ele>268.0</ele><time>2026-04-26T16:59:53Z</time></trkpt><trkpt lat="43.17063699053579" lon="12.315787560668754"><ele>268.0</ele><time>2026-04-26T16:59:54Z</time></trkpt><trkpt lat="43.17035487575038" lon="12.315772704823644"><ele>268.0</ele><time>2026-04-26T16:59:55Z</time></trkpt><trkpt lat="43.17007267007861" lon="12.315727406185726"><ele>266.5</ele><time>2026-04-26T16:59:56Z</time></trkpt><trkpt lat="43.16978942156188" lon="12.315662322400254"><ele>265.0</ele><time>2026-04-26T16:59:57Z</time></trkpt><trkpt lat="43.16950669880928" lon="12.315579481936279"><ele>264.0</ele><time>2026-04-26T16:59:58Z</time></trkpt><trkpt lat="43.16925075010911" lon="12.315480826489113"><ele>263.0</ele><time>2026-04-26T16:59:59Z</time></trkpt><trkpt lat="43.16902038772593" lon="12.31536525503936"><ele>263.0</ele><time>2026-04-26T17:00:00Z</time></trkpt><trkpt lat="43.16880504765772" lon="12.315244152674085"><ele>263.0</ele><time>2026-04-26T17:00:01Z</time></trkpt><trkpt lat="43.168582586018296" lon="12.315126293456897"><ele>263.0</ele><time>2026-04-26T17:00:02Z</time></trkpt><trkpt lat="43.16834990784203" lon="12.31501437048274"><ele>263.0</ele><time>2026-04-26T17:00:03Z</time></trkpt><trkpt lat="43.16810895533875" lon="12.314913323279967"><ele>264.0</ele><time>2026-04-26T17:00:04Z</time></trkpt><trkpt lat="43.167859965997906" lon="12.314824266961182"><ele>265.0</ele><time>2026-04-26T17:00:04.999Z</time></trkpt><trkpt lat="43.167606032462395" lon="12.31473517811572"><ele>263.0</ele><time>2026-04-26T17:00:05.999Z</time></trkpt><trkpt lat="43.16734666661744" lon="12.31464140180162"><ele>261.0</ele><time>2026-04-26T17:00:06.999Z</time></trkpt><trkpt lat="43.16708421886354" lon="12.31454592427775"><ele>261.0</ele><time>2026-04-26T17:00:07.999Z</time></trkpt><trkpt lat="43.166822081116734" lon="12.314450291302293"><ele>261.0</ele><time>2026-04-26T17:00:08.999Z</time></trkpt><trkpt lat="43.166577028901" lon="12.314361610865108"><ele>263.0</ele><time>2026-04-26T17:00:09.999Z</time></trkpt><trkpt lat="43.166341753785694" lon="12.314276543068283"><ele>265.0</ele><time>2026-04-26T17:00:10.999Z</time></trkpt><trkpt lat="43.166115447506385" lon="12.314197262684624"><ele>265.0</ele><time>2026-04-26T17:00:11.999Z</time></trkpt><trkpt lat="43.16588538045421" lon="12.31409455959993"><ele>265.0</ele><time>2026-04-26T17:00:12.999Z</time></trkpt><trkpt lat="43.1656588719417" lon="12.313954641511396"><ele>263.5</ele><time>2026-04-26T17:00:13.999Z</time></trkpt><trkpt lat="43.16542893750994" lon="12.313801255577536"><ele>262.0</ele><time>2026-04-26T17:00:14.999Z</time></trkpt><trkpt lat="43.16519792573735" lon="12.31364078142185"><ele>262.0</ele><time>2026-04-26T17:00:15.999Z</time></trkpt><trkpt lat="43.164966104061065" lon="12.313483974292188"><ele>262.0</ele><time>2026-04-26T17:00:16.999Z</time></trkpt><trkpt lat="43.16474645717131" lon="12.313338967657407"><ele>262.0</ele><time>2026-04-26T17:00:17.999Z</time></trkpt><trkpt lat="43.16453647780551" lon="12.313198677304802"><ele>262.0</ele><time>2026-04-26T17:00:18.999Z</time></trkpt><trkpt lat="43.16433893219766" lon="12.313063362967078"><ele>262.0</ele><time>2026-04-26T17:00:19.999Z</time></trkpt><trkpt lat="43.164157322744344" lon="12.312906575620053"><ele>262.0</ele><time>2026-04-26T17:00:20.999Z</time></trkpt><trkpt lat="43.16399124265487" lon="12.312698399544272"><ele>262.0</ele><time>2026-04-26T17:00:21.999Z</time></trkpt><trkpt lat="43.163842528155854" lon="12.31246029661875"><ele>262.5</ele><time>2026-04-26T17:00:22.999Z</time></trkpt><trkpt lat="43.16372001366562" lon="12.312183281033173"><ele>263.0</ele><time>2026-04-26T17:00:23.999Z</time></trkpt><trkpt lat="43.16360560564719" lon="12.311890218584306"><ele>263.0</ele><time>2026-04-26T17:00:24.999Z</time></trkpt><trkpt lat="43.16347008813122" lon="12.311606732858454"><ele>263.0</ele><time>2026-04-26T17:00:25.999Z</time></trkpt><trkpt lat="43.16330684268806" lon="12.311347362432924"><ele>264.0</ele><time>2026-04-26T17:00:26.999Z</time></trkpt><trkpt lat="43.16311941472301" lon="12.311108047170155"><ele>265.0</ele><time>2026-04-26T17:00:27.999Z</time></trkpt><trkpt lat="43.162914151650156" lon="12.310897132199603"><ele>265.0</ele><time>2026-04-26T17:00:28.999Z</time></trkpt><trkpt lat="43.16269977252975" lon="12.310698209568022"><ele>265.0</ele><time>2026-04-26T17:00:29.999Z</time></trkpt><trkpt lat="43.16248709406403" lon="12.310495519278387"><ele>263.0</ele><time>2026-04-26T17:00:30.999Z</time></trkpt><trkpt lat="43.16227401605945" lon="12.310288143823358"><ele>261.0</ele><time>2026-04-26T17:00:31.999Z</time></trkpt><trkpt lat="43.16206300894225" lon="12.310065857124124"><ele>261.0</ele><time>2026-04-26T17:00:32.999Z</time></trkpt><trkpt lat="43.161843835011936" lon="12.309855360644914"><ele>261.0</ele><time>2026-04-26T17:00:33.999Z</time></trkpt><trkpt lat="43.16162239516838" lon="12.309640762208602"><ele>260.0</ele><time>2026-04-26T17:00:34.999Z</time></trkpt><trkpt lat="43.16139929286941" lon="12.309419647502244"><ele>259.0</ele><time>2026-04-26T17:00:35.999Z</time></trkpt><trkpt lat="43.16117163138015" lon="12.309192752662206"><ele>259.0</ele><time>2026-04-26T17:00:36.999Z</time></trkpt><trkpt lat="43.160939855573965" lon="12.308966431371324"><ele>259.0</ele><time>2026-04-26T17:00:37.999Z</time></trkpt><trkpt lat="43.160699113778264" lon="12.308745845446241"><ele>257.0</ele><time>2026-04-26T17:00:38.999Z</time></trkpt><trkpt lat="43.16045047048888" lon="12.30854412898778"><ele>255.0</ele><time>2026-04-26T17:00:39.999Z</time></trkpt><trkpt lat="43.160203543825375" lon="12.308371049305373"><ele>255.0</ele><time>2026-04-26T17:00:40.999Z</time></trkpt><trkpt lat="43.15996340363801" lon="12.308218221477603"><ele>255.0</ele><time>2026-04-26T17:00:41.999Z</time></trkpt><trkpt lat="43.1597313026942" lon="12.308071242878603"><ele>254.0</ele><time>2026-04-26T17:00:42.999Z</time></trkpt><trkpt lat="43.159502305403876" lon="12.307914369576007"><ele>253.0</ele><time>2026-04-26T17:00:43.999Z</time></trkpt><trkpt lat="43.1592775114724" lon="12.307752039345967"><ele>253.0</ele><time>2026-04-26T17:00:44.999Z</time></trkpt><trkpt lat="43.159066230669296" lon="12.3075730958857"><ele>253.0</ele><time>2026-04-26T17:00:45.999Z</time></trkpt><trkpt lat="43.15889193940373" lon="12.307340097615166"><ele>255.0</ele><time>2026-04-26T17:00:46.999Z</time></trkpt><trkpt lat="43.15872514070866" lon="12.307087478910958"><ele>257.0</ele><time>2026-04-26T17:00:47.999Z</time></trkpt><trkpt lat="43.158556305617516" lon="12.306827064273001"><ele>257.0</ele><time>2026-04-26T17:00:48.999Z</time></trkpt><trkpt lat="43.15842876986609" lon="12.306518640760613"><ele>257.0</ele><time>2026-04-26T17:00:49.999Z</time></trkpt><trkpt lat="43.158301829159726" lon="12.306204900004964"><ele>260.0</ele><time>2026-04-26T17:00:50.999Z</time></trkpt><trkpt lat="43.15817332112431" lon="12.30588731953161"><ele>263.0</ele><time>2026-04-26T17:00:51.999Z</time></trkpt><trkpt lat="43.15804662227303" lon="12.305562505086137"><ele>263.0</ele><time>2026-04-26T17:00:52.999Z</time></trkpt><trkpt lat="43.157906455974306" lon="12.305245121341951"><ele>263.0</ele><time>2026-04-26T17:00:53.999Z</time></trkpt><trkpt lat="43.157752797540326" lon="12.304935799854595"><ele>259.5</ele><time>2026-04-26T17:00:54.999Z</time></trkpt><trkpt lat="43.157582627001986" lon="12.304635951948628"><ele>256.0</ele><time>2026-04-26T17:00:55.999Z</time></trkpt><trkpt lat="43.15739687502979" lon="12.304350291110465"><ele>256.5</ele><time>2026-04-26T17:00:56.999Z</time></trkpt><trkpt lat="43.15720027101646" lon="12.304069987072468"><ele>257.0</ele><time>2026-04-26T17:00:57.999Z</time></trkpt><trkpt lat="43.15699934211349" lon="12.303793720108702"><ele>257.0</ele><time>2026-04-26T17:00:58.999Z</time></trkpt><trkpt lat="43.156798623798345" lon="12.303513288304883"><ele>257.0</ele><time>2026-04-26T17:00:59.999Z</time></trkpt><trkpt lat="43.156609995893" lon="12.30321450619705"><ele>262.5</ele><time>2026-04-26T17:01:00.999Z</time></trkpt><trkpt lat="43.15643357495311" lon="12.302898395792035"><ele>268.0</ele><time>2026-04-26T17:01:01.999Z</time></trkpt><trkpt lat="43.15627595475448" lon="12.302560941886918"><ele>263.5</ele><time>2026-04-26T17:01:02.999Z</time></trkpt><trkpt lat="43.15613405987468" lon="12.30220883940721"><ele>259.0</ele><time>2026-04-26T17:01:03.999Z</time></trkpt><trkpt lat="43.156000328828135" lon="12.301847220799292"><ele>259.0</ele><time>2026-04-26T17:01:04.999Z</time></trkpt><trkpt lat="43.1558744444855" lon="12.301479086229373"><ele>259.0</ele><time>2026-04-26T17:01:05.999Z</time></trkpt><trkpt lat="43.155764099313245" lon="12.301100132071088"><ele>257.5</ele><time>2026-04-26T17:01:06.999Z</time></trkpt><trkpt lat="43.155675355799424" lon="12.300706886343631"><ele>256.0</ele><time>2026-04-26T17:01:07.998Z</time></trkpt><trkpt lat="43.15560659344903" lon="12.300304925340814"><ele>256.0</ele><time>2026-04-26T17:01:08.998Z</time></trkpt><trkpt lat="43.15554849495052" lon="12.299900031852756"><ele>256.0</ele><time>2026-04-26T17:01:09.998Z</time></trkpt><trkpt lat="43.15548253869795" lon="12.299495661214841"><ele>253.5</ele><time>2026-04-26T17:01:10.998Z</time></trkpt><trkpt lat="43.15541704248539" lon="12.299091557385529"><ele>251.0</ele><time>2026-04-26T17:01:11.998Z</time></trkpt><trkpt lat="43.15534701515989" lon="12.298689013779502"><ele>250.5</ele><time>2026-04-26T17:01:12.998Z</time></trkpt><trkpt lat="43.15525908821518" lon="12.298293378008289"><ele>250.0</ele><time>2026-04-26T17:01:13.998Z</time></trkpt><trkpt lat="43.155162532917345" lon="12.29789726856501"><ele>250.0</ele><time>2026-04-26T17:01:14.998Z</time></trkpt><trkpt lat="43.15506118802675" lon="12.297502104083238"><ele>250.0</ele><time>2026-04-26T17:01:15.998Z</time></trkpt><trkpt lat="43.15495531608675" lon="12.297104204298332"><ele>249.5</ele><time>2026-04-26T17:01:16.998Z</time></trkpt><trkpt lat="43.15484561005709" lon="12.29670475820456"><ele>249.0</ele><time>2026-04-26T17:01:17.998Z</time></trkpt><trkpt lat="43.15473275670833" lon="12.29630340683629"><ele>248.5</ele><time>2026-04-26T17:01:18.998Z</time></trkpt><trkpt lat="43.154614531503775" lon="12.295902378735349"><ele>248.0</ele><time>2026-04-26T17:01:19.998Z</time></trkpt><trkpt lat="43.154489143691634" lon="12.295502501765938"><ele>248.0</ele><time>2026-04-26T17:01:20.998Z</time></trkpt><trkpt lat="43.15436087709863" lon="12.295107632491446"><ele>248.0</ele><time>2026-04-26T17:01:21.998Z</time></trkpt><trkpt lat="43.15423405996385" lon="12.294734535222824"><ele>247.5</ele><time>2026-04-26T17:01:22.998Z</time></trkpt><trkpt lat="43.154110294918" lon="12.29438426381845"><ele>247.0</ele><time>2026-04-26T17:01:24Z</time></trkpt><trkpt lat="43.153989328643966" lon="12.294038707385216"><ele>247.0</ele><time>2026-04-26T17:01:25Z</time></trkpt><trkpt lat="43.15386332345587" lon="12.293683729464744"><ele>247.0</ele><time>2026-04-26T17:01:26Z</time></trkpt><trkpt lat="43.15373399074701" lon="12.293330103673721"><ele>248.5</ele><time>2026-04-26T17:01:27Z</time></trkpt><trkpt lat="43.15360265039421" lon="12.292975510290306"><ele>250.0</ele><time>2026-04-26T17:01:28Z</time></trkpt><trkpt lat="43.1534865797457" lon="12.292609566387117"><ele>250.0</ele><time>2026-04-26T17:01:29Z</time></trkpt><trkpt lat="43.153347012555656" lon="12.292257341160232"><ele>250.0</ele><time>2026-04-26T17:01:30Z</time></trkpt><trkpt lat="43.15322740320113" lon="12.291888255894287"><ele>248.5</ele><time>2026-04-26T17:01:31Z</time></trkpt><trkpt lat="43.153102668724266" lon="12.29152034882874"><ele>247.0</ele><time>2026-04-26T17:01:32Z</time></trkpt><trkpt lat="43.15297292042287" lon="12.291151967518697"><ele>247.0</ele><time>2026-04-26T17:01:33Z</time></trkpt><trkpt lat="43.15284208148878" lon="12.290781257205243"><ele>247.0</ele><time>2026-04-26T17:01:34Z</time></trkpt><trkpt lat="43.152711096031986" lon="12.290411437193145"><ele>248.0</ele><time>2026-04-26T17:01:35Z</time></trkpt><trkpt lat="43.15258086514752" lon="12.290042242604427"><ele>249.0</ele><time>2026-04-26T17:01:36Z</time></trkpt><trkpt lat="43.15245093647712" lon="12.289670518564332"><ele>247.5</ele><time>2026-04-26T17:01:37Z</time></trkpt><trkpt lat="43.152318893665004" lon="12.289297118732733"><ele>246.0</ele><time>2026-04-26T17:01:38Z</time></trkpt><trkpt lat="43.15219037871691" lon="12.288926670542605"><ele>245.5</ele><time>2026-04-26T17:01:39Z</time></trkpt><trkpt lat="43.15207005296943" lon="12.288578325534152"><ele>245.0</ele><time>2026-04-26T17:01:40Z</time></trkpt><trkpt lat="43.15195412366216" lon="12.28824967738608"><ele>246.0</ele><time>2026-04-26T17:01:41Z</time></trkpt><trkpt lat="43.15184212454389" lon="12.287938295644842"><ele>247.0</ele><time>2026-04-26T17:01:42Z</time></trkpt><trkpt lat="43.151721488000916" lon="12.287650042353672"><ele>247.0</ele><time>2026-04-26T17:01:43Z</time></trkpt><trkpt lat="43.1515822320881" lon="12.287383821984598"><ele>247.0</ele><time>2026-04-26T17:01:44Z</time></trkpt><trkpt lat="43.15143000965805" lon="12.28714804587789"><ele>246.0</ele><time>2026-04-26T17:01:45Z</time></trkpt><trkpt lat="43.15127372247683" lon="12.286936270474618"><ele>245.0</ele><time>2026-04-26T17:01:46Z</time></trkpt><trkpt lat="43.1511122429619" lon="12.286753126128001"><ele>244.0</ele><time>2026-04-26T17:01:47Z</time></trkpt><trkpt lat="43.1509505887211" lon="12.28659914912232"><ele>244.0</ele><time>2026-04-26T17:01:48Z</time></trkpt><trkpt lat="43.1507953504376" lon="12.286463816909315"><ele>244.0</ele><time>2026-04-26T17:01:49Z</time></trkpt><trkpt lat="43.1506452973325" lon="12.2863493065302"><ele>244.0</ele><time>2026-04-26T17:01:50Z</time></trkpt><trkpt lat="43.15049816572898" lon="12.286252421931298"><ele>244.0</ele><time>2026-04-26T17:01:51Z</time></trkpt><trkpt lat="43.15033708754204" lon="12.286171379154563"><ele>244.0</ele><time>2026-04-26T17:01:52Z</time></trkpt><trkpt lat="43.15015886985327" lon="12.286102433167299"><ele>244.0</ele><time>2026-04-26T17:01:53Z</time></trkpt><trkpt lat="43.14996623347768" lon="12.286041043633675"><ele>244.0</ele><time>2026-04-26T17:01:54Z</time></trkpt><trkpt lat="43.149759232046435" lon="12.286001961388493"><ele>244.0</ele><time>2026-04-26T17:01:55Z</time></trkpt><trkpt lat="43.14954181066345" lon="12.285980327462397"><ele>244.0</ele><time>2026-04-26T17:01:56Z</time></trkpt><trkpt lat="43.14931159330874" lon="12.285952210158541"><ele>244.0</ele><time>2026-04-26T17:01:57Z</time></trkpt><trkpt lat="43.149075967474076" lon="12.285917262516838"><ele>244.0</ele><time>2026-04-26T17:01:58Z</time></trkpt><trkpt lat="43.14883552521002" lon="12.285884559971896"><ele>243.5</ele><time>2026-04-26T17:01:59Z</time></trkpt><trkpt lat="43.148589262907066" lon="12.285847557029328"><ele>243.0</ele><time>2026-04-26T17:02:00Z</time></trkpt><trkpt lat="43.14833716577289" lon="12.285811587610944"><ele>243.0</ele><time>2026-04-26T17:02:01Z</time></trkpt><trkpt lat="43.14808143248384" lon="12.285779429300202"><ele>243.0</ele><time>2026-04-26T17:02:02Z</time></trkpt><trkpt lat="43.14782863766673" lon="12.28574351623646"><ele>243.0</ele><time>2026-04-26T17:02:03Z</time></trkpt><trkpt lat="43.1475861006314" lon="12.285706234197843"><ele>243.0</ele><time>2026-04-26T17:02:04Z</time></trkpt><trkpt lat="43.14735133440269" lon="12.285673899389248"><ele>243.5</ele><time>2026-04-26T17:02:05Z</time></trkpt><trkpt lat="43.14711190071518" lon="12.285669510658199"><ele>244.0</ele><time>2026-04-26T17:02:06Z</time></trkpt><trkpt lat="43.14686711724207" lon="12.285697216419829"><ele>244.0</ele><time>2026-04-26T17:02:07Z</time></trkpt><trkpt lat="43.14662763711991" lon="12.285745048512577"><ele>244.0</ele><time>2026-04-26T17:02:08Z</time></trkpt><trkpt lat="43.14640173022886" lon="12.285785827586286"><ele>243.33333333333331</ele><time>2026-04-26T17:02:09Z</time></trkpt><trkpt lat="43.146183288694004" lon="12.285820777671816"><ele>242.66666666666669</ele><time>2026-04-26T17:02:10Z</time></trkpt><trkpt lat="43.145973719043305" lon="12.285844012698561"><ele>242.0</ele><time>2026-04-26T17:02:11Z</time></trkpt><trkpt lat="43.14576756869709" lon="12.28582998618863"><ele>242.33333333333334</ele><time>2026-04-26T17:02:12Z</time></trkpt><trkpt lat="43.14556389517566" lon="12.285764823354013"><ele>242.66666666666669</ele><time>2026-04-26T17:02:13Z</time></trkpt><trkpt lat="43.14537783598332" lon="12.28564421789157"><ele>243.0</ele><time>2026-04-26T17:02:13.999Z</time></trkpt><trkpt lat="43.145215958133136" lon="12.285477157460372"><ele>242.33333333333331</ele><time>2026-04-26T17:02:14.999Z</time></trkpt><trkpt lat="43.14508308551122" lon="12.285266394710014"><ele>241.66666666666666</ele><time>2026-04-26T17:02:15.999Z</time></trkpt><trkpt lat="43.144983241494145" lon="12.285016289622273"><ele>241.0</ele><time>2026-04-26T17:02:16.999Z</time></trkpt><trkpt lat="43.14492350194832" lon="12.284740990201513"><ele>241.0</ele><time>2026-04-26T17:02:17.999Z</time></trkpt><trkpt lat="43.144903968632086" lon="12.284448419760905"><ele>241.0</ele><time>2026-04-26T17:02:18.999Z</time></trkpt><trkpt lat="43.14492502184407" lon="12.284149647092075"><ele>241.0</ele><time>2026-04-26T17:02:19.999Z</time></trkpt><trkpt lat="43.14501260161677" lon="12.283858023570527"><ele>241.0</ele><time>2026-04-26T17:02:20.999Z</time></trkpt><trkpt lat="43.1450865335732" lon="12.283548861076031"><ele>241.0</ele><time>2026-04-26T17:02:21.999Z</time></trkpt><trkpt lat="43.145168577764736" lon="12.283259503944805"><ele>240.66666666666666</ele><time>2026-04-26T17:02:22.999Z</time></trkpt><trkpt lat="43.145226974658435" lon="12.282988341686327"><ele>240.33333333333331</ele><time>2026-04-26T17:02:23.999Z</time></trkpt><trkpt lat="43.14525304564675" lon="12.28272072806499"><ele>240.0</ele><time>2026-04-26T17:02:24.999Z</time></trkpt><trkpt lat="43.14524254245582" lon="12.282449902167835"><ele>239.33333333333331</ele><time>2026-04-26T17:02:25.999Z</time></trkpt><trkpt lat="43.14518734278132" lon="12.282183963040067"><ele>238.66666666666666</ele><time>2026-04-26T17:02:26.999Z</time></trkpt><trkpt lat="43.14508897969245" lon="12.28192852435319"><ele>238.0</ele><time>2026-04-26T17:02:27.999Z</time></trkpt><trkpt lat="43.1449498542111" lon="12.281703086444441"><ele>238.0</ele><time>2026-04-26T17:02:28.999Z</time></trkpt><trkpt lat="43.144781203369966" lon="12.281496563609178"><ele>238.0</ele><time>2026-04-26T17:02:29.999Z</time></trkpt><trkpt lat="43.144606470566984" lon="12.281289326580252"><ele>238.0</ele><time>2026-04-26T17:02:30.999Z</time></trkpt><trkpt lat="43.144429389528554" lon="12.281071538409444"><ele>238.0</ele><time>2026-04-26T17:02:31.999Z</time></trkpt><trkpt lat="43.144246982951756" lon="12.280848155816058"><ele>238.0</ele><time>2026-04-26T17:02:32.999Z</time></trkpt><trkpt lat="43.14406105130985" lon="12.280617155404173"><ele>238.0</ele><time>2026-04-26T17:02:33.999Z</time></trkpt><trkpt lat="43.14387220515295" lon="12.280381107887383"><ele>238.5</ele><time>2026-04-26T17:02:34.999Z</time></trkpt><trkpt lat="43.14367780076493" lon="12.280142943039046"><ele>239.0</ele><time>2026-04-26T17:02:35.999Z</time></trkpt><trkpt lat="43.14347663463713" lon="12.279904704132651"><ele>238.5</ele><time>2026-04-26T17:02:36.999Z</time></trkpt><trkpt lat="43.14326839756689" lon="12.27967086442072"><ele>238.0</ele><time>2026-04-26T17:02:37.999Z</time></trkpt><trkpt lat="43.143055633776896" lon="12.279439420462277"><ele>238.0</ele><time>2026-04-26T17:02:38.999Z</time></trkpt><trkpt lat="43.1428454911564" lon="12.279195586778085"><ele>238.0</ele><time>2026-04-26T17:02:39.999Z</time></trkpt><trkpt lat="43.14264345405733" lon="12.2789355322853"><ele>238.5</ele><time>2026-04-26T17:02:40.999Z</time></trkpt><trkpt lat="43.14244650998258" lon="12.278662278083171"><ele>239.0</ele><time>2026-04-26T17:02:41.999Z</time></trkpt><trkpt lat="43.14224503602644" lon="12.27838722050896"><ele>239.5</ele><time>2026-04-26T17:02:42.999Z</time></trkpt><trkpt lat="43.142039484213875" lon="12.27811822176313"><ele>240.0</ele><time>2026-04-26T17:02:43.999Z</time></trkpt><trkpt lat="43.14182975298648" lon="12.277852451476859"><ele>240.0</ele><time>2026-04-26T17:02:44.999Z</time></trkpt><trkpt lat="43.14161111312694" lon="12.277595604349642"><ele>240.0</ele><time>2026-04-26T17:02:45.999Z</time></trkpt><trkpt lat="43.14138358227714" lon="12.277347596832278"><ele>239.0</ele><time>2026-04-26T17:02:46.999Z</time></trkpt><trkpt lat="43.14114881616309" lon="12.277103639548068"><ele>238.0</ele><time>2026-04-26T17:02:47.999Z</time></trkpt><trkpt lat="43.140911296004795" lon="12.276860948572939"><ele>238.0</ele><time>2026-04-26T17:02:48.999Z</time></trkpt><trkpt lat="43.14067251976073" lon="12.276614586640733"><ele>238.0</ele><time>2026-04-26T17:02:49.999Z</time></trkpt><trkpt lat="43.14043610625688" lon="12.276366383280852"><ele>238.5</ele><time>2026-04-26T17:02:50.999Z</time></trkpt><trkpt lat="43.1402039899403" lon="12.276125654311357"><ele>239.0</ele><time>2026-04-26T17:02:51.999Z</time></trkpt><trkpt lat="43.139985047065046" lon="12.275899260104232"><ele>238.5</ele><time>2026-04-26T17:02:52.999Z</time></trkpt><trkpt lat="43.13977561862487" lon="12.275686191596982"><ele>238.0</ele><time>2026-04-26T17:02:53.999Z</time></trkpt><trkpt lat="43.13957482258355" lon="12.275488905075454"><ele>237.66666666666666</ele><time>2026-04-26T17:02:54.999Z</time></trkpt><trkpt lat="43.13938806573398" lon="12.275301533325045"><ele>237.33333333333331</ele><time>2026-04-26T17:02:55.999Z</time></trkpt><trkpt lat="43.139235125071096" lon="12.275104952910464"><ele>237.0</ele><time>2026-04-26T17:02:56.999Z</time></trkpt><trkpt lat="43.13911795896566" lon="12.27488394377155"><ele>237.33333333333331</ele><time>2026-04-26T17:02:57.999Z</time></trkpt><trkpt lat="43.1390432987886" lon="12.274631232167605"><ele>237.66666666666666</ele><time>2026-04-26T17:02:58.999Z</time></trkpt><trkpt lat="43.13900535618088" lon="12.27434201201308"><ele>238.0</ele><time>2026-04-26T17:02:59.999Z</time></trkpt><trkpt lat="43.139043737902675" lon="12.274045783687422"><ele>238.66666666666666</ele><time>2026-04-26T17:03:00.999Z</time></trkpt><trkpt lat="43.13908493573701" lon="12.27374436328746"><ele>239.33333333333331</ele><time>2026-04-26T17:03:01.999Z</time></trkpt><trkpt lat="43.13913125560348" lon="12.273448330884166"><ele>240.0</ele><time>2026-04-26T17:03:02.999Z</time></trkpt><trkpt lat="43.13917467823169" lon="12.273169132662257"><ele>239.33333333333331</ele><time>2026-04-26T17:03:03.999Z</time></trkpt><trkpt lat="43.139214115487" lon="12.272908305505618"><ele>238.66666666666666</ele><time>2026-04-26T17:03:04.999Z</time></trkpt><trkpt lat="43.13925052822385" lon="12.27266447302139"><ele>238.0</ele><time>2026-04-26T17:03:05.999Z</time></trkpt><trkpt lat="43.1392852171455" lon="12.27243492610229"><ele>237.5</ele><time>2026-04-26T17:03:06.999Z</time></trkpt><trkpt lat="43.13931750409297" lon="12.272221691848236"><ele>237.0</ele><time>2026-04-26T17:03:07.999Z</time></trkpt><trkpt lat="43.13934716161715" lon="12.2720259017273"><ele>236.5</ele><time>2026-04-26T17:03:08.999Z</time></trkpt><trkpt lat="43.139374197932234" lon="12.271836574352577"><ele>236.0</ele><time>2026-04-26T17:03:09.999Z</time></trkpt><trkpt lat="43.139396703212206" lon="12.27166430658839"><ele>236.0</ele><time>2026-04-26T17:03:10.999Z</time></trkpt><trkpt lat="43.13940441899497" lon="12.271495545932536"><ele>236.0</ele><time>2026-04-26T17:03:11.999Z</time></trkpt><trkpt lat="43.13942967050353" lon="12.271327341095278"><ele>236.0</ele><time>2026-04-26T17:03:12.999Z</time></trkpt><trkpt lat="43.139455399670034" lon="12.271153031880488"><ele>236.0</ele><time>2026-04-26T17:03:13.999Z</time></trkpt><trkpt lat="43.13949589248179" lon="12.270970884923019"><ele>235.66666666666669</ele><time>2026-04-26T17:03:14.999Z</time></trkpt><trkpt lat="43.13951039321214" lon="12.270751696489974"><ele>235.33333333333331</ele><time>2026-04-26T17:03:15.999Z</time></trkpt><trkpt lat="43.13949996201615" lon="12.270510771744323"><ele>235.0</ele><time>2026-04-26T17:03:16.999Z</time></trkpt><trkpt lat="43.139447742022334" lon="12.270269548039453"><ele>235.66666666666666</ele><time>2026-04-26T17:03:17.998Z</time></trkpt><trkpt lat="43.13937739678911" lon="12.270031121156611"><ele>236.33333333333331</ele><time>2026-04-26T17:03:18.998Z</time></trkpt><trkpt lat="43.13927871390393" lon="12.26982302434835"><ele>237.0</ele><time>2026-04-26T17:03:19.998Z</time></trkpt><trkpt lat="43.1391577936823" lon="12.26965858173805"><ele>236.66666666666669</ele><time>2026-04-26T17:03:20.998Z</time></trkpt><trkpt lat="43.139030350694334" lon="12.269529783702371"><ele>236.33333333333334</ele><time>2026-04-26T17:03:21.998Z</time></trkpt><trkpt lat="43.138902607367356" lon="12.269419589539819"><ele>236.0</ele><time>2026-04-26T17:03:22.998Z</time></trkpt><trkpt lat="43.13877271227102" lon="12.269284597718686"><ele>236.0</ele><time>2026-04-26T17:03:23.998Z</time></trkpt><trkpt lat="43.13865270303382" lon="12.269149671177768"><ele>236.0</ele><time>2026-04-26T17:03:24.998Z</time></trkpt><trkpt lat="43.138525472888496" lon="12.268990442873658"><ele>236.0</ele><time>2026-04-26T17:03:25.998Z</time></trkpt><trkpt lat="43.13839205091729" lon="12.268816540910361"><ele>236.0</ele><time>2026-04-26T17:03:26.998Z</time></trkpt><trkpt lat="43.13825473801213" lon="12.268622883802987"><ele>236.0</ele><time>2026-04-26T17:03:27.998Z</time></trkpt><trkpt lat="43.13812268090651" lon="12.268407087019455"><ele>236.0</ele><time>2026-04-26T17:03:28.998Z</time></trkpt><trkpt lat="43.13799590257472" lon="12.268168276698399"><ele>236.5</ele><time>2026-04-26T17:03:30Z</time></trkpt><trkpt lat="43.13786646554093" lon="12.267920309137615"><ele>237.0</ele><time>2026-04-26T17:03:31Z</time></trkpt><trkpt lat="43.13773164425043" lon="12.267664625038833"><ele>237.0</ele><time>2026-04-26T17:03:32Z</time></trkpt><trkpt lat="43.137592532809514" lon="12.267402160885071"><ele>237.0</ele><time>2026-04-26T17:03:33Z</time></trkpt><trkpt lat="43.137449986025175" lon="12.267130160990828"><ele>235.5</ele><time>2026-04-26T17:03:34Z</time></trkpt><trkpt lat="43.13730606956721" lon="12.26685062193476"><ele>234.0</ele><time>2026-04-26T17:03:35Z</time></trkpt><trkpt lat="43.137159111996176" lon="12.266564670601717"><ele>234.0</ele><time>2026-04-26T17:03:36Z</time></trkpt><trkpt lat="43.13700764125389" lon="12.266273538335184"><ele>234.0</ele><time>2026-04-26T17:03:37Z</time></trkpt><trkpt lat="43.13685030958996" lon="12.265981555926505"><ele>234.0</ele><time>2026-04-26T17:03:38Z</time></trkpt><trkpt lat="43.136693090538365" lon="12.265684747514344"><ele>234.0</ele><time>2026-04-26T17:03:39Z</time></trkpt><trkpt lat="43.13653475712033" lon="12.26538046590643"><ele>235.0</ele><time>2026-04-26T17:03:40Z</time></trkpt><trkpt lat="43.136379016724874" lon="12.265087692817854"><ele>236.0</ele><time>2026-04-26T17:03:41Z</time></trkpt><trkpt lat="43.13623166905626" lon="12.264814629948788"><ele>234.5</ele><time>2026-04-26T17:03:42Z</time></trkpt><trkpt lat="43.13609384091618" lon="12.264553536675438"><ele>233.0</ele><time>2026-04-26T17:03:43Z</time></trkpt><trkpt lat="43.135968276018914" lon="12.264314260589076"><ele>233.0</ele><time>2026-04-26T17:03:44Z</time></trkpt><trkpt lat="43.135856452073554" lon="12.264103295433742"><ele>233.0</ele><time>2026-04-26T17:03:45Z</time></trkpt><trkpt lat="43.13575561988345" lon="12.263918981980854"><ele>233.0</ele><time>2026-04-26T17:03:46Z</time></trkpt><trkpt lat="43.13567133643278" lon="12.263756180403243"><ele>233.25</ele><time>2026-04-26T17:03:47Z</time></trkpt><trkpt lat="43.13562882524927" lon="12.263589271571396"><ele>233.5</ele><time>2026-04-26T17:03:48Z</time></trkpt><trkpt lat="43.13562969792323" lon="12.26341139147778"><ele>233.75</ele><time>2026-04-26T17:03:49Z</time></trkpt><trkpt lat="43.13563738733651" lon="12.263206025789103"><ele>234.0</ele><time>2026-04-26T17:03:50Z</time></trkpt><trkpt lat="43.13559262676657" lon="12.263005567036469"><ele>234.0</ele><time>2026-04-26T17:03:51Z</time></trkpt><trkpt lat="43.13550542700127" lon="12.26282969249483"><ele>234.0</ele><time>2026-04-26T17:03:52Z</time></trkpt><trkpt lat="43.13537998084591" lon="12.262692472463632"><ele>234.0</ele><time>2026-04-26T17:03:53Z</time></trkpt><trkpt lat="43.13523255918231" lon="12.262601145614651"><ele>234.0</ele><time>2026-04-26T17:03:54Z</time></trkpt><trkpt lat="43.135091516397424" lon="12.262597951939924"><ele>234.0</ele><time>2026-04-26T17:03:55Z</time></trkpt><trkpt lat="43.134978934351516" lon="12.26240968313327"><ele>234.0</ele><time>2026-04-26T17:03:56Z</time></trkpt><trkpt lat="43.13487802484327" lon="12.262229719218164"><ele>233.66666666666669</ele><time>2026-04-26T17:03:57Z</time></trkpt><trkpt lat="43.13478219202689" lon="12.262021807366448"><ele>233.33333333333334</ele><time>2026-04-26T17:03:58Z</time></trkpt><trkpt lat="43.134674228984906" lon="12.261811770367"><ele>233.0</ele><time>2026-04-26T17:03:59Z</time></trkpt><trkpt lat="43.13456501508731" lon="12.261582806099849"><ele>232.66666666666669</ele><time>2026-04-26T17:04:00Z</time></trkpt><trkpt lat="43.134436697941524" lon="12.261352954321792"><ele>232.33333333333331</ele><time>2026-04-26T17:04:01Z</time></trkpt><trkpt lat="43.134301839618445" lon="12.261115117123914"><ele>232.0</ele><time>2026-04-26T17:04:02Z</time></trkpt><trkpt lat="43.13423355257537" lon="12.260801779203698"><ele>231.5</ele><time>2026-04-26T17:04:03Z</time></trkpt><trkpt lat="43.134153004702256" lon="12.260502030408212"><ele>231.0</ele><time>2026-04-26T17:04:04Z</time></trkpt><trkpt lat="43.134093947953765" lon="12.260187231447725"><ele>231.0</ele><time>2026-04-26T17:04:05Z</time></trkpt><trkpt lat="43.13406172149587" lon="12.259863236970107"><ele>231.0</ele><time>2026-04-26T17:04:06Z</time></trkpt><trkpt lat="43.13405672736468" lon="12.259544827221507"><ele>231.66666666666669</ele><time>2026-04-26T17:04:07Z</time></trkpt><trkpt lat="43.134074492594536" lon="12.25924615725525"><ele>232.33333333333334</ele><time>2026-04-26T17:04:08Z</time></trkpt><trkpt lat="43.134115080230515" lon="12.258946974782543"><ele>233.0</ele><time>2026-04-26T17:04:09Z</time></trkpt><trkpt lat="43.134181581931564" lon="12.258647009792854"><ele>233.0</ele><time>2026-04-26T17:04:10Z</time></trkpt><trkpt lat="43.13426498762533" lon="12.258352317731472"><ele>233.0</ele><time>2026-04-26T17:04:11Z</time></trkpt><trkpt lat="43.13433598654859" lon="12.258075119961239"><ele>233.0</ele><time>2026-04-26T17:04:12Z</time></trkpt><trkpt lat="43.134403778489336" lon="12.257801297042883"><ele>233.33333333333334</ele><time>2026-04-26T17:04:13Z</time></trkpt><trkpt lat="43.13447439487863" lon="12.257527208626199"><ele>233.66666666666669</ele><time>2026-04-26T17:04:14Z</time></trkpt><trkpt lat="43.1345423271074" lon="12.257262003398157"><ele>234.0</ele><time>2026-04-26T17:04:15Z</time></trkpt><trkpt lat="43.1346076219946" lon="12.256985135232588"><ele>235.5</ele><time>2026-04-26T17:04:16Z</time></trkpt><trkpt lat="43.13467117484947" lon="12.256689451646983"><ele>237.0</ele><time>2026-04-26T17:04:17Z</time></trkpt><trkpt lat="43.13474298313497" lon="12.25638518011117"><ele>237.0</ele><time>2026-04-26T17:04:17.999Z</time></trkpt><trkpt lat="43.1348228427874" lon="12.25607185942322"><ele>237.0</ele><time>2026-04-26T17:04:18.999Z</time></trkpt><trkpt lat="43.134906651455985" lon="12.255748339238563"><ele>235.0</ele><time>2026-04-26T17:04:19.999Z</time></trkpt><trkpt lat="43.13499591862475" lon="12.255417143871274"><ele>233.0</ele><time>2026-04-26T17:04:20.999Z</time></trkpt><trkpt lat="43.135090521378935" lon="12.255082766434883"><ele>233.0</ele><time>2026-04-26T17:04:21.999Z</time></trkpt><trkpt lat="43.13518448477088" lon="12.254738549946651"><ele>233.0</ele><time>2026-04-26T17:04:22.999Z</time></trkpt><trkpt lat="43.13527715093812" lon="12.25438633975365"><ele>233.0</ele><time>2026-04-26T17:04:23.999Z</time></trkpt><trkpt lat="43.13537370717226" lon="12.254028740803571"><ele>233.0</ele><time>2026-04-26T17:04:24.999Z</time></trkpt><trkpt lat="43.13546828282448" lon="12.253679463343966"><ele>232.5</ele><time>2026-04-26T17:04:25.999Z</time></trkpt><trkpt lat="43.135558197438705" lon="12.253351853499115"><ele>232.0</ele><time>2026-04-26T17:04:26.999Z</time></trkpt><trkpt lat="43.13564425275459" lon="12.253031384718089"><ele>231.5</ele><time>2026-04-26T17:04:27.999Z</time></trkpt><trkpt lat="43.13572854473473" lon="12.252718905650834"><ele>231.0</ele><time>2026-04-26T17:04:28.999Z</time></trkpt><trkpt lat="43.13581429008832" lon="12.252402513308068"><ele>230.5</ele><time>2026-04-26T17:04:29.999Z</time></trkpt><trkpt lat="43.13590083821026" lon="12.252087287664766"><ele>230.0</ele><time>2026-04-26T17:04:30.999Z</time></trkpt><trkpt lat="43.13598881084516" lon="12.251770789326619"><ele>230.0</ele><time>2026-04-26T17:04:31.999Z</time></trkpt><trkpt lat="43.13607548364013" lon="12.25145277028024"><ele>230.0</ele><time>2026-04-26T17:04:32.999Z</time></trkpt><trkpt lat="43.136163257474784" lon="12.251134908730064"><ele>230.0</ele><time>2026-04-26T17:04:33.999Z</time></trkpt><trkpt lat="43.136250307882534" lon="12.250819597473019"><ele>230.0</ele><time>2026-04-26T17:04:34.999Z</time></trkpt><trkpt lat="43.136338040946335" lon="12.25050388689321"><ele>229.5</ele><time>2026-04-26T17:04:35.999Z</time></trkpt><trkpt lat="43.13642312472097" lon="12.250185154934332"><ele>229.0</ele><time>2026-04-26T17:04:36.999Z</time></trkpt><trkpt lat="43.136509518999006" lon="12.249868706738331"><ele>229.0</ele><time>2026-04-26T17:04:37.999Z</time></trkpt><trkpt lat="43.136597050219116" lon="12.249544440580873"><ele>229.0</ele><time>2026-04-26T17:04:38.999Z</time></trkpt><trkpt lat="43.13668507278777" lon="12.249209381425246"><ele>229.0</ele><time>2026-04-26T17:04:39.999Z</time></trkpt><trkpt lat="43.13677421215253" lon="12.248866223657702"><ele>229.0</ele><time>2026-04-26T17:04:40.999Z</time></trkpt><trkpt lat="43.136870513014145" lon="12.248519407523473"><ele>229.0</ele><time>2026-04-26T17:04:41.999Z</time></trkpt><trkpt lat="43.136969854117545" lon="12.248168509057257"><ele>229.0</ele><time>2026-04-26T17:04:42.999Z</time></trkpt><trkpt lat="43.137068221916515" lon="12.2478122073883"><ele>230.0</ele><time>2026-04-26T17:04:43.999Z</time></trkpt><trkpt lat="43.13716457113797" lon="12.247449711659552"><ele>231.0</ele><time>2026-04-26T17:04:44.999Z</time></trkpt><trkpt lat="43.13726417018184" lon="12.247080443870868"><ele>231.5</ele><time>2026-04-26T17:04:45.999Z</time></trkpt><trkpt lat="43.13736225921189" lon="12.246711312682184"><ele>232.0</ele><time>2026-04-26T17:04:46.999Z</time></trkpt><trkpt lat="43.13746332584491" lon="12.24634229702704"><ele>232.0</ele><time>2026-04-26T17:04:47.999Z</time></trkpt><trkpt lat="43.13756120211727" lon="12.245968378830284"><ele>232.0</ele><time>2026-04-26T17:04:48.999Z</time></trkpt><trkpt lat="43.13766285883591" lon="12.245590383004382"><ele>232.0</ele><time>2026-04-26T17:04:49.999Z</time></trkpt><trkpt lat="43.137772191513235" lon="12.24521279913498"><ele>232.0</ele><time>2026-04-26T17:04:50.999Z</time></trkpt><trkpt lat="43.13787427655953" lon="12.244834812281907"><ele>232.0</ele><time>2026-04-26T17:04:51.999Z</time></trkpt><trkpt lat="43.13798053671249" lon="12.244452875838945"><ele>232.0</ele><time>2026-04-26T17:04:52.999Z</time></trkpt><trkpt lat="43.138083009790705" lon="12.244073883296869"><ele>233.0</ele><time>2026-04-26T17:04:53.999Z</time></trkpt><trkpt lat="43.1381860914228" lon="12.24369025934116"><ele>234.0</ele><time>2026-04-26T17:04:54.999Z</time></trkpt><trkpt lat="43.138288155113166" lon="12.243307883071422"><ele>234.5</ele><time>2026-04-26T17:04:55.999Z</time></trkpt><trkpt lat="43.13839209562861" lon="12.242924147900686"><ele>235.0</ele><time>2026-04-26T17:04:56.999Z</time></trkpt><trkpt lat="43.13849916682873" lon="12.242538844487186"><ele>234.5</ele><time>2026-04-26T17:04:57.999Z</time></trkpt><trkpt lat="43.13860652082332" lon="12.242150676878877"><ele>234.0</ele><time>2026-04-26T17:04:58.999Z</time></trkpt><trkpt lat="43.138712166469105" lon="12.241762013436816"><ele>234.5</ele><time>2026-04-26T17:04:59.999Z</time></trkpt><trkpt lat="43.138818092564584" lon="12.24137502418691"><ele>235.0</ele><time>2026-04-26T17:05:00.999Z</time></trkpt><trkpt lat="43.13892404880638" lon="12.240982697408748"><ele>235.0</ele><time>2026-04-26T17:05:01.999Z</time></trkpt><trkpt lat="43.139028917142504" lon="12.240589239967258"><ele>235.0</ele><time>2026-04-26T17:05:02.999Z</time></trkpt><trkpt lat="43.13913321609208" lon="12.240198074582292"><ele>235.0</ele><time>2026-04-26T17:05:03.999Z</time></trkpt><trkpt lat="43.13923917136453" lon="12.239803671252332"><ele>235.0</ele><time>2026-04-26T17:05:04.999Z</time></trkpt><trkpt lat="43.13934593322134" lon="12.239408607201298"><ele>236.0</ele><time>2026-04-26T17:05:05.999Z</time></trkpt><trkpt lat="43.13945443466125" lon="12.239015218926406"><ele>237.0</ele><time>2026-04-26T17:05:06.999Z</time></trkpt><trkpt lat="43.13956299980829" lon="12.238620264658243"><ele>237.5</ele><time>2026-04-26T17:05:07.999Z</time></trkpt><trkpt lat="43.13967187398369" lon="12.23822320847483"><ele>238.0</ele><time>2026-04-26T17:05:08.999Z</time></trkpt><trkpt lat="43.139782359003476" lon="12.237823050241193"><ele>236.5</ele><time>2026-04-26T17:05:09.999Z</time></trkpt><trkpt lat="43.13988912328382" lon="12.237423689329905"><ele>235.0</ele><time>2026-04-26T17:05:10.999Z</time></trkpt><trkpt lat="43.13999205171293" lon="12.23702619245051"><ele>235.0</ele><time>2026-04-26T17:05:11.999Z</time></trkpt><trkpt lat="43.14009729529323" lon="12.236622081236698"><ele>235.0</ele><time>2026-04-26T17:05:12.999Z</time></trkpt><trkpt lat="43.140199741215206" lon="12.23622037904886"><ele>235.5</ele><time>2026-04-26T17:05:13.999Z</time></trkpt><trkpt lat="43.14030223916605" lon="12.235816170078154"><ele>236.0</ele><time>2026-04-26T17:05:14.999Z</time></trkpt><trkpt lat="43.14039594962213" lon="12.235411989750435"><ele>236.5</ele><time>2026-04-26T17:05:15.999Z</time></trkpt><trkpt lat="43.14049201017289" lon="12.235006977120303"><ele>237.0</ele><time>2026-04-26T17:05:16.999Z</time></trkpt><trkpt lat="43.140588593361436" lon="12.23460137765779"><ele>237.0</ele><time>2026-04-26T17:05:17.999Z</time></trkpt><trkpt lat="43.14068402447417" lon="12.234193830543846"><ele>237.0</ele><time>2026-04-26T17:05:18.999Z</time></trkpt><trkpt lat="43.1407735339197" lon="12.233783990286149"><ele>236.5</ele><time>2026-04-26T17:05:19.999Z</time></trkpt><trkpt lat="43.14085933889764" lon="12.233371072791408"><ele>236.0</ele><time>2026-04-26T17:05:20.998Z</time></trkpt><trkpt lat="43.14094252045488" lon="12.23295602763432"><ele>237.0</ele><time>2026-04-26T17:05:21.998Z</time></trkpt><trkpt lat="43.14102628433107" lon="12.232539491534812"><ele>238.0</ele><time>2026-04-26T17:05:22.998Z</time></trkpt><trkpt lat="43.141108618435226" lon="12.232126563419708"><ele>238.0</ele><time>2026-04-26T17:05:23.998Z</time></trkpt><trkpt lat="43.14119300717905" lon="12.231709521724724"><ele>238.0</ele><time>2026-04-26T17:05:24.998Z</time></trkpt><trkpt lat="43.14127749532746" lon="12.231290291016162"><ele>237.0</ele><time>2026-04-26T17:05:25.998Z</time></trkpt><trkpt lat="43.14136385802626" lon="12.230871987832744"><ele>236.0</ele><time>2026-04-26T17:05:26.998Z</time></trkpt><trkpt lat="43.14144779088622" lon="12.230454347789205"><ele>236.5</ele><time>2026-04-26T17:05:27.998Z</time></trkpt><trkpt lat="43.14153442783024" lon="12.230035472024218"><ele>237.0</ele><time>2026-04-26T17:05:28.998Z</time></trkpt><trkpt lat="43.14161974192981" lon="12.229616892856114"><ele>237.0</ele><time>2026-04-26T17:05:29.998Z</time></trkpt><trkpt lat="43.141699800528905" lon="12.229199543136364"><ele>237.0</ele><time>2026-04-26T17:05:30.998Z</time></trkpt><trkpt lat="43.14178425483287" lon="12.228780442924657"><ele>236.5</ele><time>2026-04-26T17:05:31.998Z</time></trkpt><trkpt lat="43.14186999631535" lon="12.228361185259201"><ele>236.0</ele><time>2026-04-26T17:05:32.998Z</time></trkpt><trkpt lat="43.141958226310685" lon="12.227948095543834"><ele>237.0</ele><time>2026-04-26T17:05:33.998Z</time></trkpt><trkpt lat="43.142052252252675" lon="12.227532103680806"><ele>238.0</ele><time>2026-04-26T17:05:34.998Z</time></trkpt><trkpt lat="43.14215824649036" lon="12.22712044635265"><ele>238.0</ele><time>2026-04-26T17:05:36Z</time></trkpt><trkpt lat="43.14227840880408" lon="12.226723925013944"><ele>238.0</ele><time>2026-04-26T17:05:37Z</time></trkpt><trkpt lat="43.142419698003714" lon="12.226336610246392"><ele>238.5</ele><time>2026-04-26T17:05:38Z</time></trkpt><trkpt lat="43.14257894080531" lon="12.225966512053915"><ele>239.0</ele><time>2026-04-26T17:05:39Z</time></trkpt><trkpt lat="43.14274911350194" lon="12.225608475636088"><ele>238.0</ele><time>2026-04-26T17:05:40Z</time></trkpt><trkpt lat="43.14293405534181" lon="12.225264928761588"><ele>237.0</ele><time>2026-04-26T17:05:41Z</time></trkpt><trkpt lat="43.143133045179916" lon="12.224934058407495"><ele>239.0</ele><time>2026-04-26T17:05:42Z</time></trkpt><trkpt lat="43.14333761186319" lon="12.224613820902364"><ele>241.0</ele><time>2026-04-26T17:05:43Z</time></trkpt><trkpt lat="43.143555809597984" lon="12.22430315844704"><ele>241.0</ele><time>2026-04-26T17:05:44Z</time></trkpt><trkpt lat="43.143782276011244" lon="12.22401054807651"><ele>241.0</ele><time>2026-04-26T17:05:45Z</time></trkpt><trkpt lat="43.14401639786218" lon="12.223729634427329"><ele>242.0</ele><time>2026-04-26T17:05:46Z</time></trkpt><trkpt lat="43.14426600444511" lon="12.223469458910838"><ele>243.0</ele><time>2026-04-26T17:05:47Z</time></trkpt><trkpt lat="43.14452598427232" lon="12.223229079409283"><ele>242.5</ele><time>2026-04-26T17:05:48Z</time></trkpt><trkpt lat="43.14479217036065" lon="12.223002147828385"><ele>242.0</ele><time>2026-04-26T17:05:49Z</time></trkpt><trkpt lat="43.145065450475265" lon="12.222790330002633"><ele>243.0</ele><time>2026-04-26T17:05:50Z</time></trkpt><trkpt lat="43.1453430130883" lon="12.22259272242745"><ele>244.0</ele><time>2026-04-26T17:05:51Z</time></trkpt><trkpt lat="43.14562839397361" lon="12.222412469700751"><ele>243.0</ele><time>2026-04-26T17:05:52Z</time></trkpt><trkpt lat="43.145911363198195" lon="12.222234652258717"><ele>242.0</ele><time>2026-04-26T17:05:53Z</time></trkpt><trkpt lat="43.1461960471176" lon="12.222055634370525"><ele>242.0</ele><time>2026-04-26T17:05:54Z</time></trkpt><trkpt lat="43.14647857205459" lon="12.221870266599415"><ele>242.0</ele><time>2026-04-26T17:05:55Z</time></trkpt><trkpt lat="43.14676132143803" lon="12.22168660383682"><ele>243.0</ele><time>2026-04-26T17:05:56Z</time></trkpt><trkpt lat="43.14704780360665" lon="12.22150771332315"><ele>244.0</ele><time>2026-04-26T17:05:57Z</time></trkpt><trkpt lat="43.14732915765463" lon="12.221322490441786"><ele>244.0</ele><time>2026-04-26T17:05:58Z</time></trkpt><trkpt lat="43.14761433492991" lon="12.221140909155952"><ele>244.0</ele><time>2026-04-26T17:05:59Z</time></trkpt><trkpt lat="43.14789875065649" lon="12.220957020228466"><ele>244.0</ele><time>2026-04-26T17:06:00Z</time></trkpt><trkpt lat="43.14818508307532" lon="12.220772741798399"><ele>244.0</ele><time>2026-04-26T17:06:01Z</time></trkpt><trkpt lat="43.148464981378595" lon="12.220576443072769"><ele>243.5</ele><time>2026-04-26T17:06:02Z</time></trkpt><trkpt lat="43.14874821896416" lon="12.220382129734674"><ele>243.0</ele><time>2026-04-26T17:06:03Z</time></trkpt><trkpt lat="43.14903121138189" lon="12.220190233288225"><ele>243.5</ele><time>2026-04-26T17:06:04Z</time></trkpt><trkpt lat="43.14931863031792" lon="12.220005236345305"><ele>244.0</ele><time>2026-04-26T17:06:05Z</time></trkpt><trkpt lat="43.149596525524665" lon="12.21981388426111"><ele>244.5</ele><time>2026-04-26T17:06:06Z</time></trkpt><trkpt lat="43.149866749986494" lon="12.219591148632583"><ele>245.0</ele><time>2026-04-26T17:06:07Z</time></trkpt><trkpt lat="43.15011667493564" lon="12.219335178995815"><ele>245.5</ele><time>2026-04-26T17:06:08Z</time></trkpt><trkpt lat="43.1503530502438" lon="12.21905790023578"><ele>246.0</ele><time>2026-04-26T17:06:09Z</time></trkpt><trkpt lat="43.15057813812556" lon="12.218762943530212"><ele>246.0</ele><time>2026-04-26T17:06:10Z</time></trkpt><trkpt lat="43.15078120833692" lon="12.2184456154007"><ele>246.0</ele><time>2026-04-26T17:06:11Z</time></trkpt><trkpt lat="43.150970854572606" lon="12.218111781569245"><ele>245.5</ele><time>2026-04-26T17:06:12Z</time></trkpt><trkpt lat="43.151142338330565" lon="12.217761916818809"><ele>245.0</ele><time>2026-04-26T17:06:13Z</time></trkpt><trkpt lat="43.15129815866628" lon="12.217400842126912"><ele>245.0</ele><time>2026-04-26T17:06:14Z</time></trkpt><trkpt lat="43.151431717378095" lon="12.217026356315763"><ele>245.0</ele><time>2026-04-26T17:06:15Z</time></trkpt><trkpt lat="43.15154458472996" lon="12.216638563724072"><ele>247.0</ele><time>2026-04-26T17:06:16Z</time></trkpt><trkpt lat="43.15163801105279" lon="12.216242953534929"><ele>249.0</ele><time>2026-04-26T17:06:17Z</time></trkpt><trkpt lat="43.151710400569485" lon="12.215844271101563"><ele>249.5</ele><time>2026-04-26T17:06:18Z</time></trkpt><trkpt lat="43.15176087603426" lon="12.2154427416143"><ele>250.0</ele><time>2026-04-26T17:06:19Z</time></trkpt><trkpt lat="43.1517932030569" lon="12.215038009892039"><ele>252.0</ele><time>2026-04-26T17:06:20Z</time></trkpt><trkpt lat="43.15180349632552" lon="12.214634823782298"><ele>254.0</ele><time>2026-04-26T17:06:20.999Z</time></trkpt><trkpt lat="43.1517974778861" lon="12.214235371031256"><ele>257.0</ele><time>2026-04-26T17:06:21.999Z</time></trkpt><trkpt lat="43.15177209009945" lon="12.21384063627338"><ele>260.0</ele><time>2026-04-26T17:06:22.999Z</time></trkpt><trkpt lat="43.151731128678215" lon="12.213452887022488"><ele>265.5</ele><time>2026-04-26T17:06:23.999Z</time></trkpt><trkpt lat="43.1516826084863" lon="12.213070768339312"><ele>271.0</ele><time>2026-04-26T17:06:24.999Z</time></trkpt><trkpt lat="43.15164051299519" lon="12.212688222333922"><ele>273.5</ele><time>2026-04-26T17:06:25.999Z</time></trkpt><trkpt lat="43.15160739356935" lon="12.212305800224527"><ele>276.0</ele><time>2026-04-26T17:06:26.999Z</time></trkpt><trkpt lat="43.15159387757882" lon="12.211929045712681"><ele>276.0</ele><time>2026-04-26T17:06:27.999Z</time></trkpt><trkpt lat="43.151602568286634" lon="12.211550929491372"><ele>276.0</ele><time>2026-04-26T17:06:28.999Z</time></trkpt><trkpt lat="43.15162462822932" lon="12.211175549073088"><ele>275.5</ele><time>2026-04-26T17:06:29.999Z</time></trkpt><trkpt lat="43.15166587209656" lon="12.210809044299545"><ele>275.0</ele><time>2026-04-26T17:06:30.999Z</time></trkpt><trkpt lat="43.151730114451134" lon="12.210448589512582"><ele>276.0</ele><time>2026-04-26T17:06:31.999Z</time></trkpt><trkpt lat="43.15181795775728" lon="12.210099192954546"><ele>277.0</ele><time>2026-04-26T17:06:32.999Z</time></trkpt><trkpt lat="43.1519257786879" lon="12.209757815213115"><ele>279.0</ele><time>2026-04-26T17:06:33.999Z</time></trkpt><trkpt lat="43.15204064665451" lon="12.209423730741134"><ele>281.0</ele><time>2026-04-26T17:06:34.999Z</time></trkpt><trkpt lat="43.15215739619934" lon="12.209091066032393"><ele>281.0</ele><time>2026-04-26T17:06:35.999Z</time></trkpt><trkpt lat="43.15227494614833" lon="12.20875836480502"><ele>281.0</ele><time>2026-04-26T17:06:36.999Z</time></trkpt><trkpt lat="43.152390534481" lon="12.208423777576902"><ele>287.0</ele><time>2026-04-26T17:06:37.999Z</time></trkpt><trkpt lat="43.152506626868195" lon="12.208090757947756"><ele>293.0</ele><time>2026-04-26T17:06:38.999Z</time></trkpt><trkpt lat="43.15262422983011" lon="12.207754345110615"><ele>293.0</ele><time>2026-04-26T17:06:39.999Z</time></trkpt><trkpt lat="43.15274178756218" lon="12.207417863873953"><ele>293.0</ele><time>2026-04-26T17:06:40.999Z</time></trkpt><trkpt lat="43.15288665310156" lon="12.207095793345111"><ele>298.0</ele><time>2026-04-26T17:06:41.999Z</time></trkpt><trkpt lat="43.15300747356391" lon="12.206755399949238"><ele>303.0</ele><time>2026-04-26T17:06:42.999Z</time></trkpt><trkpt lat="43.15312973272941" lon="12.206417763342353"><ele>312.0</ele><time>2026-04-26T17:06:43.999Z</time></trkpt><trkpt lat="43.1532484503175" lon="12.20607548800366"><ele>321.0</ele><time>2026-04-26T17:06:44.999Z</time></trkpt><trkpt lat="43.153380664735" lon="12.205725586615179"><ele>330.5</ele><time>2026-04-26T17:06:45.999Z</time></trkpt><trkpt lat="43.15351699499263" lon="12.205385351991474"><ele>340.0</ele><time>2026-04-26T17:06:46.999Z</time></trkpt><trkpt lat="43.15365265982308" lon="12.205038236054419"><ele>348.5</ele><time>2026-04-26T17:06:47.999Z</time></trkpt><trkpt lat="43.153793435385296" lon="12.204695729862053"><ele>357.0</ele><time>2026-04-26T17:06:48.999Z</time></trkpt><trkpt lat="43.15392795837717" lon="12.204351929172772"><ele>369.0</ele><time>2026-04-26T17:06:49.999Z</time></trkpt><trkpt lat="43.15404209111371" lon="12.203994673033227"><ele>381.0</ele><time>2026-04-26T17:06:50.999Z</time></trkpt><trkpt lat="43.15417325750062" lon="12.203620167368237"><ele>402.0</ele><time>2026-04-26T17:06:52.064Z</time></trkpt><trkpt lat="43.15499397140919" lon="12.201093972730051"><ele>385.0</ele><time>2026-04-26T17:06:55.127Z</time></trkpt><trkpt lat="43.1554205071848" lon="12.199878798180091"><ele>337.0</ele><time>2026-04-26T17:06:56.123Z</time></trkpt><trkpt lat="43.15585071665089" lon="12.198657595825802"><ele>324.0</ele><time>2026-04-26T17:06:57.125Z</time></trkpt><trkpt lat="43.156278887942854" lon="12.197435903398457"><ele>291.0</ele><time>2026-04-26T17:06:58.127Z</time></trkpt><trkpt lat="43.15697968191732" lon="12.195759705398633"><ele>289.0</ele><time>2026-04-26T17:07:11.999Z</time></trkpt><trkpt lat="43.15710574106929" lon="12.195262652380215"><ele>287.0</ele><time>2026-04-26T17:07:12.999Z</time></trkpt><trkpt lat="43.15721829939726" lon="12.194878619226802"><ele>286.5</ele><time>2026-04-26T17:07:13.999Z</time></trkpt><trkpt lat="43.1573566740945" lon="12.194461382323272"><ele>286.0</ele><time>2026-04-26T17:07:14.999Z</time></trkpt><trkpt lat="43.15748507626326" lon="12.194047050630367"><ele>282.0</ele><time>2026-04-26T17:07:15.999Z</time></trkpt><trkpt lat="43.15761332367916" lon="12.193642283724198"><ele>278.0</ele><time>2026-04-26T17:07:16.999Z</time></trkpt><trkpt lat="43.15779303043073" lon="12.193252497966084"><ele>277.0</ele><time>2026-04-26T17:07:17.999Z</time></trkpt><trkpt lat="43.158041551812616" lon="12.192898451859017"><ele>276.0</ele><time>2026-04-26T17:07:18.999Z</time></trkpt><trkpt lat="43.15828344864713" lon="12.192576043079484"><ele>274.5</ele><time>2026-04-26T17:07:19.999Z</time></trkpt><trkpt lat="43.15853817972898" lon="12.192251662414147"><ele>273.0</ele><time>2026-04-26T17:07:20.999Z</time></trkpt><trkpt lat="43.15873635757164" lon="12.19185773323364"><ele>273.0</ele><time>2026-04-26T17:07:21.999Z</time></trkpt><trkpt lat="43.158979670421544" lon="12.191517463952337"><ele>273.0</ele><time>2026-04-26T17:07:22.999Z</time></trkpt><trkpt lat="43.159224993017084" lon="12.191187528290552"><ele>272.0</ele><time>2026-04-26T17:07:23.999Z</time></trkpt><trkpt lat="43.15946161299291" lon="12.190852941026838"><ele>271.0</ele><time>2026-04-26T17:07:24.998Z</time></trkpt><trkpt lat="43.159784719093054" lon="12.190614051987179"><ele>269.5</ele><time>2026-04-26T17:07:25.998Z</time></trkpt><trkpt lat="43.16008113535949" lon="12.190370810888174"><ele>268.0</ele><time>2026-04-26T17:07:26.998Z</time></trkpt><trkpt lat="43.16037083134184" lon="12.19012600366426"><ele>268.0</ele><time>2026-04-26T17:07:27.998Z</time></trkpt><trkpt lat="43.16068657351708" lon="12.18994128792122"><ele>268.0</ele><time>2026-04-26T17:07:28.998Z</time></trkpt><trkpt lat="43.161011412597375" lon="12.189788889558915"><ele>266.5</ele><time>2026-04-26T17:07:29.998Z</time></trkpt><trkpt lat="43.16133753841077" lon="12.18966190391589"><ele>265.0</ele><time>2026-04-26T17:07:30.998Z</time></trkpt><trkpt lat="43.16166793295556" lon="12.189569679294483"><ele>265.0</ele><time>2026-04-26T17:07:31.998Z</time></trkpt><trkpt lat="43.161998394192906" lon="12.18949054911311"><ele>265.0</ele><time>2026-04-26T17:07:32.998Z</time></trkpt><trkpt lat="43.16233874653127" lon="12.18944303519869"><ele>265.0</ele><time>2026-04-26T17:07:33.998Z</time></trkpt><trkpt lat="43.16268066928575" lon="12.189420773010577"><ele>265.0</ele><time>2026-04-26T17:07:34.998Z</time></trkpt><trkpt lat="43.16302246511516" lon="12.189421085412844"><ele>265.5</ele><time>2026-04-26T17:07:35.998Z</time></trkpt><trkpt lat="43.16335890257978" lon="12.189417864887018"><ele>266.0</ele><time>2026-04-26T17:07:36.998Z</time></trkpt><trkpt lat="43.163701018085526" lon="12.189400004313038"><ele>265.0</ele><time>2026-04-26T17:07:37.998Z</time></trkpt><trkpt lat="43.16404502799262" lon="12.189379013636255"><ele>264.0</ele><time>2026-04-26T17:07:38.998Z</time></trkpt><trkpt lat="43.16438522288882" lon="12.189359606595733"><ele>264.0</ele><time>2026-04-26T17:07:39.998Z</time></trkpt><trkpt lat="43.16472577290484" lon="12.189328276339571"><ele>264.0</ele><time>2026-04-26T17:07:40.998Z</time></trkpt><trkpt lat="43.16506326940847" lon="12.18928880655979"><ele>264.0</ele><time>2026-04-26T17:07:42Z</time></trkpt><trkpt lat="43.165399746469205" lon="12.189256156185067"><ele>264.0</ele><time>2026-04-26T17:07:43Z</time></trkpt><trkpt lat="43.16573349073136" lon="12.189232696602856"><ele>264.0</ele><time>2026-04-26T17:07:44Z</time></trkpt><trkpt lat="43.166061159029724" lon="12.189220628229124"><ele>264.0</ele><time>2026-04-26T17:07:45Z</time></trkpt><trkpt lat="43.16638955580096" lon="12.189219172362654"><ele>265.5</ele><time>2026-04-26T17:07:46Z</time></trkpt><trkpt lat="43.16671603650374" lon="12.189202065892967"><ele>267.0</ele><time>2026-04-26T17:07:47Z</time></trkpt><trkpt lat="43.16701470594176" lon="12.189177577586584"><ele>267.0</ele><time>2026-04-26T17:07:48Z</time></trkpt><trkpt lat="43.16729769196046" lon="12.189161902361162"><ele>267.0</ele><time>2026-04-26T17:07:49Z</time></trkpt><trkpt lat="43.16755621114597" lon="12.189155367586928"><ele>267.0</ele><time>2026-04-26T17:07:50Z</time></trkpt><trkpt lat="43.16778140115855" lon="12.189151226625416"><ele>267.0</ele><time>2026-04-26T17:07:51Z</time></trkpt><trkpt lat="43.16797951741685" lon="12.189138113991183"><ele>267.0</ele><time>2026-04-26T17:07:52Z</time></trkpt><trkpt lat="43.16815094168216" lon="12.189119232276989"><ele>266.4</ele><time>2026-04-26T17:07:53Z</time></trkpt><trkpt lat="43.16829300156205" lon="12.189101966914883"><ele>265.79999999999995</ele><time>2026-04-26T17:07:54Z</time></trkpt><trkpt lat="43.1684089631699" lon="12.189094465356419"><ele>265.2</ele><time>2026-04-26T17:07:55Z</time></trkpt><trkpt lat="43.168504098545405" lon="12.189117149870366"><ele>264.59999999999997</ele><time>2026-04-26T17:07:56Z</time></trkpt><trkpt lat="43.16858310092209" lon="12.189180346887987"><ele>264.0</ele><time>2026-04-26T17:07:57Z</time></trkpt><trkpt lat="43.16863815633351" lon="12.189281036034236"><ele>264.0</ele><time>2026-04-26T17:07:58Z</time></trkpt><trkpt lat="43.168668897383014" lon="12.189411490560484"><ele>264.0</ele><time>2026-04-26T17:07:59Z</time></trkpt><trkpt lat="43.16866170019042" lon="12.189563189524529"><ele>264.0</ele><time>2026-04-26T17:08:00Z</time></trkpt><trkpt lat="43.168613924666026" lon="12.189704044674563"><ele>264.0</ele><time>2026-04-26T17:08:01Z</time></trkpt><trkpt lat="43.168530871380476" lon="12.189807392299926"><ele>264.0</ele><time>2026-04-26T17:08:02Z</time></trkpt><trkpt lat="43.168410210195184" lon="12.189863664504674"><ele>264.6666666666667</ele><time>2026-04-26T17:08:03Z</time></trkpt><trkpt lat="43.16826326347583" lon="12.189874642066433"><ele>265.33333333333337</ele><time>2026-04-26T17:08:04Z</time></trkpt><trkpt lat="43.16810655426795" lon="12.189870545060797"><ele>266.0</ele><time>2026-04-26T17:08:05Z</time></trkpt><trkpt lat="43.1679413763687" lon="12.189864887857835"><ele>266.33333333333337</ele><time>2026-04-26T17:08:06Z</time></trkpt><trkpt lat="43.167763784407136" lon="12.189847917975356"><ele>266.6666666666667</ele><time>2026-04-26T17:08:07Z</time></trkpt><trkpt lat="43.16757619442868" lon="12.189822305597449"><ele>267.0</ele><time>2026-04-26T17:08:08Z</time></trkpt><trkpt lat="43.167377632316054" lon="12.189791197300753"><ele>267.0</ele><time>2026-04-26T17:08:09Z</time></trkpt><trkpt lat="43.16717017528517" lon="12.18975967927906"><ele>267.0</ele><time>2026-04-26T17:08:10Z</time></trkpt><trkpt lat="43.16695391056312" lon="12.189728094082051"><ele>267.0</ele><time>2026-04-26T17:08:11Z</time></trkpt><trkpt lat="43.166732158278144" lon="12.189696067836497"><ele>265.5</ele><time>2026-04-26T17:08:12Z</time></trkpt><trkpt lat="43.16650531920882" lon="12.189662959031628"><ele>264.0</ele><time>2026-04-26T17:08:13Z</time></trkpt><trkpt lat="43.16627388380889" lon="12.189626112773585"><ele>264.0</ele><time>2026-04-26T17:08:14Z</time></trkpt><trkpt lat="43.16605724786508" lon="12.189595285008304"><ele>264.0</ele><time>2026-04-26T17:08:14.999Z</time></trkpt><trkpt lat="43.16585594376304" lon="12.189585350859586"><ele>264.0</ele><time>2026-04-26T17:08:15.999Z</time></trkpt><trkpt lat="43.16566953638268" lon="12.189613618972967"><ele>264.0</ele><time>2026-04-26T17:08:16.999Z</time></trkpt><trkpt lat="43.16549926565058" lon="12.189672636620168"><ele>264.0</ele><time>2026-04-26T17:08:17.999Z</time></trkpt><trkpt lat="43.16535982603325" lon="12.189730989232245"><ele>264.0</ele><time>2026-04-26T17:08:18.999Z</time></trkpt><trkpt lat="43.16525782318385" lon="12.189760902528654"><ele>264.0</ele><time>2026-04-26T17:08:19.999Z</time></trkpt><trkpt lat="43.16517182851845" lon="12.189753829931174"><ele>264.0</ele><time>2026-04-26T17:08:20.999Z</time></trkpt><trkpt lat="43.16509603679075" lon="12.189712798386495"><ele>264.0</ele><time>2026-04-26T17:08:21.999Z</time></trkpt><trkpt lat="43.16497076836675" lon="12.189606519339895"><ele>264.0</ele><time>2026-04-26T17:08:23.999Z</time></trkpt><trkpt lat="43.16488944752984" lon="12.189520691121974"><ele>264.0</ele><time>2026-04-26T17:08:24.999Z</time></trkpt><trkpt lat="43.164759497157974" lon="12.189475068707086"><ele>264.0</ele><time>2026-04-26T17:08:25.999Z</time></trkpt><trkpt lat="43.16460529450307" lon="12.189548943312769"><ele>264.0</ele><time>2026-04-26T17:08:26.999Z</time></trkpt><trkpt lat="43.164441504433164" lon="12.189598669077379"><ele>264.0</ele><time>2026-04-26T17:08:27.999Z</time></trkpt><trkpt lat="43.164270004963996" lon="12.189634076383918"><ele>264.0</ele><time>2026-04-26T17:08:28.999Z</time></trkpt><trkpt lat="43.16411597705029" lon="12.189670379796441"><ele>264.0</ele><time>2026-04-26T17:08:29.999Z</time></trkpt><trkpt lat="43.16397451583545" lon="12.189662649785902"><ele>264.0</ele><time>2026-04-26T17:08:30.999Z</time></trkpt><trkpt lat="43.16384003313207" lon="12.189639070093484"><ele>264.0</ele><time>2026-04-26T17:08:31.999Z</time></trkpt><trkpt lat="43.16370827602771" lon="12.189520431066468"><ele>264.5</ele><time>2026-04-26T17:08:32.999Z</time></trkpt><trkpt lat="43.16359869608772" lon="12.18934819990426"><ele>265.0</ele><time>2026-04-26T17:08:33.999Z</time></trkpt><trkpt lat="43.16352656531251" lon="12.189179946704527"><ele>265.5</ele><time>2026-04-26T17:08:34.999Z</time></trkpt><trkpt lat="43.16344963499475" lon="12.189043001486297"><ele>266.0</ele><time>2026-04-26T17:08:35.999Z</time></trkpt><trkpt lat="43.16331980290426" lon="12.18899166515012"><ele>265.6666666666667</ele><time>2026-04-26T17:08:36.999Z</time></trkpt><trkpt lat="43.16316163793816" lon="12.188993187026249"><ele>265.3333333333333</ele><time>2026-04-26T17:08:37.999Z</time></trkpt><trkpt lat="43.16299324811125" lon="12.189012989914854"><ele>265.0</ele><time>2026-04-26T17:08:38.999Z</time></trkpt><trkpt lat="43.16281715568064" lon="12.189037905162488"><ele>265.0</ele><time>2026-04-26T17:08:39.999Z</time></trkpt><trkpt lat="43.162632220675235" lon="12.18904958704666"><ele>265.0</ele><time>2026-04-26T17:08:40.999Z</time></trkpt><trkpt lat="43.162435718142035" lon="12.189060995404438"><ele>265.0</ele><time>2026-04-26T17:08:41.999Z</time></trkpt><trkpt lat="43.16222913870536" lon="12.189067924959945"><ele>265.0</ele><time>2026-04-26T17:08:42.999Z</time></trkpt><trkpt lat="43.16201676920496" lon="12.189078616232782"><ele>265.0</ele><time>2026-04-26T17:08:43.999Z</time></trkpt><trkpt lat="43.16181276170756" lon="12.189094737814496"><ele>265.0</ele><time>2026-04-26T17:08:44.999Z</time></trkpt><trkpt lat="43.161632144427706" lon="12.189101776388283"><ele>265.0</ele><time>2026-04-26T17:08:45.999Z</time></trkpt><trkpt lat="43.161470155815834" lon="12.189097324813925"><ele>265.0</ele><time>2026-04-26T17:08:46.999Z</time></trkpt><trkpt lat="43.16133027491248" lon="12.1890392779671"><ele>265.0</ele><time>2026-04-26T17:08:47.999Z</time></trkpt><trkpt lat="43.16120816800131" lon="12.18898046035748"><ele>265.0</ele><time>2026-04-26T17:08:48.999Z</time></trkpt><trkpt lat="43.16111429829473" lon="12.18891061672276"><ele>264.3333333333333</ele><time>2026-04-26T17:08:49.999Z</time></trkpt><trkpt lat="43.161045717481024" lon="12.188857212068458"><ele>263.66666666666663</ele><time>2026-04-26T17:08:50.999Z</time></trkpt><trkpt lat="43.16100764776198" lon="12.188787850204255"><ele>263.0</ele><time>2026-04-26T17:08:51.999Z</time></trkpt><trkpt lat="43.16094149502743" lon="12.188678793483724"><ele>262.3333333333333</ele><time>2026-04-26T17:08:53.999Z</time></trkpt><trkpt lat="43.16089276631961" lon="12.188609490204104"><ele>261.6666666666667</ele><time>2026-04-26T17:08:54.999Z</time></trkpt><trkpt lat="43.160821928345726" lon="12.188516543642528"><ele>261.0</ele><time>2026-04-26T17:08:55.999Z</time></trkpt><trkpt lat="43.160752529151694" lon="12.188382149673734"><ele>261.75</ele><time>2026-04-26T17:08:56.999Z</time></trkpt><trkpt lat="43.16065315448166" lon="12.188265465846104"><ele>262.5</ele><time>2026-04-26T17:08:57.999Z</time></trkpt><trkpt lat="43.16057138609217" lon="12.188114413661687"><ele>263.25</ele><time>2026-04-26T17:08:58.999Z</time></trkpt><trkpt lat="43.16048153703644" lon="12.18798633214676"><ele>264.0</ele><time>2026-04-26T17:08:59.999Z</time></trkpt><trkpt lat="43.160396382296966" lon="12.187866872656185"><ele>264.0</ele><time>2026-04-26T17:09:00.999Z</time></trkpt><trkpt lat="43.160305686450656" lon="12.187765891581607"><ele>264.0</ele><time>2026-04-26T17:09:01.999Z</time></trkpt><trkpt lat="43.16023811134402" lon="12.187657763981566"><ele>264.0</ele><time>2026-04-26T17:09:02.999Z</time></trkpt><trkpt lat="43.160155444627" lon="12.187552314406306"><ele>264.0</ele><time>2026-04-26T17:09:03.999Z</time></trkpt><trkpt lat="43.160061402164196" lon="12.187458812640541"><ele>264.0</ele><time>2026-04-26T17:09:04.999Z</time></trkpt><trkpt lat="43.15994937948454" lon="12.187382596138121"><ele>264.0</ele><time>2026-04-26T17:09:05.999Z</time></trkpt><trkpt lat="43.15981557744055" lon="12.187303129022167"><ele>264.0</ele><time>2026-04-26T17:09:06.999Z</time></trkpt><trkpt lat="43.1596823850032" lon="12.187207614671692"><ele>264.0</ele><time>2026-04-26T17:09:07.999Z</time></trkpt><trkpt lat="43.15954440873224" lon="12.18712624163184"><ele>263.5</ele><time>2026-04-26T17:09:08.999Z</time></trkpt><trkpt lat="43.1594087118467" lon="12.18704925503976"><ele>263.0</ele><time>2026-04-26T17:09:09.999Z</time></trkpt><trkpt lat="43.15927535685228" lon="12.186984465216325"><ele>262.5</ele><time>2026-04-26T17:09:10.999Z</time></trkpt><trkpt lat="43.15915669325244" lon="12.18691890413668"><ele>262.0</ele><time>2026-04-26T17:09:11.999Z</time></trkpt><trkpt lat="43.159039913017416" lon="12.186853190160248"><ele>262.0</ele><time>2026-04-26T17:09:12.999Z</time></trkpt><trkpt lat="43.15891852108396" lon="12.186794018606424"><ele>262.0</ele><time>2026-04-26T17:09:13.999Z</time></trkpt><trkpt lat="43.158801630177685" lon="12.186730945734828"><ele>262.0</ele><time>2026-04-26T17:09:14.999Z</time></trkpt><trkpt lat="43.15868366245127" lon="12.186665932062825"><ele>262.0</ele><time>2026-04-26T17:09:15.999Z</time></trkpt><trkpt lat="43.158588243573995" lon="12.186612913257358"><ele>262.0</ele><time>2026-04-26T17:09:16.999Z</time></trkpt><trkpt lat="43.15851094762498" lon="12.186575305089795"><ele>262.0</ele><time>2026-04-26T17:09:17.999Z</time></trkpt><trkpt lat="43.158432864855236" lon="12.186536498236284"><ele>262.0</ele><time>2026-04-26T17:09:18.999Z</time></trkpt><trkpt lat="43.15833183685912" lon="12.186492168670489"><ele>262.0</ele><time>2026-04-26T17:09:19.999Z</time></trkpt><trkpt lat="43.158223291222164" lon="12.186424281792002"><ele>262.0</ele><time>2026-04-26T17:09:20.999Z</time></trkpt><trkpt lat="43.15810765813897" lon="12.18636105801893"><ele>261.8</ele><time>2026-04-26T17:09:21.999Z</time></trkpt><trkpt lat="43.157992721201246" lon="12.186302889410031"><ele>261.6</ele><time>2026-04-26T17:09:22.999Z</time></trkpt><trkpt lat="43.15788368228197" lon="12.186244786120696"><ele>261.40000000000003</ele><time>2026-04-26T17:09:23.998Z</time></trkpt><trkpt lat="43.1577836079028" lon="12.186193346387006"><ele>261.2</ele><time>2026-04-26T17:09:24.998Z</time></trkpt><trkpt lat="43.15769098006189" lon="12.186146752330647"><ele>261.0</ele><time>2026-04-26T17:09:25.998Z</time></trkpt><trkpt lat="43.157603189889734" lon="12.186102697314976"><ele>261.0</ele><time>2026-04-26T17:09:26.998Z</time></trkpt><trkpt lat="43.157519556803585" lon="12.18606071418628"><ele>261.0</ele><time>2026-04-26T17:09:27.998Z</time></trkpt><trkpt lat="43.15743509758855" lon="12.186015072113065"><ele>261.0</ele><time>2026-04-26T17:09:28.998Z</time></trkpt><trkpt lat="43.15734608365347" lon="12.185966201190315"><ele>261.0</ele><time>2026-04-26T17:09:29.998Z</time></trkpt><trkpt lat="43.15725559266464" lon="12.185920893828351"><ele>261.0</ele><time>2026-04-26T17:09:30.998Z</time></trkpt><trkpt lat="43.15716663534725" lon="12.185870779261286"><ele>260.8</ele><time>2026-04-26T17:09:31.998Z</time></trkpt><trkpt lat="43.15708008068421" lon="12.185823113825029"><ele>260.6</ele><time>2026-04-26T17:09:32.998Z</time></trkpt><trkpt lat="43.15699138974749" lon="12.185776080162585"><ele>260.4</ele><time>2026-04-26T17:09:33.998Z</time></trkpt><trkpt lat="43.15690471316887" lon="12.185727323624672"><ele>260.2</ele><time>2026-04-26T17:09:34.998Z</time></trkpt><trkpt lat="43.15681740098144" lon="12.1856801669555"><ele>260.0</ele><time>2026-04-26T17:09:35.998Z</time></trkpt><trkpt lat="43.15672989863697" lon="12.185636234340949"><ele>260.0</ele><time>2026-04-26T17:09:36.998Z</time></trkpt><trkpt lat="43.156639689419606" lon="12.18559389436438"><ele>260.0</ele><time>2026-04-26T17:09:37.998Z</time></trkpt><trkpt lat="43.156543321828785" lon="12.185544499500732"><ele>260.0</ele><time>2026-04-26T17:09:38.998Z</time></trkpt><trkpt lat="43.15643892265924" lon="12.185488763206063"><ele>260.0</ele><time>2026-04-26T17:09:39.998Z</time></trkpt><trkpt lat="43.156324964132416" lon="12.185431045076806"><ele>260.0</ele><time>2026-04-26T17:09:40.998Z</time></trkpt><trkpt lat="43.15619981056896" lon="12.185362377819693"><ele>259.6666666666667</ele><time>2026-04-26T17:09:41.998Z</time></trkpt><trkpt lat="43.15606241091174" lon="12.185286047970237"><ele>259.3333333333333</ele><time>2026-04-26T17:09:42.998Z</time></trkpt><trkpt lat="43.15591560975685" lon="12.185205269707266"><ele>259.0</ele><time>2026-04-26T17:09:43.998Z</time></trkpt><trkpt lat="43.15575838017812" lon="12.185124993184573"><ele>258.66666666666663</ele><time>2026-04-26T17:09:44.998Z</time></trkpt><trkpt lat="43.15559562607438" lon="12.185040402578975"><ele>258.3333333333333</ele><time>2026-04-26T17:09:45.998Z</time></trkpt><trkpt lat="43.15543928422039" lon="12.184955109402196"><ele>258.0</ele><time>2026-04-26T17:09:46.998Z</time></trkpt><trkpt lat="43.1552957766419" lon="12.184878887404576"><ele>258.0</ele><time>2026-04-26T17:09:48Z</time></trkpt><trkpt lat="43.15515797918478" lon="12.184808596439211"><ele>258.0</ele><time>2026-04-26T17:09:49Z</time></trkpt><trkpt lat="43.15502053247652" lon="12.184736076020803"><ele>258.0</ele><time>2026-04-26T17:09:50Z</time></trkpt><trkpt lat="43.15487744728303" lon="12.184659728984002"><ele>258.0</ele><time>2026-04-26T17:09:51Z</time></trkpt><trkpt lat="43.15473234083532" lon="12.184540815800764"><ele>258.6666666666667</ele><time>2026-04-26T17:09:52Z</time></trkpt><trkpt lat="43.15459439284086" lon="12.184403074751726"><ele>259.33333333333337</ele><time>2026-04-26T17:09:53Z</time></trkpt><trkpt lat="43.154481254487315" lon="12.184268369574127"><ele>260.0</ele><time>2026-04-26T17:09:54Z</time></trkpt><trkpt lat="43.154378809525625" lon="12.184149053197926"><ele>260.0</ele><time>2026-04-26T17:09:55Z</time></trkpt><trkpt lat="43.15428163311807" lon="12.184017027683721"><ele>260.0</ele><time>2026-04-26T17:09:56Z</time></trkpt><trkpt lat="43.15416204724963" lon="12.183877787026205"><ele>260.0</ele><time>2026-04-26T17:09:57Z</time></trkpt><trkpt lat="43.15404130433829" lon="12.183706108290922"><ele>260.0</ele><time>2026-04-26T17:09:58Z</time></trkpt><trkpt lat="43.15390451298688" lon="12.18353059636019"><ele>260.0</ele><time>2026-04-26T17:09:59Z</time></trkpt><trkpt lat="43.15375248921742" lon="12.183363620407265"><ele>260.0</ele><time>2026-04-26T17:10:00Z</time></trkpt><trkpt lat="43.15360363510088" lon="12.183171396643244"><ele>260.0</ele><time>2026-04-26T17:10:01Z</time></trkpt><trkpt lat="43.15345910016394" lon="12.182959103536296"><ele>260.0</ele><time>2026-04-26T17:10:02Z</time></trkpt><trkpt lat="43.15329764218191" lon="12.182752016223136"><ele>260.0</ele><time>2026-04-26T17:10:03Z</time></trkpt><trkpt lat="43.15313058584488" lon="12.182537852523726"><ele>261.5</ele><time>2026-04-26T17:10:04Z</time></trkpt><trkpt lat="43.15296342474169" lon="12.182319982512189"><ele>263.0</ele><time>2026-04-26T17:10:05Z</time></trkpt><trkpt lat="43.15279229524552" lon="12.182094163955378"><ele>263.0</ele><time>2026-04-26T17:10:06Z</time></trkpt><trkpt lat="43.152618260957034" lon="12.18187653978905"><ele>263.0</ele><time>2026-04-26T17:10:07Z</time></trkpt><trkpt lat="43.152473647304134" lon="12.18162202129574"><ele>276.5</ele><time>2026-04-26T17:10:08Z</time></trkpt><trkpt lat="43.15236543759134" lon="12.181322254815088"><ele>290.0</ele><time>2026-04-26T17:10:09Z</time></trkpt><trkpt lat="43.15227148395621" lon="12.18100522992823"><ele>286.0</ele><time>2026-04-26T17:10:10Z</time></trkpt><trkpt lat="43.15218196950577" lon="12.180676820744901"><ele>282.0</ele><time>2026-04-26T17:10:11Z</time></trkpt><trkpt lat="43.15207762053466" lon="12.180349956913338"><ele>282.0</ele><time>2026-04-26T17:10:12Z</time></trkpt><trkpt lat="43.151991610938445" lon="12.18001276601943"><ele>282.0</ele><time>2026-04-26T17:10:13Z</time></trkpt><trkpt lat="43.15190543728104" lon="12.179700014529251"><ele>276.0</ele><time>2026-04-26T17:10:14Z</time></trkpt><trkpt lat="43.15180535730978" lon="12.17939753273657"><ele>270.0</ele><time>2026-04-26T17:10:15Z</time></trkpt><trkpt lat="43.15167644019697" lon="12.179105775576073"><ele>272.5</ele><time>2026-04-26T17:10:16Z</time></trkpt><trkpt lat="43.1515217362161" lon="12.178833433534283"><ele>275.0</ele><time>2026-04-26T17:10:17Z</time></trkpt><trkpt lat="43.15135723462762" lon="12.178568417790608"><ele>275.0</ele><time>2026-04-26T17:10:18Z</time></trkpt><trkpt lat="43.15118580161518" lon="12.178299229020354"><ele>275.0</ele><time>2026-04-26T17:10:19Z</time></trkpt><trkpt lat="43.1510181499988" lon="12.178030052665726"><ele>269.5</ele><time>2026-04-26T17:10:20Z</time></trkpt><trkpt lat="43.15086520139528" lon="12.1777804194948"><ele>264.0</ele><time>2026-04-26T17:10:21Z</time></trkpt><trkpt lat="43.150719728758126" lon="12.177541111376657"><ele>264.6666666666667</ele><time>2026-04-26T17:10:22Z</time></trkpt><trkpt lat="43.15057831699526" lon="12.177320974294739"><ele>265.33333333333337</ele><time>2026-04-26T17:10:23Z</time></trkpt><trkpt lat="43.1504503974206" lon="12.177118549765856"><ele>266.0</ele><time>2026-04-26T17:10:24Z</time></trkpt><trkpt lat="43.15033758417464" lon="12.176935196341145"><ele>266.0</ele><time>2026-04-26T17:10:25Z</time></trkpt><trkpt lat="43.15023549738394" lon="12.176761564615402"><ele>266.0</ele><time>2026-04-26T17:10:26Z</time></trkpt><trkpt lat="43.15014829819408" lon="12.17659238307749"><ele>266.0</ele><time>2026-04-26T17:10:27Z</time></trkpt><trkpt lat="43.15007563772466" lon="12.176432781677065"><ele>265.75</ele><time>2026-04-26T17:10:27.999Z</time></trkpt><trkpt lat="43.15002068432803" lon="12.176289694511981"><ele>265.5</ele><time>2026-04-26T17:10:28.999Z</time></trkpt><trkpt lat="43.14997814854126" lon="12.176151799870834"><ele>265.25</ele><time>2026-04-26T17:10:29.999Z</time></trkpt><trkpt lat="43.14993963959215" lon="12.176013855606998"><ele>265.0</ele><time>2026-04-26T17:10:30.999Z</time></trkpt><trkpt lat="43.149898089430266" lon="12.175854890203793"><ele>269.75</ele><time>2026-04-26T17:10:31.999Z</time></trkpt><trkpt lat="43.14985809026741" lon="12.175683466902084"><ele>274.5</ele><time>2026-04-26T17:10:32.999Z</time></trkpt><trkpt lat="43.14982126798832" lon="12.175499369290288"><ele>279.25</ele><time>2026-04-26T17:10:33.999Z</time></trkpt><trkpt lat="43.14980917958812" lon="12.175296137822848"><ele>284.0</ele><time>2026-04-26T17:10:34.999Z</time></trkpt><trkpt lat="43.14977862183573" lon="12.175093670474059"><ele>284.0</ele><time>2026-04-26T17:10:35.999Z</time></trkpt><trkpt lat="43.14977285055902" lon="12.174899886124878"><ele>284.0</ele><time>2026-04-26T17:10:36.999Z</time></trkpt><trkpt lat="43.14977202212545" lon="12.174717984703111"><ele>284.0</ele><time>2026-04-26T17:10:37.999Z</time></trkpt><trkpt lat="43.14977222644847" lon="12.174544561460042"><ele>284.0</ele><time>2026-04-26T17:10:38.999Z</time></trkpt><trkpt lat="43.149772780996656" lon="12.174380199746183"><ele>281.0</ele><time>2026-04-26T17:10:39.999Z</time></trkpt><trkpt lat="43.149778411146585" lon="12.17421182987118"><ele>278.0</ele><time>2026-04-26T17:10:40.999Z</time></trkpt><trkpt lat="43.14977766228562" lon="12.174039496285987"><ele>275.0</ele><time>2026-04-26T17:10:41.999Z</time></trkpt><trkpt lat="43.14977556158739" lon="12.173863797623776"><ele>272.0</ele><time>2026-04-26T17:10:42.999Z</time></trkpt><trkpt lat="43.14977912723176" lon="12.173696226823544"><ele>271.6</ele><time>2026-04-26T17:10:43.999Z</time></trkpt><trkpt lat="43.14978272151739" lon="12.173536208830514"><ele>271.2</ele><time>2026-04-26T17:10:44.999Z</time></trkpt><trkpt lat="43.149783576757926" lon="12.173384232290607"><ele>270.8</ele><time>2026-04-26T17:10:45.999Z</time></trkpt><trkpt lat="43.1497839212941" lon="12.173238028852328"><ele>270.4</ele><time>2026-04-26T17:10:46.999Z</time></trkpt><trkpt lat="43.14978549788417" lon="12.17309786601662"><ele>270.0</ele><time>2026-04-26T17:10:47.999Z</time></trkpt><trkpt lat="43.14978833116302" lon="12.172964404874413"><ele>270.0</ele><time>2026-04-26T17:10:48.999Z</time></trkpt><trkpt lat="43.14978926190209" lon="12.17283963054482"><ele>270.0</ele><time>2026-04-26T17:10:49.999Z</time></trkpt><trkpt lat="43.14978921412259" lon="12.172721843579081"><ele>270.0</ele><time>2026-04-26T17:10:50.999Z</time></trkpt><trkpt lat="43.14979175641864" lon="12.1726083526622"><ele>270.0</ele><time>2026-04-26T17:10:51.999Z</time></trkpt><trkpt lat="43.14979305608463" lon="12.172504536984082"><ele>270.0</ele><time>2026-04-26T17:10:52.999Z</time></trkpt><trkpt lat="43.14979090982949" lon="12.172407323751498"><ele>270.0</ele><time>2026-04-26T17:10:53.999Z</time></trkpt><trkpt lat="43.1497884264228" lon="12.17232080605887"><ele>271.2</ele><time>2026-04-26T17:10:54.999Z</time></trkpt><trkpt lat="43.14979128341993" lon="12.172169983907626"><ele>272.4</ele><time>2026-04-26T17:10:56.999Z</time></trkpt><trkpt lat="43.149787536757366" lon="12.172010953937775"><ele>273.6</ele><time>2026-04-26T17:10:58.999Z</time></trkpt><trkpt lat="43.14978414578986" lon="12.171851750567255"><ele>274.8</ele><time>2026-04-26T17:11:00.999Z</time></trkpt><trkpt lat="43.14978501159091" lon="12.17175806914205"><ele>276.0</ele><time>2026-04-26T17:11:01.999Z</time></trkpt><trkpt lat="43.14978155257296" lon="12.171651135136301"><ele>274.75</ele><time>2026-04-26T17:11:02.999Z</time></trkpt><trkpt lat="43.14977307600377" lon="12.171515402470321"><ele>273.5</ele><time>2026-04-26T17:11:03.999Z</time></trkpt><trkpt lat="43.14975451542689" lon="12.171351864093548"><ele>272.25</ele><time>2026-04-26T17:11:04.999Z</time></trkpt><trkpt lat="43.14971911680052" lon="12.17117073956004"><ele>271.0</ele><time>2026-04-26T17:11:05.999Z</time></trkpt><trkpt lat="43.149670021132806" lon="12.170975052142992"><ele>271.0</ele><time>2026-04-26T17:11:06.999Z</time></trkpt><trkpt lat="43.14960848602881" lon="12.170772758467663"><ele>271.0</ele><time>2026-04-26T17:11:07.999Z</time></trkpt><trkpt lat="43.14953373806902" lon="12.170587378434961"><ele>271.0</ele><time>2026-04-26T17:11:08.999Z</time></trkpt><trkpt lat="43.14944073016331" lon="12.170423633473977"><ele>272.66666666666663</ele><time>2026-04-26T17:11:09.999Z</time></trkpt><trkpt lat="43.14932122093948" lon="12.170285770971368"><ele>274.3333333333333</ele><time>2026-04-26T17:11:10.999Z</time></trkpt><trkpt lat="43.14917617665405" lon="12.170167176022725"><ele>276.0</ele><time>2026-04-26T17:11:11.999Z</time></trkpt><trkpt lat="43.149030526385474" lon="12.17003344261572"><ele>276.0</ele><time>2026-04-26T17:11:12.999Z</time></trkpt><trkpt lat="43.1488869873367" lon="12.169881298694827"><ele>276.0</ele><time>2026-04-26T17:11:13.999Z</time></trkpt><trkpt lat="43.14873187768889" lon="12.169730997542414"><ele>276.0</ele><time>2026-04-26T17:11:14.999Z</time></trkpt><trkpt lat="43.14856465376213" lon="12.169590742035387"><ele>274.3333333333333</ele><time>2026-04-26T17:11:15.999Z</time></trkpt><trkpt lat="43.14839550913834" lon="12.1694371073919"><ele>272.66666666666663</ele><time>2026-04-26T17:11:16.999Z</time></trkpt><trkpt lat="43.14822203497086" lon="12.16927941462656"><ele>271.0</ele><time>2026-04-26T17:11:17.999Z</time></trkpt><trkpt lat="43.14804528912425" lon="12.169117901407821"><ele>274.3333333333333</ele><time>2026-04-26T17:11:18.999Z</time></trkpt><trkpt lat="43.1478656574816" lon="12.168952591120249"><ele>277.6666666666667</ele><time>2026-04-26T17:11:19.999Z</time></trkpt><trkpt lat="43.14768976456384" lon="12.16877470118083"><ele>281.0</ele><time>2026-04-26T17:11:20.999Z</time></trkpt><trkpt lat="43.14752227924053" lon="12.168576046375163"><ele>283.0</ele><time>2026-04-26T17:11:21.999Z</time></trkpt><trkpt lat="43.14735271287697" lon="12.168372467610794"><ele>285.0</ele><time>2026-04-26T17:11:22.999Z</time></trkpt><trkpt lat="43.14717570462485" lon="12.168177347903708"><ele>285.0</ele><time>2026-04-26T17:11:23.999Z</time></trkpt><trkpt lat="43.146996112630816" lon="12.167977619288743"><ele>285.0</ele><time>2026-04-26T17:11:24.999Z</time></trkpt><trkpt lat="43.1468214538215" lon="12.167758979120785"><ele>285.0</ele><time>2026-04-26T17:11:25.999Z</time></trkpt><trkpt lat="43.146663095611764" lon="12.167506960944266"><ele>285.0</ele><time>2026-04-26T17:11:26.999Z</time></trkpt><trkpt lat="43.1465254699988" lon="12.167225107218337"><ele>287.0</ele><time>2026-04-26T17:11:27.999Z</time></trkpt><trkpt lat="43.14639635972074" lon="12.166926889214345"><ele>289.0</ele><time>2026-04-26T17:11:28.999Z</time></trkpt><trkpt lat="43.14627587200015" lon="12.166639774530479"><ele>287.3333333333333</ele><time>2026-04-26T17:11:29.999Z</time></trkpt><trkpt lat="43.146162300302024" lon="12.166370846937305"><ele>285.6666666666667</ele><time>2026-04-26T17:11:30.999Z</time></trkpt><trkpt lat="43.14605412778613" lon="12.166112355929924"><ele>284.0</ele><time>2026-04-26T17:11:31.999Z</time></trkpt><trkpt lat="43.145961096114085" lon="12.165840469716382"><ele>283.33333333333337</ele><time>2026-04-26T17:11:32.998Z</time></trkpt><trkpt lat="43.14589286841104" lon="12.165560472596505"><ele>282.6666666666667</ele><time>2026-04-26T17:11:33.998Z</time></trkpt><trkpt lat="43.145840876620454" lon="12.165268770606792"><ele>282.0</ele><time>2026-04-26T17:11:34.998Z</time></trkpt><trkpt lat="43.14578032023131" lon="12.164986580113304"><ele>283.6666666666667</ele><time>2026-04-26T17:11:35.998Z</time></trkpt><trkpt lat="43.14569555146135" lon="12.16472799567315"><ele>285.33333333333337</ele><time>2026-04-26T17:11:36.998Z</time></trkpt><trkpt lat="43.14558877019457" lon="12.164485703068557"><ele>287.0</ele><time>2026-04-26T17:11:37.998Z</time></trkpt><trkpt lat="43.14547831678924" lon="12.16426725278298"><ele>287.0</ele><time>2026-04-26T17:11:38.998Z</time></trkpt><trkpt lat="43.14538131228284" lon="12.16408007106519"><ele>287.0</ele><time>2026-04-26T17:11:39.998Z</time></trkpt><trkpt lat="43.145287911693096" lon="12.16393041821365"><ele>287.0</ele><time>2026-04-26T17:11:40.998Z</time></trkpt><trkpt lat="43.145188891476714" lon="12.163820022104774"><ele>287.0</ele><time>2026-04-26T17:11:41.998Z</time></trkpt><trkpt lat="43.14508289524347" lon="12.163747719685256"><ele>287.5</ele><time>2026-04-26T17:11:42.998Z</time></trkpt><trkpt lat="43.14496181217083" lon="12.163714833228942"><ele>288.0</ele><time>2026-04-26T17:11:43.998Z</time></trkpt><trkpt lat="43.14483021920664" lon="12.163729487739243"><ele>288.5</ele><time>2026-04-26T17:11:44.998Z</time></trkpt><trkpt lat="43.14469430023733" lon="12.16380464438222"><ele>289.0</ele><time>2026-04-26T17:11:45.998Z</time></trkpt><trkpt lat="43.14455334725581" lon="12.16393719293905"><ele>285.66666666666663</ele><time>2026-04-26T17:11:46.998Z</time></trkpt><trkpt lat="43.144398334319646" lon="12.16406907997065"><ele>282.3333333333333</ele><time>2026-04-26T17:11:47.998Z</time></trkpt><trkpt lat="43.14422018851294" lon="12.164188078261338"><ele>279.0</ele><time>2026-04-26T17:11:48.998Z</time></trkpt><trkpt lat="43.144022895732654" lon="12.164297056889618"><ele>275.0</ele><time>2026-04-26T17:11:49.998Z</time></trkpt><trkpt lat="43.14381031287867" lon="12.164389808766906"><ele>271.0</ele><time>2026-04-26T17:11:50.998Z</time></trkpt><trkpt lat="43.14359014993069" lon="12.16448881862114"><ele>271.0</ele><time>2026-04-26T17:11:51.998Z</time></trkpt><trkpt lat="43.143363734114125" lon="12.164595913075916"><ele>271.0</ele><time>2026-04-26T17:11:52.998Z</time></trkpt><trkpt lat="43.14315067509736" lon="12.16469032696861"><ele>270.0</ele><time>2026-04-26T17:11:54Z</time></trkpt><trkpt lat="43.14295642049694" lon="12.164777091318081"><ele>269.0</ele><time>2026-04-26T17:11:55Z</time></trkpt><trkpt lat="43.14278177554435" lon="12.16487503091004"><ele>268.0</ele><time>2026-04-26T17:11:56Z</time></trkpt><trkpt lat="43.1426267163745" lon="12.165005458151569"><ele>268.0</ele><time>2026-04-26T17:11:57Z</time></trkpt><trkpt lat="43.14249622824543" lon="12.165163778636604"><ele>268.0</ele><time>2026-04-26T17:11:58Z</time></trkpt><trkpt lat="43.14238351713972" lon="12.165336803257018"><ele>268.0</ele><time>2026-04-26T17:11:59Z</time></trkpt><trkpt lat="43.14226048681011" lon="12.16548909953069"><ele>266.3333333333333</ele><time>2026-04-26T17:12:00Z</time></trkpt><trkpt lat="43.142113141098434" lon="12.165594900780144"><ele>264.6666666666667</ele><time>2026-04-26T17:12:01Z</time></trkpt><trkpt lat="43.14194447535059" lon="12.165654135616949"><ele>263.0</ele><time>2026-04-26T17:12:02Z</time></trkpt><trkpt lat="43.14176317486683" lon="12.165655469236361"><ele>263.0</ele><time>2026-04-26T17:12:03Z</time></trkpt><trkpt lat="43.14157212400206" lon="12.16558803149514"><ele>263.0</ele><time>2026-04-26T17:12:04Z</time></trkpt><trkpt lat="43.141378873189716" lon="12.165455770618395"><ele>263.0</ele><time>2026-04-26T17:12:05Z</time></trkpt><trkpt lat="43.14117408938019" lon="12.16533985905992"><ele>261.0</ele><time>2026-04-26T17:12:06Z</time></trkpt><trkpt lat="43.14095778940417" lon="12.165224943761876"><ele>259.0</ele><time>2026-04-26T17:12:07Z</time></trkpt><trkpt lat="43.140744677989495" lon="12.165110420625057"><ele>259.0</ele><time>2026-04-26T17:12:08Z</time></trkpt><trkpt lat="43.140549927965154" lon="12.165006782607241"><ele>259.0</ele><time>2026-04-26T17:12:09Z</time></trkpt><trkpt lat="43.140360533932494" lon="12.164926390496726"><ele>259.0</ele><time>2026-04-26T17:12:10Z</time></trkpt><trkpt lat="43.14016046600124" lon="12.164895317397965"><ele>259.0</ele><time>2026-04-26T17:12:11Z</time></trkpt><trkpt lat="43.13994706370749" lon="12.164921072422334"><ele>259.0</ele><time>2026-04-26T17:12:12Z</time></trkpt><trkpt lat="43.139731984044325" lon="12.164998886793278"><ele>259.0</ele><time>2026-04-26T17:12:13Z</time></trkpt><trkpt lat="43.13951749248973" lon="12.165103098375324"><ele>259.0</ele><time>2026-04-26T17:12:14Z</time></trkpt><trkpt lat="43.139300992582776" lon="12.16522380090893"><ele>259.0</ele><time>2026-04-26T17:12:15Z</time></trkpt><trkpt lat="43.13908162492111" lon="12.165359257953972"><ele>258.5</ele><time>2026-04-26T17:12:16Z</time></trkpt><trkpt lat="43.13885785931389" lon="12.165496296475654"><ele>258.0</ele><time>2026-04-26T17:12:17Z</time></trkpt><trkpt lat="43.13862716890605" lon="12.165635873222486"><ele>258.5</ele><time>2026-04-26T17:12:18Z</time></trkpt><trkpt lat="43.138400311507624" lon="12.16577609482966"><ele>259.0</ele><time>2026-04-26T17:12:19Z</time></trkpt><trkpt lat="43.13819119217585" lon="12.165910259059753"><ele>259.0</ele><time>2026-04-26T17:12:20Z</time></trkpt><trkpt lat="43.13799193700156" lon="12.166040441577756"><ele>259.0</ele><time>2026-04-26T17:12:21Z</time></trkpt><trkpt lat="43.1377896683183" lon="12.16614831979863"><ele>259.0</ele><time>2026-04-26T17:12:22Z</time></trkpt><trkpt lat="43.137571237629764" lon="12.166211579643655"><ele>258.0</ele><time>2026-04-26T17:12:23Z</time></trkpt><trkpt lat="43.13733828037084" lon="12.166220373713672"><ele>257.0</ele><time>2026-04-26T17:12:24Z</time></trkpt><trkpt lat="43.13710024891091" lon="12.166179481295508"><ele>257.0</ele><time>2026-04-26T17:12:25Z</time></trkpt><trkpt lat="43.13686223110637" lon="12.166117812533663"><ele>257.0</ele><time>2026-04-26T17:12:26Z</time></trkpt><trkpt lat="43.1366385166487" lon="12.166072064855086"><ele>258.0</ele><time>2026-04-26T17:12:27Z</time></trkpt><trkpt lat="43.1364012199774" lon="12.166028658671365"><ele>259.0</ele><time>2026-04-26T17:12:28Z</time></trkpt><trkpt lat="43.13615683515403" lon="12.16598462905687"><ele>259.0</ele><time>2026-04-26T17:12:29Z</time></trkpt><trkpt lat="43.13590842615995" lon="12.165965847344303"><ele>259.0</ele><time>2026-04-26T17:12:30Z</time></trkpt><trkpt lat="43.13565366466263" lon="12.165974116626316"><ele>258.5</ele><time>2026-04-26T17:12:31Z</time></trkpt><trkpt lat="43.13539361019371" lon="12.16599360700039"><ele>258.0</ele><time>2026-04-26T17:12:31.999Z</time></trkpt><trkpt lat="43.13512766499865" lon="12.166012009739791"><ele>258.0</ele><time>2026-04-26T17:12:32.999Z</time></trkpt><trkpt lat="43.13485719156047" lon="12.166027347305501"><ele>258.0</ele><time>2026-04-26T17:12:33.999Z</time></trkpt><trkpt lat="43.13458413139433" lon="12.166044298063822"><ele>258.0</ele><time>2026-04-26T17:12:34.999Z</time></trkpt><trkpt lat="43.13430659290559" lon="12.166061419822919"><ele>258.0</ele><time>2026-04-26T17:12:35.999Z</time></trkpt><trkpt lat="43.13402645981677" lon="12.16607717106786"><ele>258.5</ele><time>2026-04-26T17:12:36.999Z</time></trkpt><trkpt lat="43.133761368386196" lon="12.166090889732544"><ele>259.0</ele><time>2026-04-26T17:12:37.999Z</time></trkpt><trkpt lat="43.133509510044995" lon="12.166101355451653"><ele>259.0</ele><time>2026-04-26T17:12:38.999Z</time></trkpt><trkpt lat="43.13326705866954" lon="12.16613414685038"><ele>259.0</ele><time>2026-04-26T17:12:39.999Z</time></trkpt><trkpt lat="43.13302394406572" lon="12.166216151865031"><ele>258.5</ele><time>2026-04-26T17:12:40.999Z</time></trkpt><trkpt lat="43.13278969958082" lon="12.166352093278705"><ele>258.0</ele><time>2026-04-26T17:12:41.999Z</time></trkpt><trkpt lat="43.132543256825514" lon="12.166452562209967"><ele>257.5</ele><time>2026-04-26T17:12:42.999Z</time></trkpt><trkpt lat="43.13229824915318" lon="12.166570781903681"><ele>257.0</ele><time>2026-04-26T17:12:43.999Z</time></trkpt><trkpt lat="43.1320758420138" lon="12.166797517094958"><ele>257.0</ele><time>2026-04-26T17:12:44.999Z</time></trkpt><trkpt lat="43.1318391977323" lon="12.166945386889374"><ele>257.0</ele><time>2026-04-26T17:12:45.999Z</time></trkpt><trkpt lat="43.13160760109141" lon="12.167093392012289"><ele>257.5</ele><time>2026-04-26T17:12:46.999Z</time></trkpt><trkpt lat="43.13137817487656" lon="12.167237943333847"><ele>258.0</ele><time>2026-04-26T17:12:47.999Z</time></trkpt><trkpt lat="43.13115641799617" lon="12.167372709924429"><ele>258.0</ele><time>2026-04-26T17:12:48.999Z</time></trkpt><trkpt lat="43.13094379321073" lon="12.167488577694526"><ele>258.0</ele><time>2026-04-26T17:12:49.999Z</time></trkpt><trkpt lat="43.130739231151374" lon="12.167564103525283"><ele>258.0</ele><time>2026-04-26T17:12:50.999Z</time></trkpt><trkpt lat="43.13054893227654" lon="12.167594877954768"><ele>258.75</ele><time>2026-04-26T17:12:51.999Z</time></trkpt><trkpt lat="43.13038588466638" lon="12.167611033170644"><ele>259.5</ele><time>2026-04-26T17:12:52.999Z</time></trkpt><trkpt lat="43.130245866523126" lon="12.167625484739304"><ele>260.25</ele><time>2026-04-26T17:12:53.999Z</time></trkpt><trkpt lat="43.13012536100767" lon="12.167639464355663"><ele>261.0</ele><time>2026-04-26T17:12:54.999Z</time></trkpt><trkpt lat="43.13001691999298" lon="12.16765475991465"><ele>261.0</ele><time>2026-04-26T17:12:55.999Z</time></trkpt><trkpt lat="43.129911718456135" lon="12.167672915172952"><ele>261.0</ele><time>2026-04-26T17:12:56.999Z</time></trkpt><trkpt lat="43.12982574811768" lon="12.16768530779392"><ele>261.0</ele><time>2026-04-26T17:12:57.999Z</time></trkpt><trkpt lat="43.12972521194106" lon="12.167697891255266"><ele>261.0</ele><time>2026-04-26T17:12:59.999Z</time></trkpt><trkpt lat="43.129653685818134" lon="12.16771458933927"><ele>261.0</ele><time>2026-04-26T17:13:02.999Z</time></trkpt><trkpt lat="43.12954088950207" lon="12.167723493033435"><ele>261.0</ele><time>2026-04-26T17:13:04.999Z</time></trkpt><trkpt lat="43.129435404205076" lon="12.167739618049197"><ele>261.0</ele><time>2026-04-26T17:13:05.999Z</time></trkpt><trkpt lat="43.129310309399855" lon="12.167746443542525"><ele>261.0</ele><time>2026-04-26T17:13:06.999Z</time></trkpt><trkpt lat="43.12916814056126" lon="12.167752941230358"><ele>261.0</ele><time>2026-04-26T17:13:07.999Z</time></trkpt><trkpt lat="43.12901111593805" lon="12.167751124932694"><ele>261.0</ele><time>2026-04-26T17:13:08.999Z</time></trkpt><trkpt lat="43.12885259366146" lon="12.167744188088268"><ele>261.0</ele><time>2026-04-26T17:13:09.999Z</time></trkpt><trkpt lat="43.128686991531616" lon="12.167743460063111"><ele>261.0</ele><time>2026-04-26T17:13:10.999Z</time></trkpt><trkpt lat="43.12851288144258" lon="12.167750115511062"><ele>261.0</ele><time>2026-04-26T17:13:11.999Z</time></trkpt><trkpt lat="43.128326693309354" lon="12.167753370800112"><ele>261.0</ele><time>2026-04-26T17:13:12.999Z</time></trkpt><trkpt lat="43.128126007432186" lon="12.167755580237475"><ele>261.0</ele><time>2026-04-26T17:13:13.999Z</time></trkpt><trkpt lat="43.1279175842405" lon="12.167757833558982"><ele>260.6666666666667</ele><time>2026-04-26T17:13:14.999Z</time></trkpt><trkpt lat="43.127710070653265" lon="12.167755281358923"><ele>260.33333333333337</ele><time>2026-04-26T17:13:15.999Z</time></trkpt><trkpt lat="43.12749765494525" lon="12.167746560140985"><ele>260.0</ele><time>2026-04-26T17:13:16.999Z</time></trkpt><trkpt lat="43.12727482062136" lon="12.167725851108957"><ele>260.0</ele><time>2026-04-26T17:13:17.999Z</time></trkpt><trkpt lat="43.12704698331429" lon="12.167679230552784"><ele>260.0</ele><time>2026-04-26T17:13:18.999Z</time></trkpt><trkpt lat="43.12681469684289" lon="12.167621173558206"><ele>260.0</ele><time>2026-04-26T17:13:19.999Z</time></trkpt><trkpt lat="43.12657484504467" lon="12.167562025404242"><ele>260.0</ele><time>2026-04-26T17:13:20.999Z</time></trkpt><trkpt lat="43.126330692716564" lon="12.167505158422246"><ele>261.5</ele><time>2026-04-26T17:13:21.999Z</time></trkpt><trkpt lat="43.12608757701877" lon="12.16745002855951"><ele>263.0</ele><time>2026-04-26T17:13:22.999Z</time></trkpt><trkpt lat="43.125846883792555" lon="12.167393756427463"><ele>261.0</ele><time>2026-04-26T17:13:23.999Z</time></trkpt><trkpt lat="43.12560932925771" lon="12.167340091866981"><ele>259.0</ele><time>2026-04-26T17:13:24.999Z</time></trkpt><trkpt lat="43.125374182469024" lon="12.167285169748432"><ele>259.0</ele><time>2026-04-26T17:13:25.999Z</time></trkpt><trkpt lat="43.12515318856401" lon="12.167232771333703"><ele>259.0</ele><time>2026-04-26T17:13:26.999Z</time></trkpt><trkpt lat="43.12494026937384" lon="12.167179615020585"><ele>259.0</ele><time>2026-04-26T17:13:27.999Z</time></trkpt><trkpt lat="43.12473618573184" lon="12.167129863878506"><ele>260.0</ele><time>2026-04-26T17:13:28.999Z</time></trkpt><trkpt lat="43.124533178332385" lon="12.167081529913656"><ele>261.0</ele><time>2026-04-26T17:13:29.999Z</time></trkpt><trkpt lat="43.12433153164994" lon="12.16702712287404"><ele>262.0</ele><time>2026-04-26T17:13:30.999Z</time></trkpt><trkpt lat="43.124125267766" lon="12.166980046502857"><ele>263.3333333333333</ele><time>2026-04-26T17:13:31.999Z</time></trkpt><trkpt lat="43.12391426707922" lon="12.166931476124509"><ele>264.6666666666667</ele><time>2026-04-26T17:13:32.999Z</time></trkpt><trkpt lat="43.123700837244165" lon="12.166879108548773"><ele>266.0</ele><time>2026-04-26T17:13:33.999Z</time></trkpt><trkpt lat="43.12348651319956" lon="12.166819493296561"><ele>266.0</ele><time>2026-04-26T17:13:34.999Z</time></trkpt><trkpt lat="43.12326661159452" lon="12.16674624016497"><ele>266.0</ele><time>2026-04-26T17:13:35.998Z</time></trkpt><trkpt lat="43.12304853430284" lon="12.166657551710932"><ele>264.6666666666667</ele><time>2026-04-26T17:13:36.998Z</time></trkpt><trkpt lat="43.122837521824366" lon="12.166560480507076"><ele>263.3333333333333</ele><time>2026-04-26T17:13:37.998Z</time></trkpt><trkpt lat="43.12262759584431" lon="12.166465029382012"><ele>262.0</ele><time>2026-04-26T17:13:38.998Z</time></trkpt><trkpt lat="43.122417777733666" lon="12.16637081192668"><ele>261.3333333333333</ele><time>2026-04-26T17:13:39.998Z</time></trkpt><trkpt lat="43.12220897232552" lon="12.16629164459042"><ele>260.6666666666667</ele><time>2026-04-26T17:13:40.998Z</time></trkpt><trkpt lat="43.12201256375928" lon="12.166217921907762"><ele>260.0</ele><time>2026-04-26T17:13:41.998Z</time></trkpt><trkpt lat="43.12181962855102" lon="12.166150795588534"><ele>260.0</ele><time>2026-04-26T17:13:42.998Z</time></trkpt><trkpt lat="43.12162571922155" lon="12.16609233234695"><ele>260.0</ele><time>2026-04-26T17:13:43.998Z</time></trkpt><trkpt lat="43.12143574274743" lon="12.166053409331697"><ele>260.0</ele><time>2026-04-26T17:13:44.998Z</time></trkpt><trkpt lat="43.121254656798214" lon="12.166021639363683"><ele>260.0</ele><time>2026-04-26T17:13:45.998Z</time></trkpt><trkpt lat="43.12107392054525" lon="12.166015069207699"><ele>260.0</ele><time>2026-04-26T17:13:46.998Z</time></trkpt><trkpt lat="43.12088304032931" lon="12.16602787182949"><ele>260.0</ele><time>2026-04-26T17:13:47.998Z</time></trkpt><trkpt lat="43.12068204461707" lon="12.166049756032393"><ele>260.0</ele><time>2026-04-26T17:13:48.998Z</time></trkpt><trkpt lat="43.12049610623067" lon="12.166068126862088"><ele>260.0</ele><time>2026-04-26T17:13:49.998Z</time></trkpt><trkpt lat="43.12032503874346" lon="12.16608734911477"><ele>260.0</ele><time>2026-04-26T17:13:50.998Z</time></trkpt><trkpt lat="43.12016241948435" lon="12.166100069808733"><ele>260.0</ele><time>2026-04-26T17:13:51.998Z</time></trkpt><trkpt lat="43.12000115003634" lon="12.166103794286194"><ele>260.0</ele><time>2026-04-26T17:13:52.998Z</time></trkpt><trkpt lat="43.11984473786244" lon="12.16610025980899"><ele>260.0</ele><time>2026-04-26T17:13:53.998Z</time></trkpt><trkpt lat="43.11970112604012" lon="12.166092854465766"><ele>260.25</ele><time>2026-04-26T17:13:54.998Z</time></trkpt><trkpt lat="43.11956175594334" lon="12.166087072760343"><ele>260.5</ele><time>2026-04-26T17:13:55.998Z</time></trkpt><trkpt lat="43.11943261399023" lon="12.166081546531249"><ele>260.75</ele><time>2026-04-26T17:13:56.998Z</time></trkpt><trkpt lat="43.119314137819984" lon="12.16608224229671"><ele>261.0</ele><time>2026-04-26T17:13:57.998Z</time></trkpt><trkpt lat="43.119200010818595" lon="12.166080756849992"><ele>261.0</ele><time>2026-04-26T17:13:58.998Z</time></trkpt><trkpt lat="43.11910147815862" lon="12.166079579999487"><ele>261.0</ele><time>2026-04-26T17:14:00Z</time></trkpt><trkpt lat="43.119028562105775" lon="12.166080826655852"><ele>261.0</ele><time>2026-04-26T17:14:01Z</time></trkpt><trkpt lat="43.11895523075819" lon="12.166066538102484"><ele>261.0</ele><time>2026-04-26T17:14:02Z</time></trkpt><trkpt lat="43.11885379975409" lon="12.166039481453712"><ele>261.0</ele><time>2026-04-26T17:14:04Z</time></trkpt><trkpt lat="43.11885896034232" lon="12.165936433941924"><ele>261.0</ele><time>2026-04-26T17:14:05Z</time></trkpt><trkpt lat="43.118825516742966" lon="12.165826921865197"><ele>260.6666666666667</ele><time>2026-04-26T17:14:06Z</time></trkpt><trkpt lat="43.11881617850674" lon="12.165737815987667"><ele>260.3333333333333</ele><time>2026-04-26T17:14:07Z</time></trkpt><trkpt lat="43.118741750402506" lon="12.165655652328285"><ele>260.0</ele><time>2026-04-26T17:14:09Z</time></trkpt><trkpt lat="43.11861208065822" lon="12.165675189631237"><ele>259.66666666666663</ele><time>2026-04-26T17:14:11Z</time></trkpt><trkpt lat="43.118541803908855" lon="12.165705793217894"><ele>259.3333333333333</ele><time>2026-04-26T17:14:12Z</time></trkpt><trkpt lat="43.11847948038808" lon="12.165732933352656"><ele>259.0</ele><time>2026-04-26T17:14:13Z</time></trkpt><trkpt lat="43.11838108303696" lon="12.165809221722737"><ele>259.0</ele><time>2026-04-26T17:14:15Z</time></trkpt><trkpt lat="43.118303473554484" lon="12.165854549530113"><ele>259.0</ele><time>2026-04-26T17:14:17Z</time></trkpt><trkpt lat="43.11823723947816" lon="12.165878072315014"><ele>259.0</ele><time>2026-04-26T17:14:19Z</time></trkpt><trkpt lat="43.118158477258724" lon="12.165912849628269"><ele>259.0</ele><time>2026-04-26T17:14:22Z</time></trkpt><trkpt lat="43.11807020735872" lon="12.165948796840233"><ele>259.0</ele><time>2026-04-26T17:14:25Z</time></trkpt><trkpt lat="43.117980587923164" lon="12.165976760318411"><ele>259.0</ele><time>2026-04-26T17:14:28Z</time></trkpt><trkpt lat="43.11790747534935" lon="12.166039489827371"><ele>258.3333333333333</ele><time>2026-04-26T17:14:30Z</time></trkpt><trkpt lat="43.11785018088417" lon="12.16609268822712"><ele>257.66666666666663</ele><time>2026-04-26T17:14:35Z</time></trkpt><trkpt lat="43.11782035333336" lon="12.166178673795606"><ele>257.0</ele><time>2026-04-26T17:14:42.999Z</time></trkpt><trkpt lat="43.11774085046825" lon="12.166221075018921"><ele>256.3333333333333</ele><time>2026-04-26T17:14:48.999Z</time></trkpt><trkpt lat="43.117683762503766" lon="12.166275016345514"><ele>255.66666666666666</ele><time>2026-04-26T17:14:50.999Z</time></trkpt><trkpt lat="43.117614667098316" lon="12.166357305026319"><ele>255.0</ele><time>2026-04-26T17:14:52.999Z</time></trkpt><trkpt lat="43.11753487733949" lon="12.166437503427606"><ele>255.0</ele><time>2026-04-26T17:14:54.999Z</time></trkpt><trkpt lat="43.11746562877876" lon="12.166499328580214"><ele>255.0</ele><time>2026-04-26T17:14:56.999Z</time></trkpt><trkpt lat="43.11747017948393" lon="12.166606858950347"><ele>255.0</ele><time>2026-04-26T17:14:58.999Z</time></trkpt><trkpt lat="43.11758063440363" lon="12.166722923582164"><ele>255.0</ele><time>2026-04-26T17:15:00.999Z</time></trkpt><trkpt lat="43.11763849644031" lon="12.16679115341513"><ele>255.0</ele><time>2026-04-26T17:15:01.999Z</time></trkpt><trkpt lat="43.117714877435425" lon="12.166872891628854"><ele>256.0</ele><time>2026-04-26T17:15:03.999Z</time></trkpt><trkpt lat="43.117629249240245" lon="12.167103928111205"><ele>257.0</ele><time>2026-04-26T17:15:10.999Z</time></trkpt><trkpt lat="43.117552468531144" lon="12.167245043488156"><ele>258.0</ele><time>2026-04-26T17:15:11.999Z</time></trkpt><trkpt lat="43.11748251121896" lon="12.16736747732863"><ele>259.0</ele><time>2026-04-26T17:15:12.999Z</time></trkpt><trkpt lat="43.117411767585764" lon="12.167489539425258"><ele>258.5</ele><time>2026-04-26T17:15:13.999Z</time></trkpt><trkpt lat="43.11733525698275" lon="12.167613484124502"><ele>258.0</ele><time>2026-04-26T17:15:14.999Z</time></trkpt><trkpt lat="43.117250179423486" lon="12.167735240103022"><ele>257.5</ele><time>2026-04-26T17:15:15.999Z</time></trkpt><trkpt lat="43.11716159400507" lon="12.167827573123102"><ele>257.0</ele><time>2026-04-26T17:15:16.999Z</time></trkpt><trkpt lat="43.117093933423384" lon="12.167923154850218"><ele>257.0</ele><time>2026-04-26T17:15:17.999Z</time></trkpt><trkpt lat="43.117045351552015" lon="12.168021295608373"><ele>257.0</ele><time>2026-04-26T17:15:18.999Z</time></trkpt><trkpt lat="43.11698734316167" lon="12.168096611588217"><ele>257.0</ele><time>2026-04-26T17:15:19.999Z</time></trkpt><trkpt lat="43.116933300094935" lon="12.16816947966024"><ele>257.0</ele><time>2026-04-26T17:15:20.999Z</time></trkpt><trkpt lat="43.11688061190187" lon="12.168231138698015"><ele>257.0</ele><time>2026-04-26T17:15:21.999Z</time></trkpt><trkpt lat="43.11683417313026" lon="12.16829033492657"><ele>257.0</ele><time>2026-04-26T17:15:22.999Z</time></trkpt><trkpt lat="43.11678021542711" lon="12.168343292163684"><ele>257.0</ele><time>2026-04-26T17:15:23.999Z</time></trkpt><trkpt lat="43.1167183034896" lon="12.168398076707977"><ele>257.1666666666667</ele><time>2026-04-26T17:15:24.999Z</time></trkpt><trkpt lat="43.116658460989434" lon="12.168461073826938"><ele>257.33333333333337</ele><time>2026-04-26T17:15:25.999Z</time></trkpt><trkpt lat="43.116600860156396" lon="12.168512423777072"><ele>257.5</ele><time>2026-04-26T17:15:26.999Z</time></trkpt><trkpt lat="43.11653931692743" lon="12.168563523791462"><ele>257.6666666666667</ele><time>2026-04-26T17:15:28.999Z</time></trkpt><trkpt lat="43.11648520007694" lon="12.168608498782708"><ele>257.8333333333333</ele><time>2026-04-26T17:15:32.999Z</time></trkpt><trkpt lat="43.11658999235659" lon="12.168776962069781"><ele>258.0</ele><time>2026-04-26T17:15:33.999Z</time></trkpt><trkpt lat="43.11667155520415" lon="12.16885859572345"><ele>258.1666666666667</ele><time>2026-04-26T17:15:34.999Z</time></trkpt><trkpt lat="43.11672427981836" lon="12.168974205534747"><ele>258.3333333333333</ele><time>2026-04-26T17:15:35.999Z</time></trkpt><trkpt lat="43.11676066966982" lon="12.16911623020996"><ele>258.5</ele><time>2026-04-26T17:15:36.999Z</time></trkpt><trkpt lat="43.11679045284228" lon="12.169234409737022"><ele>258.66666666666663</ele><time>2026-04-26T17:15:37.999Z</time></trkpt><trkpt lat="43.11683283035508" lon="12.169327947446881"><ele>258.8333333333333</ele><time>2026-04-26T17:15:38.999Z</time></trkpt><trkpt lat="43.116876670379355" lon="12.169393060043916"><ele>259.0</ele><time>2026-04-26T17:15:39.999Z</time></trkpt><trkpt lat="43.116955667909245" lon="12.169458359975796"><ele>261.0</ele><time>2026-04-26T17:15:41.998Z</time></trkpt><trkpt lat="43.117081176662055" lon="12.16933664142647"><ele>261.0</ele><time>2026-04-26T17:15:54.998Z</time></trkpt></trkseg></trk></gpx>